<?xml version="1.0" encoding="UTF-8" standalone="no" ?>
<gpx xmlns="http://www.topografix.com/GPX/1/1" xmlns:xsi="http://www.w3.org/2001/XMLSchema-instance" xsi:schemaLocation="http://www.topografix.com/GPX/1/1 http://www.topografix.com/GPX/1/1/gpx.xsd" version="1.1" creator="VisuGPX - https://www.visugpx.com">
  <metadata>
    <name>29/08/2021</name>
    <desc><![CDATA[boucle au départ de couraduque puis col du Couret puis col spandelles et retour]]></desc>
  </metadata>
  <trk>
    <name><![CDATA[29/08/2021_1]]></name>
    <trkseg>
      <trkpt lat="42.99067" lon="-0.20244">
        <ele>1367.2</ele>
        <time>2021-08-29T06:57:35Z</time>
      </trkpt>
      <trkpt lat="42.99078" lon="-0.20259">
        <ele>1363.6</ele>
        <time>2021-08-29T06:57:40Z</time>
      </trkpt>
      <trkpt lat="42.99097" lon="-0.20279">
        <ele>1363.6</ele>
        <time>2021-08-29T06:57:46Z</time>
      </trkpt>
      <trkpt lat="42.99107" lon="-0.20293">
        <ele>1363.8</ele>
        <time>2021-08-29T06:57:50Z</time>
      </trkpt>
      <trkpt lat="42.9911" lon="-0.20295">
        <ele>1363.8</ele>
        <time>2021-08-29T06:57:51Z</time>
      </trkpt>
      <trkpt lat="42.99113" lon="-0.20297">
        <ele>1363.8</ele>
        <time>2021-08-29T06:57:52Z</time>
      </trkpt>
      <trkpt lat="42.99116" lon="-0.20299">
        <ele>1364</ele>
        <time>2021-08-29T06:57:53Z</time>
      </trkpt>
      <trkpt lat="42.9912" lon="-0.20299">
        <ele>1364</ele>
        <time>2021-08-29T06:57:54Z</time>
      </trkpt>
      <trkpt lat="42.99123" lon="-0.20299">
        <ele>1364</ele>
        <time>2021-08-29T06:57:55Z</time>
      </trkpt>
      <trkpt lat="42.99127" lon="-0.20298">
        <ele>1364.2</ele>
        <time>2021-08-29T06:57:56Z</time>
      </trkpt>
      <trkpt lat="42.9913" lon="-0.20297">
        <ele>1364.2</ele>
        <time>2021-08-29T06:57:57Z</time>
      </trkpt>
      <trkpt lat="42.99133" lon="-0.20294">
        <ele>1364.2</ele>
        <time>2021-08-29T06:57:58Z</time>
      </trkpt>
      <trkpt lat="42.99136" lon="-0.20291">
        <ele>1364.2</ele>
        <time>2021-08-29T06:57:59Z</time>
      </trkpt>
      <trkpt lat="42.99139" lon="-0.20287">
        <ele>1364.2</ele>
        <time>2021-08-29T06:58:00Z</time>
      </trkpt>
      <trkpt lat="42.99141" lon="-0.20283">
        <ele>1364.2</ele>
        <time>2021-08-29T06:58:01Z</time>
      </trkpt>
      <trkpt lat="42.99152" lon="-0.20262">
        <ele>1364</ele>
        <time>2021-08-29T06:58:05Z</time>
      </trkpt>
      <trkpt lat="42.99158" lon="-0.20252">
        <ele>1363.6</ele>
        <time>2021-08-29T06:58:07Z</time>
      </trkpt>
      <trkpt lat="42.99174" lon="-0.20225">
        <ele>1363</ele>
        <time>2021-08-29T06:58:12Z</time>
      </trkpt>
      <trkpt lat="42.99189" lon="-0.20192">
        <ele>1362.4</ele>
        <time>2021-08-29T06:58:17Z</time>
      </trkpt>
      <trkpt lat="42.99191" lon="-0.20185">
        <ele>1362.4</ele>
        <time>2021-08-29T06:58:18Z</time>
      </trkpt>
      <trkpt lat="42.99194" lon="-0.20178">
        <ele>1362.2</ele>
        <time>2021-08-29T06:58:19Z</time>
      </trkpt>
      <trkpt lat="42.99197" lon="-0.20164">
        <ele>1361.8</ele>
        <time>2021-08-29T06:58:21Z</time>
      </trkpt>
      <trkpt lat="42.99198" lon="-0.20149">
        <ele>1361.6</ele>
        <time>2021-08-29T06:58:23Z</time>
      </trkpt>
      <trkpt lat="42.99197" lon="-0.20135">
        <ele>1361.4</ele>
        <time>2021-08-29T06:58:25Z</time>
      </trkpt>
      <trkpt lat="42.99195" lon="-0.20128">
        <ele>1361.2</ele>
        <time>2021-08-29T06:58:26Z</time>
      </trkpt>
      <trkpt lat="42.99193" lon="-0.20121">
        <ele>1361.2</ele>
        <time>2021-08-29T06:58:27Z</time>
      </trkpt>
      <trkpt lat="42.99186" lon="-0.2009">
        <ele>1360.8</ele>
        <time>2021-08-29T06:58:31Z</time>
      </trkpt>
      <trkpt lat="42.99185" lon="-0.20073">
        <ele>1360.4</ele>
        <time>2021-08-29T06:58:33Z</time>
      </trkpt>
      <trkpt lat="42.99185" lon="-0.20065">
        <ele>1360.2</ele>
        <time>2021-08-29T06:58:34Z</time>
      </trkpt>
      <trkpt lat="42.99185" lon="-0.20056">
        <ele>1360</ele>
        <time>2021-08-29T06:58:35Z</time>
      </trkpt>
      <trkpt lat="42.99187" lon="-0.20038">
        <ele>1360</ele>
        <time>2021-08-29T06:58:37Z</time>
      </trkpt>
      <trkpt lat="42.9919" lon="-0.2002">
        <ele>1359.6</ele>
        <time>2021-08-29T06:58:39Z</time>
      </trkpt>
      <trkpt lat="42.99197" lon="-0.19984">
        <ele>1359</ele>
        <time>2021-08-29T06:58:43Z</time>
      </trkpt>
      <trkpt lat="42.99202" lon="-0.19967">
        <ele>1358.6</ele>
        <time>2021-08-29T06:58:45Z</time>
      </trkpt>
      <trkpt lat="42.99205" lon="-0.19959">
        <ele>1358.4</ele>
        <time>2021-08-29T06:58:46Z</time>
      </trkpt>
      <trkpt lat="42.99208" lon="-0.19951">
        <ele>1358.2</ele>
        <time>2021-08-29T06:58:47Z</time>
      </trkpt>
      <trkpt lat="42.99224" lon="-0.19921">
        <ele>1358</ele>
        <time>2021-08-29T06:58:51Z</time>
      </trkpt>
      <trkpt lat="42.99227" lon="-0.19914">
        <ele>1357.8</ele>
        <time>2021-08-29T06:58:52Z</time>
      </trkpt>
      <trkpt lat="42.99231" lon="-0.19907">
        <ele>1357.6</ele>
        <time>2021-08-29T06:58:53Z</time>
      </trkpt>
      <trkpt lat="42.99235" lon="-0.199">
        <ele>1357.4</ele>
        <time>2021-08-29T06:58:54Z</time>
      </trkpt>
      <trkpt lat="42.99239" lon="-0.19892">
        <ele>1357.4</ele>
        <time>2021-08-29T06:58:55Z</time>
      </trkpt>
      <trkpt lat="42.99242" lon="-0.19884">
        <ele>1357.2</ele>
        <time>2021-08-29T06:58:56Z</time>
      </trkpt>
      <trkpt lat="42.99246" lon="-0.19867">
        <ele>1356.8</ele>
        <time>2021-08-29T06:58:58Z</time>
      </trkpt>
      <trkpt lat="42.99247" lon="-0.19859">
        <ele>1356.8</ele>
        <time>2021-08-29T06:58:59Z</time>
      </trkpt>
      <trkpt lat="42.99252" lon="-0.19833">
        <ele>1356.2</ele>
        <time>2021-08-29T06:59:02Z</time>
      </trkpt>
      <trkpt lat="42.99256" lon="-0.19806">
        <ele>1355.8</ele>
        <time>2021-08-29T06:59:05Z</time>
      </trkpt>
      <trkpt lat="42.99256" lon="-0.19796">
        <ele>1355.8</ele>
        <time>2021-08-29T06:59:06Z</time>
      </trkpt>
      <trkpt lat="42.99255" lon="-0.19776">
        <ele>1355.4</ele>
        <time>2021-08-29T06:59:08Z</time>
      </trkpt>
      <trkpt lat="42.99253" lon="-0.19756">
        <ele>1355.2</ele>
        <time>2021-08-29T06:59:10Z</time>
      </trkpt>
      <trkpt lat="42.99251" lon="-0.19746">
        <ele>1354.6</ele>
        <time>2021-08-29T06:59:11Z</time>
      </trkpt>
      <trkpt lat="42.99249" lon="-0.19724">
        <ele>1353.8</ele>
        <time>2021-08-29T06:59:13Z</time>
      </trkpt>
      <trkpt lat="42.99248" lon="-0.19713">
        <ele>1353.2</ele>
        <time>2021-08-29T06:59:14Z</time>
      </trkpt>
      <trkpt lat="42.99242" lon="-0.1965">
        <ele>1352.4</ele>
        <time>2021-08-29T06:59:20Z</time>
      </trkpt>
      <trkpt lat="42.9924" lon="-0.1964">
        <ele>1352.2</ele>
        <time>2021-08-29T06:59:21Z</time>
      </trkpt>
      <trkpt lat="42.99235" lon="-0.19584">
        <ele>1351.6</ele>
        <time>2021-08-29T06:59:26Z</time>
      </trkpt>
      <trkpt lat="42.9923" lon="-0.19564">
        <ele>1351.2</ele>
        <time>2021-08-29T06:59:28Z</time>
      </trkpt>
      <trkpt lat="42.99228" lon="-0.19555">
        <ele>1351</ele>
        <time>2021-08-29T06:59:29Z</time>
      </trkpt>
      <trkpt lat="42.99226" lon="-0.19546">
        <ele>1350.8</ele>
        <time>2021-08-29T06:59:30Z</time>
      </trkpt>
      <trkpt lat="42.99223" lon="-0.19538">
        <ele>1350.6</ele>
        <time>2021-08-29T06:59:31Z</time>
      </trkpt>
      <trkpt lat="42.99221" lon="-0.19529">
        <ele>1350.4</ele>
        <time>2021-08-29T06:59:32Z</time>
      </trkpt>
      <trkpt lat="42.9922" lon="-0.1952">
        <ele>1350.2</ele>
        <time>2021-08-29T06:59:33Z</time>
      </trkpt>
      <trkpt lat="42.99216" lon="-0.19502">
        <ele>1350</ele>
        <time>2021-08-29T06:59:35Z</time>
      </trkpt>
      <trkpt lat="42.99215" lon="-0.19494">
        <ele>1350</ele>
        <time>2021-08-29T06:59:36Z</time>
      </trkpt>
      <trkpt lat="42.99213" lon="-0.19486">
        <ele>1350.2</ele>
        <time>2021-08-29T06:59:37Z</time>
      </trkpt>
      <trkpt lat="42.99211" lon="-0.19478">
        <ele>1350.2</ele>
        <time>2021-08-29T06:59:38Z</time>
      </trkpt>
      <trkpt lat="42.99209" lon="-0.19471">
        <ele>1350.2</ele>
        <time>2021-08-29T06:59:39Z</time>
      </trkpt>
      <trkpt lat="42.99207" lon="-0.19464">
        <ele>1350.2</ele>
        <time>2021-08-29T06:59:40Z</time>
      </trkpt>
      <trkpt lat="42.99206" lon="-0.19457">
        <ele>1350.2</ele>
        <time>2021-08-29T06:59:41Z</time>
      </trkpt>
      <trkpt lat="42.99205" lon="-0.1945">
        <ele>1350.2</ele>
        <time>2021-08-29T06:59:42Z</time>
      </trkpt>
      <trkpt lat="42.99204" lon="-0.19443">
        <ele>1350.2</ele>
        <time>2021-08-29T06:59:43Z</time>
      </trkpt>
      <trkpt lat="42.99205" lon="-0.19436">
        <ele>1350.6</ele>
        <time>2021-08-29T06:59:44Z</time>
      </trkpt>
      <trkpt lat="42.99206" lon="-0.19429">
        <ele>1350.6</ele>
        <time>2021-08-29T06:59:45Z</time>
      </trkpt>
      <trkpt lat="42.99208" lon="-0.19422">
        <ele>1350.8</ele>
        <time>2021-08-29T06:59:46Z</time>
      </trkpt>
      <trkpt lat="42.9921" lon="-0.19416">
        <ele>1351</ele>
        <time>2021-08-29T06:59:47Z</time>
      </trkpt>
      <trkpt lat="42.99213" lon="-0.1941">
        <ele>1351</ele>
        <time>2021-08-29T06:59:48Z</time>
      </trkpt>
      <trkpt lat="42.99216" lon="-0.19405">
        <ele>1351</ele>
        <time>2021-08-29T06:59:49Z</time>
      </trkpt>
      <trkpt lat="42.99219" lon="-0.194">
        <ele>1351.2</ele>
        <time>2021-08-29T06:59:50Z</time>
      </trkpt>
      <trkpt lat="42.99222" lon="-0.19396">
        <ele>1351.2</ele>
        <time>2021-08-29T06:59:51Z</time>
      </trkpt>
      <trkpt lat="42.99226" lon="-0.19391">
        <ele>1351.4</ele>
        <time>2021-08-29T06:59:52Z</time>
      </trkpt>
      <trkpt lat="42.9923" lon="-0.19387">
        <ele>1351.4</ele>
        <time>2021-08-29T06:59:53Z</time>
      </trkpt>
      <trkpt lat="42.99233" lon="-0.19384">
        <ele>1351.6</ele>
        <time>2021-08-29T06:59:54Z</time>
      </trkpt>
      <trkpt lat="42.99237" lon="-0.1938">
        <ele>1351.6</ele>
        <time>2021-08-29T06:59:55Z</time>
      </trkpt>
      <trkpt lat="42.9924" lon="-0.19377">
        <ele>1351.8</ele>
        <time>2021-08-29T06:59:56Z</time>
      </trkpt>
      <trkpt lat="42.99244" lon="-0.19374">
        <ele>1352</ele>
        <time>2021-08-29T06:59:57Z</time>
      </trkpt>
      <trkpt lat="42.99247" lon="-0.1937">
        <ele>1352</ele>
        <time>2021-08-29T06:59:58Z</time>
      </trkpt>
      <trkpt lat="42.9925" lon="-0.19366">
        <ele>1352.2</ele>
        <time>2021-08-29T06:59:59Z</time>
      </trkpt>
      <trkpt lat="42.99252" lon="-0.19363">
        <ele>1352.4</ele>
        <time>2021-08-29T07:00:00Z</time>
      </trkpt>
      <trkpt lat="42.99255" lon="-0.19359">
        <ele>1352.6</ele>
        <time>2021-08-29T07:00:01Z</time>
      </trkpt>
      <trkpt lat="42.99257" lon="-0.19354">
        <ele>1352.8</ele>
        <time>2021-08-29T07:00:02Z</time>
      </trkpt>
      <trkpt lat="42.99259" lon="-0.1935">
        <ele>1353</ele>
        <time>2021-08-29T07:00:03Z</time>
      </trkpt>
      <trkpt lat="42.9926" lon="-0.19346">
        <ele>1353</ele>
        <time>2021-08-29T07:00:04Z</time>
      </trkpt>
      <trkpt lat="42.99262" lon="-0.19341">
        <ele>1353.2</ele>
        <time>2021-08-29T07:00:05Z</time>
      </trkpt>
      <trkpt lat="42.99264" lon="-0.19337">
        <ele>1353.4</ele>
        <time>2021-08-29T07:00:06Z</time>
      </trkpt>
      <trkpt lat="42.99272" lon="-0.19325">
        <ele>1354.2</ele>
        <time>2021-08-29T07:00:09Z</time>
      </trkpt>
      <trkpt lat="42.99274" lon="-0.19322">
        <ele>1354.2</ele>
        <time>2021-08-29T07:00:10Z</time>
      </trkpt>
      <trkpt lat="42.99277" lon="-0.19319">
        <ele>1354.4</ele>
        <time>2021-08-29T07:00:11Z</time>
      </trkpt>
      <trkpt lat="42.9928" lon="-0.19316">
        <ele>1354.4</ele>
        <time>2021-08-29T07:00:12Z</time>
      </trkpt>
      <trkpt lat="42.99283" lon="-0.19313">
        <ele>1354.4</ele>
        <time>2021-08-29T07:00:13Z</time>
      </trkpt>
      <trkpt lat="42.99285" lon="-0.19311">
        <ele>1354.8</ele>
        <time>2021-08-29T07:00:14Z</time>
      </trkpt>
      <trkpt lat="42.99288" lon="-0.19309">
        <ele>1355</ele>
        <time>2021-08-29T07:00:15Z</time>
      </trkpt>
      <trkpt lat="42.99291" lon="-0.19307">
        <ele>1355</ele>
        <time>2021-08-29T07:00:16Z</time>
      </trkpt>
      <trkpt lat="42.99294" lon="-0.19306">
        <ele>1355.2</ele>
        <time>2021-08-29T07:00:17Z</time>
      </trkpt>
      <trkpt lat="42.99297" lon="-0.19305">
        <ele>1355.8</ele>
        <time>2021-08-29T07:00:18Z</time>
      </trkpt>
      <trkpt lat="42.993" lon="-0.19303">
        <ele>1356</ele>
        <time>2021-08-29T07:00:19Z</time>
      </trkpt>
      <trkpt lat="42.99303" lon="-0.19302">
        <ele>1356.4</ele>
        <time>2021-08-29T07:00:20Z</time>
      </trkpt>
      <trkpt lat="42.99306" lon="-0.19301">
        <ele>1356.6</ele>
        <time>2021-08-29T07:00:21Z</time>
      </trkpt>
      <trkpt lat="42.99308" lon="-0.19301">
        <ele>1356.8</ele>
        <time>2021-08-29T07:00:22Z</time>
      </trkpt>
      <trkpt lat="42.99311" lon="-0.19302">
        <ele>1356.8</ele>
        <time>2021-08-29T07:00:23Z</time>
      </trkpt>
      <trkpt lat="42.99313" lon="-0.19303">
        <ele>1357.2</ele>
        <time>2021-08-29T07:00:24Z</time>
      </trkpt>
      <trkpt lat="42.99315" lon="-0.19305">
        <ele>1357.2</ele>
        <time>2021-08-29T07:00:25Z</time>
      </trkpt>
      <trkpt lat="42.99317" lon="-0.19307">
        <ele>1357.6</ele>
        <time>2021-08-29T07:00:26Z</time>
      </trkpt>
      <trkpt lat="42.99319" lon="-0.19311">
        <ele>1357.8</ele>
        <time>2021-08-29T07:00:27Z</time>
      </trkpt>
      <trkpt lat="42.9932" lon="-0.19314">
        <ele>1357.8</ele>
        <time>2021-08-29T07:00:28Z</time>
      </trkpt>
      <trkpt lat="42.99322" lon="-0.19318">
        <ele>1358</ele>
        <time>2021-08-29T07:00:29Z</time>
      </trkpt>
      <trkpt lat="42.99324" lon="-0.19323">
        <ele>1358</ele>
        <time>2021-08-29T07:00:30Z</time>
      </trkpt>
      <trkpt lat="42.99326" lon="-0.19327">
        <ele>1358.2</ele>
        <time>2021-08-29T07:00:31Z</time>
      </trkpt>
      <trkpt lat="42.99328" lon="-0.19331">
        <ele>1358.2</ele>
        <time>2021-08-29T07:00:32Z</time>
      </trkpt>
      <trkpt lat="42.99331" lon="-0.19334">
        <ele>1358.2</ele>
        <time>2021-08-29T07:00:33Z</time>
      </trkpt>
      <trkpt lat="42.99334" lon="-0.19339">
        <ele>1358.2</ele>
        <time>2021-08-29T07:00:34Z</time>
      </trkpt>
      <trkpt lat="42.99338" lon="-0.19342">
        <ele>1358.4</ele>
        <time>2021-08-29T07:00:35Z</time>
      </trkpt>
      <trkpt lat="42.99342" lon="-0.19345">
        <ele>1358.4</ele>
        <time>2021-08-29T07:00:36Z</time>
      </trkpt>
      <trkpt lat="42.99346" lon="-0.19348">
        <ele>1358.4</ele>
        <time>2021-08-29T07:00:37Z</time>
      </trkpt>
      <trkpt lat="42.99351" lon="-0.19351">
        <ele>1358.4</ele>
        <time>2021-08-29T07:00:38Z</time>
      </trkpt>
      <trkpt lat="42.99356" lon="-0.19353">
        <ele>1358.4</ele>
        <time>2021-08-29T07:00:39Z</time>
      </trkpt>
      <trkpt lat="42.99361" lon="-0.19355">
        <ele>1358.2</ele>
        <time>2021-08-29T07:00:40Z</time>
      </trkpt>
      <trkpt lat="42.99366" lon="-0.19358">
        <ele>1358.2</ele>
        <time>2021-08-29T07:00:41Z</time>
      </trkpt>
      <trkpt lat="42.99371" lon="-0.1936">
        <ele>1358</ele>
        <time>2021-08-29T07:00:42Z</time>
      </trkpt>
      <trkpt lat="42.99376" lon="-0.19362">
        <ele>1358</ele>
        <time>2021-08-29T07:00:43Z</time>
      </trkpt>
      <trkpt lat="42.99381" lon="-0.19364">
        <ele>1358</ele>
        <time>2021-08-29T07:00:44Z</time>
      </trkpt>
      <trkpt lat="42.99387" lon="-0.19366">
        <ele>1358</ele>
        <time>2021-08-29T07:00:45Z</time>
      </trkpt>
      <trkpt lat="42.99393" lon="-0.19369">
        <ele>1358</ele>
        <time>2021-08-29T07:00:46Z</time>
      </trkpt>
      <trkpt lat="42.99416" lon="-0.19382">
        <ele>1357.8</ele>
        <time>2021-08-29T07:00:50Z</time>
      </trkpt>
      <trkpt lat="42.99435" lon="-0.19393">
        <ele>1357.6</ele>
        <time>2021-08-29T07:00:53Z</time>
      </trkpt>
      <trkpt lat="42.99458" lon="-0.19405">
        <ele>1356.8</ele>
        <time>2021-08-29T07:00:57Z</time>
      </trkpt>
      <trkpt lat="42.9947" lon="-0.1941">
        <ele>1356.6</ele>
        <time>2021-08-29T07:00:59Z</time>
      </trkpt>
      <trkpt lat="42.99476" lon="-0.19411">
        <ele>1356.6</ele>
        <time>2021-08-29T07:01:00Z</time>
      </trkpt>
      <trkpt lat="42.99488" lon="-0.19412">
        <ele>1356.4</ele>
        <time>2021-08-29T07:01:02Z</time>
      </trkpt>
      <trkpt lat="42.99493" lon="-0.19412">
        <ele>1356</ele>
        <time>2021-08-29T07:01:03Z</time>
      </trkpt>
      <trkpt lat="42.99498" lon="-0.19412">
        <ele>1356</ele>
        <time>2021-08-29T07:01:04Z</time>
      </trkpt>
      <trkpt lat="42.99504" lon="-0.1941">
        <ele>1356</ele>
        <time>2021-08-29T07:01:05Z</time>
      </trkpt>
      <trkpt lat="42.99515" lon="-0.19406">
        <ele>1355.4</ele>
        <time>2021-08-29T07:01:07Z</time>
      </trkpt>
      <trkpt lat="42.99527" lon="-0.19403">
        <ele>1355</ele>
        <time>2021-08-29T07:01:09Z</time>
      </trkpt>
      <trkpt lat="42.99533" lon="-0.194">
        <ele>1355</ele>
        <time>2021-08-29T07:01:10Z</time>
      </trkpt>
      <trkpt lat="42.9956" lon="-0.19389">
        <ele>1354.4</ele>
        <time>2021-08-29T07:01:14Z</time>
      </trkpt>
      <trkpt lat="42.99567" lon="-0.19385">
        <ele>1354.4</ele>
        <time>2021-08-29T07:01:15Z</time>
      </trkpt>
      <trkpt lat="42.99573" lon="-0.19381">
        <ele>1354.2</ele>
        <time>2021-08-29T07:01:16Z</time>
      </trkpt>
      <trkpt lat="42.99579" lon="-0.19377">
        <ele>1353.8</ele>
        <time>2021-08-29T07:01:17Z</time>
      </trkpt>
      <trkpt lat="42.99585" lon="-0.19372">
        <ele>1353.4</ele>
        <time>2021-08-29T07:01:18Z</time>
      </trkpt>
      <trkpt lat="42.9959" lon="-0.19367">
        <ele>1353.2</ele>
        <time>2021-08-29T07:01:19Z</time>
      </trkpt>
      <trkpt lat="42.99597" lon="-0.19362">
        <ele>1353</ele>
        <time>2021-08-29T07:01:20Z</time>
      </trkpt>
      <trkpt lat="42.99623" lon="-0.19342">
        <ele>1352.2</ele>
        <time>2021-08-29T07:01:24Z</time>
      </trkpt>
      <trkpt lat="42.9965" lon="-0.19324">
        <ele>1351.4</ele>
        <time>2021-08-29T07:01:28Z</time>
      </trkpt>
      <trkpt lat="42.99657" lon="-0.1932">
        <ele>1351.2</ele>
        <time>2021-08-29T07:01:29Z</time>
      </trkpt>
      <trkpt lat="42.99664" lon="-0.19315">
        <ele>1351</ele>
        <time>2021-08-29T07:01:30Z</time>
      </trkpt>
      <trkpt lat="42.99687" lon="-0.19301">
        <ele>1349.6</ele>
        <time>2021-08-29T07:01:33Z</time>
      </trkpt>
      <trkpt lat="42.99695" lon="-0.19296">
        <ele>1349.4</ele>
        <time>2021-08-29T07:01:34Z</time>
      </trkpt>
      <trkpt lat="42.9971" lon="-0.19287">
        <ele>1348.6</ele>
        <time>2021-08-29T07:01:36Z</time>
      </trkpt>
      <trkpt lat="42.99718" lon="-0.19282">
        <ele>1348.2</ele>
        <time>2021-08-29T07:01:37Z</time>
      </trkpt>
      <trkpt lat="42.99732" lon="-0.19271">
        <ele>1347.2</ele>
        <time>2021-08-29T07:01:39Z</time>
      </trkpt>
      <trkpt lat="42.99742" lon="-0.19265">
        <ele>1346.8</ele>
        <time>2021-08-29T07:01:40Z</time>
      </trkpt>
      <trkpt lat="42.99756" lon="-0.19258">
        <ele>1345.8</ele>
        <time>2021-08-29T07:01:42Z</time>
      </trkpt>
      <trkpt lat="42.99762" lon="-0.19257">
        <ele>1345.6</ele>
        <time>2021-08-29T07:01:43Z</time>
      </trkpt>
      <trkpt lat="42.99769" lon="-0.19256">
        <ele>1345.2</ele>
        <time>2021-08-29T07:01:44Z</time>
      </trkpt>
      <trkpt lat="42.99775" lon="-0.19256">
        <ele>1345.2</ele>
        <time>2021-08-29T07:01:45Z</time>
      </trkpt>
      <trkpt lat="42.99788" lon="-0.19255">
        <ele>1344.6</ele>
        <time>2021-08-29T07:01:47Z</time>
      </trkpt>
      <trkpt lat="42.99792" lon="-0.19257">
        <ele>1344.2</ele>
        <time>2021-08-29T07:01:48Z</time>
      </trkpt>
      <trkpt lat="42.99796" lon="-0.19258">
        <ele>1344</ele>
        <time>2021-08-29T07:01:49Z</time>
      </trkpt>
      <trkpt lat="42.99798" lon="-0.1926">
        <ele>1344</ele>
        <time>2021-08-29T07:01:50Z</time>
      </trkpt>
      <trkpt lat="42.998" lon="-0.19261">
        <ele>1343.8</ele>
        <time>2021-08-29T07:01:51Z</time>
      </trkpt>
      <trkpt lat="42.99801" lon="-0.19263">
        <ele>1343.8</ele>
        <time>2021-08-29T07:01:52Z</time>
      </trkpt>
      <trkpt lat="42.99803" lon="-0.19265">
        <ele>1343.8</ele>
        <time>2021-08-29T07:01:53Z</time>
      </trkpt>
      <trkpt lat="42.99805" lon="-0.19267">
        <ele>1343.8</ele>
        <time>2021-08-29T07:01:54Z</time>
      </trkpt>
      <trkpt lat="42.99806" lon="-0.1927">
        <ele>1343.8</ele>
        <time>2021-08-29T07:01:55Z</time>
      </trkpt>
      <trkpt lat="42.99807" lon="-0.19275">
        <ele>1343.8</ele>
        <time>2021-08-29T07:01:56Z</time>
      </trkpt>
      <trkpt lat="42.99809" lon="-0.1928">
        <ele>1343.8</ele>
        <time>2021-08-29T07:01:57Z</time>
      </trkpt>
      <trkpt lat="42.99816" lon="-0.19296">
        <ele>1343.6</ele>
        <time>2021-08-29T07:02:00Z</time>
      </trkpt>
      <trkpt lat="42.99818" lon="-0.19301">
        <ele>1343.6</ele>
        <time>2021-08-29T07:02:01Z</time>
      </trkpt>
      <trkpt lat="42.99821" lon="-0.19303">
        <ele>1343.4</ele>
        <time>2021-08-29T07:02:02Z</time>
      </trkpt>
      <trkpt lat="42.99824" lon="-0.19303">
        <ele>1343.2</ele>
        <time>2021-08-29T07:02:03Z</time>
      </trkpt>
      <trkpt lat="42.99827" lon="-0.19301">
        <ele>1343.2</ele>
        <time>2021-08-29T07:02:04Z</time>
      </trkpt>
      <trkpt lat="42.99834" lon="-0.19293">
        <ele>1342.6</ele>
        <time>2021-08-29T07:02:06Z</time>
      </trkpt>
      <trkpt lat="42.99838" lon="-0.19289">
        <ele>1342</ele>
        <time>2021-08-29T07:02:07Z</time>
      </trkpt>
      <trkpt lat="42.99856" lon="-0.19268">
        <ele>1341</ele>
        <time>2021-08-29T07:02:11Z</time>
      </trkpt>
      <trkpt lat="42.9986" lon="-0.19263">
        <ele>1340.8</ele>
        <time>2021-08-29T07:02:12Z</time>
      </trkpt>
      <trkpt lat="42.99867" lon="-0.19256">
        <ele>1340.4</ele>
        <time>2021-08-29T07:02:13Z</time>
      </trkpt>
      <trkpt lat="42.99886" lon="-0.19239">
        <ele>1339.4</ele>
        <time>2021-08-29T07:02:16Z</time>
      </trkpt>
      <trkpt lat="42.99892" lon="-0.19234">
        <ele>1339</ele>
        <time>2021-08-29T07:02:17Z</time>
      </trkpt>
      <trkpt lat="42.99897" lon="-0.19229">
        <ele>1338.4</ele>
        <time>2021-08-29T07:02:18Z</time>
      </trkpt>
      <trkpt lat="42.99904" lon="-0.19224">
        <ele>1338.2</ele>
        <time>2021-08-29T07:02:19Z</time>
      </trkpt>
      <trkpt lat="42.9992" lon="-0.19215">
        <ele>1336.6</ele>
        <time>2021-08-29T07:02:22Z</time>
      </trkpt>
      <trkpt lat="42.99926" lon="-0.19213">
        <ele>1336.4</ele>
        <time>2021-08-29T07:02:23Z</time>
      </trkpt>
      <trkpt lat="42.99946" lon="-0.19206">
        <ele>1335.4</ele>
        <time>2021-08-29T07:02:26Z</time>
      </trkpt>
      <trkpt lat="42.99953" lon="-0.19202">
        <ele>1335.2</ele>
        <time>2021-08-29T07:02:27Z</time>
      </trkpt>
      <trkpt lat="42.9996" lon="-0.19198">
        <ele>1334.6</ele>
        <time>2021-08-29T07:02:28Z</time>
      </trkpt>
      <trkpt lat="42.99967" lon="-0.19194">
        <ele>1334.2</ele>
        <time>2021-08-29T07:02:29Z</time>
      </trkpt>
      <trkpt lat="42.99988" lon="-0.19183">
        <ele>1333</ele>
        <time>2021-08-29T07:02:32Z</time>
      </trkpt>
      <trkpt lat="43.00003" lon="-0.19174">
        <ele>1331.8</ele>
        <time>2021-08-29T07:02:34Z</time>
      </trkpt>
      <trkpt lat="43.00012" lon="-0.1917">
        <ele>1331.4</ele>
        <time>2021-08-29T07:02:35Z</time>
      </trkpt>
      <trkpt lat="43.00029" lon="-0.19165">
        <ele>1330.8</ele>
        <time>2021-08-29T07:02:37Z</time>
      </trkpt>
      <trkpt lat="43.00037" lon="-0.19163">
        <ele>1330.6</ele>
        <time>2021-08-29T07:02:38Z</time>
      </trkpt>
      <trkpt lat="43.00045" lon="-0.19162">
        <ele>1330</ele>
        <time>2021-08-29T07:02:39Z</time>
      </trkpt>
      <trkpt lat="43.00054" lon="-0.19161">
        <ele>1329.6</ele>
        <time>2021-08-29T07:02:40Z</time>
      </trkpt>
      <trkpt lat="43.00062" lon="-0.1916">
        <ele>1328</ele>
        <time>2021-08-29T07:02:41Z</time>
      </trkpt>
      <trkpt lat="43.00073" lon="-0.19161">
        <ele>1327.4</ele>
        <time>2021-08-29T07:02:42Z</time>
      </trkpt>
      <trkpt lat="43.00082" lon="-0.1916">
        <ele>1326.8</ele>
        <time>2021-08-29T07:02:43Z</time>
      </trkpt>
      <trkpt lat="43.00091" lon="-0.19159">
        <ele>1326.6</ele>
        <time>2021-08-29T07:02:44Z</time>
      </trkpt>
      <trkpt lat="43.001" lon="-0.19159">
        <ele>1325.6</ele>
        <time>2021-08-29T07:02:45Z</time>
      </trkpt>
      <trkpt lat="43.00108" lon="-0.1916">
        <ele>1325</ele>
        <time>2021-08-29T07:02:46Z</time>
      </trkpt>
      <trkpt lat="43.00116" lon="-0.1916">
        <ele>1324.4</ele>
        <time>2021-08-29T07:02:47Z</time>
      </trkpt>
      <trkpt lat="43.00125" lon="-0.19161">
        <ele>1323.4</ele>
        <time>2021-08-29T07:02:48Z</time>
      </trkpt>
      <trkpt lat="43.00133" lon="-0.19162">
        <ele>1323</ele>
        <time>2021-08-29T07:02:49Z</time>
      </trkpt>
      <trkpt lat="43.00142" lon="-0.19161">
        <ele>1322</ele>
        <time>2021-08-29T07:02:50Z</time>
      </trkpt>
      <trkpt lat="43.0015" lon="-0.1916">
        <ele>1321.6</ele>
        <time>2021-08-29T07:02:51Z</time>
      </trkpt>
      <trkpt lat="43.00158" lon="-0.19159">
        <ele>1321</ele>
        <time>2021-08-29T07:02:52Z</time>
      </trkpt>
      <trkpt lat="43.00166" lon="-0.19157">
        <ele>1320.6</ele>
        <time>2021-08-29T07:02:53Z</time>
      </trkpt>
      <trkpt lat="43.0018" lon="-0.19151">
        <ele>1319.4</ele>
        <time>2021-08-29T07:02:55Z</time>
      </trkpt>
      <trkpt lat="43.00188" lon="-0.19147">
        <ele>1318.8</ele>
        <time>2021-08-29T07:02:56Z</time>
      </trkpt>
      <trkpt lat="43.00201" lon="-0.19138">
        <ele>1317.8</ele>
        <time>2021-08-29T07:02:58Z</time>
      </trkpt>
      <trkpt lat="43.00207" lon="-0.1913">
        <ele>1317.6</ele>
        <time>2021-08-29T07:02:59Z</time>
      </trkpt>
      <trkpt lat="43.00213" lon="-0.19122">
        <ele>1316.6</ele>
        <time>2021-08-29T07:03:00Z</time>
      </trkpt>
      <trkpt lat="43.00219" lon="-0.19112">
        <ele>1316.4</ele>
        <time>2021-08-29T07:03:01Z</time>
      </trkpt>
      <trkpt lat="43.00225" lon="-0.19102">
        <ele>1316</ele>
        <time>2021-08-29T07:03:02Z</time>
      </trkpt>
      <trkpt lat="43.0023" lon="-0.19092">
        <ele>1315.4</ele>
        <time>2021-08-29T07:03:03Z</time>
      </trkpt>
      <trkpt lat="43.00239" lon="-0.19073">
        <ele>1314.6</ele>
        <time>2021-08-29T07:03:05Z</time>
      </trkpt>
      <trkpt lat="43.00242" lon="-0.19064">
        <ele>1314.2</ele>
        <time>2021-08-29T07:03:06Z</time>
      </trkpt>
      <trkpt lat="43.00244" lon="-0.19057">
        <ele>1313.6</ele>
        <time>2021-08-29T07:03:07Z</time>
      </trkpt>
      <trkpt lat="43.00246" lon="-0.1905">
        <ele>1313.2</ele>
        <time>2021-08-29T07:03:08Z</time>
      </trkpt>
      <trkpt lat="43.00247" lon="-0.19045">
        <ele>1312.8</ele>
        <time>2021-08-29T07:03:09Z</time>
      </trkpt>
      <trkpt lat="43.00248" lon="-0.1904">
        <ele>1312.2</ele>
        <time>2021-08-29T07:03:10Z</time>
      </trkpt>
      <trkpt lat="43.00248" lon="-0.19036">
        <ele>1311.6</ele>
        <time>2021-08-29T07:03:11Z</time>
      </trkpt>
      <trkpt lat="43.00249" lon="-0.19034">
        <ele>1311</ele>
        <time>2021-08-29T07:03:12Z</time>
      </trkpt>
      <trkpt lat="43.00249" lon="-0.19034">
        <ele>1309.8</ele>
        <time>2021-08-29T07:03:13Z</time>
      </trkpt>
      <trkpt lat="43.00249" lon="-0.19034">
        <ele>1309.4</ele>
        <time>2021-08-29T07:03:14Z</time>
      </trkpt>
      <trkpt lat="43.00249" lon="-0.19034">
        <ele>1308.6</ele>
        <time>2021-08-29T07:03:16Z</time>
      </trkpt>
      <trkpt lat="43.00249" lon="-0.19034">
        <ele>1307.2</ele>
        <time>2021-08-29T07:03:22Z</time>
      </trkpt>
      <trkpt lat="43.00249" lon="-0.19034">
        <ele>1307.2</ele>
        <time>2021-08-29T07:03:23Z</time>
      </trkpt>
      <trkpt lat="43.00249" lon="-0.19034">
        <ele>1306.2</ele>
        <time>2021-08-29T07:03:45Z</time>
      </trkpt>
      <trkpt lat="43.00249" lon="-0.19034">
        <ele>1306.2</ele>
        <time>2021-08-29T07:03:46Z</time>
      </trkpt>
      <trkpt lat="43.00249" lon="-0.19034">
        <ele>1306.2</ele>
        <time>2021-08-29T07:03:48Z</time>
      </trkpt>
      <trkpt lat="43.00249" lon="-0.19034">
        <ele>1306</ele>
        <time>2021-08-29T07:05:14Z</time>
      </trkpt>
      <trkpt lat="43.0025" lon="-0.1903">
        <ele>1306.2</ele>
        <time>2021-08-29T07:05:34Z</time>
      </trkpt>
      <trkpt lat="43.00251" lon="-0.19026">
        <ele>1306.2</ele>
        <time>2021-08-29T07:05:35Z</time>
      </trkpt>
      <trkpt lat="43.00251" lon="-0.18999">
        <ele>1306</ele>
        <time>2021-08-29T07:05:39Z</time>
      </trkpt>
      <trkpt lat="43.00251" lon="-0.1899">
        <ele>1306</ele>
        <time>2021-08-29T07:05:40Z</time>
      </trkpt>
      <trkpt lat="43.00252" lon="-0.18973">
        <ele>1305.8</ele>
        <time>2021-08-29T07:05:42Z</time>
      </trkpt>
      <trkpt lat="43.0025" lon="-0.18966">
        <ele>1305.6</ele>
        <time>2021-08-29T07:05:43Z</time>
      </trkpt>
      <trkpt lat="43.00247" lon="-0.18959">
        <ele>1305.6</ele>
        <time>2021-08-29T07:05:44Z</time>
      </trkpt>
      <trkpt lat="43.00244" lon="-0.18952">
        <ele>1305.4</ele>
        <time>2021-08-29T07:05:45Z</time>
      </trkpt>
      <trkpt lat="43.00239" lon="-0.18946">
        <ele>1305.2</ele>
        <time>2021-08-29T07:05:46Z</time>
      </trkpt>
      <trkpt lat="43.00234" lon="-0.1894">
        <ele>1305.2</ele>
        <time>2021-08-29T07:05:47Z</time>
      </trkpt>
      <trkpt lat="43.00232" lon="-0.18933">
        <ele>1305</ele>
        <time>2021-08-29T07:05:48Z</time>
      </trkpt>
      <trkpt lat="43.00221" lon="-0.18922">
        <ele>1304.4</ele>
        <time>2021-08-29T07:05:50Z</time>
      </trkpt>
      <trkpt lat="43.00215" lon="-0.18918">
        <ele>1304.4</ele>
        <time>2021-08-29T07:05:51Z</time>
      </trkpt>
      <trkpt lat="43.0021" lon="-0.18912">
        <ele>1304</ele>
        <time>2021-08-29T07:05:52Z</time>
      </trkpt>
      <trkpt lat="43.00202" lon="-0.18894">
        <ele>1303.2</ele>
        <time>2021-08-29T07:05:54Z</time>
      </trkpt>
      <trkpt lat="43.00198" lon="-0.18885">
        <ele>1302.8</ele>
        <time>2021-08-29T07:05:55Z</time>
      </trkpt>
      <trkpt lat="43.00197" lon="-0.18875">
        <ele>1302.6</ele>
        <time>2021-08-29T07:05:56Z</time>
      </trkpt>
      <trkpt lat="43.0019" lon="-0.18855">
        <ele>1302</ele>
        <time>2021-08-29T07:05:58Z</time>
      </trkpt>
      <trkpt lat="43.00177" lon="-0.18824">
        <ele>1300.8</ele>
        <time>2021-08-29T07:06:01Z</time>
      </trkpt>
      <trkpt lat="43.00176" lon="-0.18813">
        <ele>1300.6</ele>
        <time>2021-08-29T07:06:02Z</time>
      </trkpt>
      <trkpt lat="43.00175" lon="-0.18803">
        <ele>1299.8</ele>
        <time>2021-08-29T07:06:03Z</time>
      </trkpt>
      <trkpt lat="43.00176" lon="-0.18792">
        <ele>1299.2</ele>
        <time>2021-08-29T07:06:04Z</time>
      </trkpt>
      <trkpt lat="43.00177" lon="-0.18781">
        <ele>1298.2</ele>
        <time>2021-08-29T07:06:05Z</time>
      </trkpt>
      <trkpt lat="43.00178" lon="-0.18746">
        <ele>1296.8</ele>
        <time>2021-08-29T07:06:08Z</time>
      </trkpt>
      <trkpt lat="43.00178" lon="-0.18735">
        <ele>1295.6</ele>
        <time>2021-08-29T07:06:09Z</time>
      </trkpt>
      <trkpt lat="43.00179" lon="-0.18723">
        <ele>1294.8</ele>
        <time>2021-08-29T07:06:10Z</time>
      </trkpt>
      <trkpt lat="43.00182" lon="-0.1871">
        <ele>1294.4</ele>
        <time>2021-08-29T07:06:11Z</time>
      </trkpt>
      <trkpt lat="43.00185" lon="-0.18698">
        <ele>1293.4</ele>
        <time>2021-08-29T07:06:12Z</time>
      </trkpt>
      <trkpt lat="43.00192" lon="-0.18672">
        <ele>1292.2</ele>
        <time>2021-08-29T07:06:14Z</time>
      </trkpt>
      <trkpt lat="43.002" lon="-0.18647">
        <ele>1291.2</ele>
        <time>2021-08-29T07:06:16Z</time>
      </trkpt>
      <trkpt lat="43.00203" lon="-0.18636">
        <ele>1291</ele>
        <time>2021-08-29T07:06:17Z</time>
      </trkpt>
      <trkpt lat="43.00206" lon="-0.18623">
        <ele>1290.2</ele>
        <time>2021-08-29T07:06:18Z</time>
      </trkpt>
      <trkpt lat="43.00209" lon="-0.1861">
        <ele>1289.8</ele>
        <time>2021-08-29T07:06:19Z</time>
      </trkpt>
      <trkpt lat="43.00217" lon="-0.18583">
        <ele>1288.4</ele>
        <time>2021-08-29T07:06:21Z</time>
      </trkpt>
      <trkpt lat="43.0022" lon="-0.18569">
        <ele>1287.2</ele>
        <time>2021-08-29T07:06:22Z</time>
      </trkpt>
      <trkpt lat="43.00226" lon="-0.18541">
        <ele>1286.2</ele>
        <time>2021-08-29T07:06:24Z</time>
      </trkpt>
      <trkpt lat="43.00229" lon="-0.18528">
        <ele>1285.6</ele>
        <time>2021-08-29T07:06:25Z</time>
      </trkpt>
      <trkpt lat="43.00232" lon="-0.18514">
        <ele>1284.8</ele>
        <time>2021-08-29T07:06:26Z</time>
      </trkpt>
      <trkpt lat="43.00234" lon="-0.185">
        <ele>1284.4</ele>
        <time>2021-08-29T07:06:27Z</time>
      </trkpt>
      <trkpt lat="43.00238" lon="-0.18473">
        <ele>1283.4</ele>
        <time>2021-08-29T07:06:29Z</time>
      </trkpt>
      <trkpt lat="43.0024" lon="-0.18447">
        <ele>1281.6</ele>
        <time>2021-08-29T07:06:31Z</time>
      </trkpt>
      <trkpt lat="43.0024" lon="-0.18435">
        <ele>1281</ele>
        <time>2021-08-29T07:06:32Z</time>
      </trkpt>
      <trkpt lat="43.00238" lon="-0.18423">
        <ele>1279.6</ele>
        <time>2021-08-29T07:06:33Z</time>
      </trkpt>
      <trkpt lat="43.00236" lon="-0.18413">
        <ele>1278.8</ele>
        <time>2021-08-29T07:06:34Z</time>
      </trkpt>
      <trkpt lat="43.00232" lon="-0.18403">
        <ele>1278</ele>
        <time>2021-08-29T07:06:35Z</time>
      </trkpt>
      <trkpt lat="43.00228" lon="-0.18393">
        <ele>1277.6</ele>
        <time>2021-08-29T07:06:36Z</time>
      </trkpt>
      <trkpt lat="43.00225" lon="-0.18383">
        <ele>1277.2</ele>
        <time>2021-08-29T07:06:37Z</time>
      </trkpt>
      <trkpt lat="43.00224" lon="-0.18372">
        <ele>1277</ele>
        <time>2021-08-29T07:06:38Z</time>
      </trkpt>
      <trkpt lat="43.00225" lon="-0.1836">
        <ele>1276</ele>
        <time>2021-08-29T07:06:39Z</time>
      </trkpt>
      <trkpt lat="43.00226" lon="-0.18348">
        <ele>1275</ele>
        <time>2021-08-29T07:06:40Z</time>
      </trkpt>
      <trkpt lat="43.00229" lon="-0.18336">
        <ele>1273.6</ele>
        <time>2021-08-29T07:06:41Z</time>
      </trkpt>
      <trkpt lat="43.00233" lon="-0.18325">
        <ele>1273.2</ele>
        <time>2021-08-29T07:06:42Z</time>
      </trkpt>
      <trkpt lat="43.00236" lon="-0.18314">
        <ele>1272.4</ele>
        <time>2021-08-29T07:06:43Z</time>
      </trkpt>
      <trkpt lat="43.00239" lon="-0.18303">
        <ele>1272.2</ele>
        <time>2021-08-29T07:06:44Z</time>
      </trkpt>
      <trkpt lat="43.00248" lon="-0.18266">
        <ele>1271.4</ele>
        <time>2021-08-29T07:06:47Z</time>
      </trkpt>
      <trkpt lat="43.00251" lon="-0.18255">
        <ele>1271</ele>
        <time>2021-08-29T07:06:48Z</time>
      </trkpt>
      <trkpt lat="43.00254" lon="-0.18245">
        <ele>1270.8</ele>
        <time>2021-08-29T07:06:49Z</time>
      </trkpt>
      <trkpt lat="43.00258" lon="-0.18236">
        <ele>1270.2</ele>
        <time>2021-08-29T07:06:50Z</time>
      </trkpt>
      <trkpt lat="43.00263" lon="-0.18229">
        <ele>1269.8</ele>
        <time>2021-08-29T07:06:51Z</time>
      </trkpt>
      <trkpt lat="43.00268" lon="-0.18223">
        <ele>1268.4</ele>
        <time>2021-08-29T07:06:52Z</time>
      </trkpt>
      <trkpt lat="43.00274" lon="-0.18219">
        <ele>1268</ele>
        <time>2021-08-29T07:06:53Z</time>
      </trkpt>
      <trkpt lat="43.00278" lon="-0.18218">
        <ele>1266.6</ele>
        <time>2021-08-29T07:06:54Z</time>
      </trkpt>
      <trkpt lat="43.00283" lon="-0.18218">
        <ele>1266</ele>
        <time>2021-08-29T07:06:55Z</time>
      </trkpt>
      <trkpt lat="43.00289" lon="-0.18219">
        <ele>1265.2</ele>
        <time>2021-08-29T07:06:56Z</time>
      </trkpt>
      <trkpt lat="43.00297" lon="-0.18218">
        <ele>1264.4</ele>
        <time>2021-08-29T07:06:57Z</time>
      </trkpt>
      <trkpt lat="43.00307" lon="-0.18215">
        <ele>1263.4</ele>
        <time>2021-08-29T07:06:58Z</time>
      </trkpt>
      <trkpt lat="43.00325" lon="-0.1821">
        <ele>1261.6</ele>
        <time>2021-08-29T07:07:00Z</time>
      </trkpt>
      <trkpt lat="43.00344" lon="-0.18203">
        <ele>1260.8</ele>
        <time>2021-08-29T07:07:02Z</time>
      </trkpt>
      <trkpt lat="43.00352" lon="-0.18197">
        <ele>1259.6</ele>
        <time>2021-08-29T07:07:03Z</time>
      </trkpt>
      <trkpt lat="43.00361" lon="-0.18191">
        <ele>1259.4</ele>
        <time>2021-08-29T07:07:04Z</time>
      </trkpt>
      <trkpt lat="43.00371" lon="-0.18181">
        <ele>1258.6</ele>
        <time>2021-08-29T07:07:05Z</time>
      </trkpt>
      <trkpt lat="43.00379" lon="-0.18173">
        <ele>1258</ele>
        <time>2021-08-29T07:07:06Z</time>
      </trkpt>
      <trkpt lat="43.00386" lon="-0.18166">
        <ele>1257</ele>
        <time>2021-08-29T07:07:07Z</time>
      </trkpt>
      <trkpt lat="43.00393" lon="-0.18159">
        <ele>1256.4</ele>
        <time>2021-08-29T07:07:08Z</time>
      </trkpt>
      <trkpt lat="43.004" lon="-0.18151">
        <ele>1255.4</ele>
        <time>2021-08-29T07:07:09Z</time>
      </trkpt>
      <trkpt lat="43.00404" lon="-0.18142">
        <ele>1255</ele>
        <time>2021-08-29T07:07:10Z</time>
      </trkpt>
      <trkpt lat="43.00409" lon="-0.18131">
        <ele>1253.8</ele>
        <time>2021-08-29T07:07:11Z</time>
      </trkpt>
      <trkpt lat="43.00412" lon="-0.1812">
        <ele>1253</ele>
        <time>2021-08-29T07:07:12Z</time>
      </trkpt>
      <trkpt lat="43.00413" lon="-0.18109">
        <ele>1252</ele>
        <time>2021-08-29T07:07:13Z</time>
      </trkpt>
      <trkpt lat="43.00414" lon="-0.18097">
        <ele>1251.6</ele>
        <time>2021-08-29T07:07:14Z</time>
      </trkpt>
      <trkpt lat="43.00416" lon="-0.18087">
        <ele>1251</ele>
        <time>2021-08-29T07:07:15Z</time>
      </trkpt>
      <trkpt lat="43.00415" lon="-0.18077">
        <ele>1250.8</ele>
        <time>2021-08-29T07:07:16Z</time>
      </trkpt>
      <trkpt lat="43.00414" lon="-0.18068">
        <ele>1249.8</ele>
        <time>2021-08-29T07:07:17Z</time>
      </trkpt>
      <trkpt lat="43.00412" lon="-0.18059">
        <ele>1249.6</ele>
        <time>2021-08-29T07:07:18Z</time>
      </trkpt>
      <trkpt lat="43.00408" lon="-0.1805">
        <ele>1248.6</ele>
        <time>2021-08-29T07:07:19Z</time>
      </trkpt>
      <trkpt lat="43.00403" lon="-0.18042">
        <ele>1247.8</ele>
        <time>2021-08-29T07:07:20Z</time>
      </trkpt>
      <trkpt lat="43.00398" lon="-0.18034">
        <ele>1247.4</ele>
        <time>2021-08-29T07:07:21Z</time>
      </trkpt>
      <trkpt lat="43.00396" lon="-0.18025">
        <ele>1246.8</ele>
        <time>2021-08-29T07:07:22Z</time>
      </trkpt>
      <trkpt lat="43.00396" lon="-0.18018">
        <ele>1246.4</ele>
        <time>2021-08-29T07:07:23Z</time>
      </trkpt>
      <trkpt lat="43.00398" lon="-0.18013">
        <ele>1245.8</ele>
        <time>2021-08-29T07:07:24Z</time>
      </trkpt>
      <trkpt lat="43.00401" lon="-0.1801">
        <ele>1245.4</ele>
        <time>2021-08-29T07:07:25Z</time>
      </trkpt>
      <trkpt lat="43.00404" lon="-0.18012">
        <ele>1245</ele>
        <time>2021-08-29T07:07:26Z</time>
      </trkpt>
      <trkpt lat="43.00408" lon="-0.18016">
        <ele>1244.6</ele>
        <time>2021-08-29T07:07:27Z</time>
      </trkpt>
      <trkpt lat="43.00411" lon="-0.18022">
        <ele>1244.2</ele>
        <time>2021-08-29T07:07:28Z</time>
      </trkpt>
      <trkpt lat="43.00414" lon="-0.18028">
        <ele>1243.8</ele>
        <time>2021-08-29T07:07:29Z</time>
      </trkpt>
      <trkpt lat="43.00417" lon="-0.18036">
        <ele>1242.8</ele>
        <time>2021-08-29T07:07:30Z</time>
      </trkpt>
      <trkpt lat="43.0042" lon="-0.18045">
        <ele>1242.4</ele>
        <time>2021-08-29T07:07:31Z</time>
      </trkpt>
      <trkpt lat="43.00423" lon="-0.18052">
        <ele>1242</ele>
        <time>2021-08-29T07:07:32Z</time>
      </trkpt>
      <trkpt lat="43.00424" lon="-0.18057">
        <ele>1241.8</ele>
        <time>2021-08-29T07:07:33Z</time>
      </trkpt>
      <trkpt lat="43.00425" lon="-0.18061">
        <ele>1241.4</ele>
        <time>2021-08-29T07:07:34Z</time>
      </trkpt>
      <trkpt lat="43.00426" lon="-0.18064">
        <ele>1241.2</ele>
        <time>2021-08-29T07:07:35Z</time>
      </trkpt>
      <trkpt lat="43.00427" lon="-0.18066">
        <ele>1240.4</ele>
        <time>2021-08-29T07:07:36Z</time>
      </trkpt>
      <trkpt lat="43.00429" lon="-0.18067">
        <ele>1239.8</ele>
        <time>2021-08-29T07:07:37Z</time>
      </trkpt>
      <trkpt lat="43.0043" lon="-0.18068">
        <ele>1239.4</ele>
        <time>2021-08-29T07:07:38Z</time>
      </trkpt>
      <trkpt lat="43.00431" lon="-0.18067">
        <ele>1238.8</ele>
        <time>2021-08-29T07:07:39Z</time>
      </trkpt>
      <trkpt lat="43.00431" lon="-0.18065">
        <ele>1238.6</ele>
        <time>2021-08-29T07:07:40Z</time>
      </trkpt>
      <trkpt lat="43.00431" lon="-0.18064">
        <ele>1238</ele>
        <time>2021-08-29T07:07:41Z</time>
      </trkpt>
      <trkpt lat="43.00431" lon="-0.18062">
        <ele>1238</ele>
        <time>2021-08-29T07:07:42Z</time>
      </trkpt>
      <trkpt lat="43.0043" lon="-0.18057">
        <ele>1237.6</ele>
        <time>2021-08-29T07:07:44Z</time>
      </trkpt>
      <trkpt lat="43.00429" lon="-0.18054">
        <ele>1237.4</ele>
        <time>2021-08-29T07:07:45Z</time>
      </trkpt>
      <trkpt lat="43.00428" lon="-0.18045">
        <ele>1237.2</ele>
        <time>2021-08-29T07:07:48Z</time>
      </trkpt>
      <trkpt lat="43.00427" lon="-0.1804">
        <ele>1237.2</ele>
        <time>2021-08-29T07:07:50Z</time>
      </trkpt>
      <trkpt lat="43.00426" lon="-0.18035">
        <ele>1237</ele>
        <time>2021-08-29T07:07:52Z</time>
      </trkpt>
      <trkpt lat="43.00425" lon="-0.18029">
        <ele>1236.8</ele>
        <time>2021-08-29T07:07:54Z</time>
      </trkpt>
      <trkpt lat="43.00424" lon="-0.18027">
        <ele>1236.8</ele>
        <time>2021-08-29T07:07:55Z</time>
      </trkpt>
      <trkpt lat="43.00423" lon="-0.18025">
        <ele>1236.6</ele>
        <time>2021-08-29T07:07:56Z</time>
      </trkpt>
      <trkpt lat="43.00422" lon="-0.18023">
        <ele>1236.6</ele>
        <time>2021-08-29T07:07:57Z</time>
      </trkpt>
      <trkpt lat="43.00421" lon="-0.18021">
        <ele>1236.6</ele>
        <time>2021-08-29T07:07:58Z</time>
      </trkpt>
      <trkpt lat="43.00421" lon="-0.18019">
        <ele>1236.4</ele>
        <time>2021-08-29T07:07:59Z</time>
      </trkpt>
      <trkpt lat="43.0042" lon="-0.18017">
        <ele>1236.4</ele>
        <time>2021-08-29T07:08:00Z</time>
      </trkpt>
      <trkpt lat="43.00419" lon="-0.18016">
        <ele>1236.4</ele>
        <time>2021-08-29T07:08:01Z</time>
      </trkpt>
      <trkpt lat="43.00419" lon="-0.18014">
        <ele>1236.2</ele>
        <time>2021-08-29T07:08:02Z</time>
      </trkpt>
      <trkpt lat="43.00419" lon="-0.18013">
        <ele>1236.2</ele>
        <time>2021-08-29T07:08:03Z</time>
      </trkpt>
      <trkpt lat="43.00418" lon="-0.18011">
        <ele>1236.2</ele>
        <time>2021-08-29T07:08:05Z</time>
      </trkpt>
      <trkpt lat="43.00418" lon="-0.18011">
        <ele>1236.2</ele>
        <time>2021-08-29T07:08:06Z</time>
      </trkpt>
      <trkpt lat="43.00418" lon="-0.18011">
        <ele>1235.8</ele>
        <time>2021-08-29T07:08:13Z</time>
      </trkpt>
      <trkpt lat="43.00418" lon="-0.18011">
        <ele>1235.6</ele>
        <time>2021-08-29T07:08:14Z</time>
      </trkpt>
      <trkpt lat="43.00418" lon="-0.18012">
        <ele>1235.6</ele>
        <time>2021-08-29T07:08:16Z</time>
      </trkpt>
      <trkpt lat="43.00418" lon="-0.18013">
        <ele>1235.6</ele>
        <time>2021-08-29T07:08:17Z</time>
      </trkpt>
      <trkpt lat="43.00419" lon="-0.18015">
        <ele>1235.6</ele>
        <time>2021-08-29T07:08:18Z</time>
      </trkpt>
      <trkpt lat="43.0042" lon="-0.18017">
        <ele>1235.6</ele>
        <time>2021-08-29T07:08:19Z</time>
      </trkpt>
      <trkpt lat="43.00421" lon="-0.1802">
        <ele>1235.6</ele>
        <time>2021-08-29T07:08:20Z</time>
      </trkpt>
      <trkpt lat="43.00425" lon="-0.18036">
        <ele>1235.8</ele>
        <time>2021-08-29T07:08:25Z</time>
      </trkpt>
      <trkpt lat="43.00426" lon="-0.18043">
        <ele>1236</ele>
        <time>2021-08-29T07:08:27Z</time>
      </trkpt>
      <trkpt lat="43.00428" lon="-0.18056">
        <ele>1236.6</ele>
        <time>2021-08-29T07:08:31Z</time>
      </trkpt>
      <trkpt lat="43.00429" lon="-0.1806">
        <ele>1236.8</ele>
        <time>2021-08-29T07:08:33Z</time>
      </trkpt>
      <trkpt lat="43.00429" lon="-0.18062">
        <ele>1237</ele>
        <time>2021-08-29T07:08:34Z</time>
      </trkpt>
      <trkpt lat="43.0043" lon="-0.18063">
        <ele>1237</ele>
        <time>2021-08-29T07:08:35Z</time>
      </trkpt>
      <trkpt lat="43.00431" lon="-0.18065">
        <ele>1237</ele>
        <time>2021-08-29T07:08:36Z</time>
      </trkpt>
      <trkpt lat="43.00433" lon="-0.18071">
        <ele>1237.2</ele>
        <time>2021-08-29T07:08:38Z</time>
      </trkpt>
      <trkpt lat="43.00439" lon="-0.18088">
        <ele>1236.8</ele>
        <time>2021-08-29T07:08:42Z</time>
      </trkpt>
      <trkpt lat="43.00446" lon="-0.18121">
        <ele>1235.8</ele>
        <time>2021-08-29T07:08:47Z</time>
      </trkpt>
      <trkpt lat="43.00447" lon="-0.18138">
        <ele>1234.8</ele>
        <time>2021-08-29T07:08:49Z</time>
      </trkpt>
      <trkpt lat="43.00447" lon="-0.18149">
        <ele>1234.6</ele>
        <time>2021-08-29T07:08:50Z</time>
      </trkpt>
      <trkpt lat="43.00448" lon="-0.18161">
        <ele>1234.2</ele>
        <time>2021-08-29T07:08:51Z</time>
      </trkpt>
      <trkpt lat="43.00447" lon="-0.1817">
        <ele>1234</ele>
        <time>2021-08-29T07:08:52Z</time>
      </trkpt>
      <trkpt lat="43.00445" lon="-0.18178">
        <ele>1233.4</ele>
        <time>2021-08-29T07:08:53Z</time>
      </trkpt>
      <trkpt lat="43.00442" lon="-0.18186">
        <ele>1233.2</ele>
        <time>2021-08-29T07:08:54Z</time>
      </trkpt>
      <trkpt lat="43.00438" lon="-0.18193">
        <ele>1233</ele>
        <time>2021-08-29T07:08:55Z</time>
      </trkpt>
      <trkpt lat="43.00436" lon="-0.182">
        <ele>1232.6</ele>
        <time>2021-08-29T07:08:56Z</time>
      </trkpt>
      <trkpt lat="43.00434" lon="-0.18205">
        <ele>1232</ele>
        <time>2021-08-29T07:08:57Z</time>
      </trkpt>
      <trkpt lat="43.00434" lon="-0.18211">
        <ele>1231.8</ele>
        <time>2021-08-29T07:08:58Z</time>
      </trkpt>
      <trkpt lat="43.00436" lon="-0.18216">
        <ele>1231.4</ele>
        <time>2021-08-29T07:08:59Z</time>
      </trkpt>
      <trkpt lat="43.00439" lon="-0.18219">
        <ele>1231.4</ele>
        <time>2021-08-29T07:09:00Z</time>
      </trkpt>
      <trkpt lat="43.00443" lon="-0.18219">
        <ele>1231.2</ele>
        <time>2021-08-29T07:09:01Z</time>
      </trkpt>
      <trkpt lat="43.00447" lon="-0.18218">
        <ele>1231</ele>
        <time>2021-08-29T07:09:02Z</time>
      </trkpt>
      <trkpt lat="43.0045" lon="-0.18214">
        <ele>1230.4</ele>
        <time>2021-08-29T07:09:03Z</time>
      </trkpt>
      <trkpt lat="43.00455" lon="-0.18202">
        <ele>1230</ele>
        <time>2021-08-29T07:09:05Z</time>
      </trkpt>
      <trkpt lat="43.00458" lon="-0.18195">
        <ele>1229.8</ele>
        <time>2021-08-29T07:09:06Z</time>
      </trkpt>
      <trkpt lat="43.00461" lon="-0.18187">
        <ele>1229.6</ele>
        <time>2021-08-29T07:09:07Z</time>
      </trkpt>
      <trkpt lat="43.00465" lon="-0.1817">
        <ele>1229</ele>
        <time>2021-08-29T07:09:09Z</time>
      </trkpt>
      <trkpt lat="43.00466" lon="-0.18161">
        <ele>1228.2</ele>
        <time>2021-08-29T07:09:10Z</time>
      </trkpt>
      <trkpt lat="43.00466" lon="-0.18152">
        <ele>1227.8</ele>
        <time>2021-08-29T07:09:11Z</time>
      </trkpt>
      <trkpt lat="43.00465" lon="-0.18143">
        <ele>1227.4</ele>
        <time>2021-08-29T07:09:12Z</time>
      </trkpt>
      <trkpt lat="43.00465" lon="-0.18137">
        <ele>1227.2</ele>
        <time>2021-08-29T07:09:13Z</time>
      </trkpt>
      <trkpt lat="43.00462" lon="-0.18125">
        <ele>1226.8</ele>
        <time>2021-08-29T07:09:14Z</time>
      </trkpt>
      <trkpt lat="43.0046" lon="-0.18106">
        <ele>1225.6</ele>
        <time>2021-08-29T07:09:16Z</time>
      </trkpt>
      <trkpt lat="43.00459" lon="-0.18096">
        <ele>1225.2</ele>
        <time>2021-08-29T07:09:17Z</time>
      </trkpt>
      <trkpt lat="43.0046" lon="-0.18086">
        <ele>1224.6</ele>
        <time>2021-08-29T07:09:18Z</time>
      </trkpt>
      <trkpt lat="43.00461" lon="-0.18075">
        <ele>1224.2</ele>
        <time>2021-08-29T07:09:19Z</time>
      </trkpt>
      <trkpt lat="43.00463" lon="-0.18053">
        <ele>1223</ele>
        <time>2021-08-29T07:09:21Z</time>
      </trkpt>
      <trkpt lat="43.00462" lon="-0.18033">
        <ele>1221.8</ele>
        <time>2021-08-29T07:09:23Z</time>
      </trkpt>
      <trkpt lat="43.00462" lon="-0.18023">
        <ele>1221</ele>
        <time>2021-08-29T07:09:24Z</time>
      </trkpt>
      <trkpt lat="43.00462" lon="-0.18013">
        <ele>1219.8</ele>
        <time>2021-08-29T07:09:25Z</time>
      </trkpt>
      <trkpt lat="43.00462" lon="-0.18002">
        <ele>1219.2</ele>
        <time>2021-08-29T07:09:26Z</time>
      </trkpt>
      <trkpt lat="43.00462" lon="-0.17992">
        <ele>1218.2</ele>
        <time>2021-08-29T07:09:27Z</time>
      </trkpt>
      <trkpt lat="43.00462" lon="-0.17982">
        <ele>1217.2</ele>
        <time>2021-08-29T07:09:28Z</time>
      </trkpt>
      <trkpt lat="43.00463" lon="-0.17972">
        <ele>1216.4</ele>
        <time>2021-08-29T07:09:29Z</time>
      </trkpt>
      <trkpt lat="43.00463" lon="-0.17962">
        <ele>1216</ele>
        <time>2021-08-29T07:09:30Z</time>
      </trkpt>
      <trkpt lat="43.00463" lon="-0.17952">
        <ele>1215.2</ele>
        <time>2021-08-29T07:09:31Z</time>
      </trkpt>
      <trkpt lat="43.00461" lon="-0.17941">
        <ele>1214.8</ele>
        <time>2021-08-29T07:09:32Z</time>
      </trkpt>
      <trkpt lat="43.00455" lon="-0.17921">
        <ele>1214.2</ele>
        <time>2021-08-29T07:09:34Z</time>
      </trkpt>
      <trkpt lat="43.00453" lon="-0.17914">
        <ele>1213</ele>
        <time>2021-08-29T07:09:35Z</time>
      </trkpt>
      <trkpt lat="43.00446" lon="-0.17896">
        <ele>1211.2</ele>
        <time>2021-08-29T07:09:37Z</time>
      </trkpt>
      <trkpt lat="43.00445" lon="-0.17887">
        <ele>1210.8</ele>
        <time>2021-08-29T07:09:38Z</time>
      </trkpt>
      <trkpt lat="43.00445" lon="-0.1788">
        <ele>1209.4</ele>
        <time>2021-08-29T07:09:39Z</time>
      </trkpt>
      <trkpt lat="43.00444" lon="-0.17869">
        <ele>1208.6</ele>
        <time>2021-08-29T07:09:40Z</time>
      </trkpt>
      <trkpt lat="43.00444" lon="-0.17858">
        <ele>1207</ele>
        <time>2021-08-29T07:09:41Z</time>
      </trkpt>
      <trkpt lat="43.00445" lon="-0.17835">
        <ele>1205.4</ele>
        <time>2021-08-29T07:09:43Z</time>
      </trkpt>
      <trkpt lat="43.00444" lon="-0.17824">
        <ele>1204.4</ele>
        <time>2021-08-29T07:09:44Z</time>
      </trkpt>
      <trkpt lat="43.00441" lon="-0.17804">
        <ele>1202.6</ele>
        <time>2021-08-29T07:09:46Z</time>
      </trkpt>
      <trkpt lat="43.00441" lon="-0.17787">
        <ele>1200.4</ele>
        <time>2021-08-29T07:09:48Z</time>
      </trkpt>
      <trkpt lat="43.00445" lon="-0.17774">
        <ele>1199.8</ele>
        <time>2021-08-29T07:09:49Z</time>
      </trkpt>
      <trkpt lat="43.00448" lon="-0.17762">
        <ele>1198.8</ele>
        <time>2021-08-29T07:09:50Z</time>
      </trkpt>
      <trkpt lat="43.00452" lon="-0.17751">
        <ele>1198.4</ele>
        <time>2021-08-29T07:09:51Z</time>
      </trkpt>
      <trkpt lat="43.00455" lon="-0.17741">
        <ele>1197.8</ele>
        <time>2021-08-29T07:09:52Z</time>
      </trkpt>
      <trkpt lat="43.00459" lon="-0.17727">
        <ele>1197.4</ele>
        <time>2021-08-29T07:09:53Z</time>
      </trkpt>
      <trkpt lat="43.00461" lon="-0.17716">
        <ele>1195.4</ele>
        <time>2021-08-29T07:09:54Z</time>
      </trkpt>
      <trkpt lat="43.00464" lon="-0.17707">
        <ele>1194.8</ele>
        <time>2021-08-29T07:09:55Z</time>
      </trkpt>
      <trkpt lat="43.00467" lon="-0.17697">
        <ele>1193.2</ele>
        <time>2021-08-29T07:09:56Z</time>
      </trkpt>
      <trkpt lat="43.00471" lon="-0.17688">
        <ele>1192.4</ele>
        <time>2021-08-29T07:09:57Z</time>
      </trkpt>
      <trkpt lat="43.00476" lon="-0.17682">
        <ele>1191.4</ele>
        <time>2021-08-29T07:09:58Z</time>
      </trkpt>
      <trkpt lat="43.00481" lon="-0.17677">
        <ele>1191</ele>
        <time>2021-08-29T07:09:59Z</time>
      </trkpt>
      <trkpt lat="43.00487" lon="-0.17672">
        <ele>1189.8</ele>
        <time>2021-08-29T07:10:00Z</time>
      </trkpt>
      <trkpt lat="43.00493" lon="-0.17667">
        <ele>1189</ele>
        <time>2021-08-29T07:10:01Z</time>
      </trkpt>
      <trkpt lat="43.00499" lon="-0.17662">
        <ele>1188.4</ele>
        <time>2021-08-29T07:10:02Z</time>
      </trkpt>
      <trkpt lat="43.00506" lon="-0.17657">
        <ele>1187.2</ele>
        <time>2021-08-29T07:10:03Z</time>
      </trkpt>
      <trkpt lat="43.0052" lon="-0.17643">
        <ele>1185</ele>
        <time>2021-08-29T07:10:05Z</time>
      </trkpt>
      <trkpt lat="43.00542" lon="-0.17617">
        <ele>1183.4</ele>
        <time>2021-08-29T07:10:08Z</time>
      </trkpt>
      <trkpt lat="43.00548" lon="-0.17608">
        <ele>1182</ele>
        <time>2021-08-29T07:10:09Z</time>
      </trkpt>
      <trkpt lat="43.00554" lon="-0.17597">
        <ele>1181.4</ele>
        <time>2021-08-29T07:10:10Z</time>
      </trkpt>
      <trkpt lat="43.0056" lon="-0.17586">
        <ele>1180.2</ele>
        <time>2021-08-29T07:10:11Z</time>
      </trkpt>
      <trkpt lat="43.00565" lon="-0.17576">
        <ele>1179.2</ele>
        <time>2021-08-29T07:10:12Z</time>
      </trkpt>
      <trkpt lat="43.00569" lon="-0.17565">
        <ele>1177.4</ele>
        <time>2021-08-29T07:10:13Z</time>
      </trkpt>
      <trkpt lat="43.00578" lon="-0.17543">
        <ele>1175</ele>
        <time>2021-08-29T07:10:15Z</time>
      </trkpt>
      <trkpt lat="43.00585" lon="-0.17521">
        <ele>1173.6</ele>
        <time>2021-08-29T07:10:17Z</time>
      </trkpt>
      <trkpt lat="43.00587" lon="-0.1751">
        <ele>1173.2</ele>
        <time>2021-08-29T07:10:18Z</time>
      </trkpt>
      <trkpt lat="43.00589" lon="-0.175">
        <ele>1170.8</ele>
        <time>2021-08-29T07:10:19Z</time>
      </trkpt>
      <trkpt lat="43.00591" lon="-0.17491">
        <ele>1169.6</ele>
        <time>2021-08-29T07:10:20Z</time>
      </trkpt>
      <trkpt lat="43.00592" lon="-0.17483">
        <ele>1169.2</ele>
        <time>2021-08-29T07:10:21Z</time>
      </trkpt>
      <trkpt lat="43.00592" lon="-0.17475">
        <ele>1167</ele>
        <time>2021-08-29T07:10:22Z</time>
      </trkpt>
      <trkpt lat="43.00592" lon="-0.17466">
        <ele>1166.2</ele>
        <time>2021-08-29T07:10:23Z</time>
      </trkpt>
      <trkpt lat="43.00593" lon="-0.17453">
        <ele>1165.2</ele>
        <time>2021-08-29T07:10:24Z</time>
      </trkpt>
      <trkpt lat="43.00599" lon="-0.17427">
        <ele>1164</ele>
        <time>2021-08-29T07:10:26Z</time>
      </trkpt>
      <trkpt lat="43.00608" lon="-0.17401">
        <ele>1162</ele>
        <time>2021-08-29T07:10:28Z</time>
      </trkpt>
      <trkpt lat="43.00612" lon="-0.1739">
        <ele>1161.4</ele>
        <time>2021-08-29T07:10:29Z</time>
      </trkpt>
      <trkpt lat="43.00615" lon="-0.1738">
        <ele>1160.4</ele>
        <time>2021-08-29T07:10:30Z</time>
      </trkpt>
      <trkpt lat="43.00617" lon="-0.17372">
        <ele>1159.4</ele>
        <time>2021-08-29T07:10:31Z</time>
      </trkpt>
      <trkpt lat="43.00619" lon="-0.17365">
        <ele>1157.8</ele>
        <time>2021-08-29T07:10:32Z</time>
      </trkpt>
      <trkpt lat="43.0062" lon="-0.17356">
        <ele>1156.8</ele>
        <time>2021-08-29T07:10:33Z</time>
      </trkpt>
      <trkpt lat="43.00621" lon="-0.17346">
        <ele>1155.4</ele>
        <time>2021-08-29T07:10:34Z</time>
      </trkpt>
      <trkpt lat="43.00623" lon="-0.17335">
        <ele>1155</ele>
        <time>2021-08-29T07:10:35Z</time>
      </trkpt>
      <trkpt lat="43.00624" lon="-0.17325">
        <ele>1153.8</ele>
        <time>2021-08-29T07:10:36Z</time>
      </trkpt>
      <trkpt lat="43.00627" lon="-0.17306">
        <ele>1152.2</ele>
        <time>2021-08-29T07:10:38Z</time>
      </trkpt>
      <trkpt lat="43.00628" lon="-0.17297">
        <ele>1151</ele>
        <time>2021-08-29T07:10:39Z</time>
      </trkpt>
      <trkpt lat="43.00628" lon="-0.17289">
        <ele>1150.6</ele>
        <time>2021-08-29T07:10:40Z</time>
      </trkpt>
      <trkpt lat="43.00627" lon="-0.17281">
        <ele>1150</ele>
        <time>2021-08-29T07:10:41Z</time>
      </trkpt>
      <trkpt lat="43.00625" lon="-0.17275">
        <ele>1149.8</ele>
        <time>2021-08-29T07:10:42Z</time>
      </trkpt>
      <trkpt lat="43.00623" lon="-0.17269">
        <ele>1148.4</ele>
        <time>2021-08-29T07:10:43Z</time>
      </trkpt>
      <trkpt lat="43.0062" lon="-0.17263">
        <ele>1147.2</ele>
        <time>2021-08-29T07:10:44Z</time>
      </trkpt>
      <trkpt lat="43.00617" lon="-0.17257">
        <ele>1146</ele>
        <time>2021-08-29T07:10:45Z</time>
      </trkpt>
      <trkpt lat="43.00611" lon="-0.17243">
        <ele>1145</ele>
        <time>2021-08-29T07:10:47Z</time>
      </trkpt>
      <trkpt lat="43.00602" lon="-0.17229">
        <ele>1144</ele>
        <time>2021-08-29T07:10:49Z</time>
      </trkpt>
      <trkpt lat="43.00597" lon="-0.17222">
        <ele>1143.4</ele>
        <time>2021-08-29T07:10:50Z</time>
      </trkpt>
      <trkpt lat="43.00592" lon="-0.17214">
        <ele>1142.2</ele>
        <time>2021-08-29T07:10:51Z</time>
      </trkpt>
      <trkpt lat="43.00589" lon="-0.17207">
        <ele>1141.8</ele>
        <time>2021-08-29T07:10:52Z</time>
      </trkpt>
      <trkpt lat="43.00585" lon="-0.172">
        <ele>1141</ele>
        <time>2021-08-29T07:10:53Z</time>
      </trkpt>
      <trkpt lat="43.00582" lon="-0.17192">
        <ele>1140.6</ele>
        <time>2021-08-29T07:10:54Z</time>
      </trkpt>
      <trkpt lat="43.00581" lon="-0.17184">
        <ele>1139.8</ele>
        <time>2021-08-29T07:10:55Z</time>
      </trkpt>
      <trkpt lat="43.0058" lon="-0.17173">
        <ele>1139.2</ele>
        <time>2021-08-29T07:10:56Z</time>
      </trkpt>
      <trkpt lat="43.0058" lon="-0.17162">
        <ele>1138.8</ele>
        <time>2021-08-29T07:10:57Z</time>
      </trkpt>
      <trkpt lat="43.00582" lon="-0.17151">
        <ele>1138</ele>
        <time>2021-08-29T07:10:58Z</time>
      </trkpt>
      <trkpt lat="43.00584" lon="-0.17139">
        <ele>1137.8</ele>
        <time>2021-08-29T07:10:59Z</time>
      </trkpt>
      <trkpt lat="43.00586" lon="-0.17127">
        <ele>1137</ele>
        <time>2021-08-29T07:11:00Z</time>
      </trkpt>
      <trkpt lat="43.00591" lon="-0.171">
        <ele>1135.6</ele>
        <time>2021-08-29T07:11:02Z</time>
      </trkpt>
      <trkpt lat="43.00594" lon="-0.17073">
        <ele>1134.2</ele>
        <time>2021-08-29T07:11:04Z</time>
      </trkpt>
      <trkpt lat="43.00598" lon="-0.17048">
        <ele>1132.8</ele>
        <time>2021-08-29T07:11:06Z</time>
      </trkpt>
      <trkpt lat="43.00601" lon="-0.17036">
        <ele>1132.2</ele>
        <time>2021-08-29T07:11:07Z</time>
      </trkpt>
      <trkpt lat="43.00604" lon="-0.17025">
        <ele>1130.6</ele>
        <time>2021-08-29T07:11:08Z</time>
      </trkpt>
      <trkpt lat="43.00606" lon="-0.17014">
        <ele>1130</ele>
        <time>2021-08-29T07:11:09Z</time>
      </trkpt>
      <trkpt lat="43.00608" lon="-0.17004">
        <ele>1128.6</ele>
        <time>2021-08-29T07:11:10Z</time>
      </trkpt>
      <trkpt lat="43.00611" lon="-0.16992">
        <ele>1128.2</ele>
        <time>2021-08-29T07:11:11Z</time>
      </trkpt>
      <trkpt lat="43.00613" lon="-0.16981">
        <ele>1127.4</ele>
        <time>2021-08-29T07:11:12Z</time>
      </trkpt>
      <trkpt lat="43.00614" lon="-0.1697">
        <ele>1126.8</ele>
        <time>2021-08-29T07:11:13Z</time>
      </trkpt>
      <trkpt lat="43.00617" lon="-0.16957">
        <ele>1125.6</ele>
        <time>2021-08-29T07:11:14Z</time>
      </trkpt>
      <trkpt lat="43.0062" lon="-0.16946">
        <ele>1124.8</ele>
        <time>2021-08-29T07:11:15Z</time>
      </trkpt>
      <trkpt lat="43.00622" lon="-0.16936">
        <ele>1124</ele>
        <time>2021-08-29T07:11:16Z</time>
      </trkpt>
      <trkpt lat="43.00624" lon="-0.16925">
        <ele>1123.6</ele>
        <time>2021-08-29T07:11:17Z</time>
      </trkpt>
      <trkpt lat="43.00627" lon="-0.16917">
        <ele>1122.6</ele>
        <time>2021-08-29T07:11:18Z</time>
      </trkpt>
      <trkpt lat="43.00631" lon="-0.1691">
        <ele>1121.6</ele>
        <time>2021-08-29T07:11:19Z</time>
      </trkpt>
      <trkpt lat="43.00636" lon="-0.16901">
        <ele>1120.8</ele>
        <time>2021-08-29T07:11:20Z</time>
      </trkpt>
      <trkpt lat="43.00641" lon="-0.16895">
        <ele>1118.8</ele>
        <time>2021-08-29T07:11:21Z</time>
      </trkpt>
      <trkpt lat="43.00647" lon="-0.1689">
        <ele>1118.2</ele>
        <time>2021-08-29T07:11:22Z</time>
      </trkpt>
      <trkpt lat="43.00653" lon="-0.16886">
        <ele>1116.8</ele>
        <time>2021-08-29T07:11:23Z</time>
      </trkpt>
      <trkpt lat="43.00659" lon="-0.16884">
        <ele>1116.4</ele>
        <time>2021-08-29T07:11:24Z</time>
      </trkpt>
      <trkpt lat="43.00667" lon="-0.16885">
        <ele>1115.6</ele>
        <time>2021-08-29T07:11:25Z</time>
      </trkpt>
      <trkpt lat="43.00672" lon="-0.16883">
        <ele>1115</ele>
        <time>2021-08-29T07:11:26Z</time>
      </trkpt>
      <trkpt lat="43.00675" lon="-0.16879">
        <ele>1114.4</ele>
        <time>2021-08-29T07:11:27Z</time>
      </trkpt>
      <trkpt lat="43.00677" lon="-0.16874">
        <ele>1114</ele>
        <time>2021-08-29T07:11:28Z</time>
      </trkpt>
      <trkpt lat="43.00679" lon="-0.16869">
        <ele>1113.6</ele>
        <time>2021-08-29T07:11:29Z</time>
      </trkpt>
      <trkpt lat="43.0068" lon="-0.16862">
        <ele>1113.4</ele>
        <time>2021-08-29T07:11:30Z</time>
      </trkpt>
      <trkpt lat="43.0068" lon="-0.16846">
        <ele>1112.4</ele>
        <time>2021-08-29T07:11:31Z</time>
      </trkpt>
      <trkpt lat="43.0068" lon="-0.16846">
        <ele>1112</ele>
        <time>2021-08-29T07:11:32Z</time>
      </trkpt>
      <trkpt lat="43.0068" lon="-0.16826">
        <ele>1111</ele>
        <time>2021-08-29T07:11:33Z</time>
      </trkpt>
      <trkpt lat="43.00684" lon="-0.16804">
        <ele>1109</ele>
        <time>2021-08-29T07:11:35Z</time>
      </trkpt>
      <trkpt lat="43.00687" lon="-0.16792">
        <ele>1107.4</ele>
        <time>2021-08-29T07:11:37Z</time>
      </trkpt>
      <trkpt lat="43.0069" lon="-0.16769">
        <ele>1106.4</ele>
        <time>2021-08-29T07:11:38Z</time>
      </trkpt>
      <trkpt lat="43.0069" lon="-0.16769">
        <ele>1106</ele>
        <time>2021-08-29T07:11:39Z</time>
      </trkpt>
      <trkpt lat="43.00691" lon="-0.16759">
        <ele>1105.6</ele>
        <time>2021-08-29T07:11:40Z</time>
      </trkpt>
      <trkpt lat="43.00692" lon="-0.16736">
        <ele>1105.2</ele>
        <time>2021-08-29T07:11:41Z</time>
      </trkpt>
      <trkpt lat="43.00693" lon="-0.16722">
        <ele>1103.8</ele>
        <time>2021-08-29T07:11:42Z</time>
      </trkpt>
      <trkpt lat="43.00693" lon="-0.16713">
        <ele>1102</ele>
        <time>2021-08-29T07:11:44Z</time>
      </trkpt>
      <trkpt lat="43.00691" lon="-0.16693">
        <ele>1100.8</ele>
        <time>2021-08-29T07:11:45Z</time>
      </trkpt>
      <trkpt lat="43.00687" lon="-0.16684">
        <ele>1099.2</ele>
        <time>2021-08-29T07:11:46Z</time>
      </trkpt>
      <trkpt lat="43.00681" lon="-0.16676">
        <ele>1098.6</ele>
        <time>2021-08-29T07:11:47Z</time>
      </trkpt>
      <trkpt lat="43.00676" lon="-0.16668">
        <ele>1097.6</ele>
        <time>2021-08-29T07:11:48Z</time>
      </trkpt>
      <trkpt lat="43.00672" lon="-0.16661">
        <ele>1097.2</ele>
        <time>2021-08-29T07:11:49Z</time>
      </trkpt>
      <trkpt lat="43.00668" lon="-0.16653">
        <ele>1096.6</ele>
        <time>2021-08-29T07:11:50Z</time>
      </trkpt>
      <trkpt lat="43.00658" lon="-0.16637">
        <ele>1095.8</ele>
        <time>2021-08-29T07:11:52Z</time>
      </trkpt>
      <trkpt lat="43.00658" lon="-0.16637">
        <ele>1095.2</ele>
        <time>2021-08-29T07:11:53Z</time>
      </trkpt>
      <trkpt lat="43.00649" lon="-0.16621">
        <ele>1094</ele>
        <time>2021-08-29T07:11:54Z</time>
      </trkpt>
      <trkpt lat="43.00643" lon="-0.16605">
        <ele>1092.6</ele>
        <time>2021-08-29T07:11:57Z</time>
      </trkpt>
      <trkpt lat="43.00641" lon="-0.16582">
        <ele>1092.4</ele>
        <time>2021-08-29T07:11:58Z</time>
      </trkpt>
      <trkpt lat="43.00641" lon="-0.16582">
        <ele>1092</ele>
        <time>2021-08-29T07:11:59Z</time>
      </trkpt>
      <trkpt lat="43.00638" lon="-0.16558">
        <ele>1091.6</ele>
        <time>2021-08-29T07:12:00Z</time>
      </trkpt>
      <trkpt lat="43.00639" lon="-0.16548">
        <ele>1090.4</ele>
        <time>2021-08-29T07:12:02Z</time>
      </trkpt>
      <trkpt lat="43.00639" lon="-0.16531">
        <ele>1089.8</ele>
        <time>2021-08-29T07:12:03Z</time>
      </trkpt>
      <trkpt lat="43.00637" lon="-0.16521">
        <ele>1089.4</ele>
        <time>2021-08-29T07:12:04Z</time>
      </trkpt>
      <trkpt lat="43.00636" lon="-0.16509">
        <ele>1088.8</ele>
        <time>2021-08-29T07:12:05Z</time>
      </trkpt>
      <trkpt lat="43.00634" lon="-0.16499">
        <ele>1088.2</ele>
        <time>2021-08-29T07:12:06Z</time>
      </trkpt>
      <trkpt lat="43.00633" lon="-0.1649">
        <ele>1087.2</ele>
        <time>2021-08-29T07:12:07Z</time>
      </trkpt>
      <trkpt lat="43.00634" lon="-0.16482">
        <ele>1086.4</ele>
        <time>2021-08-29T07:12:08Z</time>
      </trkpt>
      <trkpt lat="43.00636" lon="-0.16474">
        <ele>1084.8</ele>
        <time>2021-08-29T07:12:09Z</time>
      </trkpt>
      <trkpt lat="43.00639" lon="-0.16467">
        <ele>1084.4</ele>
        <time>2021-08-29T07:12:10Z</time>
      </trkpt>
      <trkpt lat="43.00643" lon="-0.16464">
        <ele>1084</ele>
        <time>2021-08-29T07:12:11Z</time>
      </trkpt>
      <trkpt lat="43.00648" lon="-0.16461">
        <ele>1083.8</ele>
        <time>2021-08-29T07:12:12Z</time>
      </trkpt>
      <trkpt lat="43.00653" lon="-0.16458">
        <ele>1083.2</ele>
        <time>2021-08-29T07:12:13Z</time>
      </trkpt>
      <trkpt lat="43.00658" lon="-0.16454">
        <ele>1083</ele>
        <time>2021-08-29T07:12:14Z</time>
      </trkpt>
      <trkpt lat="43.00663" lon="-0.16449">
        <ele>1082.4</ele>
        <time>2021-08-29T07:12:15Z</time>
      </trkpt>
      <trkpt lat="43.00673" lon="-0.16438">
        <ele>1081</ele>
        <time>2021-08-29T07:12:17Z</time>
      </trkpt>
      <trkpt lat="43.00677" lon="-0.16432">
        <ele>1080.4</ele>
        <time>2021-08-29T07:12:18Z</time>
      </trkpt>
      <trkpt lat="43.00681" lon="-0.16414">
        <ele>1079.4</ele>
        <time>2021-08-29T07:12:20Z</time>
      </trkpt>
      <trkpt lat="43.00685" lon="-0.16404">
        <ele>1079</ele>
        <time>2021-08-29T07:12:21Z</time>
      </trkpt>
      <trkpt lat="43.00688" lon="-0.16396">
        <ele>1078.2</ele>
        <time>2021-08-29T07:12:22Z</time>
      </trkpt>
      <trkpt lat="43.0069" lon="-0.16388">
        <ele>1077.6</ele>
        <time>2021-08-29T07:12:23Z</time>
      </trkpt>
      <trkpt lat="43.00692" lon="-0.16381">
        <ele>1076.8</ele>
        <time>2021-08-29T07:12:24Z</time>
      </trkpt>
      <trkpt lat="43.00693" lon="-0.16374">
        <ele>1076.4</ele>
        <time>2021-08-29T07:12:25Z</time>
      </trkpt>
      <trkpt lat="43.00692" lon="-0.16367">
        <ele>1075.8</ele>
        <time>2021-08-29T07:12:26Z</time>
      </trkpt>
      <trkpt lat="43.00691" lon="-0.1636">
        <ele>1075.4</ele>
        <time>2021-08-29T07:12:27Z</time>
      </trkpt>
      <trkpt lat="43.00691" lon="-0.16352">
        <ele>1074.6</ele>
        <time>2021-08-29T07:12:28Z</time>
      </trkpt>
      <trkpt lat="43.00691" lon="-0.16343">
        <ele>1074</ele>
        <time>2021-08-29T07:12:29Z</time>
      </trkpt>
      <trkpt lat="43.00691" lon="-0.16325">
        <ele>1073.2</ele>
        <time>2021-08-29T07:12:31Z</time>
      </trkpt>
      <trkpt lat="43.0069" lon="-0.16316">
        <ele>1072</ele>
        <time>2021-08-29T07:12:32Z</time>
      </trkpt>
      <trkpt lat="43.00687" lon="-0.16299">
        <ele>1070.8</ele>
        <time>2021-08-29T07:12:34Z</time>
      </trkpt>
      <trkpt lat="43.00681" lon="-0.16281">
        <ele>1070</ele>
        <time>2021-08-29T07:12:36Z</time>
      </trkpt>
      <trkpt lat="43.00681" lon="-0.16281">
        <ele>1069.2</ele>
        <time>2021-08-29T07:12:37Z</time>
      </trkpt>
      <trkpt lat="43.00672" lon="-0.1625">
        <ele>1067.6</ele>
        <time>2021-08-29T07:12:39Z</time>
      </trkpt>
      <trkpt lat="43.00666" lon="-0.16224">
        <ele>1066.4</ele>
        <time>2021-08-29T07:12:41Z</time>
      </trkpt>
      <trkpt lat="43.00665" lon="-0.16211">
        <ele>1066</ele>
        <time>2021-08-29T07:12:42Z</time>
      </trkpt>
      <trkpt lat="43.00662" lon="-0.162">
        <ele>1065</ele>
        <time>2021-08-29T07:12:43Z</time>
      </trkpt>
      <trkpt lat="43.0066" lon="-0.16175">
        <ele>1063.6</ele>
        <time>2021-08-29T07:12:45Z</time>
      </trkpt>
      <trkpt lat="43.00657" lon="-0.16163">
        <ele>1062.8</ele>
        <time>2021-08-29T07:12:46Z</time>
      </trkpt>
      <trkpt lat="43.00654" lon="-0.16151">
        <ele>1061.8</ele>
        <time>2021-08-29T07:12:47Z</time>
      </trkpt>
      <trkpt lat="43.0065" lon="-0.16128">
        <ele>1060.8</ele>
        <time>2021-08-29T07:12:49Z</time>
      </trkpt>
      <trkpt lat="43.00646" lon="-0.16107">
        <ele>1059</ele>
        <time>2021-08-29T07:12:51Z</time>
      </trkpt>
      <trkpt lat="43.00646" lon="-0.16097">
        <ele>1058.6</ele>
        <time>2021-08-29T07:12:52Z</time>
      </trkpt>
      <trkpt lat="43.00646" lon="-0.16097">
        <ele>1057.8</ele>
        <time>2021-08-29T07:12:53Z</time>
      </trkpt>
      <trkpt lat="43.00644" lon="-0.16075">
        <ele>1057.4</ele>
        <time>2021-08-29T07:12:54Z</time>
      </trkpt>
      <trkpt lat="43.00641" lon="-0.16055">
        <ele>1056.2</ele>
        <time>2021-08-29T07:12:56Z</time>
      </trkpt>
      <trkpt lat="43.00639" lon="-0.16045">
        <ele>1055.4</ele>
        <time>2021-08-29T07:12:57Z</time>
      </trkpt>
      <trkpt lat="43.00636" lon="-0.16035">
        <ele>1054.6</ele>
        <time>2021-08-29T07:12:58Z</time>
      </trkpt>
      <trkpt lat="43.00632" lon="-0.16013">
        <ele>1053.2</ele>
        <time>2021-08-29T07:13:00Z</time>
      </trkpt>
      <trkpt lat="43.00628" lon="-0.1599">
        <ele>1051.4</ele>
        <time>2021-08-29T07:13:02Z</time>
      </trkpt>
      <trkpt lat="43.00624" lon="-0.15967">
        <ele>1049.4</ele>
        <time>2021-08-29T07:13:04Z</time>
      </trkpt>
      <trkpt lat="43.00621" lon="-0.15945">
        <ele>1048</ele>
        <time>2021-08-29T07:13:06Z</time>
      </trkpt>
      <trkpt lat="43.0062" lon="-0.15935">
        <ele>1047.8</ele>
        <time>2021-08-29T07:13:07Z</time>
      </trkpt>
      <trkpt lat="43.0062" lon="-0.15915">
        <ele>1046.8</ele>
        <time>2021-08-29T07:13:09Z</time>
      </trkpt>
      <trkpt lat="43.00621" lon="-0.15905">
        <ele>1046</ele>
        <time>2021-08-29T07:13:10Z</time>
      </trkpt>
      <trkpt lat="43.00622" lon="-0.15895">
        <ele>1045.4</ele>
        <time>2021-08-29T07:13:11Z</time>
      </trkpt>
      <trkpt lat="43.00624" lon="-0.15885">
        <ele>1044.2</ele>
        <time>2021-08-29T07:13:12Z</time>
      </trkpt>
      <trkpt lat="43.00626" lon="-0.15876">
        <ele>1043.4</ele>
        <time>2021-08-29T07:13:13Z</time>
      </trkpt>
      <trkpt lat="43.00629" lon="-0.15868">
        <ele>1043</ele>
        <time>2021-08-29T07:13:14Z</time>
      </trkpt>
      <trkpt lat="43.00633" lon="-0.1586">
        <ele>1042.2</ele>
        <time>2021-08-29T07:13:15Z</time>
      </trkpt>
      <trkpt lat="43.00635" lon="-0.15855">
        <ele>1042</ele>
        <time>2021-08-29T07:13:16Z</time>
      </trkpt>
      <trkpt lat="43.00639" lon="-0.15847">
        <ele>1041.2</ele>
        <time>2021-08-29T07:13:17Z</time>
      </trkpt>
      <trkpt lat="43.00644" lon="-0.15844">
        <ele>1041</ele>
        <time>2021-08-29T07:13:18Z</time>
      </trkpt>
      <trkpt lat="43.0065" lon="-0.1584">
        <ele>1040.4</ele>
        <time>2021-08-29T07:13:19Z</time>
      </trkpt>
      <trkpt lat="43.00655" lon="-0.15835">
        <ele>1040.2</ele>
        <time>2021-08-29T07:13:20Z</time>
      </trkpt>
      <trkpt lat="43.0066" lon="-0.15829">
        <ele>1039.6</ele>
        <time>2021-08-29T07:13:21Z</time>
      </trkpt>
      <trkpt lat="43.00664" lon="-0.15823">
        <ele>1039.4</ele>
        <time>2021-08-29T07:13:22Z</time>
      </trkpt>
      <trkpt lat="43.00669" lon="-0.15815">
        <ele>1038.8</ele>
        <time>2021-08-29T07:13:23Z</time>
      </trkpt>
      <trkpt lat="43.00674" lon="-0.15807">
        <ele>1038.6</ele>
        <time>2021-08-29T07:13:24Z</time>
      </trkpt>
      <trkpt lat="43.00679" lon="-0.158">
        <ele>1037.8</ele>
        <time>2021-08-29T07:13:25Z</time>
      </trkpt>
      <trkpt lat="43.00684" lon="-0.15792">
        <ele>1037.4</ele>
        <time>2021-08-29T07:13:26Z</time>
      </trkpt>
      <trkpt lat="43.00688" lon="-0.15784">
        <ele>1037</ele>
        <time>2021-08-29T07:13:27Z</time>
      </trkpt>
      <trkpt lat="43.00699" lon="-0.15769">
        <ele>1036.4</ele>
        <time>2021-08-29T07:13:29Z</time>
      </trkpt>
      <trkpt lat="43.00717" lon="-0.15747">
        <ele>1035.6</ele>
        <time>2021-08-29T07:13:32Z</time>
      </trkpt>
      <trkpt lat="43.00728" lon="-0.15733">
        <ele>1034.8</ele>
        <time>2021-08-29T07:13:34Z</time>
      </trkpt>
      <trkpt lat="43.00733" lon="-0.15725">
        <ele>1034.2</ele>
        <time>2021-08-29T07:13:35Z</time>
      </trkpt>
      <trkpt lat="43.00739" lon="-0.15718">
        <ele>1033.2</ele>
        <time>2021-08-29T07:13:36Z</time>
      </trkpt>
      <trkpt lat="43.00744" lon="-0.1571">
        <ele>1033</ele>
        <time>2021-08-29T07:13:37Z</time>
      </trkpt>
      <trkpt lat="43.00749" lon="-0.15702">
        <ele>1032.2</ele>
        <time>2021-08-29T07:13:38Z</time>
      </trkpt>
      <trkpt lat="43.00759" lon="-0.15686">
        <ele>1030.8</ele>
        <time>2021-08-29T07:13:40Z</time>
      </trkpt>
      <trkpt lat="43.00769" lon="-0.15669">
        <ele>1029.4</ele>
        <time>2021-08-29T07:13:42Z</time>
      </trkpt>
      <trkpt lat="43.00773" lon="-0.15659">
        <ele>1028.6</ele>
        <time>2021-08-29T07:13:43Z</time>
      </trkpt>
      <trkpt lat="43.00778" lon="-0.1565">
        <ele>1027.2</ele>
        <time>2021-08-29T07:13:44Z</time>
      </trkpt>
      <trkpt lat="43.00787" lon="-0.15629">
        <ele>1025.8</ele>
        <time>2021-08-29T07:13:46Z</time>
      </trkpt>
      <trkpt lat="43.00796" lon="-0.15608">
        <ele>1024.6</ele>
        <time>2021-08-29T07:13:48Z</time>
      </trkpt>
      <trkpt lat="43.00804" lon="-0.15588">
        <ele>1023.2</ele>
        <time>2021-08-29T07:13:50Z</time>
      </trkpt>
      <trkpt lat="43.00808" lon="-0.15578">
        <ele>1022.2</ele>
        <time>2021-08-29T07:13:51Z</time>
      </trkpt>
      <trkpt lat="43.00813" lon="-0.1556">
        <ele>1020.4</ele>
        <time>2021-08-29T07:13:53Z</time>
      </trkpt>
      <trkpt lat="43.00814" lon="-0.15553">
        <ele>1020</ele>
        <time>2021-08-29T07:13:54Z</time>
      </trkpt>
      <trkpt lat="43.00816" lon="-0.15546">
        <ele>1018.8</ele>
        <time>2021-08-29T07:13:55Z</time>
      </trkpt>
      <trkpt lat="43.00817" lon="-0.1554">
        <ele>1018.2</ele>
        <time>2021-08-29T07:13:56Z</time>
      </trkpt>
      <trkpt lat="43.0082" lon="-0.15537">
        <ele>1017.4</ele>
        <time>2021-08-29T07:13:57Z</time>
      </trkpt>
      <trkpt lat="43.00823" lon="-0.15537">
        <ele>1016.8</ele>
        <time>2021-08-29T07:13:58Z</time>
      </trkpt>
      <trkpt lat="43.00826" lon="-0.15538">
        <ele>1015.6</ele>
        <time>2021-08-29T07:13:59Z</time>
      </trkpt>
      <trkpt lat="43.0083" lon="-0.1554">
        <ele>1015</ele>
        <time>2021-08-29T07:14:00Z</time>
      </trkpt>
      <trkpt lat="43.00835" lon="-0.15544">
        <ele>1013.8</ele>
        <time>2021-08-29T07:14:01Z</time>
      </trkpt>
      <trkpt lat="43.00839" lon="-0.15549">
        <ele>1013.2</ele>
        <time>2021-08-29T07:14:02Z</time>
      </trkpt>
      <trkpt lat="43.00843" lon="-0.15557">
        <ele>1012.6</ele>
        <time>2021-08-29T07:14:03Z</time>
      </trkpt>
      <trkpt lat="43.00847" lon="-0.15564">
        <ele>1012.4</ele>
        <time>2021-08-29T07:14:04Z</time>
      </trkpt>
      <trkpt lat="43.00852" lon="-0.15573">
        <ele>1011.8</ele>
        <time>2021-08-29T07:14:05Z</time>
      </trkpt>
      <trkpt lat="43.00856" lon="-0.15581">
        <ele>1011.6</ele>
        <time>2021-08-29T07:14:06Z</time>
      </trkpt>
      <trkpt lat="43.00861" lon="-0.1559">
        <ele>1011</ele>
        <time>2021-08-29T07:14:07Z</time>
      </trkpt>
      <trkpt lat="43.00866" lon="-0.15599">
        <ele>1010.4</ele>
        <time>2021-08-29T07:14:08Z</time>
      </trkpt>
      <trkpt lat="43.00872" lon="-0.15609">
        <ele>1008.6</ele>
        <time>2021-08-29T07:14:09Z</time>
      </trkpt>
      <trkpt lat="43.00877" lon="-0.15619">
        <ele>1007.6</ele>
        <time>2021-08-29T07:14:10Z</time>
      </trkpt>
      <trkpt lat="43.00881" lon="-0.15629">
        <ele>1007.2</ele>
        <time>2021-08-29T07:14:11Z</time>
      </trkpt>
      <trkpt lat="43.00886" lon="-0.15639">
        <ele>1006.6</ele>
        <time>2021-08-29T07:14:12Z</time>
      </trkpt>
      <trkpt lat="43.00902" lon="-0.15671">
        <ele>1005</ele>
        <time>2021-08-29T07:14:15Z</time>
      </trkpt>
      <trkpt lat="43.00907" lon="-0.15682">
        <ele>1004.4</ele>
        <time>2021-08-29T07:14:16Z</time>
      </trkpt>
      <trkpt lat="43.00918" lon="-0.15703">
        <ele>1003.2</ele>
        <time>2021-08-29T07:14:18Z</time>
      </trkpt>
      <trkpt lat="43.00922" lon="-0.15712">
        <ele>1002.8</ele>
        <time>2021-08-29T07:14:19Z</time>
      </trkpt>
      <trkpt lat="43.00926" lon="-0.15722">
        <ele>1001.8</ele>
        <time>2021-08-29T07:14:20Z</time>
      </trkpt>
      <trkpt lat="43.0093" lon="-0.15732">
        <ele>1000.8</ele>
        <time>2021-08-29T07:14:21Z</time>
      </trkpt>
      <trkpt lat="43.00933" lon="-0.15742">
        <ele>999.6</ele>
        <time>2021-08-29T07:14:22Z</time>
      </trkpt>
      <trkpt lat="43.00937" lon="-0.15752">
        <ele>999.2</ele>
        <time>2021-08-29T07:14:23Z</time>
      </trkpt>
      <trkpt lat="43.00939" lon="-0.15763">
        <ele>998.2</ele>
        <time>2021-08-29T07:14:24Z</time>
      </trkpt>
      <trkpt lat="43.00946" lon="-0.15786">
        <ele>996.8</ele>
        <time>2021-08-29T07:14:26Z</time>
      </trkpt>
      <trkpt lat="43.00955" lon="-0.15808">
        <ele>995.4</ele>
        <time>2021-08-29T07:14:28Z</time>
      </trkpt>
      <trkpt lat="43.0096" lon="-0.15818">
        <ele>994.4</ele>
        <time>2021-08-29T07:14:29Z</time>
      </trkpt>
      <trkpt lat="43.00965" lon="-0.15828">
        <ele>993.8</ele>
        <time>2021-08-29T07:14:30Z</time>
      </trkpt>
      <trkpt lat="43.0097" lon="-0.15836">
        <ele>992.6</ele>
        <time>2021-08-29T07:14:31Z</time>
      </trkpt>
      <trkpt lat="43.00975" lon="-0.15846">
        <ele>992</ele>
        <time>2021-08-29T07:14:32Z</time>
      </trkpt>
      <trkpt lat="43.00979" lon="-0.15856">
        <ele>991.4</ele>
        <time>2021-08-29T07:14:33Z</time>
      </trkpt>
      <trkpt lat="43.00984" lon="-0.15877">
        <ele>990</ele>
        <time>2021-08-29T07:14:35Z</time>
      </trkpt>
      <trkpt lat="43.00987" lon="-0.15886">
        <ele>989.6</ele>
        <time>2021-08-29T07:14:36Z</time>
      </trkpt>
      <trkpt lat="43.0099" lon="-0.15896">
        <ele>988.6</ele>
        <time>2021-08-29T07:14:37Z</time>
      </trkpt>
      <trkpt lat="43.00997" lon="-0.15915">
        <ele>987</ele>
        <time>2021-08-29T07:14:39Z</time>
      </trkpt>
      <trkpt lat="43.01" lon="-0.15924">
        <ele>986.6</ele>
        <time>2021-08-29T07:14:40Z</time>
      </trkpt>
      <trkpt lat="43.01003" lon="-0.15932">
        <ele>985.6</ele>
        <time>2021-08-29T07:14:41Z</time>
      </trkpt>
      <trkpt lat="43.01006" lon="-0.15938">
        <ele>985.2</ele>
        <time>2021-08-29T07:14:42Z</time>
      </trkpt>
      <trkpt lat="43.01008" lon="-0.15944">
        <ele>984.4</ele>
        <time>2021-08-29T07:14:43Z</time>
      </trkpt>
      <trkpt lat="43.0101" lon="-0.15948">
        <ele>983.8</ele>
        <time>2021-08-29T07:14:44Z</time>
      </trkpt>
      <trkpt lat="43.01012" lon="-0.15952">
        <ele>983</ele>
        <time>2021-08-29T07:14:45Z</time>
      </trkpt>
      <trkpt lat="43.01014" lon="-0.15956">
        <ele>982.8</ele>
        <time>2021-08-29T07:14:46Z</time>
      </trkpt>
      <trkpt lat="43.01016" lon="-0.15961">
        <ele>981.6</ele>
        <time>2021-08-29T07:14:47Z</time>
      </trkpt>
      <trkpt lat="43.01018" lon="-0.15965">
        <ele>980.6</ele>
        <time>2021-08-29T07:14:48Z</time>
      </trkpt>
      <trkpt lat="43.0102" lon="-0.15971">
        <ele>980.4</ele>
        <time>2021-08-29T07:14:49Z</time>
      </trkpt>
      <trkpt lat="43.01022" lon="-0.15976">
        <ele>979.6</ele>
        <time>2021-08-29T07:14:50Z</time>
      </trkpt>
      <trkpt lat="43.01027" lon="-0.15987">
        <ele>979</ele>
        <time>2021-08-29T07:14:52Z</time>
      </trkpt>
      <trkpt lat="43.01038" lon="-0.16009">
        <ele>977.8</ele>
        <time>2021-08-29T07:14:55Z</time>
      </trkpt>
      <trkpt lat="43.01051" lon="-0.16029">
        <ele>976.8</ele>
        <time>2021-08-29T07:14:58Z</time>
      </trkpt>
      <trkpt lat="43.01056" lon="-0.16034">
        <ele>976.6</ele>
        <time>2021-08-29T07:14:59Z</time>
      </trkpt>
      <trkpt lat="43.0106" lon="-0.16041">
        <ele>976</ele>
        <time>2021-08-29T07:15:00Z</time>
      </trkpt>
      <trkpt lat="43.01064" lon="-0.16047">
        <ele>975.8</ele>
        <time>2021-08-29T07:15:01Z</time>
      </trkpt>
      <trkpt lat="43.01067" lon="-0.16054">
        <ele>975.2</ele>
        <time>2021-08-29T07:15:02Z</time>
      </trkpt>
      <trkpt lat="43.0107" lon="-0.1606">
        <ele>975</ele>
        <time>2021-08-29T07:15:03Z</time>
      </trkpt>
      <trkpt lat="43.01072" lon="-0.16065">
        <ele>974.6</ele>
        <time>2021-08-29T07:15:04Z</time>
      </trkpt>
      <trkpt lat="43.01076" lon="-0.16071">
        <ele>974.4</ele>
        <time>2021-08-29T07:15:05Z</time>
      </trkpt>
      <trkpt lat="43.01082" lon="-0.16075">
        <ele>973.8</ele>
        <time>2021-08-29T07:15:06Z</time>
      </trkpt>
      <trkpt lat="43.0109" lon="-0.16079">
        <ele>973</ele>
        <time>2021-08-29T07:15:07Z</time>
      </trkpt>
      <trkpt lat="43.01097" lon="-0.16082">
        <ele>972.8</ele>
        <time>2021-08-29T07:15:08Z</time>
      </trkpt>
      <trkpt lat="43.01104" lon="-0.16085">
        <ele>972</ele>
        <time>2021-08-29T07:15:09Z</time>
      </trkpt>
      <trkpt lat="43.01111" lon="-0.16089">
        <ele>971.8</ele>
        <time>2021-08-29T07:15:10Z</time>
      </trkpt>
      <trkpt lat="43.01117" lon="-0.16091">
        <ele>971</ele>
        <time>2021-08-29T07:15:11Z</time>
      </trkpt>
      <trkpt lat="43.01124" lon="-0.16094">
        <ele>970.6</ele>
        <time>2021-08-29T07:15:12Z</time>
      </trkpt>
      <trkpt lat="43.01128" lon="-0.16102">
        <ele>969.2</ele>
        <time>2021-08-29T07:15:13Z</time>
      </trkpt>
      <trkpt lat="43.01132" lon="-0.16109">
        <ele>968.8</ele>
        <time>2021-08-29T07:15:14Z</time>
      </trkpt>
      <trkpt lat="43.01135" lon="-0.16115">
        <ele>967.8</ele>
        <time>2021-08-29T07:15:15Z</time>
      </trkpt>
      <trkpt lat="43.01139" lon="-0.16123">
        <ele>967.2</ele>
        <time>2021-08-29T07:15:16Z</time>
      </trkpt>
      <trkpt lat="43.01141" lon="-0.16129">
        <ele>966.6</ele>
        <time>2021-08-29T07:15:17Z</time>
      </trkpt>
      <trkpt lat="43.01145" lon="-0.16133">
        <ele>966.4</ele>
        <time>2021-08-29T07:15:18Z</time>
      </trkpt>
      <trkpt lat="43.01148" lon="-0.16137">
        <ele>965.8</ele>
        <time>2021-08-29T07:15:19Z</time>
      </trkpt>
      <trkpt lat="43.01154" lon="-0.16142">
        <ele>965.4</ele>
        <time>2021-08-29T07:15:20Z</time>
      </trkpt>
      <trkpt lat="43.01159" lon="-0.16145">
        <ele>964.8</ele>
        <time>2021-08-29T07:15:21Z</time>
      </trkpt>
      <trkpt lat="43.01164" lon="-0.16147">
        <ele>964.6</ele>
        <time>2021-08-29T07:15:22Z</time>
      </trkpt>
      <trkpt lat="43.01169" lon="-0.1615">
        <ele>964.2</ele>
        <time>2021-08-29T07:15:23Z</time>
      </trkpt>
      <trkpt lat="43.01181" lon="-0.1616">
        <ele>963.2</ele>
        <time>2021-08-29T07:15:25Z</time>
      </trkpt>
      <trkpt lat="43.01188" lon="-0.16166">
        <ele>962.8</ele>
        <time>2021-08-29T07:15:26Z</time>
      </trkpt>
      <trkpt lat="43.01199" lon="-0.16176">
        <ele>962</ele>
        <time>2021-08-29T07:15:28Z</time>
      </trkpt>
      <trkpt lat="43.01217" lon="-0.16189">
        <ele>961.2</ele>
        <time>2021-08-29T07:15:30Z</time>
      </trkpt>
      <trkpt lat="43.01235" lon="-0.16204">
        <ele>960.4</ele>
        <time>2021-08-29T07:15:32Z</time>
      </trkpt>
      <trkpt lat="43.01244" lon="-0.16211">
        <ele>960</ele>
        <time>2021-08-29T07:15:33Z</time>
      </trkpt>
      <trkpt lat="43.01265" lon="-0.16227">
        <ele>958.6</ele>
        <time>2021-08-29T07:15:35Z</time>
      </trkpt>
      <trkpt lat="43.01275" lon="-0.16236">
        <ele>957.6</ele>
        <time>2021-08-29T07:15:36Z</time>
      </trkpt>
      <trkpt lat="43.01283" lon="-0.16243">
        <ele>956.8</ele>
        <time>2021-08-29T07:15:37Z</time>
      </trkpt>
      <trkpt lat="43.01296" lon="-0.16253">
        <ele>955</ele>
        <time>2021-08-29T07:15:38Z</time>
      </trkpt>
      <trkpt lat="43.01318" lon="-0.16266">
        <ele>953</ele>
        <time>2021-08-29T07:15:40Z</time>
      </trkpt>
      <trkpt lat="43.01327" lon="-0.16271">
        <ele>952.4</ele>
        <time>2021-08-29T07:15:41Z</time>
      </trkpt>
      <trkpt lat="43.0134" lon="-0.16277">
        <ele>950.8</ele>
        <time>2021-08-29T07:15:42Z</time>
      </trkpt>
      <trkpt lat="43.01362" lon="-0.16283">
        <ele>948.6</ele>
        <time>2021-08-29T07:15:44Z</time>
      </trkpt>
      <trkpt lat="43.01373" lon="-0.16283">
        <ele>948.2</ele>
        <time>2021-08-29T07:15:45Z</time>
      </trkpt>
      <trkpt lat="43.01381" lon="-0.16282">
        <ele>947.2</ele>
        <time>2021-08-29T07:15:46Z</time>
      </trkpt>
      <trkpt lat="43.01391" lon="-0.16279">
        <ele>946.4</ele>
        <time>2021-08-29T07:15:47Z</time>
      </trkpt>
      <trkpt lat="43.01403" lon="-0.16271">
        <ele>946.2</ele>
        <time>2021-08-29T07:15:48Z</time>
      </trkpt>
      <trkpt lat="43.01411" lon="-0.16263">
        <ele>945</ele>
        <time>2021-08-29T07:15:49Z</time>
      </trkpt>
      <trkpt lat="43.01418" lon="-0.16254">
        <ele>944.6</ele>
        <time>2021-08-29T07:15:50Z</time>
      </trkpt>
      <trkpt lat="43.01426" lon="-0.16241">
        <ele>943.6</ele>
        <time>2021-08-29T07:15:51Z</time>
      </trkpt>
      <trkpt lat="43.01431" lon="-0.16231">
        <ele>943</ele>
        <time>2021-08-29T07:15:52Z</time>
      </trkpt>
      <trkpt lat="43.01435" lon="-0.16223">
        <ele>942.2</ele>
        <time>2021-08-29T07:15:53Z</time>
      </trkpt>
      <trkpt lat="43.01438" lon="-0.16218">
        <ele>941.4</ele>
        <time>2021-08-29T07:15:54Z</time>
      </trkpt>
      <trkpt lat="43.01442" lon="-0.16213">
        <ele>940.6</ele>
        <time>2021-08-29T07:15:55Z</time>
      </trkpt>
      <trkpt lat="43.01444" lon="-0.16211">
        <ele>940.2</ele>
        <time>2021-08-29T07:15:56Z</time>
      </trkpt>
      <trkpt lat="43.01447" lon="-0.16211">
        <ele>939</ele>
        <time>2021-08-29T07:15:57Z</time>
      </trkpt>
      <trkpt lat="43.01449" lon="-0.16211">
        <ele>938.6</ele>
        <time>2021-08-29T07:15:58Z</time>
      </trkpt>
      <trkpt lat="43.0145" lon="-0.16212">
        <ele>937.8</ele>
        <time>2021-08-29T07:15:59Z</time>
      </trkpt>
      <trkpt lat="43.01451" lon="-0.16214">
        <ele>937.4</ele>
        <time>2021-08-29T07:16:00Z</time>
      </trkpt>
      <trkpt lat="43.01453" lon="-0.16216">
        <ele>936.8</ele>
        <time>2021-08-29T07:16:01Z</time>
      </trkpt>
      <trkpt lat="43.01454" lon="-0.16218">
        <ele>936.6</ele>
        <time>2021-08-29T07:16:02Z</time>
      </trkpt>
      <trkpt lat="43.01454" lon="-0.1622">
        <ele>936</ele>
        <time>2021-08-29T07:16:03Z</time>
      </trkpt>
      <trkpt lat="43.01455" lon="-0.16223">
        <ele>936</ele>
        <time>2021-08-29T07:16:04Z</time>
      </trkpt>
      <trkpt lat="43.01454" lon="-0.16225">
        <ele>935.8</ele>
        <time>2021-08-29T07:16:05Z</time>
      </trkpt>
      <trkpt lat="43.01454" lon="-0.16228">
        <ele>935.6</ele>
        <time>2021-08-29T07:16:06Z</time>
      </trkpt>
      <trkpt lat="43.01454" lon="-0.16231">
        <ele>935.6</ele>
        <time>2021-08-29T07:16:07Z</time>
      </trkpt>
      <trkpt lat="43.01454" lon="-0.16235">
        <ele>935.4</ele>
        <time>2021-08-29T07:16:08Z</time>
      </trkpt>
      <trkpt lat="43.01453" lon="-0.16238">
        <ele>935.4</ele>
        <time>2021-08-29T07:16:09Z</time>
      </trkpt>
      <trkpt lat="43.01452" lon="-0.16263">
        <ele>935.6</ele>
        <time>2021-08-29T07:16:16Z</time>
      </trkpt>
      <trkpt lat="43.01453" lon="-0.1628">
        <ele>936</ele>
        <time>2021-08-29T07:16:21Z</time>
      </trkpt>
      <trkpt lat="43.01454" lon="-0.16287">
        <ele>936.2</ele>
        <time>2021-08-29T07:16:23Z</time>
      </trkpt>
      <trkpt lat="43.01455" lon="-0.16294">
        <ele>936.4</ele>
        <time>2021-08-29T07:16:25Z</time>
      </trkpt>
      <trkpt lat="43.01457" lon="-0.16316">
        <ele>936.8</ele>
        <time>2021-08-29T07:16:31Z</time>
      </trkpt>
      <trkpt lat="43.01461" lon="-0.16348">
        <ele>937</ele>
        <time>2021-08-29T07:16:40Z</time>
      </trkpt>
      <trkpt lat="43.01461" lon="-0.16351">
        <ele>937</ele>
        <time>2021-08-29T07:16:41Z</time>
      </trkpt>
      <trkpt lat="43.01462" lon="-0.16355">
        <ele>937</ele>
        <time>2021-08-29T07:16:42Z</time>
      </trkpt>
      <trkpt lat="43.01463" lon="-0.16358">
        <ele>936.8</ele>
        <time>2021-08-29T07:16:43Z</time>
      </trkpt>
      <trkpt lat="43.01468" lon="-0.16375">
        <ele>936.6</ele>
        <time>2021-08-29T07:16:47Z</time>
      </trkpt>
      <trkpt lat="43.01475" lon="-0.16399">
        <ele>936.4</ele>
        <time>2021-08-29T07:16:52Z</time>
      </trkpt>
      <trkpt lat="43.01477" lon="-0.16405">
        <ele>936.4</ele>
        <time>2021-08-29T07:16:53Z</time>
      </trkpt>
      <trkpt lat="43.01483" lon="-0.16423">
        <ele>936</ele>
        <time>2021-08-29T07:16:57Z</time>
      </trkpt>
      <trkpt lat="43.01485" lon="-0.16431">
        <ele>935.8</ele>
        <time>2021-08-29T07:16:59Z</time>
      </trkpt>
      <trkpt lat="43.01486" lon="-0.16436">
        <ele>935.8</ele>
        <time>2021-08-29T07:17:00Z</time>
      </trkpt>
      <trkpt lat="43.01489" lon="-0.16446">
        <ele>935.6</ele>
        <time>2021-08-29T07:17:02Z</time>
      </trkpt>
      <trkpt lat="43.0149" lon="-0.16456">
        <ele>935.6</ele>
        <time>2021-08-29T07:17:04Z</time>
      </trkpt>
      <trkpt lat="43.01491" lon="-0.16461">
        <ele>935.8</ele>
        <time>2021-08-29T07:17:05Z</time>
      </trkpt>
      <trkpt lat="43.01492" lon="-0.16466">
        <ele>935.8</ele>
        <time>2021-08-29T07:17:06Z</time>
      </trkpt>
      <trkpt lat="43.01492" lon="-0.1647">
        <ele>935.8</ele>
        <time>2021-08-29T07:17:07Z</time>
      </trkpt>
      <trkpt lat="43.01495" lon="-0.16474">
        <ele>935.8</ele>
        <time>2021-08-29T07:17:08Z</time>
      </trkpt>
      <trkpt lat="43.01497" lon="-0.16478">
        <ele>936</ele>
        <time>2021-08-29T07:17:09Z</time>
      </trkpt>
      <trkpt lat="43.01498" lon="-0.16482">
        <ele>936</ele>
        <time>2021-08-29T07:17:10Z</time>
      </trkpt>
      <trkpt lat="43.01501" lon="-0.16486">
        <ele>936</ele>
        <time>2021-08-29T07:17:11Z</time>
      </trkpt>
      <trkpt lat="43.01506" lon="-0.16496">
        <ele>936</ele>
        <time>2021-08-29T07:17:14Z</time>
      </trkpt>
      <trkpt lat="43.01508" lon="-0.16498">
        <ele>936.2</ele>
        <time>2021-08-29T07:17:15Z</time>
      </trkpt>
      <trkpt lat="43.0151" lon="-0.165">
        <ele>936.2</ele>
        <time>2021-08-29T07:17:16Z</time>
      </trkpt>
      <trkpt lat="43.0151" lon="-0.165">
        <ele>936.2</ele>
        <time>2021-08-29T07:17:17Z</time>
      </trkpt>
      <trkpt lat="43.01511" lon="-0.16502">
        <ele>936.2</ele>
        <time>2021-08-29T07:17:18Z</time>
      </trkpt>
      <trkpt lat="43.01511" lon="-0.16502">
        <ele>936.4</ele>
        <time>2021-08-29T07:17:19Z</time>
      </trkpt>
      <trkpt lat="43.01511" lon="-0.16502">
        <ele>936.4</ele>
        <time>2021-08-29T07:17:20Z</time>
      </trkpt>
      <trkpt lat="43.01509" lon="-0.16501">
        <ele>936.6</ele>
        <time>2021-08-29T07:17:24Z</time>
      </trkpt>
      <trkpt lat="43.01508" lon="-0.16499">
        <ele>936.6</ele>
        <time>2021-08-29T07:17:25Z</time>
      </trkpt>
      <trkpt lat="43.01505" lon="-0.16494">
        <ele>936.6</ele>
        <time>2021-08-29T07:17:27Z</time>
      </trkpt>
      <trkpt lat="43.01503" lon="-0.16492">
        <ele>936.6</ele>
        <time>2021-08-29T07:17:28Z</time>
      </trkpt>
      <trkpt lat="43.01499" lon="-0.16485">
        <ele>936.8</ele>
        <time>2021-08-29T07:17:30Z</time>
      </trkpt>
      <trkpt lat="43.01494" lon="-0.16477">
        <ele>936.6</ele>
        <time>2021-08-29T07:17:33Z</time>
      </trkpt>
      <trkpt lat="43.01493" lon="-0.16474">
        <ele>936.6</ele>
        <time>2021-08-29T07:17:34Z</time>
      </trkpt>
      <trkpt lat="43.01492" lon="-0.16472">
        <ele>936.4</ele>
        <time>2021-08-29T07:17:35Z</time>
      </trkpt>
      <trkpt lat="43.01491" lon="-0.16469">
        <ele>936.4</ele>
        <time>2021-08-29T07:17:36Z</time>
      </trkpt>
      <trkpt lat="43.0149" lon="-0.16467">
        <ele>936.4</ele>
        <time>2021-08-29T07:17:37Z</time>
      </trkpt>
      <trkpt lat="43.01489" lon="-0.16466">
        <ele>936.2</ele>
        <time>2021-08-29T07:17:38Z</time>
      </trkpt>
      <trkpt lat="43.01489" lon="-0.16466">
        <ele>936.4</ele>
        <time>2021-08-29T07:17:39Z</time>
      </trkpt>
      <trkpt lat="43.0149" lon="-0.16464">
        <ele>936.4</ele>
        <time>2021-08-29T07:17:40Z</time>
      </trkpt>
      <trkpt lat="43.0149" lon="-0.16464">
        <ele>936.2</ele>
        <time>2021-08-29T07:17:41Z</time>
      </trkpt>
      <trkpt lat="43.0149" lon="-0.16462">
        <ele>935.8</ele>
        <time>2021-08-29T07:17:47Z</time>
      </trkpt>
      <trkpt lat="43.0149" lon="-0.1646">
        <ele>935.8</ele>
        <time>2021-08-29T07:17:48Z</time>
      </trkpt>
      <trkpt lat="43.01487" lon="-0.16453">
        <ele>935.8</ele>
        <time>2021-08-29T07:17:51Z</time>
      </trkpt>
      <trkpt lat="43.01487" lon="-0.1645">
        <ele>935.6</ele>
        <time>2021-08-29T07:17:52Z</time>
      </trkpt>
      <trkpt lat="43.01483" lon="-0.16442">
        <ele>935.6</ele>
        <time>2021-08-29T07:17:55Z</time>
      </trkpt>
      <trkpt lat="43.01483" lon="-0.1644">
        <ele>935.6</ele>
        <time>2021-08-29T07:17:56Z</time>
      </trkpt>
      <trkpt lat="43.01482" lon="-0.16438">
        <ele>935.6</ele>
        <time>2021-08-29T07:17:57Z</time>
      </trkpt>
      <trkpt lat="43.01482" lon="-0.16437">
        <ele>935.6</ele>
        <time>2021-08-29T07:17:58Z</time>
      </trkpt>
      <trkpt lat="43.01481" lon="-0.16436">
        <ele>935.6</ele>
        <time>2021-08-29T07:17:59Z</time>
      </trkpt>
      <trkpt lat="43.01481" lon="-0.16434">
        <ele>935.4</ele>
        <time>2021-08-29T07:18:00Z</time>
      </trkpt>
      <trkpt lat="43.0148" lon="-0.16433">
        <ele>935.4</ele>
        <time>2021-08-29T07:18:01Z</time>
      </trkpt>
      <trkpt lat="43.01479" lon="-0.16431">
        <ele>935.4</ele>
        <time>2021-08-29T07:18:02Z</time>
      </trkpt>
      <trkpt lat="43.01478" lon="-0.1643">
        <ele>935.4</ele>
        <time>2021-08-29T07:18:03Z</time>
      </trkpt>
      <trkpt lat="43.01477" lon="-0.1643">
        <ele>935.2</ele>
        <time>2021-08-29T07:18:04Z</time>
      </trkpt>
      <trkpt lat="43.01477" lon="-0.16429">
        <ele>935.2</ele>
        <time>2021-08-29T07:18:05Z</time>
      </trkpt>
      <trkpt lat="43.01477" lon="-0.16428">
        <ele>935.2</ele>
        <time>2021-08-29T07:18:06Z</time>
      </trkpt>
      <trkpt lat="43.01477" lon="-0.16428">
        <ele>935.2</ele>
        <time>2021-08-29T07:18:07Z</time>
      </trkpt>
      <trkpt lat="43.01478" lon="-0.16423">
        <ele>935</ele>
        <time>2021-08-29T07:18:19Z</time>
      </trkpt>
      <trkpt lat="43.01476" lon="-0.16419">
        <ele>934.8</ele>
        <time>2021-08-29T07:18:21Z</time>
      </trkpt>
      <trkpt lat="43.01476" lon="-0.16417">
        <ele>934.8</ele>
        <time>2021-08-29T07:18:22Z</time>
      </trkpt>
      <trkpt lat="43.01476" lon="-0.16417">
        <ele>934.8</ele>
        <time>2021-08-29T07:18:23Z</time>
      </trkpt>
      <trkpt lat="43.01476" lon="-0.16417">
        <ele>934.8</ele>
        <time>2021-08-29T07:18:24Z</time>
      </trkpt>
      <trkpt lat="43.01475" lon="-0.16416">
        <ele>934.6</ele>
        <time>2021-08-29T07:18:46Z</time>
      </trkpt>
      <trkpt lat="43.01475" lon="-0.16414">
        <ele>933.8</ele>
        <time>2021-08-29T07:18:55Z</time>
      </trkpt>
      <trkpt lat="43.01475" lon="-0.16412">
        <ele>934.4</ele>
        <time>2021-08-29T07:20:16Z</time>
      </trkpt>
      <trkpt lat="43.01476" lon="-0.16415">
        <ele>934.4</ele>
        <time>2021-08-29T07:20:32Z</time>
      </trkpt>
      <trkpt lat="43.01478" lon="-0.16416">
        <ele>934.2</ele>
        <time>2021-08-29T07:20:34Z</time>
      </trkpt>
      <trkpt lat="43.01478" lon="-0.16417">
        <ele>934.4</ele>
        <time>2021-08-29T07:20:36Z</time>
      </trkpt>
      <trkpt lat="43.01478" lon="-0.16417">
        <ele>934.4</ele>
        <time>2021-08-29T07:20:38Z</time>
      </trkpt>
      <trkpt lat="43.01479" lon="-0.16419">
        <ele>934.4</ele>
        <time>2021-08-29T07:20:41Z</time>
      </trkpt>
      <trkpt lat="43.0148" lon="-0.16423">
        <ele>934.4</ele>
        <time>2021-08-29T07:20:43Z</time>
      </trkpt>
      <trkpt lat="43.01481" lon="-0.16426">
        <ele>934.6</ele>
        <time>2021-08-29T07:20:45Z</time>
      </trkpt>
      <trkpt lat="43.01483" lon="-0.16428">
        <ele>934.6</ele>
        <time>2021-08-29T07:20:47Z</time>
      </trkpt>
      <trkpt lat="43.01484" lon="-0.16429">
        <ele>934.6</ele>
        <time>2021-08-29T07:20:48Z</time>
      </trkpt>
      <trkpt lat="43.01484" lon="-0.16429">
        <ele>934.8</ele>
        <time>2021-08-29T07:20:49Z</time>
      </trkpt>
      <trkpt lat="43.01484" lon="-0.16429">
        <ele>934.8</ele>
        <time>2021-08-29T07:20:50Z</time>
      </trkpt>
      <trkpt lat="43.01484" lon="-0.16429">
        <ele>934.8</ele>
        <time>2021-08-29T07:20:53Z</time>
      </trkpt>
      <trkpt lat="43.01485" lon="-0.16432">
        <ele>934.8</ele>
        <time>2021-08-29T07:20:59Z</time>
      </trkpt>
      <trkpt lat="43.01485" lon="-0.16435">
        <ele>934.8</ele>
        <time>2021-08-29T07:21:01Z</time>
      </trkpt>
      <trkpt lat="43.01483" lon="-0.16435">
        <ele>934.8</ele>
        <time>2021-08-29T07:21:03Z</time>
      </trkpt>
      <trkpt lat="43.01483" lon="-0.16434">
        <ele>934.8</ele>
        <time>2021-08-29T07:21:04Z</time>
      </trkpt>
      <trkpt lat="43.01484" lon="-0.16432">
        <ele>935</ele>
        <time>2021-08-29T07:21:05Z</time>
      </trkpt>
      <trkpt lat="43.01485" lon="-0.16431">
        <ele>935</ele>
        <time>2021-08-29T07:21:06Z</time>
      </trkpt>
      <trkpt lat="43.01489" lon="-0.16424">
        <ele>935.2</ele>
        <time>2021-08-29T07:21:10Z</time>
      </trkpt>
      <trkpt lat="43.01489" lon="-0.16422">
        <ele>935.2</ele>
        <time>2021-08-29T07:21:11Z</time>
      </trkpt>
      <trkpt lat="43.0149" lon="-0.16421">
        <ele>935.2</ele>
        <time>2021-08-29T07:21:12Z</time>
      </trkpt>
      <trkpt lat="43.0149" lon="-0.16417">
        <ele>935</ele>
        <time>2021-08-29T07:21:15Z</time>
      </trkpt>
      <trkpt lat="43.0149" lon="-0.16415">
        <ele>934.8</ele>
        <time>2021-08-29T07:21:16Z</time>
      </trkpt>
      <trkpt lat="43.01491" lon="-0.16413">
        <ele>934.8</ele>
        <time>2021-08-29T07:21:17Z</time>
      </trkpt>
      <trkpt lat="43.01491" lon="-0.16411">
        <ele>934.6</ele>
        <time>2021-08-29T07:21:18Z</time>
      </trkpt>
      <trkpt lat="43.01491" lon="-0.16409">
        <ele>934.6</ele>
        <time>2021-08-29T07:21:19Z</time>
      </trkpt>
      <trkpt lat="43.01492" lon="-0.16408">
        <ele>934.6</ele>
        <time>2021-08-29T07:21:20Z</time>
      </trkpt>
      <trkpt lat="43.01494" lon="-0.16407">
        <ele>934.6</ele>
        <time>2021-08-29T07:21:21Z</time>
      </trkpt>
      <trkpt lat="43.01495" lon="-0.16405">
        <ele>934.6</ele>
        <time>2021-08-29T07:21:22Z</time>
      </trkpt>
      <trkpt lat="43.01497" lon="-0.16404">
        <ele>934.8</ele>
        <time>2021-08-29T07:21:23Z</time>
      </trkpt>
      <trkpt lat="43.01498" lon="-0.16403">
        <ele>934.8</ele>
        <time>2021-08-29T07:21:24Z</time>
      </trkpt>
      <trkpt lat="43.015" lon="-0.16401">
        <ele>934.8</ele>
        <time>2021-08-29T07:21:26Z</time>
      </trkpt>
      <trkpt lat="43.01501" lon="-0.16399">
        <ele>935</ele>
        <time>2021-08-29T07:21:28Z</time>
      </trkpt>
      <trkpt lat="43.01502" lon="-0.16398">
        <ele>935</ele>
        <time>2021-08-29T07:21:29Z</time>
      </trkpt>
      <trkpt lat="43.01503" lon="-0.16396">
        <ele>935</ele>
        <time>2021-08-29T07:21:30Z</time>
      </trkpt>
      <trkpt lat="43.01504" lon="-0.16395">
        <ele>935.2</ele>
        <time>2021-08-29T07:21:31Z</time>
      </trkpt>
      <trkpt lat="43.0151" lon="-0.16383">
        <ele>935.4</ele>
        <time>2021-08-29T07:21:36Z</time>
      </trkpt>
      <trkpt lat="43.01513" lon="-0.16379">
        <ele>935.6</ele>
        <time>2021-08-29T07:21:38Z</time>
      </trkpt>
      <trkpt lat="43.01515" lon="-0.16375">
        <ele>935.8</ele>
        <time>2021-08-29T07:21:40Z</time>
      </trkpt>
      <trkpt lat="43.01515" lon="-0.16373">
        <ele>935.8</ele>
        <time>2021-08-29T07:21:41Z</time>
      </trkpt>
      <trkpt lat="43.01515" lon="-0.16371">
        <ele>936</ele>
        <time>2021-08-29T07:21:42Z</time>
      </trkpt>
      <trkpt lat="43.01516" lon="-0.16369">
        <ele>936</ele>
        <time>2021-08-29T07:21:43Z</time>
      </trkpt>
      <trkpt lat="43.01517" lon="-0.16368">
        <ele>936</ele>
        <time>2021-08-29T07:21:44Z</time>
      </trkpt>
      <trkpt lat="43.01519" lon="-0.16365">
        <ele>936.2</ele>
        <time>2021-08-29T07:21:45Z</time>
      </trkpt>
      <trkpt lat="43.01521" lon="-0.16363">
        <ele>936.2</ele>
        <time>2021-08-29T07:21:46Z</time>
      </trkpt>
      <trkpt lat="43.01523" lon="-0.1636">
        <ele>936.4</ele>
        <time>2021-08-29T07:21:47Z</time>
      </trkpt>
      <trkpt lat="43.01526" lon="-0.16358">
        <ele>936.6</ele>
        <time>2021-08-29T07:21:48Z</time>
      </trkpt>
      <trkpt lat="43.01528" lon="-0.16356">
        <ele>937</ele>
        <time>2021-08-29T07:21:49Z</time>
      </trkpt>
      <trkpt lat="43.01531" lon="-0.16353">
        <ele>937</ele>
        <time>2021-08-29T07:21:50Z</time>
      </trkpt>
      <trkpt lat="43.01533" lon="-0.16351">
        <ele>937</ele>
        <time>2021-08-29T07:21:51Z</time>
      </trkpt>
      <trkpt lat="43.01535" lon="-0.16349">
        <ele>937.2</ele>
        <time>2021-08-29T07:21:52Z</time>
      </trkpt>
      <trkpt lat="43.01537" lon="-0.16347">
        <ele>937.2</ele>
        <time>2021-08-29T07:21:53Z</time>
      </trkpt>
      <trkpt lat="43.01539" lon="-0.16346">
        <ele>937.2</ele>
        <time>2021-08-29T07:21:54Z</time>
      </trkpt>
      <trkpt lat="43.01541" lon="-0.16345">
        <ele>937.4</ele>
        <time>2021-08-29T07:21:55Z</time>
      </trkpt>
      <trkpt lat="43.01545" lon="-0.1634">
        <ele>937.6</ele>
        <time>2021-08-29T07:21:57Z</time>
      </trkpt>
      <trkpt lat="43.01549" lon="-0.16336">
        <ele>937.8</ele>
        <time>2021-08-29T07:21:59Z</time>
      </trkpt>
      <trkpt lat="43.01551" lon="-0.16335">
        <ele>938</ele>
        <time>2021-08-29T07:22:00Z</time>
      </trkpt>
      <trkpt lat="43.01553" lon="-0.16334">
        <ele>938.2</ele>
        <time>2021-08-29T07:22:01Z</time>
      </trkpt>
      <trkpt lat="43.01555" lon="-0.16334">
        <ele>938.4</ele>
        <time>2021-08-29T07:22:02Z</time>
      </trkpt>
      <trkpt lat="43.01556" lon="-0.16332">
        <ele>938.4</ele>
        <time>2021-08-29T07:22:03Z</time>
      </trkpt>
      <trkpt lat="43.01558" lon="-0.16331">
        <ele>938.6</ele>
        <time>2021-08-29T07:22:04Z</time>
      </trkpt>
      <trkpt lat="43.0156" lon="-0.1633">
        <ele>938.8</ele>
        <time>2021-08-29T07:22:05Z</time>
      </trkpt>
      <trkpt lat="43.01562" lon="-0.16329">
        <ele>938.8</ele>
        <time>2021-08-29T07:22:06Z</time>
      </trkpt>
      <trkpt lat="43.01565" lon="-0.16327">
        <ele>939.2</ele>
        <time>2021-08-29T07:22:07Z</time>
      </trkpt>
      <trkpt lat="43.01567" lon="-0.16325">
        <ele>939.4</ele>
        <time>2021-08-29T07:22:08Z</time>
      </trkpt>
      <trkpt lat="43.01568" lon="-0.16325">
        <ele>939.4</ele>
        <time>2021-08-29T07:22:09Z</time>
      </trkpt>
      <trkpt lat="43.01568" lon="-0.16324">
        <ele>939.6</ele>
        <time>2021-08-29T07:22:10Z</time>
      </trkpt>
      <trkpt lat="43.01569" lon="-0.16323">
        <ele>939.6</ele>
        <time>2021-08-29T07:22:11Z</time>
      </trkpt>
      <trkpt lat="43.0157" lon="-0.16321">
        <ele>940</ele>
        <time>2021-08-29T07:22:12Z</time>
      </trkpt>
      <trkpt lat="43.01572" lon="-0.1632">
        <ele>940.2</ele>
        <time>2021-08-29T07:22:13Z</time>
      </trkpt>
      <trkpt lat="43.01572" lon="-0.1632">
        <ele>940.8</ele>
        <time>2021-08-29T07:22:14Z</time>
      </trkpt>
      <trkpt lat="43.01572" lon="-0.1632">
        <ele>940.8</ele>
        <time>2021-08-29T07:22:15Z</time>
      </trkpt>
      <trkpt lat="43.01573" lon="-0.16319">
        <ele>941</ele>
        <time>2021-08-29T07:22:16Z</time>
      </trkpt>
      <trkpt lat="43.01574" lon="-0.16318">
        <ele>941</ele>
        <time>2021-08-29T07:22:17Z</time>
      </trkpt>
      <trkpt lat="43.01575" lon="-0.16317">
        <ele>941.2</ele>
        <time>2021-08-29T07:22:18Z</time>
      </trkpt>
      <trkpt lat="43.01576" lon="-0.16315">
        <ele>941.4</ele>
        <time>2021-08-29T07:22:19Z</time>
      </trkpt>
      <trkpt lat="43.01578" lon="-0.16313">
        <ele>941.6</ele>
        <time>2021-08-29T07:22:20Z</time>
      </trkpt>
      <trkpt lat="43.01579" lon="-0.16312">
        <ele>941.6</ele>
        <time>2021-08-29T07:22:21Z</time>
      </trkpt>
      <trkpt lat="43.01581" lon="-0.1631">
        <ele>941.8</ele>
        <time>2021-08-29T07:22:22Z</time>
      </trkpt>
      <trkpt lat="43.01582" lon="-0.16309">
        <ele>942</ele>
        <time>2021-08-29T07:22:23Z</time>
      </trkpt>
      <trkpt lat="43.01584" lon="-0.16308">
        <ele>942.2</ele>
        <time>2021-08-29T07:22:24Z</time>
      </trkpt>
      <trkpt lat="43.01587" lon="-0.16306">
        <ele>942.2</ele>
        <time>2021-08-29T07:22:25Z</time>
      </trkpt>
      <trkpt lat="43.01588" lon="-0.16305">
        <ele>942.4</ele>
        <time>2021-08-29T07:22:26Z</time>
      </trkpt>
      <trkpt lat="43.0159" lon="-0.16303">
        <ele>942.4</ele>
        <time>2021-08-29T07:22:27Z</time>
      </trkpt>
      <trkpt lat="43.01592" lon="-0.16301">
        <ele>942.6</ele>
        <time>2021-08-29T07:22:28Z</time>
      </trkpt>
      <trkpt lat="43.01595" lon="-0.16299">
        <ele>942.6</ele>
        <time>2021-08-29T07:22:29Z</time>
      </trkpt>
      <trkpt lat="43.01596" lon="-0.16299">
        <ele>942.8</ele>
        <time>2021-08-29T07:22:30Z</time>
      </trkpt>
      <trkpt lat="43.01598" lon="-0.16298">
        <ele>942.8</ele>
        <time>2021-08-29T07:22:31Z</time>
      </trkpt>
      <trkpt lat="43.01601" lon="-0.16296">
        <ele>942.8</ele>
        <time>2021-08-29T07:22:32Z</time>
      </trkpt>
      <trkpt lat="43.01604" lon="-0.16294">
        <ele>943</ele>
        <time>2021-08-29T07:22:33Z</time>
      </trkpt>
      <trkpt lat="43.01606" lon="-0.16293">
        <ele>943</ele>
        <time>2021-08-29T07:22:34Z</time>
      </trkpt>
      <trkpt lat="43.01609" lon="-0.16292">
        <ele>943</ele>
        <time>2021-08-29T07:22:35Z</time>
      </trkpt>
      <trkpt lat="43.01612" lon="-0.16291">
        <ele>943</ele>
        <time>2021-08-29T07:22:36Z</time>
      </trkpt>
      <trkpt lat="43.01615" lon="-0.16289">
        <ele>943</ele>
        <time>2021-08-29T07:22:37Z</time>
      </trkpt>
      <trkpt lat="43.01618" lon="-0.16288">
        <ele>943</ele>
        <time>2021-08-29T07:22:38Z</time>
      </trkpt>
      <trkpt lat="43.01619" lon="-0.16287">
        <ele>942.8</ele>
        <time>2021-08-29T07:22:39Z</time>
      </trkpt>
      <trkpt lat="43.01622" lon="-0.16286">
        <ele>942.8</ele>
        <time>2021-08-29T07:22:40Z</time>
      </trkpt>
      <trkpt lat="43.01625" lon="-0.16285">
        <ele>942.8</ele>
        <time>2021-08-29T07:22:41Z</time>
      </trkpt>
      <trkpt lat="43.0163" lon="-0.16282">
        <ele>942.8</ele>
        <time>2021-08-29T07:22:42Z</time>
      </trkpt>
      <trkpt lat="43.01636" lon="-0.1628">
        <ele>942.8</ele>
        <time>2021-08-29T07:22:44Z</time>
      </trkpt>
      <trkpt lat="43.01638" lon="-0.16279">
        <ele>942.8</ele>
        <time>2021-08-29T07:22:45Z</time>
      </trkpt>
      <trkpt lat="43.01641" lon="-0.16278">
        <ele>942.8</ele>
        <time>2021-08-29T07:22:46Z</time>
      </trkpt>
      <trkpt lat="43.01644" lon="-0.16277">
        <ele>942.8</ele>
        <time>2021-08-29T07:22:47Z</time>
      </trkpt>
      <trkpt lat="43.01647" lon="-0.16276">
        <ele>943.2</ele>
        <time>2021-08-29T07:22:48Z</time>
      </trkpt>
      <trkpt lat="43.0165" lon="-0.16276">
        <ele>943.4</ele>
        <time>2021-08-29T07:22:49Z</time>
      </trkpt>
      <trkpt lat="43.01655" lon="-0.16274">
        <ele>943.6</ele>
        <time>2021-08-29T07:22:50Z</time>
      </trkpt>
      <trkpt lat="43.01661" lon="-0.16274">
        <ele>943.6</ele>
        <time>2021-08-29T07:22:52Z</time>
      </trkpt>
      <trkpt lat="43.01664" lon="-0.16275">
        <ele>943.8</ele>
        <time>2021-08-29T07:22:53Z</time>
      </trkpt>
      <trkpt lat="43.01665" lon="-0.16276">
        <ele>943.8</ele>
        <time>2021-08-29T07:22:54Z</time>
      </trkpt>
      <trkpt lat="43.01665" lon="-0.16277">
        <ele>944</ele>
        <time>2021-08-29T07:22:55Z</time>
      </trkpt>
      <trkpt lat="43.01665" lon="-0.16277">
        <ele>944</ele>
        <time>2021-08-29T07:22:56Z</time>
      </trkpt>
      <trkpt lat="43.01666" lon="-0.16277">
        <ele>944</ele>
        <time>2021-08-29T07:22:57Z</time>
      </trkpt>
      <trkpt lat="43.01668" lon="-0.16276">
        <ele>944.2</ele>
        <time>2021-08-29T07:22:58Z</time>
      </trkpt>
      <trkpt lat="43.01669" lon="-0.16277">
        <ele>944.4</ele>
        <time>2021-08-29T07:22:59Z</time>
      </trkpt>
      <trkpt lat="43.01672" lon="-0.16278">
        <ele>944.8</ele>
        <time>2021-08-29T07:23:00Z</time>
      </trkpt>
      <trkpt lat="43.01673" lon="-0.16278">
        <ele>945</ele>
        <time>2021-08-29T07:23:01Z</time>
      </trkpt>
      <trkpt lat="43.01675" lon="-0.16276">
        <ele>945.6</ele>
        <time>2021-08-29T07:23:02Z</time>
      </trkpt>
      <trkpt lat="43.01678" lon="-0.16274">
        <ele>945.6</ele>
        <time>2021-08-29T07:23:03Z</time>
      </trkpt>
      <trkpt lat="43.01679" lon="-0.16273">
        <ele>946</ele>
        <time>2021-08-29T07:23:04Z</time>
      </trkpt>
      <trkpt lat="43.01681" lon="-0.16272">
        <ele>946</ele>
        <time>2021-08-29T07:23:05Z</time>
      </trkpt>
      <trkpt lat="43.01682" lon="-0.16271">
        <ele>946.2</ele>
        <time>2021-08-29T07:23:06Z</time>
      </trkpt>
      <trkpt lat="43.01683" lon="-0.16272">
        <ele>946.4</ele>
        <time>2021-08-29T07:23:07Z</time>
      </trkpt>
      <trkpt lat="43.01684" lon="-0.16271">
        <ele>946.6</ele>
        <time>2021-08-29T07:23:08Z</time>
      </trkpt>
      <trkpt lat="43.01686" lon="-0.16269">
        <ele>946.6</ele>
        <time>2021-08-29T07:23:09Z</time>
      </trkpt>
      <trkpt lat="43.01689" lon="-0.16265">
        <ele>946.6</ele>
        <time>2021-08-29T07:23:10Z</time>
      </trkpt>
      <trkpt lat="43.01692" lon="-0.16262">
        <ele>946.8</ele>
        <time>2021-08-29T07:23:11Z</time>
      </trkpt>
      <trkpt lat="43.01694" lon="-0.16259">
        <ele>946.8</ele>
        <time>2021-08-29T07:23:12Z</time>
      </trkpt>
      <trkpt lat="43.01698" lon="-0.16257">
        <ele>947</ele>
        <time>2021-08-29T07:23:13Z</time>
      </trkpt>
      <trkpt lat="43.01699" lon="-0.16257">
        <ele>947</ele>
        <time>2021-08-29T07:23:14Z</time>
      </trkpt>
      <trkpt lat="43.017" lon="-0.16258">
        <ele>947</ele>
        <time>2021-08-29T07:23:15Z</time>
      </trkpt>
      <trkpt lat="43.01703" lon="-0.16258">
        <ele>947</ele>
        <time>2021-08-29T07:23:16Z</time>
      </trkpt>
      <trkpt lat="43.01705" lon="-0.16258">
        <ele>947.2</ele>
        <time>2021-08-29T07:23:17Z</time>
      </trkpt>
      <trkpt lat="43.01707" lon="-0.16257">
        <ele>947.2</ele>
        <time>2021-08-29T07:23:18Z</time>
      </trkpt>
      <trkpt lat="43.01709" lon="-0.16256">
        <ele>947.4</ele>
        <time>2021-08-29T07:23:19Z</time>
      </trkpt>
      <trkpt lat="43.0171" lon="-0.16255">
        <ele>947.4</ele>
        <time>2021-08-29T07:23:20Z</time>
      </trkpt>
      <trkpt lat="43.01711" lon="-0.16256">
        <ele>947.6</ele>
        <time>2021-08-29T07:23:21Z</time>
      </trkpt>
      <trkpt lat="43.01712" lon="-0.16255">
        <ele>947.8</ele>
        <time>2021-08-29T07:23:22Z</time>
      </trkpt>
      <trkpt lat="43.01713" lon="-0.16255">
        <ele>948.2</ele>
        <time>2021-08-29T07:23:23Z</time>
      </trkpt>
      <trkpt lat="43.01714" lon="-0.16255">
        <ele>948.2</ele>
        <time>2021-08-29T07:23:24Z</time>
      </trkpt>
      <trkpt lat="43.01715" lon="-0.16255">
        <ele>948.2</ele>
        <time>2021-08-29T07:23:25Z</time>
      </trkpt>
      <trkpt lat="43.01716" lon="-0.16255">
        <ele>948.4</ele>
        <time>2021-08-29T07:23:26Z</time>
      </trkpt>
      <trkpt lat="43.01718" lon="-0.16254">
        <ele>948.4</ele>
        <time>2021-08-29T07:23:27Z</time>
      </trkpt>
      <trkpt lat="43.01719" lon="-0.16254">
        <ele>948.4</ele>
        <time>2021-08-29T07:23:28Z</time>
      </trkpt>
      <trkpt lat="43.0172" lon="-0.16252">
        <ele>948.4</ele>
        <time>2021-08-29T07:23:29Z</time>
      </trkpt>
      <trkpt lat="43.01722" lon="-0.16251">
        <ele>948.6</ele>
        <time>2021-08-29T07:23:30Z</time>
      </trkpt>
      <trkpt lat="43.01723" lon="-0.16249">
        <ele>948.6</ele>
        <time>2021-08-29T07:23:31Z</time>
      </trkpt>
      <trkpt lat="43.01724" lon="-0.16247">
        <ele>948.8</ele>
        <time>2021-08-29T07:23:32Z</time>
      </trkpt>
      <trkpt lat="43.01727" lon="-0.16246">
        <ele>948.8</ele>
        <time>2021-08-29T07:23:33Z</time>
      </trkpt>
      <trkpt lat="43.01729" lon="-0.16245">
        <ele>949</ele>
        <time>2021-08-29T07:23:34Z</time>
      </trkpt>
      <trkpt lat="43.0173" lon="-0.16244">
        <ele>949</ele>
        <time>2021-08-29T07:23:35Z</time>
      </trkpt>
      <trkpt lat="43.01731" lon="-0.16243">
        <ele>949.2</ele>
        <time>2021-08-29T07:23:36Z</time>
      </trkpt>
      <trkpt lat="43.01733" lon="-0.16242">
        <ele>949.2</ele>
        <time>2021-08-29T07:23:37Z</time>
      </trkpt>
      <trkpt lat="43.01735" lon="-0.16242">
        <ele>949.2</ele>
        <time>2021-08-29T07:23:38Z</time>
      </trkpt>
      <trkpt lat="43.01736" lon="-0.16241">
        <ele>949.2</ele>
        <time>2021-08-29T07:23:39Z</time>
      </trkpt>
      <trkpt lat="43.01738" lon="-0.1624">
        <ele>949.2</ele>
        <time>2021-08-29T07:23:40Z</time>
      </trkpt>
      <trkpt lat="43.01741" lon="-0.1624">
        <ele>949.4</ele>
        <time>2021-08-29T07:23:41Z</time>
      </trkpt>
      <trkpt lat="43.01744" lon="-0.16239">
        <ele>949.4</ele>
        <time>2021-08-29T07:23:42Z</time>
      </trkpt>
      <trkpt lat="43.01755" lon="-0.16236">
        <ele>949.8</ele>
        <time>2021-08-29T07:23:46Z</time>
      </trkpt>
      <trkpt lat="43.01773" lon="-0.16234">
        <ele>950.2</ele>
        <time>2021-08-29T07:23:54Z</time>
      </trkpt>
      <trkpt lat="43.01775" lon="-0.16234">
        <ele>950</ele>
        <time>2021-08-29T07:23:55Z</time>
      </trkpt>
      <trkpt lat="43.01787" lon="-0.1623">
        <ele>950.2</ele>
        <time>2021-08-29T07:24:01Z</time>
      </trkpt>
      <trkpt lat="43.01796" lon="-0.16229">
        <ele>950.2</ele>
        <time>2021-08-29T07:24:05Z</time>
      </trkpt>
      <trkpt lat="43.01802" lon="-0.16229">
        <ele>950.2</ele>
        <time>2021-08-29T07:24:08Z</time>
      </trkpt>
      <trkpt lat="43.01804" lon="-0.16229">
        <ele>950.2</ele>
        <time>2021-08-29T07:24:09Z</time>
      </trkpt>
      <trkpt lat="43.01807" lon="-0.16228">
        <ele>950.4</ele>
        <time>2021-08-29T07:24:11Z</time>
      </trkpt>
      <trkpt lat="43.01809" lon="-0.16227">
        <ele>950.4</ele>
        <time>2021-08-29T07:24:12Z</time>
      </trkpt>
      <trkpt lat="43.01811" lon="-0.16226">
        <ele>950.6</ele>
        <time>2021-08-29T07:24:13Z</time>
      </trkpt>
      <trkpt lat="43.01812" lon="-0.16225">
        <ele>950.8</ele>
        <time>2021-08-29T07:24:14Z</time>
      </trkpt>
      <trkpt lat="43.01814" lon="-0.16224">
        <ele>950.8</ele>
        <time>2021-08-29T07:24:15Z</time>
      </trkpt>
      <trkpt lat="43.01815" lon="-0.16223">
        <ele>951</ele>
        <time>2021-08-29T07:24:16Z</time>
      </trkpt>
      <trkpt lat="43.01817" lon="-0.16222">
        <ele>951</ele>
        <time>2021-08-29T07:24:17Z</time>
      </trkpt>
      <trkpt lat="43.01818" lon="-0.16221">
        <ele>951.2</ele>
        <time>2021-08-29T07:24:18Z</time>
      </trkpt>
      <trkpt lat="43.01838" lon="-0.16217">
        <ele>951.6</ele>
        <time>2021-08-29T07:24:27Z</time>
      </trkpt>
      <trkpt lat="43.01843" lon="-0.16216">
        <ele>951.6</ele>
        <time>2021-08-29T07:24:30Z</time>
      </trkpt>
      <trkpt lat="43.01844" lon="-0.16215">
        <ele>951.6</ele>
        <time>2021-08-29T07:24:31Z</time>
      </trkpt>
      <trkpt lat="43.01846" lon="-0.16215">
        <ele>951.4</ele>
        <time>2021-08-29T07:24:32Z</time>
      </trkpt>
      <trkpt lat="43.01848" lon="-0.16214">
        <ele>951.6</ele>
        <time>2021-08-29T07:24:33Z</time>
      </trkpt>
      <trkpt lat="43.01849" lon="-0.16213">
        <ele>951.6</ele>
        <time>2021-08-29T07:24:34Z</time>
      </trkpt>
      <trkpt lat="43.01852" lon="-0.16212">
        <ele>951.6</ele>
        <time>2021-08-29T07:24:35Z</time>
      </trkpt>
      <trkpt lat="43.01854" lon="-0.1621">
        <ele>951.6</ele>
        <time>2021-08-29T07:24:36Z</time>
      </trkpt>
      <trkpt lat="43.01862" lon="-0.16205">
        <ele>951.8</ele>
        <time>2021-08-29T07:24:40Z</time>
      </trkpt>
      <trkpt lat="43.01865" lon="-0.16204">
        <ele>952</ele>
        <time>2021-08-29T07:24:41Z</time>
      </trkpt>
      <trkpt lat="43.01883" lon="-0.16192">
        <ele>952.4</ele>
        <time>2021-08-29T07:24:49Z</time>
      </trkpt>
      <trkpt lat="43.01885" lon="-0.1619">
        <ele>952.4</ele>
        <time>2021-08-29T07:24:50Z</time>
      </trkpt>
      <trkpt lat="43.01886" lon="-0.16187">
        <ele>952.6</ele>
        <time>2021-08-29T07:24:51Z</time>
      </trkpt>
      <trkpt lat="43.01888" lon="-0.16184">
        <ele>952.6</ele>
        <time>2021-08-29T07:24:52Z</time>
      </trkpt>
      <trkpt lat="43.01889" lon="-0.16181">
        <ele>952.6</ele>
        <time>2021-08-29T07:24:53Z</time>
      </trkpt>
      <trkpt lat="43.01893" lon="-0.16175">
        <ele>952.6</ele>
        <time>2021-08-29T07:24:55Z</time>
      </trkpt>
      <trkpt lat="43.01895" lon="-0.16173">
        <ele>952.6</ele>
        <time>2021-08-29T07:24:56Z</time>
      </trkpt>
      <trkpt lat="43.01897" lon="-0.16172">
        <ele>952.8</ele>
        <time>2021-08-29T07:24:57Z</time>
      </trkpt>
      <trkpt lat="43.01899" lon="-0.16169">
        <ele>952.8</ele>
        <time>2021-08-29T07:24:58Z</time>
      </trkpt>
      <trkpt lat="43.01901" lon="-0.16168">
        <ele>952.8</ele>
        <time>2021-08-29T07:24:59Z</time>
      </trkpt>
      <trkpt lat="43.01909" lon="-0.16162">
        <ele>952.8</ele>
        <time>2021-08-29T07:25:02Z</time>
      </trkpt>
      <trkpt lat="43.01911" lon="-0.16161">
        <ele>953</ele>
        <time>2021-08-29T07:25:03Z</time>
      </trkpt>
      <trkpt lat="43.01914" lon="-0.16159">
        <ele>953</ele>
        <time>2021-08-29T07:25:04Z</time>
      </trkpt>
      <trkpt lat="43.0192" lon="-0.16152">
        <ele>953</ele>
        <time>2021-08-29T07:25:07Z</time>
      </trkpt>
      <trkpt lat="43.01921" lon="-0.1615">
        <ele>952.8</ele>
        <time>2021-08-29T07:25:08Z</time>
      </trkpt>
      <trkpt lat="43.01923" lon="-0.16148">
        <ele>952.6</ele>
        <time>2021-08-29T07:25:09Z</time>
      </trkpt>
      <trkpt lat="43.01925" lon="-0.16148">
        <ele>952.8</ele>
        <time>2021-08-29T07:25:10Z</time>
      </trkpt>
      <trkpt lat="43.01927" lon="-0.16147">
        <ele>952.8</ele>
        <time>2021-08-29T07:25:11Z</time>
      </trkpt>
      <trkpt lat="43.01928" lon="-0.16147">
        <ele>952.8</ele>
        <time>2021-08-29T07:25:12Z</time>
      </trkpt>
      <trkpt lat="43.01929" lon="-0.16145">
        <ele>952.6</ele>
        <time>2021-08-29T07:25:13Z</time>
      </trkpt>
      <trkpt lat="43.01931" lon="-0.16142">
        <ele>952.6</ele>
        <time>2021-08-29T07:25:14Z</time>
      </trkpt>
      <trkpt lat="43.01933" lon="-0.1614">
        <ele>952.6</ele>
        <time>2021-08-29T07:25:15Z</time>
      </trkpt>
      <trkpt lat="43.01936" lon="-0.16137">
        <ele>952.6</ele>
        <time>2021-08-29T07:25:16Z</time>
      </trkpt>
      <trkpt lat="43.01936" lon="-0.16137">
        <ele>952.4</ele>
        <time>2021-08-29T07:25:17Z</time>
      </trkpt>
      <trkpt lat="43.01939" lon="-0.16134">
        <ele>952.2</ele>
        <time>2021-08-29T07:25:18Z</time>
      </trkpt>
      <trkpt lat="43.0194" lon="-0.16132">
        <ele>952</ele>
        <time>2021-08-29T07:25:19Z</time>
      </trkpt>
      <trkpt lat="43.01942" lon="-0.1613">
        <ele>952</ele>
        <time>2021-08-29T07:25:20Z</time>
      </trkpt>
      <trkpt lat="43.01945" lon="-0.16127">
        <ele>951.8</ele>
        <time>2021-08-29T07:25:21Z</time>
      </trkpt>
      <trkpt lat="43.01948" lon="-0.16124">
        <ele>951.6</ele>
        <time>2021-08-29T07:25:22Z</time>
      </trkpt>
      <trkpt lat="43.01951" lon="-0.1612">
        <ele>951.4</ele>
        <time>2021-08-29T07:25:23Z</time>
      </trkpt>
      <trkpt lat="43.01958" lon="-0.16114">
        <ele>951</ele>
        <time>2021-08-29T07:25:25Z</time>
      </trkpt>
      <trkpt lat="43.01959" lon="-0.16114">
        <ele>950.6</ele>
        <time>2021-08-29T07:25:27Z</time>
      </trkpt>
      <trkpt lat="43.0196" lon="-0.16112">
        <ele>950.4</ele>
        <time>2021-08-29T07:25:28Z</time>
      </trkpt>
      <trkpt lat="43.01962" lon="-0.16108">
        <ele>950.2</ele>
        <time>2021-08-29T07:25:29Z</time>
      </trkpt>
      <trkpt lat="43.01965" lon="-0.16105">
        <ele>950</ele>
        <time>2021-08-29T07:25:30Z</time>
      </trkpt>
      <trkpt lat="43.01973" lon="-0.16095">
        <ele>949.6</ele>
        <time>2021-08-29T07:25:33Z</time>
      </trkpt>
      <trkpt lat="43.01978" lon="-0.16091">
        <ele>949.4</ele>
        <time>2021-08-29T07:25:34Z</time>
      </trkpt>
      <trkpt lat="43.01983" lon="-0.16085">
        <ele>949.2</ele>
        <time>2021-08-29T07:25:35Z</time>
      </trkpt>
      <trkpt lat="43.01988" lon="-0.16082">
        <ele>949.4</ele>
        <time>2021-08-29T07:25:37Z</time>
      </trkpt>
      <trkpt lat="43.01989" lon="-0.1608">
        <ele>949.2</ele>
        <time>2021-08-29T07:25:38Z</time>
      </trkpt>
      <trkpt lat="43.01992" lon="-0.16077">
        <ele>949.2</ele>
        <time>2021-08-29T07:25:39Z</time>
      </trkpt>
      <trkpt lat="43.01994" lon="-0.16075">
        <ele>949</ele>
        <time>2021-08-29T07:25:40Z</time>
      </trkpt>
      <trkpt lat="43.01996" lon="-0.16074">
        <ele>948.8</ele>
        <time>2021-08-29T07:25:41Z</time>
      </trkpt>
      <trkpt lat="43.02004" lon="-0.16068">
        <ele>948.6</ele>
        <time>2021-08-29T07:25:44Z</time>
      </trkpt>
      <trkpt lat="43.02006" lon="-0.16064">
        <ele>948.6</ele>
        <time>2021-08-29T07:25:45Z</time>
      </trkpt>
      <trkpt lat="43.02012" lon="-0.16055">
        <ele>948</ele>
        <time>2021-08-29T07:25:48Z</time>
      </trkpt>
      <trkpt lat="43.02016" lon="-0.16049">
        <ele>947.6</ele>
        <time>2021-08-29T07:25:50Z</time>
      </trkpt>
      <trkpt lat="43.02021" lon="-0.16043">
        <ele>947.4</ele>
        <time>2021-08-29T07:25:52Z</time>
      </trkpt>
      <trkpt lat="43.02027" lon="-0.16037">
        <ele>947</ele>
        <time>2021-08-29T07:25:54Z</time>
      </trkpt>
      <trkpt lat="43.02037" lon="-0.16028">
        <ele>946.2</ele>
        <time>2021-08-29T07:25:57Z</time>
      </trkpt>
      <trkpt lat="43.02041" lon="-0.16023">
        <ele>946</ele>
        <time>2021-08-29T07:25:59Z</time>
      </trkpt>
      <trkpt lat="43.02044" lon="-0.16021">
        <ele>945.8</ele>
        <time>2021-08-29T07:26:00Z</time>
      </trkpt>
      <trkpt lat="43.02048" lon="-0.16015">
        <ele>945</ele>
        <time>2021-08-29T07:26:02Z</time>
      </trkpt>
      <trkpt lat="43.02049" lon="-0.16012">
        <ele>944.8</ele>
        <time>2021-08-29T07:26:03Z</time>
      </trkpt>
      <trkpt lat="43.02051" lon="-0.16011">
        <ele>944.4</ele>
        <time>2021-08-29T07:26:04Z</time>
      </trkpt>
      <trkpt lat="43.02057" lon="-0.16008">
        <ele>944.2</ele>
        <time>2021-08-29T07:26:06Z</time>
      </trkpt>
      <trkpt lat="43.02059" lon="-0.16007">
        <ele>944</ele>
        <time>2021-08-29T07:26:07Z</time>
      </trkpt>
      <trkpt lat="43.02061" lon="-0.16006">
        <ele>943.8</ele>
        <time>2021-08-29T07:26:08Z</time>
      </trkpt>
      <trkpt lat="43.02062" lon="-0.16005">
        <ele>943.6</ele>
        <time>2021-08-29T07:26:09Z</time>
      </trkpt>
      <trkpt lat="43.02063" lon="-0.16004">
        <ele>943.4</ele>
        <time>2021-08-29T07:26:10Z</time>
      </trkpt>
      <trkpt lat="43.02065" lon="-0.16003">
        <ele>943.2</ele>
        <time>2021-08-29T07:26:11Z</time>
      </trkpt>
      <trkpt lat="43.02066" lon="-0.16002">
        <ele>943</ele>
        <time>2021-08-29T07:26:12Z</time>
      </trkpt>
      <trkpt lat="43.02068" lon="-0.16001">
        <ele>943</ele>
        <time>2021-08-29T07:26:13Z</time>
      </trkpt>
      <trkpt lat="43.0207" lon="-0.16">
        <ele>942.8</ele>
        <time>2021-08-29T07:26:14Z</time>
      </trkpt>
      <trkpt lat="43.02074" lon="-0.15997">
        <ele>942.6</ele>
        <time>2021-08-29T07:26:16Z</time>
      </trkpt>
      <trkpt lat="43.0208" lon="-0.15992">
        <ele>942.4</ele>
        <time>2021-08-29T07:26:19Z</time>
      </trkpt>
      <trkpt lat="43.02089" lon="-0.15985">
        <ele>942.2</ele>
        <time>2021-08-29T07:26:22Z</time>
      </trkpt>
      <trkpt lat="43.02099" lon="-0.15976">
        <ele>941.6</ele>
        <time>2021-08-29T07:26:26Z</time>
      </trkpt>
      <trkpt lat="43.0211" lon="-0.15963">
        <ele>940.8</ele>
        <time>2021-08-29T07:26:31Z</time>
      </trkpt>
      <trkpt lat="43.02112" lon="-0.15961">
        <ele>940.6</ele>
        <time>2021-08-29T07:26:32Z</time>
      </trkpt>
      <trkpt lat="43.02113" lon="-0.1596">
        <ele>940.4</ele>
        <time>2021-08-29T07:26:33Z</time>
      </trkpt>
      <trkpt lat="43.02114" lon="-0.15959">
        <ele>940.2</ele>
        <time>2021-08-29T07:26:34Z</time>
      </trkpt>
      <trkpt lat="43.02115" lon="-0.15958">
        <ele>939.8</ele>
        <time>2021-08-29T07:26:35Z</time>
      </trkpt>
      <trkpt lat="43.02116" lon="-0.15957">
        <ele>939.6</ele>
        <time>2021-08-29T07:26:36Z</time>
      </trkpt>
      <trkpt lat="43.02116" lon="-0.15956">
        <ele>939.2</ele>
        <time>2021-08-29T07:26:37Z</time>
      </trkpt>
      <trkpt lat="43.0212" lon="-0.15954">
        <ele>938.8</ele>
        <time>2021-08-29T07:26:39Z</time>
      </trkpt>
      <trkpt lat="43.02122" lon="-0.15953">
        <ele>938.8</ele>
        <time>2021-08-29T07:26:40Z</time>
      </trkpt>
      <trkpt lat="43.02124" lon="-0.15952">
        <ele>938.8</ele>
        <time>2021-08-29T07:26:41Z</time>
      </trkpt>
      <trkpt lat="43.02127" lon="-0.15952">
        <ele>938.6</ele>
        <time>2021-08-29T07:26:42Z</time>
      </trkpt>
      <trkpt lat="43.02135" lon="-0.15952">
        <ele>938.2</ele>
        <time>2021-08-29T07:26:45Z</time>
      </trkpt>
      <trkpt lat="43.02143" lon="-0.15954">
        <ele>938</ele>
        <time>2021-08-29T07:26:48Z</time>
      </trkpt>
      <trkpt lat="43.02144" lon="-0.15956">
        <ele>938</ele>
        <time>2021-08-29T07:26:49Z</time>
      </trkpt>
      <trkpt lat="43.02145" lon="-0.15958">
        <ele>938</ele>
        <time>2021-08-29T07:26:50Z</time>
      </trkpt>
      <trkpt lat="43.02147" lon="-0.15961">
        <ele>938</ele>
        <time>2021-08-29T07:26:51Z</time>
      </trkpt>
      <trkpt lat="43.02148" lon="-0.15965">
        <ele>938</ele>
        <time>2021-08-29T07:26:52Z</time>
      </trkpt>
      <trkpt lat="43.02149" lon="-0.15969">
        <ele>937.8</ele>
        <time>2021-08-29T07:26:53Z</time>
      </trkpt>
      <trkpt lat="43.0215" lon="-0.15973">
        <ele>937.8</ele>
        <time>2021-08-29T07:26:54Z</time>
      </trkpt>
      <trkpt lat="43.02151" lon="-0.15977">
        <ele>937.8</ele>
        <time>2021-08-29T07:26:55Z</time>
      </trkpt>
      <trkpt lat="43.02162" lon="-0.16015">
        <ele>937.8</ele>
        <time>2021-08-29T07:27:04Z</time>
      </trkpt>
      <trkpt lat="43.02168" lon="-0.16046">
        <ele>938.2</ele>
        <time>2021-08-29T07:27:11Z</time>
      </trkpt>
      <trkpt lat="43.02169" lon="-0.16049">
        <ele>938.2</ele>
        <time>2021-08-29T07:27:12Z</time>
      </trkpt>
      <trkpt lat="43.02169" lon="-0.16053">
        <ele>938.2</ele>
        <time>2021-08-29T07:27:13Z</time>
      </trkpt>
      <trkpt lat="43.02171" lon="-0.16057">
        <ele>938.2</ele>
        <time>2021-08-29T07:27:14Z</time>
      </trkpt>
      <trkpt lat="43.02172" lon="-0.1606">
        <ele>938.4</ele>
        <time>2021-08-29T07:27:15Z</time>
      </trkpt>
      <trkpt lat="43.02173" lon="-0.16063">
        <ele>938.4</ele>
        <time>2021-08-29T07:27:16Z</time>
      </trkpt>
      <trkpt lat="43.02174" lon="-0.16065">
        <ele>938.4</ele>
        <time>2021-08-29T07:27:17Z</time>
      </trkpt>
      <trkpt lat="43.02175" lon="-0.16068">
        <ele>938.6</ele>
        <time>2021-08-29T07:27:18Z</time>
      </trkpt>
      <trkpt lat="43.02176" lon="-0.1607">
        <ele>938.6</ele>
        <time>2021-08-29T07:27:19Z</time>
      </trkpt>
      <trkpt lat="43.02177" lon="-0.16073">
        <ele>938.8</ele>
        <time>2021-08-29T07:27:20Z</time>
      </trkpt>
      <trkpt lat="43.02179" lon="-0.16078">
        <ele>939</ele>
        <time>2021-08-29T07:27:22Z</time>
      </trkpt>
      <trkpt lat="43.02179" lon="-0.1608">
        <ele>939.2</ele>
        <time>2021-08-29T07:27:23Z</time>
      </trkpt>
      <trkpt lat="43.0218" lon="-0.16082">
        <ele>939.4</ele>
        <time>2021-08-29T07:27:24Z</time>
      </trkpt>
      <trkpt lat="43.0218" lon="-0.16084">
        <ele>939.6</ele>
        <time>2021-08-29T07:27:25Z</time>
      </trkpt>
      <trkpt lat="43.02181" lon="-0.16087">
        <ele>940</ele>
        <time>2021-08-29T07:27:26Z</time>
      </trkpt>
      <trkpt lat="43.02181" lon="-0.16092">
        <ele>940.6</ele>
        <time>2021-08-29T07:27:28Z</time>
      </trkpt>
      <trkpt lat="43.02182" lon="-0.16095">
        <ele>940.8</ele>
        <time>2021-08-29T07:27:29Z</time>
      </trkpt>
      <trkpt lat="43.02182" lon="-0.16097">
        <ele>941</ele>
        <time>2021-08-29T07:27:30Z</time>
      </trkpt>
      <trkpt lat="43.02182" lon="-0.16099">
        <ele>941.2</ele>
        <time>2021-08-29T07:27:31Z</time>
      </trkpt>
      <trkpt lat="43.02182" lon="-0.16102">
        <ele>941.4</ele>
        <time>2021-08-29T07:27:32Z</time>
      </trkpt>
      <trkpt lat="43.02181" lon="-0.16104">
        <ele>941.6</ele>
        <time>2021-08-29T07:27:33Z</time>
      </trkpt>
      <trkpt lat="43.02181" lon="-0.16106">
        <ele>942.2</ele>
        <time>2021-08-29T07:27:34Z</time>
      </trkpt>
      <trkpt lat="43.02181" lon="-0.16107">
        <ele>942.2</ele>
        <time>2021-08-29T07:27:35Z</time>
      </trkpt>
      <trkpt lat="43.02181" lon="-0.16109">
        <ele>942.4</ele>
        <time>2021-08-29T07:27:36Z</time>
      </trkpt>
      <trkpt lat="43.0218" lon="-0.16112">
        <ele>942.6</ele>
        <time>2021-08-29T07:27:37Z</time>
      </trkpt>
      <trkpt lat="43.0218" lon="-0.16114">
        <ele>943</ele>
        <time>2021-08-29T07:27:38Z</time>
      </trkpt>
      <trkpt lat="43.02179" lon="-0.16116">
        <ele>943.4</ele>
        <time>2021-08-29T07:27:39Z</time>
      </trkpt>
      <trkpt lat="43.02179" lon="-0.16118">
        <ele>943.6</ele>
        <time>2021-08-29T07:27:40Z</time>
      </trkpt>
      <trkpt lat="43.02178" lon="-0.1612">
        <ele>943.8</ele>
        <time>2021-08-29T07:27:41Z</time>
      </trkpt>
      <trkpt lat="43.02178" lon="-0.16123">
        <ele>944</ele>
        <time>2021-08-29T07:27:42Z</time>
      </trkpt>
      <trkpt lat="43.02178" lon="-0.16125">
        <ele>944.6</ele>
        <time>2021-08-29T07:27:43Z</time>
      </trkpt>
      <trkpt lat="43.02177" lon="-0.16127">
        <ele>944.8</ele>
        <time>2021-08-29T07:27:44Z</time>
      </trkpt>
      <trkpt lat="43.02177" lon="-0.16129">
        <ele>945</ele>
        <time>2021-08-29T07:27:45Z</time>
      </trkpt>
      <trkpt lat="43.02177" lon="-0.16131">
        <ele>945</ele>
        <time>2021-08-29T07:27:46Z</time>
      </trkpt>
      <trkpt lat="43.02177" lon="-0.16133">
        <ele>945.4</ele>
        <time>2021-08-29T07:27:47Z</time>
      </trkpt>
      <trkpt lat="43.02177" lon="-0.16135">
        <ele>945.4</ele>
        <time>2021-08-29T07:27:48Z</time>
      </trkpt>
      <trkpt lat="43.02178" lon="-0.16137">
        <ele>945.8</ele>
        <time>2021-08-29T07:27:49Z</time>
      </trkpt>
      <trkpt lat="43.02178" lon="-0.16139">
        <ele>945.8</ele>
        <time>2021-08-29T07:27:50Z</time>
      </trkpt>
      <trkpt lat="43.02178" lon="-0.16142">
        <ele>946.4</ele>
        <time>2021-08-29T07:27:51Z</time>
      </trkpt>
      <trkpt lat="43.02178" lon="-0.16144">
        <ele>946.4</ele>
        <time>2021-08-29T07:27:52Z</time>
      </trkpt>
      <trkpt lat="43.02178" lon="-0.16146">
        <ele>946.8</ele>
        <time>2021-08-29T07:27:53Z</time>
      </trkpt>
      <trkpt lat="43.02178" lon="-0.16148">
        <ele>946.8</ele>
        <time>2021-08-29T07:27:54Z</time>
      </trkpt>
      <trkpt lat="43.02178" lon="-0.1615">
        <ele>947</ele>
        <time>2021-08-29T07:27:55Z</time>
      </trkpt>
      <trkpt lat="43.02179" lon="-0.16153">
        <ele>947.2</ele>
        <time>2021-08-29T07:27:56Z</time>
      </trkpt>
      <trkpt lat="43.02179" lon="-0.16155">
        <ele>947.6</ele>
        <time>2021-08-29T07:27:57Z</time>
      </trkpt>
      <trkpt lat="43.02178" lon="-0.16157">
        <ele>948</ele>
        <time>2021-08-29T07:27:58Z</time>
      </trkpt>
      <trkpt lat="43.02178" lon="-0.16159">
        <ele>948.2</ele>
        <time>2021-08-29T07:27:59Z</time>
      </trkpt>
      <trkpt lat="43.02178" lon="-0.16161">
        <ele>948.4</ele>
        <time>2021-08-29T07:28:00Z</time>
      </trkpt>
      <trkpt lat="43.02178" lon="-0.16164">
        <ele>948.6</ele>
        <time>2021-08-29T07:28:01Z</time>
      </trkpt>
      <trkpt lat="43.02178" lon="-0.16165">
        <ele>948.8</ele>
        <time>2021-08-29T07:28:02Z</time>
      </trkpt>
      <trkpt lat="43.02178" lon="-0.16168">
        <ele>949</ele>
        <time>2021-08-29T07:28:03Z</time>
      </trkpt>
      <trkpt lat="43.02177" lon="-0.1617">
        <ele>949.4</ele>
        <time>2021-08-29T07:28:04Z</time>
      </trkpt>
      <trkpt lat="43.02177" lon="-0.16173">
        <ele>949.4</ele>
        <time>2021-08-29T07:28:05Z</time>
      </trkpt>
      <trkpt lat="43.02177" lon="-0.16175">
        <ele>949.8</ele>
        <time>2021-08-29T07:28:06Z</time>
      </trkpt>
      <trkpt lat="43.02177" lon="-0.16177">
        <ele>950.2</ele>
        <time>2021-08-29T07:28:07Z</time>
      </trkpt>
      <trkpt lat="43.02177" lon="-0.16179">
        <ele>950.4</ele>
        <time>2021-08-29T07:28:08Z</time>
      </trkpt>
      <trkpt lat="43.02177" lon="-0.16181">
        <ele>950.6</ele>
        <time>2021-08-29T07:28:09Z</time>
      </trkpt>
      <trkpt lat="43.02178" lon="-0.16184">
        <ele>951</ele>
        <time>2021-08-29T07:28:10Z</time>
      </trkpt>
      <trkpt lat="43.02177" lon="-0.16186">
        <ele>951</ele>
        <time>2021-08-29T07:28:11Z</time>
      </trkpt>
      <trkpt lat="43.02177" lon="-0.16188">
        <ele>951.2</ele>
        <time>2021-08-29T07:28:12Z</time>
      </trkpt>
      <trkpt lat="43.02177" lon="-0.1619">
        <ele>951.4</ele>
        <time>2021-08-29T07:28:13Z</time>
      </trkpt>
      <trkpt lat="43.02177" lon="-0.16192">
        <ele>951.6</ele>
        <time>2021-08-29T07:28:14Z</time>
      </trkpt>
      <trkpt lat="43.02177" lon="-0.16194">
        <ele>951.8</ele>
        <time>2021-08-29T07:28:15Z</time>
      </trkpt>
      <trkpt lat="43.02177" lon="-0.16196">
        <ele>952</ele>
        <time>2021-08-29T07:28:16Z</time>
      </trkpt>
      <trkpt lat="43.02177" lon="-0.16197">
        <ele>952</ele>
        <time>2021-08-29T07:28:17Z</time>
      </trkpt>
      <trkpt lat="43.02177" lon="-0.162">
        <ele>952.2</ele>
        <time>2021-08-29T07:28:18Z</time>
      </trkpt>
      <trkpt lat="43.02177" lon="-0.16203">
        <ele>952.6</ele>
        <time>2021-08-29T07:28:19Z</time>
      </trkpt>
      <trkpt lat="43.02177" lon="-0.16205">
        <ele>952.8</ele>
        <time>2021-08-29T07:28:20Z</time>
      </trkpt>
      <trkpt lat="43.02177" lon="-0.16207">
        <ele>953</ele>
        <time>2021-08-29T07:28:21Z</time>
      </trkpt>
      <trkpt lat="43.02177" lon="-0.1621">
        <ele>953.2</ele>
        <time>2021-08-29T07:28:22Z</time>
      </trkpt>
      <trkpt lat="43.02177" lon="-0.16211">
        <ele>953.4</ele>
        <time>2021-08-29T07:28:23Z</time>
      </trkpt>
      <trkpt lat="43.02178" lon="-0.16213">
        <ele>953.6</ele>
        <time>2021-08-29T07:28:24Z</time>
      </trkpt>
      <trkpt lat="43.02178" lon="-0.16215">
        <ele>953.8</ele>
        <time>2021-08-29T07:28:25Z</time>
      </trkpt>
      <trkpt lat="43.02178" lon="-0.16217">
        <ele>954</ele>
        <time>2021-08-29T07:28:26Z</time>
      </trkpt>
      <trkpt lat="43.02179" lon="-0.16219">
        <ele>954.2</ele>
        <time>2021-08-29T07:28:27Z</time>
      </trkpt>
      <trkpt lat="43.02179" lon="-0.16221">
        <ele>954.4</ele>
        <time>2021-08-29T07:28:28Z</time>
      </trkpt>
      <trkpt lat="43.02179" lon="-0.16223">
        <ele>954.6</ele>
        <time>2021-08-29T07:28:29Z</time>
      </trkpt>
      <trkpt lat="43.02179" lon="-0.16226">
        <ele>954.8</ele>
        <time>2021-08-29T07:28:30Z</time>
      </trkpt>
      <trkpt lat="43.02179" lon="-0.16228">
        <ele>955</ele>
        <time>2021-08-29T07:28:31Z</time>
      </trkpt>
      <trkpt lat="43.02179" lon="-0.1623">
        <ele>955.2</ele>
        <time>2021-08-29T07:28:32Z</time>
      </trkpt>
      <trkpt lat="43.02179" lon="-0.16232">
        <ele>955.4</ele>
        <time>2021-08-29T07:28:33Z</time>
      </trkpt>
      <trkpt lat="43.02179" lon="-0.16235">
        <ele>955.6</ele>
        <time>2021-08-29T07:28:34Z</time>
      </trkpt>
      <trkpt lat="43.0218" lon="-0.16237">
        <ele>955.8</ele>
        <time>2021-08-29T07:28:35Z</time>
      </trkpt>
      <trkpt lat="43.0218" lon="-0.16239">
        <ele>955.8</ele>
        <time>2021-08-29T07:28:36Z</time>
      </trkpt>
      <trkpt lat="43.0218" lon="-0.16241">
        <ele>956</ele>
        <time>2021-08-29T07:28:37Z</time>
      </trkpt>
      <trkpt lat="43.0218" lon="-0.16243">
        <ele>956.2</ele>
        <time>2021-08-29T07:28:38Z</time>
      </trkpt>
      <trkpt lat="43.0218" lon="-0.16245">
        <ele>956.4</ele>
        <time>2021-08-29T07:28:39Z</time>
      </trkpt>
      <trkpt lat="43.0218" lon="-0.16246">
        <ele>956.4</ele>
        <time>2021-08-29T07:28:40Z</time>
      </trkpt>
      <trkpt lat="43.0218" lon="-0.16248">
        <ele>956.6</ele>
        <time>2021-08-29T07:28:41Z</time>
      </trkpt>
      <trkpt lat="43.02181" lon="-0.1625">
        <ele>956.6</ele>
        <time>2021-08-29T07:28:42Z</time>
      </trkpt>
      <trkpt lat="43.0218" lon="-0.16252">
        <ele>956.6</ele>
        <time>2021-08-29T07:28:43Z</time>
      </trkpt>
      <trkpt lat="43.0218" lon="-0.16254">
        <ele>956.8</ele>
        <time>2021-08-29T07:28:44Z</time>
      </trkpt>
      <trkpt lat="43.0218" lon="-0.16256">
        <ele>957</ele>
        <time>2021-08-29T07:28:45Z</time>
      </trkpt>
      <trkpt lat="43.0218" lon="-0.16258">
        <ele>957</ele>
        <time>2021-08-29T07:28:46Z</time>
      </trkpt>
      <trkpt lat="43.02181" lon="-0.1626">
        <ele>957.2</ele>
        <time>2021-08-29T07:28:47Z</time>
      </trkpt>
      <trkpt lat="43.02181" lon="-0.16261">
        <ele>957.4</ele>
        <time>2021-08-29T07:28:48Z</time>
      </trkpt>
      <trkpt lat="43.02181" lon="-0.16263">
        <ele>957.6</ele>
        <time>2021-08-29T07:28:49Z</time>
      </trkpt>
      <trkpt lat="43.02181" lon="-0.16265">
        <ele>957.8</ele>
        <time>2021-08-29T07:28:50Z</time>
      </trkpt>
      <trkpt lat="43.02181" lon="-0.16267">
        <ele>958</ele>
        <time>2021-08-29T07:28:51Z</time>
      </trkpt>
      <trkpt lat="43.02182" lon="-0.1627">
        <ele>958.2</ele>
        <time>2021-08-29T07:28:52Z</time>
      </trkpt>
      <trkpt lat="43.02182" lon="-0.16272">
        <ele>958.4</ele>
        <time>2021-08-29T07:28:53Z</time>
      </trkpt>
      <trkpt lat="43.02182" lon="-0.16275">
        <ele>958.6</ele>
        <time>2021-08-29T07:28:54Z</time>
      </trkpt>
      <trkpt lat="43.02182" lon="-0.16277">
        <ele>958.8</ele>
        <time>2021-08-29T07:28:55Z</time>
      </trkpt>
      <trkpt lat="43.02182" lon="-0.16279">
        <ele>959</ele>
        <time>2021-08-29T07:28:56Z</time>
      </trkpt>
      <trkpt lat="43.02183" lon="-0.16281">
        <ele>959.2</ele>
        <time>2021-08-29T07:28:57Z</time>
      </trkpt>
      <trkpt lat="43.02183" lon="-0.16283">
        <ele>959.4</ele>
        <time>2021-08-29T07:28:58Z</time>
      </trkpt>
      <trkpt lat="43.02183" lon="-0.16285">
        <ele>959.6</ele>
        <time>2021-08-29T07:28:59Z</time>
      </trkpt>
      <trkpt lat="43.02183" lon="-0.16287">
        <ele>959.6</ele>
        <time>2021-08-29T07:29:00Z</time>
      </trkpt>
      <trkpt lat="43.02183" lon="-0.16289">
        <ele>959.8</ele>
        <time>2021-08-29T07:29:01Z</time>
      </trkpt>
      <trkpt lat="43.02184" lon="-0.16291">
        <ele>960</ele>
        <time>2021-08-29T07:29:02Z</time>
      </trkpt>
      <trkpt lat="43.02184" lon="-0.16293">
        <ele>960.2</ele>
        <time>2021-08-29T07:29:03Z</time>
      </trkpt>
      <trkpt lat="43.02184" lon="-0.16295">
        <ele>960.2</ele>
        <time>2021-08-29T07:29:04Z</time>
      </trkpt>
      <trkpt lat="43.02184" lon="-0.16297">
        <ele>960.4</ele>
        <time>2021-08-29T07:29:05Z</time>
      </trkpt>
      <trkpt lat="43.02185" lon="-0.16299">
        <ele>960.4</ele>
        <time>2021-08-29T07:29:06Z</time>
      </trkpt>
      <trkpt lat="43.02185" lon="-0.16302">
        <ele>960.6</ele>
        <time>2021-08-29T07:29:07Z</time>
      </trkpt>
      <trkpt lat="43.02185" lon="-0.16304">
        <ele>960.6</ele>
        <time>2021-08-29T07:29:08Z</time>
      </trkpt>
      <trkpt lat="43.02186" lon="-0.16307">
        <ele>960.8</ele>
        <time>2021-08-29T07:29:09Z</time>
      </trkpt>
      <trkpt lat="43.02187" lon="-0.16309">
        <ele>960.8</ele>
        <time>2021-08-29T07:29:10Z</time>
      </trkpt>
      <trkpt lat="43.02188" lon="-0.16311">
        <ele>961</ele>
        <time>2021-08-29T07:29:11Z</time>
      </trkpt>
      <trkpt lat="43.02189" lon="-0.16313">
        <ele>961.2</ele>
        <time>2021-08-29T07:29:12Z</time>
      </trkpt>
      <trkpt lat="43.02189" lon="-0.16315">
        <ele>961.4</ele>
        <time>2021-08-29T07:29:13Z</time>
      </trkpt>
      <trkpt lat="43.0219" lon="-0.16317">
        <ele>961.6</ele>
        <time>2021-08-29T07:29:14Z</time>
      </trkpt>
      <trkpt lat="43.02191" lon="-0.16319">
        <ele>961.6</ele>
        <time>2021-08-29T07:29:15Z</time>
      </trkpt>
      <trkpt lat="43.02191" lon="-0.16321">
        <ele>961.8</ele>
        <time>2021-08-29T07:29:16Z</time>
      </trkpt>
      <trkpt lat="43.02192" lon="-0.16323">
        <ele>961.8</ele>
        <time>2021-08-29T07:29:17Z</time>
      </trkpt>
      <trkpt lat="43.02192" lon="-0.16325">
        <ele>962</ele>
        <time>2021-08-29T07:29:18Z</time>
      </trkpt>
      <trkpt lat="43.02193" lon="-0.16328">
        <ele>962.2</ele>
        <time>2021-08-29T07:29:19Z</time>
      </trkpt>
      <trkpt lat="43.02194" lon="-0.1633">
        <ele>962.2</ele>
        <time>2021-08-29T07:29:20Z</time>
      </trkpt>
      <trkpt lat="43.02195" lon="-0.16331">
        <ele>962.2</ele>
        <time>2021-08-29T07:29:21Z</time>
      </trkpt>
      <trkpt lat="43.02196" lon="-0.16333">
        <ele>962.4</ele>
        <time>2021-08-29T07:29:22Z</time>
      </trkpt>
      <trkpt lat="43.02196" lon="-0.16336">
        <ele>962.4</ele>
        <time>2021-08-29T07:29:23Z</time>
      </trkpt>
      <trkpt lat="43.02197" lon="-0.16338">
        <ele>962.4</ele>
        <time>2021-08-29T07:29:24Z</time>
      </trkpt>
      <trkpt lat="43.02197" lon="-0.1634">
        <ele>962.6</ele>
        <time>2021-08-29T07:29:25Z</time>
      </trkpt>
      <trkpt lat="43.02198" lon="-0.16342">
        <ele>962.8</ele>
        <time>2021-08-29T07:29:26Z</time>
      </trkpt>
      <trkpt lat="43.02199" lon="-0.16345">
        <ele>963</ele>
        <time>2021-08-29T07:29:27Z</time>
      </trkpt>
      <trkpt lat="43.02199" lon="-0.16347">
        <ele>963.2</ele>
        <time>2021-08-29T07:29:28Z</time>
      </trkpt>
      <trkpt lat="43.022" lon="-0.16349">
        <ele>963.2</ele>
        <time>2021-08-29T07:29:29Z</time>
      </trkpt>
      <trkpt lat="43.02201" lon="-0.16351">
        <ele>963.4</ele>
        <time>2021-08-29T07:29:30Z</time>
      </trkpt>
      <trkpt lat="43.02201" lon="-0.16353">
        <ele>963.6</ele>
        <time>2021-08-29T07:29:31Z</time>
      </trkpt>
      <trkpt lat="43.02202" lon="-0.16355">
        <ele>963.8</ele>
        <time>2021-08-29T07:29:32Z</time>
      </trkpt>
      <trkpt lat="43.02202" lon="-0.16357">
        <ele>964</ele>
        <time>2021-08-29T07:29:33Z</time>
      </trkpt>
      <trkpt lat="43.02203" lon="-0.16359">
        <ele>964.4</ele>
        <time>2021-08-29T07:29:34Z</time>
      </trkpt>
      <trkpt lat="43.02204" lon="-0.16362">
        <ele>964.8</ele>
        <time>2021-08-29T07:29:35Z</time>
      </trkpt>
      <trkpt lat="43.02205" lon="-0.16364">
        <ele>965</ele>
        <time>2021-08-29T07:29:36Z</time>
      </trkpt>
      <trkpt lat="43.02205" lon="-0.16366">
        <ele>965</ele>
        <time>2021-08-29T07:29:37Z</time>
      </trkpt>
      <trkpt lat="43.02206" lon="-0.16369">
        <ele>965</ele>
        <time>2021-08-29T07:29:38Z</time>
      </trkpt>
      <trkpt lat="43.02207" lon="-0.16371">
        <ele>965.2</ele>
        <time>2021-08-29T07:29:39Z</time>
      </trkpt>
      <trkpt lat="43.02207" lon="-0.16373">
        <ele>965.2</ele>
        <time>2021-08-29T07:29:40Z</time>
      </trkpt>
      <trkpt lat="43.02208" lon="-0.16376">
        <ele>965.2</ele>
        <time>2021-08-29T07:29:41Z</time>
      </trkpt>
      <trkpt lat="43.02208" lon="-0.16378">
        <ele>965.4</ele>
        <time>2021-08-29T07:29:42Z</time>
      </trkpt>
      <trkpt lat="43.02209" lon="-0.1638">
        <ele>965.6</ele>
        <time>2021-08-29T07:29:43Z</time>
      </trkpt>
      <trkpt lat="43.02209" lon="-0.16383">
        <ele>965.8</ele>
        <time>2021-08-29T07:29:44Z</time>
      </trkpt>
      <trkpt lat="43.0221" lon="-0.16385">
        <ele>966.2</ele>
        <time>2021-08-29T07:29:45Z</time>
      </trkpt>
      <trkpt lat="43.0221" lon="-0.16387">
        <ele>966.4</ele>
        <time>2021-08-29T07:29:46Z</time>
      </trkpt>
      <trkpt lat="43.02211" lon="-0.1639">
        <ele>966.8</ele>
        <time>2021-08-29T07:29:47Z</time>
      </trkpt>
      <trkpt lat="43.02211" lon="-0.16392">
        <ele>966.8</ele>
        <time>2021-08-29T07:29:48Z</time>
      </trkpt>
      <trkpt lat="43.02212" lon="-0.16395">
        <ele>967</ele>
        <time>2021-08-29T07:29:49Z</time>
      </trkpt>
      <trkpt lat="43.02213" lon="-0.16396">
        <ele>967.2</ele>
        <time>2021-08-29T07:29:50Z</time>
      </trkpt>
      <trkpt lat="43.02214" lon="-0.16398">
        <ele>967.2</ele>
        <time>2021-08-29T07:29:51Z</time>
      </trkpt>
      <trkpt lat="43.02215" lon="-0.16401">
        <ele>967.4</ele>
        <time>2021-08-29T07:29:52Z</time>
      </trkpt>
      <trkpt lat="43.02216" lon="-0.16402">
        <ele>967.4</ele>
        <time>2021-08-29T07:29:53Z</time>
      </trkpt>
      <trkpt lat="43.02216" lon="-0.16405">
        <ele>967.4</ele>
        <time>2021-08-29T07:29:54Z</time>
      </trkpt>
      <trkpt lat="43.02217" lon="-0.16407">
        <ele>967.6</ele>
        <time>2021-08-29T07:29:55Z</time>
      </trkpt>
      <trkpt lat="43.02218" lon="-0.16409">
        <ele>967.8</ele>
        <time>2021-08-29T07:29:56Z</time>
      </trkpt>
      <trkpt lat="43.02218" lon="-0.16411">
        <ele>968</ele>
        <time>2021-08-29T07:29:57Z</time>
      </trkpt>
      <trkpt lat="43.02219" lon="-0.16414">
        <ele>968.6</ele>
        <time>2021-08-29T07:29:58Z</time>
      </trkpt>
      <trkpt lat="43.0222" lon="-0.16416">
        <ele>968.6</ele>
        <time>2021-08-29T07:29:59Z</time>
      </trkpt>
      <trkpt lat="43.0222" lon="-0.16418">
        <ele>968.8</ele>
        <time>2021-08-29T07:30:00Z</time>
      </trkpt>
      <trkpt lat="43.02221" lon="-0.1642">
        <ele>968.8</ele>
        <time>2021-08-29T07:30:01Z</time>
      </trkpt>
      <trkpt lat="43.02221" lon="-0.16423">
        <ele>969</ele>
        <time>2021-08-29T07:30:02Z</time>
      </trkpt>
      <trkpt lat="43.02222" lon="-0.16425">
        <ele>969.2</ele>
        <time>2021-08-29T07:30:03Z</time>
      </trkpt>
      <trkpt lat="43.02222" lon="-0.16426">
        <ele>969.4</ele>
        <time>2021-08-29T07:30:04Z</time>
      </trkpt>
      <trkpt lat="43.02223" lon="-0.16429">
        <ele>969.4</ele>
        <time>2021-08-29T07:30:05Z</time>
      </trkpt>
      <trkpt lat="43.02224" lon="-0.16431">
        <ele>969.6</ele>
        <time>2021-08-29T07:30:06Z</time>
      </trkpt>
      <trkpt lat="43.02225" lon="-0.16434">
        <ele>969.6</ele>
        <time>2021-08-29T07:30:07Z</time>
      </trkpt>
      <trkpt lat="43.02226" lon="-0.16436">
        <ele>970</ele>
        <time>2021-08-29T07:30:08Z</time>
      </trkpt>
      <trkpt lat="43.02227" lon="-0.16438">
        <ele>970</ele>
        <time>2021-08-29T07:30:09Z</time>
      </trkpt>
      <trkpt lat="43.02228" lon="-0.1644">
        <ele>970.2</ele>
        <time>2021-08-29T07:30:10Z</time>
      </trkpt>
      <trkpt lat="43.02229" lon="-0.16442">
        <ele>970.2</ele>
        <time>2021-08-29T07:30:11Z</time>
      </trkpt>
      <trkpt lat="43.02229" lon="-0.16444">
        <ele>970.6</ele>
        <time>2021-08-29T07:30:12Z</time>
      </trkpt>
      <trkpt lat="43.0223" lon="-0.16446">
        <ele>970.6</ele>
        <time>2021-08-29T07:30:13Z</time>
      </trkpt>
      <trkpt lat="43.0223" lon="-0.16448">
        <ele>970.8</ele>
        <time>2021-08-29T07:30:14Z</time>
      </trkpt>
      <trkpt lat="43.0223" lon="-0.16451">
        <ele>971</ele>
        <time>2021-08-29T07:30:15Z</time>
      </trkpt>
      <trkpt lat="43.02231" lon="-0.16453">
        <ele>971</ele>
        <time>2021-08-29T07:30:16Z</time>
      </trkpt>
      <trkpt lat="43.02232" lon="-0.16455">
        <ele>971.2</ele>
        <time>2021-08-29T07:30:17Z</time>
      </trkpt>
      <trkpt lat="43.02233" lon="-0.16457">
        <ele>971.2</ele>
        <time>2021-08-29T07:30:18Z</time>
      </trkpt>
      <trkpt lat="43.02234" lon="-0.16459">
        <ele>971.6</ele>
        <time>2021-08-29T07:30:19Z</time>
      </trkpt>
      <trkpt lat="43.02235" lon="-0.1646">
        <ele>971.6</ele>
        <time>2021-08-29T07:30:20Z</time>
      </trkpt>
      <trkpt lat="43.02236" lon="-0.16462">
        <ele>971.8</ele>
        <time>2021-08-29T07:30:21Z</time>
      </trkpt>
      <trkpt lat="43.02236" lon="-0.16465">
        <ele>971.8</ele>
        <time>2021-08-29T07:30:22Z</time>
      </trkpt>
      <trkpt lat="43.02237" lon="-0.16466">
        <ele>972</ele>
        <time>2021-08-29T07:30:23Z</time>
      </trkpt>
      <trkpt lat="43.02237" lon="-0.16468">
        <ele>972</ele>
        <time>2021-08-29T07:30:24Z</time>
      </trkpt>
      <trkpt lat="43.02238" lon="-0.1647">
        <ele>972.2</ele>
        <time>2021-08-29T07:30:25Z</time>
      </trkpt>
      <trkpt lat="43.02239" lon="-0.16472">
        <ele>972.4</ele>
        <time>2021-08-29T07:30:26Z</time>
      </trkpt>
      <trkpt lat="43.0224" lon="-0.16474">
        <ele>972.4</ele>
        <time>2021-08-29T07:30:27Z</time>
      </trkpt>
      <trkpt lat="43.02241" lon="-0.16476">
        <ele>972.6</ele>
        <time>2021-08-29T07:30:28Z</time>
      </trkpt>
      <trkpt lat="43.02241" lon="-0.16478">
        <ele>972.6</ele>
        <time>2021-08-29T07:30:29Z</time>
      </trkpt>
      <trkpt lat="43.02242" lon="-0.16479">
        <ele>972.8</ele>
        <time>2021-08-29T07:30:30Z</time>
      </trkpt>
      <trkpt lat="43.02243" lon="-0.16481">
        <ele>972.8</ele>
        <time>2021-08-29T07:30:31Z</time>
      </trkpt>
      <trkpt lat="43.02243" lon="-0.16482">
        <ele>972.8</ele>
        <time>2021-08-29T07:30:32Z</time>
      </trkpt>
      <trkpt lat="43.02243" lon="-0.16485">
        <ele>973</ele>
        <time>2021-08-29T07:30:33Z</time>
      </trkpt>
      <trkpt lat="43.02244" lon="-0.16487">
        <ele>973.2</ele>
        <time>2021-08-29T07:30:34Z</time>
      </trkpt>
      <trkpt lat="43.02244" lon="-0.16489">
        <ele>973.4</ele>
        <time>2021-08-29T07:30:35Z</time>
      </trkpt>
      <trkpt lat="43.02245" lon="-0.16491">
        <ele>973.4</ele>
        <time>2021-08-29T07:30:36Z</time>
      </trkpt>
      <trkpt lat="43.02245" lon="-0.16493">
        <ele>973.6</ele>
        <time>2021-08-29T07:30:37Z</time>
      </trkpt>
      <trkpt lat="43.02246" lon="-0.16494">
        <ele>973.6</ele>
        <time>2021-08-29T07:30:38Z</time>
      </trkpt>
      <trkpt lat="43.02246" lon="-0.16496">
        <ele>973.8</ele>
        <time>2021-08-29T07:30:39Z</time>
      </trkpt>
      <trkpt lat="43.02247" lon="-0.16498">
        <ele>973.8</ele>
        <time>2021-08-29T07:30:40Z</time>
      </trkpt>
      <trkpt lat="43.02247" lon="-0.165">
        <ele>974</ele>
        <time>2021-08-29T07:30:41Z</time>
      </trkpt>
      <trkpt lat="43.02247" lon="-0.16502">
        <ele>974.4</ele>
        <time>2021-08-29T07:30:42Z</time>
      </trkpt>
      <trkpt lat="43.02248" lon="-0.16503">
        <ele>974.6</ele>
        <time>2021-08-29T07:30:43Z</time>
      </trkpt>
      <trkpt lat="43.02249" lon="-0.16505">
        <ele>974.8</ele>
        <time>2021-08-29T07:30:44Z</time>
      </trkpt>
      <trkpt lat="43.0225" lon="-0.16507">
        <ele>974.8</ele>
        <time>2021-08-29T07:30:45Z</time>
      </trkpt>
      <trkpt lat="43.02251" lon="-0.1651">
        <ele>975.2</ele>
        <time>2021-08-29T07:30:46Z</time>
      </trkpt>
      <trkpt lat="43.02252" lon="-0.16511">
        <ele>975.2</ele>
        <time>2021-08-29T07:30:47Z</time>
      </trkpt>
      <trkpt lat="43.02253" lon="-0.16513">
        <ele>975.4</ele>
        <time>2021-08-29T07:30:48Z</time>
      </trkpt>
      <trkpt lat="43.02254" lon="-0.16515">
        <ele>975.4</ele>
        <time>2021-08-29T07:30:49Z</time>
      </trkpt>
      <trkpt lat="43.02255" lon="-0.16517">
        <ele>975.6</ele>
        <time>2021-08-29T07:30:50Z</time>
      </trkpt>
      <trkpt lat="43.02255" lon="-0.16518">
        <ele>975.6</ele>
        <time>2021-08-29T07:30:51Z</time>
      </trkpt>
      <trkpt lat="43.02256" lon="-0.16519">
        <ele>975.8</ele>
        <time>2021-08-29T07:30:52Z</time>
      </trkpt>
      <trkpt lat="43.02258" lon="-0.1652">
        <ele>976.2</ele>
        <time>2021-08-29T07:30:53Z</time>
      </trkpt>
      <trkpt lat="43.02258" lon="-0.16522">
        <ele>976.2</ele>
        <time>2021-08-29T07:30:54Z</time>
      </trkpt>
      <trkpt lat="43.02259" lon="-0.16523">
        <ele>976.4</ele>
        <time>2021-08-29T07:30:55Z</time>
      </trkpt>
      <trkpt lat="43.0226" lon="-0.16526">
        <ele>976.4</ele>
        <time>2021-08-29T07:30:56Z</time>
      </trkpt>
      <trkpt lat="43.0226" lon="-0.16528">
        <ele>976.6</ele>
        <time>2021-08-29T07:30:57Z</time>
      </trkpt>
      <trkpt lat="43.02261" lon="-0.16529">
        <ele>976.8</ele>
        <time>2021-08-29T07:30:58Z</time>
      </trkpt>
      <trkpt lat="43.02262" lon="-0.16531">
        <ele>976.8</ele>
        <time>2021-08-29T07:30:59Z</time>
      </trkpt>
      <trkpt lat="43.02263" lon="-0.16533">
        <ele>976.8</ele>
        <time>2021-08-29T07:31:00Z</time>
      </trkpt>
      <trkpt lat="43.02264" lon="-0.16535">
        <ele>977</ele>
        <time>2021-08-29T07:31:01Z</time>
      </trkpt>
      <trkpt lat="43.02265" lon="-0.16537">
        <ele>977</ele>
        <time>2021-08-29T07:31:02Z</time>
      </trkpt>
      <trkpt lat="43.02266" lon="-0.16539">
        <ele>977.4</ele>
        <time>2021-08-29T07:31:03Z</time>
      </trkpt>
      <trkpt lat="43.02267" lon="-0.16541">
        <ele>977.4</ele>
        <time>2021-08-29T07:31:04Z</time>
      </trkpt>
      <trkpt lat="43.02267" lon="-0.16543">
        <ele>977.4</ele>
        <time>2021-08-29T07:31:05Z</time>
      </trkpt>
      <trkpt lat="43.02268" lon="-0.16545">
        <ele>977.6</ele>
        <time>2021-08-29T07:31:06Z</time>
      </trkpt>
      <trkpt lat="43.0227" lon="-0.16547">
        <ele>977.8</ele>
        <time>2021-08-29T07:31:07Z</time>
      </trkpt>
      <trkpt lat="43.0227" lon="-0.16549">
        <ele>978</ele>
        <time>2021-08-29T07:31:08Z</time>
      </trkpt>
      <trkpt lat="43.02271" lon="-0.16551">
        <ele>978.2</ele>
        <time>2021-08-29T07:31:09Z</time>
      </trkpt>
      <trkpt lat="43.02272" lon="-0.16553">
        <ele>978.2</ele>
        <time>2021-08-29T07:31:10Z</time>
      </trkpt>
      <trkpt lat="43.02272" lon="-0.16555">
        <ele>978.4</ele>
        <time>2021-08-29T07:31:11Z</time>
      </trkpt>
      <trkpt lat="43.02273" lon="-0.16558">
        <ele>978.6</ele>
        <time>2021-08-29T07:31:12Z</time>
      </trkpt>
      <trkpt lat="43.02274" lon="-0.1656">
        <ele>978.6</ele>
        <time>2021-08-29T07:31:13Z</time>
      </trkpt>
      <trkpt lat="43.02275" lon="-0.16562">
        <ele>979</ele>
        <time>2021-08-29T07:31:14Z</time>
      </trkpt>
      <trkpt lat="43.02275" lon="-0.16564">
        <ele>979</ele>
        <time>2021-08-29T07:31:15Z</time>
      </trkpt>
      <trkpt lat="43.02276" lon="-0.16566">
        <ele>979.4</ele>
        <time>2021-08-29T07:31:16Z</time>
      </trkpt>
      <trkpt lat="43.02277" lon="-0.16568">
        <ele>979.4</ele>
        <time>2021-08-29T07:31:17Z</time>
      </trkpt>
      <trkpt lat="43.02277" lon="-0.16569">
        <ele>979.8</ele>
        <time>2021-08-29T07:31:18Z</time>
      </trkpt>
      <trkpt lat="43.02278" lon="-0.16571">
        <ele>980</ele>
        <time>2021-08-29T07:31:19Z</time>
      </trkpt>
      <trkpt lat="43.02278" lon="-0.16574">
        <ele>980.2</ele>
        <time>2021-08-29T07:31:20Z</time>
      </trkpt>
      <trkpt lat="43.02279" lon="-0.16575">
        <ele>980.2</ele>
        <time>2021-08-29T07:31:21Z</time>
      </trkpt>
      <trkpt lat="43.02279" lon="-0.16577">
        <ele>980.4</ele>
        <time>2021-08-29T07:31:22Z</time>
      </trkpt>
      <trkpt lat="43.0228" lon="-0.16579">
        <ele>980.6</ele>
        <time>2021-08-29T07:31:23Z</time>
      </trkpt>
      <trkpt lat="43.0228" lon="-0.16581">
        <ele>980.8</ele>
        <time>2021-08-29T07:31:24Z</time>
      </trkpt>
      <trkpt lat="43.0228" lon="-0.16583">
        <ele>980.8</ele>
        <time>2021-08-29T07:31:25Z</time>
      </trkpt>
      <trkpt lat="43.0228" lon="-0.16585">
        <ele>981.2</ele>
        <time>2021-08-29T07:31:26Z</time>
      </trkpt>
      <trkpt lat="43.0228" lon="-0.16587">
        <ele>981.2</ele>
        <time>2021-08-29T07:31:27Z</time>
      </trkpt>
      <trkpt lat="43.0228" lon="-0.16589">
        <ele>981.2</ele>
        <time>2021-08-29T07:31:28Z</time>
      </trkpt>
      <trkpt lat="43.02281" lon="-0.16591">
        <ele>981.4</ele>
        <time>2021-08-29T07:31:29Z</time>
      </trkpt>
      <trkpt lat="43.02281" lon="-0.16593">
        <ele>981.6</ele>
        <time>2021-08-29T07:31:30Z</time>
      </trkpt>
      <trkpt lat="43.02282" lon="-0.16595">
        <ele>981.6</ele>
        <time>2021-08-29T07:31:31Z</time>
      </trkpt>
      <trkpt lat="43.02283" lon="-0.16597">
        <ele>981.8</ele>
        <time>2021-08-29T07:31:32Z</time>
      </trkpt>
      <trkpt lat="43.02283" lon="-0.16599">
        <ele>982.2</ele>
        <time>2021-08-29T07:31:33Z</time>
      </trkpt>
      <trkpt lat="43.02284" lon="-0.166">
        <ele>982.4</ele>
        <time>2021-08-29T07:31:34Z</time>
      </trkpt>
      <trkpt lat="43.02284" lon="-0.16602">
        <ele>982.6</ele>
        <time>2021-08-29T07:31:35Z</time>
      </trkpt>
      <trkpt lat="43.02285" lon="-0.16604">
        <ele>982.6</ele>
        <time>2021-08-29T07:31:36Z</time>
      </trkpt>
      <trkpt lat="43.02285" lon="-0.16607">
        <ele>982.8</ele>
        <time>2021-08-29T07:31:37Z</time>
      </trkpt>
      <trkpt lat="43.02285" lon="-0.16609">
        <ele>983</ele>
        <time>2021-08-29T07:31:38Z</time>
      </trkpt>
      <trkpt lat="43.02285" lon="-0.16611">
        <ele>983</ele>
        <time>2021-08-29T07:31:39Z</time>
      </trkpt>
      <trkpt lat="43.02286" lon="-0.16614">
        <ele>983</ele>
        <time>2021-08-29T07:31:40Z</time>
      </trkpt>
      <trkpt lat="43.02286" lon="-0.16617">
        <ele>983.2</ele>
        <time>2021-08-29T07:31:41Z</time>
      </trkpt>
      <trkpt lat="43.02286" lon="-0.16619">
        <ele>983.2</ele>
        <time>2021-08-29T07:31:42Z</time>
      </trkpt>
      <trkpt lat="43.02287" lon="-0.16621">
        <ele>983.4</ele>
        <time>2021-08-29T07:31:43Z</time>
      </trkpt>
      <trkpt lat="43.02288" lon="-0.16624">
        <ele>983.4</ele>
        <time>2021-08-29T07:31:44Z</time>
      </trkpt>
      <trkpt lat="43.02289" lon="-0.16626">
        <ele>983.6</ele>
        <time>2021-08-29T07:31:45Z</time>
      </trkpt>
      <trkpt lat="43.02289" lon="-0.16629">
        <ele>983.6</ele>
        <time>2021-08-29T07:31:46Z</time>
      </trkpt>
      <trkpt lat="43.0229" lon="-0.16631">
        <ele>983.8</ele>
        <time>2021-08-29T07:31:47Z</time>
      </trkpt>
      <trkpt lat="43.02291" lon="-0.16634">
        <ele>984</ele>
        <time>2021-08-29T07:31:48Z</time>
      </trkpt>
      <trkpt lat="43.02292" lon="-0.16636">
        <ele>984</ele>
        <time>2021-08-29T07:31:49Z</time>
      </trkpt>
      <trkpt lat="43.02293" lon="-0.16639">
        <ele>984.2</ele>
        <time>2021-08-29T07:31:50Z</time>
      </trkpt>
      <trkpt lat="43.02294" lon="-0.16642">
        <ele>984.2</ele>
        <time>2021-08-29T07:31:51Z</time>
      </trkpt>
      <trkpt lat="43.02295" lon="-0.16644">
        <ele>984.4</ele>
        <time>2021-08-29T07:31:52Z</time>
      </trkpt>
      <trkpt lat="43.02296" lon="-0.16647">
        <ele>984.6</ele>
        <time>2021-08-29T07:31:53Z</time>
      </trkpt>
      <trkpt lat="43.02297" lon="-0.16649">
        <ele>984.8</ele>
        <time>2021-08-29T07:31:54Z</time>
      </trkpt>
      <trkpt lat="43.02298" lon="-0.16652">
        <ele>985</ele>
        <time>2021-08-29T07:31:55Z</time>
      </trkpt>
      <trkpt lat="43.02299" lon="-0.16654">
        <ele>985.2</ele>
        <time>2021-08-29T07:31:56Z</time>
      </trkpt>
      <trkpt lat="43.023" lon="-0.16656">
        <ele>985.4</ele>
        <time>2021-08-29T07:31:57Z</time>
      </trkpt>
      <trkpt lat="43.02301" lon="-0.16658">
        <ele>985.4</ele>
        <time>2021-08-29T07:31:58Z</time>
      </trkpt>
      <trkpt lat="43.02302" lon="-0.1666">
        <ele>985.4</ele>
        <time>2021-08-29T07:31:59Z</time>
      </trkpt>
      <trkpt lat="43.02303" lon="-0.16662">
        <ele>985.6</ele>
        <time>2021-08-29T07:32:00Z</time>
      </trkpt>
      <trkpt lat="43.02303" lon="-0.16664">
        <ele>985.8</ele>
        <time>2021-08-29T07:32:01Z</time>
      </trkpt>
      <trkpt lat="43.02304" lon="-0.16666">
        <ele>986</ele>
        <time>2021-08-29T07:32:02Z</time>
      </trkpt>
      <trkpt lat="43.02306" lon="-0.16669">
        <ele>986.2</ele>
        <time>2021-08-29T07:32:03Z</time>
      </trkpt>
      <trkpt lat="43.02306" lon="-0.16671">
        <ele>986.4</ele>
        <time>2021-08-29T07:32:04Z</time>
      </trkpt>
      <trkpt lat="43.02307" lon="-0.16673">
        <ele>986.4</ele>
        <time>2021-08-29T07:32:05Z</time>
      </trkpt>
      <trkpt lat="43.02308" lon="-0.16676">
        <ele>986.6</ele>
        <time>2021-08-29T07:32:06Z</time>
      </trkpt>
      <trkpt lat="43.02309" lon="-0.16678">
        <ele>986.6</ele>
        <time>2021-08-29T07:32:07Z</time>
      </trkpt>
      <trkpt lat="43.02309" lon="-0.1668">
        <ele>986.6</ele>
        <time>2021-08-29T07:32:08Z</time>
      </trkpt>
      <trkpt lat="43.0231" lon="-0.16682">
        <ele>986.8</ele>
        <time>2021-08-29T07:32:09Z</time>
      </trkpt>
      <trkpt lat="43.02311" lon="-0.16684">
        <ele>986.8</ele>
        <time>2021-08-29T07:32:10Z</time>
      </trkpt>
      <trkpt lat="43.02311" lon="-0.16685">
        <ele>987</ele>
        <time>2021-08-29T07:32:11Z</time>
      </trkpt>
      <trkpt lat="43.02312" lon="-0.16687">
        <ele>987.2</ele>
        <time>2021-08-29T07:32:12Z</time>
      </trkpt>
      <trkpt lat="43.02313" lon="-0.1669">
        <ele>987.6</ele>
        <time>2021-08-29T07:32:13Z</time>
      </trkpt>
      <trkpt lat="43.02313" lon="-0.16691">
        <ele>987.6</ele>
        <time>2021-08-29T07:32:14Z</time>
      </trkpt>
      <trkpt lat="43.02314" lon="-0.16694">
        <ele>988</ele>
        <time>2021-08-29T07:32:15Z</time>
      </trkpt>
      <trkpt lat="43.02314" lon="-0.16696">
        <ele>988.2</ele>
        <time>2021-08-29T07:32:16Z</time>
      </trkpt>
      <trkpt lat="43.02315" lon="-0.16698">
        <ele>988.4</ele>
        <time>2021-08-29T07:32:17Z</time>
      </trkpt>
      <trkpt lat="43.02316" lon="-0.167">
        <ele>988.4</ele>
        <time>2021-08-29T07:32:18Z</time>
      </trkpt>
      <trkpt lat="43.02316" lon="-0.16703">
        <ele>988.6</ele>
        <time>2021-08-29T07:32:19Z</time>
      </trkpt>
      <trkpt lat="43.02317" lon="-0.16705">
        <ele>988.8</ele>
        <time>2021-08-29T07:32:20Z</time>
      </trkpt>
      <trkpt lat="43.02317" lon="-0.16707">
        <ele>989</ele>
        <time>2021-08-29T07:32:21Z</time>
      </trkpt>
      <trkpt lat="43.02317" lon="-0.1671">
        <ele>989</ele>
        <time>2021-08-29T07:32:22Z</time>
      </trkpt>
      <trkpt lat="43.02317" lon="-0.16712">
        <ele>989.4</ele>
        <time>2021-08-29T07:32:23Z</time>
      </trkpt>
      <trkpt lat="43.02317" lon="-0.16713">
        <ele>989.6</ele>
        <time>2021-08-29T07:32:24Z</time>
      </trkpt>
      <trkpt lat="43.02318" lon="-0.16716">
        <ele>989.8</ele>
        <time>2021-08-29T07:32:25Z</time>
      </trkpt>
      <trkpt lat="43.02318" lon="-0.16719">
        <ele>989.8</ele>
        <time>2021-08-29T07:32:26Z</time>
      </trkpt>
      <trkpt lat="43.02318" lon="-0.16721">
        <ele>990</ele>
        <time>2021-08-29T07:32:27Z</time>
      </trkpt>
      <trkpt lat="43.02318" lon="-0.16724">
        <ele>990</ele>
        <time>2021-08-29T07:32:28Z</time>
      </trkpt>
      <trkpt lat="43.02318" lon="-0.16727">
        <ele>990.2</ele>
        <time>2021-08-29T07:32:29Z</time>
      </trkpt>
      <trkpt lat="43.02318" lon="-0.16729">
        <ele>990.4</ele>
        <time>2021-08-29T07:32:30Z</time>
      </trkpt>
      <trkpt lat="43.02318" lon="-0.16731">
        <ele>990.4</ele>
        <time>2021-08-29T07:32:31Z</time>
      </trkpt>
      <trkpt lat="43.02317" lon="-0.16733">
        <ele>990.8</ele>
        <time>2021-08-29T07:32:32Z</time>
      </trkpt>
      <trkpt lat="43.02317" lon="-0.16736">
        <ele>990.8</ele>
        <time>2021-08-29T07:32:33Z</time>
      </trkpt>
      <trkpt lat="43.02317" lon="-0.16738">
        <ele>991</ele>
        <time>2021-08-29T07:32:34Z</time>
      </trkpt>
      <trkpt lat="43.02317" lon="-0.16741">
        <ele>991.2</ele>
        <time>2021-08-29T07:32:35Z</time>
      </trkpt>
      <trkpt lat="43.02317" lon="-0.16743">
        <ele>991.4</ele>
        <time>2021-08-29T07:32:36Z</time>
      </trkpt>
      <trkpt lat="43.02317" lon="-0.16745">
        <ele>991.4</ele>
        <time>2021-08-29T07:32:37Z</time>
      </trkpt>
      <trkpt lat="43.02317" lon="-0.16747">
        <ele>991.6</ele>
        <time>2021-08-29T07:32:38Z</time>
      </trkpt>
      <trkpt lat="43.02317" lon="-0.1675">
        <ele>991.6</ele>
        <time>2021-08-29T07:32:39Z</time>
      </trkpt>
      <trkpt lat="43.02317" lon="-0.16752">
        <ele>992</ele>
        <time>2021-08-29T07:32:40Z</time>
      </trkpt>
      <trkpt lat="43.02317" lon="-0.16754">
        <ele>992</ele>
        <time>2021-08-29T07:32:41Z</time>
      </trkpt>
      <trkpt lat="43.02316" lon="-0.16757">
        <ele>992.2</ele>
        <time>2021-08-29T07:32:42Z</time>
      </trkpt>
      <trkpt lat="43.02316" lon="-0.1676">
        <ele>992.2</ele>
        <time>2021-08-29T07:32:43Z</time>
      </trkpt>
      <trkpt lat="43.02316" lon="-0.16762">
        <ele>992.4</ele>
        <time>2021-08-29T07:32:44Z</time>
      </trkpt>
      <trkpt lat="43.02316" lon="-0.16764">
        <ele>992.6</ele>
        <time>2021-08-29T07:32:45Z</time>
      </trkpt>
      <trkpt lat="43.02316" lon="-0.16766">
        <ele>992.6</ele>
        <time>2021-08-29T07:32:46Z</time>
      </trkpt>
      <trkpt lat="43.02316" lon="-0.16768">
        <ele>992.6</ele>
        <time>2021-08-29T07:32:47Z</time>
      </trkpt>
      <trkpt lat="43.02316" lon="-0.1677">
        <ele>992.8</ele>
        <time>2021-08-29T07:32:48Z</time>
      </trkpt>
      <trkpt lat="43.02316" lon="-0.16773">
        <ele>993</ele>
        <time>2021-08-29T07:32:49Z</time>
      </trkpt>
      <trkpt lat="43.02315" lon="-0.16775">
        <ele>993.2</ele>
        <time>2021-08-29T07:32:50Z</time>
      </trkpt>
      <trkpt lat="43.02315" lon="-0.16777">
        <ele>993.4</ele>
        <time>2021-08-29T07:32:51Z</time>
      </trkpt>
      <trkpt lat="43.02315" lon="-0.16779">
        <ele>993.6</ele>
        <time>2021-08-29T07:32:52Z</time>
      </trkpt>
      <trkpt lat="43.02315" lon="-0.1678">
        <ele>993.8</ele>
        <time>2021-08-29T07:32:53Z</time>
      </trkpt>
      <trkpt lat="43.02315" lon="-0.16781">
        <ele>994</ele>
        <time>2021-08-29T07:32:54Z</time>
      </trkpt>
      <trkpt lat="43.02315" lon="-0.16784">
        <ele>994.2</ele>
        <time>2021-08-29T07:32:55Z</time>
      </trkpt>
      <trkpt lat="43.02315" lon="-0.16787">
        <ele>994.2</ele>
        <time>2021-08-29T07:32:56Z</time>
      </trkpt>
      <trkpt lat="43.02316" lon="-0.16789">
        <ele>994.4</ele>
        <time>2021-08-29T07:32:57Z</time>
      </trkpt>
      <trkpt lat="43.02316" lon="-0.16792">
        <ele>994.4</ele>
        <time>2021-08-29T07:32:58Z</time>
      </trkpt>
      <trkpt lat="43.02315" lon="-0.16794">
        <ele>994.6</ele>
        <time>2021-08-29T07:32:59Z</time>
      </trkpt>
      <trkpt lat="43.02315" lon="-0.16796">
        <ele>994.8</ele>
        <time>2021-08-29T07:33:00Z</time>
      </trkpt>
      <trkpt lat="43.02314" lon="-0.16798">
        <ele>995</ele>
        <time>2021-08-29T07:33:01Z</time>
      </trkpt>
      <trkpt lat="43.02314" lon="-0.168">
        <ele>995</ele>
        <time>2021-08-29T07:33:02Z</time>
      </trkpt>
      <trkpt lat="43.02313" lon="-0.16803">
        <ele>995.2</ele>
        <time>2021-08-29T07:33:03Z</time>
      </trkpt>
      <trkpt lat="43.02313" lon="-0.16805">
        <ele>995.2</ele>
        <time>2021-08-29T07:33:04Z</time>
      </trkpt>
      <trkpt lat="43.02313" lon="-0.16808">
        <ele>995.4</ele>
        <time>2021-08-29T07:33:05Z</time>
      </trkpt>
      <trkpt lat="43.02313" lon="-0.1681">
        <ele>995.4</ele>
        <time>2021-08-29T07:33:06Z</time>
      </trkpt>
      <trkpt lat="43.02313" lon="-0.16811">
        <ele>995.6</ele>
        <time>2021-08-29T07:33:07Z</time>
      </trkpt>
      <trkpt lat="43.02313" lon="-0.16813">
        <ele>995.8</ele>
        <time>2021-08-29T07:33:08Z</time>
      </trkpt>
      <trkpt lat="43.02313" lon="-0.16816">
        <ele>996</ele>
        <time>2021-08-29T07:33:09Z</time>
      </trkpt>
      <trkpt lat="43.02313" lon="-0.16817">
        <ele>996.2</ele>
        <time>2021-08-29T07:33:10Z</time>
      </trkpt>
      <trkpt lat="43.02313" lon="-0.16819">
        <ele>996.4</ele>
        <time>2021-08-29T07:33:11Z</time>
      </trkpt>
      <trkpt lat="43.02313" lon="-0.16822">
        <ele>996.6</ele>
        <time>2021-08-29T07:33:12Z</time>
      </trkpt>
      <trkpt lat="43.02312" lon="-0.16824">
        <ele>996.6</ele>
        <time>2021-08-29T07:33:13Z</time>
      </trkpt>
      <trkpt lat="43.02312" lon="-0.16826">
        <ele>996.8</ele>
        <time>2021-08-29T07:33:14Z</time>
      </trkpt>
      <trkpt lat="43.02312" lon="-0.16829">
        <ele>996.8</ele>
        <time>2021-08-29T07:33:15Z</time>
      </trkpt>
      <trkpt lat="43.02311" lon="-0.16831">
        <ele>997</ele>
        <time>2021-08-29T07:33:16Z</time>
      </trkpt>
      <trkpt lat="43.02311" lon="-0.16833">
        <ele>997.2</ele>
        <time>2021-08-29T07:33:17Z</time>
      </trkpt>
      <trkpt lat="43.02311" lon="-0.16834">
        <ele>997.4</ele>
        <time>2021-08-29T07:33:18Z</time>
      </trkpt>
      <trkpt lat="43.02311" lon="-0.16836">
        <ele>997.4</ele>
        <time>2021-08-29T07:33:19Z</time>
      </trkpt>
      <trkpt lat="43.02311" lon="-0.16838">
        <ele>997.6</ele>
        <time>2021-08-29T07:33:20Z</time>
      </trkpt>
      <trkpt lat="43.0231" lon="-0.1684">
        <ele>997.8</ele>
        <time>2021-08-29T07:33:21Z</time>
      </trkpt>
      <trkpt lat="43.0231" lon="-0.16842">
        <ele>997.8</ele>
        <time>2021-08-29T07:33:22Z</time>
      </trkpt>
      <trkpt lat="43.0231" lon="-0.16844">
        <ele>998</ele>
        <time>2021-08-29T07:33:23Z</time>
      </trkpt>
      <trkpt lat="43.0231" lon="-0.16846">
        <ele>998.2</ele>
        <time>2021-08-29T07:33:24Z</time>
      </trkpt>
      <trkpt lat="43.02309" lon="-0.16848">
        <ele>998.2</ele>
        <time>2021-08-29T07:33:25Z</time>
      </trkpt>
      <trkpt lat="43.02309" lon="-0.1685">
        <ele>998.4</ele>
        <time>2021-08-29T07:33:26Z</time>
      </trkpt>
      <trkpt lat="43.02309" lon="-0.16853">
        <ele>998.6</ele>
        <time>2021-08-29T07:33:27Z</time>
      </trkpt>
      <trkpt lat="43.02308" lon="-0.16855">
        <ele>998.8</ele>
        <time>2021-08-29T07:33:28Z</time>
      </trkpt>
      <trkpt lat="43.02308" lon="-0.16857">
        <ele>998.8</ele>
        <time>2021-08-29T07:33:29Z</time>
      </trkpt>
      <trkpt lat="43.02308" lon="-0.16859">
        <ele>999</ele>
        <time>2021-08-29T07:33:30Z</time>
      </trkpt>
      <trkpt lat="43.02308" lon="-0.16861">
        <ele>999.2</ele>
        <time>2021-08-29T07:33:31Z</time>
      </trkpt>
      <trkpt lat="43.02308" lon="-0.16863">
        <ele>999.4</ele>
        <time>2021-08-29T07:33:32Z</time>
      </trkpt>
      <trkpt lat="43.02308" lon="-0.16865">
        <ele>999.6</ele>
        <time>2021-08-29T07:33:33Z</time>
      </trkpt>
      <trkpt lat="43.02308" lon="-0.16867">
        <ele>999.8</ele>
        <time>2021-08-29T07:33:34Z</time>
      </trkpt>
      <trkpt lat="43.02308" lon="-0.1687">
        <ele>1000.2</ele>
        <time>2021-08-29T07:33:35Z</time>
      </trkpt>
      <trkpt lat="43.02308" lon="-0.16872">
        <ele>1000</ele>
        <time>2021-08-29T07:33:36Z</time>
      </trkpt>
      <trkpt lat="43.02308" lon="-0.16874">
        <ele>1000.4</ele>
        <time>2021-08-29T07:33:37Z</time>
      </trkpt>
      <trkpt lat="43.02307" lon="-0.16876">
        <ele>1000.6</ele>
        <time>2021-08-29T07:33:38Z</time>
      </trkpt>
      <trkpt lat="43.02307" lon="-0.16878">
        <ele>1000.6</ele>
        <time>2021-08-29T07:33:39Z</time>
      </trkpt>
      <trkpt lat="43.02307" lon="-0.1688">
        <ele>1000.8</ele>
        <time>2021-08-29T07:33:40Z</time>
      </trkpt>
      <trkpt lat="43.02306" lon="-0.16882">
        <ele>1001</ele>
        <time>2021-08-29T07:33:41Z</time>
      </trkpt>
      <trkpt lat="43.02306" lon="-0.16885">
        <ele>1001.2</ele>
        <time>2021-08-29T07:33:42Z</time>
      </trkpt>
      <trkpt lat="43.02306" lon="-0.16887">
        <ele>1001.2</ele>
        <time>2021-08-29T07:33:43Z</time>
      </trkpt>
      <trkpt lat="43.02306" lon="-0.16889">
        <ele>1001.4</ele>
        <time>2021-08-29T07:33:44Z</time>
      </trkpt>
      <trkpt lat="43.02305" lon="-0.1689">
        <ele>1001.6</ele>
        <time>2021-08-29T07:33:45Z</time>
      </trkpt>
      <trkpt lat="43.02305" lon="-0.16892">
        <ele>1001.8</ele>
        <time>2021-08-29T07:33:46Z</time>
      </trkpt>
      <trkpt lat="43.02304" lon="-0.16894">
        <ele>1001.8</ele>
        <time>2021-08-29T07:33:47Z</time>
      </trkpt>
      <trkpt lat="43.02304" lon="-0.16896">
        <ele>1002</ele>
        <time>2021-08-29T07:33:48Z</time>
      </trkpt>
      <trkpt lat="43.02304" lon="-0.16898">
        <ele>1002</ele>
        <time>2021-08-29T07:33:49Z</time>
      </trkpt>
      <trkpt lat="43.02304" lon="-0.16901">
        <ele>1002.4</ele>
        <time>2021-08-29T07:33:50Z</time>
      </trkpt>
      <trkpt lat="43.02303" lon="-0.16903">
        <ele>1002.4</ele>
        <time>2021-08-29T07:33:51Z</time>
      </trkpt>
      <trkpt lat="43.02303" lon="-0.16905">
        <ele>1002.6</ele>
        <time>2021-08-29T07:33:52Z</time>
      </trkpt>
      <trkpt lat="43.02302" lon="-0.16907">
        <ele>1002.8</ele>
        <time>2021-08-29T07:33:53Z</time>
      </trkpt>
      <trkpt lat="43.02302" lon="-0.16909">
        <ele>1003</ele>
        <time>2021-08-29T07:33:54Z</time>
      </trkpt>
      <trkpt lat="43.02302" lon="-0.16911">
        <ele>1003</ele>
        <time>2021-08-29T07:33:55Z</time>
      </trkpt>
      <trkpt lat="43.02302" lon="-0.16913">
        <ele>1003.2</ele>
        <time>2021-08-29T07:33:56Z</time>
      </trkpt>
      <trkpt lat="43.02302" lon="-0.16915">
        <ele>1003.2</ele>
        <time>2021-08-29T07:33:57Z</time>
      </trkpt>
      <trkpt lat="43.02302" lon="-0.16917">
        <ele>1003.8</ele>
        <time>2021-08-29T07:33:58Z</time>
      </trkpt>
      <trkpt lat="43.02302" lon="-0.16919">
        <ele>1004</ele>
        <time>2021-08-29T07:33:59Z</time>
      </trkpt>
      <trkpt lat="43.02301" lon="-0.16921">
        <ele>1004.2</ele>
        <time>2021-08-29T07:34:00Z</time>
      </trkpt>
      <trkpt lat="43.02301" lon="-0.16923">
        <ele>1004.4</ele>
        <time>2021-08-29T07:34:01Z</time>
      </trkpt>
      <trkpt lat="43.02301" lon="-0.16925">
        <ele>1004.8</ele>
        <time>2021-08-29T07:34:02Z</time>
      </trkpt>
      <trkpt lat="43.02301" lon="-0.16927">
        <ele>1004.8</ele>
        <time>2021-08-29T07:34:03Z</time>
      </trkpt>
      <trkpt lat="43.02301" lon="-0.16929">
        <ele>1005</ele>
        <time>2021-08-29T07:34:04Z</time>
      </trkpt>
      <trkpt lat="43.023" lon="-0.16931">
        <ele>1005.2</ele>
        <time>2021-08-29T07:34:05Z</time>
      </trkpt>
      <trkpt lat="43.023" lon="-0.16933">
        <ele>1005.2</ele>
        <time>2021-08-29T07:34:06Z</time>
      </trkpt>
      <trkpt lat="43.023" lon="-0.16935">
        <ele>1005.4</ele>
        <time>2021-08-29T07:34:07Z</time>
      </trkpt>
      <trkpt lat="43.023" lon="-0.16936">
        <ele>1005.6</ele>
        <time>2021-08-29T07:34:08Z</time>
      </trkpt>
      <trkpt lat="43.023" lon="-0.16938">
        <ele>1005.8</ele>
        <time>2021-08-29T07:34:09Z</time>
      </trkpt>
      <trkpt lat="43.023" lon="-0.1694">
        <ele>1005.8</ele>
        <time>2021-08-29T07:34:10Z</time>
      </trkpt>
      <trkpt lat="43.023" lon="-0.16942">
        <ele>1006</ele>
        <time>2021-08-29T07:34:11Z</time>
      </trkpt>
      <trkpt lat="43.02299" lon="-0.16944">
        <ele>1006.2</ele>
        <time>2021-08-29T07:34:12Z</time>
      </trkpt>
      <trkpt lat="43.02299" lon="-0.16946">
        <ele>1006.6</ele>
        <time>2021-08-29T07:34:13Z</time>
      </trkpt>
      <trkpt lat="43.02299" lon="-0.16948">
        <ele>1006.6</ele>
        <time>2021-08-29T07:34:14Z</time>
      </trkpt>
      <trkpt lat="43.02299" lon="-0.1695">
        <ele>1006.8</ele>
        <time>2021-08-29T07:34:15Z</time>
      </trkpt>
      <trkpt lat="43.02298" lon="-0.16952">
        <ele>1007</ele>
        <time>2021-08-29T07:34:16Z</time>
      </trkpt>
      <trkpt lat="43.02298" lon="-0.16954">
        <ele>1007</ele>
        <time>2021-08-29T07:34:17Z</time>
      </trkpt>
      <trkpt lat="43.02298" lon="-0.16956">
        <ele>1007.2</ele>
        <time>2021-08-29T07:34:18Z</time>
      </trkpt>
      <trkpt lat="43.02298" lon="-0.16959">
        <ele>1007.4</ele>
        <time>2021-08-29T07:34:19Z</time>
      </trkpt>
      <trkpt lat="43.02297" lon="-0.16961">
        <ele>1007.6</ele>
        <time>2021-08-29T07:34:20Z</time>
      </trkpt>
      <trkpt lat="43.02297" lon="-0.16963">
        <ele>1007.8</ele>
        <time>2021-08-29T07:34:21Z</time>
      </trkpt>
      <trkpt lat="43.02297" lon="-0.16965">
        <ele>1007.8</ele>
        <time>2021-08-29T07:34:22Z</time>
      </trkpt>
      <trkpt lat="43.02296" lon="-0.16968">
        <ele>1008</ele>
        <time>2021-08-29T07:34:23Z</time>
      </trkpt>
      <trkpt lat="43.02296" lon="-0.1697">
        <ele>1008.4</ele>
        <time>2021-08-29T07:34:24Z</time>
      </trkpt>
      <trkpt lat="43.02295" lon="-0.16972">
        <ele>1008.6</ele>
        <time>2021-08-29T07:34:25Z</time>
      </trkpt>
      <trkpt lat="43.02295" lon="-0.16974">
        <ele>1008.8</ele>
        <time>2021-08-29T07:34:26Z</time>
      </trkpt>
      <trkpt lat="43.02294" lon="-0.16976">
        <ele>1008.8</ele>
        <time>2021-08-29T07:34:27Z</time>
      </trkpt>
      <trkpt lat="43.02294" lon="-0.16979">
        <ele>1009</ele>
        <time>2021-08-29T07:34:28Z</time>
      </trkpt>
      <trkpt lat="43.02294" lon="-0.16981">
        <ele>1009</ele>
        <time>2021-08-29T07:34:29Z</time>
      </trkpt>
      <trkpt lat="43.02294" lon="-0.16984">
        <ele>1009.4</ele>
        <time>2021-08-29T07:34:30Z</time>
      </trkpt>
      <trkpt lat="43.02293" lon="-0.16986">
        <ele>1009.4</ele>
        <time>2021-08-29T07:34:31Z</time>
      </trkpt>
      <trkpt lat="43.02294" lon="-0.16988">
        <ele>1009.6</ele>
        <time>2021-08-29T07:34:32Z</time>
      </trkpt>
      <trkpt lat="43.02294" lon="-0.16991">
        <ele>1009.6</ele>
        <time>2021-08-29T07:34:33Z</time>
      </trkpt>
      <trkpt lat="43.02294" lon="-0.16993">
        <ele>1010</ele>
        <time>2021-08-29T07:34:34Z</time>
      </trkpt>
      <trkpt lat="43.02294" lon="-0.16995">
        <ele>1010</ele>
        <time>2021-08-29T07:34:35Z</time>
      </trkpt>
      <trkpt lat="43.02293" lon="-0.16997">
        <ele>1010.4</ele>
        <time>2021-08-29T07:34:36Z</time>
      </trkpt>
      <trkpt lat="43.02293" lon="-0.16999">
        <ele>1010.4</ele>
        <time>2021-08-29T07:34:37Z</time>
      </trkpt>
      <trkpt lat="43.02293" lon="-0.17001">
        <ele>1010.6</ele>
        <time>2021-08-29T07:34:38Z</time>
      </trkpt>
      <trkpt lat="43.02293" lon="-0.17003">
        <ele>1010.6</ele>
        <time>2021-08-29T07:34:39Z</time>
      </trkpt>
      <trkpt lat="43.02292" lon="-0.17005">
        <ele>1010.8</ele>
        <time>2021-08-29T07:34:40Z</time>
      </trkpt>
      <trkpt lat="43.02292" lon="-0.17008">
        <ele>1011</ele>
        <time>2021-08-29T07:34:41Z</time>
      </trkpt>
      <trkpt lat="43.02292" lon="-0.1701">
        <ele>1011.2</ele>
        <time>2021-08-29T07:34:42Z</time>
      </trkpt>
      <trkpt lat="43.02292" lon="-0.17013">
        <ele>1011.4</ele>
        <time>2021-08-29T07:34:43Z</time>
      </trkpt>
      <trkpt lat="43.02292" lon="-0.17016">
        <ele>1011.4</ele>
        <time>2021-08-29T07:34:44Z</time>
      </trkpt>
      <trkpt lat="43.02291" lon="-0.17018">
        <ele>1011.6</ele>
        <time>2021-08-29T07:34:45Z</time>
      </trkpt>
      <trkpt lat="43.02291" lon="-0.1702">
        <ele>1011.8</ele>
        <time>2021-08-29T07:34:46Z</time>
      </trkpt>
      <trkpt lat="43.02291" lon="-0.17023">
        <ele>1011.8</ele>
        <time>2021-08-29T07:34:47Z</time>
      </trkpt>
      <trkpt lat="43.02292" lon="-0.17026">
        <ele>1012</ele>
        <time>2021-08-29T07:34:48Z</time>
      </trkpt>
      <trkpt lat="43.02292" lon="-0.17029">
        <ele>1012</ele>
        <time>2021-08-29T07:34:49Z</time>
      </trkpt>
      <trkpt lat="43.02292" lon="-0.17031">
        <ele>1012.2</ele>
        <time>2021-08-29T07:34:50Z</time>
      </trkpt>
      <trkpt lat="43.02291" lon="-0.17034">
        <ele>1012.4</ele>
        <time>2021-08-29T07:34:51Z</time>
      </trkpt>
      <trkpt lat="43.02291" lon="-0.17036">
        <ele>1012.4</ele>
        <time>2021-08-29T07:34:52Z</time>
      </trkpt>
      <trkpt lat="43.02291" lon="-0.17039">
        <ele>1012.6</ele>
        <time>2021-08-29T07:34:53Z</time>
      </trkpt>
      <trkpt lat="43.02291" lon="-0.17042">
        <ele>1012.8</ele>
        <time>2021-08-29T07:34:54Z</time>
      </trkpt>
      <trkpt lat="43.02291" lon="-0.17045">
        <ele>1012.8</ele>
        <time>2021-08-29T07:34:55Z</time>
      </trkpt>
      <trkpt lat="43.02291" lon="-0.17047">
        <ele>1013</ele>
        <time>2021-08-29T07:34:56Z</time>
      </trkpt>
      <trkpt lat="43.02291" lon="-0.1705">
        <ele>1013.2</ele>
        <time>2021-08-29T07:34:57Z</time>
      </trkpt>
      <trkpt lat="43.0229" lon="-0.17052">
        <ele>1013.2</ele>
        <time>2021-08-29T07:34:58Z</time>
      </trkpt>
      <trkpt lat="43.02291" lon="-0.17054">
        <ele>1013.2</ele>
        <time>2021-08-29T07:34:59Z</time>
      </trkpt>
      <trkpt lat="43.02291" lon="-0.17057">
        <ele>1013.2</ele>
        <time>2021-08-29T07:35:00Z</time>
      </trkpt>
      <trkpt lat="43.0229" lon="-0.1706">
        <ele>1013.4</ele>
        <time>2021-08-29T07:35:01Z</time>
      </trkpt>
      <trkpt lat="43.0229" lon="-0.17061">
        <ele>1013.4</ele>
        <time>2021-08-29T07:35:02Z</time>
      </trkpt>
      <trkpt lat="43.0229" lon="-0.17064">
        <ele>1013.6</ele>
        <time>2021-08-29T07:35:03Z</time>
      </trkpt>
      <trkpt lat="43.0229" lon="-0.17066">
        <ele>1013.6</ele>
        <time>2021-08-29T07:35:04Z</time>
      </trkpt>
      <trkpt lat="43.0229" lon="-0.17068">
        <ele>1013.6</ele>
        <time>2021-08-29T07:35:05Z</time>
      </trkpt>
      <trkpt lat="43.0229" lon="-0.1707">
        <ele>1013.8</ele>
        <time>2021-08-29T07:35:06Z</time>
      </trkpt>
      <trkpt lat="43.02289" lon="-0.17072">
        <ele>1014</ele>
        <time>2021-08-29T07:35:07Z</time>
      </trkpt>
      <trkpt lat="43.02289" lon="-0.17075">
        <ele>1014</ele>
        <time>2021-08-29T07:35:08Z</time>
      </trkpt>
      <trkpt lat="43.02289" lon="-0.17077">
        <ele>1014.2</ele>
        <time>2021-08-29T07:35:09Z</time>
      </trkpt>
      <trkpt lat="43.0229" lon="-0.17079">
        <ele>1014.4</ele>
        <time>2021-08-29T07:35:10Z</time>
      </trkpt>
      <trkpt lat="43.0229" lon="-0.17082">
        <ele>1014.4</ele>
        <time>2021-08-29T07:35:11Z</time>
      </trkpt>
      <trkpt lat="43.02289" lon="-0.17084">
        <ele>1014.6</ele>
        <time>2021-08-29T07:35:12Z</time>
      </trkpt>
      <trkpt lat="43.02289" lon="-0.17087">
        <ele>1014.8</ele>
        <time>2021-08-29T07:35:13Z</time>
      </trkpt>
      <trkpt lat="43.02289" lon="-0.17089">
        <ele>1015</ele>
        <time>2021-08-29T07:35:14Z</time>
      </trkpt>
      <trkpt lat="43.02289" lon="-0.17092">
        <ele>1015</ele>
        <time>2021-08-29T07:35:15Z</time>
      </trkpt>
      <trkpt lat="43.02289" lon="-0.17095">
        <ele>1015.2</ele>
        <time>2021-08-29T07:35:16Z</time>
      </trkpt>
      <trkpt lat="43.02289" lon="-0.17097">
        <ele>1015.4</ele>
        <time>2021-08-29T07:35:17Z</time>
      </trkpt>
      <trkpt lat="43.0229" lon="-0.17099">
        <ele>1015.4</ele>
        <time>2021-08-29T07:35:18Z</time>
      </trkpt>
      <trkpt lat="43.0229" lon="-0.17102">
        <ele>1015.6</ele>
        <time>2021-08-29T07:35:19Z</time>
      </trkpt>
      <trkpt lat="43.0229" lon="-0.17104">
        <ele>1015.6</ele>
        <time>2021-08-29T07:35:20Z</time>
      </trkpt>
      <trkpt lat="43.02289" lon="-0.17106">
        <ele>1015.6</ele>
        <time>2021-08-29T07:35:21Z</time>
      </trkpt>
      <trkpt lat="43.02289" lon="-0.17108">
        <ele>1015.8</ele>
        <time>2021-08-29T07:35:22Z</time>
      </trkpt>
      <trkpt lat="43.02289" lon="-0.1711">
        <ele>1015.8</ele>
        <time>2021-08-29T07:35:23Z</time>
      </trkpt>
      <trkpt lat="43.02289" lon="-0.17113">
        <ele>1016</ele>
        <time>2021-08-29T07:35:24Z</time>
      </trkpt>
      <trkpt lat="43.02289" lon="-0.17114">
        <ele>1016.2</ele>
        <time>2021-08-29T07:35:25Z</time>
      </trkpt>
      <trkpt lat="43.02289" lon="-0.17117">
        <ele>1016.4</ele>
        <time>2021-08-29T07:35:26Z</time>
      </trkpt>
      <trkpt lat="43.02288" lon="-0.17119">
        <ele>1016.6</ele>
        <time>2021-08-29T07:35:27Z</time>
      </trkpt>
      <trkpt lat="43.02288" lon="-0.17122">
        <ele>1016.6</ele>
        <time>2021-08-29T07:35:28Z</time>
      </trkpt>
      <trkpt lat="43.02288" lon="-0.17124">
        <ele>1016.8</ele>
        <time>2021-08-29T07:35:29Z</time>
      </trkpt>
      <trkpt lat="43.02288" lon="-0.17126">
        <ele>1016.8</ele>
        <time>2021-08-29T07:35:30Z</time>
      </trkpt>
      <trkpt lat="43.02287" lon="-0.17129">
        <ele>1017</ele>
        <time>2021-08-29T07:35:31Z</time>
      </trkpt>
      <trkpt lat="43.02287" lon="-0.17131">
        <ele>1017.4</ele>
        <time>2021-08-29T07:35:32Z</time>
      </trkpt>
      <trkpt lat="43.02287" lon="-0.17133">
        <ele>1017.6</ele>
        <time>2021-08-29T07:35:33Z</time>
      </trkpt>
      <trkpt lat="43.02287" lon="-0.17135">
        <ele>1017.6</ele>
        <time>2021-08-29T07:35:34Z</time>
      </trkpt>
      <trkpt lat="43.02287" lon="-0.17137">
        <ele>1018</ele>
        <time>2021-08-29T07:35:35Z</time>
      </trkpt>
      <trkpt lat="43.02287" lon="-0.17139">
        <ele>1018.2</ele>
        <time>2021-08-29T07:35:36Z</time>
      </trkpt>
      <trkpt lat="43.02287" lon="-0.17142">
        <ele>1018.2</ele>
        <time>2021-08-29T07:35:37Z</time>
      </trkpt>
      <trkpt lat="43.02286" lon="-0.17144">
        <ele>1018.4</ele>
        <time>2021-08-29T07:35:38Z</time>
      </trkpt>
      <trkpt lat="43.02286" lon="-0.17146">
        <ele>1018.6</ele>
        <time>2021-08-29T07:35:39Z</time>
      </trkpt>
      <trkpt lat="43.02286" lon="-0.1715">
        <ele>1018.6</ele>
        <time>2021-08-29T07:35:40Z</time>
      </trkpt>
      <trkpt lat="43.02286" lon="-0.17152">
        <ele>1018.6</ele>
        <time>2021-08-29T07:35:41Z</time>
      </trkpt>
      <trkpt lat="43.02286" lon="-0.17153">
        <ele>1018.8</ele>
        <time>2021-08-29T07:35:42Z</time>
      </trkpt>
      <trkpt lat="43.02286" lon="-0.17155">
        <ele>1018.8</ele>
        <time>2021-08-29T07:35:43Z</time>
      </trkpt>
      <trkpt lat="43.02285" lon="-0.17158">
        <ele>1019</ele>
        <time>2021-08-29T07:35:44Z</time>
      </trkpt>
      <trkpt lat="43.02285" lon="-0.1716">
        <ele>1019.2</ele>
        <time>2021-08-29T07:35:45Z</time>
      </trkpt>
      <trkpt lat="43.02285" lon="-0.17162">
        <ele>1019.2</ele>
        <time>2021-08-29T07:35:46Z</time>
      </trkpt>
      <trkpt lat="43.02285" lon="-0.17165">
        <ele>1019.4</ele>
        <time>2021-08-29T07:35:47Z</time>
      </trkpt>
      <trkpt lat="43.02285" lon="-0.17167">
        <ele>1019.6</ele>
        <time>2021-08-29T07:35:48Z</time>
      </trkpt>
      <trkpt lat="43.02284" lon="-0.17169">
        <ele>1019.6</ele>
        <time>2021-08-29T07:35:49Z</time>
      </trkpt>
      <trkpt lat="43.02284" lon="-0.17172">
        <ele>1019.8</ele>
        <time>2021-08-29T07:35:50Z</time>
      </trkpt>
      <trkpt lat="43.02284" lon="-0.17175">
        <ele>1019.8</ele>
        <time>2021-08-29T07:35:51Z</time>
      </trkpt>
      <trkpt lat="43.02283" lon="-0.17176">
        <ele>1019.8</ele>
        <time>2021-08-29T07:35:52Z</time>
      </trkpt>
      <trkpt lat="43.02283" lon="-0.17178">
        <ele>1020</ele>
        <time>2021-08-29T07:35:53Z</time>
      </trkpt>
      <trkpt lat="43.02283" lon="-0.1718">
        <ele>1020</ele>
        <time>2021-08-29T07:35:54Z</time>
      </trkpt>
      <trkpt lat="43.02283" lon="-0.17183">
        <ele>1020.2</ele>
        <time>2021-08-29T07:35:55Z</time>
      </trkpt>
      <trkpt lat="43.02283" lon="-0.17185">
        <ele>1020.4</ele>
        <time>2021-08-29T07:35:56Z</time>
      </trkpt>
      <trkpt lat="43.02283" lon="-0.17188">
        <ele>1020.6</ele>
        <time>2021-08-29T07:35:57Z</time>
      </trkpt>
      <trkpt lat="43.02282" lon="-0.1719">
        <ele>1020.6</ele>
        <time>2021-08-29T07:35:58Z</time>
      </trkpt>
      <trkpt lat="43.02282" lon="-0.17192">
        <ele>1020.8</ele>
        <time>2021-08-29T07:35:59Z</time>
      </trkpt>
      <trkpt lat="43.02282" lon="-0.17195">
        <ele>1020.8</ele>
        <time>2021-08-29T07:36:00Z</time>
      </trkpt>
      <trkpt lat="43.02282" lon="-0.17197">
        <ele>1021</ele>
        <time>2021-08-29T07:36:01Z</time>
      </trkpt>
      <trkpt lat="43.02282" lon="-0.172">
        <ele>1021</ele>
        <time>2021-08-29T07:36:02Z</time>
      </trkpt>
      <trkpt lat="43.02282" lon="-0.17203">
        <ele>1021.2</ele>
        <time>2021-08-29T07:36:03Z</time>
      </trkpt>
      <trkpt lat="43.02282" lon="-0.17205">
        <ele>1021.2</ele>
        <time>2021-08-29T07:36:04Z</time>
      </trkpt>
      <trkpt lat="43.02282" lon="-0.17208">
        <ele>1021.4</ele>
        <time>2021-08-29T07:36:05Z</time>
      </trkpt>
      <trkpt lat="43.02282" lon="-0.1721">
        <ele>1021.4</ele>
        <time>2021-08-29T07:36:06Z</time>
      </trkpt>
      <trkpt lat="43.02282" lon="-0.17212">
        <ele>1021.6</ele>
        <time>2021-08-29T07:36:07Z</time>
      </trkpt>
      <trkpt lat="43.02282" lon="-0.17215">
        <ele>1021.6</ele>
        <time>2021-08-29T07:36:08Z</time>
      </trkpt>
      <trkpt lat="43.02282" lon="-0.17217">
        <ele>1021.8</ele>
        <time>2021-08-29T07:36:09Z</time>
      </trkpt>
      <trkpt lat="43.02282" lon="-0.17219">
        <ele>1022</ele>
        <time>2021-08-29T07:36:10Z</time>
      </trkpt>
      <trkpt lat="43.02281" lon="-0.17223">
        <ele>1022</ele>
        <time>2021-08-29T07:36:11Z</time>
      </trkpt>
      <trkpt lat="43.02281" lon="-0.17225">
        <ele>1022.2</ele>
        <time>2021-08-29T07:36:12Z</time>
      </trkpt>
      <trkpt lat="43.02282" lon="-0.17227">
        <ele>1022.2</ele>
        <time>2021-08-29T07:36:13Z</time>
      </trkpt>
      <trkpt lat="43.02282" lon="-0.1723">
        <ele>1022.4</ele>
        <time>2021-08-29T07:36:14Z</time>
      </trkpt>
      <trkpt lat="43.02282" lon="-0.17233">
        <ele>1022.4</ele>
        <time>2021-08-29T07:36:15Z</time>
      </trkpt>
      <trkpt lat="43.02282" lon="-0.17235">
        <ele>1022.6</ele>
        <time>2021-08-29T07:36:16Z</time>
      </trkpt>
      <trkpt lat="43.02282" lon="-0.17238">
        <ele>1022.6</ele>
        <time>2021-08-29T07:36:17Z</time>
      </trkpt>
      <trkpt lat="43.02282" lon="-0.1724">
        <ele>1022.8</ele>
        <time>2021-08-29T07:36:18Z</time>
      </trkpt>
      <trkpt lat="43.02282" lon="-0.17242">
        <ele>1022.8</ele>
        <time>2021-08-29T07:36:19Z</time>
      </trkpt>
      <trkpt lat="43.02282" lon="-0.17245">
        <ele>1023</ele>
        <time>2021-08-29T07:36:20Z</time>
      </trkpt>
      <trkpt lat="43.02282" lon="-0.17247">
        <ele>1023</ele>
        <time>2021-08-29T07:36:21Z</time>
      </trkpt>
      <trkpt lat="43.02282" lon="-0.17249">
        <ele>1023.2</ele>
        <time>2021-08-29T07:36:22Z</time>
      </trkpt>
      <trkpt lat="43.02281" lon="-0.17252">
        <ele>1023.4</ele>
        <time>2021-08-29T07:36:23Z</time>
      </trkpt>
      <trkpt lat="43.02281" lon="-0.17254">
        <ele>1023.6</ele>
        <time>2021-08-29T07:36:24Z</time>
      </trkpt>
      <trkpt lat="43.02281" lon="-0.17257">
        <ele>1023.6</ele>
        <time>2021-08-29T07:36:25Z</time>
      </trkpt>
      <trkpt lat="43.02281" lon="-0.17259">
        <ele>1023.8</ele>
        <time>2021-08-29T07:36:26Z</time>
      </trkpt>
      <trkpt lat="43.02281" lon="-0.17261">
        <ele>1023.8</ele>
        <time>2021-08-29T07:36:27Z</time>
      </trkpt>
      <trkpt lat="43.02281" lon="-0.17264">
        <ele>1024.2</ele>
        <time>2021-08-29T07:36:28Z</time>
      </trkpt>
      <trkpt lat="43.02281" lon="-0.17266">
        <ele>1024.4</ele>
        <time>2021-08-29T07:36:29Z</time>
      </trkpt>
      <trkpt lat="43.02281" lon="-0.17268">
        <ele>1024.4</ele>
        <time>2021-08-29T07:36:30Z</time>
      </trkpt>
      <trkpt lat="43.02281" lon="-0.1727">
        <ele>1024.6</ele>
        <time>2021-08-29T07:36:31Z</time>
      </trkpt>
      <trkpt lat="43.02281" lon="-0.17273">
        <ele>1024.6</ele>
        <time>2021-08-29T07:36:32Z</time>
      </trkpt>
      <trkpt lat="43.0228" lon="-0.17276">
        <ele>1024.8</ele>
        <time>2021-08-29T07:36:33Z</time>
      </trkpt>
      <trkpt lat="43.0228" lon="-0.17277">
        <ele>1024.8</ele>
        <time>2021-08-29T07:36:34Z</time>
      </trkpt>
      <trkpt lat="43.0228" lon="-0.17279">
        <ele>1025</ele>
        <time>2021-08-29T07:36:35Z</time>
      </trkpt>
      <trkpt lat="43.0228" lon="-0.17282">
        <ele>1025</ele>
        <time>2021-08-29T07:36:36Z</time>
      </trkpt>
      <trkpt lat="43.0228" lon="-0.17284">
        <ele>1025.2</ele>
        <time>2021-08-29T07:36:37Z</time>
      </trkpt>
      <trkpt lat="43.0228" lon="-0.17286">
        <ele>1025.4</ele>
        <time>2021-08-29T07:36:38Z</time>
      </trkpt>
      <trkpt lat="43.0228" lon="-0.17288">
        <ele>1025.6</ele>
        <time>2021-08-29T07:36:39Z</time>
      </trkpt>
      <trkpt lat="43.0228" lon="-0.1729">
        <ele>1025.8</ele>
        <time>2021-08-29T07:36:40Z</time>
      </trkpt>
      <trkpt lat="43.0228" lon="-0.17292">
        <ele>1026</ele>
        <time>2021-08-29T07:36:41Z</time>
      </trkpt>
      <trkpt lat="43.0228" lon="-0.17294">
        <ele>1026</ele>
        <time>2021-08-29T07:36:42Z</time>
      </trkpt>
      <trkpt lat="43.0228" lon="-0.17296">
        <ele>1026.2</ele>
        <time>2021-08-29T07:36:43Z</time>
      </trkpt>
      <trkpt lat="43.02279" lon="-0.17298">
        <ele>1026.4</ele>
        <time>2021-08-29T07:36:44Z</time>
      </trkpt>
      <trkpt lat="43.02279" lon="-0.173">
        <ele>1026.6</ele>
        <time>2021-08-29T07:36:45Z</time>
      </trkpt>
      <trkpt lat="43.02279" lon="-0.17303">
        <ele>1026.6</ele>
        <time>2021-08-29T07:36:46Z</time>
      </trkpt>
      <trkpt lat="43.02279" lon="-0.17304">
        <ele>1027</ele>
        <time>2021-08-29T07:36:47Z</time>
      </trkpt>
      <trkpt lat="43.02279" lon="-0.17306">
        <ele>1027</ele>
        <time>2021-08-29T07:36:48Z</time>
      </trkpt>
      <trkpt lat="43.02279" lon="-0.17308">
        <ele>1027.2</ele>
        <time>2021-08-29T07:36:49Z</time>
      </trkpt>
      <trkpt lat="43.02279" lon="-0.1731">
        <ele>1027.6</ele>
        <time>2021-08-29T07:36:50Z</time>
      </trkpt>
      <trkpt lat="43.02279" lon="-0.17312">
        <ele>1027.8</ele>
        <time>2021-08-29T07:36:51Z</time>
      </trkpt>
      <trkpt lat="43.02278" lon="-0.17315">
        <ele>1028</ele>
        <time>2021-08-29T07:36:52Z</time>
      </trkpt>
      <trkpt lat="43.02278" lon="-0.17317">
        <ele>1028.2</ele>
        <time>2021-08-29T07:36:53Z</time>
      </trkpt>
      <trkpt lat="43.02278" lon="-0.1732">
        <ele>1028.2</ele>
        <time>2021-08-29T07:36:54Z</time>
      </trkpt>
      <trkpt lat="43.02278" lon="-0.17322">
        <ele>1028.4</ele>
        <time>2021-08-29T07:36:55Z</time>
      </trkpt>
      <trkpt lat="43.02278" lon="-0.17324">
        <ele>1028.4</ele>
        <time>2021-08-29T07:36:56Z</time>
      </trkpt>
      <trkpt lat="43.02278" lon="-0.17327">
        <ele>1028.4</ele>
        <time>2021-08-29T07:36:57Z</time>
      </trkpt>
      <trkpt lat="43.02278" lon="-0.17329">
        <ele>1028.6</ele>
        <time>2021-08-29T07:36:58Z</time>
      </trkpt>
      <trkpt lat="43.02278" lon="-0.17332">
        <ele>1028.8</ele>
        <time>2021-08-29T07:36:59Z</time>
      </trkpt>
      <trkpt lat="43.02278" lon="-0.17334">
        <ele>1029</ele>
        <time>2021-08-29T07:37:00Z</time>
      </trkpt>
      <trkpt lat="43.02277" lon="-0.17336">
        <ele>1029</ele>
        <time>2021-08-29T07:37:01Z</time>
      </trkpt>
      <trkpt lat="43.02277" lon="-0.17339">
        <ele>1029.4</ele>
        <time>2021-08-29T07:37:02Z</time>
      </trkpt>
      <trkpt lat="43.02276" lon="-0.17341">
        <ele>1029.4</ele>
        <time>2021-08-29T07:37:03Z</time>
      </trkpt>
      <trkpt lat="43.02276" lon="-0.17343">
        <ele>1029.6</ele>
        <time>2021-08-29T07:37:04Z</time>
      </trkpt>
      <trkpt lat="43.02276" lon="-0.17345">
        <ele>1029.8</ele>
        <time>2021-08-29T07:37:05Z</time>
      </trkpt>
      <trkpt lat="43.02276" lon="-0.17348">
        <ele>1029.8</ele>
        <time>2021-08-29T07:37:06Z</time>
      </trkpt>
      <trkpt lat="43.02276" lon="-0.1735">
        <ele>1030</ele>
        <time>2021-08-29T07:37:07Z</time>
      </trkpt>
      <trkpt lat="43.02276" lon="-0.17353">
        <ele>1030</ele>
        <time>2021-08-29T07:37:08Z</time>
      </trkpt>
      <trkpt lat="43.02276" lon="-0.17355">
        <ele>1030.4</ele>
        <time>2021-08-29T07:37:09Z</time>
      </trkpt>
      <trkpt lat="43.02276" lon="-0.17357">
        <ele>1030.4</ele>
        <time>2021-08-29T07:37:10Z</time>
      </trkpt>
      <trkpt lat="43.02276" lon="-0.17359">
        <ele>1030.8</ele>
        <time>2021-08-29T07:37:11Z</time>
      </trkpt>
      <trkpt lat="43.02276" lon="-0.17361">
        <ele>1030.8</ele>
        <time>2021-08-29T07:37:12Z</time>
      </trkpt>
      <trkpt lat="43.02276" lon="-0.17363">
        <ele>1031</ele>
        <time>2021-08-29T07:37:13Z</time>
      </trkpt>
      <trkpt lat="43.02276" lon="-0.17366">
        <ele>1031</ele>
        <time>2021-08-29T07:37:14Z</time>
      </trkpt>
      <trkpt lat="43.02276" lon="-0.17369">
        <ele>1031.2</ele>
        <time>2021-08-29T07:37:15Z</time>
      </trkpt>
      <trkpt lat="43.02276" lon="-0.17371">
        <ele>1031.2</ele>
        <time>2021-08-29T07:37:16Z</time>
      </trkpt>
      <trkpt lat="43.02276" lon="-0.17373">
        <ele>1031.4</ele>
        <time>2021-08-29T07:37:17Z</time>
      </trkpt>
      <trkpt lat="43.02275" lon="-0.17376">
        <ele>1031.4</ele>
        <time>2021-08-29T07:37:18Z</time>
      </trkpt>
      <trkpt lat="43.02275" lon="-0.17378">
        <ele>1031.6</ele>
        <time>2021-08-29T07:37:19Z</time>
      </trkpt>
      <trkpt lat="43.02275" lon="-0.17381">
        <ele>1031.8</ele>
        <time>2021-08-29T07:37:20Z</time>
      </trkpt>
      <trkpt lat="43.02275" lon="-0.17383">
        <ele>1031.8</ele>
        <time>2021-08-29T07:37:21Z</time>
      </trkpt>
      <trkpt lat="43.02275" lon="-0.17385">
        <ele>1032</ele>
        <time>2021-08-29T07:37:22Z</time>
      </trkpt>
      <trkpt lat="43.02275" lon="-0.17387">
        <ele>1032</ele>
        <time>2021-08-29T07:37:23Z</time>
      </trkpt>
      <trkpt lat="43.02275" lon="-0.17389">
        <ele>1032.4</ele>
        <time>2021-08-29T07:37:24Z</time>
      </trkpt>
      <trkpt lat="43.02275" lon="-0.17392">
        <ele>1032.4</ele>
        <time>2021-08-29T07:37:25Z</time>
      </trkpt>
      <trkpt lat="43.02275" lon="-0.17394">
        <ele>1032.8</ele>
        <time>2021-08-29T07:37:26Z</time>
      </trkpt>
      <trkpt lat="43.02274" lon="-0.17396">
        <ele>1033</ele>
        <time>2021-08-29T07:37:27Z</time>
      </trkpt>
      <trkpt lat="43.02274" lon="-0.17398">
        <ele>1033</ele>
        <time>2021-08-29T07:37:28Z</time>
      </trkpt>
      <trkpt lat="43.02273" lon="-0.174">
        <ele>1033.2</ele>
        <time>2021-08-29T07:37:29Z</time>
      </trkpt>
      <trkpt lat="43.02273" lon="-0.17402">
        <ele>1033.4</ele>
        <time>2021-08-29T07:37:30Z</time>
      </trkpt>
      <trkpt lat="43.02273" lon="-0.17404">
        <ele>1033.6</ele>
        <time>2021-08-29T07:37:31Z</time>
      </trkpt>
      <trkpt lat="43.02273" lon="-0.17406">
        <ele>1033.8</ele>
        <time>2021-08-29T07:37:32Z</time>
      </trkpt>
      <trkpt lat="43.02273" lon="-0.17408">
        <ele>1033.8</ele>
        <time>2021-08-29T07:37:33Z</time>
      </trkpt>
      <trkpt lat="43.02272" lon="-0.1741">
        <ele>1034</ele>
        <time>2021-08-29T07:37:34Z</time>
      </trkpt>
      <trkpt lat="43.02272" lon="-0.17412">
        <ele>1034.2</ele>
        <time>2021-08-29T07:37:35Z</time>
      </trkpt>
      <trkpt lat="43.02272" lon="-0.17414">
        <ele>1034.4</ele>
        <time>2021-08-29T07:37:36Z</time>
      </trkpt>
      <trkpt lat="43.02273" lon="-0.17416">
        <ele>1034.6</ele>
        <time>2021-08-29T07:37:37Z</time>
      </trkpt>
      <trkpt lat="43.02272" lon="-0.17418">
        <ele>1034.8</ele>
        <time>2021-08-29T07:37:38Z</time>
      </trkpt>
      <trkpt lat="43.02272" lon="-0.1742">
        <ele>1034.8</ele>
        <time>2021-08-29T07:37:39Z</time>
      </trkpt>
      <trkpt lat="43.02272" lon="-0.17421">
        <ele>1034.8</ele>
        <time>2021-08-29T07:37:40Z</time>
      </trkpt>
      <trkpt lat="43.02272" lon="-0.17423">
        <ele>1035.2</ele>
        <time>2021-08-29T07:37:41Z</time>
      </trkpt>
      <trkpt lat="43.02272" lon="-0.17424">
        <ele>1035.2</ele>
        <time>2021-08-29T07:37:42Z</time>
      </trkpt>
      <trkpt lat="43.02272" lon="-0.17426">
        <ele>1035.4</ele>
        <time>2021-08-29T07:37:43Z</time>
      </trkpt>
      <trkpt lat="43.02273" lon="-0.17428">
        <ele>1035.4</ele>
        <time>2021-08-29T07:37:44Z</time>
      </trkpt>
      <trkpt lat="43.02273" lon="-0.1743">
        <ele>1035.6</ele>
        <time>2021-08-29T07:37:45Z</time>
      </trkpt>
      <trkpt lat="43.02273" lon="-0.17433">
        <ele>1035.8</ele>
        <time>2021-08-29T07:37:46Z</time>
      </trkpt>
      <trkpt lat="43.02273" lon="-0.17435">
        <ele>1036</ele>
        <time>2021-08-29T07:37:47Z</time>
      </trkpt>
      <trkpt lat="43.02272" lon="-0.17437">
        <ele>1036.2</ele>
        <time>2021-08-29T07:37:48Z</time>
      </trkpt>
      <trkpt lat="43.02272" lon="-0.17439">
        <ele>1036.2</ele>
        <time>2021-08-29T07:37:49Z</time>
      </trkpt>
      <trkpt lat="43.02272" lon="-0.17441">
        <ele>1036.4</ele>
        <time>2021-08-29T07:37:50Z</time>
      </trkpt>
      <trkpt lat="43.02272" lon="-0.17443">
        <ele>1036.6</ele>
        <time>2021-08-29T07:37:51Z</time>
      </trkpt>
      <trkpt lat="43.02272" lon="-0.17446">
        <ele>1036.6</ele>
        <time>2021-08-29T07:37:52Z</time>
      </trkpt>
      <trkpt lat="43.02271" lon="-0.17447">
        <ele>1037</ele>
        <time>2021-08-29T07:37:53Z</time>
      </trkpt>
      <trkpt lat="43.02271" lon="-0.1745">
        <ele>1037</ele>
        <time>2021-08-29T07:37:54Z</time>
      </trkpt>
      <trkpt lat="43.02271" lon="-0.17452">
        <ele>1037.2</ele>
        <time>2021-08-29T07:37:55Z</time>
      </trkpt>
      <trkpt lat="43.02271" lon="-0.17455">
        <ele>1037.4</ele>
        <time>2021-08-29T07:37:56Z</time>
      </trkpt>
      <trkpt lat="43.02271" lon="-0.17457">
        <ele>1037.6</ele>
        <time>2021-08-29T07:37:57Z</time>
      </trkpt>
      <trkpt lat="43.02271" lon="-0.17459">
        <ele>1037.8</ele>
        <time>2021-08-29T07:37:58Z</time>
      </trkpt>
      <trkpt lat="43.0227" lon="-0.17461">
        <ele>1038</ele>
        <time>2021-08-29T07:37:59Z</time>
      </trkpt>
      <trkpt lat="43.0227" lon="-0.17464">
        <ele>1038</ele>
        <time>2021-08-29T07:38:00Z</time>
      </trkpt>
      <trkpt lat="43.0227" lon="-0.17466">
        <ele>1038.2</ele>
        <time>2021-08-29T07:38:01Z</time>
      </trkpt>
      <trkpt lat="43.0227" lon="-0.17469">
        <ele>1038.4</ele>
        <time>2021-08-29T07:38:02Z</time>
      </trkpt>
      <trkpt lat="43.0227" lon="-0.17471">
        <ele>1038.4</ele>
        <time>2021-08-29T07:38:03Z</time>
      </trkpt>
      <trkpt lat="43.0227" lon="-0.17473">
        <ele>1038.6</ele>
        <time>2021-08-29T07:38:04Z</time>
      </trkpt>
      <trkpt lat="43.0227" lon="-0.17476">
        <ele>1038.8</ele>
        <time>2021-08-29T07:38:05Z</time>
      </trkpt>
      <trkpt lat="43.0227" lon="-0.17477">
        <ele>1039</ele>
        <time>2021-08-29T07:38:06Z</time>
      </trkpt>
      <trkpt lat="43.0227" lon="-0.1748">
        <ele>1039</ele>
        <time>2021-08-29T07:38:07Z</time>
      </trkpt>
      <trkpt lat="43.02269" lon="-0.17483">
        <ele>1039.2</ele>
        <time>2021-08-29T07:38:08Z</time>
      </trkpt>
      <trkpt lat="43.02269" lon="-0.17485">
        <ele>1039.4</ele>
        <time>2021-08-29T07:38:09Z</time>
      </trkpt>
      <trkpt lat="43.02269" lon="-0.17487">
        <ele>1039.8</ele>
        <time>2021-08-29T07:38:10Z</time>
      </trkpt>
      <trkpt lat="43.02269" lon="-0.17489">
        <ele>1039.8</ele>
        <time>2021-08-29T07:38:11Z</time>
      </trkpt>
      <trkpt lat="43.02269" lon="-0.17491">
        <ele>1040</ele>
        <time>2021-08-29T07:38:12Z</time>
      </trkpt>
      <trkpt lat="43.02269" lon="-0.17493">
        <ele>1040.2</ele>
        <time>2021-08-29T07:38:13Z</time>
      </trkpt>
      <trkpt lat="43.02269" lon="-0.17496">
        <ele>1040.2</ele>
        <time>2021-08-29T07:38:14Z</time>
      </trkpt>
      <trkpt lat="43.02269" lon="-0.17498">
        <ele>1040.6</ele>
        <time>2021-08-29T07:38:15Z</time>
      </trkpt>
      <trkpt lat="43.02268" lon="-0.175">
        <ele>1040.6</ele>
        <time>2021-08-29T07:38:16Z</time>
      </trkpt>
      <trkpt lat="43.02268" lon="-0.17502">
        <ele>1040.8</ele>
        <time>2021-08-29T07:38:17Z</time>
      </trkpt>
      <trkpt lat="43.02268" lon="-0.17505">
        <ele>1041</ele>
        <time>2021-08-29T07:38:18Z</time>
      </trkpt>
      <trkpt lat="43.02268" lon="-0.17507">
        <ele>1041.2</ele>
        <time>2021-08-29T07:38:19Z</time>
      </trkpt>
      <trkpt lat="43.02268" lon="-0.17509">
        <ele>1041.2</ele>
        <time>2021-08-29T07:38:20Z</time>
      </trkpt>
      <trkpt lat="43.02268" lon="-0.17511">
        <ele>1041.4</ele>
        <time>2021-08-29T07:38:21Z</time>
      </trkpt>
      <trkpt lat="43.02268" lon="-0.17513">
        <ele>1041.4</ele>
        <time>2021-08-29T07:38:22Z</time>
      </trkpt>
      <trkpt lat="43.02267" lon="-0.17515">
        <ele>1041.6</ele>
        <time>2021-08-29T07:38:23Z</time>
      </trkpt>
      <trkpt lat="43.02267" lon="-0.17517">
        <ele>1041.6</ele>
        <time>2021-08-29T07:38:24Z</time>
      </trkpt>
      <trkpt lat="43.02267" lon="-0.17519">
        <ele>1041.8</ele>
        <time>2021-08-29T07:38:25Z</time>
      </trkpt>
      <trkpt lat="43.02267" lon="-0.17521">
        <ele>1042</ele>
        <time>2021-08-29T07:38:26Z</time>
      </trkpt>
      <trkpt lat="43.02267" lon="-0.17523">
        <ele>1042.2</ele>
        <time>2021-08-29T07:38:27Z</time>
      </trkpt>
      <trkpt lat="43.02266" lon="-0.17525">
        <ele>1042.2</ele>
        <time>2021-08-29T07:38:28Z</time>
      </trkpt>
      <trkpt lat="43.02267" lon="-0.17527">
        <ele>1042.6</ele>
        <time>2021-08-29T07:38:29Z</time>
      </trkpt>
      <trkpt lat="43.02266" lon="-0.17529">
        <ele>1042.8</ele>
        <time>2021-08-29T07:38:30Z</time>
      </trkpt>
      <trkpt lat="43.02266" lon="-0.17531">
        <ele>1043</ele>
        <time>2021-08-29T07:38:31Z</time>
      </trkpt>
      <trkpt lat="43.02266" lon="-0.17533">
        <ele>1043.2</ele>
        <time>2021-08-29T07:38:32Z</time>
      </trkpt>
      <trkpt lat="43.02265" lon="-0.17536">
        <ele>1043.4</ele>
        <time>2021-08-29T07:38:33Z</time>
      </trkpt>
      <trkpt lat="43.02265" lon="-0.17537">
        <ele>1043.6</ele>
        <time>2021-08-29T07:38:34Z</time>
      </trkpt>
      <trkpt lat="43.02265" lon="-0.17539">
        <ele>1043.6</ele>
        <time>2021-08-29T07:38:35Z</time>
      </trkpt>
      <trkpt lat="43.02265" lon="-0.17541">
        <ele>1043.8</ele>
        <time>2021-08-29T07:38:36Z</time>
      </trkpt>
      <trkpt lat="43.02265" lon="-0.17543">
        <ele>1043.8</ele>
        <time>2021-08-29T07:38:37Z</time>
      </trkpt>
      <trkpt lat="43.02264" lon="-0.17545">
        <ele>1044</ele>
        <time>2021-08-29T07:38:38Z</time>
      </trkpt>
      <trkpt lat="43.02264" lon="-0.17547">
        <ele>1044.2</ele>
        <time>2021-08-29T07:38:39Z</time>
      </trkpt>
      <trkpt lat="43.02264" lon="-0.17549">
        <ele>1044.4</ele>
        <time>2021-08-29T07:38:40Z</time>
      </trkpt>
      <trkpt lat="43.02263" lon="-0.17551">
        <ele>1044.6</ele>
        <time>2021-08-29T07:38:41Z</time>
      </trkpt>
      <trkpt lat="43.02263" lon="-0.17553">
        <ele>1044.6</ele>
        <time>2021-08-29T07:38:42Z</time>
      </trkpt>
      <trkpt lat="43.02263" lon="-0.17555">
        <ele>1044.8</ele>
        <time>2021-08-29T07:38:43Z</time>
      </trkpt>
      <trkpt lat="43.02263" lon="-0.17557">
        <ele>1044.8</ele>
        <time>2021-08-29T07:38:44Z</time>
      </trkpt>
      <trkpt lat="43.02263" lon="-0.17559">
        <ele>1044.8</ele>
        <time>2021-08-29T07:38:45Z</time>
      </trkpt>
      <trkpt lat="43.02263" lon="-0.17561">
        <ele>1045</ele>
        <time>2021-08-29T07:38:46Z</time>
      </trkpt>
      <trkpt lat="43.02262" lon="-0.17563">
        <ele>1045.2</ele>
        <time>2021-08-29T07:38:47Z</time>
      </trkpt>
      <trkpt lat="43.02262" lon="-0.17565">
        <ele>1045.2</ele>
        <time>2021-08-29T07:38:48Z</time>
      </trkpt>
      <trkpt lat="43.02262" lon="-0.17568">
        <ele>1045.4</ele>
        <time>2021-08-29T07:38:49Z</time>
      </trkpt>
      <trkpt lat="43.02262" lon="-0.1757">
        <ele>1045.6</ele>
        <time>2021-08-29T07:38:50Z</time>
      </trkpt>
      <trkpt lat="43.02262" lon="-0.17572">
        <ele>1045.6</ele>
        <time>2021-08-29T07:38:51Z</time>
      </trkpt>
      <trkpt lat="43.02262" lon="-0.17574">
        <ele>1045.8</ele>
        <time>2021-08-29T07:38:52Z</time>
      </trkpt>
      <trkpt lat="43.02262" lon="-0.17576">
        <ele>1045.8</ele>
        <time>2021-08-29T07:38:53Z</time>
      </trkpt>
      <trkpt lat="43.02261" lon="-0.17579">
        <ele>1046</ele>
        <time>2021-08-29T07:38:54Z</time>
      </trkpt>
      <trkpt lat="43.02261" lon="-0.17581">
        <ele>1046.2</ele>
        <time>2021-08-29T07:38:55Z</time>
      </trkpt>
      <trkpt lat="43.02261" lon="-0.17583">
        <ele>1046.4</ele>
        <time>2021-08-29T07:38:56Z</time>
      </trkpt>
      <trkpt lat="43.02261" lon="-0.17586">
        <ele>1046.8</ele>
        <time>2021-08-29T07:38:57Z</time>
      </trkpt>
      <trkpt lat="43.02261" lon="-0.17588">
        <ele>1047</ele>
        <time>2021-08-29T07:38:58Z</time>
      </trkpt>
      <trkpt lat="43.02261" lon="-0.1759">
        <ele>1047.2</ele>
        <time>2021-08-29T07:38:59Z</time>
      </trkpt>
      <trkpt lat="43.02261" lon="-0.17592">
        <ele>1047.2</ele>
        <time>2021-08-29T07:39:00Z</time>
      </trkpt>
      <trkpt lat="43.02261" lon="-0.17594">
        <ele>1047.4</ele>
        <time>2021-08-29T07:39:01Z</time>
      </trkpt>
      <trkpt lat="43.0226" lon="-0.17597">
        <ele>1047.6</ele>
        <time>2021-08-29T07:39:02Z</time>
      </trkpt>
      <trkpt lat="43.0226" lon="-0.17599">
        <ele>1047.6</ele>
        <time>2021-08-29T07:39:03Z</time>
      </trkpt>
      <trkpt lat="43.0226" lon="-0.17602">
        <ele>1047.8</ele>
        <time>2021-08-29T07:39:04Z</time>
      </trkpt>
      <trkpt lat="43.02259" lon="-0.17604">
        <ele>1047.8</ele>
        <time>2021-08-29T07:39:05Z</time>
      </trkpt>
      <trkpt lat="43.02259" lon="-0.17606">
        <ele>1048</ele>
        <time>2021-08-29T07:39:06Z</time>
      </trkpt>
      <trkpt lat="43.02258" lon="-0.17609">
        <ele>1048</ele>
        <time>2021-08-29T07:39:07Z</time>
      </trkpt>
      <trkpt lat="43.02258" lon="-0.17611">
        <ele>1048</ele>
        <time>2021-08-29T07:39:08Z</time>
      </trkpt>
      <trkpt lat="43.02257" lon="-0.17615">
        <ele>1048.2</ele>
        <time>2021-08-29T07:39:09Z</time>
      </trkpt>
      <trkpt lat="43.02257" lon="-0.17617">
        <ele>1048.2</ele>
        <time>2021-08-29T07:39:10Z</time>
      </trkpt>
      <trkpt lat="43.02256" lon="-0.17619">
        <ele>1048.2</ele>
        <time>2021-08-29T07:39:11Z</time>
      </trkpt>
      <trkpt lat="43.02256" lon="-0.17622">
        <ele>1048.4</ele>
        <time>2021-08-29T07:39:12Z</time>
      </trkpt>
      <trkpt lat="43.02255" lon="-0.17625">
        <ele>1048.4</ele>
        <time>2021-08-29T07:39:13Z</time>
      </trkpt>
      <trkpt lat="43.02255" lon="-0.17627">
        <ele>1048.6</ele>
        <time>2021-08-29T07:39:14Z</time>
      </trkpt>
      <trkpt lat="43.02254" lon="-0.1763">
        <ele>1048.6</ele>
        <time>2021-08-29T07:39:15Z</time>
      </trkpt>
      <trkpt lat="43.02254" lon="-0.17633">
        <ele>1048.8</ele>
        <time>2021-08-29T07:39:16Z</time>
      </trkpt>
      <trkpt lat="43.02253" lon="-0.17635">
        <ele>1048.8</ele>
        <time>2021-08-29T07:39:17Z</time>
      </trkpt>
      <trkpt lat="43.02253" lon="-0.17637">
        <ele>1049.2</ele>
        <time>2021-08-29T07:39:18Z</time>
      </trkpt>
      <trkpt lat="43.02253" lon="-0.1764">
        <ele>1049.2</ele>
        <time>2021-08-29T07:39:19Z</time>
      </trkpt>
      <trkpt lat="43.02252" lon="-0.17642">
        <ele>1049.4</ele>
        <time>2021-08-29T07:39:20Z</time>
      </trkpt>
      <trkpt lat="43.02252" lon="-0.17645">
        <ele>1049.4</ele>
        <time>2021-08-29T07:39:21Z</time>
      </trkpt>
      <trkpt lat="43.02251" lon="-0.17647">
        <ele>1049.6</ele>
        <time>2021-08-29T07:39:22Z</time>
      </trkpt>
      <trkpt lat="43.02251" lon="-0.1765">
        <ele>1049.6</ele>
        <time>2021-08-29T07:39:23Z</time>
      </trkpt>
      <trkpt lat="43.0225" lon="-0.17652">
        <ele>1049.8</ele>
        <time>2021-08-29T07:39:24Z</time>
      </trkpt>
      <trkpt lat="43.0225" lon="-0.17654">
        <ele>1049.8</ele>
        <time>2021-08-29T07:39:25Z</time>
      </trkpt>
      <trkpt lat="43.02249" lon="-0.17657">
        <ele>1050</ele>
        <time>2021-08-29T07:39:26Z</time>
      </trkpt>
      <trkpt lat="43.02249" lon="-0.17659">
        <ele>1050</ele>
        <time>2021-08-29T07:39:27Z</time>
      </trkpt>
      <trkpt lat="43.02248" lon="-0.17662">
        <ele>1050.2</ele>
        <time>2021-08-29T07:39:28Z</time>
      </trkpt>
      <trkpt lat="43.02247" lon="-0.17664">
        <ele>1050.2</ele>
        <time>2021-08-29T07:39:29Z</time>
      </trkpt>
      <trkpt lat="43.02247" lon="-0.17667">
        <ele>1050.2</ele>
        <time>2021-08-29T07:39:30Z</time>
      </trkpt>
      <trkpt lat="43.02246" lon="-0.17669">
        <ele>1050.4</ele>
        <time>2021-08-29T07:39:31Z</time>
      </trkpt>
      <trkpt lat="43.02246" lon="-0.17671">
        <ele>1050.4</ele>
        <time>2021-08-29T07:39:32Z</time>
      </trkpt>
      <trkpt lat="43.02245" lon="-0.17673">
        <ele>1050.6</ele>
        <time>2021-08-29T07:39:33Z</time>
      </trkpt>
      <trkpt lat="43.02245" lon="-0.17676">
        <ele>1050.6</ele>
        <time>2021-08-29T07:39:34Z</time>
      </trkpt>
      <trkpt lat="43.02244" lon="-0.17679">
        <ele>1050.8</ele>
        <time>2021-08-29T07:39:35Z</time>
      </trkpt>
      <trkpt lat="43.02243" lon="-0.17681">
        <ele>1050.8</ele>
        <time>2021-08-29T07:39:36Z</time>
      </trkpt>
      <trkpt lat="43.02243" lon="-0.17683">
        <ele>1051</ele>
        <time>2021-08-29T07:39:37Z</time>
      </trkpt>
      <trkpt lat="43.02242" lon="-0.17686">
        <ele>1051</ele>
        <time>2021-08-29T07:39:38Z</time>
      </trkpt>
      <trkpt lat="43.02242" lon="-0.17688">
        <ele>1051.2</ele>
        <time>2021-08-29T07:39:39Z</time>
      </trkpt>
      <trkpt lat="43.02241" lon="-0.17691">
        <ele>1051.2</ele>
        <time>2021-08-29T07:39:40Z</time>
      </trkpt>
      <trkpt lat="43.02241" lon="-0.17693">
        <ele>1051.4</ele>
        <time>2021-08-29T07:39:41Z</time>
      </trkpt>
      <trkpt lat="43.02241" lon="-0.17695">
        <ele>1051.6</ele>
        <time>2021-08-29T07:39:42Z</time>
      </trkpt>
      <trkpt lat="43.0224" lon="-0.17697">
        <ele>1051.8</ele>
        <time>2021-08-29T07:39:43Z</time>
      </trkpt>
      <trkpt lat="43.02238" lon="-0.17699">
        <ele>1051.8</ele>
        <time>2021-08-29T07:39:44Z</time>
      </trkpt>
      <trkpt lat="43.02237" lon="-0.17701">
        <ele>1051.8</ele>
        <time>2021-08-29T07:39:45Z</time>
      </trkpt>
      <trkpt lat="43.02236" lon="-0.17703">
        <ele>1052.2</ele>
        <time>2021-08-29T07:39:46Z</time>
      </trkpt>
      <trkpt lat="43.02235" lon="-0.17706">
        <ele>1052.2</ele>
        <time>2021-08-29T07:39:47Z</time>
      </trkpt>
      <trkpt lat="43.02234" lon="-0.17708">
        <ele>1052.4</ele>
        <time>2021-08-29T07:39:48Z</time>
      </trkpt>
      <trkpt lat="43.02234" lon="-0.1771">
        <ele>1052.4</ele>
        <time>2021-08-29T07:39:49Z</time>
      </trkpt>
      <trkpt lat="43.02233" lon="-0.17712">
        <ele>1052.6</ele>
        <time>2021-08-29T07:39:50Z</time>
      </trkpt>
      <trkpt lat="43.02232" lon="-0.17715">
        <ele>1052.8</ele>
        <time>2021-08-29T07:39:51Z</time>
      </trkpt>
      <trkpt lat="43.02232" lon="-0.17717">
        <ele>1053</ele>
        <time>2021-08-29T07:39:52Z</time>
      </trkpt>
      <trkpt lat="43.02231" lon="-0.17719">
        <ele>1053</ele>
        <time>2021-08-29T07:39:53Z</time>
      </trkpt>
      <trkpt lat="43.02231" lon="-0.17721">
        <ele>1053.2</ele>
        <time>2021-08-29T07:39:54Z</time>
      </trkpt>
      <trkpt lat="43.0223" lon="-0.17723">
        <ele>1053.2</ele>
        <time>2021-08-29T07:39:55Z</time>
      </trkpt>
      <trkpt lat="43.0223" lon="-0.17725">
        <ele>1053.4</ele>
        <time>2021-08-29T07:39:56Z</time>
      </trkpt>
      <trkpt lat="43.02229" lon="-0.17728">
        <ele>1053.4</ele>
        <time>2021-08-29T07:39:57Z</time>
      </trkpt>
      <trkpt lat="43.02229" lon="-0.1773">
        <ele>1053.8</ele>
        <time>2021-08-29T07:39:58Z</time>
      </trkpt>
      <trkpt lat="43.02228" lon="-0.17732">
        <ele>1053.8</ele>
        <time>2021-08-29T07:39:59Z</time>
      </trkpt>
      <trkpt lat="43.02228" lon="-0.17734">
        <ele>1053.8</ele>
        <time>2021-08-29T07:40:00Z</time>
      </trkpt>
      <trkpt lat="43.02227" lon="-0.17736">
        <ele>1054</ele>
        <time>2021-08-29T07:40:01Z</time>
      </trkpt>
      <trkpt lat="43.02227" lon="-0.17739">
        <ele>1054.2</ele>
        <time>2021-08-29T07:40:02Z</time>
      </trkpt>
      <trkpt lat="43.02226" lon="-0.17741">
        <ele>1054.2</ele>
        <time>2021-08-29T07:40:03Z</time>
      </trkpt>
      <trkpt lat="43.02225" lon="-0.17743">
        <ele>1054.2</ele>
        <time>2021-08-29T07:40:04Z</time>
      </trkpt>
      <trkpt lat="43.02224" lon="-0.17745">
        <ele>1054.4</ele>
        <time>2021-08-29T07:40:05Z</time>
      </trkpt>
      <trkpt lat="43.02224" lon="-0.17748">
        <ele>1054.4</ele>
        <time>2021-08-29T07:40:06Z</time>
      </trkpt>
      <trkpt lat="43.02223" lon="-0.1775">
        <ele>1054.4</ele>
        <time>2021-08-29T07:40:07Z</time>
      </trkpt>
      <trkpt lat="43.02223" lon="-0.17752">
        <ele>1054.4</ele>
        <time>2021-08-29T07:40:08Z</time>
      </trkpt>
      <trkpt lat="43.02222" lon="-0.17754">
        <ele>1054.6</ele>
        <time>2021-08-29T07:40:09Z</time>
      </trkpt>
      <trkpt lat="43.02222" lon="-0.17757">
        <ele>1054.8</ele>
        <time>2021-08-29T07:40:10Z</time>
      </trkpt>
      <trkpt lat="43.02221" lon="-0.17759">
        <ele>1055</ele>
        <time>2021-08-29T07:40:11Z</time>
      </trkpt>
      <trkpt lat="43.0222" lon="-0.17762">
        <ele>1055</ele>
        <time>2021-08-29T07:40:12Z</time>
      </trkpt>
      <trkpt lat="43.0222" lon="-0.17765">
        <ele>1055.2</ele>
        <time>2021-08-29T07:40:13Z</time>
      </trkpt>
      <trkpt lat="43.02219" lon="-0.17768">
        <ele>1055.2</ele>
        <time>2021-08-29T07:40:14Z</time>
      </trkpt>
      <trkpt lat="43.02219" lon="-0.17771">
        <ele>1055.4</ele>
        <time>2021-08-29T07:40:15Z</time>
      </trkpt>
      <trkpt lat="43.02218" lon="-0.17773">
        <ele>1055.6</ele>
        <time>2021-08-29T07:40:16Z</time>
      </trkpt>
      <trkpt lat="43.02218" lon="-0.17775">
        <ele>1055.6</ele>
        <time>2021-08-29T07:40:17Z</time>
      </trkpt>
      <trkpt lat="43.02218" lon="-0.17778">
        <ele>1055.8</ele>
        <time>2021-08-29T07:40:18Z</time>
      </trkpt>
      <trkpt lat="43.02217" lon="-0.1778">
        <ele>1055.8</ele>
        <time>2021-08-29T07:40:19Z</time>
      </trkpt>
      <trkpt lat="43.02217" lon="-0.17782">
        <ele>1055.8</ele>
        <time>2021-08-29T07:40:20Z</time>
      </trkpt>
      <trkpt lat="43.02216" lon="-0.17785">
        <ele>1055.8</ele>
        <time>2021-08-29T07:40:21Z</time>
      </trkpt>
      <trkpt lat="43.02216" lon="-0.17788">
        <ele>1056</ele>
        <time>2021-08-29T07:40:22Z</time>
      </trkpt>
      <trkpt lat="43.02216" lon="-0.1779">
        <ele>1056</ele>
        <time>2021-08-29T07:40:23Z</time>
      </trkpt>
      <trkpt lat="43.02215" lon="-0.17794">
        <ele>1056</ele>
        <time>2021-08-29T07:40:24Z</time>
      </trkpt>
      <trkpt lat="43.02215" lon="-0.17796">
        <ele>1056</ele>
        <time>2021-08-29T07:40:25Z</time>
      </trkpt>
      <trkpt lat="43.02215" lon="-0.17798">
        <ele>1056</ele>
        <time>2021-08-29T07:40:26Z</time>
      </trkpt>
      <trkpt lat="43.02213" lon="-0.17808">
        <ele>1056.4</ele>
        <time>2021-08-29T07:40:30Z</time>
      </trkpt>
      <trkpt lat="43.02212" lon="-0.17811">
        <ele>1056.4</ele>
        <time>2021-08-29T07:40:31Z</time>
      </trkpt>
      <trkpt lat="43.02211" lon="-0.17832">
        <ele>1057.4</ele>
        <time>2021-08-29T07:40:39Z</time>
      </trkpt>
      <trkpt lat="43.02212" lon="-0.17854">
        <ele>1057.8</ele>
        <time>2021-08-29T07:40:46Z</time>
      </trkpt>
      <trkpt lat="43.02213" lon="-0.17875">
        <ele>1058.4</ele>
        <time>2021-08-29T07:40:53Z</time>
      </trkpt>
      <trkpt lat="43.02213" lon="-0.17878">
        <ele>1058.6</ele>
        <time>2021-08-29T07:40:54Z</time>
      </trkpt>
      <trkpt lat="43.02213" lon="-0.1788">
        <ele>1058.8</ele>
        <time>2021-08-29T07:40:55Z</time>
      </trkpt>
      <trkpt lat="43.02209" lon="-0.17909">
        <ele>1059.6</ele>
        <time>2021-08-29T07:41:04Z</time>
      </trkpt>
      <trkpt lat="43.02206" lon="-0.17922">
        <ele>1059.6</ele>
        <time>2021-08-29T07:41:08Z</time>
      </trkpt>
      <trkpt lat="43.02205" lon="-0.17931">
        <ele>1059.8</ele>
        <time>2021-08-29T07:41:11Z</time>
      </trkpt>
      <trkpt lat="43.02204" lon="-0.17936">
        <ele>1060</ele>
        <time>2021-08-29T07:41:13Z</time>
      </trkpt>
      <trkpt lat="43.02203" lon="-0.17939">
        <ele>1060</ele>
        <time>2021-08-29T07:41:14Z</time>
      </trkpt>
      <trkpt lat="43.02202" lon="-0.17941">
        <ele>1060</ele>
        <time>2021-08-29T07:41:15Z</time>
      </trkpt>
      <trkpt lat="43.02202" lon="-0.17944">
        <ele>1060</ele>
        <time>2021-08-29T07:41:16Z</time>
      </trkpt>
      <trkpt lat="43.02201" lon="-0.17947">
        <ele>1060</ele>
        <time>2021-08-29T07:41:17Z</time>
      </trkpt>
      <trkpt lat="43.02201" lon="-0.1795">
        <ele>1060</ele>
        <time>2021-08-29T07:41:18Z</time>
      </trkpt>
      <trkpt lat="43.022" lon="-0.17953">
        <ele>1060.2</ele>
        <time>2021-08-29T07:41:19Z</time>
      </trkpt>
      <trkpt lat="43.022" lon="-0.17956">
        <ele>1060.2</ele>
        <time>2021-08-29T07:41:20Z</time>
      </trkpt>
      <trkpt lat="43.02194" lon="-0.1797">
        <ele>1061</ele>
        <time>2021-08-29T07:41:25Z</time>
      </trkpt>
      <trkpt lat="43.02191" lon="-0.17975">
        <ele>1061.2</ele>
        <time>2021-08-29T07:41:27Z</time>
      </trkpt>
      <trkpt lat="43.02181" lon="-0.17996">
        <ele>1062</ele>
        <time>2021-08-29T07:41:35Z</time>
      </trkpt>
      <trkpt lat="43.02179" lon="-0.18002">
        <ele>1062</ele>
        <time>2021-08-29T07:41:37Z</time>
      </trkpt>
      <trkpt lat="43.02172" lon="-0.18016">
        <ele>1062.4</ele>
        <time>2021-08-29T07:41:43Z</time>
      </trkpt>
      <trkpt lat="43.02171" lon="-0.1802">
        <ele>1062.8</ele>
        <time>2021-08-29T07:41:45Z</time>
      </trkpt>
      <trkpt lat="43.02169" lon="-0.18021">
        <ele>1063</ele>
        <time>2021-08-29T07:41:46Z</time>
      </trkpt>
      <trkpt lat="43.02168" lon="-0.18023">
        <ele>1063.4</ele>
        <time>2021-08-29T07:41:47Z</time>
      </trkpt>
      <trkpt lat="43.02166" lon="-0.18024">
        <ele>1063.6</ele>
        <time>2021-08-29T07:41:48Z</time>
      </trkpt>
      <trkpt lat="43.02165" lon="-0.18026">
        <ele>1063.8</ele>
        <time>2021-08-29T07:41:49Z</time>
      </trkpt>
      <trkpt lat="43.02164" lon="-0.18027">
        <ele>1063.8</ele>
        <time>2021-08-29T07:41:50Z</time>
      </trkpt>
      <trkpt lat="43.02162" lon="-0.18028">
        <ele>1064</ele>
        <time>2021-08-29T07:41:51Z</time>
      </trkpt>
      <trkpt lat="43.02161" lon="-0.1803">
        <ele>1064</ele>
        <time>2021-08-29T07:41:52Z</time>
      </trkpt>
      <trkpt lat="43.0216" lon="-0.18031">
        <ele>1064.2</ele>
        <time>2021-08-29T07:41:53Z</time>
      </trkpt>
      <trkpt lat="43.02159" lon="-0.18033">
        <ele>1064.2</ele>
        <time>2021-08-29T07:41:54Z</time>
      </trkpt>
      <trkpt lat="43.02158" lon="-0.18034">
        <ele>1064.8</ele>
        <time>2021-08-29T07:41:55Z</time>
      </trkpt>
      <trkpt lat="43.02156" lon="-0.18035">
        <ele>1064.8</ele>
        <time>2021-08-29T07:41:56Z</time>
      </trkpt>
      <trkpt lat="43.02155" lon="-0.18038">
        <ele>1065</ele>
        <time>2021-08-29T07:41:57Z</time>
      </trkpt>
      <trkpt lat="43.02153" lon="-0.18039">
        <ele>1065.2</ele>
        <time>2021-08-29T07:41:58Z</time>
      </trkpt>
      <trkpt lat="43.02152" lon="-0.18041">
        <ele>1065.4</ele>
        <time>2021-08-29T07:41:59Z</time>
      </trkpt>
      <trkpt lat="43.02151" lon="-0.18043">
        <ele>1065.6</ele>
        <time>2021-08-29T07:42:00Z</time>
      </trkpt>
      <trkpt lat="43.0215" lon="-0.18045">
        <ele>1065.8</ele>
        <time>2021-08-29T07:42:01Z</time>
      </trkpt>
      <trkpt lat="43.02149" lon="-0.18047">
        <ele>1065.8</ele>
        <time>2021-08-29T07:42:02Z</time>
      </trkpt>
      <trkpt lat="43.02147" lon="-0.1805">
        <ele>1066</ele>
        <time>2021-08-29T07:42:03Z</time>
      </trkpt>
      <trkpt lat="43.02146" lon="-0.18052">
        <ele>1066</ele>
        <time>2021-08-29T07:42:04Z</time>
      </trkpt>
      <trkpt lat="43.02145" lon="-0.18054">
        <ele>1066</ele>
        <time>2021-08-29T07:42:05Z</time>
      </trkpt>
      <trkpt lat="43.02144" lon="-0.18056">
        <ele>1066.2</ele>
        <time>2021-08-29T07:42:06Z</time>
      </trkpt>
      <trkpt lat="43.02142" lon="-0.18058">
        <ele>1066.4</ele>
        <time>2021-08-29T07:42:07Z</time>
      </trkpt>
      <trkpt lat="43.02141" lon="-0.1806">
        <ele>1066.6</ele>
        <time>2021-08-29T07:42:08Z</time>
      </trkpt>
      <trkpt lat="43.0214" lon="-0.18062">
        <ele>1066.6</ele>
        <time>2021-08-29T07:42:09Z</time>
      </trkpt>
      <trkpt lat="43.02138" lon="-0.18064">
        <ele>1066.8</ele>
        <time>2021-08-29T07:42:10Z</time>
      </trkpt>
      <trkpt lat="43.02137" lon="-0.18066">
        <ele>1066.8</ele>
        <time>2021-08-29T07:42:11Z</time>
      </trkpt>
      <trkpt lat="43.02135" lon="-0.18068">
        <ele>1067</ele>
        <time>2021-08-29T07:42:12Z</time>
      </trkpt>
      <trkpt lat="43.02134" lon="-0.1807">
        <ele>1067</ele>
        <time>2021-08-29T07:42:13Z</time>
      </trkpt>
      <trkpt lat="43.02133" lon="-0.18072">
        <ele>1067.4</ele>
        <time>2021-08-29T07:42:14Z</time>
      </trkpt>
      <trkpt lat="43.02131" lon="-0.18074">
        <ele>1067.4</ele>
        <time>2021-08-29T07:42:15Z</time>
      </trkpt>
      <trkpt lat="43.02129" lon="-0.18076">
        <ele>1067.6</ele>
        <time>2021-08-29T07:42:16Z</time>
      </trkpt>
      <trkpt lat="43.02128" lon="-0.18078">
        <ele>1067.6</ele>
        <time>2021-08-29T07:42:17Z</time>
      </trkpt>
      <trkpt lat="43.02127" lon="-0.1808">
        <ele>1067.8</ele>
        <time>2021-08-29T07:42:18Z</time>
      </trkpt>
      <trkpt lat="43.02125" lon="-0.18081">
        <ele>1068</ele>
        <time>2021-08-29T07:42:19Z</time>
      </trkpt>
      <trkpt lat="43.02124" lon="-0.18083">
        <ele>1068.2</ele>
        <time>2021-08-29T07:42:20Z</time>
      </trkpt>
      <trkpt lat="43.02123" lon="-0.18085">
        <ele>1068.2</ele>
        <time>2021-08-29T07:42:21Z</time>
      </trkpt>
      <trkpt lat="43.02122" lon="-0.18087">
        <ele>1068.2</ele>
        <time>2021-08-29T07:42:22Z</time>
      </trkpt>
      <trkpt lat="43.02121" lon="-0.18089">
        <ele>1068.4</ele>
        <time>2021-08-29T07:42:23Z</time>
      </trkpt>
      <trkpt lat="43.0212" lon="-0.18091">
        <ele>1068.4</ele>
        <time>2021-08-29T07:42:24Z</time>
      </trkpt>
      <trkpt lat="43.02118" lon="-0.18094">
        <ele>1068.4</ele>
        <time>2021-08-29T07:42:25Z</time>
      </trkpt>
      <trkpt lat="43.02118" lon="-0.18096">
        <ele>1068.6</ele>
        <time>2021-08-29T07:42:26Z</time>
      </trkpt>
      <trkpt lat="43.02117" lon="-0.18098">
        <ele>1068.6</ele>
        <time>2021-08-29T07:42:27Z</time>
      </trkpt>
      <trkpt lat="43.02115" lon="-0.181">
        <ele>1068.6</ele>
        <time>2021-08-29T07:42:28Z</time>
      </trkpt>
      <trkpt lat="43.02113" lon="-0.18102">
        <ele>1068.8</ele>
        <time>2021-08-29T07:42:29Z</time>
      </trkpt>
      <trkpt lat="43.02111" lon="-0.18103">
        <ele>1068.8</ele>
        <time>2021-08-29T07:42:30Z</time>
      </trkpt>
      <trkpt lat="43.02109" lon="-0.18105">
        <ele>1068.8</ele>
        <time>2021-08-29T07:42:31Z</time>
      </trkpt>
      <trkpt lat="43.02108" lon="-0.18108">
        <ele>1068.8</ele>
        <time>2021-08-29T07:42:32Z</time>
      </trkpt>
      <trkpt lat="43.02106" lon="-0.18111">
        <ele>1068.8</ele>
        <time>2021-08-29T07:42:33Z</time>
      </trkpt>
      <trkpt lat="43.02105" lon="-0.18114">
        <ele>1068.8</ele>
        <time>2021-08-29T07:42:34Z</time>
      </trkpt>
      <trkpt lat="43.02104" lon="-0.18117">
        <ele>1069</ele>
        <time>2021-08-29T07:42:35Z</time>
      </trkpt>
      <trkpt lat="43.02102" lon="-0.1812">
        <ele>1068.8</ele>
        <time>2021-08-29T07:42:36Z</time>
      </trkpt>
      <trkpt lat="43.02101" lon="-0.18122">
        <ele>1068.8</ele>
        <time>2021-08-29T07:42:37Z</time>
      </trkpt>
      <trkpt lat="43.021" lon="-0.18124">
        <ele>1068.8</ele>
        <time>2021-08-29T07:42:38Z</time>
      </trkpt>
      <trkpt lat="43.02099" lon="-0.18127">
        <ele>1068.8</ele>
        <time>2021-08-29T07:42:39Z</time>
      </trkpt>
      <trkpt lat="43.02099" lon="-0.18127">
        <ele>1068.6</ele>
        <time>2021-08-29T07:42:40Z</time>
      </trkpt>
      <trkpt lat="43.02099" lon="-0.18127">
        <ele>1068.4</ele>
        <time>2021-08-29T07:42:41Z</time>
      </trkpt>
      <trkpt lat="43.02099" lon="-0.18127">
        <ele>1067.6</ele>
        <time>2021-08-29T07:42:52Z</time>
      </trkpt>
      <trkpt lat="43.02096" lon="-0.18134">
        <ele>1067.4</ele>
        <time>2021-08-29T07:43:14Z</time>
      </trkpt>
      <trkpt lat="43.0209" lon="-0.18149">
        <ele>1067.4</ele>
        <time>2021-08-29T07:43:17Z</time>
      </trkpt>
      <trkpt lat="43.02088" lon="-0.18162">
        <ele>1067.2</ele>
        <time>2021-08-29T07:43:19Z</time>
      </trkpt>
      <trkpt lat="43.02088" lon="-0.18175">
        <ele>1067</ele>
        <time>2021-08-29T07:43:21Z</time>
      </trkpt>
      <trkpt lat="43.02088" lon="-0.18182">
        <ele>1066.8</ele>
        <time>2021-08-29T07:43:22Z</time>
      </trkpt>
      <trkpt lat="43.02089" lon="-0.18189">
        <ele>1066.6</ele>
        <time>2021-08-29T07:43:23Z</time>
      </trkpt>
      <trkpt lat="43.0209" lon="-0.18196">
        <ele>1066.4</ele>
        <time>2021-08-29T07:43:24Z</time>
      </trkpt>
      <trkpt lat="43.0209" lon="-0.18204">
        <ele>1066.2</ele>
        <time>2021-08-29T07:43:25Z</time>
      </trkpt>
      <trkpt lat="43.02091" lon="-0.18219">
        <ele>1065.8</ele>
        <time>2021-08-29T07:43:27Z</time>
      </trkpt>
      <trkpt lat="43.02088" lon="-0.18235">
        <ele>1064.6</ele>
        <time>2021-08-29T07:43:29Z</time>
      </trkpt>
      <trkpt lat="43.02082" lon="-0.18256">
        <ele>1063.8</ele>
        <time>2021-08-29T07:43:32Z</time>
      </trkpt>
      <trkpt lat="43.02079" lon="-0.18261">
        <ele>1063.6</ele>
        <time>2021-08-29T07:43:33Z</time>
      </trkpt>
      <trkpt lat="43.02076" lon="-0.18266">
        <ele>1063.2</ele>
        <time>2021-08-29T07:43:34Z</time>
      </trkpt>
      <trkpt lat="43.02074" lon="-0.18271">
        <ele>1062.8</ele>
        <time>2021-08-29T07:43:35Z</time>
      </trkpt>
      <trkpt lat="43.02073" lon="-0.18277">
        <ele>1062.6</ele>
        <time>2021-08-29T07:43:36Z</time>
      </trkpt>
      <trkpt lat="43.02071" lon="-0.18282">
        <ele>1062.4</ele>
        <time>2021-08-29T07:43:37Z</time>
      </trkpt>
      <trkpt lat="43.0207" lon="-0.18288">
        <ele>1062.4</ele>
        <time>2021-08-29T07:43:38Z</time>
      </trkpt>
      <trkpt lat="43.02068" lon="-0.18294">
        <ele>1062</ele>
        <time>2021-08-29T07:43:39Z</time>
      </trkpt>
      <trkpt lat="43.02066" lon="-0.18299">
        <ele>1061.8</ele>
        <time>2021-08-29T07:43:40Z</time>
      </trkpt>
      <trkpt lat="43.02063" lon="-0.18303">
        <ele>1061.4</ele>
        <time>2021-08-29T07:43:41Z</time>
      </trkpt>
      <trkpt lat="43.0206" lon="-0.18306">
        <ele>1061.4</ele>
        <time>2021-08-29T07:43:42Z</time>
      </trkpt>
      <trkpt lat="43.02054" lon="-0.1831">
        <ele>1060.8</ele>
        <time>2021-08-29T07:43:44Z</time>
      </trkpt>
      <trkpt lat="43.02051" lon="-0.18311">
        <ele>1059.8</ele>
        <time>2021-08-29T07:43:45Z</time>
      </trkpt>
      <trkpt lat="43.02048" lon="-0.18312">
        <ele>1059.6</ele>
        <time>2021-08-29T07:43:46Z</time>
      </trkpt>
      <trkpt lat="43.02045" lon="-0.18313">
        <ele>1059.4</ele>
        <time>2021-08-29T07:43:47Z</time>
      </trkpt>
      <trkpt lat="43.02039" lon="-0.18316">
        <ele>1058.8</ele>
        <time>2021-08-29T07:43:49Z</time>
      </trkpt>
      <trkpt lat="43.02035" lon="-0.18318">
        <ele>1058.6</ele>
        <time>2021-08-29T07:43:50Z</time>
      </trkpt>
      <trkpt lat="43.02031" lon="-0.18319">
        <ele>1058.2</ele>
        <time>2021-08-29T07:43:51Z</time>
      </trkpt>
      <trkpt lat="43.02027" lon="-0.1832">
        <ele>1057.8</ele>
        <time>2021-08-29T07:43:52Z</time>
      </trkpt>
      <trkpt lat="43.0202" lon="-0.1832">
        <ele>1056.8</ele>
        <time>2021-08-29T07:43:54Z</time>
      </trkpt>
      <trkpt lat="43.02017" lon="-0.18319">
        <ele>1056.6</ele>
        <time>2021-08-29T07:43:55Z</time>
      </trkpt>
      <trkpt lat="43.02013" lon="-0.18319">
        <ele>1056.4</ele>
        <time>2021-08-29T07:43:56Z</time>
      </trkpt>
      <trkpt lat="43.01993" lon="-0.1831">
        <ele>1055.6</ele>
        <time>2021-08-29T07:44:00Z</time>
      </trkpt>
      <trkpt lat="43.01987" lon="-0.18308">
        <ele>1055.2</ele>
        <time>2021-08-29T07:44:01Z</time>
      </trkpt>
      <trkpt lat="43.01976" lon="-0.18302">
        <ele>1054.4</ele>
        <time>2021-08-29T07:44:03Z</time>
      </trkpt>
      <trkpt lat="43.0197" lon="-0.18299">
        <ele>1054</ele>
        <time>2021-08-29T07:44:04Z</time>
      </trkpt>
      <trkpt lat="43.01944" lon="-0.18292">
        <ele>1053.4</ele>
        <time>2021-08-29T07:44:08Z</time>
      </trkpt>
      <trkpt lat="43.01932" lon="-0.18287">
        <ele>1053</ele>
        <time>2021-08-29T07:44:10Z</time>
      </trkpt>
      <trkpt lat="43.01928" lon="-0.18285">
        <ele>1052.8</ele>
        <time>2021-08-29T07:44:11Z</time>
      </trkpt>
      <trkpt lat="43.01922" lon="-0.1828">
        <ele>1052.6</ele>
        <time>2021-08-29T07:44:12Z</time>
      </trkpt>
      <trkpt lat="43.01917" lon="-0.18277">
        <ele>1052.4</ele>
        <time>2021-08-29T07:44:13Z</time>
      </trkpt>
      <trkpt lat="43.01912" lon="-0.18273">
        <ele>1052.2</ele>
        <time>2021-08-29T07:44:14Z</time>
      </trkpt>
      <trkpt lat="43.01909" lon="-0.18271">
        <ele>1051.8</ele>
        <time>2021-08-29T07:44:15Z</time>
      </trkpt>
      <trkpt lat="43.01906" lon="-0.18269">
        <ele>1051.6</ele>
        <time>2021-08-29T07:44:16Z</time>
      </trkpt>
      <trkpt lat="43.01902" lon="-0.18265">
        <ele>1051.2</ele>
        <time>2021-08-29T07:44:17Z</time>
      </trkpt>
      <trkpt lat="43.01898" lon="-0.18262">
        <ele>1050.8</ele>
        <time>2021-08-29T07:44:18Z</time>
      </trkpt>
      <trkpt lat="43.01895" lon="-0.1826">
        <ele>1050.2</ele>
        <time>2021-08-29T07:44:19Z</time>
      </trkpt>
      <trkpt lat="43.01891" lon="-0.18257">
        <ele>1050.2</ele>
        <time>2021-08-29T07:44:20Z</time>
      </trkpt>
      <trkpt lat="43.01887" lon="-0.18256">
        <ele>1050</ele>
        <time>2021-08-29T07:44:21Z</time>
      </trkpt>
      <trkpt lat="43.01879" lon="-0.18251">
        <ele>1049.6</ele>
        <time>2021-08-29T07:44:23Z</time>
      </trkpt>
      <trkpt lat="43.01875" lon="-0.18249">
        <ele>1049</ele>
        <time>2021-08-29T07:44:24Z</time>
      </trkpt>
      <trkpt lat="43.01872" lon="-0.18247">
        <ele>1048.8</ele>
        <time>2021-08-29T07:44:25Z</time>
      </trkpt>
      <trkpt lat="43.01869" lon="-0.18246">
        <ele>1048.8</ele>
        <time>2021-08-29T07:44:26Z</time>
      </trkpt>
      <trkpt lat="43.01865" lon="-0.18245">
        <ele>1048.6</ele>
        <time>2021-08-29T07:44:27Z</time>
      </trkpt>
      <trkpt lat="43.01862" lon="-0.18244">
        <ele>1048.6</ele>
        <time>2021-08-29T07:44:28Z</time>
      </trkpt>
      <trkpt lat="43.01859" lon="-0.18244">
        <ele>1048.6</ele>
        <time>2021-08-29T07:44:29Z</time>
      </trkpt>
      <trkpt lat="43.01851" lon="-0.18243">
        <ele>1048.4</ele>
        <time>2021-08-29T07:44:32Z</time>
      </trkpt>
      <trkpt lat="43.01847" lon="-0.18242">
        <ele>1048.4</ele>
        <time>2021-08-29T07:44:33Z</time>
      </trkpt>
      <trkpt lat="43.01844" lon="-0.18241">
        <ele>1048.4</ele>
        <time>2021-08-29T07:44:34Z</time>
      </trkpt>
      <trkpt lat="43.01824" lon="-0.18235">
        <ele>1048.2</ele>
        <time>2021-08-29T07:44:39Z</time>
      </trkpt>
      <trkpt lat="43.01808" lon="-0.18229">
        <ele>1048</ele>
        <time>2021-08-29T07:44:42Z</time>
      </trkpt>
      <trkpt lat="43.01801" lon="-0.18226">
        <ele>1048</ele>
        <time>2021-08-29T07:44:43Z</time>
      </trkpt>
      <trkpt lat="43.01795" lon="-0.18224">
        <ele>1047.8</ele>
        <time>2021-08-29T07:44:44Z</time>
      </trkpt>
      <trkpt lat="43.01783" lon="-0.18219">
        <ele>1047</ele>
        <time>2021-08-29T07:44:46Z</time>
      </trkpt>
      <trkpt lat="43.01777" lon="-0.18216">
        <ele>1046</ele>
        <time>2021-08-29T07:44:47Z</time>
      </trkpt>
      <trkpt lat="43.01765" lon="-0.1821">
        <ele>1044</ele>
        <time>2021-08-29T07:44:49Z</time>
      </trkpt>
      <trkpt lat="43.0176" lon="-0.18207">
        <ele>1043.6</ele>
        <time>2021-08-29T07:44:50Z</time>
      </trkpt>
      <trkpt lat="43.01756" lon="-0.18204">
        <ele>1042.8</ele>
        <time>2021-08-29T07:44:51Z</time>
      </trkpt>
      <trkpt lat="43.01751" lon="-0.18203">
        <ele>1041.8</ele>
        <time>2021-08-29T07:44:52Z</time>
      </trkpt>
      <trkpt lat="43.01747" lon="-0.182">
        <ele>1040.2</ele>
        <time>2021-08-29T07:44:53Z</time>
      </trkpt>
      <trkpt lat="43.01744" lon="-0.18198">
        <ele>1039.6</ele>
        <time>2021-08-29T07:44:54Z</time>
      </trkpt>
      <trkpt lat="43.01741" lon="-0.18196">
        <ele>1038.6</ele>
        <time>2021-08-29T07:44:55Z</time>
      </trkpt>
      <trkpt lat="43.01738" lon="-0.18193">
        <ele>1037.8</ele>
        <time>2021-08-29T07:44:56Z</time>
      </trkpt>
      <trkpt lat="43.01733" lon="-0.1819">
        <ele>1037.4</ele>
        <time>2021-08-29T07:44:57Z</time>
      </trkpt>
      <trkpt lat="43.01728" lon="-0.18187">
        <ele>1036.4</ele>
        <time>2021-08-29T07:44:58Z</time>
      </trkpt>
      <trkpt lat="43.01723" lon="-0.18185">
        <ele>1036</ele>
        <time>2021-08-29T07:44:59Z</time>
      </trkpt>
      <trkpt lat="43.01717" lon="-0.18184">
        <ele>1034.8</ele>
        <time>2021-08-29T07:45:00Z</time>
      </trkpt>
      <trkpt lat="43.01711" lon="-0.18183">
        <ele>1034.6</ele>
        <time>2021-08-29T07:45:01Z</time>
      </trkpt>
      <trkpt lat="43.01698" lon="-0.18181">
        <ele>1033.4</ele>
        <time>2021-08-29T07:45:03Z</time>
      </trkpt>
      <trkpt lat="43.01692" lon="-0.1818">
        <ele>1031.8</ele>
        <time>2021-08-29T07:45:04Z</time>
      </trkpt>
      <trkpt lat="43.01677" lon="-0.18178">
        <ele>1030</ele>
        <time>2021-08-29T07:45:06Z</time>
      </trkpt>
      <trkpt lat="43.01664" lon="-0.18179">
        <ele>1028.6</ele>
        <time>2021-08-29T07:45:08Z</time>
      </trkpt>
      <trkpt lat="43.01657" lon="-0.18181">
        <ele>1028.2</ele>
        <time>2021-08-29T07:45:09Z</time>
      </trkpt>
      <trkpt lat="43.01651" lon="-0.18183">
        <ele>1027.2</ele>
        <time>2021-08-29T07:45:10Z</time>
      </trkpt>
      <trkpt lat="43.0164" lon="-0.18185">
        <ele>1024</ele>
        <time>2021-08-29T07:45:12Z</time>
      </trkpt>
      <trkpt lat="43.01633" lon="-0.18185">
        <ele>1022.6</ele>
        <time>2021-08-29T07:45:13Z</time>
      </trkpt>
      <trkpt lat="43.01621" lon="-0.18183">
        <ele>1021</ele>
        <time>2021-08-29T07:45:15Z</time>
      </trkpt>
      <trkpt lat="43.01607" lon="-0.18183">
        <ele>1019</ele>
        <time>2021-08-29T07:45:17Z</time>
      </trkpt>
      <trkpt lat="43.016" lon="-0.18182">
        <ele>1018</ele>
        <time>2021-08-29T07:45:18Z</time>
      </trkpt>
      <trkpt lat="43.01593" lon="-0.18182">
        <ele>1016.2</ele>
        <time>2021-08-29T07:45:19Z</time>
      </trkpt>
      <trkpt lat="43.01579" lon="-0.1818">
        <ele>1014.2</ele>
        <time>2021-08-29T07:45:21Z</time>
      </trkpt>
      <trkpt lat="43.01563" lon="-0.18175">
        <ele>1011.8</ele>
        <time>2021-08-29T07:45:23Z</time>
      </trkpt>
      <trkpt lat="43.01546" lon="-0.18171">
        <ele>1010.4</ele>
        <time>2021-08-29T07:45:25Z</time>
      </trkpt>
      <trkpt lat="43.0153" lon="-0.1817">
        <ele>1008.2</ele>
        <time>2021-08-29T07:45:27Z</time>
      </trkpt>
      <trkpt lat="43.01523" lon="-0.18171">
        <ele>1007.6</ele>
        <time>2021-08-29T07:45:28Z</time>
      </trkpt>
      <trkpt lat="43.01515" lon="-0.18173">
        <ele>1006.2</ele>
        <time>2021-08-29T07:45:29Z</time>
      </trkpt>
      <trkpt lat="43.01508" lon="-0.18175">
        <ele>1004.2</ele>
        <time>2021-08-29T07:45:30Z</time>
      </trkpt>
      <trkpt lat="43.015" lon="-0.18176">
        <ele>1003.6</ele>
        <time>2021-08-29T07:45:31Z</time>
      </trkpt>
      <trkpt lat="43.01492" lon="-0.18177">
        <ele>1002</ele>
        <time>2021-08-29T07:45:32Z</time>
      </trkpt>
      <trkpt lat="43.01476" lon="-0.18178">
        <ele>1000.6</ele>
        <time>2021-08-29T07:45:34Z</time>
      </trkpt>
      <trkpt lat="43.0146" lon="-0.18181">
        <ele>999.2</ele>
        <time>2021-08-29T07:45:36Z</time>
      </trkpt>
      <trkpt lat="43.01442" lon="-0.18186">
        <ele>997.2</ele>
        <time>2021-08-29T07:45:38Z</time>
      </trkpt>
      <trkpt lat="43.01424" lon="-0.18193">
        <ele>995.2</ele>
        <time>2021-08-29T07:45:40Z</time>
      </trkpt>
      <trkpt lat="43.01404" lon="-0.18202">
        <ele>993.2</ele>
        <time>2021-08-29T07:45:42Z</time>
      </trkpt>
      <trkpt lat="43.01389" lon="-0.18211">
        <ele>991.2</ele>
        <time>2021-08-29T07:45:44Z</time>
      </trkpt>
      <trkpt lat="43.01379" lon="-0.18218">
        <ele>990.6</ele>
        <time>2021-08-29T07:45:45Z</time>
      </trkpt>
      <trkpt lat="43.01373" lon="-0.18224">
        <ele>989.6</ele>
        <time>2021-08-29T07:45:46Z</time>
      </trkpt>
      <trkpt lat="43.01358" lon="-0.18236">
        <ele>988.2</ele>
        <time>2021-08-29T07:45:48Z</time>
      </trkpt>
      <trkpt lat="43.01351" lon="-0.18243">
        <ele>987.6</ele>
        <time>2021-08-29T07:45:49Z</time>
      </trkpt>
      <trkpt lat="43.01344" lon="-0.18249">
        <ele>987.2</ele>
        <time>2021-08-29T07:45:50Z</time>
      </trkpt>
      <trkpt lat="43.01338" lon="-0.18254">
        <ele>986.8</ele>
        <time>2021-08-29T07:45:51Z</time>
      </trkpt>
      <trkpt lat="43.01332" lon="-0.18258">
        <ele>986.6</ele>
        <time>2021-08-29T07:45:52Z</time>
      </trkpt>
      <trkpt lat="43.01326" lon="-0.18263">
        <ele>986.4</ele>
        <time>2021-08-29T07:45:53Z</time>
      </trkpt>
      <trkpt lat="43.01321" lon="-0.18267">
        <ele>986.4</ele>
        <time>2021-08-29T07:45:54Z</time>
      </trkpt>
      <trkpt lat="43.01316" lon="-0.18271">
        <ele>986.4</ele>
        <time>2021-08-29T07:45:55Z</time>
      </trkpt>
      <trkpt lat="43.01311" lon="-0.18275">
        <ele>986.4</ele>
        <time>2021-08-29T07:45:56Z</time>
      </trkpt>
      <trkpt lat="43.01306" lon="-0.18279">
        <ele>986.4</ele>
        <time>2021-08-29T07:45:57Z</time>
      </trkpt>
      <trkpt lat="43.01302" lon="-0.18281">
        <ele>986.4</ele>
        <time>2021-08-29T07:45:58Z</time>
      </trkpt>
      <trkpt lat="43.01299" lon="-0.18284">
        <ele>986.4</ele>
        <time>2021-08-29T07:45:59Z</time>
      </trkpt>
      <trkpt lat="43.01296" lon="-0.18287">
        <ele>986.4</ele>
        <time>2021-08-29T07:46:00Z</time>
      </trkpt>
      <trkpt lat="43.01292" lon="-0.18289">
        <ele>986.6</ele>
        <time>2021-08-29T07:46:01Z</time>
      </trkpt>
      <trkpt lat="43.01288" lon="-0.1829">
        <ele>986.6</ele>
        <time>2021-08-29T07:46:02Z</time>
      </trkpt>
      <trkpt lat="43.01284" lon="-0.18292">
        <ele>986.6</ele>
        <time>2021-08-29T07:46:03Z</time>
      </trkpt>
      <trkpt lat="43.01276" lon="-0.18294">
        <ele>987</ele>
        <time>2021-08-29T07:46:05Z</time>
      </trkpt>
      <trkpt lat="43.01268" lon="-0.18296">
        <ele>987</ele>
        <time>2021-08-29T07:46:07Z</time>
      </trkpt>
      <trkpt lat="43.01264" lon="-0.18296">
        <ele>987.2</ele>
        <time>2021-08-29T07:46:08Z</time>
      </trkpt>
      <trkpt lat="43.01261" lon="-0.18297">
        <ele>987.2</ele>
        <time>2021-08-29T07:46:09Z</time>
      </trkpt>
      <trkpt lat="43.01258" lon="-0.18298">
        <ele>987.2</ele>
        <time>2021-08-29T07:46:10Z</time>
      </trkpt>
      <trkpt lat="43.01256" lon="-0.18298">
        <ele>987.2</ele>
        <time>2021-08-29T07:46:11Z</time>
      </trkpt>
      <trkpt lat="43.01253" lon="-0.18298">
        <ele>987.2</ele>
        <time>2021-08-29T07:46:12Z</time>
      </trkpt>
      <trkpt lat="43.01238" lon="-0.183">
        <ele>987</ele>
        <time>2021-08-29T07:46:16Z</time>
      </trkpt>
      <trkpt lat="43.01232" lon="-0.18305">
        <ele>986.6</ele>
        <time>2021-08-29T07:46:18Z</time>
      </trkpt>
      <trkpt lat="43.0123" lon="-0.18308">
        <ele>986.4</ele>
        <time>2021-08-29T07:46:19Z</time>
      </trkpt>
      <trkpt lat="43.01228" lon="-0.1831">
        <ele>986</ele>
        <time>2021-08-29T07:46:20Z</time>
      </trkpt>
      <trkpt lat="43.01227" lon="-0.18313">
        <ele>986</ele>
        <time>2021-08-29T07:46:21Z</time>
      </trkpt>
      <trkpt lat="43.01225" lon="-0.18315">
        <ele>986</ele>
        <time>2021-08-29T07:46:22Z</time>
      </trkpt>
      <trkpt lat="43.01224" lon="-0.18317">
        <ele>985.8</ele>
        <time>2021-08-29T07:46:23Z</time>
      </trkpt>
      <trkpt lat="43.01222" lon="-0.1832">
        <ele>985.8</ele>
        <time>2021-08-29T07:46:24Z</time>
      </trkpt>
      <trkpt lat="43.01221" lon="-0.18322">
        <ele>985.8</ele>
        <time>2021-08-29T07:46:25Z</time>
      </trkpt>
      <trkpt lat="43.01218" lon="-0.18326">
        <ele>986.4</ele>
        <time>2021-08-29T07:46:27Z</time>
      </trkpt>
      <trkpt lat="43.01216" lon="-0.18329">
        <ele>986.4</ele>
        <time>2021-08-29T07:46:28Z</time>
      </trkpt>
      <trkpt lat="43.01214" lon="-0.1833">
        <ele>986.8</ele>
        <time>2021-08-29T07:46:29Z</time>
      </trkpt>
      <trkpt lat="43.01212" lon="-0.18332">
        <ele>986.8</ele>
        <time>2021-08-29T07:46:30Z</time>
      </trkpt>
      <trkpt lat="43.0121" lon="-0.18335">
        <ele>987</ele>
        <time>2021-08-29T07:46:31Z</time>
      </trkpt>
      <trkpt lat="43.01208" lon="-0.18337">
        <ele>987.2</ele>
        <time>2021-08-29T07:46:32Z</time>
      </trkpt>
      <trkpt lat="43.01203" lon="-0.18346">
        <ele>987.8</ele>
        <time>2021-08-29T07:46:36Z</time>
      </trkpt>
      <trkpt lat="43.01201" lon="-0.18348">
        <ele>988.2</ele>
        <time>2021-08-29T07:46:37Z</time>
      </trkpt>
      <trkpt lat="43.012" lon="-0.1835">
        <ele>988.2</ele>
        <time>2021-08-29T07:46:38Z</time>
      </trkpt>
      <trkpt lat="43.01198" lon="-0.18353">
        <ele>988.4</ele>
        <time>2021-08-29T07:46:39Z</time>
      </trkpt>
      <trkpt lat="43.01194" lon="-0.18358">
        <ele>989.6</ele>
        <time>2021-08-29T07:46:42Z</time>
      </trkpt>
      <trkpt lat="43.01192" lon="-0.1836">
        <ele>989.8</ele>
        <time>2021-08-29T07:46:43Z</time>
      </trkpt>
      <trkpt lat="43.01191" lon="-0.18361">
        <ele>990.2</ele>
        <time>2021-08-29T07:46:44Z</time>
      </trkpt>
      <trkpt lat="43.01189" lon="-0.18363">
        <ele>990.4</ele>
        <time>2021-08-29T07:46:45Z</time>
      </trkpt>
      <trkpt lat="43.01188" lon="-0.18365">
        <ele>990.6</ele>
        <time>2021-08-29T07:46:46Z</time>
      </trkpt>
      <trkpt lat="43.01186" lon="-0.18366">
        <ele>990.6</ele>
        <time>2021-08-29T07:46:47Z</time>
      </trkpt>
      <trkpt lat="43.01184" lon="-0.18369">
        <ele>990.8</ele>
        <time>2021-08-29T07:46:48Z</time>
      </trkpt>
      <trkpt lat="43.01183" lon="-0.18371">
        <ele>991</ele>
        <time>2021-08-29T07:46:49Z</time>
      </trkpt>
      <trkpt lat="43.01181" lon="-0.18374">
        <ele>991.2</ele>
        <time>2021-08-29T07:46:50Z</time>
      </trkpt>
      <trkpt lat="43.01179" lon="-0.18376">
        <ele>991.2</ele>
        <time>2021-08-29T07:46:51Z</time>
      </trkpt>
      <trkpt lat="43.01177" lon="-0.18378">
        <ele>991.6</ele>
        <time>2021-08-29T07:46:52Z</time>
      </trkpt>
      <trkpt lat="43.01176" lon="-0.1838">
        <ele>991.8</ele>
        <time>2021-08-29T07:46:53Z</time>
      </trkpt>
      <trkpt lat="43.01174" lon="-0.18382">
        <ele>992</ele>
        <time>2021-08-29T07:46:54Z</time>
      </trkpt>
      <trkpt lat="43.01173" lon="-0.18384">
        <ele>992.2</ele>
        <time>2021-08-29T07:46:55Z</time>
      </trkpt>
      <trkpt lat="43.01171" lon="-0.18386">
        <ele>992.4</ele>
        <time>2021-08-29T07:46:56Z</time>
      </trkpt>
      <trkpt lat="43.01169" lon="-0.18388">
        <ele>992.4</ele>
        <time>2021-08-29T07:46:57Z</time>
      </trkpt>
      <trkpt lat="43.01168" lon="-0.1839">
        <ele>992.6</ele>
        <time>2021-08-29T07:46:58Z</time>
      </trkpt>
      <trkpt lat="43.01166" lon="-0.18392">
        <ele>992.8</ele>
        <time>2021-08-29T07:46:59Z</time>
      </trkpt>
      <trkpt lat="43.01165" lon="-0.18393">
        <ele>992.8</ele>
        <time>2021-08-29T07:47:00Z</time>
      </trkpt>
      <trkpt lat="43.01163" lon="-0.18395">
        <ele>993</ele>
        <time>2021-08-29T07:47:01Z</time>
      </trkpt>
      <trkpt lat="43.01162" lon="-0.18396">
        <ele>993.2</ele>
        <time>2021-08-29T07:47:02Z</time>
      </trkpt>
      <trkpt lat="43.0116" lon="-0.18397">
        <ele>993.4</ele>
        <time>2021-08-29T07:47:03Z</time>
      </trkpt>
      <trkpt lat="43.01159" lon="-0.18398">
        <ele>993.4</ele>
        <time>2021-08-29T07:47:04Z</time>
      </trkpt>
      <trkpt lat="43.01157" lon="-0.184">
        <ele>993.8</ele>
        <time>2021-08-29T07:47:05Z</time>
      </trkpt>
      <trkpt lat="43.01155" lon="-0.18401">
        <ele>993.8</ele>
        <time>2021-08-29T07:47:06Z</time>
      </trkpt>
      <trkpt lat="43.01153" lon="-0.18403">
        <ele>994.2</ele>
        <time>2021-08-29T07:47:07Z</time>
      </trkpt>
      <trkpt lat="43.01152" lon="-0.18404">
        <ele>994.2</ele>
        <time>2021-08-29T07:47:08Z</time>
      </trkpt>
      <trkpt lat="43.0115" lon="-0.18406">
        <ele>994.4</ele>
        <time>2021-08-29T07:47:09Z</time>
      </trkpt>
      <trkpt lat="43.01149" lon="-0.18408">
        <ele>994.6</ele>
        <time>2021-08-29T07:47:10Z</time>
      </trkpt>
      <trkpt lat="43.01148" lon="-0.18409">
        <ele>994.6</ele>
        <time>2021-08-29T07:47:11Z</time>
      </trkpt>
      <trkpt lat="43.01146" lon="-0.18411">
        <ele>994.8</ele>
        <time>2021-08-29T07:47:12Z</time>
      </trkpt>
      <trkpt lat="43.01145" lon="-0.18411">
        <ele>995</ele>
        <time>2021-08-29T07:47:13Z</time>
      </trkpt>
      <trkpt lat="43.01144" lon="-0.18412">
        <ele>995.2</ele>
        <time>2021-08-29T07:47:14Z</time>
      </trkpt>
      <trkpt lat="43.01143" lon="-0.18413">
        <ele>995.4</ele>
        <time>2021-08-29T07:47:15Z</time>
      </trkpt>
      <trkpt lat="43.01141" lon="-0.18415">
        <ele>995.6</ele>
        <time>2021-08-29T07:47:16Z</time>
      </trkpt>
      <trkpt lat="43.0114" lon="-0.18416">
        <ele>995.8</ele>
        <time>2021-08-29T07:47:17Z</time>
      </trkpt>
      <trkpt lat="43.01138" lon="-0.18417">
        <ele>996</ele>
        <time>2021-08-29T07:47:18Z</time>
      </trkpt>
      <trkpt lat="43.01136" lon="-0.18419">
        <ele>996</ele>
        <time>2021-08-29T07:47:19Z</time>
      </trkpt>
      <trkpt lat="43.01135" lon="-0.1842">
        <ele>996.2</ele>
        <time>2021-08-29T07:47:20Z</time>
      </trkpt>
      <trkpt lat="43.01133" lon="-0.18422">
        <ele>996.2</ele>
        <time>2021-08-29T07:47:21Z</time>
      </trkpt>
      <trkpt lat="43.01132" lon="-0.18423">
        <ele>996.6</ele>
        <time>2021-08-29T07:47:22Z</time>
      </trkpt>
      <trkpt lat="43.0113" lon="-0.18426">
        <ele>996.6</ele>
        <time>2021-08-29T07:47:23Z</time>
      </trkpt>
      <trkpt lat="43.01129" lon="-0.18428">
        <ele>996.8</ele>
        <time>2021-08-29T07:47:24Z</time>
      </trkpt>
      <trkpt lat="43.01127" lon="-0.18429">
        <ele>997</ele>
        <time>2021-08-29T07:47:25Z</time>
      </trkpt>
      <trkpt lat="43.01126" lon="-0.18431">
        <ele>997.2</ele>
        <time>2021-08-29T07:47:26Z</time>
      </trkpt>
      <trkpt lat="43.01124" lon="-0.18433">
        <ele>997.2</ele>
        <time>2021-08-29T07:47:27Z</time>
      </trkpt>
      <trkpt lat="43.01123" lon="-0.18435">
        <ele>997.6</ele>
        <time>2021-08-29T07:47:28Z</time>
      </trkpt>
      <trkpt lat="43.01121" lon="-0.18436">
        <ele>997.6</ele>
        <time>2021-08-29T07:47:29Z</time>
      </trkpt>
      <trkpt lat="43.01119" lon="-0.18437">
        <ele>997.8</ele>
        <time>2021-08-29T07:47:30Z</time>
      </trkpt>
      <trkpt lat="43.01118" lon="-0.18439">
        <ele>997.8</ele>
        <time>2021-08-29T07:47:31Z</time>
      </trkpt>
      <trkpt lat="43.01117" lon="-0.18441">
        <ele>998</ele>
        <time>2021-08-29T07:47:32Z</time>
      </trkpt>
      <trkpt lat="43.01115" lon="-0.18442">
        <ele>998.2</ele>
        <time>2021-08-29T07:47:33Z</time>
      </trkpt>
      <trkpt lat="43.01114" lon="-0.18443">
        <ele>998.2</ele>
        <time>2021-08-29T07:47:34Z</time>
      </trkpt>
      <trkpt lat="43.01113" lon="-0.18444">
        <ele>998.2</ele>
        <time>2021-08-29T07:47:35Z</time>
      </trkpt>
      <trkpt lat="43.01111" lon="-0.18446">
        <ele>998.4</ele>
        <time>2021-08-29T07:47:36Z</time>
      </trkpt>
      <trkpt lat="43.01109" lon="-0.18447">
        <ele>998.6</ele>
        <time>2021-08-29T07:47:37Z</time>
      </trkpt>
      <trkpt lat="43.01108" lon="-0.18448">
        <ele>998.8</ele>
        <time>2021-08-29T07:47:38Z</time>
      </trkpt>
      <trkpt lat="43.01106" lon="-0.1845">
        <ele>999.2</ele>
        <time>2021-08-29T07:47:39Z</time>
      </trkpt>
      <trkpt lat="43.01104" lon="-0.18452">
        <ele>999.4</ele>
        <time>2021-08-29T07:47:40Z</time>
      </trkpt>
      <trkpt lat="43.01103" lon="-0.18453">
        <ele>999.6</ele>
        <time>2021-08-29T07:47:41Z</time>
      </trkpt>
      <trkpt lat="43.01102" lon="-0.18455">
        <ele>999.6</ele>
        <time>2021-08-29T07:47:42Z</time>
      </trkpt>
      <trkpt lat="43.011" lon="-0.18456">
        <ele>1000</ele>
        <time>2021-08-29T07:47:43Z</time>
      </trkpt>
      <trkpt lat="43.01098" lon="-0.18459">
        <ele>1000</ele>
        <time>2021-08-29T07:47:44Z</time>
      </trkpt>
      <trkpt lat="43.01097" lon="-0.1846">
        <ele>1000.2</ele>
        <time>2021-08-29T07:47:45Z</time>
      </trkpt>
      <trkpt lat="43.01096" lon="-0.18462">
        <ele>1000.2</ele>
        <time>2021-08-29T07:47:46Z</time>
      </trkpt>
      <trkpt lat="43.01095" lon="-0.18464">
        <ele>1000.4</ele>
        <time>2021-08-29T07:47:47Z</time>
      </trkpt>
      <trkpt lat="43.01094" lon="-0.18465">
        <ele>1000.4</ele>
        <time>2021-08-29T07:47:48Z</time>
      </trkpt>
      <trkpt lat="43.01093" lon="-0.18466">
        <ele>1000.6</ele>
        <time>2021-08-29T07:47:49Z</time>
      </trkpt>
      <trkpt lat="43.01091" lon="-0.18468">
        <ele>1000.8</ele>
        <time>2021-08-29T07:47:50Z</time>
      </trkpt>
      <trkpt lat="43.0109" lon="-0.1847">
        <ele>1001</ele>
        <time>2021-08-29T07:47:51Z</time>
      </trkpt>
      <trkpt lat="43.01089" lon="-0.18472">
        <ele>1001.2</ele>
        <time>2021-08-29T07:47:52Z</time>
      </trkpt>
      <trkpt lat="43.01087" lon="-0.18474">
        <ele>1001.2</ele>
        <time>2021-08-29T07:47:53Z</time>
      </trkpt>
      <trkpt lat="43.01086" lon="-0.18476">
        <ele>1001.4</ele>
        <time>2021-08-29T07:47:54Z</time>
      </trkpt>
      <trkpt lat="43.01085" lon="-0.18478">
        <ele>1001.4</ele>
        <time>2021-08-29T07:47:55Z</time>
      </trkpt>
      <trkpt lat="43.01084" lon="-0.18479">
        <ele>1001.8</ele>
        <time>2021-08-29T07:47:56Z</time>
      </trkpt>
      <trkpt lat="43.01083" lon="-0.18481">
        <ele>1001.8</ele>
        <time>2021-08-29T07:47:57Z</time>
      </trkpt>
      <trkpt lat="43.01081" lon="-0.18482">
        <ele>1002</ele>
        <time>2021-08-29T07:47:58Z</time>
      </trkpt>
      <trkpt lat="43.0108" lon="-0.18484">
        <ele>1002</ele>
        <time>2021-08-29T07:47:59Z</time>
      </trkpt>
      <trkpt lat="43.01079" lon="-0.18486">
        <ele>1002.2</ele>
        <time>2021-08-29T07:48:00Z</time>
      </trkpt>
      <trkpt lat="43.01078" lon="-0.18488">
        <ele>1002.4</ele>
        <time>2021-08-29T07:48:01Z</time>
      </trkpt>
      <trkpt lat="43.01077" lon="-0.1849">
        <ele>1002.6</ele>
        <time>2021-08-29T07:48:02Z</time>
      </trkpt>
      <trkpt lat="43.01076" lon="-0.18492">
        <ele>1002.8</ele>
        <time>2021-08-29T07:48:03Z</time>
      </trkpt>
      <trkpt lat="43.01075" lon="-0.18493">
        <ele>1003</ele>
        <time>2021-08-29T07:48:04Z</time>
      </trkpt>
      <trkpt lat="43.01074" lon="-0.18494">
        <ele>1003.2</ele>
        <time>2021-08-29T07:48:05Z</time>
      </trkpt>
      <trkpt lat="43.01073" lon="-0.18497">
        <ele>1003.4</ele>
        <time>2021-08-29T07:48:06Z</time>
      </trkpt>
      <trkpt lat="43.01071" lon="-0.18499">
        <ele>1003.4</ele>
        <time>2021-08-29T07:48:07Z</time>
      </trkpt>
      <trkpt lat="43.0107" lon="-0.18501">
        <ele>1003.6</ele>
        <time>2021-08-29T07:48:08Z</time>
      </trkpt>
      <trkpt lat="43.0107" lon="-0.18503">
        <ele>1003.8</ele>
        <time>2021-08-29T07:48:09Z</time>
      </trkpt>
      <trkpt lat="43.01069" lon="-0.18505">
        <ele>1004</ele>
        <time>2021-08-29T07:48:10Z</time>
      </trkpt>
      <trkpt lat="43.01068" lon="-0.18507">
        <ele>1004</ele>
        <time>2021-08-29T07:48:11Z</time>
      </trkpt>
      <trkpt lat="43.01067" lon="-0.18508">
        <ele>1004.2</ele>
        <time>2021-08-29T07:48:12Z</time>
      </trkpt>
      <trkpt lat="43.01066" lon="-0.1851">
        <ele>1004.6</ele>
        <time>2021-08-29T07:48:13Z</time>
      </trkpt>
      <trkpt lat="43.01065" lon="-0.18512">
        <ele>1004.6</ele>
        <time>2021-08-29T07:48:14Z</time>
      </trkpt>
      <trkpt lat="43.01064" lon="-0.18513">
        <ele>1004.8</ele>
        <time>2021-08-29T07:48:15Z</time>
      </trkpt>
      <trkpt lat="43.01062" lon="-0.18515">
        <ele>1005</ele>
        <time>2021-08-29T07:48:16Z</time>
      </trkpt>
      <trkpt lat="43.01061" lon="-0.18517">
        <ele>1005.2</ele>
        <time>2021-08-29T07:48:17Z</time>
      </trkpt>
      <trkpt lat="43.01061" lon="-0.18519">
        <ele>1005.4</ele>
        <time>2021-08-29T07:48:18Z</time>
      </trkpt>
      <trkpt lat="43.0106" lon="-0.1852">
        <ele>1005.6</ele>
        <time>2021-08-29T07:48:19Z</time>
      </trkpt>
      <trkpt lat="43.01059" lon="-0.18523">
        <ele>1005.6</ele>
        <time>2021-08-29T07:48:20Z</time>
      </trkpt>
      <trkpt lat="43.01058" lon="-0.18525">
        <ele>1005.8</ele>
        <time>2021-08-29T07:48:21Z</time>
      </trkpt>
      <trkpt lat="43.01057" lon="-0.18527">
        <ele>1005.8</ele>
        <time>2021-08-29T07:48:22Z</time>
      </trkpt>
      <trkpt lat="43.01056" lon="-0.18529">
        <ele>1006.2</ele>
        <time>2021-08-29T07:48:23Z</time>
      </trkpt>
      <trkpt lat="43.01056" lon="-0.18531">
        <ele>1006.2</ele>
        <time>2021-08-29T07:48:24Z</time>
      </trkpt>
      <trkpt lat="43.01055" lon="-0.18533">
        <ele>1006.6</ele>
        <time>2021-08-29T07:48:25Z</time>
      </trkpt>
      <trkpt lat="43.01054" lon="-0.18535">
        <ele>1006.6</ele>
        <time>2021-08-29T07:48:26Z</time>
      </trkpt>
      <trkpt lat="43.01054" lon="-0.18537">
        <ele>1006.8</ele>
        <time>2021-08-29T07:48:27Z</time>
      </trkpt>
      <trkpt lat="43.01054" lon="-0.18539">
        <ele>1007</ele>
        <time>2021-08-29T07:48:28Z</time>
      </trkpt>
      <trkpt lat="43.01054" lon="-0.18541">
        <ele>1007</ele>
        <time>2021-08-29T07:48:29Z</time>
      </trkpt>
      <trkpt lat="43.01054" lon="-0.18543">
        <ele>1007.2</ele>
        <time>2021-08-29T07:48:30Z</time>
      </trkpt>
      <trkpt lat="43.01054" lon="-0.18545">
        <ele>1007.4</ele>
        <time>2021-08-29T07:48:31Z</time>
      </trkpt>
      <trkpt lat="43.01054" lon="-0.18548">
        <ele>1007.6</ele>
        <time>2021-08-29T07:48:32Z</time>
      </trkpt>
      <trkpt lat="43.01054" lon="-0.18549">
        <ele>1007.6</ele>
        <time>2021-08-29T07:48:33Z</time>
      </trkpt>
      <trkpt lat="43.01054" lon="-0.18552">
        <ele>1007.8</ele>
        <time>2021-08-29T07:48:34Z</time>
      </trkpt>
      <trkpt lat="43.01054" lon="-0.18554">
        <ele>1007.8</ele>
        <time>2021-08-29T07:48:35Z</time>
      </trkpt>
      <trkpt lat="43.01053" lon="-0.18555">
        <ele>1008</ele>
        <time>2021-08-29T07:48:36Z</time>
      </trkpt>
      <trkpt lat="43.01053" lon="-0.18557">
        <ele>1008.2</ele>
        <time>2021-08-29T07:48:37Z</time>
      </trkpt>
      <trkpt lat="43.01053" lon="-0.1856">
        <ele>1008.4</ele>
        <time>2021-08-29T07:48:38Z</time>
      </trkpt>
      <trkpt lat="43.01053" lon="-0.18562">
        <ele>1008.4</ele>
        <time>2021-08-29T07:48:39Z</time>
      </trkpt>
      <trkpt lat="43.01053" lon="-0.18563">
        <ele>1008.6</ele>
        <time>2021-08-29T07:48:40Z</time>
      </trkpt>
      <trkpt lat="43.01053" lon="-0.18566">
        <ele>1008.6</ele>
        <time>2021-08-29T07:48:41Z</time>
      </trkpt>
      <trkpt lat="43.01053" lon="-0.18567">
        <ele>1008.8</ele>
        <time>2021-08-29T07:48:42Z</time>
      </trkpt>
      <trkpt lat="43.01052" lon="-0.18569">
        <ele>1009</ele>
        <time>2021-08-29T07:48:43Z</time>
      </trkpt>
      <trkpt lat="43.01052" lon="-0.1857">
        <ele>1009.2</ele>
        <time>2021-08-29T07:48:44Z</time>
      </trkpt>
      <trkpt lat="43.01052" lon="-0.18573">
        <ele>1009.2</ele>
        <time>2021-08-29T07:48:45Z</time>
      </trkpt>
      <trkpt lat="43.01052" lon="-0.18574">
        <ele>1009.4</ele>
        <time>2021-08-29T07:48:46Z</time>
      </trkpt>
      <trkpt lat="43.01053" lon="-0.18576">
        <ele>1009.4</ele>
        <time>2021-08-29T07:48:47Z</time>
      </trkpt>
      <trkpt lat="43.01053" lon="-0.18578">
        <ele>1009.6</ele>
        <time>2021-08-29T07:48:48Z</time>
      </trkpt>
      <trkpt lat="43.01053" lon="-0.1858">
        <ele>1009.8</ele>
        <time>2021-08-29T07:48:49Z</time>
      </trkpt>
      <trkpt lat="43.01053" lon="-0.18581">
        <ele>1010</ele>
        <time>2021-08-29T07:48:50Z</time>
      </trkpt>
      <trkpt lat="43.01052" lon="-0.18584">
        <ele>1010</ele>
        <time>2021-08-29T07:48:51Z</time>
      </trkpt>
      <trkpt lat="43.01053" lon="-0.18586">
        <ele>1010.2</ele>
        <time>2021-08-29T07:48:52Z</time>
      </trkpt>
      <trkpt lat="43.01053" lon="-0.18588">
        <ele>1010.2</ele>
        <time>2021-08-29T07:48:53Z</time>
      </trkpt>
      <trkpt lat="43.01053" lon="-0.1859">
        <ele>1010.4</ele>
        <time>2021-08-29T07:48:54Z</time>
      </trkpt>
      <trkpt lat="43.01053" lon="-0.18592">
        <ele>1010.8</ele>
        <time>2021-08-29T07:48:55Z</time>
      </trkpt>
      <trkpt lat="43.01053" lon="-0.18594">
        <ele>1010.8</ele>
        <time>2021-08-29T07:48:56Z</time>
      </trkpt>
      <trkpt lat="43.01053" lon="-0.18596">
        <ele>1011</ele>
        <time>2021-08-29T07:48:57Z</time>
      </trkpt>
      <trkpt lat="43.01053" lon="-0.18598">
        <ele>1011.2</ele>
        <time>2021-08-29T07:48:58Z</time>
      </trkpt>
      <trkpt lat="43.01053" lon="-0.18599">
        <ele>1011.2</ele>
        <time>2021-08-29T07:48:59Z</time>
      </trkpt>
      <trkpt lat="43.01053" lon="-0.18602">
        <ele>1011.4</ele>
        <time>2021-08-29T07:49:00Z</time>
      </trkpt>
      <trkpt lat="43.01054" lon="-0.18604">
        <ele>1011.6</ele>
        <time>2021-08-29T07:49:01Z</time>
      </trkpt>
      <trkpt lat="43.01055" lon="-0.18606">
        <ele>1011.6</ele>
        <time>2021-08-29T07:49:02Z</time>
      </trkpt>
      <trkpt lat="43.01055" lon="-0.18607">
        <ele>1011.8</ele>
        <time>2021-08-29T07:49:03Z</time>
      </trkpt>
      <trkpt lat="43.01055" lon="-0.18608">
        <ele>1012</ele>
        <time>2021-08-29T07:49:04Z</time>
      </trkpt>
      <trkpt lat="43.01056" lon="-0.18611">
        <ele>1012</ele>
        <time>2021-08-29T07:49:05Z</time>
      </trkpt>
      <trkpt lat="43.01056" lon="-0.18614">
        <ele>1012.2</ele>
        <time>2021-08-29T07:49:06Z</time>
      </trkpt>
      <trkpt lat="43.01057" lon="-0.18616">
        <ele>1012.2</ele>
        <time>2021-08-29T07:49:07Z</time>
      </trkpt>
      <trkpt lat="43.01057" lon="-0.18618">
        <ele>1012.6</ele>
        <time>2021-08-29T07:49:08Z</time>
      </trkpt>
      <trkpt lat="43.01058" lon="-0.18621">
        <ele>1012.8</ele>
        <time>2021-08-29T07:49:09Z</time>
      </trkpt>
      <trkpt lat="43.01058" lon="-0.18623">
        <ele>1013</ele>
        <time>2021-08-29T07:49:10Z</time>
      </trkpt>
      <trkpt lat="43.01058" lon="-0.18625">
        <ele>1013</ele>
        <time>2021-08-29T07:49:11Z</time>
      </trkpt>
      <trkpt lat="43.01058" lon="-0.18627">
        <ele>1013.2</ele>
        <time>2021-08-29T07:49:12Z</time>
      </trkpt>
      <trkpt lat="43.01059" lon="-0.1863">
        <ele>1013.4</ele>
        <time>2021-08-29T07:49:13Z</time>
      </trkpt>
      <trkpt lat="43.01059" lon="-0.18632">
        <ele>1013.6</ele>
        <time>2021-08-29T07:49:14Z</time>
      </trkpt>
      <trkpt lat="43.0106" lon="-0.18635">
        <ele>1013.6</ele>
        <time>2021-08-29T07:49:15Z</time>
      </trkpt>
      <trkpt lat="43.01061" lon="-0.18637">
        <ele>1013.8</ele>
        <time>2021-08-29T07:49:16Z</time>
      </trkpt>
      <trkpt lat="43.01062" lon="-0.1864">
        <ele>1014</ele>
        <time>2021-08-29T07:49:17Z</time>
      </trkpt>
      <trkpt lat="43.01063" lon="-0.18642">
        <ele>1014.2</ele>
        <time>2021-08-29T07:49:18Z</time>
      </trkpt>
      <trkpt lat="43.01063" lon="-0.18644">
        <ele>1014.4</ele>
        <time>2021-08-29T07:49:19Z</time>
      </trkpt>
      <trkpt lat="43.01063" lon="-0.18645">
        <ele>1014.6</ele>
        <time>2021-08-29T07:49:20Z</time>
      </trkpt>
      <trkpt lat="43.01063" lon="-0.18647">
        <ele>1014.8</ele>
        <time>2021-08-29T07:49:21Z</time>
      </trkpt>
      <trkpt lat="43.01064" lon="-0.18649">
        <ele>1014.8</ele>
        <time>2021-08-29T07:49:22Z</time>
      </trkpt>
      <trkpt lat="43.01065" lon="-0.18653">
        <ele>1014.8</ele>
        <time>2021-08-29T07:49:23Z</time>
      </trkpt>
      <trkpt lat="43.01065" lon="-0.18654">
        <ele>1015</ele>
        <time>2021-08-29T07:49:24Z</time>
      </trkpt>
      <trkpt lat="43.01065" lon="-0.18655">
        <ele>1015.4</ele>
        <time>2021-08-29T07:49:25Z</time>
      </trkpt>
      <trkpt lat="43.01065" lon="-0.18657">
        <ele>1015.4</ele>
        <time>2021-08-29T07:49:26Z</time>
      </trkpt>
      <trkpt lat="43.01065" lon="-0.18658">
        <ele>1015.6</ele>
        <time>2021-08-29T07:49:27Z</time>
      </trkpt>
      <trkpt lat="43.01065" lon="-0.18659">
        <ele>1015.4</ele>
        <time>2021-08-29T07:49:28Z</time>
      </trkpt>
      <trkpt lat="43.01066" lon="-0.1866">
        <ele>1015.6</ele>
        <time>2021-08-29T07:49:29Z</time>
      </trkpt>
      <trkpt lat="43.01066" lon="-0.18661">
        <ele>1015.6</ele>
        <time>2021-08-29T07:49:30Z</time>
      </trkpt>
      <trkpt lat="43.01066" lon="-0.18663">
        <ele>1015.8</ele>
        <time>2021-08-29T07:49:31Z</time>
      </trkpt>
      <trkpt lat="43.01066" lon="-0.18665">
        <ele>1015.8</ele>
        <time>2021-08-29T07:49:32Z</time>
      </trkpt>
      <trkpt lat="43.01066" lon="-0.18667">
        <ele>1016.2</ele>
        <time>2021-08-29T07:49:33Z</time>
      </trkpt>
      <trkpt lat="43.01066" lon="-0.18669">
        <ele>1016.2</ele>
        <time>2021-08-29T07:49:34Z</time>
      </trkpt>
      <trkpt lat="43.01066" lon="-0.18671">
        <ele>1016.6</ele>
        <time>2021-08-29T07:49:35Z</time>
      </trkpt>
      <trkpt lat="43.01066" lon="-0.18674">
        <ele>1016.6</ele>
        <time>2021-08-29T07:49:36Z</time>
      </trkpt>
      <trkpt lat="43.01066" lon="-0.18677">
        <ele>1016.8</ele>
        <time>2021-08-29T07:49:37Z</time>
      </trkpt>
      <trkpt lat="43.01066" lon="-0.18679">
        <ele>1017</ele>
        <time>2021-08-29T07:49:38Z</time>
      </trkpt>
      <trkpt lat="43.01066" lon="-0.18681">
        <ele>1017</ele>
        <time>2021-08-29T07:49:39Z</time>
      </trkpt>
      <trkpt lat="43.01066" lon="-0.18683">
        <ele>1017.2</ele>
        <time>2021-08-29T07:49:40Z</time>
      </trkpt>
      <trkpt lat="43.01065" lon="-0.18685">
        <ele>1017.4</ele>
        <time>2021-08-29T07:49:41Z</time>
      </trkpt>
      <trkpt lat="43.01065" lon="-0.18689">
        <ele>1017.4</ele>
        <time>2021-08-29T07:49:42Z</time>
      </trkpt>
      <trkpt lat="43.01066" lon="-0.18692">
        <ele>1017.6</ele>
        <time>2021-08-29T07:49:43Z</time>
      </trkpt>
      <trkpt lat="43.01066" lon="-0.18695">
        <ele>1017.8</ele>
        <time>2021-08-29T07:49:44Z</time>
      </trkpt>
      <trkpt lat="43.01066" lon="-0.18697">
        <ele>1018</ele>
        <time>2021-08-29T07:49:45Z</time>
      </trkpt>
      <trkpt lat="43.01066" lon="-0.18698">
        <ele>1018.2</ele>
        <time>2021-08-29T07:49:46Z</time>
      </trkpt>
      <trkpt lat="43.01066" lon="-0.18701">
        <ele>1018.4</ele>
        <time>2021-08-29T07:49:47Z</time>
      </trkpt>
      <trkpt lat="43.01066" lon="-0.18703">
        <ele>1018.8</ele>
        <time>2021-08-29T07:49:48Z</time>
      </trkpt>
      <trkpt lat="43.01066" lon="-0.18705">
        <ele>1019</ele>
        <time>2021-08-29T07:49:49Z</time>
      </trkpt>
      <trkpt lat="43.01066" lon="-0.18706">
        <ele>1019.2</ele>
        <time>2021-08-29T07:49:50Z</time>
      </trkpt>
      <trkpt lat="43.01067" lon="-0.18708">
        <ele>1019.2</ele>
        <time>2021-08-29T07:49:51Z</time>
      </trkpt>
      <trkpt lat="43.01067" lon="-0.1871">
        <ele>1019.4</ele>
        <time>2021-08-29T07:49:52Z</time>
      </trkpt>
      <trkpt lat="43.01068" lon="-0.18713">
        <ele>1019.6</ele>
        <time>2021-08-29T07:49:53Z</time>
      </trkpt>
      <trkpt lat="43.01068" lon="-0.18715">
        <ele>1019.8</ele>
        <time>2021-08-29T07:49:54Z</time>
      </trkpt>
      <trkpt lat="43.01068" lon="-0.18717">
        <ele>1019.8</ele>
        <time>2021-08-29T07:49:55Z</time>
      </trkpt>
      <trkpt lat="43.01069" lon="-0.18719">
        <ele>1020</ele>
        <time>2021-08-29T07:49:56Z</time>
      </trkpt>
      <trkpt lat="43.01068" lon="-0.18721">
        <ele>1020.2</ele>
        <time>2021-08-29T07:49:57Z</time>
      </trkpt>
      <trkpt lat="43.01069" lon="-0.18724">
        <ele>1020.4</ele>
        <time>2021-08-29T07:49:58Z</time>
      </trkpt>
      <trkpt lat="43.01068" lon="-0.18726">
        <ele>1020.6</ele>
        <time>2021-08-29T07:49:59Z</time>
      </trkpt>
      <trkpt lat="43.01069" lon="-0.18728">
        <ele>1020.6</ele>
        <time>2021-08-29T07:50:00Z</time>
      </trkpt>
      <trkpt lat="43.01069" lon="-0.1873">
        <ele>1021</ele>
        <time>2021-08-29T07:50:01Z</time>
      </trkpt>
      <trkpt lat="43.01069" lon="-0.18733">
        <ele>1021</ele>
        <time>2021-08-29T07:50:02Z</time>
      </trkpt>
      <trkpt lat="43.01069" lon="-0.18734">
        <ele>1021.2</ele>
        <time>2021-08-29T07:50:03Z</time>
      </trkpt>
      <trkpt lat="43.0107" lon="-0.18736">
        <ele>1021.4</ele>
        <time>2021-08-29T07:50:04Z</time>
      </trkpt>
      <trkpt lat="43.0107" lon="-0.18738">
        <ele>1021.6</ele>
        <time>2021-08-29T07:50:05Z</time>
      </trkpt>
      <trkpt lat="43.01071" lon="-0.1874">
        <ele>1021.6</ele>
        <time>2021-08-29T07:50:06Z</time>
      </trkpt>
      <trkpt lat="43.01071" lon="-0.18742">
        <ele>1021.8</ele>
        <time>2021-08-29T07:50:07Z</time>
      </trkpt>
      <trkpt lat="43.01072" lon="-0.18745">
        <ele>1021.8</ele>
        <time>2021-08-29T07:50:08Z</time>
      </trkpt>
      <trkpt lat="43.01072" lon="-0.18747">
        <ele>1022.2</ele>
        <time>2021-08-29T07:50:09Z</time>
      </trkpt>
      <trkpt lat="43.01072" lon="-0.1875">
        <ele>1022.4</ele>
        <time>2021-08-29T07:50:10Z</time>
      </trkpt>
      <trkpt lat="43.01072" lon="-0.18752">
        <ele>1022.6</ele>
        <time>2021-08-29T07:50:11Z</time>
      </trkpt>
      <trkpt lat="43.01072" lon="-0.18753">
        <ele>1022.6</ele>
        <time>2021-08-29T07:50:12Z</time>
      </trkpt>
      <trkpt lat="43.01072" lon="-0.18755">
        <ele>1022.8</ele>
        <time>2021-08-29T07:50:13Z</time>
      </trkpt>
      <trkpt lat="43.01072" lon="-0.18756">
        <ele>1023</ele>
        <time>2021-08-29T07:50:14Z</time>
      </trkpt>
      <trkpt lat="43.01072" lon="-0.18759">
        <ele>1023</ele>
        <time>2021-08-29T07:50:15Z</time>
      </trkpt>
      <trkpt lat="43.0107" lon="-0.18761">
        <ele>1023.2</ele>
        <time>2021-08-29T07:50:16Z</time>
      </trkpt>
      <trkpt lat="43.01069" lon="-0.18762">
        <ele>1023.4</ele>
        <time>2021-08-29T07:50:17Z</time>
      </trkpt>
      <trkpt lat="43.01069" lon="-0.18765">
        <ele>1023.6</ele>
        <time>2021-08-29T07:50:18Z</time>
      </trkpt>
      <trkpt lat="43.01069" lon="-0.18767">
        <ele>1023.6</ele>
        <time>2021-08-29T07:50:19Z</time>
      </trkpt>
      <trkpt lat="43.01069" lon="-0.18769">
        <ele>1023.8</ele>
        <time>2021-08-29T07:50:20Z</time>
      </trkpt>
      <trkpt lat="43.01069" lon="-0.18771">
        <ele>1024</ele>
        <time>2021-08-29T07:50:21Z</time>
      </trkpt>
      <trkpt lat="43.01069" lon="-0.18773">
        <ele>1024.4</ele>
        <time>2021-08-29T07:50:22Z</time>
      </trkpt>
      <trkpt lat="43.01069" lon="-0.18775">
        <ele>1024.4</ele>
        <time>2021-08-29T07:50:23Z</time>
      </trkpt>
      <trkpt lat="43.01069" lon="-0.18777">
        <ele>1024.8</ele>
        <time>2021-08-29T07:50:24Z</time>
      </trkpt>
      <trkpt lat="43.01068" lon="-0.18779">
        <ele>1024.8</ele>
        <time>2021-08-29T07:50:25Z</time>
      </trkpt>
      <trkpt lat="43.01068" lon="-0.18781">
        <ele>1025</ele>
        <time>2021-08-29T07:50:26Z</time>
      </trkpt>
      <trkpt lat="43.01068" lon="-0.18784">
        <ele>1025</ele>
        <time>2021-08-29T07:50:27Z</time>
      </trkpt>
      <trkpt lat="43.01068" lon="-0.18785">
        <ele>1025.2</ele>
        <time>2021-08-29T07:50:28Z</time>
      </trkpt>
      <trkpt lat="43.01068" lon="-0.18785">
        <ele>1025.2</ele>
        <time>2021-08-29T07:50:29Z</time>
      </trkpt>
      <trkpt lat="43.01068" lon="-0.18787">
        <ele>1025.4</ele>
        <time>2021-08-29T07:50:30Z</time>
      </trkpt>
      <trkpt lat="43.01067" lon="-0.18788">
        <ele>1025.6</ele>
        <time>2021-08-29T07:50:31Z</time>
      </trkpt>
      <trkpt lat="43.01066" lon="-0.18789">
        <ele>1025.6</ele>
        <time>2021-08-29T07:50:32Z</time>
      </trkpt>
      <trkpt lat="43.01066" lon="-0.18791">
        <ele>1025.8</ele>
        <time>2021-08-29T07:50:33Z</time>
      </trkpt>
      <trkpt lat="43.01065" lon="-0.18793">
        <ele>1026</ele>
        <time>2021-08-29T07:50:34Z</time>
      </trkpt>
      <trkpt lat="43.01064" lon="-0.18796">
        <ele>1026.2</ele>
        <time>2021-08-29T07:50:35Z</time>
      </trkpt>
      <trkpt lat="43.01064" lon="-0.18799">
        <ele>1026.4</ele>
        <time>2021-08-29T07:50:36Z</time>
      </trkpt>
      <trkpt lat="43.01064" lon="-0.18802">
        <ele>1026.6</ele>
        <time>2021-08-29T07:50:37Z</time>
      </trkpt>
      <trkpt lat="43.01064" lon="-0.18803">
        <ele>1026.8</ele>
        <time>2021-08-29T07:50:38Z</time>
      </trkpt>
      <trkpt lat="43.01064" lon="-0.18805">
        <ele>1027</ele>
        <time>2021-08-29T07:50:39Z</time>
      </trkpt>
      <trkpt lat="43.01065" lon="-0.18808">
        <ele>1027</ele>
        <time>2021-08-29T07:50:40Z</time>
      </trkpt>
      <trkpt lat="43.01065" lon="-0.18811">
        <ele>1027.2</ele>
        <time>2021-08-29T07:50:41Z</time>
      </trkpt>
      <trkpt lat="43.01065" lon="-0.18813">
        <ele>1027.2</ele>
        <time>2021-08-29T07:50:42Z</time>
      </trkpt>
      <trkpt lat="43.01065" lon="-0.18816">
        <ele>1027.4</ele>
        <time>2021-08-29T07:50:43Z</time>
      </trkpt>
      <trkpt lat="43.01066" lon="-0.18817">
        <ele>1027.6</ele>
        <time>2021-08-29T07:50:44Z</time>
      </trkpt>
      <trkpt lat="43.01064" lon="-0.18818">
        <ele>1027.6</ele>
        <time>2021-08-29T07:50:45Z</time>
      </trkpt>
      <trkpt lat="43.01065" lon="-0.1882">
        <ele>1027.8</ele>
        <time>2021-08-29T07:50:46Z</time>
      </trkpt>
      <trkpt lat="43.01064" lon="-0.18821">
        <ele>1028</ele>
        <time>2021-08-29T07:50:47Z</time>
      </trkpt>
      <trkpt lat="43.01065" lon="-0.18824">
        <ele>1028</ele>
        <time>2021-08-29T07:50:48Z</time>
      </trkpt>
      <trkpt lat="43.01065" lon="-0.18825">
        <ele>1028</ele>
        <time>2021-08-29T07:50:49Z</time>
      </trkpt>
      <trkpt lat="43.01064" lon="-0.18826">
        <ele>1028.2</ele>
        <time>2021-08-29T07:50:50Z</time>
      </trkpt>
      <trkpt lat="43.01064" lon="-0.18828">
        <ele>1028.4</ele>
        <time>2021-08-29T07:50:51Z</time>
      </trkpt>
      <trkpt lat="43.01064" lon="-0.1883">
        <ele>1028.6</ele>
        <time>2021-08-29T07:50:52Z</time>
      </trkpt>
      <trkpt lat="43.01064" lon="-0.18832">
        <ele>1028.6</ele>
        <time>2021-08-29T07:50:53Z</time>
      </trkpt>
      <trkpt lat="43.01063" lon="-0.18834">
        <ele>1028.8</ele>
        <time>2021-08-29T07:50:54Z</time>
      </trkpt>
      <trkpt lat="43.01062" lon="-0.18837">
        <ele>1029</ele>
        <time>2021-08-29T07:50:55Z</time>
      </trkpt>
      <trkpt lat="43.01062" lon="-0.18838">
        <ele>1029.2</ele>
        <time>2021-08-29T07:50:56Z</time>
      </trkpt>
      <trkpt lat="43.01062" lon="-0.18839">
        <ele>1029.2</ele>
        <time>2021-08-29T07:50:57Z</time>
      </trkpt>
      <trkpt lat="43.01062" lon="-0.18841">
        <ele>1029.4</ele>
        <time>2021-08-29T07:50:58Z</time>
      </trkpt>
      <trkpt lat="43.01062" lon="-0.18844">
        <ele>1029.6</ele>
        <time>2021-08-29T07:50:59Z</time>
      </trkpt>
      <trkpt lat="43.01061" lon="-0.18846">
        <ele>1029.8</ele>
        <time>2021-08-29T07:51:00Z</time>
      </trkpt>
      <trkpt lat="43.01061" lon="-0.18848">
        <ele>1029.8</ele>
        <time>2021-08-29T07:51:01Z</time>
      </trkpt>
      <trkpt lat="43.0106" lon="-0.1885">
        <ele>1030</ele>
        <time>2021-08-29T07:51:02Z</time>
      </trkpt>
      <trkpt lat="43.01059" lon="-0.18853">
        <ele>1030.2</ele>
        <time>2021-08-29T07:51:03Z</time>
      </trkpt>
      <trkpt lat="43.01058" lon="-0.18855">
        <ele>1030.4</ele>
        <time>2021-08-29T07:51:04Z</time>
      </trkpt>
      <trkpt lat="43.01057" lon="-0.18857">
        <ele>1030.4</ele>
        <time>2021-08-29T07:51:05Z</time>
      </trkpt>
      <trkpt lat="43.01057" lon="-0.18858">
        <ele>1030.6</ele>
        <time>2021-08-29T07:51:06Z</time>
      </trkpt>
      <trkpt lat="43.01057" lon="-0.18859">
        <ele>1030.8</ele>
        <time>2021-08-29T07:51:07Z</time>
      </trkpt>
      <trkpt lat="43.01058" lon="-0.1886">
        <ele>1031</ele>
        <time>2021-08-29T07:51:08Z</time>
      </trkpt>
      <trkpt lat="43.01058" lon="-0.18862">
        <ele>1031.2</ele>
        <time>2021-08-29T07:51:09Z</time>
      </trkpt>
      <trkpt lat="43.01058" lon="-0.18865">
        <ele>1031.4</ele>
        <time>2021-08-29T07:51:10Z</time>
      </trkpt>
      <trkpt lat="43.01058" lon="-0.18867">
        <ele>1031.8</ele>
        <time>2021-08-29T07:51:11Z</time>
      </trkpt>
      <trkpt lat="43.01058" lon="-0.18869">
        <ele>1031.8</ele>
        <time>2021-08-29T07:51:12Z</time>
      </trkpt>
      <trkpt lat="43.01058" lon="-0.18872">
        <ele>1032</ele>
        <time>2021-08-29T07:51:13Z</time>
      </trkpt>
      <trkpt lat="43.01058" lon="-0.18873">
        <ele>1032.2</ele>
        <time>2021-08-29T07:51:14Z</time>
      </trkpt>
      <trkpt lat="43.01059" lon="-0.18875">
        <ele>1032.4</ele>
        <time>2021-08-29T07:51:15Z</time>
      </trkpt>
      <trkpt lat="43.01059" lon="-0.18875">
        <ele>1032.6</ele>
        <time>2021-08-29T07:51:16Z</time>
      </trkpt>
      <trkpt lat="43.01059" lon="-0.18877">
        <ele>1032.6</ele>
        <time>2021-08-29T07:51:17Z</time>
      </trkpt>
      <trkpt lat="43.01059" lon="-0.18881">
        <ele>1032.6</ele>
        <time>2021-08-29T07:51:18Z</time>
      </trkpt>
      <trkpt lat="43.01059" lon="-0.18883">
        <ele>1032.8</ele>
        <time>2021-08-29T07:51:19Z</time>
      </trkpt>
      <trkpt lat="43.01059" lon="-0.18884">
        <ele>1032.8</ele>
        <time>2021-08-29T07:51:20Z</time>
      </trkpt>
      <trkpt lat="43.01059" lon="-0.18885">
        <ele>1033.2</ele>
        <time>2021-08-29T07:51:21Z</time>
      </trkpt>
      <trkpt lat="43.01059" lon="-0.18887">
        <ele>1033.2</ele>
        <time>2021-08-29T07:51:22Z</time>
      </trkpt>
      <trkpt lat="43.01059" lon="-0.18889">
        <ele>1033.4</ele>
        <time>2021-08-29T07:51:23Z</time>
      </trkpt>
      <trkpt lat="43.01057" lon="-0.18892">
        <ele>1033.4</ele>
        <time>2021-08-29T07:51:24Z</time>
      </trkpt>
      <trkpt lat="43.01057" lon="-0.18895">
        <ele>1033.6</ele>
        <time>2021-08-29T07:51:25Z</time>
      </trkpt>
      <trkpt lat="43.01056" lon="-0.18898">
        <ele>1033.6</ele>
        <time>2021-08-29T07:51:26Z</time>
      </trkpt>
      <trkpt lat="43.01057" lon="-0.189">
        <ele>1033.8</ele>
        <time>2021-08-29T07:51:27Z</time>
      </trkpt>
      <trkpt lat="43.01058" lon="-0.18901">
        <ele>1034</ele>
        <time>2021-08-29T07:51:28Z</time>
      </trkpt>
      <trkpt lat="43.01058" lon="-0.18902">
        <ele>1034</ele>
        <time>2021-08-29T07:51:29Z</time>
      </trkpt>
      <trkpt lat="43.01059" lon="-0.18903">
        <ele>1034.2</ele>
        <time>2021-08-29T07:51:30Z</time>
      </trkpt>
      <trkpt lat="43.01059" lon="-0.18905">
        <ele>1034.4</ele>
        <time>2021-08-29T07:51:31Z</time>
      </trkpt>
      <trkpt lat="43.01059" lon="-0.18906">
        <ele>1034.6</ele>
        <time>2021-08-29T07:51:32Z</time>
      </trkpt>
      <trkpt lat="43.01059" lon="-0.18908">
        <ele>1034.6</ele>
        <time>2021-08-29T07:51:33Z</time>
      </trkpt>
      <trkpt lat="43.01058" lon="-0.18909">
        <ele>1034.6</ele>
        <time>2021-08-29T07:51:34Z</time>
      </trkpt>
      <trkpt lat="43.01058" lon="-0.18911">
        <ele>1034.8</ele>
        <time>2021-08-29T07:51:35Z</time>
      </trkpt>
      <trkpt lat="43.01058" lon="-0.18913">
        <ele>1034.8</ele>
        <time>2021-08-29T07:51:36Z</time>
      </trkpt>
      <trkpt lat="43.01058" lon="-0.18915">
        <ele>1035</ele>
        <time>2021-08-29T07:51:37Z</time>
      </trkpt>
      <trkpt lat="43.01058" lon="-0.18917">
        <ele>1035</ele>
        <time>2021-08-29T07:51:38Z</time>
      </trkpt>
      <trkpt lat="43.01057" lon="-0.18919">
        <ele>1035.2</ele>
        <time>2021-08-29T07:51:39Z</time>
      </trkpt>
      <trkpt lat="43.01057" lon="-0.18921">
        <ele>1035.4</ele>
        <time>2021-08-29T07:51:40Z</time>
      </trkpt>
      <trkpt lat="43.01056" lon="-0.18923">
        <ele>1035.6</ele>
        <time>2021-08-29T07:51:41Z</time>
      </trkpt>
      <trkpt lat="43.01056" lon="-0.18924">
        <ele>1035.8</ele>
        <time>2021-08-29T07:51:42Z</time>
      </trkpt>
      <trkpt lat="43.01056" lon="-0.18926">
        <ele>1035.8</ele>
        <time>2021-08-29T07:51:43Z</time>
      </trkpt>
      <trkpt lat="43.01056" lon="-0.18928">
        <ele>1036</ele>
        <time>2021-08-29T07:51:44Z</time>
      </trkpt>
      <trkpt lat="43.01055" lon="-0.1893">
        <ele>1036.2</ele>
        <time>2021-08-29T07:51:45Z</time>
      </trkpt>
      <trkpt lat="43.01055" lon="-0.18932">
        <ele>1036.4</ele>
        <time>2021-08-29T07:51:46Z</time>
      </trkpt>
      <trkpt lat="43.01054" lon="-0.18933">
        <ele>1036.6</ele>
        <time>2021-08-29T07:51:47Z</time>
      </trkpt>
      <trkpt lat="43.01055" lon="-0.18935">
        <ele>1036.8</ele>
        <time>2021-08-29T07:51:48Z</time>
      </trkpt>
      <trkpt lat="43.01055" lon="-0.18936">
        <ele>1037</ele>
        <time>2021-08-29T07:51:49Z</time>
      </trkpt>
      <trkpt lat="43.01056" lon="-0.18938">
        <ele>1036.8</ele>
        <time>2021-08-29T07:51:50Z</time>
      </trkpt>
      <trkpt lat="43.01055" lon="-0.18939">
        <ele>1037</ele>
        <time>2021-08-29T07:51:51Z</time>
      </trkpt>
      <trkpt lat="43.01055" lon="-0.18942">
        <ele>1037.2</ele>
        <time>2021-08-29T07:51:52Z</time>
      </trkpt>
      <trkpt lat="43.01055" lon="-0.18944">
        <ele>1037.6</ele>
        <time>2021-08-29T07:51:53Z</time>
      </trkpt>
      <trkpt lat="43.01054" lon="-0.18946">
        <ele>1037.6</ele>
        <time>2021-08-29T07:51:54Z</time>
      </trkpt>
      <trkpt lat="43.01053" lon="-0.18947">
        <ele>1037.8</ele>
        <time>2021-08-29T07:51:55Z</time>
      </trkpt>
      <trkpt lat="43.01053" lon="-0.18949">
        <ele>1038</ele>
        <time>2021-08-29T07:51:56Z</time>
      </trkpt>
      <trkpt lat="43.01051" lon="-0.18951">
        <ele>1038.2</ele>
        <time>2021-08-29T07:51:57Z</time>
      </trkpt>
      <trkpt lat="43.01051" lon="-0.18954">
        <ele>1038.2</ele>
        <time>2021-08-29T07:51:58Z</time>
      </trkpt>
      <trkpt lat="43.01051" lon="-0.18956">
        <ele>1038.2</ele>
        <time>2021-08-29T07:51:59Z</time>
      </trkpt>
      <trkpt lat="43.0105" lon="-0.18959">
        <ele>1038.4</ele>
        <time>2021-08-29T07:52:00Z</time>
      </trkpt>
      <trkpt lat="43.01049" lon="-0.18962">
        <ele>1038.6</ele>
        <time>2021-08-29T07:52:01Z</time>
      </trkpt>
      <trkpt lat="43.01048" lon="-0.18963">
        <ele>1038.8</ele>
        <time>2021-08-29T07:52:02Z</time>
      </trkpt>
      <trkpt lat="43.01048" lon="-0.18965">
        <ele>1039</ele>
        <time>2021-08-29T07:52:03Z</time>
      </trkpt>
      <trkpt lat="43.01048" lon="-0.18968">
        <ele>1039</ele>
        <time>2021-08-29T07:52:04Z</time>
      </trkpt>
      <trkpt lat="43.01047" lon="-0.1897">
        <ele>1039</ele>
        <time>2021-08-29T07:52:05Z</time>
      </trkpt>
      <trkpt lat="43.01046" lon="-0.18971">
        <ele>1039.2</ele>
        <time>2021-08-29T07:52:06Z</time>
      </trkpt>
      <trkpt lat="43.01046" lon="-0.18973">
        <ele>1039.2</ele>
        <time>2021-08-29T07:52:07Z</time>
      </trkpt>
      <trkpt lat="43.01046" lon="-0.18975">
        <ele>1039.4</ele>
        <time>2021-08-29T07:52:08Z</time>
      </trkpt>
      <trkpt lat="43.01045" lon="-0.18977">
        <ele>1039.6</ele>
        <time>2021-08-29T07:52:09Z</time>
      </trkpt>
      <trkpt lat="43.01045" lon="-0.18979">
        <ele>1039.6</ele>
        <time>2021-08-29T07:52:10Z</time>
      </trkpt>
      <trkpt lat="43.01045" lon="-0.18981">
        <ele>1040</ele>
        <time>2021-08-29T07:52:11Z</time>
      </trkpt>
      <trkpt lat="43.01045" lon="-0.18982">
        <ele>1040.2</ele>
        <time>2021-08-29T07:52:12Z</time>
      </trkpt>
      <trkpt lat="43.01044" lon="-0.18984">
        <ele>1040.4</ele>
        <time>2021-08-29T07:52:13Z</time>
      </trkpt>
      <trkpt lat="43.01043" lon="-0.18986">
        <ele>1040.6</ele>
        <time>2021-08-29T07:52:14Z</time>
      </trkpt>
      <trkpt lat="43.01043" lon="-0.18988">
        <ele>1040.8</ele>
        <time>2021-08-29T07:52:15Z</time>
      </trkpt>
      <trkpt lat="43.01043" lon="-0.1899">
        <ele>1041</ele>
        <time>2021-08-29T07:52:16Z</time>
      </trkpt>
      <trkpt lat="43.01043" lon="-0.18991">
        <ele>1041</ele>
        <time>2021-08-29T07:52:17Z</time>
      </trkpt>
      <trkpt lat="43.01042" lon="-0.18993">
        <ele>1041.4</ele>
        <time>2021-08-29T07:52:18Z</time>
      </trkpt>
      <trkpt lat="43.01042" lon="-0.18995">
        <ele>1041.4</ele>
        <time>2021-08-29T07:52:19Z</time>
      </trkpt>
      <trkpt lat="43.01043" lon="-0.18997">
        <ele>1041.8</ele>
        <time>2021-08-29T07:52:20Z</time>
      </trkpt>
      <trkpt lat="43.01043" lon="-0.18998">
        <ele>1041.8</ele>
        <time>2021-08-29T07:52:21Z</time>
      </trkpt>
      <trkpt lat="43.01042" lon="-0.19001">
        <ele>1042</ele>
        <time>2021-08-29T07:52:22Z</time>
      </trkpt>
      <trkpt lat="43.01042" lon="-0.19003">
        <ele>1042</ele>
        <time>2021-08-29T07:52:23Z</time>
      </trkpt>
      <trkpt lat="43.01041" lon="-0.19005">
        <ele>1042.2</ele>
        <time>2021-08-29T07:52:24Z</time>
      </trkpt>
      <trkpt lat="43.01041" lon="-0.19006">
        <ele>1042.4</ele>
        <time>2021-08-29T07:52:25Z</time>
      </trkpt>
      <trkpt lat="43.0104" lon="-0.19008">
        <ele>1042.4</ele>
        <time>2021-08-29T07:52:26Z</time>
      </trkpt>
      <trkpt lat="43.0104" lon="-0.1901">
        <ele>1042.6</ele>
        <time>2021-08-29T07:52:27Z</time>
      </trkpt>
      <trkpt lat="43.0104" lon="-0.19012">
        <ele>1042.6</ele>
        <time>2021-08-29T07:52:28Z</time>
      </trkpt>
      <trkpt lat="43.01039" lon="-0.19014">
        <ele>1042.8</ele>
        <time>2021-08-29T07:52:29Z</time>
      </trkpt>
      <trkpt lat="43.01039" lon="-0.19016">
        <ele>1043</ele>
        <time>2021-08-29T07:52:30Z</time>
      </trkpt>
      <trkpt lat="43.01038" lon="-0.19018">
        <ele>1043</ele>
        <time>2021-08-29T07:52:31Z</time>
      </trkpt>
      <trkpt lat="43.01038" lon="-0.1902">
        <ele>1043.2</ele>
        <time>2021-08-29T07:52:32Z</time>
      </trkpt>
      <trkpt lat="43.01036" lon="-0.19021">
        <ele>1043.2</ele>
        <time>2021-08-29T07:52:33Z</time>
      </trkpt>
      <trkpt lat="43.01035" lon="-0.19023">
        <ele>1043.4</ele>
        <time>2021-08-29T07:52:34Z</time>
      </trkpt>
      <trkpt lat="43.01035" lon="-0.19025">
        <ele>1043.6</ele>
        <time>2021-08-29T07:52:35Z</time>
      </trkpt>
      <trkpt lat="43.01035" lon="-0.19027">
        <ele>1043.6</ele>
        <time>2021-08-29T07:52:36Z</time>
      </trkpt>
      <trkpt lat="43.01034" lon="-0.19029">
        <ele>1043.8</ele>
        <time>2021-08-29T07:52:37Z</time>
      </trkpt>
      <trkpt lat="43.01034" lon="-0.1903">
        <ele>1044</ele>
        <time>2021-08-29T07:52:38Z</time>
      </trkpt>
      <trkpt lat="43.01034" lon="-0.19032">
        <ele>1043.8</ele>
        <time>2021-08-29T07:52:39Z</time>
      </trkpt>
      <trkpt lat="43.01033" lon="-0.19034">
        <ele>1044.2</ele>
        <time>2021-08-29T07:52:40Z</time>
      </trkpt>
      <trkpt lat="43.01033" lon="-0.19035">
        <ele>1044</ele>
        <time>2021-08-29T07:52:41Z</time>
      </trkpt>
      <trkpt lat="43.01033" lon="-0.19037">
        <ele>1044.2</ele>
        <time>2021-08-29T07:52:42Z</time>
      </trkpt>
      <trkpt lat="43.01033" lon="-0.19038">
        <ele>1044.4</ele>
        <time>2021-08-29T07:52:43Z</time>
      </trkpt>
      <trkpt lat="43.01033" lon="-0.1904">
        <ele>1044.6</ele>
        <time>2021-08-29T07:52:44Z</time>
      </trkpt>
      <trkpt lat="43.01033" lon="-0.19041">
        <ele>1044.6</ele>
        <time>2021-08-29T07:52:45Z</time>
      </trkpt>
      <trkpt lat="43.01033" lon="-0.19041">
        <ele>1044.8</ele>
        <time>2021-08-29T07:52:46Z</time>
      </trkpt>
      <trkpt lat="43.01033" lon="-0.19041">
        <ele>1045</ele>
        <time>2021-08-29T07:52:47Z</time>
      </trkpt>
      <trkpt lat="43.01033" lon="-0.19043">
        <ele>1045.2</ele>
        <time>2021-08-29T07:52:48Z</time>
      </trkpt>
      <trkpt lat="43.01033" lon="-0.19045">
        <ele>1045.4</ele>
        <time>2021-08-29T07:52:49Z</time>
      </trkpt>
      <trkpt lat="43.01033" lon="-0.19047">
        <ele>1045.6</ele>
        <time>2021-08-29T07:52:50Z</time>
      </trkpt>
      <trkpt lat="43.01033" lon="-0.19048">
        <ele>1045.6</ele>
        <time>2021-08-29T07:52:51Z</time>
      </trkpt>
      <trkpt lat="43.01033" lon="-0.1905">
        <ele>1045.8</ele>
        <time>2021-08-29T07:52:52Z</time>
      </trkpt>
      <trkpt lat="43.01033" lon="-0.19051">
        <ele>1046</ele>
        <time>2021-08-29T07:52:53Z</time>
      </trkpt>
      <trkpt lat="43.01032" lon="-0.19053">
        <ele>1046.2</ele>
        <time>2021-08-29T07:52:54Z</time>
      </trkpt>
      <trkpt lat="43.01032" lon="-0.19054">
        <ele>1046.4</ele>
        <time>2021-08-29T07:52:55Z</time>
      </trkpt>
      <trkpt lat="43.01033" lon="-0.19056">
        <ele>1046.6</ele>
        <time>2021-08-29T07:52:56Z</time>
      </trkpt>
      <trkpt lat="43.01033" lon="-0.19056">
        <ele>1046.8</ele>
        <time>2021-08-29T07:52:57Z</time>
      </trkpt>
      <trkpt lat="43.01032" lon="-0.19057">
        <ele>1046.8</ele>
        <time>2021-08-29T07:52:58Z</time>
      </trkpt>
      <trkpt lat="43.01032" lon="-0.19059">
        <ele>1047</ele>
        <time>2021-08-29T07:52:59Z</time>
      </trkpt>
      <trkpt lat="43.01032" lon="-0.19061">
        <ele>1047</ele>
        <time>2021-08-29T07:53:00Z</time>
      </trkpt>
      <trkpt lat="43.01032" lon="-0.19062">
        <ele>1047.2</ele>
        <time>2021-08-29T07:53:01Z</time>
      </trkpt>
      <trkpt lat="43.01033" lon="-0.19063">
        <ele>1047.2</ele>
        <time>2021-08-29T07:53:02Z</time>
      </trkpt>
      <trkpt lat="43.01033" lon="-0.19065">
        <ele>1047.4</ele>
        <time>2021-08-29T07:53:03Z</time>
      </trkpt>
      <trkpt lat="43.01032" lon="-0.19066">
        <ele>1047.6</ele>
        <time>2021-08-29T07:53:04Z</time>
      </trkpt>
      <trkpt lat="43.01033" lon="-0.19069">
        <ele>1047.8</ele>
        <time>2021-08-29T07:53:05Z</time>
      </trkpt>
      <trkpt lat="43.01033" lon="-0.19073">
        <ele>1048</ele>
        <time>2021-08-29T07:53:06Z</time>
      </trkpt>
      <trkpt lat="43.01033" lon="-0.19075">
        <ele>1048</ele>
        <time>2021-08-29T07:53:07Z</time>
      </trkpt>
      <trkpt lat="43.01033" lon="-0.19077">
        <ele>1048.2</ele>
        <time>2021-08-29T07:53:08Z</time>
      </trkpt>
      <trkpt lat="43.01032" lon="-0.19078">
        <ele>1048.4</ele>
        <time>2021-08-29T07:53:09Z</time>
      </trkpt>
      <trkpt lat="43.01032" lon="-0.1908">
        <ele>1048.4</ele>
        <time>2021-08-29T07:53:10Z</time>
      </trkpt>
      <trkpt lat="43.01033" lon="-0.19082">
        <ele>1048.8</ele>
        <time>2021-08-29T07:53:11Z</time>
      </trkpt>
      <trkpt lat="43.01033" lon="-0.19084">
        <ele>1048.8</ele>
        <time>2021-08-29T07:53:12Z</time>
      </trkpt>
      <trkpt lat="43.01033" lon="-0.19084">
        <ele>1049</ele>
        <time>2021-08-29T07:53:13Z</time>
      </trkpt>
      <trkpt lat="43.01033" lon="-0.19084">
        <ele>1049.2</ele>
        <time>2021-08-29T07:53:14Z</time>
      </trkpt>
      <trkpt lat="43.01033" lon="-0.19084">
        <ele>1049.4</ele>
        <time>2021-08-29T07:53:15Z</time>
      </trkpt>
      <trkpt lat="43.01032" lon="-0.19087">
        <ele>1049.8</ele>
        <time>2021-08-29T07:53:20Z</time>
      </trkpt>
      <trkpt lat="43.01032" lon="-0.19087">
        <ele>1049.8</ele>
        <time>2021-08-29T07:53:21Z</time>
      </trkpt>
      <trkpt lat="43.01031" lon="-0.19085">
        <ele>1049.8</ele>
        <time>2021-08-29T07:53:23Z</time>
      </trkpt>
      <trkpt lat="43.0103" lon="-0.19084">
        <ele>1049.8</ele>
        <time>2021-08-29T07:53:24Z</time>
      </trkpt>
      <trkpt lat="43.0103" lon="-0.19083">
        <ele>1049.6</ele>
        <time>2021-08-29T07:53:25Z</time>
      </trkpt>
      <trkpt lat="43.0103" lon="-0.1908">
        <ele>1049.6</ele>
        <time>2021-08-29T07:53:26Z</time>
      </trkpt>
      <trkpt lat="43.0103" lon="-0.19079">
        <ele>1049.6</ele>
        <time>2021-08-29T07:53:27Z</time>
      </trkpt>
      <trkpt lat="43.01029" lon="-0.19078">
        <ele>1049.4</ele>
        <time>2021-08-29T07:53:28Z</time>
      </trkpt>
      <trkpt lat="43.01028" lon="-0.19076">
        <ele>1049.4</ele>
        <time>2021-08-29T07:53:29Z</time>
      </trkpt>
      <trkpt lat="43.01028" lon="-0.19074">
        <ele>1049.4</ele>
        <time>2021-08-29T07:53:30Z</time>
      </trkpt>
      <trkpt lat="43.01028" lon="-0.19072">
        <ele>1049.2</ele>
        <time>2021-08-29T07:53:31Z</time>
      </trkpt>
      <trkpt lat="43.01026" lon="-0.19062">
        <ele>1048.6</ele>
        <time>2021-08-29T07:53:34Z</time>
      </trkpt>
      <trkpt lat="43.01026" lon="-0.19057">
        <ele>1048.2</ele>
        <time>2021-08-29T07:53:36Z</time>
      </trkpt>
      <trkpt lat="43.01026" lon="-0.19054">
        <ele>1048</ele>
        <time>2021-08-29T07:53:37Z</time>
      </trkpt>
      <trkpt lat="43.01026" lon="-0.19045">
        <ele>1047.2</ele>
        <time>2021-08-29T07:53:39Z</time>
      </trkpt>
      <trkpt lat="43.01028" lon="-0.19038">
        <ele>1046.6</ele>
        <time>2021-08-29T07:53:41Z</time>
      </trkpt>
      <trkpt lat="43.01028" lon="-0.19035">
        <ele>1046.4</ele>
        <time>2021-08-29T07:53:42Z</time>
      </trkpt>
      <trkpt lat="43.01027" lon="-0.19033">
        <ele>1046</ele>
        <time>2021-08-29T07:53:43Z</time>
      </trkpt>
      <trkpt lat="43.01026" lon="-0.19032">
        <ele>1045.8</ele>
        <time>2021-08-29T07:53:44Z</time>
      </trkpt>
      <trkpt lat="43.01025" lon="-0.19032">
        <ele>1045.6</ele>
        <time>2021-08-29T07:53:45Z</time>
      </trkpt>
      <trkpt lat="43.01025" lon="-0.19034">
        <ele>1045.4</ele>
        <time>2021-08-29T07:53:46Z</time>
      </trkpt>
      <trkpt lat="43.01025" lon="-0.19036">
        <ele>1045.2</ele>
        <time>2021-08-29T07:53:47Z</time>
      </trkpt>
      <trkpt lat="43.01025" lon="-0.19037">
        <ele>1045</ele>
        <time>2021-08-29T07:53:48Z</time>
      </trkpt>
      <trkpt lat="43.01024" lon="-0.19038">
        <ele>1044.8</ele>
        <time>2021-08-29T07:53:49Z</time>
      </trkpt>
      <trkpt lat="43.01023" lon="-0.1904">
        <ele>1044.6</ele>
        <time>2021-08-29T07:53:50Z</time>
      </trkpt>
      <trkpt lat="43.01023" lon="-0.19041">
        <ele>1044.4</ele>
        <time>2021-08-29T07:53:51Z</time>
      </trkpt>
      <trkpt lat="43.01023" lon="-0.19043">
        <ele>1044.2</ele>
        <time>2021-08-29T07:53:52Z</time>
      </trkpt>
      <trkpt lat="43.01023" lon="-0.19045">
        <ele>1044.2</ele>
        <time>2021-08-29T07:53:53Z</time>
      </trkpt>
      <trkpt lat="43.01024" lon="-0.19047">
        <ele>1044</ele>
        <time>2021-08-29T07:53:54Z</time>
      </trkpt>
      <trkpt lat="43.01024" lon="-0.19048">
        <ele>1044</ele>
        <time>2021-08-29T07:53:55Z</time>
      </trkpt>
      <trkpt lat="43.01024" lon="-0.19049">
        <ele>1044</ele>
        <time>2021-08-29T07:53:56Z</time>
      </trkpt>
      <trkpt lat="43.01024" lon="-0.19051">
        <ele>1043.8</ele>
        <time>2021-08-29T07:53:57Z</time>
      </trkpt>
      <trkpt lat="43.01024" lon="-0.19053">
        <ele>1043.8</ele>
        <time>2021-08-29T07:53:58Z</time>
      </trkpt>
      <trkpt lat="43.01024" lon="-0.19054">
        <ele>1043.8</ele>
        <time>2021-08-29T07:53:59Z</time>
      </trkpt>
      <trkpt lat="43.01023" lon="-0.19058">
        <ele>1044</ele>
        <time>2021-08-29T07:54:02Z</time>
      </trkpt>
      <trkpt lat="43.01023" lon="-0.1906">
        <ele>1044</ele>
        <time>2021-08-29T07:54:03Z</time>
      </trkpt>
      <trkpt lat="43.01022" lon="-0.19062">
        <ele>1044</ele>
        <time>2021-08-29T07:54:04Z</time>
      </trkpt>
      <trkpt lat="43.01022" lon="-0.19063">
        <ele>1044</ele>
        <time>2021-08-29T07:54:05Z</time>
      </trkpt>
      <trkpt lat="43.01022" lon="-0.19063">
        <ele>1044</ele>
        <time>2021-08-29T07:54:06Z</time>
      </trkpt>
      <trkpt lat="43.01021" lon="-0.19065">
        <ele>1044</ele>
        <time>2021-08-29T07:54:07Z</time>
      </trkpt>
      <trkpt lat="43.01021" lon="-0.19066">
        <ele>1044</ele>
        <time>2021-08-29T07:54:08Z</time>
      </trkpt>
      <trkpt lat="43.01021" lon="-0.19069">
        <ele>1044.2</ele>
        <time>2021-08-29T07:54:09Z</time>
      </trkpt>
      <trkpt lat="43.01021" lon="-0.1907">
        <ele>1044.2</ele>
        <time>2021-08-29T07:54:10Z</time>
      </trkpt>
      <trkpt lat="43.01021" lon="-0.19071">
        <ele>1044.2</ele>
        <time>2021-08-29T07:54:11Z</time>
      </trkpt>
      <trkpt lat="43.01021" lon="-0.19072">
        <ele>1044.2</ele>
        <time>2021-08-29T07:54:12Z</time>
      </trkpt>
      <trkpt lat="43.0102" lon="-0.19074">
        <ele>1044.2</ele>
        <time>2021-08-29T07:54:13Z</time>
      </trkpt>
      <trkpt lat="43.01018" lon="-0.19094">
        <ele>1044.4</ele>
        <time>2021-08-29T07:54:18Z</time>
      </trkpt>
      <trkpt lat="43.01017" lon="-0.19118">
        <ele>1044.6</ele>
        <time>2021-08-29T07:54:24Z</time>
      </trkpt>
      <trkpt lat="43.01015" lon="-0.19123">
        <ele>1044.6</ele>
        <time>2021-08-29T07:54:26Z</time>
      </trkpt>
      <trkpt lat="43.01015" lon="-0.1913">
        <ele>1044.6</ele>
        <time>2021-08-29T07:54:28Z</time>
      </trkpt>
      <trkpt lat="43.01014" lon="-0.19134">
        <ele>1044.6</ele>
        <time>2021-08-29T07:54:29Z</time>
      </trkpt>
      <trkpt lat="43.01015" lon="-0.19137">
        <ele>1044.8</ele>
        <time>2021-08-29T07:54:30Z</time>
      </trkpt>
      <trkpt lat="43.01016" lon="-0.19143">
        <ele>1044.8</ele>
        <time>2021-08-29T07:54:31Z</time>
      </trkpt>
      <trkpt lat="43.01018" lon="-0.19148">
        <ele>1044.8</ele>
        <time>2021-08-29T07:54:32Z</time>
      </trkpt>
      <trkpt lat="43.01021" lon="-0.19153">
        <ele>1044.8</ele>
        <time>2021-08-29T07:54:35Z</time>
      </trkpt>
      <trkpt lat="43.01023" lon="-0.19155">
        <ele>1044.8</ele>
        <time>2021-08-29T07:54:36Z</time>
      </trkpt>
      <trkpt lat="43.01024" lon="-0.19158">
        <ele>1044.8</ele>
        <time>2021-08-29T07:54:37Z</time>
      </trkpt>
      <trkpt lat="43.01026" lon="-0.19161">
        <ele>1044.8</ele>
        <time>2021-08-29T07:54:38Z</time>
      </trkpt>
      <trkpt lat="43.01028" lon="-0.19165">
        <ele>1044.8</ele>
        <time>2021-08-29T07:54:39Z</time>
      </trkpt>
      <trkpt lat="43.0103" lon="-0.19167">
        <ele>1044.8</ele>
        <time>2021-08-29T07:54:40Z</time>
      </trkpt>
      <trkpt lat="43.01031" lon="-0.1917">
        <ele>1044.8</ele>
        <time>2021-08-29T07:54:41Z</time>
      </trkpt>
      <trkpt lat="43.01033" lon="-0.19173">
        <ele>1045</ele>
        <time>2021-08-29T07:54:42Z</time>
      </trkpt>
      <trkpt lat="43.01041" lon="-0.19179">
        <ele>1045</ele>
        <time>2021-08-29T07:54:46Z</time>
      </trkpt>
      <trkpt lat="43.01043" lon="-0.19181">
        <ele>1045</ele>
        <time>2021-08-29T07:54:47Z</time>
      </trkpt>
      <trkpt lat="43.01044" lon="-0.19186">
        <ele>1045</ele>
        <time>2021-08-29T07:54:48Z</time>
      </trkpt>
      <trkpt lat="43.01045" lon="-0.19189">
        <ele>1045.2</ele>
        <time>2021-08-29T07:54:49Z</time>
      </trkpt>
      <trkpt lat="43.01046" lon="-0.19193">
        <ele>1045.2</ele>
        <time>2021-08-29T07:54:50Z</time>
      </trkpt>
      <trkpt lat="43.01045" lon="-0.19198">
        <ele>1045.2</ele>
        <time>2021-08-29T07:54:51Z</time>
      </trkpt>
      <trkpt lat="43.01044" lon="-0.19203">
        <ele>1045.2</ele>
        <time>2021-08-29T07:54:52Z</time>
      </trkpt>
      <trkpt lat="43.01041" lon="-0.19207">
        <ele>1045</ele>
        <time>2021-08-29T07:54:53Z</time>
      </trkpt>
      <trkpt lat="43.0104" lon="-0.1921">
        <ele>1045</ele>
        <time>2021-08-29T07:54:54Z</time>
      </trkpt>
      <trkpt lat="43.01038" lon="-0.19213">
        <ele>1045</ele>
        <time>2021-08-29T07:54:55Z</time>
      </trkpt>
      <trkpt lat="43.01037" lon="-0.19223">
        <ele>1044.8</ele>
        <time>2021-08-29T07:54:58Z</time>
      </trkpt>
      <trkpt lat="43.01033" lon="-0.19239">
        <ele>1044.2</ele>
        <time>2021-08-29T07:55:03Z</time>
      </trkpt>
      <trkpt lat="43.01033" lon="-0.19242">
        <ele>1043.8</ele>
        <time>2021-08-29T07:55:04Z</time>
      </trkpt>
      <trkpt lat="43.01034" lon="-0.19244">
        <ele>1043.6</ele>
        <time>2021-08-29T07:55:05Z</time>
      </trkpt>
      <trkpt lat="43.01035" lon="-0.19247">
        <ele>1043.4</ele>
        <time>2021-08-29T07:55:06Z</time>
      </trkpt>
      <trkpt lat="43.01037" lon="-0.1925">
        <ele>1043.2</ele>
        <time>2021-08-29T07:55:07Z</time>
      </trkpt>
      <trkpt lat="43.01037" lon="-0.19253">
        <ele>1043</ele>
        <time>2021-08-29T07:55:08Z</time>
      </trkpt>
      <trkpt lat="43.01036" lon="-0.19258">
        <ele>1042.8</ele>
        <time>2021-08-29T07:55:09Z</time>
      </trkpt>
      <trkpt lat="43.01035" lon="-0.19261">
        <ele>1042.6</ele>
        <time>2021-08-29T07:55:10Z</time>
      </trkpt>
      <trkpt lat="43.0103" lon="-0.19267">
        <ele>1042.4</ele>
        <time>2021-08-29T07:55:13Z</time>
      </trkpt>
      <trkpt lat="43.01029" lon="-0.19269">
        <ele>1042.4</ele>
        <time>2021-08-29T07:55:14Z</time>
      </trkpt>
      <trkpt lat="43.01027" lon="-0.1927">
        <ele>1042.4</ele>
        <time>2021-08-29T07:55:15Z</time>
      </trkpt>
      <trkpt lat="43.01026" lon="-0.19271">
        <ele>1042.4</ele>
        <time>2021-08-29T07:55:16Z</time>
      </trkpt>
      <trkpt lat="43.01025" lon="-0.19273">
        <ele>1042.4</ele>
        <time>2021-08-29T07:55:17Z</time>
      </trkpt>
      <trkpt lat="43.01023" lon="-0.19276">
        <ele>1042.4</ele>
        <time>2021-08-29T07:55:18Z</time>
      </trkpt>
      <trkpt lat="43.01022" lon="-0.19279">
        <ele>1042.4</ele>
        <time>2021-08-29T07:55:19Z</time>
      </trkpt>
      <trkpt lat="43.01021" lon="-0.19281">
        <ele>1042.6</ele>
        <time>2021-08-29T07:55:20Z</time>
      </trkpt>
      <trkpt lat="43.0102" lon="-0.19284">
        <ele>1042.6</ele>
        <time>2021-08-29T07:55:21Z</time>
      </trkpt>
      <trkpt lat="43.01019" lon="-0.19286">
        <ele>1042.6</ele>
        <time>2021-08-29T07:55:22Z</time>
      </trkpt>
      <trkpt lat="43.01013" lon="-0.19299">
        <ele>1043.2</ele>
        <time>2021-08-29T07:55:27Z</time>
      </trkpt>
      <trkpt lat="43.01005" lon="-0.19319">
        <ele>1043.4</ele>
        <time>2021-08-29T07:55:34Z</time>
      </trkpt>
      <trkpt lat="43.01001" lon="-0.19325">
        <ele>1043.4</ele>
        <time>2021-08-29T07:55:37Z</time>
      </trkpt>
      <trkpt lat="43.01001" lon="-0.19327">
        <ele>1043.4</ele>
        <time>2021-08-29T07:55:38Z</time>
      </trkpt>
      <trkpt lat="43.01001" lon="-0.19327">
        <ele>1043.4</ele>
        <time>2021-08-29T07:55:39Z</time>
      </trkpt>
      <trkpt lat="43.01001" lon="-0.19327">
        <ele>1043.4</ele>
        <time>2021-08-29T07:55:40Z</time>
      </trkpt>
      <trkpt lat="43.00999" lon="-0.19332">
        <ele>1043.6</ele>
        <time>2021-08-29T07:56:00Z</time>
      </trkpt>
      <trkpt lat="43.00998" lon="-0.19334">
        <ele>1043.6</ele>
        <time>2021-08-29T07:56:01Z</time>
      </trkpt>
      <trkpt lat="43.00995" lon="-0.19345">
        <ele>1043.6</ele>
        <time>2021-08-29T07:56:05Z</time>
      </trkpt>
      <trkpt lat="43.00994" lon="-0.19347">
        <ele>1043.6</ele>
        <time>2021-08-29T07:56:06Z</time>
      </trkpt>
      <trkpt lat="43.00994" lon="-0.19349">
        <ele>1043.8</ele>
        <time>2021-08-29T07:56:07Z</time>
      </trkpt>
      <trkpt lat="43.00994" lon="-0.19352">
        <ele>1043.8</ele>
        <time>2021-08-29T07:56:08Z</time>
      </trkpt>
      <trkpt lat="43.00994" lon="-0.19354">
        <ele>1043.8</ele>
        <time>2021-08-29T07:56:09Z</time>
      </trkpt>
      <trkpt lat="43.00993" lon="-0.19359">
        <ele>1044</ele>
        <time>2021-08-29T07:56:12Z</time>
      </trkpt>
      <trkpt lat="43.00994" lon="-0.19361">
        <ele>1044.4</ele>
        <time>2021-08-29T07:56:13Z</time>
      </trkpt>
      <trkpt lat="43.00994" lon="-0.19362">
        <ele>1044.6</ele>
        <time>2021-08-29T07:56:14Z</time>
      </trkpt>
      <trkpt lat="43.00994" lon="-0.19364">
        <ele>1044.8</ele>
        <time>2021-08-29T07:56:15Z</time>
      </trkpt>
      <trkpt lat="43.00994" lon="-0.19366">
        <ele>1044.8</ele>
        <time>2021-08-29T07:56:16Z</time>
      </trkpt>
      <trkpt lat="43.00993" lon="-0.19368">
        <ele>1045</ele>
        <time>2021-08-29T07:56:17Z</time>
      </trkpt>
      <trkpt lat="43.00993" lon="-0.19369">
        <ele>1045.2</ele>
        <time>2021-08-29T07:56:18Z</time>
      </trkpt>
      <trkpt lat="43.00993" lon="-0.19371">
        <ele>1045.4</ele>
        <time>2021-08-29T07:56:19Z</time>
      </trkpt>
      <trkpt lat="43.00993" lon="-0.19372">
        <ele>1045.8</ele>
        <time>2021-08-29T07:56:20Z</time>
      </trkpt>
      <trkpt lat="43.00992" lon="-0.19374">
        <ele>1045.8</ele>
        <time>2021-08-29T07:56:21Z</time>
      </trkpt>
      <trkpt lat="43.00992" lon="-0.19376">
        <ele>1046</ele>
        <time>2021-08-29T07:56:22Z</time>
      </trkpt>
      <trkpt lat="43.00992" lon="-0.19378">
        <ele>1046.2</ele>
        <time>2021-08-29T07:56:23Z</time>
      </trkpt>
      <trkpt lat="43.00991" lon="-0.1938">
        <ele>1046.4</ele>
        <time>2021-08-29T07:56:24Z</time>
      </trkpt>
      <trkpt lat="43.00991" lon="-0.19381">
        <ele>1046.6</ele>
        <time>2021-08-29T07:56:25Z</time>
      </trkpt>
      <trkpt lat="43.00991" lon="-0.19383">
        <ele>1046.8</ele>
        <time>2021-08-29T07:56:26Z</time>
      </trkpt>
      <trkpt lat="43.00992" lon="-0.19385">
        <ele>1046.8</ele>
        <time>2021-08-29T07:56:27Z</time>
      </trkpt>
      <trkpt lat="43.00992" lon="-0.19386">
        <ele>1047.2</ele>
        <time>2021-08-29T07:56:28Z</time>
      </trkpt>
      <trkpt lat="43.00991" lon="-0.19388">
        <ele>1047.2</ele>
        <time>2021-08-29T07:56:29Z</time>
      </trkpt>
      <trkpt lat="43.0099" lon="-0.19391">
        <ele>1047.4</ele>
        <time>2021-08-29T07:56:30Z</time>
      </trkpt>
      <trkpt lat="43.00989" lon="-0.19392">
        <ele>1047.4</ele>
        <time>2021-08-29T07:56:31Z</time>
      </trkpt>
      <trkpt lat="43.0099" lon="-0.19393">
        <ele>1047.8</ele>
        <time>2021-08-29T07:56:32Z</time>
      </trkpt>
      <trkpt lat="43.0099" lon="-0.19395">
        <ele>1048</ele>
        <time>2021-08-29T07:56:33Z</time>
      </trkpt>
      <trkpt lat="43.0099" lon="-0.19397">
        <ele>1048.4</ele>
        <time>2021-08-29T07:56:34Z</time>
      </trkpt>
      <trkpt lat="43.0099" lon="-0.194">
        <ele>1048.6</ele>
        <time>2021-08-29T07:56:35Z</time>
      </trkpt>
      <trkpt lat="43.0099" lon="-0.19403">
        <ele>1048.8</ele>
        <time>2021-08-29T07:56:36Z</time>
      </trkpt>
      <trkpt lat="43.00991" lon="-0.19406">
        <ele>1049</ele>
        <time>2021-08-29T07:56:37Z</time>
      </trkpt>
      <trkpt lat="43.0099" lon="-0.19409">
        <ele>1049</ele>
        <time>2021-08-29T07:56:38Z</time>
      </trkpt>
      <trkpt lat="43.0099" lon="-0.19411">
        <ele>1049.2</ele>
        <time>2021-08-29T07:56:39Z</time>
      </trkpt>
      <trkpt lat="43.0099" lon="-0.19413">
        <ele>1049.2</ele>
        <time>2021-08-29T07:56:40Z</time>
      </trkpt>
      <trkpt lat="43.0099" lon="-0.19417">
        <ele>1049.8</ele>
        <time>2021-08-29T07:56:41Z</time>
      </trkpt>
      <trkpt lat="43.0099" lon="-0.19419">
        <ele>1050</ele>
        <time>2021-08-29T07:56:42Z</time>
      </trkpt>
      <trkpt lat="43.00991" lon="-0.19421">
        <ele>1050.2</ele>
        <time>2021-08-29T07:56:43Z</time>
      </trkpt>
      <trkpt lat="43.0099" lon="-0.19422">
        <ele>1050.2</ele>
        <time>2021-08-29T07:56:44Z</time>
      </trkpt>
      <trkpt lat="43.00989" lon="-0.19424">
        <ele>1050.6</ele>
        <time>2021-08-29T07:56:45Z</time>
      </trkpt>
      <trkpt lat="43.0099" lon="-0.19426">
        <ele>1050.6</ele>
        <time>2021-08-29T07:56:46Z</time>
      </trkpt>
      <trkpt lat="43.00989" lon="-0.19428">
        <ele>1051</ele>
        <time>2021-08-29T07:56:47Z</time>
      </trkpt>
      <trkpt lat="43.00989" lon="-0.1943">
        <ele>1051.2</ele>
        <time>2021-08-29T07:56:48Z</time>
      </trkpt>
      <trkpt lat="43.00989" lon="-0.19432">
        <ele>1051.4</ele>
        <time>2021-08-29T07:56:49Z</time>
      </trkpt>
      <trkpt lat="43.00989" lon="-0.19435">
        <ele>1051.6</ele>
        <time>2021-08-29T07:56:50Z</time>
      </trkpt>
      <trkpt lat="43.0099" lon="-0.19437">
        <ele>1051.8</ele>
        <time>2021-08-29T07:56:51Z</time>
      </trkpt>
      <trkpt lat="43.0099" lon="-0.1944">
        <ele>1052</ele>
        <time>2021-08-29T07:56:52Z</time>
      </trkpt>
      <trkpt lat="43.0099" lon="-0.19442">
        <ele>1052</ele>
        <time>2021-08-29T07:56:53Z</time>
      </trkpt>
      <trkpt lat="43.00991" lon="-0.19445">
        <ele>1052.2</ele>
        <time>2021-08-29T07:56:54Z</time>
      </trkpt>
      <trkpt lat="43.00992" lon="-0.19448">
        <ele>1052.4</ele>
        <time>2021-08-29T07:56:55Z</time>
      </trkpt>
      <trkpt lat="43.00993" lon="-0.19451">
        <ele>1052.6</ele>
        <time>2021-08-29T07:56:56Z</time>
      </trkpt>
      <trkpt lat="43.00993" lon="-0.19453">
        <ele>1052.6</ele>
        <time>2021-08-29T07:56:57Z</time>
      </trkpt>
      <trkpt lat="43.00993" lon="-0.19455">
        <ele>1052.8</ele>
        <time>2021-08-29T07:56:58Z</time>
      </trkpt>
      <trkpt lat="43.00994" lon="-0.19458">
        <ele>1052.8</ele>
        <time>2021-08-29T07:56:59Z</time>
      </trkpt>
      <trkpt lat="43.00994" lon="-0.19459">
        <ele>1052.8</ele>
        <time>2021-08-29T07:57:00Z</time>
      </trkpt>
      <trkpt lat="43.00994" lon="-0.19461">
        <ele>1053</ele>
        <time>2021-08-29T07:57:01Z</time>
      </trkpt>
      <trkpt lat="43.00994" lon="-0.19462">
        <ele>1053.2</ele>
        <time>2021-08-29T07:57:02Z</time>
      </trkpt>
      <trkpt lat="43.00994" lon="-0.19464">
        <ele>1053.2</ele>
        <time>2021-08-29T07:57:03Z</time>
      </trkpt>
      <trkpt lat="43.00995" lon="-0.19466">
        <ele>1053.4</ele>
        <time>2021-08-29T07:57:04Z</time>
      </trkpt>
      <trkpt lat="43.00995" lon="-0.19468">
        <ele>1053.4</ele>
        <time>2021-08-29T07:57:05Z</time>
      </trkpt>
      <trkpt lat="43.00995" lon="-0.1947">
        <ele>1053.6</ele>
        <time>2021-08-29T07:57:06Z</time>
      </trkpt>
      <trkpt lat="43.00995" lon="-0.19473">
        <ele>1053.6</ele>
        <time>2021-08-29T07:57:07Z</time>
      </trkpt>
      <trkpt lat="43.00995" lon="-0.19476">
        <ele>1053.8</ele>
        <time>2021-08-29T07:57:08Z</time>
      </trkpt>
      <trkpt lat="43.00995" lon="-0.1948">
        <ele>1054</ele>
        <time>2021-08-29T07:57:09Z</time>
      </trkpt>
      <trkpt lat="43.00994" lon="-0.19483">
        <ele>1054.2</ele>
        <time>2021-08-29T07:57:10Z</time>
      </trkpt>
      <trkpt lat="43.00993" lon="-0.19487">
        <ele>1054.2</ele>
        <time>2021-08-29T07:57:11Z</time>
      </trkpt>
      <trkpt lat="43.00992" lon="-0.19489">
        <ele>1054.4</ele>
        <time>2021-08-29T07:57:12Z</time>
      </trkpt>
      <trkpt lat="43.00991" lon="-0.19492">
        <ele>1054.4</ele>
        <time>2021-08-29T07:57:13Z</time>
      </trkpt>
      <trkpt lat="43.0099" lon="-0.19495">
        <ele>1054.8</ele>
        <time>2021-08-29T07:57:14Z</time>
      </trkpt>
      <trkpt lat="43.00989" lon="-0.19498">
        <ele>1054.8</ele>
        <time>2021-08-29T07:57:15Z</time>
      </trkpt>
      <trkpt lat="43.00988" lon="-0.19502">
        <ele>1054.8</ele>
        <time>2021-08-29T07:57:16Z</time>
      </trkpt>
      <trkpt lat="43.00988" lon="-0.19505">
        <ele>1055</ele>
        <time>2021-08-29T07:57:17Z</time>
      </trkpt>
      <trkpt lat="43.00987" lon="-0.19508">
        <ele>1055</ele>
        <time>2021-08-29T07:57:18Z</time>
      </trkpt>
      <trkpt lat="43.00987" lon="-0.19511">
        <ele>1055</ele>
        <time>2021-08-29T07:57:19Z</time>
      </trkpt>
      <trkpt lat="43.00986" lon="-0.19514">
        <ele>1055.2</ele>
        <time>2021-08-29T07:57:20Z</time>
      </trkpt>
      <trkpt lat="43.00985" lon="-0.19517">
        <ele>1055.4</ele>
        <time>2021-08-29T07:57:21Z</time>
      </trkpt>
      <trkpt lat="43.00985" lon="-0.1952">
        <ele>1055.4</ele>
        <time>2021-08-29T07:57:22Z</time>
      </trkpt>
      <trkpt lat="43.00984" lon="-0.19523">
        <ele>1055.6</ele>
        <time>2021-08-29T07:57:23Z</time>
      </trkpt>
      <trkpt lat="43.00984" lon="-0.19527">
        <ele>1055.4</ele>
        <time>2021-08-29T07:57:24Z</time>
      </trkpt>
      <trkpt lat="43.00982" lon="-0.19532">
        <ele>1055.4</ele>
        <time>2021-08-29T07:57:25Z</time>
      </trkpt>
      <trkpt lat="43.00981" lon="-0.19534">
        <ele>1055.6</ele>
        <time>2021-08-29T07:57:26Z</time>
      </trkpt>
      <trkpt lat="43.0098" lon="-0.19537">
        <ele>1055.8</ele>
        <time>2021-08-29T07:57:27Z</time>
      </trkpt>
      <trkpt lat="43.00979" lon="-0.19539">
        <ele>1056</ele>
        <time>2021-08-29T07:57:28Z</time>
      </trkpt>
      <trkpt lat="43.00978" lon="-0.19541">
        <ele>1056.2</ele>
        <time>2021-08-29T07:57:29Z</time>
      </trkpt>
      <trkpt lat="43.00976" lon="-0.19543">
        <ele>1056.2</ele>
        <time>2021-08-29T07:57:30Z</time>
      </trkpt>
      <trkpt lat="43.00975" lon="-0.19545">
        <ele>1056.4</ele>
        <time>2021-08-29T07:57:31Z</time>
      </trkpt>
      <trkpt lat="43.00974" lon="-0.19547">
        <ele>1056.4</ele>
        <time>2021-08-29T07:57:32Z</time>
      </trkpt>
      <trkpt lat="43.00972" lon="-0.19548">
        <ele>1056.6</ele>
        <time>2021-08-29T07:57:33Z</time>
      </trkpt>
      <trkpt lat="43.0097" lon="-0.1955">
        <ele>1056.6</ele>
        <time>2021-08-29T07:57:34Z</time>
      </trkpt>
      <trkpt lat="43.00969" lon="-0.19552">
        <ele>1056.8</ele>
        <time>2021-08-29T07:57:35Z</time>
      </trkpt>
      <trkpt lat="43.00968" lon="-0.19554">
        <ele>1056.8</ele>
        <time>2021-08-29T07:57:36Z</time>
      </trkpt>
      <trkpt lat="43.00967" lon="-0.19556">
        <ele>1057</ele>
        <time>2021-08-29T07:57:37Z</time>
      </trkpt>
      <trkpt lat="43.00966" lon="-0.19558">
        <ele>1057.2</ele>
        <time>2021-08-29T07:57:38Z</time>
      </trkpt>
      <trkpt lat="43.00964" lon="-0.1956">
        <ele>1057.2</ele>
        <time>2021-08-29T07:57:39Z</time>
      </trkpt>
      <trkpt lat="43.00963" lon="-0.19562">
        <ele>1057.4</ele>
        <time>2021-08-29T07:57:40Z</time>
      </trkpt>
      <trkpt lat="43.00962" lon="-0.19564">
        <ele>1057.4</ele>
        <time>2021-08-29T07:57:41Z</time>
      </trkpt>
      <trkpt lat="43.00961" lon="-0.19566">
        <ele>1057.8</ele>
        <time>2021-08-29T07:57:42Z</time>
      </trkpt>
      <trkpt lat="43.0096" lon="-0.19567">
        <ele>1057.8</ele>
        <time>2021-08-29T07:57:43Z</time>
      </trkpt>
      <trkpt lat="43.00959" lon="-0.19569">
        <ele>1058</ele>
        <time>2021-08-29T07:57:44Z</time>
      </trkpt>
      <trkpt lat="43.00958" lon="-0.19571">
        <ele>1058.2</ele>
        <time>2021-08-29T07:57:45Z</time>
      </trkpt>
      <trkpt lat="43.00958" lon="-0.19573">
        <ele>1058.4</ele>
        <time>2021-08-29T07:57:46Z</time>
      </trkpt>
      <trkpt lat="43.00957" lon="-0.19574">
        <ele>1058.6</ele>
        <time>2021-08-29T07:57:47Z</time>
      </trkpt>
      <trkpt lat="43.00956" lon="-0.19576">
        <ele>1058.8</ele>
        <time>2021-08-29T07:57:48Z</time>
      </trkpt>
      <trkpt lat="43.00956" lon="-0.19578">
        <ele>1058.8</ele>
        <time>2021-08-29T07:57:49Z</time>
      </trkpt>
      <trkpt lat="43.00955" lon="-0.1958">
        <ele>1059.2</ele>
        <time>2021-08-29T07:57:50Z</time>
      </trkpt>
      <trkpt lat="43.00954" lon="-0.19582">
        <ele>1059.4</ele>
        <time>2021-08-29T07:57:51Z</time>
      </trkpt>
      <trkpt lat="43.00953" lon="-0.19584">
        <ele>1059.6</ele>
        <time>2021-08-29T07:57:52Z</time>
      </trkpt>
      <trkpt lat="43.00952" lon="-0.19586">
        <ele>1059.6</ele>
        <time>2021-08-29T07:57:53Z</time>
      </trkpt>
      <trkpt lat="43.00951" lon="-0.19587">
        <ele>1059.8</ele>
        <time>2021-08-29T07:57:54Z</time>
      </trkpt>
      <trkpt lat="43.00949" lon="-0.19588">
        <ele>1060</ele>
        <time>2021-08-29T07:57:55Z</time>
      </trkpt>
      <trkpt lat="43.00949" lon="-0.1959">
        <ele>1060.2</ele>
        <time>2021-08-29T07:57:56Z</time>
      </trkpt>
      <trkpt lat="43.00948" lon="-0.19592">
        <ele>1060.4</ele>
        <time>2021-08-29T07:57:57Z</time>
      </trkpt>
      <trkpt lat="43.00947" lon="-0.19594">
        <ele>1060.4</ele>
        <time>2021-08-29T07:57:58Z</time>
      </trkpt>
      <trkpt lat="43.00945" lon="-0.19595">
        <ele>1060.6</ele>
        <time>2021-08-29T07:57:59Z</time>
      </trkpt>
      <trkpt lat="43.00944" lon="-0.19597">
        <ele>1060.6</ele>
        <time>2021-08-29T07:58:00Z</time>
      </trkpt>
      <trkpt lat="43.00944" lon="-0.19598">
        <ele>1060.8</ele>
        <time>2021-08-29T07:58:01Z</time>
      </trkpt>
      <trkpt lat="43.00942" lon="-0.19599">
        <ele>1061</ele>
        <time>2021-08-29T07:58:02Z</time>
      </trkpt>
      <trkpt lat="43.00942" lon="-0.19601">
        <ele>1061</ele>
        <time>2021-08-29T07:58:03Z</time>
      </trkpt>
      <trkpt lat="43.00941" lon="-0.19603">
        <ele>1061</ele>
        <time>2021-08-29T07:58:04Z</time>
      </trkpt>
      <trkpt lat="43.0094" lon="-0.19606">
        <ele>1061.2</ele>
        <time>2021-08-29T07:58:05Z</time>
      </trkpt>
      <trkpt lat="43.0094" lon="-0.19608">
        <ele>1061.2</ele>
        <time>2021-08-29T07:58:06Z</time>
      </trkpt>
      <trkpt lat="43.00939" lon="-0.1961">
        <ele>1061.2</ele>
        <time>2021-08-29T07:58:07Z</time>
      </trkpt>
      <trkpt lat="43.00938" lon="-0.19612">
        <ele>1061.2</ele>
        <time>2021-08-29T07:58:08Z</time>
      </trkpt>
      <trkpt lat="43.00938" lon="-0.19614">
        <ele>1061.4</ele>
        <time>2021-08-29T07:58:09Z</time>
      </trkpt>
      <trkpt lat="43.00937" lon="-0.19617">
        <ele>1061.6</ele>
        <time>2021-08-29T07:58:10Z</time>
      </trkpt>
      <trkpt lat="43.00936" lon="-0.19619">
        <ele>1061.8</ele>
        <time>2021-08-29T07:58:11Z</time>
      </trkpt>
      <trkpt lat="43.00936" lon="-0.19622">
        <ele>1061.8</ele>
        <time>2021-08-29T07:58:12Z</time>
      </trkpt>
      <trkpt lat="43.00935" lon="-0.19626">
        <ele>1062</ele>
        <time>2021-08-29T07:58:13Z</time>
      </trkpt>
      <trkpt lat="43.00935" lon="-0.19629">
        <ele>1062.2</ele>
        <time>2021-08-29T07:58:14Z</time>
      </trkpt>
      <trkpt lat="43.00934" lon="-0.19632">
        <ele>1062.2</ele>
        <time>2021-08-29T07:58:15Z</time>
      </trkpt>
      <trkpt lat="43.00933" lon="-0.19635">
        <ele>1062.2</ele>
        <time>2021-08-29T07:58:16Z</time>
      </trkpt>
      <trkpt lat="43.00931" lon="-0.19638">
        <ele>1062.2</ele>
        <time>2021-08-29T07:58:17Z</time>
      </trkpt>
      <trkpt lat="43.0093" lon="-0.19641">
        <ele>1062.4</ele>
        <time>2021-08-29T07:58:18Z</time>
      </trkpt>
      <trkpt lat="43.00928" lon="-0.19644">
        <ele>1062.4</ele>
        <time>2021-08-29T07:58:19Z</time>
      </trkpt>
      <trkpt lat="43.00927" lon="-0.19645">
        <ele>1062.4</ele>
        <time>2021-08-29T07:58:20Z</time>
      </trkpt>
      <trkpt lat="43.00925" lon="-0.19646">
        <ele>1062.4</ele>
        <time>2021-08-29T07:58:21Z</time>
      </trkpt>
      <trkpt lat="43.00923" lon="-0.19649">
        <ele>1062.4</ele>
        <time>2021-08-29T07:58:22Z</time>
      </trkpt>
      <trkpt lat="43.00922" lon="-0.19651">
        <ele>1062.4</ele>
        <time>2021-08-29T07:58:23Z</time>
      </trkpt>
      <trkpt lat="43.0092" lon="-0.19654">
        <ele>1062.4</ele>
        <time>2021-08-29T07:58:24Z</time>
      </trkpt>
      <trkpt lat="43.00918" lon="-0.19656">
        <ele>1062.4</ele>
        <time>2021-08-29T07:58:25Z</time>
      </trkpt>
      <trkpt lat="43.00916" lon="-0.19657">
        <ele>1062.6</ele>
        <time>2021-08-29T07:58:26Z</time>
      </trkpt>
      <trkpt lat="43.00914" lon="-0.19658">
        <ele>1062.6</ele>
        <time>2021-08-29T07:58:27Z</time>
      </trkpt>
      <trkpt lat="43.00911" lon="-0.19659">
        <ele>1062.6</ele>
        <time>2021-08-29T07:58:28Z</time>
      </trkpt>
      <trkpt lat="43.00908" lon="-0.19659">
        <ele>1062.6</ele>
        <time>2021-08-29T07:58:29Z</time>
      </trkpt>
      <trkpt lat="43.00906" lon="-0.19659">
        <ele>1062.8</ele>
        <time>2021-08-29T07:58:30Z</time>
      </trkpt>
      <trkpt lat="43.00904" lon="-0.19659">
        <ele>1062.8</ele>
        <time>2021-08-29T07:58:31Z</time>
      </trkpt>
      <trkpt lat="43.00903" lon="-0.19659">
        <ele>1062.8</ele>
        <time>2021-08-29T07:58:32Z</time>
      </trkpt>
      <trkpt lat="43.00901" lon="-0.19659">
        <ele>1062.8</ele>
        <time>2021-08-29T07:58:33Z</time>
      </trkpt>
      <trkpt lat="43.00898" lon="-0.19659">
        <ele>1062.8</ele>
        <time>2021-08-29T07:58:34Z</time>
      </trkpt>
      <trkpt lat="43.00891" lon="-0.19659">
        <ele>1063</ele>
        <time>2021-08-29T07:58:37Z</time>
      </trkpt>
      <trkpt lat="43.00889" lon="-0.19659">
        <ele>1063</ele>
        <time>2021-08-29T07:58:38Z</time>
      </trkpt>
      <trkpt lat="43.00885" lon="-0.1966">
        <ele>1063</ele>
        <time>2021-08-29T07:58:40Z</time>
      </trkpt>
      <trkpt lat="43.00882" lon="-0.19661">
        <ele>1063</ele>
        <time>2021-08-29T07:58:41Z</time>
      </trkpt>
      <trkpt lat="43.0088" lon="-0.19662">
        <ele>1063</ele>
        <time>2021-08-29T07:58:42Z</time>
      </trkpt>
      <trkpt lat="43.00873" lon="-0.1966">
        <ele>1063</ele>
        <time>2021-08-29T07:58:44Z</time>
      </trkpt>
      <trkpt lat="43.00871" lon="-0.19661">
        <ele>1063</ele>
        <time>2021-08-29T07:58:45Z</time>
      </trkpt>
      <trkpt lat="43.00864" lon="-0.19664">
        <ele>1063</ele>
        <time>2021-08-29T07:58:48Z</time>
      </trkpt>
      <trkpt lat="43.00862" lon="-0.19666">
        <ele>1063.2</ele>
        <time>2021-08-29T07:58:49Z</time>
      </trkpt>
      <trkpt lat="43.0086" lon="-0.19668">
        <ele>1063.2</ele>
        <time>2021-08-29T07:58:50Z</time>
      </trkpt>
      <trkpt lat="43.00858" lon="-0.19669">
        <ele>1063.2</ele>
        <time>2021-08-29T07:58:51Z</time>
      </trkpt>
      <trkpt lat="43.00857" lon="-0.19672">
        <ele>1063.2</ele>
        <time>2021-08-29T07:58:52Z</time>
      </trkpt>
      <trkpt lat="43.00852" lon="-0.19679">
        <ele>1063.2</ele>
        <time>2021-08-29T07:58:55Z</time>
      </trkpt>
      <trkpt lat="43.00846" lon="-0.19689">
        <ele>1063.6</ele>
        <time>2021-08-29T07:58:58Z</time>
      </trkpt>
      <trkpt lat="43.00837" lon="-0.19707">
        <ele>1063.8</ele>
        <time>2021-08-29T07:59:04Z</time>
      </trkpt>
      <trkpt lat="43.00829" lon="-0.19723">
        <ele>1064.4</ele>
        <time>2021-08-29T07:59:10Z</time>
      </trkpt>
      <trkpt lat="43.00828" lon="-0.19726">
        <ele>1064.4</ele>
        <time>2021-08-29T07:59:11Z</time>
      </trkpt>
      <trkpt lat="43.00825" lon="-0.19733">
        <ele>1065</ele>
        <time>2021-08-29T07:59:14Z</time>
      </trkpt>
      <trkpt lat="43.00824" lon="-0.19736">
        <ele>1065.2</ele>
        <time>2021-08-29T07:59:15Z</time>
      </trkpt>
      <trkpt lat="43.00823" lon="-0.19738">
        <ele>1065.4</ele>
        <time>2021-08-29T07:59:16Z</time>
      </trkpt>
      <trkpt lat="43.00821" lon="-0.1974">
        <ele>1065.6</ele>
        <time>2021-08-29T07:59:17Z</time>
      </trkpt>
      <trkpt lat="43.0082" lon="-0.19741">
        <ele>1065.6</ele>
        <time>2021-08-29T07:59:18Z</time>
      </trkpt>
      <trkpt lat="43.00819" lon="-0.19744">
        <ele>1065.8</ele>
        <time>2021-08-29T07:59:19Z</time>
      </trkpt>
      <trkpt lat="43.00818" lon="-0.19746">
        <ele>1065.8</ele>
        <time>2021-08-29T07:59:20Z</time>
      </trkpt>
      <trkpt lat="43.00818" lon="-0.19748">
        <ele>1066.2</ele>
        <time>2021-08-29T07:59:21Z</time>
      </trkpt>
      <trkpt lat="43.00817" lon="-0.19751">
        <ele>1066.4</ele>
        <time>2021-08-29T07:59:22Z</time>
      </trkpt>
      <trkpt lat="43.00816" lon="-0.19753">
        <ele>1066.6</ele>
        <time>2021-08-29T07:59:23Z</time>
      </trkpt>
      <trkpt lat="43.00815" lon="-0.19755">
        <ele>1066.6</ele>
        <time>2021-08-29T07:59:24Z</time>
      </trkpt>
      <trkpt lat="43.00814" lon="-0.19756">
        <ele>1066.8</ele>
        <time>2021-08-29T07:59:25Z</time>
      </trkpt>
      <trkpt lat="43.00813" lon="-0.19758">
        <ele>1066.8</ele>
        <time>2021-08-29T07:59:26Z</time>
      </trkpt>
      <trkpt lat="43.00812" lon="-0.1976">
        <ele>1067</ele>
        <time>2021-08-29T07:59:27Z</time>
      </trkpt>
      <trkpt lat="43.00811" lon="-0.19762">
        <ele>1067</ele>
        <time>2021-08-29T07:59:28Z</time>
      </trkpt>
      <trkpt lat="43.00811" lon="-0.19764">
        <ele>1067.2</ele>
        <time>2021-08-29T07:59:29Z</time>
      </trkpt>
      <trkpt lat="43.0081" lon="-0.19766">
        <ele>1067.2</ele>
        <time>2021-08-29T07:59:30Z</time>
      </trkpt>
      <trkpt lat="43.00809" lon="-0.19768">
        <ele>1067.4</ele>
        <time>2021-08-29T07:59:31Z</time>
      </trkpt>
      <trkpt lat="43.00808" lon="-0.1977">
        <ele>1067.6</ele>
        <time>2021-08-29T07:59:32Z</time>
      </trkpt>
      <trkpt lat="43.00808" lon="-0.19772">
        <ele>1067.6</ele>
        <time>2021-08-29T07:59:33Z</time>
      </trkpt>
      <trkpt lat="43.00807" lon="-0.19775">
        <ele>1067.8</ele>
        <time>2021-08-29T07:59:34Z</time>
      </trkpt>
      <trkpt lat="43.00807" lon="-0.19777">
        <ele>1068</ele>
        <time>2021-08-29T07:59:35Z</time>
      </trkpt>
      <trkpt lat="43.00807" lon="-0.19779">
        <ele>1068.2</ele>
        <time>2021-08-29T07:59:36Z</time>
      </trkpt>
      <trkpt lat="43.00806" lon="-0.19782">
        <ele>1068.2</ele>
        <time>2021-08-29T07:59:37Z</time>
      </trkpt>
      <trkpt lat="43.00806" lon="-0.19784">
        <ele>1068.4</ele>
        <time>2021-08-29T07:59:38Z</time>
      </trkpt>
      <trkpt lat="43.00806" lon="-0.19786">
        <ele>1068.4</ele>
        <time>2021-08-29T07:59:39Z</time>
      </trkpt>
      <trkpt lat="43.00805" lon="-0.19788">
        <ele>1068.6</ele>
        <time>2021-08-29T07:59:40Z</time>
      </trkpt>
      <trkpt lat="43.00805" lon="-0.19791">
        <ele>1068.8</ele>
        <time>2021-08-29T07:59:41Z</time>
      </trkpt>
      <trkpt lat="43.00805" lon="-0.19794">
        <ele>1069</ele>
        <time>2021-08-29T07:59:42Z</time>
      </trkpt>
      <trkpt lat="43.00805" lon="-0.19796">
        <ele>1069.2</ele>
        <time>2021-08-29T07:59:43Z</time>
      </trkpt>
      <trkpt lat="43.00805" lon="-0.19799">
        <ele>1069.2</ele>
        <time>2021-08-29T07:59:44Z</time>
      </trkpt>
      <trkpt lat="43.00805" lon="-0.19801">
        <ele>1069.2</ele>
        <time>2021-08-29T07:59:45Z</time>
      </trkpt>
      <trkpt lat="43.00804" lon="-0.19803">
        <ele>1069.4</ele>
        <time>2021-08-29T07:59:46Z</time>
      </trkpt>
      <trkpt lat="43.00804" lon="-0.19805">
        <ele>1069.4</ele>
        <time>2021-08-29T07:59:47Z</time>
      </trkpt>
      <trkpt lat="43.00803" lon="-0.19807">
        <ele>1069.6</ele>
        <time>2021-08-29T07:59:48Z</time>
      </trkpt>
      <trkpt lat="43.00803" lon="-0.1981">
        <ele>1069.8</ele>
        <time>2021-08-29T07:59:49Z</time>
      </trkpt>
      <trkpt lat="43.00803" lon="-0.19813">
        <ele>1070</ele>
        <time>2021-08-29T07:59:50Z</time>
      </trkpt>
      <trkpt lat="43.00803" lon="-0.19817">
        <ele>1070</ele>
        <time>2021-08-29T07:59:51Z</time>
      </trkpt>
      <trkpt lat="43.00803" lon="-0.19819">
        <ele>1070</ele>
        <time>2021-08-29T07:59:52Z</time>
      </trkpt>
      <trkpt lat="43.00803" lon="-0.19824">
        <ele>1070.2</ele>
        <time>2021-08-29T07:59:53Z</time>
      </trkpt>
      <trkpt lat="43.00803" lon="-0.19826">
        <ele>1070</ele>
        <time>2021-08-29T07:59:54Z</time>
      </trkpt>
      <trkpt lat="43.00802" lon="-0.19829">
        <ele>1070.2</ele>
        <time>2021-08-29T07:59:55Z</time>
      </trkpt>
      <trkpt lat="43.00801" lon="-0.19833">
        <ele>1070.2</ele>
        <time>2021-08-29T07:59:56Z</time>
      </trkpt>
      <trkpt lat="43.00801" lon="-0.19836">
        <ele>1070.2</ele>
        <time>2021-08-29T07:59:57Z</time>
      </trkpt>
      <trkpt lat="43.00801" lon="-0.19838">
        <ele>1070.2</ele>
        <time>2021-08-29T07:59:58Z</time>
      </trkpt>
      <trkpt lat="43.00802" lon="-0.19841">
        <ele>1070.4</ele>
        <time>2021-08-29T07:59:59Z</time>
      </trkpt>
      <trkpt lat="43.00803" lon="-0.19844">
        <ele>1070.4</ele>
        <time>2021-08-29T08:00:00Z</time>
      </trkpt>
      <trkpt lat="43.00804" lon="-0.19847">
        <ele>1070.6</ele>
        <time>2021-08-29T08:00:01Z</time>
      </trkpt>
      <trkpt lat="43.00804" lon="-0.1985">
        <ele>1070.6</ele>
        <time>2021-08-29T08:00:02Z</time>
      </trkpt>
      <trkpt lat="43.00804" lon="-0.19853">
        <ele>1070.8</ele>
        <time>2021-08-29T08:00:03Z</time>
      </trkpt>
      <trkpt lat="43.00805" lon="-0.19856">
        <ele>1070.8</ele>
        <time>2021-08-29T08:00:04Z</time>
      </trkpt>
      <trkpt lat="43.00806" lon="-0.1986">
        <ele>1070.8</ele>
        <time>2021-08-29T08:00:05Z</time>
      </trkpt>
      <trkpt lat="43.00807" lon="-0.19863">
        <ele>1070.8</ele>
        <time>2021-08-29T08:00:06Z</time>
      </trkpt>
      <trkpt lat="43.00808" lon="-0.19866">
        <ele>1070.8</ele>
        <time>2021-08-29T08:00:07Z</time>
      </trkpt>
      <trkpt lat="43.00809" lon="-0.19869">
        <ele>1071</ele>
        <time>2021-08-29T08:00:08Z</time>
      </trkpt>
      <trkpt lat="43.0081" lon="-0.19872">
        <ele>1071</ele>
        <time>2021-08-29T08:00:09Z</time>
      </trkpt>
      <trkpt lat="43.0081" lon="-0.19878">
        <ele>1071.4</ele>
        <time>2021-08-29T08:00:11Z</time>
      </trkpt>
      <trkpt lat="43.0081" lon="-0.1988">
        <ele>1071.4</ele>
        <time>2021-08-29T08:00:12Z</time>
      </trkpt>
      <trkpt lat="43.00812" lon="-0.19885">
        <ele>1071.6</ele>
        <time>2021-08-29T08:00:14Z</time>
      </trkpt>
      <trkpt lat="43.00812" lon="-0.19889">
        <ele>1071.6</ele>
        <time>2021-08-29T08:00:15Z</time>
      </trkpt>
      <trkpt lat="43.00813" lon="-0.19891">
        <ele>1071.8</ele>
        <time>2021-08-29T08:00:16Z</time>
      </trkpt>
      <trkpt lat="43.00814" lon="-0.19894">
        <ele>1071.8</ele>
        <time>2021-08-29T08:00:17Z</time>
      </trkpt>
      <trkpt lat="43.00813" lon="-0.19907">
        <ele>1072</ele>
        <time>2021-08-29T08:00:21Z</time>
      </trkpt>
      <trkpt lat="43.00813" lon="-0.1991">
        <ele>1072.2</ele>
        <time>2021-08-29T08:00:22Z</time>
      </trkpt>
      <trkpt lat="43.00814" lon="-0.1992">
        <ele>1072.6</ele>
        <time>2021-08-29T08:00:26Z</time>
      </trkpt>
      <trkpt lat="43.00814" lon="-0.19922">
        <ele>1072.6</ele>
        <time>2021-08-29T08:00:27Z</time>
      </trkpt>
      <trkpt lat="43.00815" lon="-0.19925">
        <ele>1072.6</ele>
        <time>2021-08-29T08:00:28Z</time>
      </trkpt>
      <trkpt lat="43.00815" lon="-0.19929">
        <ele>1072.8</ele>
        <time>2021-08-29T08:00:30Z</time>
      </trkpt>
      <trkpt lat="43.00816" lon="-0.19931">
        <ele>1072.8</ele>
        <time>2021-08-29T08:00:31Z</time>
      </trkpt>
      <trkpt lat="43.00816" lon="-0.19934">
        <ele>1073</ele>
        <time>2021-08-29T08:00:32Z</time>
      </trkpt>
      <trkpt lat="43.00817" lon="-0.19937">
        <ele>1073</ele>
        <time>2021-08-29T08:00:33Z</time>
      </trkpt>
      <trkpt lat="43.00817" lon="-0.1994">
        <ele>1073.2</ele>
        <time>2021-08-29T08:00:34Z</time>
      </trkpt>
      <trkpt lat="43.00817" lon="-0.19942">
        <ele>1073.4</ele>
        <time>2021-08-29T08:00:35Z</time>
      </trkpt>
      <trkpt lat="43.00818" lon="-0.19945">
        <ele>1073.6</ele>
        <time>2021-08-29T08:00:36Z</time>
      </trkpt>
      <trkpt lat="43.00818" lon="-0.19947">
        <ele>1073.8</ele>
        <time>2021-08-29T08:00:37Z</time>
      </trkpt>
      <trkpt lat="43.00819" lon="-0.1995">
        <ele>1073.8</ele>
        <time>2021-08-29T08:00:38Z</time>
      </trkpt>
      <trkpt lat="43.0082" lon="-0.1996">
        <ele>1074.2</ele>
        <time>2021-08-29T08:00:42Z</time>
      </trkpt>
      <trkpt lat="43.00821" lon="-0.19965">
        <ele>1074.6</ele>
        <time>2021-08-29T08:00:44Z</time>
      </trkpt>
      <trkpt lat="43.00821" lon="-0.19968">
        <ele>1074.8</ele>
        <time>2021-08-29T08:00:45Z</time>
      </trkpt>
      <trkpt lat="43.00822" lon="-0.19971">
        <ele>1075</ele>
        <time>2021-08-29T08:00:46Z</time>
      </trkpt>
      <trkpt lat="43.00822" lon="-0.19974">
        <ele>1075</ele>
        <time>2021-08-29T08:00:47Z</time>
      </trkpt>
      <trkpt lat="43.00822" lon="-0.19976">
        <ele>1075</ele>
        <time>2021-08-29T08:00:48Z</time>
      </trkpt>
      <trkpt lat="43.00823" lon="-0.19979">
        <ele>1075.2</ele>
        <time>2021-08-29T08:00:49Z</time>
      </trkpt>
      <trkpt lat="43.00823" lon="-0.19981">
        <ele>1075.2</ele>
        <time>2021-08-29T08:00:50Z</time>
      </trkpt>
      <trkpt lat="43.00823" lon="-0.19984">
        <ele>1075.4</ele>
        <time>2021-08-29T08:00:51Z</time>
      </trkpt>
      <trkpt lat="43.00824" lon="-0.19986">
        <ele>1075.6</ele>
        <time>2021-08-29T08:00:52Z</time>
      </trkpt>
      <trkpt lat="43.00824" lon="-0.19989">
        <ele>1075.8</ele>
        <time>2021-08-29T08:00:53Z</time>
      </trkpt>
      <trkpt lat="43.00824" lon="-0.19991">
        <ele>1076.2</ele>
        <time>2021-08-29T08:00:54Z</time>
      </trkpt>
      <trkpt lat="43.00825" lon="-0.19994">
        <ele>1076.2</ele>
        <time>2021-08-29T08:00:55Z</time>
      </trkpt>
      <trkpt lat="43.00825" lon="-0.19996">
        <ele>1076.2</ele>
        <time>2021-08-29T08:00:56Z</time>
      </trkpt>
      <trkpt lat="43.00825" lon="-0.19998">
        <ele>1076.2</ele>
        <time>2021-08-29T08:00:57Z</time>
      </trkpt>
      <trkpt lat="43.00826" lon="-0.2">
        <ele>1076.4</ele>
        <time>2021-08-29T08:00:58Z</time>
      </trkpt>
      <trkpt lat="43.00826" lon="-0.20002">
        <ele>1076.6</ele>
        <time>2021-08-29T08:00:59Z</time>
      </trkpt>
      <trkpt lat="43.00827" lon="-0.20004">
        <ele>1076.8</ele>
        <time>2021-08-29T08:01:00Z</time>
      </trkpt>
      <trkpt lat="43.00827" lon="-0.20007">
        <ele>1076.8</ele>
        <time>2021-08-29T08:01:01Z</time>
      </trkpt>
      <trkpt lat="43.00827" lon="-0.20008">
        <ele>1077</ele>
        <time>2021-08-29T08:01:02Z</time>
      </trkpt>
      <trkpt lat="43.00827" lon="-0.2001">
        <ele>1077.2</ele>
        <time>2021-08-29T08:01:03Z</time>
      </trkpt>
      <trkpt lat="43.00828" lon="-0.20012">
        <ele>1077.4</ele>
        <time>2021-08-29T08:01:04Z</time>
      </trkpt>
      <trkpt lat="43.00828" lon="-0.20014">
        <ele>1077.8</ele>
        <time>2021-08-29T08:01:05Z</time>
      </trkpt>
      <trkpt lat="43.00828" lon="-0.20016">
        <ele>1078</ele>
        <time>2021-08-29T08:01:06Z</time>
      </trkpt>
      <trkpt lat="43.00828" lon="-0.20017">
        <ele>1078</ele>
        <time>2021-08-29T08:01:07Z</time>
      </trkpt>
      <trkpt lat="43.00828" lon="-0.20019">
        <ele>1078.4</ele>
        <time>2021-08-29T08:01:08Z</time>
      </trkpt>
      <trkpt lat="43.00829" lon="-0.20021">
        <ele>1078.4</ele>
        <time>2021-08-29T08:01:09Z</time>
      </trkpt>
      <trkpt lat="43.00829" lon="-0.20023">
        <ele>1078.8</ele>
        <time>2021-08-29T08:01:10Z</time>
      </trkpt>
      <trkpt lat="43.0083" lon="-0.20024">
        <ele>1079</ele>
        <time>2021-08-29T08:01:11Z</time>
      </trkpt>
      <trkpt lat="43.0083" lon="-0.20026">
        <ele>1079.4</ele>
        <time>2021-08-29T08:01:12Z</time>
      </trkpt>
      <trkpt lat="43.00831" lon="-0.20029">
        <ele>1079.4</ele>
        <time>2021-08-29T08:01:13Z</time>
      </trkpt>
      <trkpt lat="43.00831" lon="-0.20031">
        <ele>1079.6</ele>
        <time>2021-08-29T08:01:14Z</time>
      </trkpt>
      <trkpt lat="43.00832" lon="-0.20034">
        <ele>1080</ele>
        <time>2021-08-29T08:01:15Z</time>
      </trkpt>
      <trkpt lat="43.00832" lon="-0.20036">
        <ele>1080.2</ele>
        <time>2021-08-29T08:01:16Z</time>
      </trkpt>
      <trkpt lat="43.00832" lon="-0.20038">
        <ele>1080.4</ele>
        <time>2021-08-29T08:01:17Z</time>
      </trkpt>
      <trkpt lat="43.00833" lon="-0.2004">
        <ele>1080.4</ele>
        <time>2021-08-29T08:01:18Z</time>
      </trkpt>
      <trkpt lat="43.00834" lon="-0.20043">
        <ele>1080.8</ele>
        <time>2021-08-29T08:01:19Z</time>
      </trkpt>
      <trkpt lat="43.00835" lon="-0.20046">
        <ele>1081</ele>
        <time>2021-08-29T08:01:20Z</time>
      </trkpt>
      <trkpt lat="43.00836" lon="-0.20048">
        <ele>1081.2</ele>
        <time>2021-08-29T08:01:21Z</time>
      </trkpt>
      <trkpt lat="43.00837" lon="-0.2005">
        <ele>1081.2</ele>
        <time>2021-08-29T08:01:22Z</time>
      </trkpt>
      <trkpt lat="43.00837" lon="-0.20053">
        <ele>1081.4</ele>
        <time>2021-08-29T08:01:23Z</time>
      </trkpt>
      <trkpt lat="43.00838" lon="-0.20055">
        <ele>1081.4</ele>
        <time>2021-08-29T08:01:24Z</time>
      </trkpt>
      <trkpt lat="43.00839" lon="-0.20057">
        <ele>1081.4</ele>
        <time>2021-08-29T08:01:25Z</time>
      </trkpt>
      <trkpt lat="43.0084" lon="-0.20059">
        <ele>1081.4</ele>
        <time>2021-08-29T08:01:26Z</time>
      </trkpt>
      <trkpt lat="43.0084" lon="-0.20061">
        <ele>1081.6</ele>
        <time>2021-08-29T08:01:27Z</time>
      </trkpt>
      <trkpt lat="43.00842" lon="-0.20062">
        <ele>1081.6</ele>
        <time>2021-08-29T08:01:28Z</time>
      </trkpt>
      <trkpt lat="43.00842" lon="-0.20064">
        <ele>1081.8</ele>
        <time>2021-08-29T08:01:29Z</time>
      </trkpt>
      <trkpt lat="43.00843" lon="-0.20066">
        <ele>1081.8</ele>
        <time>2021-08-29T08:01:30Z</time>
      </trkpt>
      <trkpt lat="43.00844" lon="-0.20068">
        <ele>1082</ele>
        <time>2021-08-29T08:01:31Z</time>
      </trkpt>
      <trkpt lat="43.00845" lon="-0.20069">
        <ele>1082.2</ele>
        <time>2021-08-29T08:01:32Z</time>
      </trkpt>
      <trkpt lat="43.00846" lon="-0.20071">
        <ele>1082.4</ele>
        <time>2021-08-29T08:01:33Z</time>
      </trkpt>
      <trkpt lat="43.00846" lon="-0.20073">
        <ele>1082.4</ele>
        <time>2021-08-29T08:01:34Z</time>
      </trkpt>
      <trkpt lat="43.00847" lon="-0.20075">
        <ele>1082.6</ele>
        <time>2021-08-29T08:01:35Z</time>
      </trkpt>
      <trkpt lat="43.00848" lon="-0.20077">
        <ele>1082.8</ele>
        <time>2021-08-29T08:01:36Z</time>
      </trkpt>
      <trkpt lat="43.00848" lon="-0.20078">
        <ele>1083</ele>
        <time>2021-08-29T08:01:37Z</time>
      </trkpt>
      <trkpt lat="43.00848" lon="-0.2008">
        <ele>1083.2</ele>
        <time>2021-08-29T08:01:38Z</time>
      </trkpt>
      <trkpt lat="43.0085" lon="-0.20081">
        <ele>1083.2</ele>
        <time>2021-08-29T08:01:39Z</time>
      </trkpt>
      <trkpt lat="43.0085" lon="-0.20083">
        <ele>1083.4</ele>
        <time>2021-08-29T08:01:40Z</time>
      </trkpt>
      <trkpt lat="43.00851" lon="-0.20086">
        <ele>1083.4</ele>
        <time>2021-08-29T08:01:41Z</time>
      </trkpt>
      <trkpt lat="43.00851" lon="-0.20088">
        <ele>1084</ele>
        <time>2021-08-29T08:01:42Z</time>
      </trkpt>
      <trkpt lat="43.00852" lon="-0.20091">
        <ele>1084.2</ele>
        <time>2021-08-29T08:01:43Z</time>
      </trkpt>
      <trkpt lat="43.00853" lon="-0.20092">
        <ele>1084.4</ele>
        <time>2021-08-29T08:01:44Z</time>
      </trkpt>
      <trkpt lat="43.00854" lon="-0.20094">
        <ele>1084.4</ele>
        <time>2021-08-29T08:01:45Z</time>
      </trkpt>
      <trkpt lat="43.00856" lon="-0.20097">
        <ele>1084.6</ele>
        <time>2021-08-29T08:01:46Z</time>
      </trkpt>
      <trkpt lat="43.00856" lon="-0.20099">
        <ele>1084.6</ele>
        <time>2021-08-29T08:01:47Z</time>
      </trkpt>
      <trkpt lat="43.00857" lon="-0.20102">
        <ele>1085</ele>
        <time>2021-08-29T08:01:48Z</time>
      </trkpt>
      <trkpt lat="43.00859" lon="-0.20103">
        <ele>1085</ele>
        <time>2021-08-29T08:01:49Z</time>
      </trkpt>
      <trkpt lat="43.0086" lon="-0.20105">
        <ele>1085.2</ele>
        <time>2021-08-29T08:01:50Z</time>
      </trkpt>
      <trkpt lat="43.00861" lon="-0.20107">
        <ele>1085.2</ele>
        <time>2021-08-29T08:01:51Z</time>
      </trkpt>
      <trkpt lat="43.00863" lon="-0.20109">
        <ele>1085.4</ele>
        <time>2021-08-29T08:01:52Z</time>
      </trkpt>
      <trkpt lat="43.00864" lon="-0.2011">
        <ele>1085.4</ele>
        <time>2021-08-29T08:01:53Z</time>
      </trkpt>
      <trkpt lat="43.00866" lon="-0.20112">
        <ele>1085.6</ele>
        <time>2021-08-29T08:01:54Z</time>
      </trkpt>
      <trkpt lat="43.00867" lon="-0.20115">
        <ele>1085.6</ele>
        <time>2021-08-29T08:01:55Z</time>
      </trkpt>
      <trkpt lat="43.00868" lon="-0.20118">
        <ele>1085.8</ele>
        <time>2021-08-29T08:01:56Z</time>
      </trkpt>
      <trkpt lat="43.00869" lon="-0.2012">
        <ele>1085.8</ele>
        <time>2021-08-29T08:01:57Z</time>
      </trkpt>
      <trkpt lat="43.00871" lon="-0.20122">
        <ele>1085.8</ele>
        <time>2021-08-29T08:01:58Z</time>
      </trkpt>
      <trkpt lat="43.00872" lon="-0.20123">
        <ele>1086</ele>
        <time>2021-08-29T08:01:59Z</time>
      </trkpt>
      <trkpt lat="43.00873" lon="-0.20126">
        <ele>1086</ele>
        <time>2021-08-29T08:02:00Z</time>
      </trkpt>
      <trkpt lat="43.00874" lon="-0.20127">
        <ele>1086.2</ele>
        <time>2021-08-29T08:02:01Z</time>
      </trkpt>
      <trkpt lat="43.00875" lon="-0.20128">
        <ele>1086.2</ele>
        <time>2021-08-29T08:02:02Z</time>
      </trkpt>
      <trkpt lat="43.00876" lon="-0.2013">
        <ele>1086.2</ele>
        <time>2021-08-29T08:02:03Z</time>
      </trkpt>
      <trkpt lat="43.00876" lon="-0.20131">
        <ele>1086.4</ele>
        <time>2021-08-29T08:02:04Z</time>
      </trkpt>
      <trkpt lat="43.00877" lon="-0.20132">
        <ele>1086.6</ele>
        <time>2021-08-29T08:02:05Z</time>
      </trkpt>
      <trkpt lat="43.00878" lon="-0.20134">
        <ele>1086.6</ele>
        <time>2021-08-29T08:02:06Z</time>
      </trkpt>
      <trkpt lat="43.00878" lon="-0.20136">
        <ele>1086.8</ele>
        <time>2021-08-29T08:02:07Z</time>
      </trkpt>
      <trkpt lat="43.00879" lon="-0.20138">
        <ele>1086.8</ele>
        <time>2021-08-29T08:02:08Z</time>
      </trkpt>
      <trkpt lat="43.0088" lon="-0.20139">
        <ele>1087</ele>
        <time>2021-08-29T08:02:09Z</time>
      </trkpt>
      <trkpt lat="43.00881" lon="-0.2014">
        <ele>1087</ele>
        <time>2021-08-29T08:02:10Z</time>
      </trkpt>
      <trkpt lat="43.00882" lon="-0.20141">
        <ele>1087.2</ele>
        <time>2021-08-29T08:02:11Z</time>
      </trkpt>
      <trkpt lat="43.00883" lon="-0.20144">
        <ele>1087.2</ele>
        <time>2021-08-29T08:02:12Z</time>
      </trkpt>
      <trkpt lat="43.00883" lon="-0.20146">
        <ele>1087.2</ele>
        <time>2021-08-29T08:02:13Z</time>
      </trkpt>
      <trkpt lat="43.00885" lon="-0.20148">
        <ele>1087.4</ele>
        <time>2021-08-29T08:02:14Z</time>
      </trkpt>
      <trkpt lat="43.00885" lon="-0.20149">
        <ele>1087.6</ele>
        <time>2021-08-29T08:02:15Z</time>
      </trkpt>
      <trkpt lat="43.00886" lon="-0.20151">
        <ele>1087.8</ele>
        <time>2021-08-29T08:02:16Z</time>
      </trkpt>
      <trkpt lat="43.00888" lon="-0.20154">
        <ele>1087.8</ele>
        <time>2021-08-29T08:02:17Z</time>
      </trkpt>
      <trkpt lat="43.00888" lon="-0.20156">
        <ele>1088</ele>
        <time>2021-08-29T08:02:18Z</time>
      </trkpt>
      <trkpt lat="43.00889" lon="-0.20157">
        <ele>1088</ele>
        <time>2021-08-29T08:02:19Z</time>
      </trkpt>
      <trkpt lat="43.0089" lon="-0.20159">
        <ele>1088.2</ele>
        <time>2021-08-29T08:02:20Z</time>
      </trkpt>
      <trkpt lat="43.00891" lon="-0.2016">
        <ele>1088.2</ele>
        <time>2021-08-29T08:02:21Z</time>
      </trkpt>
      <trkpt lat="43.00891" lon="-0.20162">
        <ele>1088.2</ele>
        <time>2021-08-29T08:02:22Z</time>
      </trkpt>
      <trkpt lat="43.00893" lon="-0.20165">
        <ele>1088.4</ele>
        <time>2021-08-29T08:02:23Z</time>
      </trkpt>
      <trkpt lat="43.00894" lon="-0.20167">
        <ele>1088.4</ele>
        <time>2021-08-29T08:02:24Z</time>
      </trkpt>
      <trkpt lat="43.00896" lon="-0.2017">
        <ele>1088.6</ele>
        <time>2021-08-29T08:02:25Z</time>
      </trkpt>
      <trkpt lat="43.00897" lon="-0.20171">
        <ele>1088.6</ele>
        <time>2021-08-29T08:02:26Z</time>
      </trkpt>
      <trkpt lat="43.00898" lon="-0.20173">
        <ele>1088.6</ele>
        <time>2021-08-29T08:02:27Z</time>
      </trkpt>
      <trkpt lat="43.00899" lon="-0.20175">
        <ele>1088.8</ele>
        <time>2021-08-29T08:02:28Z</time>
      </trkpt>
      <trkpt lat="43.00899" lon="-0.20177">
        <ele>1088.8</ele>
        <time>2021-08-29T08:02:29Z</time>
      </trkpt>
      <trkpt lat="43.009" lon="-0.2018">
        <ele>1089</ele>
        <time>2021-08-29T08:02:30Z</time>
      </trkpt>
      <trkpt lat="43.00901" lon="-0.20184">
        <ele>1089.2</ele>
        <time>2021-08-29T08:02:31Z</time>
      </trkpt>
      <trkpt lat="43.00902" lon="-0.20186">
        <ele>1089.4</ele>
        <time>2021-08-29T08:02:32Z</time>
      </trkpt>
      <trkpt lat="43.00902" lon="-0.20188">
        <ele>1089.4</ele>
        <time>2021-08-29T08:02:33Z</time>
      </trkpt>
      <trkpt lat="43.00903" lon="-0.2019">
        <ele>1089.6</ele>
        <time>2021-08-29T08:02:34Z</time>
      </trkpt>
      <trkpt lat="43.00903" lon="-0.20193">
        <ele>1089.6</ele>
        <time>2021-08-29T08:02:35Z</time>
      </trkpt>
      <trkpt lat="43.00904" lon="-0.20195">
        <ele>1089.8</ele>
        <time>2021-08-29T08:02:36Z</time>
      </trkpt>
      <trkpt lat="43.00906" lon="-0.20197">
        <ele>1090.2</ele>
        <time>2021-08-29T08:02:37Z</time>
      </trkpt>
      <trkpt lat="43.00907" lon="-0.20198">
        <ele>1090.2</ele>
        <time>2021-08-29T08:02:38Z</time>
      </trkpt>
      <trkpt lat="43.00908" lon="-0.202">
        <ele>1090.4</ele>
        <time>2021-08-29T08:02:39Z</time>
      </trkpt>
      <trkpt lat="43.0091" lon="-0.20202">
        <ele>1090.6</ele>
        <time>2021-08-29T08:02:40Z</time>
      </trkpt>
      <trkpt lat="43.00912" lon="-0.20205">
        <ele>1090.8</ele>
        <time>2021-08-29T08:02:41Z</time>
      </trkpt>
      <trkpt lat="43.00913" lon="-0.20209">
        <ele>1091</ele>
        <time>2021-08-29T08:02:42Z</time>
      </trkpt>
      <trkpt lat="43.00914" lon="-0.2021">
        <ele>1091.2</ele>
        <time>2021-08-29T08:02:43Z</time>
      </trkpt>
      <trkpt lat="43.00915" lon="-0.20212">
        <ele>1091.4</ele>
        <time>2021-08-29T08:02:44Z</time>
      </trkpt>
      <trkpt lat="43.00916" lon="-0.20213">
        <ele>1091.6</ele>
        <time>2021-08-29T08:02:45Z</time>
      </trkpt>
      <trkpt lat="43.00917" lon="-0.20214">
        <ele>1091.6</ele>
        <time>2021-08-29T08:02:46Z</time>
      </trkpt>
      <trkpt lat="43.00917" lon="-0.20215">
        <ele>1091.8</ele>
        <time>2021-08-29T08:02:47Z</time>
      </trkpt>
      <trkpt lat="43.00918" lon="-0.20217">
        <ele>1092</ele>
        <time>2021-08-29T08:02:48Z</time>
      </trkpt>
      <trkpt lat="43.00919" lon="-0.20219">
        <ele>1092.2</ele>
        <time>2021-08-29T08:02:49Z</time>
      </trkpt>
      <trkpt lat="43.00919" lon="-0.2022">
        <ele>1092.2</ele>
        <time>2021-08-29T08:02:50Z</time>
      </trkpt>
      <trkpt lat="43.0092" lon="-0.20222">
        <ele>1092.4</ele>
        <time>2021-08-29T08:02:51Z</time>
      </trkpt>
      <trkpt lat="43.0092" lon="-0.20223">
        <ele>1092.6</ele>
        <time>2021-08-29T08:02:52Z</time>
      </trkpt>
      <trkpt lat="43.00921" lon="-0.20225">
        <ele>1093</ele>
        <time>2021-08-29T08:02:53Z</time>
      </trkpt>
      <trkpt lat="43.00922" lon="-0.20227">
        <ele>1093</ele>
        <time>2021-08-29T08:02:54Z</time>
      </trkpt>
      <trkpt lat="43.00922" lon="-0.20229">
        <ele>1093.2</ele>
        <time>2021-08-29T08:02:55Z</time>
      </trkpt>
      <trkpt lat="43.00923" lon="-0.20231">
        <ele>1093.4</ele>
        <time>2021-08-29T08:02:56Z</time>
      </trkpt>
      <trkpt lat="43.00925" lon="-0.20232">
        <ele>1093.4</ele>
        <time>2021-08-29T08:02:57Z</time>
      </trkpt>
      <trkpt lat="43.00926" lon="-0.20233">
        <ele>1093.6</ele>
        <time>2021-08-29T08:02:58Z</time>
      </trkpt>
      <trkpt lat="43.00927" lon="-0.20234">
        <ele>1093.8</ele>
        <time>2021-08-29T08:02:59Z</time>
      </trkpt>
      <trkpt lat="43.00929" lon="-0.20236">
        <ele>1093.8</ele>
        <time>2021-08-29T08:03:00Z</time>
      </trkpt>
      <trkpt lat="43.0093" lon="-0.20237">
        <ele>1094</ele>
        <time>2021-08-29T08:03:01Z</time>
      </trkpt>
      <trkpt lat="43.00931" lon="-0.20238">
        <ele>1094.2</ele>
        <time>2021-08-29T08:03:02Z</time>
      </trkpt>
      <trkpt lat="43.00932" lon="-0.2024">
        <ele>1094.2</ele>
        <time>2021-08-29T08:03:03Z</time>
      </trkpt>
      <trkpt lat="43.00932" lon="-0.20242">
        <ele>1094.6</ele>
        <time>2021-08-29T08:03:04Z</time>
      </trkpt>
      <trkpt lat="43.00933" lon="-0.20244">
        <ele>1094.6</ele>
        <time>2021-08-29T08:03:05Z</time>
      </trkpt>
      <trkpt lat="43.00934" lon="-0.20245">
        <ele>1094.8</ele>
        <time>2021-08-29T08:03:06Z</time>
      </trkpt>
      <trkpt lat="43.00935" lon="-0.20247">
        <ele>1095</ele>
        <time>2021-08-29T08:03:07Z</time>
      </trkpt>
      <trkpt lat="43.00936" lon="-0.20248">
        <ele>1095.2</ele>
        <time>2021-08-29T08:03:08Z</time>
      </trkpt>
      <trkpt lat="43.00938" lon="-0.2025">
        <ele>1095.2</ele>
        <time>2021-08-29T08:03:09Z</time>
      </trkpt>
      <trkpt lat="43.00939" lon="-0.20253">
        <ele>1095.4</ele>
        <time>2021-08-29T08:03:10Z</time>
      </trkpt>
      <trkpt lat="43.00941" lon="-0.20255">
        <ele>1095.4</ele>
        <time>2021-08-29T08:03:11Z</time>
      </trkpt>
      <trkpt lat="43.00942" lon="-0.20257">
        <ele>1095.4</ele>
        <time>2021-08-29T08:03:12Z</time>
      </trkpt>
      <trkpt lat="43.00943" lon="-0.20261">
        <ele>1095.6</ele>
        <time>2021-08-29T08:03:13Z</time>
      </trkpt>
      <trkpt lat="43.00944" lon="-0.20264">
        <ele>1095.6</ele>
        <time>2021-08-29T08:03:14Z</time>
      </trkpt>
      <trkpt lat="43.00947" lon="-0.20268">
        <ele>1095.6</ele>
        <time>2021-08-29T08:03:15Z</time>
      </trkpt>
      <trkpt lat="43.00948" lon="-0.20269">
        <ele>1095.8</ele>
        <time>2021-08-29T08:03:16Z</time>
      </trkpt>
      <trkpt lat="43.00949" lon="-0.20269">
        <ele>1095.8</ele>
        <time>2021-08-29T08:03:17Z</time>
      </trkpt>
      <trkpt lat="43.0095" lon="-0.2027">
        <ele>1095.8</ele>
        <time>2021-08-29T08:03:18Z</time>
      </trkpt>
      <trkpt lat="43.00952" lon="-0.20271">
        <ele>1095.8</ele>
        <time>2021-08-29T08:03:19Z</time>
      </trkpt>
      <trkpt lat="43.00954" lon="-0.20274">
        <ele>1095.8</ele>
        <time>2021-08-29T08:03:20Z</time>
      </trkpt>
      <trkpt lat="43.00956" lon="-0.20276">
        <ele>1095.8</ele>
        <time>2021-08-29T08:03:21Z</time>
      </trkpt>
      <trkpt lat="43.00957" lon="-0.20278">
        <ele>1095.8</ele>
        <time>2021-08-29T08:03:22Z</time>
      </trkpt>
      <trkpt lat="43.00959" lon="-0.2028">
        <ele>1095.8</ele>
        <time>2021-08-29T08:03:23Z</time>
      </trkpt>
      <trkpt lat="43.00961" lon="-0.20281">
        <ele>1095.8</ele>
        <time>2021-08-29T08:03:24Z</time>
      </trkpt>
      <trkpt lat="43.00963" lon="-0.20284">
        <ele>1095.6</ele>
        <time>2021-08-29T08:03:25Z</time>
      </trkpt>
      <trkpt lat="43.00968" lon="-0.20293">
        <ele>1095.6</ele>
        <time>2021-08-29T08:03:28Z</time>
      </trkpt>
      <trkpt lat="43.00969" lon="-0.20297">
        <ele>1095.6</ele>
        <time>2021-08-29T08:03:29Z</time>
      </trkpt>
      <trkpt lat="43.0097" lon="-0.20299">
        <ele>1095.6</ele>
        <time>2021-08-29T08:03:30Z</time>
      </trkpt>
      <trkpt lat="43.00973" lon="-0.20301">
        <ele>1095.4</ele>
        <time>2021-08-29T08:03:31Z</time>
      </trkpt>
      <trkpt lat="43.00975" lon="-0.20303">
        <ele>1095.4</ele>
        <time>2021-08-29T08:03:32Z</time>
      </trkpt>
      <trkpt lat="43.00976" lon="-0.20304">
        <ele>1095.4</ele>
        <time>2021-08-29T08:03:33Z</time>
      </trkpt>
      <trkpt lat="43.00977" lon="-0.20307">
        <ele>1095.4</ele>
        <time>2021-08-29T08:03:34Z</time>
      </trkpt>
      <trkpt lat="43.00983" lon="-0.20316">
        <ele>1095.2</ele>
        <time>2021-08-29T08:03:38Z</time>
      </trkpt>
      <trkpt lat="43.00985" lon="-0.20318">
        <ele>1095.2</ele>
        <time>2021-08-29T08:03:39Z</time>
      </trkpt>
      <trkpt lat="43.00987" lon="-0.2032">
        <ele>1095.2</ele>
        <time>2021-08-29T08:03:40Z</time>
      </trkpt>
      <trkpt lat="43.00989" lon="-0.2032">
        <ele>1095.2</ele>
        <time>2021-08-29T08:03:41Z</time>
      </trkpt>
      <trkpt lat="43.0099" lon="-0.20322">
        <ele>1095.2</ele>
        <time>2021-08-29T08:03:42Z</time>
      </trkpt>
      <trkpt lat="43.00996" lon="-0.20333">
        <ele>1095</ele>
        <time>2021-08-29T08:03:45Z</time>
      </trkpt>
      <trkpt lat="43.00999" lon="-0.20338">
        <ele>1095</ele>
        <time>2021-08-29T08:03:46Z</time>
      </trkpt>
      <trkpt lat="43.01003" lon="-0.20342">
        <ele>1094.8</ele>
        <time>2021-08-29T08:03:47Z</time>
      </trkpt>
      <trkpt lat="43.01007" lon="-0.20346">
        <ele>1094.8</ele>
        <time>2021-08-29T08:03:48Z</time>
      </trkpt>
      <trkpt lat="43.01012" lon="-0.20353">
        <ele>1094.6</ele>
        <time>2021-08-29T08:03:49Z</time>
      </trkpt>
      <trkpt lat="43.01019" lon="-0.2037">
        <ele>1093.8</ele>
        <time>2021-08-29T08:03:51Z</time>
      </trkpt>
      <trkpt lat="43.01032" lon="-0.20394">
        <ele>1092.4</ele>
        <time>2021-08-29T08:03:54Z</time>
      </trkpt>
      <trkpt lat="43.01035" lon="-0.20401">
        <ele>1092</ele>
        <time>2021-08-29T08:03:55Z</time>
      </trkpt>
      <trkpt lat="43.01037" lon="-0.20407">
        <ele>1091.4</ele>
        <time>2021-08-29T08:03:56Z</time>
      </trkpt>
      <trkpt lat="43.01038" lon="-0.20412">
        <ele>1091.2</ele>
        <time>2021-08-29T08:03:57Z</time>
      </trkpt>
      <trkpt lat="43.01039" lon="-0.20417">
        <ele>1090.6</ele>
        <time>2021-08-29T08:03:58Z</time>
      </trkpt>
      <trkpt lat="43.0104" lon="-0.2042">
        <ele>1090</ele>
        <time>2021-08-29T08:03:59Z</time>
      </trkpt>
      <trkpt lat="43.0104" lon="-0.20423">
        <ele>1089.8</ele>
        <time>2021-08-29T08:04:00Z</time>
      </trkpt>
      <trkpt lat="43.0104" lon="-0.20425">
        <ele>1089.2</ele>
        <time>2021-08-29T08:04:01Z</time>
      </trkpt>
      <trkpt lat="43.0104" lon="-0.20428">
        <ele>1089.2</ele>
        <time>2021-08-29T08:04:02Z</time>
      </trkpt>
      <trkpt lat="43.01039" lon="-0.20431">
        <ele>1089</ele>
        <time>2021-08-29T08:04:03Z</time>
      </trkpt>
      <trkpt lat="43.01039" lon="-0.20433">
        <ele>1089</ele>
        <time>2021-08-29T08:04:04Z</time>
      </trkpt>
      <trkpt lat="43.01038" lon="-0.20435">
        <ele>1088.8</ele>
        <time>2021-08-29T08:04:05Z</time>
      </trkpt>
      <trkpt lat="43.01036" lon="-0.20438">
        <ele>1088.8</ele>
        <time>2021-08-29T08:04:06Z</time>
      </trkpt>
      <trkpt lat="43.01034" lon="-0.20444">
        <ele>1088.6</ele>
        <time>2021-08-29T08:04:09Z</time>
      </trkpt>
      <trkpt lat="43.01032" lon="-0.20445">
        <ele>1088.6</ele>
        <time>2021-08-29T08:04:10Z</time>
      </trkpt>
      <trkpt lat="43.0103" lon="-0.20447">
        <ele>1088.6</ele>
        <time>2021-08-29T08:04:11Z</time>
      </trkpt>
      <trkpt lat="43.01029" lon="-0.20449">
        <ele>1088.6</ele>
        <time>2021-08-29T08:04:12Z</time>
      </trkpt>
      <trkpt lat="43.01024" lon="-0.20451">
        <ele>1088.8</ele>
        <time>2021-08-29T08:04:15Z</time>
      </trkpt>
      <trkpt lat="43.01023" lon="-0.2045">
        <ele>1088.8</ele>
        <time>2021-08-29T08:04:16Z</time>
      </trkpt>
      <trkpt lat="43.01022" lon="-0.20449">
        <ele>1089</ele>
        <time>2021-08-29T08:04:17Z</time>
      </trkpt>
      <trkpt lat="43.01021" lon="-0.20449">
        <ele>1089.2</ele>
        <time>2021-08-29T08:04:18Z</time>
      </trkpt>
      <trkpt lat="43.01019" lon="-0.20447">
        <ele>1089.4</ele>
        <time>2021-08-29T08:04:19Z</time>
      </trkpt>
      <trkpt lat="43.01011" lon="-0.20441">
        <ele>1089.8</ele>
        <time>2021-08-29T08:04:23Z</time>
      </trkpt>
      <trkpt lat="43.01009" lon="-0.2044">
        <ele>1089.8</ele>
        <time>2021-08-29T08:04:24Z</time>
      </trkpt>
      <trkpt lat="43.01007" lon="-0.20438">
        <ele>1089.8</ele>
        <time>2021-08-29T08:04:25Z</time>
      </trkpt>
      <trkpt lat="43.01" lon="-0.20434">
        <ele>1089.6</ele>
        <time>2021-08-29T08:04:29Z</time>
      </trkpt>
      <trkpt lat="43.00997" lon="-0.20432">
        <ele>1089.6</ele>
        <time>2021-08-29T08:04:31Z</time>
      </trkpt>
      <trkpt lat="43.00996" lon="-0.20432">
        <ele>1089.6</ele>
        <time>2021-08-29T08:04:32Z</time>
      </trkpt>
      <trkpt lat="43.00992" lon="-0.20431">
        <ele>1089.6</ele>
        <time>2021-08-29T08:04:33Z</time>
      </trkpt>
      <trkpt lat="43.0099" lon="-0.2043">
        <ele>1089.6</ele>
        <time>2021-08-29T08:04:34Z</time>
      </trkpt>
      <trkpt lat="43.00988" lon="-0.20429">
        <ele>1089.6</ele>
        <time>2021-08-29T08:04:35Z</time>
      </trkpt>
      <trkpt lat="43.00987" lon="-0.20429">
        <ele>1089.6</ele>
        <time>2021-08-29T08:04:36Z</time>
      </trkpt>
      <trkpt lat="43.00985" lon="-0.20429">
        <ele>1089.6</ele>
        <time>2021-08-29T08:04:37Z</time>
      </trkpt>
      <trkpt lat="43.00982" lon="-0.20428">
        <ele>1089.6</ele>
        <time>2021-08-29T08:04:38Z</time>
      </trkpt>
      <trkpt lat="43.0098" lon="-0.20427">
        <ele>1089.6</ele>
        <time>2021-08-29T08:04:39Z</time>
      </trkpt>
      <trkpt lat="43.00978" lon="-0.20426">
        <ele>1089.6</ele>
        <time>2021-08-29T08:04:40Z</time>
      </trkpt>
      <trkpt lat="43.00977" lon="-0.20426">
        <ele>1089.6</ele>
        <time>2021-08-29T08:04:41Z</time>
      </trkpt>
      <trkpt lat="43.00976" lon="-0.20426">
        <ele>1089.6</ele>
        <time>2021-08-29T08:04:42Z</time>
      </trkpt>
      <trkpt lat="43.00973" lon="-0.20424">
        <ele>1089.6</ele>
        <time>2021-08-29T08:04:43Z</time>
      </trkpt>
      <trkpt lat="43.00971" lon="-0.20422">
        <ele>1089.6</ele>
        <time>2021-08-29T08:04:44Z</time>
      </trkpt>
      <trkpt lat="43.0097" lon="-0.20421">
        <ele>1089.6</ele>
        <time>2021-08-29T08:04:45Z</time>
      </trkpt>
      <trkpt lat="43.00968" lon="-0.20419">
        <ele>1089.6</ele>
        <time>2021-08-29T08:04:46Z</time>
      </trkpt>
      <trkpt lat="43.00965" lon="-0.20417">
        <ele>1089.4</ele>
        <time>2021-08-29T08:04:47Z</time>
      </trkpt>
      <trkpt lat="43.00962" lon="-0.20416">
        <ele>1089.6</ele>
        <time>2021-08-29T08:04:48Z</time>
      </trkpt>
      <trkpt lat="43.00961" lon="-0.20416">
        <ele>1089.6</ele>
        <time>2021-08-29T08:04:49Z</time>
      </trkpt>
      <trkpt lat="43.00959" lon="-0.20415">
        <ele>1089.6</ele>
        <time>2021-08-29T08:04:50Z</time>
      </trkpt>
      <trkpt lat="43.00958" lon="-0.20415">
        <ele>1089.6</ele>
        <time>2021-08-29T08:04:51Z</time>
      </trkpt>
      <trkpt lat="43.00956" lon="-0.20414">
        <ele>1089.4</ele>
        <time>2021-08-29T08:04:52Z</time>
      </trkpt>
      <trkpt lat="43.00952" lon="-0.20411">
        <ele>1089.4</ele>
        <time>2021-08-29T08:04:54Z</time>
      </trkpt>
      <trkpt lat="43.0095" lon="-0.20409">
        <ele>1089.4</ele>
        <time>2021-08-29T08:04:55Z</time>
      </trkpt>
      <trkpt lat="43.00949" lon="-0.20408">
        <ele>1089.4</ele>
        <time>2021-08-29T08:04:56Z</time>
      </trkpt>
      <trkpt lat="43.00949" lon="-0.20407">
        <ele>1089.6</ele>
        <time>2021-08-29T08:04:57Z</time>
      </trkpt>
      <trkpt lat="43.00948" lon="-0.20407">
        <ele>1089.6</ele>
        <time>2021-08-29T08:04:58Z</time>
      </trkpt>
      <trkpt lat="43.00946" lon="-0.20406">
        <ele>1089.8</ele>
        <time>2021-08-29T08:04:59Z</time>
      </trkpt>
      <trkpt lat="43.00944" lon="-0.20406">
        <ele>1089.8</ele>
        <time>2021-08-29T08:05:00Z</time>
      </trkpt>
      <trkpt lat="43.00942" lon="-0.20404">
        <ele>1090</ele>
        <time>2021-08-29T08:05:01Z</time>
      </trkpt>
      <trkpt lat="43.00934" lon="-0.20399">
        <ele>1090.2</ele>
        <time>2021-08-29T08:05:03Z</time>
      </trkpt>
      <trkpt lat="43.0093" lon="-0.20397">
        <ele>1090.4</ele>
        <time>2021-08-29T08:05:05Z</time>
      </trkpt>
      <trkpt lat="43.00917" lon="-0.20388">
        <ele>1090.2</ele>
        <time>2021-08-29T08:05:09Z</time>
      </trkpt>
      <trkpt lat="43.00906" lon="-0.2038">
        <ele>1090.2</ele>
        <time>2021-08-29T08:05:11Z</time>
      </trkpt>
      <trkpt lat="43.00903" lon="-0.20377">
        <ele>1090</ele>
        <time>2021-08-29T08:05:12Z</time>
      </trkpt>
      <trkpt lat="43.00901" lon="-0.20375">
        <ele>1090</ele>
        <time>2021-08-29T08:05:13Z</time>
      </trkpt>
      <trkpt lat="43.00898" lon="-0.20375">
        <ele>1089.8</ele>
        <time>2021-08-29T08:05:14Z</time>
      </trkpt>
      <trkpt lat="43.00896" lon="-0.20375">
        <ele>1089.4</ele>
        <time>2021-08-29T08:05:15Z</time>
      </trkpt>
      <trkpt lat="43.00891" lon="-0.20371">
        <ele>1089.4</ele>
        <time>2021-08-29T08:05:17Z</time>
      </trkpt>
      <trkpt lat="43.00889" lon="-0.2037">
        <ele>1089</ele>
        <time>2021-08-29T08:05:18Z</time>
      </trkpt>
      <trkpt lat="43.00886" lon="-0.2037">
        <ele>1089</ele>
        <time>2021-08-29T08:05:19Z</time>
      </trkpt>
      <trkpt lat="43.00883" lon="-0.2037">
        <ele>1089</ele>
        <time>2021-08-29T08:05:20Z</time>
      </trkpt>
      <trkpt lat="43.00881" lon="-0.20369">
        <ele>1089</ele>
        <time>2021-08-29T08:05:21Z</time>
      </trkpt>
      <trkpt lat="43.00879" lon="-0.20369">
        <ele>1089</ele>
        <time>2021-08-29T08:05:22Z</time>
      </trkpt>
      <trkpt lat="43.00876" lon="-0.20369">
        <ele>1089</ele>
        <time>2021-08-29T08:05:24Z</time>
      </trkpt>
      <trkpt lat="43.00874" lon="-0.2037">
        <ele>1089</ele>
        <time>2021-08-29T08:05:25Z</time>
      </trkpt>
      <trkpt lat="43.00871" lon="-0.20369">
        <ele>1089</ele>
        <time>2021-08-29T08:05:26Z</time>
      </trkpt>
      <trkpt lat="43.00867" lon="-0.20368">
        <ele>1089.2</ele>
        <time>2021-08-29T08:05:27Z</time>
      </trkpt>
      <trkpt lat="43.00866" lon="-0.20367">
        <ele>1089.2</ele>
        <time>2021-08-29T08:05:28Z</time>
      </trkpt>
      <trkpt lat="43.00865" lon="-0.20366">
        <ele>1089.2</ele>
        <time>2021-08-29T08:05:29Z</time>
      </trkpt>
      <trkpt lat="43.00864" lon="-0.20366">
        <ele>1089.2</ele>
        <time>2021-08-29T08:05:30Z</time>
      </trkpt>
      <trkpt lat="43.00862" lon="-0.20365">
        <ele>1089.2</ele>
        <time>2021-08-29T08:05:31Z</time>
      </trkpt>
      <trkpt lat="43.00862" lon="-0.20365">
        <ele>1089.4</ele>
        <time>2021-08-29T08:05:32Z</time>
      </trkpt>
      <trkpt lat="43.00862" lon="-0.20365">
        <ele>1089.4</ele>
        <time>2021-08-29T08:05:33Z</time>
      </trkpt>
      <trkpt lat="43.00861" lon="-0.20364">
        <ele>1089.4</ele>
        <time>2021-08-29T08:05:34Z</time>
      </trkpt>
      <trkpt lat="43.00858" lon="-0.20362">
        <ele>1089.6</ele>
        <time>2021-08-29T08:05:35Z</time>
      </trkpt>
      <trkpt lat="43.00855" lon="-0.20362">
        <ele>1089.6</ele>
        <time>2021-08-29T08:05:36Z</time>
      </trkpt>
      <trkpt lat="43.00848" lon="-0.20361">
        <ele>1089.6</ele>
        <time>2021-08-29T08:05:38Z</time>
      </trkpt>
      <trkpt lat="43.00844" lon="-0.20362">
        <ele>1089.8</ele>
        <time>2021-08-29T08:05:39Z</time>
      </trkpt>
      <trkpt lat="43.00843" lon="-0.20362">
        <ele>1089.8</ele>
        <time>2021-08-29T08:05:40Z</time>
      </trkpt>
      <trkpt lat="43.00841" lon="-0.20362">
        <ele>1090</ele>
        <time>2021-08-29T08:05:41Z</time>
      </trkpt>
      <trkpt lat="43.00837" lon="-0.2036">
        <ele>1090</ele>
        <time>2021-08-29T08:05:42Z</time>
      </trkpt>
      <trkpt lat="43.0083" lon="-0.20359">
        <ele>1090.2</ele>
        <time>2021-08-29T08:05:44Z</time>
      </trkpt>
      <trkpt lat="43.00828" lon="-0.20358">
        <ele>1090.2</ele>
        <time>2021-08-29T08:05:46Z</time>
      </trkpt>
      <trkpt lat="43.00827" lon="-0.20358">
        <ele>1090.2</ele>
        <time>2021-08-29T08:05:47Z</time>
      </trkpt>
      <trkpt lat="43.00825" lon="-0.20358">
        <ele>1090.2</ele>
        <time>2021-08-29T08:05:48Z</time>
      </trkpt>
      <trkpt lat="43.00825" lon="-0.20358">
        <ele>1090.2</ele>
        <time>2021-08-29T08:05:49Z</time>
      </trkpt>
      <trkpt lat="43.00823" lon="-0.20358">
        <ele>1090</ele>
        <time>2021-08-29T08:05:50Z</time>
      </trkpt>
      <trkpt lat="43.0082" lon="-0.20357">
        <ele>1090</ele>
        <time>2021-08-29T08:05:51Z</time>
      </trkpt>
      <trkpt lat="43.00818" lon="-0.20356">
        <ele>1090</ele>
        <time>2021-08-29T08:05:52Z</time>
      </trkpt>
      <trkpt lat="43.00812" lon="-0.20356">
        <ele>1090.2</ele>
        <time>2021-08-29T08:05:54Z</time>
      </trkpt>
      <trkpt lat="43.00809" lon="-0.20356">
        <ele>1090.2</ele>
        <time>2021-08-29T08:05:55Z</time>
      </trkpt>
      <trkpt lat="43.00804" lon="-0.20358">
        <ele>1090.2</ele>
        <time>2021-08-29T08:05:57Z</time>
      </trkpt>
      <trkpt lat="43.008" lon="-0.2036">
        <ele>1090.2</ele>
        <time>2021-08-29T08:05:59Z</time>
      </trkpt>
      <trkpt lat="43.00798" lon="-0.20364">
        <ele>1090.2</ele>
        <time>2021-08-29T08:06:00Z</time>
      </trkpt>
      <trkpt lat="43.00794" lon="-0.20376">
        <ele>1090.2</ele>
        <time>2021-08-29T08:06:03Z</time>
      </trkpt>
      <trkpt lat="43.00792" lon="-0.2038">
        <ele>1090.2</ele>
        <time>2021-08-29T08:06:04Z</time>
      </trkpt>
      <trkpt lat="43.00791" lon="-0.20382">
        <ele>1090.2</ele>
        <time>2021-08-29T08:06:05Z</time>
      </trkpt>
      <trkpt lat="43.00789" lon="-0.20383">
        <ele>1090.2</ele>
        <time>2021-08-29T08:06:06Z</time>
      </trkpt>
      <trkpt lat="43.00788" lon="-0.20385">
        <ele>1090.2</ele>
        <time>2021-08-29T08:06:07Z</time>
      </trkpt>
      <trkpt lat="43.00786" lon="-0.20389">
        <ele>1090.2</ele>
        <time>2021-08-29T08:06:08Z</time>
      </trkpt>
      <trkpt lat="43.00785" lon="-0.20393">
        <ele>1090.2</ele>
        <time>2021-08-29T08:06:09Z</time>
      </trkpt>
      <trkpt lat="43.00784" lon="-0.20398">
        <ele>1090.2</ele>
        <time>2021-08-29T08:06:10Z</time>
      </trkpt>
      <trkpt lat="43.00782" lon="-0.20403">
        <ele>1090.2</ele>
        <time>2021-08-29T08:06:11Z</time>
      </trkpt>
      <trkpt lat="43.00778" lon="-0.20411">
        <ele>1090.2</ele>
        <time>2021-08-29T08:06:13Z</time>
      </trkpt>
      <trkpt lat="43.00776" lon="-0.20413">
        <ele>1090.2</ele>
        <time>2021-08-29T08:06:14Z</time>
      </trkpt>
      <trkpt lat="43.00773" lon="-0.20414">
        <ele>1090.2</ele>
        <time>2021-08-29T08:06:15Z</time>
      </trkpt>
      <trkpt lat="43.0077" lon="-0.20415">
        <ele>1090.2</ele>
        <time>2021-08-29T08:06:16Z</time>
      </trkpt>
      <trkpt lat="43.00768" lon="-0.20419">
        <ele>1090.4</ele>
        <time>2021-08-29T08:06:17Z</time>
      </trkpt>
      <trkpt lat="43.00767" lon="-0.20423">
        <ele>1090.4</ele>
        <time>2021-08-29T08:06:18Z</time>
      </trkpt>
      <trkpt lat="43.00766" lon="-0.20427">
        <ele>1090.4</ele>
        <time>2021-08-29T08:06:19Z</time>
      </trkpt>
      <trkpt lat="43.00761" lon="-0.20445">
        <ele>1090.6</ele>
        <time>2021-08-29T08:06:23Z</time>
      </trkpt>
      <trkpt lat="43.00757" lon="-0.20454">
        <ele>1090.8</ele>
        <time>2021-08-29T08:06:26Z</time>
      </trkpt>
      <trkpt lat="43.00753" lon="-0.20456">
        <ele>1091</ele>
        <time>2021-08-29T08:06:27Z</time>
      </trkpt>
      <trkpt lat="43.0075" lon="-0.20459">
        <ele>1091</ele>
        <time>2021-08-29T08:06:28Z</time>
      </trkpt>
      <trkpt lat="43.00749" lon="-0.20463">
        <ele>1091</ele>
        <time>2021-08-29T08:06:29Z</time>
      </trkpt>
      <trkpt lat="43.00747" lon="-0.20468">
        <ele>1091</ele>
        <time>2021-08-29T08:06:30Z</time>
      </trkpt>
      <trkpt lat="43.00745" lon="-0.20471">
        <ele>1091</ele>
        <time>2021-08-29T08:06:31Z</time>
      </trkpt>
      <trkpt lat="43.00743" lon="-0.20474">
        <ele>1091.2</ele>
        <time>2021-08-29T08:06:32Z</time>
      </trkpt>
      <trkpt lat="43.0074" lon="-0.20478">
        <ele>1091.2</ele>
        <time>2021-08-29T08:06:33Z</time>
      </trkpt>
      <trkpt lat="43.00736" lon="-0.20481">
        <ele>1091.2</ele>
        <time>2021-08-29T08:06:34Z</time>
      </trkpt>
      <trkpt lat="43.00732" lon="-0.20486">
        <ele>1091.2</ele>
        <time>2021-08-29T08:06:35Z</time>
      </trkpt>
      <trkpt lat="43.00729" lon="-0.2049">
        <ele>1091.2</ele>
        <time>2021-08-29T08:06:36Z</time>
      </trkpt>
      <trkpt lat="43.00723" lon="-0.20494">
        <ele>1091.4</ele>
        <time>2021-08-29T08:06:38Z</time>
      </trkpt>
      <trkpt lat="43.00721" lon="-0.20496">
        <ele>1091.4</ele>
        <time>2021-08-29T08:06:39Z</time>
      </trkpt>
      <trkpt lat="43.00719" lon="-0.20499">
        <ele>1091.4</ele>
        <time>2021-08-29T08:06:40Z</time>
      </trkpt>
      <trkpt lat="43.00718" lon="-0.20506">
        <ele>1091.4</ele>
        <time>2021-08-29T08:06:41Z</time>
      </trkpt>
      <trkpt lat="43.00718" lon="-0.20512">
        <ele>1091.4</ele>
        <time>2021-08-29T08:06:42Z</time>
      </trkpt>
      <trkpt lat="43.00713" lon="-0.20527">
        <ele>1091.4</ele>
        <time>2021-08-29T08:06:45Z</time>
      </trkpt>
      <trkpt lat="43.00706" lon="-0.20534">
        <ele>1091.4</ele>
        <time>2021-08-29T08:06:47Z</time>
      </trkpt>
      <trkpt lat="43.00704" lon="-0.20536">
        <ele>1091.4</ele>
        <time>2021-08-29T08:06:48Z</time>
      </trkpt>
      <trkpt lat="43.00703" lon="-0.2054">
        <ele>1091.4</ele>
        <time>2021-08-29T08:06:49Z</time>
      </trkpt>
      <trkpt lat="43.00703" lon="-0.20543">
        <ele>1091.4</ele>
        <time>2021-08-29T08:06:50Z</time>
      </trkpt>
      <trkpt lat="43.00701" lon="-0.20545">
        <ele>1091.4</ele>
        <time>2021-08-29T08:06:51Z</time>
      </trkpt>
      <trkpt lat="43.007" lon="-0.20547">
        <ele>1091.4</ele>
        <time>2021-08-29T08:06:52Z</time>
      </trkpt>
      <trkpt lat="43.00698" lon="-0.2055">
        <ele>1091.6</ele>
        <time>2021-08-29T08:06:53Z</time>
      </trkpt>
      <trkpt lat="43.00697" lon="-0.20553">
        <ele>1091.6</ele>
        <time>2021-08-29T08:06:54Z</time>
      </trkpt>
      <trkpt lat="43.00693" lon="-0.20562">
        <ele>1091.8</ele>
        <time>2021-08-29T08:06:56Z</time>
      </trkpt>
      <trkpt lat="43.00684" lon="-0.20587">
        <ele>1091.6</ele>
        <time>2021-08-29T08:07:02Z</time>
      </trkpt>
      <trkpt lat="43.00684" lon="-0.2059">
        <ele>1091.4</ele>
        <time>2021-08-29T08:07:03Z</time>
      </trkpt>
      <trkpt lat="43.00683" lon="-0.20593">
        <ele>1091.4</ele>
        <time>2021-08-29T08:07:04Z</time>
      </trkpt>
      <trkpt lat="43.00682" lon="-0.20595">
        <ele>1091.4</ele>
        <time>2021-08-29T08:07:05Z</time>
      </trkpt>
      <trkpt lat="43.00682" lon="-0.20597">
        <ele>1091.4</ele>
        <time>2021-08-29T08:07:06Z</time>
      </trkpt>
      <trkpt lat="43.00681" lon="-0.20599">
        <ele>1091.4</ele>
        <time>2021-08-29T08:07:07Z</time>
      </trkpt>
      <trkpt lat="43.00682" lon="-0.20601">
        <ele>1091.4</ele>
        <time>2021-08-29T08:07:08Z</time>
      </trkpt>
      <trkpt lat="43.00681" lon="-0.20603">
        <ele>1091.4</ele>
        <time>2021-08-29T08:07:09Z</time>
      </trkpt>
      <trkpt lat="43.00681" lon="-0.20603">
        <ele>1091.4</ele>
        <time>2021-08-29T08:07:10Z</time>
      </trkpt>
      <trkpt lat="43.00681" lon="-0.20603">
        <ele>1092</ele>
        <time>2021-08-29T08:07:16Z</time>
      </trkpt>
      <trkpt lat="43.00681" lon="-0.20603">
        <ele>1092</ele>
        <time>2021-08-29T08:07:52Z</time>
      </trkpt>
      <trkpt lat="43.00681" lon="-0.20606">
        <ele>1092</ele>
        <time>2021-08-29T08:08:06Z</time>
      </trkpt>
      <trkpt lat="43.00681" lon="-0.20608">
        <ele>1091.8</ele>
        <time>2021-08-29T08:08:07Z</time>
      </trkpt>
      <trkpt lat="43.00682" lon="-0.20609">
        <ele>1091.8</ele>
        <time>2021-08-29T08:08:08Z</time>
      </trkpt>
      <trkpt lat="43.00682" lon="-0.20612">
        <ele>1092</ele>
        <time>2021-08-29T08:08:10Z</time>
      </trkpt>
      <trkpt lat="43.00682" lon="-0.20614">
        <ele>1092</ele>
        <time>2021-08-29T08:08:11Z</time>
      </trkpt>
      <trkpt lat="43.00682" lon="-0.20615">
        <ele>1092.2</ele>
        <time>2021-08-29T08:08:12Z</time>
      </trkpt>
      <trkpt lat="43.00682" lon="-0.20617">
        <ele>1092.4</ele>
        <time>2021-08-29T08:08:13Z</time>
      </trkpt>
      <trkpt lat="43.00682" lon="-0.20618">
        <ele>1092.6</ele>
        <time>2021-08-29T08:08:14Z</time>
      </trkpt>
      <trkpt lat="43.00682" lon="-0.20619">
        <ele>1092.8</ele>
        <time>2021-08-29T08:08:15Z</time>
      </trkpt>
      <trkpt lat="43.00682" lon="-0.2062">
        <ele>1092.8</ele>
        <time>2021-08-29T08:08:16Z</time>
      </trkpt>
      <trkpt lat="43.00682" lon="-0.20625">
        <ele>1093.4</ele>
        <time>2021-08-29T08:08:19Z</time>
      </trkpt>
      <trkpt lat="43.00682" lon="-0.20628">
        <ele>1093.8</ele>
        <time>2021-08-29T08:08:21Z</time>
      </trkpt>
      <trkpt lat="43.00681" lon="-0.2063">
        <ele>1094</ele>
        <time>2021-08-29T08:08:22Z</time>
      </trkpt>
      <trkpt lat="43.00681" lon="-0.20632">
        <ele>1094</ele>
        <time>2021-08-29T08:08:23Z</time>
      </trkpt>
      <trkpt lat="43.00681" lon="-0.20634">
        <ele>1094.2</ele>
        <time>2021-08-29T08:08:24Z</time>
      </trkpt>
      <trkpt lat="43.00681" lon="-0.20634">
        <ele>1094.4</ele>
        <time>2021-08-29T08:08:25Z</time>
      </trkpt>
      <trkpt lat="43.00681" lon="-0.20636">
        <ele>1094.4</ele>
        <time>2021-08-29T08:08:26Z</time>
      </trkpt>
      <trkpt lat="43.00682" lon="-0.20641">
        <ele>1094.8</ele>
        <time>2021-08-29T08:08:28Z</time>
      </trkpt>
      <trkpt lat="43.00682" lon="-0.20643">
        <ele>1095</ele>
        <time>2021-08-29T08:08:29Z</time>
      </trkpt>
      <trkpt lat="43.00682" lon="-0.20643">
        <ele>1095.2</ele>
        <time>2021-08-29T08:08:30Z</time>
      </trkpt>
      <trkpt lat="43.00681" lon="-0.20645">
        <ele>1095.4</ele>
        <time>2021-08-29T08:08:31Z</time>
      </trkpt>
      <trkpt lat="43.00679" lon="-0.20646">
        <ele>1095.6</ele>
        <time>2021-08-29T08:08:32Z</time>
      </trkpt>
      <trkpt lat="43.00677" lon="-0.20648">
        <ele>1095.8</ele>
        <time>2021-08-29T08:08:33Z</time>
      </trkpt>
      <trkpt lat="43.00676" lon="-0.2065">
        <ele>1096</ele>
        <time>2021-08-29T08:08:34Z</time>
      </trkpt>
      <trkpt lat="43.00675" lon="-0.20652">
        <ele>1096.2</ele>
        <time>2021-08-29T08:08:35Z</time>
      </trkpt>
      <trkpt lat="43.00673" lon="-0.20654">
        <ele>1096.4</ele>
        <time>2021-08-29T08:08:36Z</time>
      </trkpt>
      <trkpt lat="43.00672" lon="-0.20656">
        <ele>1096.4</ele>
        <time>2021-08-29T08:08:37Z</time>
      </trkpt>
      <trkpt lat="43.00672" lon="-0.20658">
        <ele>1096.6</ele>
        <time>2021-08-29T08:08:38Z</time>
      </trkpt>
      <trkpt lat="43.00671" lon="-0.20659">
        <ele>1096.6</ele>
        <time>2021-08-29T08:08:39Z</time>
      </trkpt>
      <trkpt lat="43.00669" lon="-0.20661">
        <ele>1096.6</ele>
        <time>2021-08-29T08:08:40Z</time>
      </trkpt>
      <trkpt lat="43.00669" lon="-0.20664">
        <ele>1096.8</ele>
        <time>2021-08-29T08:08:41Z</time>
      </trkpt>
      <trkpt lat="43.00669" lon="-0.20666">
        <ele>1097</ele>
        <time>2021-08-29T08:08:42Z</time>
      </trkpt>
      <trkpt lat="43.00668" lon="-0.20667">
        <ele>1097.2</ele>
        <time>2021-08-29T08:08:43Z</time>
      </trkpt>
      <trkpt lat="43.00668" lon="-0.20667">
        <ele>1097.6</ele>
        <time>2021-08-29T08:08:44Z</time>
      </trkpt>
      <trkpt lat="43.00668" lon="-0.20672">
        <ele>1097.8</ele>
        <time>2021-08-29T08:08:45Z</time>
      </trkpt>
      <trkpt lat="43.00668" lon="-0.20674">
        <ele>1098</ele>
        <time>2021-08-29T08:08:46Z</time>
      </trkpt>
      <trkpt lat="43.00667" lon="-0.20675">
        <ele>1098.2</ele>
        <time>2021-08-29T08:08:47Z</time>
      </trkpt>
      <trkpt lat="43.00667" lon="-0.20677">
        <ele>1098.4</ele>
        <time>2021-08-29T08:08:48Z</time>
      </trkpt>
      <trkpt lat="43.00664" lon="-0.20677">
        <ele>1098.8</ele>
        <time>2021-08-29T08:08:49Z</time>
      </trkpt>
      <trkpt lat="43.00663" lon="-0.20679">
        <ele>1099</ele>
        <time>2021-08-29T08:08:50Z</time>
      </trkpt>
      <trkpt lat="43.00663" lon="-0.20679">
        <ele>1099.2</ele>
        <time>2021-08-29T08:08:51Z</time>
      </trkpt>
      <trkpt lat="43.00663" lon="-0.2068">
        <ele>1099.2</ele>
        <time>2021-08-29T08:08:52Z</time>
      </trkpt>
      <trkpt lat="43.00663" lon="-0.2068">
        <ele>1099.4</ele>
        <time>2021-08-29T08:08:53Z</time>
      </trkpt>
      <trkpt lat="43.00663" lon="-0.2068">
        <ele>1099.8</ele>
        <time>2021-08-29T08:08:55Z</time>
      </trkpt>
      <trkpt lat="43.00662" lon="-0.20681">
        <ele>1100</ele>
        <time>2021-08-29T08:08:56Z</time>
      </trkpt>
      <trkpt lat="43.00661" lon="-0.20683">
        <ele>1100.4</ele>
        <time>2021-08-29T08:08:57Z</time>
      </trkpt>
      <trkpt lat="43.00661" lon="-0.20684">
        <ele>1100.6</ele>
        <time>2021-08-29T08:08:58Z</time>
      </trkpt>
      <trkpt lat="43.0066" lon="-0.20685">
        <ele>1101</ele>
        <time>2021-08-29T08:08:59Z</time>
      </trkpt>
      <trkpt lat="43.0066" lon="-0.20686">
        <ele>1101</ele>
        <time>2021-08-29T08:09:00Z</time>
      </trkpt>
      <trkpt lat="43.00659" lon="-0.20688">
        <ele>1101.2</ele>
        <time>2021-08-29T08:09:01Z</time>
      </trkpt>
      <trkpt lat="43.00658" lon="-0.2069">
        <ele>1101.2</ele>
        <time>2021-08-29T08:09:02Z</time>
      </trkpt>
      <trkpt lat="43.00658" lon="-0.20693">
        <ele>1101.4</ele>
        <time>2021-08-29T08:09:03Z</time>
      </trkpt>
      <trkpt lat="43.00659" lon="-0.20696">
        <ele>1101.6</ele>
        <time>2021-08-29T08:09:04Z</time>
      </trkpt>
      <trkpt lat="43.00658" lon="-0.20697">
        <ele>1101.8</ele>
        <time>2021-08-29T08:09:05Z</time>
      </trkpt>
      <trkpt lat="43.00656" lon="-0.20699">
        <ele>1101.8</ele>
        <time>2021-08-29T08:09:06Z</time>
      </trkpt>
      <trkpt lat="43.00656" lon="-0.207">
        <ele>1102</ele>
        <time>2021-08-29T08:09:07Z</time>
      </trkpt>
      <trkpt lat="43.00655" lon="-0.20703">
        <ele>1102</ele>
        <time>2021-08-29T08:09:08Z</time>
      </trkpt>
      <trkpt lat="43.00654" lon="-0.20705">
        <ele>1102.2</ele>
        <time>2021-08-29T08:09:09Z</time>
      </trkpt>
      <trkpt lat="43.00654" lon="-0.20706">
        <ele>1102.6</ele>
        <time>2021-08-29T08:09:10Z</time>
      </trkpt>
      <trkpt lat="43.00653" lon="-0.20708">
        <ele>1102.8</ele>
        <time>2021-08-29T08:09:11Z</time>
      </trkpt>
      <trkpt lat="43.00653" lon="-0.20711">
        <ele>1103</ele>
        <time>2021-08-29T08:09:12Z</time>
      </trkpt>
      <trkpt lat="43.00653" lon="-0.20713">
        <ele>1103</ele>
        <time>2021-08-29T08:09:13Z</time>
      </trkpt>
      <trkpt lat="43.00651" lon="-0.20716">
        <ele>1103.2</ele>
        <time>2021-08-29T08:09:14Z</time>
      </trkpt>
      <trkpt lat="43.00649" lon="-0.20717">
        <ele>1103.2</ele>
        <time>2021-08-29T08:09:15Z</time>
      </trkpt>
      <trkpt lat="43.00649" lon="-0.20719">
        <ele>1103.6</ele>
        <time>2021-08-29T08:09:16Z</time>
      </trkpt>
      <trkpt lat="43.00649" lon="-0.20722">
        <ele>1103.8</ele>
        <time>2021-08-29T08:09:17Z</time>
      </trkpt>
      <trkpt lat="43.00649" lon="-0.20724">
        <ele>1104.2</ele>
        <time>2021-08-29T08:09:18Z</time>
      </trkpt>
      <trkpt lat="43.00649" lon="-0.20724">
        <ele>1104.2</ele>
        <time>2021-08-29T08:09:19Z</time>
      </trkpt>
      <trkpt lat="43.00649" lon="-0.20726">
        <ele>1104.6</ele>
        <time>2021-08-29T08:09:20Z</time>
      </trkpt>
      <trkpt lat="43.00648" lon="-0.20728">
        <ele>1104.6</ele>
        <time>2021-08-29T08:09:21Z</time>
      </trkpt>
      <trkpt lat="43.00646" lon="-0.2073">
        <ele>1104.8</ele>
        <time>2021-08-29T08:09:22Z</time>
      </trkpt>
      <trkpt lat="43.00646" lon="-0.20732">
        <ele>1104.8</ele>
        <time>2021-08-29T08:09:23Z</time>
      </trkpt>
      <trkpt lat="43.00646" lon="-0.20733">
        <ele>1104.8</ele>
        <time>2021-08-29T08:09:24Z</time>
      </trkpt>
      <trkpt lat="43.00646" lon="-0.20734">
        <ele>1105</ele>
        <time>2021-08-29T08:09:25Z</time>
      </trkpt>
      <trkpt lat="43.00646" lon="-0.20734">
        <ele>1105.2</ele>
        <time>2021-08-29T08:09:26Z</time>
      </trkpt>
      <trkpt lat="43.00644" lon="-0.20738">
        <ele>1105.4</ele>
        <time>2021-08-29T08:09:27Z</time>
      </trkpt>
      <trkpt lat="43.00642" lon="-0.20741">
        <ele>1105.6</ele>
        <time>2021-08-29T08:09:28Z</time>
      </trkpt>
      <trkpt lat="43.00641" lon="-0.20743">
        <ele>1106</ele>
        <time>2021-08-29T08:09:29Z</time>
      </trkpt>
      <trkpt lat="43.00641" lon="-0.20744">
        <ele>1106</ele>
        <time>2021-08-29T08:09:30Z</time>
      </trkpt>
      <trkpt lat="43.0064" lon="-0.20745">
        <ele>1106.4</ele>
        <time>2021-08-29T08:09:31Z</time>
      </trkpt>
      <trkpt lat="43.00637" lon="-0.20746">
        <ele>1106.4</ele>
        <time>2021-08-29T08:09:32Z</time>
      </trkpt>
      <trkpt lat="43.00636" lon="-0.20747">
        <ele>1106.6</ele>
        <time>2021-08-29T08:09:33Z</time>
      </trkpt>
      <trkpt lat="43.00635" lon="-0.20749">
        <ele>1106.8</ele>
        <time>2021-08-29T08:09:34Z</time>
      </trkpt>
      <trkpt lat="43.00634" lon="-0.2075">
        <ele>1106.8</ele>
        <time>2021-08-29T08:09:35Z</time>
      </trkpt>
      <trkpt lat="43.00634" lon="-0.20752">
        <ele>1107</ele>
        <time>2021-08-29T08:09:36Z</time>
      </trkpt>
      <trkpt lat="43.00633" lon="-0.20753">
        <ele>1107.2</ele>
        <time>2021-08-29T08:09:37Z</time>
      </trkpt>
      <trkpt lat="43.00632" lon="-0.20755">
        <ele>1107.4</ele>
        <time>2021-08-29T08:09:38Z</time>
      </trkpt>
      <trkpt lat="43.00631" lon="-0.20756">
        <ele>1107.6</ele>
        <time>2021-08-29T08:09:39Z</time>
      </trkpt>
      <trkpt lat="43.0063" lon="-0.20758">
        <ele>1107.6</ele>
        <time>2021-08-29T08:09:40Z</time>
      </trkpt>
      <trkpt lat="43.0063" lon="-0.20759">
        <ele>1107.8</ele>
        <time>2021-08-29T08:09:41Z</time>
      </trkpt>
      <trkpt lat="43.00628" lon="-0.20759">
        <ele>1107.8</ele>
        <time>2021-08-29T08:09:42Z</time>
      </trkpt>
      <trkpt lat="43.00627" lon="-0.2076">
        <ele>1108</ele>
        <time>2021-08-29T08:09:43Z</time>
      </trkpt>
      <trkpt lat="43.00626" lon="-0.20763">
        <ele>1108</ele>
        <time>2021-08-29T08:09:44Z</time>
      </trkpt>
      <trkpt lat="43.00626" lon="-0.20764">
        <ele>1108.2</ele>
        <time>2021-08-29T08:09:45Z</time>
      </trkpt>
      <trkpt lat="43.00625" lon="-0.20766">
        <ele>1108.2</ele>
        <time>2021-08-29T08:09:46Z</time>
      </trkpt>
      <trkpt lat="43.00624" lon="-0.20767">
        <ele>1108.4</ele>
        <time>2021-08-29T08:09:47Z</time>
      </trkpt>
      <trkpt lat="43.00623" lon="-0.20769">
        <ele>1108.4</ele>
        <time>2021-08-29T08:09:48Z</time>
      </trkpt>
      <trkpt lat="43.00623" lon="-0.2077">
        <ele>1108.6</ele>
        <time>2021-08-29T08:09:49Z</time>
      </trkpt>
      <trkpt lat="43.00622" lon="-0.20772">
        <ele>1108.4</ele>
        <time>2021-08-29T08:09:50Z</time>
      </trkpt>
      <trkpt lat="43.00621" lon="-0.20773">
        <ele>1108.4</ele>
        <time>2021-08-29T08:09:51Z</time>
      </trkpt>
      <trkpt lat="43.0062" lon="-0.20775">
        <ele>1108.6</ele>
        <time>2021-08-29T08:09:52Z</time>
      </trkpt>
      <trkpt lat="43.00619" lon="-0.20777">
        <ele>1108.6</ele>
        <time>2021-08-29T08:09:53Z</time>
      </trkpt>
      <trkpt lat="43.00618" lon="-0.20779">
        <ele>1108.6</ele>
        <time>2021-08-29T08:09:54Z</time>
      </trkpt>
      <trkpt lat="43.00618" lon="-0.20781">
        <ele>1108.8</ele>
        <time>2021-08-29T08:09:55Z</time>
      </trkpt>
      <trkpt lat="43.00619" lon="-0.20782">
        <ele>1108.8</ele>
        <time>2021-08-29T08:09:56Z</time>
      </trkpt>
      <trkpt lat="43.00619" lon="-0.20783">
        <ele>1109</ele>
        <time>2021-08-29T08:09:57Z</time>
      </trkpt>
      <trkpt lat="43.00619" lon="-0.20783">
        <ele>1109.2</ele>
        <time>2021-08-29T08:09:58Z</time>
      </trkpt>
      <trkpt lat="43.0062" lon="-0.20783">
        <ele>1109.2</ele>
        <time>2021-08-29T08:09:59Z</time>
      </trkpt>
      <trkpt lat="43.00622" lon="-0.20783">
        <ele>1109.6</ele>
        <time>2021-08-29T08:10:00Z</time>
      </trkpt>
      <trkpt lat="43.00622" lon="-0.20783">
        <ele>1109.8</ele>
        <time>2021-08-29T08:10:01Z</time>
      </trkpt>
      <trkpt lat="43.00623" lon="-0.20781">
        <ele>1110</ele>
        <time>2021-08-29T08:10:02Z</time>
      </trkpt>
      <trkpt lat="43.00624" lon="-0.2078">
        <ele>1110.2</ele>
        <time>2021-08-29T08:10:03Z</time>
      </trkpt>
      <trkpt lat="43.00625" lon="-0.20779">
        <ele>1110.4</ele>
        <time>2021-08-29T08:10:04Z</time>
      </trkpt>
      <trkpt lat="43.00625" lon="-0.20779">
        <ele>1110.6</ele>
        <time>2021-08-29T08:10:05Z</time>
      </trkpt>
      <trkpt lat="43.00626" lon="-0.20778">
        <ele>1110.8</ele>
        <time>2021-08-29T08:10:06Z</time>
      </trkpt>
      <trkpt lat="43.00627" lon="-0.20777">
        <ele>1110.8</ele>
        <time>2021-08-29T08:10:07Z</time>
      </trkpt>
      <trkpt lat="43.00627" lon="-0.20775">
        <ele>1110.8</ele>
        <time>2021-08-29T08:10:08Z</time>
      </trkpt>
      <trkpt lat="43.00628" lon="-0.20774">
        <ele>1110.8</ele>
        <time>2021-08-29T08:10:09Z</time>
      </trkpt>
      <trkpt lat="43.0063" lon="-0.20773">
        <ele>1110.8</ele>
        <time>2021-08-29T08:10:10Z</time>
      </trkpt>
      <trkpt lat="43.00631" lon="-0.20771">
        <ele>1111</ele>
        <time>2021-08-29T08:10:11Z</time>
      </trkpt>
      <trkpt lat="43.00631" lon="-0.2077">
        <ele>1111</ele>
        <time>2021-08-29T08:10:12Z</time>
      </trkpt>
      <trkpt lat="43.00632" lon="-0.20769">
        <ele>1111</ele>
        <time>2021-08-29T08:10:13Z</time>
      </trkpt>
      <trkpt lat="43.00633" lon="-0.20767">
        <ele>1111</ele>
        <time>2021-08-29T08:10:14Z</time>
      </trkpt>
      <trkpt lat="43.00634" lon="-0.20765">
        <ele>1111.2</ele>
        <time>2021-08-29T08:10:15Z</time>
      </trkpt>
      <trkpt lat="43.00635" lon="-0.20764">
        <ele>1111.2</ele>
        <time>2021-08-29T08:10:16Z</time>
      </trkpt>
      <trkpt lat="43.00637" lon="-0.20763">
        <ele>1111.4</ele>
        <time>2021-08-29T08:10:17Z</time>
      </trkpt>
      <trkpt lat="43.00638" lon="-0.20762">
        <ele>1111.4</ele>
        <time>2021-08-29T08:10:18Z</time>
      </trkpt>
      <trkpt lat="43.00639" lon="-0.20761">
        <ele>1111.4</ele>
        <time>2021-08-29T08:10:19Z</time>
      </trkpt>
      <trkpt lat="43.00641" lon="-0.20759">
        <ele>1111.4</ele>
        <time>2021-08-29T08:10:20Z</time>
      </trkpt>
      <trkpt lat="43.00641" lon="-0.20758">
        <ele>1111.6</ele>
        <time>2021-08-29T08:10:21Z</time>
      </trkpt>
      <trkpt lat="43.00642" lon="-0.20757">
        <ele>1111.8</ele>
        <time>2021-08-29T08:10:22Z</time>
      </trkpt>
      <trkpt lat="43.00643" lon="-0.20757">
        <ele>1111.6</ele>
        <time>2021-08-29T08:10:23Z</time>
      </trkpt>
      <trkpt lat="43.00643" lon="-0.20755">
        <ele>1111.8</ele>
        <time>2021-08-29T08:10:24Z</time>
      </trkpt>
      <trkpt lat="43.00644" lon="-0.20754">
        <ele>1111.8</ele>
        <time>2021-08-29T08:10:25Z</time>
      </trkpt>
      <trkpt lat="43.00645" lon="-0.20752">
        <ele>1112</ele>
        <time>2021-08-29T08:10:26Z</time>
      </trkpt>
      <trkpt lat="43.00646" lon="-0.20752">
        <ele>1112</ele>
        <time>2021-08-29T08:10:27Z</time>
      </trkpt>
      <trkpt lat="43.00647" lon="-0.20752">
        <ele>1112.2</ele>
        <time>2021-08-29T08:10:28Z</time>
      </trkpt>
      <trkpt lat="43.00649" lon="-0.20753">
        <ele>1112.6</ele>
        <time>2021-08-29T08:10:31Z</time>
      </trkpt>
      <trkpt lat="43.00649" lon="-0.20753">
        <ele>1112.8</ele>
        <time>2021-08-29T08:10:32Z</time>
      </trkpt>
      <trkpt lat="43.00649" lon="-0.20753">
        <ele>1113</ele>
        <time>2021-08-29T08:10:33Z</time>
      </trkpt>
      <trkpt lat="43.00649" lon="-0.20753">
        <ele>1113.2</ele>
        <time>2021-08-29T08:10:34Z</time>
      </trkpt>
      <trkpt lat="43.00649" lon="-0.2075">
        <ele>1113.2</ele>
        <time>2021-08-29T08:10:35Z</time>
      </trkpt>
      <trkpt lat="43.0065" lon="-0.20746">
        <ele>1113.2</ele>
        <time>2021-08-29T08:10:36Z</time>
      </trkpt>
      <trkpt lat="43.00652" lon="-0.20741">
        <ele>1113.4</ele>
        <time>2021-08-29T08:10:37Z</time>
      </trkpt>
      <trkpt lat="43.00653" lon="-0.20738">
        <ele>1113.6</ele>
        <time>2021-08-29T08:10:38Z</time>
      </trkpt>
      <trkpt lat="43.00655" lon="-0.20735">
        <ele>1113.8</ele>
        <time>2021-08-29T08:10:39Z</time>
      </trkpt>
      <trkpt lat="43.00657" lon="-0.20734">
        <ele>1114.2</ele>
        <time>2021-08-29T08:10:40Z</time>
      </trkpt>
      <trkpt lat="43.00658" lon="-0.20733">
        <ele>1114.2</ele>
        <time>2021-08-29T08:10:41Z</time>
      </trkpt>
      <trkpt lat="43.0066" lon="-0.20732">
        <ele>1114.4</ele>
        <time>2021-08-29T08:10:42Z</time>
      </trkpt>
      <trkpt lat="43.00661" lon="-0.20729">
        <ele>1114.4</ele>
        <time>2021-08-29T08:10:43Z</time>
      </trkpt>
      <trkpt lat="43.00663" lon="-0.20726">
        <ele>1114.6</ele>
        <time>2021-08-29T08:10:44Z</time>
      </trkpt>
      <trkpt lat="43.00665" lon="-0.20726">
        <ele>1114.8</ele>
        <time>2021-08-29T08:10:45Z</time>
      </trkpt>
      <trkpt lat="43.00666" lon="-0.20726">
        <ele>1115</ele>
        <time>2021-08-29T08:10:46Z</time>
      </trkpt>
      <trkpt lat="43.00667" lon="-0.20726">
        <ele>1115.2</ele>
        <time>2021-08-29T08:10:47Z</time>
      </trkpt>
      <trkpt lat="43.00668" lon="-0.20723">
        <ele>1115.4</ele>
        <time>2021-08-29T08:10:48Z</time>
      </trkpt>
      <trkpt lat="43.00669" lon="-0.2072">
        <ele>1115.6</ele>
        <time>2021-08-29T08:10:49Z</time>
      </trkpt>
      <trkpt lat="43.00671" lon="-0.20717">
        <ele>1116</ele>
        <time>2021-08-29T08:10:50Z</time>
      </trkpt>
      <trkpt lat="43.00672" lon="-0.20716">
        <ele>1116.2</ele>
        <time>2021-08-29T08:10:51Z</time>
      </trkpt>
      <trkpt lat="43.00673" lon="-0.20714">
        <ele>1116.4</ele>
        <time>2021-08-29T08:10:52Z</time>
      </trkpt>
      <trkpt lat="43.00674" lon="-0.20712">
        <ele>1116.6</ele>
        <time>2021-08-29T08:10:53Z</time>
      </trkpt>
      <trkpt lat="43.00675" lon="-0.20711">
        <ele>1116.8</ele>
        <time>2021-08-29T08:10:54Z</time>
      </trkpt>
      <trkpt lat="43.00676" lon="-0.20709">
        <ele>1116.8</ele>
        <time>2021-08-29T08:10:55Z</time>
      </trkpt>
      <trkpt lat="43.00678" lon="-0.20708">
        <ele>1116.8</ele>
        <time>2021-08-29T08:10:56Z</time>
      </trkpt>
      <trkpt lat="43.00679" lon="-0.20706">
        <ele>1117</ele>
        <time>2021-08-29T08:10:57Z</time>
      </trkpt>
      <trkpt lat="43.00679" lon="-0.20704">
        <ele>1117</ele>
        <time>2021-08-29T08:10:58Z</time>
      </trkpt>
      <trkpt lat="43.0068" lon="-0.20702">
        <ele>1117.2</ele>
        <time>2021-08-29T08:10:59Z</time>
      </trkpt>
      <trkpt lat="43.00682" lon="-0.20701">
        <ele>1117.2</ele>
        <time>2021-08-29T08:11:00Z</time>
      </trkpt>
      <trkpt lat="43.00683" lon="-0.20701">
        <ele>1117.2</ele>
        <time>2021-08-29T08:11:01Z</time>
      </trkpt>
      <trkpt lat="43.00684" lon="-0.20699">
        <ele>1117.2</ele>
        <time>2021-08-29T08:11:02Z</time>
      </trkpt>
      <trkpt lat="43.00686" lon="-0.20698">
        <ele>1117.2</ele>
        <time>2021-08-29T08:11:03Z</time>
      </trkpt>
      <trkpt lat="43.00686" lon="-0.20698">
        <ele>1117.2</ele>
        <time>2021-08-29T08:11:04Z</time>
      </trkpt>
      <trkpt lat="43.00687" lon="-0.20697">
        <ele>1117.4</ele>
        <time>2021-08-29T08:11:05Z</time>
      </trkpt>
      <trkpt lat="43.00688" lon="-0.20696">
        <ele>1117.4</ele>
        <time>2021-08-29T08:11:06Z</time>
      </trkpt>
      <trkpt lat="43.00689" lon="-0.20695">
        <ele>1117.6</ele>
        <time>2021-08-29T08:11:07Z</time>
      </trkpt>
      <trkpt lat="43.0069" lon="-0.20694">
        <ele>1117.6</ele>
        <time>2021-08-29T08:11:08Z</time>
      </trkpt>
      <trkpt lat="43.00691" lon="-0.20693">
        <ele>1117.8</ele>
        <time>2021-08-29T08:11:09Z</time>
      </trkpt>
      <trkpt lat="43.00692" lon="-0.20693">
        <ele>1117.8</ele>
        <time>2021-08-29T08:11:10Z</time>
      </trkpt>
      <trkpt lat="43.00693" lon="-0.20692">
        <ele>1118.2</ele>
        <time>2021-08-29T08:11:11Z</time>
      </trkpt>
      <trkpt lat="43.00694" lon="-0.20692">
        <ele>1118.4</ele>
        <time>2021-08-29T08:11:12Z</time>
      </trkpt>
      <trkpt lat="43.00696" lon="-0.20691">
        <ele>1118.4</ele>
        <time>2021-08-29T08:11:13Z</time>
      </trkpt>
      <trkpt lat="43.00697" lon="-0.20691">
        <ele>1118.6</ele>
        <time>2021-08-29T08:11:14Z</time>
      </trkpt>
      <trkpt lat="43.00698" lon="-0.2069">
        <ele>1118.6</ele>
        <time>2021-08-29T08:11:15Z</time>
      </trkpt>
      <trkpt lat="43.00699" lon="-0.2069">
        <ele>1118.8</ele>
        <time>2021-08-29T08:11:16Z</time>
      </trkpt>
      <trkpt lat="43.007" lon="-0.20688">
        <ele>1119</ele>
        <time>2021-08-29T08:11:17Z</time>
      </trkpt>
      <trkpt lat="43.00701" lon="-0.20687">
        <ele>1119.2</ele>
        <time>2021-08-29T08:11:18Z</time>
      </trkpt>
      <trkpt lat="43.00703" lon="-0.20687">
        <ele>1119.2</ele>
        <time>2021-08-29T08:11:19Z</time>
      </trkpt>
      <trkpt lat="43.00704" lon="-0.20686">
        <ele>1119.6</ele>
        <time>2021-08-29T08:11:20Z</time>
      </trkpt>
      <trkpt lat="43.00705" lon="-0.20685">
        <ele>1119.8</ele>
        <time>2021-08-29T08:11:21Z</time>
      </trkpt>
      <trkpt lat="43.00706" lon="-0.20684">
        <ele>1120</ele>
        <time>2021-08-29T08:11:22Z</time>
      </trkpt>
      <trkpt lat="43.00707" lon="-0.20683">
        <ele>1120</ele>
        <time>2021-08-29T08:11:23Z</time>
      </trkpt>
      <trkpt lat="43.00708" lon="-0.20682">
        <ele>1120.2</ele>
        <time>2021-08-29T08:11:24Z</time>
      </trkpt>
      <trkpt lat="43.0071" lon="-0.20681">
        <ele>1120.4</ele>
        <time>2021-08-29T08:11:25Z</time>
      </trkpt>
      <trkpt lat="43.0071" lon="-0.2068">
        <ele>1120.6</ele>
        <time>2021-08-29T08:11:26Z</time>
      </trkpt>
      <trkpt lat="43.00711" lon="-0.2068">
        <ele>1120.8</ele>
        <time>2021-08-29T08:11:27Z</time>
      </trkpt>
      <trkpt lat="43.00711" lon="-0.20678">
        <ele>1121.2</ele>
        <time>2021-08-29T08:11:28Z</time>
      </trkpt>
      <trkpt lat="43.00712" lon="-0.20677">
        <ele>1121.4</ele>
        <time>2021-08-29T08:11:29Z</time>
      </trkpt>
      <trkpt lat="43.00713" lon="-0.20675">
        <ele>1121.6</ele>
        <time>2021-08-29T08:11:30Z</time>
      </trkpt>
      <trkpt lat="43.00713" lon="-0.20673">
        <ele>1122</ele>
        <time>2021-08-29T08:11:31Z</time>
      </trkpt>
      <trkpt lat="43.00714" lon="-0.2067">
        <ele>1122</ele>
        <time>2021-08-29T08:11:32Z</time>
      </trkpt>
      <trkpt lat="43.00715" lon="-0.20668">
        <ele>1122.2</ele>
        <time>2021-08-29T08:11:33Z</time>
      </trkpt>
      <trkpt lat="43.00715" lon="-0.20665">
        <ele>1122.2</ele>
        <time>2021-08-29T08:11:34Z</time>
      </trkpt>
      <trkpt lat="43.00716" lon="-0.20663">
        <ele>1122.4</ele>
        <time>2021-08-29T08:11:35Z</time>
      </trkpt>
      <trkpt lat="43.00718" lon="-0.20664">
        <ele>1122.6</ele>
        <time>2021-08-29T08:11:36Z</time>
      </trkpt>
      <trkpt lat="43.00718" lon="-0.20663">
        <ele>1123</ele>
        <time>2021-08-29T08:11:37Z</time>
      </trkpt>
      <trkpt lat="43.00719" lon="-0.20662">
        <ele>1123.2</ele>
        <time>2021-08-29T08:11:38Z</time>
      </trkpt>
      <trkpt lat="43.0072" lon="-0.2066">
        <ele>1123.2</ele>
        <time>2021-08-29T08:11:39Z</time>
      </trkpt>
      <trkpt lat="43.00721" lon="-0.2066">
        <ele>1123.4</ele>
        <time>2021-08-29T08:11:40Z</time>
      </trkpt>
      <trkpt lat="43.00721" lon="-0.2066">
        <ele>1123.4</ele>
        <time>2021-08-29T08:11:41Z</time>
      </trkpt>
      <trkpt lat="43.00721" lon="-0.2066">
        <ele>1123.6</ele>
        <time>2021-08-29T08:11:42Z</time>
      </trkpt>
      <trkpt lat="43.00721" lon="-0.20658">
        <ele>1123.8</ele>
        <time>2021-08-29T08:11:43Z</time>
      </trkpt>
      <trkpt lat="43.00721" lon="-0.20653">
        <ele>1124</ele>
        <time>2021-08-29T08:11:44Z</time>
      </trkpt>
      <trkpt lat="43.00721" lon="-0.20651">
        <ele>1124.2</ele>
        <time>2021-08-29T08:11:45Z</time>
      </trkpt>
      <trkpt lat="43.00721" lon="-0.2065">
        <ele>1124.2</ele>
        <time>2021-08-29T08:11:46Z</time>
      </trkpt>
      <trkpt lat="43.00721" lon="-0.2065">
        <ele>1124.4</ele>
        <time>2021-08-29T08:11:47Z</time>
      </trkpt>
      <trkpt lat="43.00722" lon="-0.20647">
        <ele>1124.6</ele>
        <time>2021-08-29T08:11:48Z</time>
      </trkpt>
      <trkpt lat="43.00722" lon="-0.20645">
        <ele>1125</ele>
        <time>2021-08-29T08:11:49Z</time>
      </trkpt>
      <trkpt lat="43.00722" lon="-0.20645">
        <ele>1125</ele>
        <time>2021-08-29T08:11:50Z</time>
      </trkpt>
      <trkpt lat="43.00725" lon="-0.20644">
        <ele>1125.2</ele>
        <time>2021-08-29T08:11:51Z</time>
      </trkpt>
      <trkpt lat="43.00727" lon="-0.20642">
        <ele>1125.4</ele>
        <time>2021-08-29T08:11:52Z</time>
      </trkpt>
      <trkpt lat="43.00728" lon="-0.20639">
        <ele>1125.4</ele>
        <time>2021-08-29T08:11:53Z</time>
      </trkpt>
      <trkpt lat="43.00729" lon="-0.20637">
        <ele>1125.4</ele>
        <time>2021-08-29T08:11:54Z</time>
      </trkpt>
      <trkpt lat="43.00732" lon="-0.20636">
        <ele>1125.6</ele>
        <time>2021-08-29T08:11:55Z</time>
      </trkpt>
      <trkpt lat="43.00734" lon="-0.20636">
        <ele>1125.8</ele>
        <time>2021-08-29T08:11:56Z</time>
      </trkpt>
      <trkpt lat="43.00735" lon="-0.20634">
        <ele>1126</ele>
        <time>2021-08-29T08:11:57Z</time>
      </trkpt>
      <trkpt lat="43.00736" lon="-0.20631">
        <ele>1126.4</ele>
        <time>2021-08-29T08:11:58Z</time>
      </trkpt>
      <trkpt lat="43.00737" lon="-0.20629">
        <ele>1126.6</ele>
        <time>2021-08-29T08:11:59Z</time>
      </trkpt>
      <trkpt lat="43.00737" lon="-0.20627">
        <ele>1126.8</ele>
        <time>2021-08-29T08:12:00Z</time>
      </trkpt>
      <trkpt lat="43.00738" lon="-0.20624">
        <ele>1127</ele>
        <time>2021-08-29T08:12:01Z</time>
      </trkpt>
      <trkpt lat="43.00739" lon="-0.20622">
        <ele>1127.2</ele>
        <time>2021-08-29T08:12:02Z</time>
      </trkpt>
      <trkpt lat="43.00739" lon="-0.2062">
        <ele>1127.2</ele>
        <time>2021-08-29T08:12:03Z</time>
      </trkpt>
      <trkpt lat="43.0074" lon="-0.20618">
        <ele>1127.4</ele>
        <time>2021-08-29T08:12:04Z</time>
      </trkpt>
      <trkpt lat="43.00741" lon="-0.20616">
        <ele>1127.4</ele>
        <time>2021-08-29T08:12:05Z</time>
      </trkpt>
      <trkpt lat="43.00742" lon="-0.20613">
        <ele>1127.8</ele>
        <time>2021-08-29T08:12:06Z</time>
      </trkpt>
      <trkpt lat="43.00743" lon="-0.20612">
        <ele>1127.8</ele>
        <time>2021-08-29T08:12:07Z</time>
      </trkpt>
      <trkpt lat="43.00744" lon="-0.20611">
        <ele>1128</ele>
        <time>2021-08-29T08:12:08Z</time>
      </trkpt>
      <trkpt lat="43.00745" lon="-0.20609">
        <ele>1128.2</ele>
        <time>2021-08-29T08:12:09Z</time>
      </trkpt>
      <trkpt lat="43.00746" lon="-0.20608">
        <ele>1128.2</ele>
        <time>2021-08-29T08:12:10Z</time>
      </trkpt>
      <trkpt lat="43.00746" lon="-0.20608">
        <ele>1128.4</ele>
        <time>2021-08-29T08:12:11Z</time>
      </trkpt>
      <trkpt lat="43.00747" lon="-0.20606">
        <ele>1128.6</ele>
        <time>2021-08-29T08:12:12Z</time>
      </trkpt>
      <trkpt lat="43.00748" lon="-0.20604">
        <ele>1128.6</ele>
        <time>2021-08-29T08:12:13Z</time>
      </trkpt>
      <trkpt lat="43.0075" lon="-0.20603">
        <ele>1128.6</ele>
        <time>2021-08-29T08:12:14Z</time>
      </trkpt>
      <trkpt lat="43.00751" lon="-0.20601">
        <ele>1128.8</ele>
        <time>2021-08-29T08:12:15Z</time>
      </trkpt>
      <trkpt lat="43.00752" lon="-0.206">
        <ele>1128.8</ele>
        <time>2021-08-29T08:12:16Z</time>
      </trkpt>
      <trkpt lat="43.00752" lon="-0.20598">
        <ele>1129</ele>
        <time>2021-08-29T08:12:17Z</time>
      </trkpt>
      <trkpt lat="43.00754" lon="-0.20596">
        <ele>1129.2</ele>
        <time>2021-08-29T08:12:18Z</time>
      </trkpt>
      <trkpt lat="43.00755" lon="-0.20595">
        <ele>1129.4</ele>
        <time>2021-08-29T08:12:19Z</time>
      </trkpt>
      <trkpt lat="43.00756" lon="-0.20594">
        <ele>1129.4</ele>
        <time>2021-08-29T08:12:20Z</time>
      </trkpt>
      <trkpt lat="43.00757" lon="-0.20593">
        <ele>1129.4</ele>
        <time>2021-08-29T08:12:21Z</time>
      </trkpt>
      <trkpt lat="43.00758" lon="-0.20591">
        <ele>1129.6</ele>
        <time>2021-08-29T08:12:22Z</time>
      </trkpt>
      <trkpt lat="43.00758" lon="-0.2059">
        <ele>1129.6</ele>
        <time>2021-08-29T08:12:23Z</time>
      </trkpt>
      <trkpt lat="43.0076" lon="-0.20589">
        <ele>1129.8</ele>
        <time>2021-08-29T08:12:24Z</time>
      </trkpt>
      <trkpt lat="43.00761" lon="-0.20588">
        <ele>1130</ele>
        <time>2021-08-29T08:12:25Z</time>
      </trkpt>
      <trkpt lat="43.00762" lon="-0.20587">
        <ele>1130</ele>
        <time>2021-08-29T08:12:26Z</time>
      </trkpt>
      <trkpt lat="43.00763" lon="-0.20585">
        <ele>1130.2</ele>
        <time>2021-08-29T08:12:27Z</time>
      </trkpt>
      <trkpt lat="43.00764" lon="-0.20584">
        <ele>1130.2</ele>
        <time>2021-08-29T08:12:28Z</time>
      </trkpt>
      <trkpt lat="43.00765" lon="-0.20583">
        <ele>1130.6</ele>
        <time>2021-08-29T08:12:29Z</time>
      </trkpt>
      <trkpt lat="43.00766" lon="-0.20581">
        <ele>1130.6</ele>
        <time>2021-08-29T08:12:30Z</time>
      </trkpt>
      <trkpt lat="43.00767" lon="-0.20579">
        <ele>1130.8</ele>
        <time>2021-08-29T08:12:31Z</time>
      </trkpt>
      <trkpt lat="43.00768" lon="-0.20578">
        <ele>1131.2</ele>
        <time>2021-08-29T08:12:32Z</time>
      </trkpt>
      <trkpt lat="43.00769" lon="-0.20577">
        <ele>1131.2</ele>
        <time>2021-08-29T08:12:33Z</time>
      </trkpt>
      <trkpt lat="43.0077" lon="-0.20575">
        <ele>1131.6</ele>
        <time>2021-08-29T08:12:34Z</time>
      </trkpt>
      <trkpt lat="43.00771" lon="-0.20574">
        <ele>1131.8</ele>
        <time>2021-08-29T08:12:35Z</time>
      </trkpt>
      <trkpt lat="43.00772" lon="-0.20573">
        <ele>1132</ele>
        <time>2021-08-29T08:12:36Z</time>
      </trkpt>
      <trkpt lat="43.00774" lon="-0.20571">
        <ele>1132</ele>
        <time>2021-08-29T08:12:37Z</time>
      </trkpt>
      <trkpt lat="43.00774" lon="-0.2057">
        <ele>1132.2</ele>
        <time>2021-08-29T08:12:38Z</time>
      </trkpt>
      <trkpt lat="43.00775" lon="-0.20568">
        <ele>1132.4</ele>
        <time>2021-08-29T08:12:39Z</time>
      </trkpt>
      <trkpt lat="43.00776" lon="-0.20566">
        <ele>1132.6</ele>
        <time>2021-08-29T08:12:40Z</time>
      </trkpt>
      <trkpt lat="43.00777" lon="-0.20565">
        <ele>1132.6</ele>
        <time>2021-08-29T08:12:41Z</time>
      </trkpt>
      <trkpt lat="43.00778" lon="-0.20563">
        <ele>1132.8</ele>
        <time>2021-08-29T08:12:42Z</time>
      </trkpt>
      <trkpt lat="43.00779" lon="-0.20561">
        <ele>1132.8</ele>
        <time>2021-08-29T08:12:43Z</time>
      </trkpt>
      <trkpt lat="43.0078" lon="-0.2056">
        <ele>1133</ele>
        <time>2021-08-29T08:12:44Z</time>
      </trkpt>
      <trkpt lat="43.00781" lon="-0.20559">
        <ele>1133.2</ele>
        <time>2021-08-29T08:12:45Z</time>
      </trkpt>
      <trkpt lat="43.00782" lon="-0.20558">
        <ele>1133.4</ele>
        <time>2021-08-29T08:12:46Z</time>
      </trkpt>
      <trkpt lat="43.00783" lon="-0.20556">
        <ele>1133.4</ele>
        <time>2021-08-29T08:12:47Z</time>
      </trkpt>
      <trkpt lat="43.00784" lon="-0.20554">
        <ele>1133.6</ele>
        <time>2021-08-29T08:12:48Z</time>
      </trkpt>
      <trkpt lat="43.00785" lon="-0.20553">
        <ele>1133.6</ele>
        <time>2021-08-29T08:12:49Z</time>
      </trkpt>
      <trkpt lat="43.00786" lon="-0.20552">
        <ele>1133.8</ele>
        <time>2021-08-29T08:12:50Z</time>
      </trkpt>
      <trkpt lat="43.00787" lon="-0.2055">
        <ele>1134</ele>
        <time>2021-08-29T08:12:51Z</time>
      </trkpt>
      <trkpt lat="43.00788" lon="-0.20549">
        <ele>1134.2</ele>
        <time>2021-08-29T08:12:52Z</time>
      </trkpt>
      <trkpt lat="43.00789" lon="-0.20548">
        <ele>1134.6</ele>
        <time>2021-08-29T08:12:53Z</time>
      </trkpt>
      <trkpt lat="43.0079" lon="-0.20546">
        <ele>1134.8</ele>
        <time>2021-08-29T08:12:54Z</time>
      </trkpt>
      <trkpt lat="43.0079" lon="-0.20545">
        <ele>1135</ele>
        <time>2021-08-29T08:12:55Z</time>
      </trkpt>
      <trkpt lat="43.00791" lon="-0.20544">
        <ele>1135</ele>
        <time>2021-08-29T08:12:56Z</time>
      </trkpt>
      <trkpt lat="43.00791" lon="-0.20542">
        <ele>1135.2</ele>
        <time>2021-08-29T08:12:57Z</time>
      </trkpt>
      <trkpt lat="43.00792" lon="-0.20541">
        <ele>1135.2</ele>
        <time>2021-08-29T08:12:58Z</time>
      </trkpt>
      <trkpt lat="43.00793" lon="-0.2054">
        <ele>1135.4</ele>
        <time>2021-08-29T08:12:59Z</time>
      </trkpt>
      <trkpt lat="43.00794" lon="-0.20539">
        <ele>1135.4</ele>
        <time>2021-08-29T08:13:00Z</time>
      </trkpt>
      <trkpt lat="43.00795" lon="-0.20537">
        <ele>1135.6</ele>
        <time>2021-08-29T08:13:01Z</time>
      </trkpt>
      <trkpt lat="43.00795" lon="-0.20535">
        <ele>1135.8</ele>
        <time>2021-08-29T08:13:02Z</time>
      </trkpt>
      <trkpt lat="43.00797" lon="-0.20533">
        <ele>1135.8</ele>
        <time>2021-08-29T08:13:03Z</time>
      </trkpt>
      <trkpt lat="43.00798" lon="-0.20531">
        <ele>1136</ele>
        <time>2021-08-29T08:13:04Z</time>
      </trkpt>
      <trkpt lat="43.00799" lon="-0.2053">
        <ele>1136</ele>
        <time>2021-08-29T08:13:05Z</time>
      </trkpt>
      <trkpt lat="43.008" lon="-0.20529">
        <ele>1136.2</ele>
        <time>2021-08-29T08:13:06Z</time>
      </trkpt>
      <trkpt lat="43.00801" lon="-0.20527">
        <ele>1136.2</ele>
        <time>2021-08-29T08:13:07Z</time>
      </trkpt>
      <trkpt lat="43.00802" lon="-0.20526">
        <ele>1136.2</ele>
        <time>2021-08-29T08:13:08Z</time>
      </trkpt>
      <trkpt lat="43.00803" lon="-0.20525">
        <ele>1136.4</ele>
        <time>2021-08-29T08:13:09Z</time>
      </trkpt>
      <trkpt lat="43.00804" lon="-0.20523">
        <ele>1136.6</ele>
        <time>2021-08-29T08:13:10Z</time>
      </trkpt>
      <trkpt lat="43.00805" lon="-0.20521">
        <ele>1136.6</ele>
        <time>2021-08-29T08:13:11Z</time>
      </trkpt>
      <trkpt lat="43.00806" lon="-0.20519">
        <ele>1136.8</ele>
        <time>2021-08-29T08:13:12Z</time>
      </trkpt>
      <trkpt lat="43.00807" lon="-0.20517">
        <ele>1137</ele>
        <time>2021-08-29T08:13:13Z</time>
      </trkpt>
      <trkpt lat="43.00809" lon="-0.20516">
        <ele>1137.4</ele>
        <time>2021-08-29T08:13:14Z</time>
      </trkpt>
      <trkpt lat="43.00809" lon="-0.20514">
        <ele>1137.4</ele>
        <time>2021-08-29T08:13:15Z</time>
      </trkpt>
      <trkpt lat="43.00811" lon="-0.20513">
        <ele>1137.6</ele>
        <time>2021-08-29T08:13:16Z</time>
      </trkpt>
      <trkpt lat="43.00812" lon="-0.20513">
        <ele>1137.8</ele>
        <time>2021-08-29T08:13:17Z</time>
      </trkpt>
      <trkpt lat="43.00813" lon="-0.20512">
        <ele>1138.2</ele>
        <time>2021-08-29T08:13:18Z</time>
      </trkpt>
      <trkpt lat="43.00815" lon="-0.20511">
        <ele>1138.2</ele>
        <time>2021-08-29T08:13:19Z</time>
      </trkpt>
      <trkpt lat="43.00816" lon="-0.2051">
        <ele>1138.4</ele>
        <time>2021-08-29T08:13:20Z</time>
      </trkpt>
      <trkpt lat="43.00817" lon="-0.20509">
        <ele>1138.4</ele>
        <time>2021-08-29T08:13:21Z</time>
      </trkpt>
      <trkpt lat="43.00818" lon="-0.20508">
        <ele>1138.8</ele>
        <time>2021-08-29T08:13:22Z</time>
      </trkpt>
      <trkpt lat="43.00819" lon="-0.20507">
        <ele>1138.8</ele>
        <time>2021-08-29T08:13:23Z</time>
      </trkpt>
      <trkpt lat="43.0082" lon="-0.20506">
        <ele>1139</ele>
        <time>2021-08-29T08:13:24Z</time>
      </trkpt>
      <trkpt lat="43.00821" lon="-0.20505">
        <ele>1139.2</ele>
        <time>2021-08-29T08:13:25Z</time>
      </trkpt>
      <trkpt lat="43.00822" lon="-0.20504">
        <ele>1139.2</ele>
        <time>2021-08-29T08:13:26Z</time>
      </trkpt>
      <trkpt lat="43.00823" lon="-0.20504">
        <ele>1139.2</ele>
        <time>2021-08-29T08:13:27Z</time>
      </trkpt>
      <trkpt lat="43.00824" lon="-0.20502">
        <ele>1139.6</ele>
        <time>2021-08-29T08:13:28Z</time>
      </trkpt>
      <trkpt lat="43.00825" lon="-0.20501">
        <ele>1139.8</ele>
        <time>2021-08-29T08:13:29Z</time>
      </trkpt>
      <trkpt lat="43.00827" lon="-0.205">
        <ele>1140</ele>
        <time>2021-08-29T08:13:30Z</time>
      </trkpt>
      <trkpt lat="43.00828" lon="-0.20499">
        <ele>1140.2</ele>
        <time>2021-08-29T08:13:31Z</time>
      </trkpt>
      <trkpt lat="43.00829" lon="-0.20498">
        <ele>1140.2</ele>
        <time>2021-08-29T08:13:32Z</time>
      </trkpt>
      <trkpt lat="43.0083" lon="-0.20497">
        <ele>1140.6</ele>
        <time>2021-08-29T08:13:33Z</time>
      </trkpt>
      <trkpt lat="43.0083" lon="-0.20497">
        <ele>1140.6</ele>
        <time>2021-08-29T08:13:34Z</time>
      </trkpt>
      <trkpt lat="43.00831" lon="-0.20496">
        <ele>1140.8</ele>
        <time>2021-08-29T08:13:35Z</time>
      </trkpt>
      <trkpt lat="43.00832" lon="-0.20495">
        <ele>1141</ele>
        <time>2021-08-29T08:13:36Z</time>
      </trkpt>
      <trkpt lat="43.00833" lon="-0.20494">
        <ele>1141.2</ele>
        <time>2021-08-29T08:13:37Z</time>
      </trkpt>
      <trkpt lat="43.00834" lon="-0.20492">
        <ele>1141.4</ele>
        <time>2021-08-29T08:13:39Z</time>
      </trkpt>
      <trkpt lat="43.00835" lon="-0.20491">
        <ele>1141.6</ele>
        <time>2021-08-29T08:13:40Z</time>
      </trkpt>
      <trkpt lat="43.00836" lon="-0.20489">
        <ele>1141.6</ele>
        <time>2021-08-29T08:13:41Z</time>
      </trkpt>
      <trkpt lat="43.00836" lon="-0.20488">
        <ele>1141.8</ele>
        <time>2021-08-29T08:13:42Z</time>
      </trkpt>
      <trkpt lat="43.00837" lon="-0.20487">
        <ele>1141.8</ele>
        <time>2021-08-29T08:13:43Z</time>
      </trkpt>
      <trkpt lat="43.00838" lon="-0.20487">
        <ele>1142</ele>
        <time>2021-08-29T08:13:44Z</time>
      </trkpt>
      <trkpt lat="43.00839" lon="-0.20487">
        <ele>1142</ele>
        <time>2021-08-29T08:13:45Z</time>
      </trkpt>
      <trkpt lat="43.0084" lon="-0.20486">
        <ele>1142.2</ele>
        <time>2021-08-29T08:13:46Z</time>
      </trkpt>
      <trkpt lat="43.0084" lon="-0.20487">
        <ele>1142.2</ele>
        <time>2021-08-29T08:13:47Z</time>
      </trkpt>
      <trkpt lat="43.00841" lon="-0.20487">
        <ele>1142.4</ele>
        <time>2021-08-29T08:13:48Z</time>
      </trkpt>
      <trkpt lat="43.00843" lon="-0.20486">
        <ele>1142.6</ele>
        <time>2021-08-29T08:13:49Z</time>
      </trkpt>
      <trkpt lat="43.00846" lon="-0.20484">
        <ele>1142.6</ele>
        <time>2021-08-29T08:13:50Z</time>
      </trkpt>
      <trkpt lat="43.00848" lon="-0.20485">
        <ele>1142.8</ele>
        <time>2021-08-29T08:13:51Z</time>
      </trkpt>
      <trkpt lat="43.00849" lon="-0.20485">
        <ele>1143</ele>
        <time>2021-08-29T08:13:52Z</time>
      </trkpt>
      <trkpt lat="43.00851" lon="-0.20484">
        <ele>1143.2</ele>
        <time>2021-08-29T08:13:53Z</time>
      </trkpt>
      <trkpt lat="43.00853" lon="-0.20484">
        <ele>1143.4</ele>
        <time>2021-08-29T08:13:54Z</time>
      </trkpt>
      <trkpt lat="43.00856" lon="-0.20485">
        <ele>1143.4</ele>
        <time>2021-08-29T08:13:55Z</time>
      </trkpt>
      <trkpt lat="43.00858" lon="-0.20486">
        <ele>1143.4</ele>
        <time>2021-08-29T08:13:56Z</time>
      </trkpt>
      <trkpt lat="43.00859" lon="-0.20487">
        <ele>1143.6</ele>
        <time>2021-08-29T08:13:57Z</time>
      </trkpt>
      <trkpt lat="43.00861" lon="-0.20488">
        <ele>1143.6</ele>
        <time>2021-08-29T08:13:58Z</time>
      </trkpt>
      <trkpt lat="43.00862" lon="-0.20488">
        <ele>1143.8</ele>
        <time>2021-08-29T08:13:59Z</time>
      </trkpt>
      <trkpt lat="43.00863" lon="-0.20488">
        <ele>1144</ele>
        <time>2021-08-29T08:14:00Z</time>
      </trkpt>
      <trkpt lat="43.00864" lon="-0.20487">
        <ele>1144</ele>
        <time>2021-08-29T08:14:01Z</time>
      </trkpt>
      <trkpt lat="43.00866" lon="-0.20487">
        <ele>1144.2</ele>
        <time>2021-08-29T08:14:02Z</time>
      </trkpt>
      <trkpt lat="43.00866" lon="-0.20487">
        <ele>1144.4</ele>
        <time>2021-08-29T08:14:03Z</time>
      </trkpt>
      <trkpt lat="43.00866" lon="-0.20487">
        <ele>1144.6</ele>
        <time>2021-08-29T08:14:04Z</time>
      </trkpt>
      <trkpt lat="43.00868" lon="-0.20487">
        <ele>1145</ele>
        <time>2021-08-29T08:14:05Z</time>
      </trkpt>
      <trkpt lat="43.00869" lon="-0.20489">
        <ele>1145</ele>
        <time>2021-08-29T08:14:06Z</time>
      </trkpt>
      <trkpt lat="43.0087" lon="-0.20488">
        <ele>1145.2</ele>
        <time>2021-08-29T08:14:07Z</time>
      </trkpt>
      <trkpt lat="43.00871" lon="-0.20488">
        <ele>1145.4</ele>
        <time>2021-08-29T08:14:08Z</time>
      </trkpt>
      <trkpt lat="43.00872" lon="-0.20488">
        <ele>1145.6</ele>
        <time>2021-08-29T08:14:09Z</time>
      </trkpt>
      <trkpt lat="43.00875" lon="-0.20489">
        <ele>1145.8</ele>
        <time>2021-08-29T08:14:10Z</time>
      </trkpt>
      <trkpt lat="43.00876" lon="-0.2049">
        <ele>1146</ele>
        <time>2021-08-29T08:14:11Z</time>
      </trkpt>
      <trkpt lat="43.00877" lon="-0.20489">
        <ele>1146.4</ele>
        <time>2021-08-29T08:14:12Z</time>
      </trkpt>
      <trkpt lat="43.00878" lon="-0.20489">
        <ele>1146.6</ele>
        <time>2021-08-29T08:14:13Z</time>
      </trkpt>
      <trkpt lat="43.0088" lon="-0.2049">
        <ele>1146.8</ele>
        <time>2021-08-29T08:14:14Z</time>
      </trkpt>
      <trkpt lat="43.00881" lon="-0.20492">
        <ele>1147</ele>
        <time>2021-08-29T08:14:15Z</time>
      </trkpt>
      <trkpt lat="43.00882" lon="-0.20493">
        <ele>1147.2</ele>
        <time>2021-08-29T08:14:16Z</time>
      </trkpt>
      <trkpt lat="43.00882" lon="-0.20493">
        <ele>1147.4</ele>
        <time>2021-08-29T08:14:17Z</time>
      </trkpt>
      <trkpt lat="43.00883" lon="-0.20493">
        <ele>1147.6</ele>
        <time>2021-08-29T08:14:18Z</time>
      </trkpt>
      <trkpt lat="43.00884" lon="-0.20494">
        <ele>1147.6</ele>
        <time>2021-08-29T08:14:19Z</time>
      </trkpt>
      <trkpt lat="43.00885" lon="-0.20495">
        <ele>1147.8</ele>
        <time>2021-08-29T08:14:20Z</time>
      </trkpt>
      <trkpt lat="43.00886" lon="-0.20496">
        <ele>1148</ele>
        <time>2021-08-29T08:14:21Z</time>
      </trkpt>
      <trkpt lat="43.00887" lon="-0.20497">
        <ele>1148.2</ele>
        <time>2021-08-29T08:14:22Z</time>
      </trkpt>
      <trkpt lat="43.00889" lon="-0.20498">
        <ele>1148.2</ele>
        <time>2021-08-29T08:14:23Z</time>
      </trkpt>
      <trkpt lat="43.00891" lon="-0.20499">
        <ele>1148.4</ele>
        <time>2021-08-29T08:14:24Z</time>
      </trkpt>
      <trkpt lat="43.00893" lon="-0.20499">
        <ele>1148.6</ele>
        <time>2021-08-29T08:14:25Z</time>
      </trkpt>
      <trkpt lat="43.00894" lon="-0.20499">
        <ele>1148.8</ele>
        <time>2021-08-29T08:14:26Z</time>
      </trkpt>
      <trkpt lat="43.00895" lon="-0.205">
        <ele>1149</ele>
        <time>2021-08-29T08:14:27Z</time>
      </trkpt>
      <trkpt lat="43.00896" lon="-0.20501">
        <ele>1149</ele>
        <time>2021-08-29T08:14:28Z</time>
      </trkpt>
      <trkpt lat="43.00898" lon="-0.20502">
        <ele>1149.2</ele>
        <time>2021-08-29T08:14:29Z</time>
      </trkpt>
      <trkpt lat="43.009" lon="-0.20503">
        <ele>1149.2</ele>
        <time>2021-08-29T08:14:30Z</time>
      </trkpt>
      <trkpt lat="43.00902" lon="-0.20504">
        <ele>1149.4</ele>
        <time>2021-08-29T08:14:31Z</time>
      </trkpt>
      <trkpt lat="43.00903" lon="-0.20505">
        <ele>1149.6</ele>
        <time>2021-08-29T08:14:32Z</time>
      </trkpt>
      <trkpt lat="43.00904" lon="-0.20505">
        <ele>1149.6</ele>
        <time>2021-08-29T08:14:33Z</time>
      </trkpt>
      <trkpt lat="43.00906" lon="-0.20506">
        <ele>1149.8</ele>
        <time>2021-08-29T08:14:34Z</time>
      </trkpt>
      <trkpt lat="43.00907" lon="-0.20507">
        <ele>1149.8</ele>
        <time>2021-08-29T08:14:35Z</time>
      </trkpt>
      <trkpt lat="43.00908" lon="-0.20508">
        <ele>1150</ele>
        <time>2021-08-29T08:14:36Z</time>
      </trkpt>
      <trkpt lat="43.00909" lon="-0.20507">
        <ele>1150.2</ele>
        <time>2021-08-29T08:14:37Z</time>
      </trkpt>
      <trkpt lat="43.00911" lon="-0.20507">
        <ele>1150.4</ele>
        <time>2021-08-29T08:14:38Z</time>
      </trkpt>
      <trkpt lat="43.00914" lon="-0.20507">
        <ele>1150.6</ele>
        <time>2021-08-29T08:14:39Z</time>
      </trkpt>
      <trkpt lat="43.00916" lon="-0.20509">
        <ele>1150.6</ele>
        <time>2021-08-29T08:14:40Z</time>
      </trkpt>
      <trkpt lat="43.00917" lon="-0.20509">
        <ele>1150.8</ele>
        <time>2021-08-29T08:14:41Z</time>
      </trkpt>
      <trkpt lat="43.00919" lon="-0.20509">
        <ele>1151</ele>
        <time>2021-08-29T08:14:42Z</time>
      </trkpt>
      <trkpt lat="43.00922" lon="-0.20508">
        <ele>1151.2</ele>
        <time>2021-08-29T08:14:43Z</time>
      </trkpt>
      <trkpt lat="43.00923" lon="-0.20509">
        <ele>1151.4</ele>
        <time>2021-08-29T08:14:44Z</time>
      </trkpt>
      <trkpt lat="43.00924" lon="-0.20509">
        <ele>1151.6</ele>
        <time>2021-08-29T08:14:45Z</time>
      </trkpt>
      <trkpt lat="43.00924" lon="-0.20513">
        <ele>1151.6</ele>
        <time>2021-08-29T08:14:46Z</time>
      </trkpt>
      <trkpt lat="43.00926" lon="-0.20516">
        <ele>1152</ele>
        <time>2021-08-29T08:14:47Z</time>
      </trkpt>
      <trkpt lat="43.00927" lon="-0.20517">
        <ele>1152.2</ele>
        <time>2021-08-29T08:14:48Z</time>
      </trkpt>
      <trkpt lat="43.00928" lon="-0.20518">
        <ele>1152.4</ele>
        <time>2021-08-29T08:14:49Z</time>
      </trkpt>
      <trkpt lat="43.00928" lon="-0.20518">
        <ele>1152.6</ele>
        <time>2021-08-29T08:14:50Z</time>
      </trkpt>
      <trkpt lat="43.00929" lon="-0.20518">
        <ele>1152.8</ele>
        <time>2021-08-29T08:14:51Z</time>
      </trkpt>
      <trkpt lat="43.00929" lon="-0.20519">
        <ele>1153.2</ele>
        <time>2021-08-29T08:14:52Z</time>
      </trkpt>
      <trkpt lat="43.0093" lon="-0.20519">
        <ele>1153.4</ele>
        <time>2021-08-29T08:14:53Z</time>
      </trkpt>
      <trkpt lat="43.00931" lon="-0.20521">
        <ele>1153.6</ele>
        <time>2021-08-29T08:14:54Z</time>
      </trkpt>
      <trkpt lat="43.00932" lon="-0.20522">
        <ele>1153.6</ele>
        <time>2021-08-29T08:14:55Z</time>
      </trkpt>
      <trkpt lat="43.00934" lon="-0.20523">
        <ele>1154</ele>
        <time>2021-08-29T08:14:56Z</time>
      </trkpt>
      <trkpt lat="43.00935" lon="-0.20525">
        <ele>1154.2</ele>
        <time>2021-08-29T08:14:57Z</time>
      </trkpt>
      <trkpt lat="43.00935" lon="-0.20525">
        <ele>1154.4</ele>
        <time>2021-08-29T08:14:58Z</time>
      </trkpt>
      <trkpt lat="43.00935" lon="-0.20526">
        <ele>1154.6</ele>
        <time>2021-08-29T08:14:59Z</time>
      </trkpt>
      <trkpt lat="43.00935" lon="-0.20527">
        <ele>1154.8</ele>
        <time>2021-08-29T08:15:00Z</time>
      </trkpt>
      <trkpt lat="43.00935" lon="-0.20529">
        <ele>1154.8</ele>
        <time>2021-08-29T08:15:01Z</time>
      </trkpt>
      <trkpt lat="43.00935" lon="-0.2053">
        <ele>1155</ele>
        <time>2021-08-29T08:15:02Z</time>
      </trkpt>
      <trkpt lat="43.00935" lon="-0.20532">
        <ele>1155.2</ele>
        <time>2021-08-29T08:15:03Z</time>
      </trkpt>
      <trkpt lat="43.00935" lon="-0.20535">
        <ele>1155.4</ele>
        <time>2021-08-29T08:15:04Z</time>
      </trkpt>
      <trkpt lat="43.00936" lon="-0.20537">
        <ele>1155.4</ele>
        <time>2021-08-29T08:15:05Z</time>
      </trkpt>
      <trkpt lat="43.00937" lon="-0.2054">
        <ele>1155.6</ele>
        <time>2021-08-29T08:15:06Z</time>
      </trkpt>
      <trkpt lat="43.00937" lon="-0.2054">
        <ele>1155.8</ele>
        <time>2021-08-29T08:15:07Z</time>
      </trkpt>
      <trkpt lat="43.00937" lon="-0.20542">
        <ele>1156</ele>
        <time>2021-08-29T08:15:08Z</time>
      </trkpt>
      <trkpt lat="43.00938" lon="-0.20544">
        <ele>1156</ele>
        <time>2021-08-29T08:15:09Z</time>
      </trkpt>
      <trkpt lat="43.00939" lon="-0.20547">
        <ele>1156</ele>
        <time>2021-08-29T08:15:10Z</time>
      </trkpt>
      <trkpt lat="43.00939" lon="-0.20549">
        <ele>1156.2</ele>
        <time>2021-08-29T08:15:11Z</time>
      </trkpt>
      <trkpt lat="43.00939" lon="-0.20552">
        <ele>1156.2</ele>
        <time>2021-08-29T08:15:12Z</time>
      </trkpt>
      <trkpt lat="43.0094" lon="-0.20554">
        <ele>1156.4</ele>
        <time>2021-08-29T08:15:13Z</time>
      </trkpt>
      <trkpt lat="43.0094" lon="-0.20556">
        <ele>1156.4</ele>
        <time>2021-08-29T08:15:14Z</time>
      </trkpt>
      <trkpt lat="43.0094" lon="-0.20559">
        <ele>1156.6</ele>
        <time>2021-08-29T08:15:15Z</time>
      </trkpt>
      <trkpt lat="43.00941" lon="-0.20562">
        <ele>1156.6</ele>
        <time>2021-08-29T08:15:16Z</time>
      </trkpt>
      <trkpt lat="43.00941" lon="-0.20564">
        <ele>1156.8</ele>
        <time>2021-08-29T08:15:17Z</time>
      </trkpt>
      <trkpt lat="43.00941" lon="-0.20565">
        <ele>1156.8</ele>
        <time>2021-08-29T08:15:18Z</time>
      </trkpt>
      <trkpt lat="43.00941" lon="-0.20566">
        <ele>1157</ele>
        <time>2021-08-29T08:15:19Z</time>
      </trkpt>
      <trkpt lat="43.00941" lon="-0.20569">
        <ele>1157.2</ele>
        <time>2021-08-29T08:15:20Z</time>
      </trkpt>
      <trkpt lat="43.00941" lon="-0.20569">
        <ele>1157.4</ele>
        <time>2021-08-29T08:15:21Z</time>
      </trkpt>
      <trkpt lat="43.00942" lon="-0.2057">
        <ele>1157.4</ele>
        <time>2021-08-29T08:15:22Z</time>
      </trkpt>
      <trkpt lat="43.00944" lon="-0.20572">
        <ele>1157.6</ele>
        <time>2021-08-29T08:15:23Z</time>
      </trkpt>
      <trkpt lat="43.00945" lon="-0.20574">
        <ele>1157.8</ele>
        <time>2021-08-29T08:15:24Z</time>
      </trkpt>
      <trkpt lat="43.00945" lon="-0.20576">
        <ele>1158.2</ele>
        <time>2021-08-29T08:15:25Z</time>
      </trkpt>
      <trkpt lat="43.00944" lon="-0.20576">
        <ele>1158.4</ele>
        <time>2021-08-29T08:15:26Z</time>
      </trkpt>
      <trkpt lat="43.00944" lon="-0.20579">
        <ele>1158.4</ele>
        <time>2021-08-29T08:15:27Z</time>
      </trkpt>
      <trkpt lat="43.00944" lon="-0.20579">
        <ele>1158.6</ele>
        <time>2021-08-29T08:15:28Z</time>
      </trkpt>
      <trkpt lat="43.00944" lon="-0.20581">
        <ele>1159</ele>
        <time>2021-08-29T08:15:29Z</time>
      </trkpt>
      <trkpt lat="43.00943" lon="-0.20582">
        <ele>1159.2</ele>
        <time>2021-08-29T08:15:30Z</time>
      </trkpt>
      <trkpt lat="43.00943" lon="-0.20583">
        <ele>1159.4</ele>
        <time>2021-08-29T08:15:31Z</time>
      </trkpt>
      <trkpt lat="43.00942" lon="-0.20586">
        <ele>1159.4</ele>
        <time>2021-08-29T08:15:32Z</time>
      </trkpt>
      <trkpt lat="43.00941" lon="-0.20589">
        <ele>1159.6</ele>
        <time>2021-08-29T08:15:33Z</time>
      </trkpt>
      <trkpt lat="43.00941" lon="-0.20592">
        <ele>1159.8</ele>
        <time>2021-08-29T08:15:34Z</time>
      </trkpt>
      <trkpt lat="43.00943" lon="-0.20597">
        <ele>1159.8</ele>
        <time>2021-08-29T08:15:35Z</time>
      </trkpt>
      <trkpt lat="43.00945" lon="-0.20599">
        <ele>1160</ele>
        <time>2021-08-29T08:15:36Z</time>
      </trkpt>
      <trkpt lat="43.00945" lon="-0.20599">
        <ele>1160.2</ele>
        <time>2021-08-29T08:15:37Z</time>
      </trkpt>
      <trkpt lat="43.00946" lon="-0.206">
        <ele>1160.4</ele>
        <time>2021-08-29T08:15:38Z</time>
      </trkpt>
      <trkpt lat="43.00947" lon="-0.20603">
        <ele>1160.4</ele>
        <time>2021-08-29T08:15:39Z</time>
      </trkpt>
      <trkpt lat="43.00947" lon="-0.20603">
        <ele>1160.6</ele>
        <time>2021-08-29T08:15:40Z</time>
      </trkpt>
      <trkpt lat="43.00946" lon="-0.20605">
        <ele>1160.8</ele>
        <time>2021-08-29T08:15:41Z</time>
      </trkpt>
      <trkpt lat="43.00947" lon="-0.20607">
        <ele>1161.2</ele>
        <time>2021-08-29T08:15:42Z</time>
      </trkpt>
      <trkpt lat="43.00948" lon="-0.20609">
        <ele>1161.2</ele>
        <time>2021-08-29T08:15:43Z</time>
      </trkpt>
      <trkpt lat="43.00948" lon="-0.20611">
        <ele>1161.6</ele>
        <time>2021-08-29T08:15:44Z</time>
      </trkpt>
      <trkpt lat="43.00949" lon="-0.20614">
        <ele>1161.8</ele>
        <time>2021-08-29T08:15:45Z</time>
      </trkpt>
      <trkpt lat="43.00948" lon="-0.20616">
        <ele>1161.8</ele>
        <time>2021-08-29T08:15:46Z</time>
      </trkpt>
      <trkpt lat="43.00948" lon="-0.20617">
        <ele>1162</ele>
        <time>2021-08-29T08:15:47Z</time>
      </trkpt>
      <trkpt lat="43.00949" lon="-0.20619">
        <ele>1162</ele>
        <time>2021-08-29T08:15:48Z</time>
      </trkpt>
      <trkpt lat="43.00948" lon="-0.20621">
        <ele>1162.2</ele>
        <time>2021-08-29T08:15:49Z</time>
      </trkpt>
      <trkpt lat="43.00948" lon="-0.20623">
        <ele>1162.2</ele>
        <time>2021-08-29T08:15:50Z</time>
      </trkpt>
      <trkpt lat="43.00948" lon="-0.20625">
        <ele>1162.2</ele>
        <time>2021-08-29T08:15:51Z</time>
      </trkpt>
      <trkpt lat="43.00948" lon="-0.20627">
        <ele>1162.2</ele>
        <time>2021-08-29T08:15:52Z</time>
      </trkpt>
      <trkpt lat="43.00947" lon="-0.20629">
        <ele>1162.6</ele>
        <time>2021-08-29T08:15:53Z</time>
      </trkpt>
      <trkpt lat="43.00947" lon="-0.2063">
        <ele>1162.6</ele>
        <time>2021-08-29T08:15:54Z</time>
      </trkpt>
      <trkpt lat="43.00946" lon="-0.20631">
        <ele>1162.8</ele>
        <time>2021-08-29T08:15:55Z</time>
      </trkpt>
      <trkpt lat="43.00946" lon="-0.20633">
        <ele>1163</ele>
        <time>2021-08-29T08:15:56Z</time>
      </trkpt>
      <trkpt lat="43.00946" lon="-0.20634">
        <ele>1163.2</ele>
        <time>2021-08-29T08:15:57Z</time>
      </trkpt>
      <trkpt lat="43.00945" lon="-0.20636">
        <ele>1163.2</ele>
        <time>2021-08-29T08:15:58Z</time>
      </trkpt>
      <trkpt lat="43.00945" lon="-0.20638">
        <ele>1163.2</ele>
        <time>2021-08-29T08:15:59Z</time>
      </trkpt>
      <trkpt lat="43.00945" lon="-0.20641">
        <ele>1163.4</ele>
        <time>2021-08-29T08:16:00Z</time>
      </trkpt>
      <trkpt lat="43.00944" lon="-0.20643">
        <ele>1163.6</ele>
        <time>2021-08-29T08:16:01Z</time>
      </trkpt>
      <trkpt lat="43.00943" lon="-0.20645">
        <ele>1163.6</ele>
        <time>2021-08-29T08:16:02Z</time>
      </trkpt>
      <trkpt lat="43.00943" lon="-0.20647">
        <ele>1163.8</ele>
        <time>2021-08-29T08:16:03Z</time>
      </trkpt>
      <trkpt lat="43.00944" lon="-0.20649">
        <ele>1164</ele>
        <time>2021-08-29T08:16:04Z</time>
      </trkpt>
      <trkpt lat="43.00944" lon="-0.20651">
        <ele>1164</ele>
        <time>2021-08-29T08:16:05Z</time>
      </trkpt>
      <trkpt lat="43.00943" lon="-0.20654">
        <ele>1164.4</ele>
        <time>2021-08-29T08:16:06Z</time>
      </trkpt>
      <trkpt lat="43.00943" lon="-0.20656">
        <ele>1164.4</ele>
        <time>2021-08-29T08:16:07Z</time>
      </trkpt>
      <trkpt lat="43.00943" lon="-0.20658">
        <ele>1164.6</ele>
        <time>2021-08-29T08:16:08Z</time>
      </trkpt>
      <trkpt lat="43.00944" lon="-0.20659">
        <ele>1164.6</ele>
        <time>2021-08-29T08:16:09Z</time>
      </trkpt>
      <trkpt lat="43.00944" lon="-0.20661">
        <ele>1165</ele>
        <time>2021-08-29T08:16:10Z</time>
      </trkpt>
      <trkpt lat="43.00945" lon="-0.20663">
        <ele>1165</ele>
        <time>2021-08-29T08:16:11Z</time>
      </trkpt>
      <trkpt lat="43.00945" lon="-0.20664">
        <ele>1165.2</ele>
        <time>2021-08-29T08:16:12Z</time>
      </trkpt>
      <trkpt lat="43.00945" lon="-0.20664">
        <ele>1165.2</ele>
        <time>2021-08-29T08:16:13Z</time>
      </trkpt>
      <trkpt lat="43.00946" lon="-0.20665">
        <ele>1165.2</ele>
        <time>2021-08-29T08:16:14Z</time>
      </trkpt>
      <trkpt lat="43.00946" lon="-0.20666">
        <ele>1165.2</ele>
        <time>2021-08-29T08:16:15Z</time>
      </trkpt>
      <trkpt lat="43.00947" lon="-0.20667">
        <ele>1165.8</ele>
        <time>2021-08-29T08:16:16Z</time>
      </trkpt>
      <trkpt lat="43.00948" lon="-0.20667">
        <ele>1165.8</ele>
        <time>2021-08-29T08:16:17Z</time>
      </trkpt>
      <trkpt lat="43.00948" lon="-0.20667">
        <ele>1166</ele>
        <time>2021-08-29T08:16:18Z</time>
      </trkpt>
      <trkpt lat="43.00948" lon="-0.20667">
        <ele>1166.2</ele>
        <time>2021-08-29T08:16:19Z</time>
      </trkpt>
      <trkpt lat="43.00948" lon="-0.20667">
        <ele>1166.2</ele>
        <time>2021-08-29T08:16:20Z</time>
      </trkpt>
      <trkpt lat="43.00948" lon="-0.20667">
        <ele>1166.4</ele>
        <time>2021-08-29T08:16:21Z</time>
      </trkpt>
      <trkpt lat="43.00948" lon="-0.20667">
        <ele>1166.6</ele>
        <time>2021-08-29T08:16:22Z</time>
      </trkpt>
      <trkpt lat="43.00948" lon="-0.20667">
        <ele>1167</ele>
        <time>2021-08-29T08:16:23Z</time>
      </trkpt>
      <trkpt lat="43.00949" lon="-0.20668">
        <ele>1167</ele>
        <time>2021-08-29T08:16:24Z</time>
      </trkpt>
      <trkpt lat="43.0095" lon="-0.20671">
        <ele>1167.4</ele>
        <time>2021-08-29T08:16:25Z</time>
      </trkpt>
      <trkpt lat="43.00951" lon="-0.20674">
        <ele>1167.4</ele>
        <time>2021-08-29T08:16:26Z</time>
      </trkpt>
      <trkpt lat="43.00952" lon="-0.20677">
        <ele>1167.4</ele>
        <time>2021-08-29T08:16:27Z</time>
      </trkpt>
      <trkpt lat="43.00952" lon="-0.20678">
        <ele>1167.4</ele>
        <time>2021-08-29T08:16:28Z</time>
      </trkpt>
      <trkpt lat="43.00954" lon="-0.2068">
        <ele>1167.6</ele>
        <time>2021-08-29T08:16:29Z</time>
      </trkpt>
      <trkpt lat="43.00955" lon="-0.20682">
        <ele>1167.8</ele>
        <time>2021-08-29T08:16:30Z</time>
      </trkpt>
      <trkpt lat="43.00957" lon="-0.20684">
        <ele>1168</ele>
        <time>2021-08-29T08:16:31Z</time>
      </trkpt>
      <trkpt lat="43.00958" lon="-0.20685">
        <ele>1168</ele>
        <time>2021-08-29T08:16:32Z</time>
      </trkpt>
      <trkpt lat="43.00958" lon="-0.20686">
        <ele>1168.2</ele>
        <time>2021-08-29T08:16:33Z</time>
      </trkpt>
      <trkpt lat="43.00958" lon="-0.20688">
        <ele>1168.4</ele>
        <time>2021-08-29T08:16:34Z</time>
      </trkpt>
      <trkpt lat="43.00959" lon="-0.20689">
        <ele>1168.4</ele>
        <time>2021-08-29T08:16:35Z</time>
      </trkpt>
      <trkpt lat="43.00959" lon="-0.2069">
        <ele>1168.6</ele>
        <time>2021-08-29T08:16:36Z</time>
      </trkpt>
      <trkpt lat="43.0096" lon="-0.20691">
        <ele>1169</ele>
        <time>2021-08-29T08:16:37Z</time>
      </trkpt>
      <trkpt lat="43.00961" lon="-0.20693">
        <ele>1169</ele>
        <time>2021-08-29T08:16:38Z</time>
      </trkpt>
      <trkpt lat="43.00963" lon="-0.20696">
        <ele>1169.2</ele>
        <time>2021-08-29T08:16:39Z</time>
      </trkpt>
      <trkpt lat="43.00965" lon="-0.20699">
        <ele>1169.4</ele>
        <time>2021-08-29T08:16:40Z</time>
      </trkpt>
      <trkpt lat="43.00967" lon="-0.20702">
        <ele>1169.4</ele>
        <time>2021-08-29T08:16:41Z</time>
      </trkpt>
      <trkpt lat="43.00969" lon="-0.20705">
        <ele>1169.6</ele>
        <time>2021-08-29T08:16:42Z</time>
      </trkpt>
      <trkpt lat="43.00969" lon="-0.20706">
        <ele>1169.6</ele>
        <time>2021-08-29T08:16:43Z</time>
      </trkpt>
      <trkpt lat="43.00969" lon="-0.20706">
        <ele>1169.8</ele>
        <time>2021-08-29T08:16:44Z</time>
      </trkpt>
      <trkpt lat="43.00969" lon="-0.20706">
        <ele>1169.8</ele>
        <time>2021-08-29T08:16:45Z</time>
      </trkpt>
      <trkpt lat="43.00969" lon="-0.20706">
        <ele>1170</ele>
        <time>2021-08-29T08:16:46Z</time>
      </trkpt>
      <trkpt lat="43.0097" lon="-0.20707">
        <ele>1170</ele>
        <time>2021-08-29T08:16:48Z</time>
      </trkpt>
      <trkpt lat="43.0097" lon="-0.20709">
        <ele>1170.4</ele>
        <time>2021-08-29T08:16:51Z</time>
      </trkpt>
      <trkpt lat="43.0097" lon="-0.20711">
        <ele>1170.6</ele>
        <time>2021-08-29T08:16:52Z</time>
      </trkpt>
      <trkpt lat="43.0097" lon="-0.20712">
        <ele>1170.8</ele>
        <time>2021-08-29T08:16:53Z</time>
      </trkpt>
      <trkpt lat="43.00972" lon="-0.20715">
        <ele>1171</ele>
        <time>2021-08-29T08:16:54Z</time>
      </trkpt>
      <trkpt lat="43.00974" lon="-0.2072">
        <ele>1171.2</ele>
        <time>2021-08-29T08:16:55Z</time>
      </trkpt>
      <trkpt lat="43.00976" lon="-0.20723">
        <ele>1171.4</ele>
        <time>2021-08-29T08:16:56Z</time>
      </trkpt>
      <trkpt lat="43.00976" lon="-0.20724">
        <ele>1171.4</ele>
        <time>2021-08-29T08:16:57Z</time>
      </trkpt>
      <trkpt lat="43.00977" lon="-0.20728">
        <ele>1171.8</ele>
        <time>2021-08-29T08:16:58Z</time>
      </trkpt>
      <trkpt lat="43.00978" lon="-0.20729">
        <ele>1172</ele>
        <time>2021-08-29T08:16:59Z</time>
      </trkpt>
      <trkpt lat="43.00977" lon="-0.20732">
        <ele>1172.2</ele>
        <time>2021-08-29T08:17:00Z</time>
      </trkpt>
      <trkpt lat="43.00978" lon="-0.20732">
        <ele>1172.4</ele>
        <time>2021-08-29T08:17:01Z</time>
      </trkpt>
      <trkpt lat="43.00977" lon="-0.20734">
        <ele>1172.6</ele>
        <time>2021-08-29T08:17:02Z</time>
      </trkpt>
      <trkpt lat="43.00977" lon="-0.20737">
        <ele>1172.8</ele>
        <time>2021-08-29T08:17:03Z</time>
      </trkpt>
      <trkpt lat="43.00978" lon="-0.20737">
        <ele>1172.8</ele>
        <time>2021-08-29T08:17:04Z</time>
      </trkpt>
      <trkpt lat="43.00978" lon="-0.20739">
        <ele>1173</ele>
        <time>2021-08-29T08:17:05Z</time>
      </trkpt>
      <trkpt lat="43.00978" lon="-0.20742">
        <ele>1173</ele>
        <time>2021-08-29T08:17:06Z</time>
      </trkpt>
      <trkpt lat="43.00978" lon="-0.20742">
        <ele>1173.4</ele>
        <time>2021-08-29T08:17:07Z</time>
      </trkpt>
      <trkpt lat="43.00979" lon="-0.20745">
        <ele>1173.4</ele>
        <time>2021-08-29T08:17:08Z</time>
      </trkpt>
      <trkpt lat="43.00978" lon="-0.20747">
        <ele>1173.8</ele>
        <time>2021-08-29T08:17:09Z</time>
      </trkpt>
      <trkpt lat="43.00979" lon="-0.2075">
        <ele>1174</ele>
        <time>2021-08-29T08:17:10Z</time>
      </trkpt>
      <trkpt lat="43.00981" lon="-0.20754">
        <ele>1174.2</ele>
        <time>2021-08-29T08:17:11Z</time>
      </trkpt>
      <trkpt lat="43.00982" lon="-0.20756">
        <ele>1174.2</ele>
        <time>2021-08-29T08:17:12Z</time>
      </trkpt>
      <trkpt lat="43.00981" lon="-0.20758">
        <ele>1174.6</ele>
        <time>2021-08-29T08:17:13Z</time>
      </trkpt>
      <trkpt lat="43.00981" lon="-0.2076">
        <ele>1174.6</ele>
        <time>2021-08-29T08:17:14Z</time>
      </trkpt>
      <trkpt lat="43.00981" lon="-0.20762">
        <ele>1174.8</ele>
        <time>2021-08-29T08:17:15Z</time>
      </trkpt>
      <trkpt lat="43.00983" lon="-0.20765">
        <ele>1174.8</ele>
        <time>2021-08-29T08:17:16Z</time>
      </trkpt>
      <trkpt lat="43.00983" lon="-0.20768">
        <ele>1174.8</ele>
        <time>2021-08-29T08:17:17Z</time>
      </trkpt>
      <trkpt lat="43.00983" lon="-0.20769">
        <ele>1175.2</ele>
        <time>2021-08-29T08:17:18Z</time>
      </trkpt>
      <trkpt lat="43.00983" lon="-0.20772">
        <ele>1175.2</ele>
        <time>2021-08-29T08:17:19Z</time>
      </trkpt>
      <trkpt lat="43.00983" lon="-0.20775">
        <ele>1175.6</ele>
        <time>2021-08-29T08:17:20Z</time>
      </trkpt>
      <trkpt lat="43.00983" lon="-0.20778">
        <ele>1175.6</ele>
        <time>2021-08-29T08:17:21Z</time>
      </trkpt>
      <trkpt lat="43.00983" lon="-0.20781">
        <ele>1175.8</ele>
        <time>2021-08-29T08:17:22Z</time>
      </trkpt>
      <trkpt lat="43.00983" lon="-0.20784">
        <ele>1175.8</ele>
        <time>2021-08-29T08:17:23Z</time>
      </trkpt>
      <trkpt lat="43.00983" lon="-0.20786">
        <ele>1176</ele>
        <time>2021-08-29T08:17:24Z</time>
      </trkpt>
      <trkpt lat="43.00983" lon="-0.20786">
        <ele>1176</ele>
        <time>2021-08-29T08:17:25Z</time>
      </trkpt>
      <trkpt lat="43.00984" lon="-0.20786">
        <ele>1176.2</ele>
        <time>2021-08-29T08:17:26Z</time>
      </trkpt>
      <trkpt lat="43.00984" lon="-0.20786">
        <ele>1176.2</ele>
        <time>2021-08-29T08:17:27Z</time>
      </trkpt>
      <trkpt lat="43.00985" lon="-0.20788">
        <ele>1176.4</ele>
        <time>2021-08-29T08:17:28Z</time>
      </trkpt>
      <trkpt lat="43.00985" lon="-0.2079">
        <ele>1176.4</ele>
        <time>2021-08-29T08:17:29Z</time>
      </trkpt>
      <trkpt lat="43.00985" lon="-0.20791">
        <ele>1176.6</ele>
        <time>2021-08-29T08:17:30Z</time>
      </trkpt>
      <trkpt lat="43.00986" lon="-0.20792">
        <ele>1176.6</ele>
        <time>2021-08-29T08:17:31Z</time>
      </trkpt>
      <trkpt lat="43.00987" lon="-0.20794">
        <ele>1176.8</ele>
        <time>2021-08-29T08:17:32Z</time>
      </trkpt>
      <trkpt lat="43.00988" lon="-0.20795">
        <ele>1176.8</ele>
        <time>2021-08-29T08:17:33Z</time>
      </trkpt>
      <trkpt lat="43.00988" lon="-0.20796">
        <ele>1176.8</ele>
        <time>2021-08-29T08:17:34Z</time>
      </trkpt>
      <trkpt lat="43.00989" lon="-0.20797">
        <ele>1176.8</ele>
        <time>2021-08-29T08:17:35Z</time>
      </trkpt>
      <trkpt lat="43.00989" lon="-0.20798">
        <ele>1176.8</ele>
        <time>2021-08-29T08:17:36Z</time>
      </trkpt>
      <trkpt lat="43.00989" lon="-0.20798">
        <ele>1177</ele>
        <time>2021-08-29T08:17:37Z</time>
      </trkpt>
      <trkpt lat="43.00989" lon="-0.20798">
        <ele>1177</ele>
        <time>2021-08-29T08:17:38Z</time>
      </trkpt>
      <trkpt lat="43.00989" lon="-0.20798">
        <ele>1177</ele>
        <time>2021-08-29T08:17:39Z</time>
      </trkpt>
      <trkpt lat="43.0099" lon="-0.20799">
        <ele>1177.2</ele>
        <time>2021-08-29T08:17:40Z</time>
      </trkpt>
      <trkpt lat="43.0099" lon="-0.208">
        <ele>1177.4</ele>
        <time>2021-08-29T08:17:41Z</time>
      </trkpt>
      <trkpt lat="43.0099" lon="-0.20801">
        <ele>1177.6</ele>
        <time>2021-08-29T08:17:42Z</time>
      </trkpt>
      <trkpt lat="43.00991" lon="-0.20802">
        <ele>1177.6</ele>
        <time>2021-08-29T08:17:43Z</time>
      </trkpt>
      <trkpt lat="43.00992" lon="-0.20804">
        <ele>1177.6</ele>
        <time>2021-08-29T08:17:44Z</time>
      </trkpt>
      <trkpt lat="43.00992" lon="-0.20806">
        <ele>1177.8</ele>
        <time>2021-08-29T08:17:45Z</time>
      </trkpt>
      <trkpt lat="43.00992" lon="-0.20806">
        <ele>1178</ele>
        <time>2021-08-29T08:17:46Z</time>
      </trkpt>
      <trkpt lat="43.00992" lon="-0.20806">
        <ele>1178</ele>
        <time>2021-08-29T08:17:47Z</time>
      </trkpt>
      <trkpt lat="43.00991" lon="-0.20809">
        <ele>1178.2</ele>
        <time>2021-08-29T08:17:48Z</time>
      </trkpt>
      <trkpt lat="43.00992" lon="-0.20812">
        <ele>1178.2</ele>
        <time>2021-08-29T08:17:49Z</time>
      </trkpt>
      <trkpt lat="43.00994" lon="-0.20814">
        <ele>1178.2</ele>
        <time>2021-08-29T08:17:50Z</time>
      </trkpt>
      <trkpt lat="43.00995" lon="-0.20816">
        <ele>1178.2</ele>
        <time>2021-08-29T08:17:51Z</time>
      </trkpt>
      <trkpt lat="43.00995" lon="-0.2082">
        <ele>1178.2</ele>
        <time>2021-08-29T08:17:52Z</time>
      </trkpt>
      <trkpt lat="43.00996" lon="-0.2082">
        <ele>1178.2</ele>
        <time>2021-08-29T08:17:53Z</time>
      </trkpt>
      <trkpt lat="43.00995" lon="-0.20823">
        <ele>1178.4</ele>
        <time>2021-08-29T08:17:54Z</time>
      </trkpt>
      <trkpt lat="43.00993" lon="-0.20827">
        <ele>1178.4</ele>
        <time>2021-08-29T08:17:55Z</time>
      </trkpt>
      <trkpt lat="43.00993" lon="-0.20829">
        <ele>1178.4</ele>
        <time>2021-08-29T08:17:56Z</time>
      </trkpt>
      <trkpt lat="43.00994" lon="-0.20831">
        <ele>1178.4</ele>
        <time>2021-08-29T08:17:57Z</time>
      </trkpt>
      <trkpt lat="43.00995" lon="-0.20833">
        <ele>1178.4</ele>
        <time>2021-08-29T08:17:58Z</time>
      </trkpt>
      <trkpt lat="43.00997" lon="-0.20835">
        <ele>1178.6</ele>
        <time>2021-08-29T08:17:59Z</time>
      </trkpt>
      <trkpt lat="43.00998" lon="-0.20837">
        <ele>1178.6</ele>
        <time>2021-08-29T08:18:00Z</time>
      </trkpt>
      <trkpt lat="43.00999" lon="-0.20839">
        <ele>1178.6</ele>
        <time>2021-08-29T08:18:01Z</time>
      </trkpt>
      <trkpt lat="43.01" lon="-0.20841">
        <ele>1178.8</ele>
        <time>2021-08-29T08:18:02Z</time>
      </trkpt>
      <trkpt lat="43.01001" lon="-0.20844">
        <ele>1179</ele>
        <time>2021-08-29T08:18:04Z</time>
      </trkpt>
      <trkpt lat="43.01001" lon="-0.20844">
        <ele>1179</ele>
        <time>2021-08-29T08:18:05Z</time>
      </trkpt>
      <trkpt lat="43.01001" lon="-0.20846">
        <ele>1179.4</ele>
        <time>2021-08-29T08:18:06Z</time>
      </trkpt>
      <trkpt lat="43.01001" lon="-0.20848">
        <ele>1179.6</ele>
        <time>2021-08-29T08:18:07Z</time>
      </trkpt>
      <trkpt lat="43.01001" lon="-0.20849">
        <ele>1179.8</ele>
        <time>2021-08-29T08:18:08Z</time>
      </trkpt>
      <trkpt lat="43.01003" lon="-0.2085">
        <ele>1180</ele>
        <time>2021-08-29T08:18:09Z</time>
      </trkpt>
      <trkpt lat="43.01005" lon="-0.20855">
        <ele>1180.2</ele>
        <time>2021-08-29T08:18:10Z</time>
      </trkpt>
      <trkpt lat="43.01006" lon="-0.20859">
        <ele>1180.2</ele>
        <time>2021-08-29T08:18:11Z</time>
      </trkpt>
      <trkpt lat="43.0101" lon="-0.20869">
        <ele>1181</ele>
        <time>2021-08-29T08:18:15Z</time>
      </trkpt>
      <trkpt lat="43.0101" lon="-0.2087">
        <ele>1181.2</ele>
        <time>2021-08-29T08:18:16Z</time>
      </trkpt>
      <trkpt lat="43.01009" lon="-0.20872">
        <ele>1181.2</ele>
        <time>2021-08-29T08:18:17Z</time>
      </trkpt>
      <trkpt lat="43.01007" lon="-0.20875">
        <ele>1181.4</ele>
        <time>2021-08-29T08:18:18Z</time>
      </trkpt>
      <trkpt lat="43.01005" lon="-0.20877">
        <ele>1181.4</ele>
        <time>2021-08-29T08:18:19Z</time>
      </trkpt>
      <trkpt lat="43.01004" lon="-0.20877">
        <ele>1181.6</ele>
        <time>2021-08-29T08:18:20Z</time>
      </trkpt>
      <trkpt lat="43.01004" lon="-0.20878">
        <ele>1181.6</ele>
        <time>2021-08-29T08:18:21Z</time>
      </trkpt>
      <trkpt lat="43.01004" lon="-0.20879">
        <ele>1181.6</ele>
        <time>2021-08-29T08:18:22Z</time>
      </trkpt>
      <trkpt lat="43.01004" lon="-0.20881">
        <ele>1181.8</ele>
        <time>2021-08-29T08:18:23Z</time>
      </trkpt>
      <trkpt lat="43.01004" lon="-0.20884">
        <ele>1181.8</ele>
        <time>2021-08-29T08:18:24Z</time>
      </trkpt>
      <trkpt lat="43.01005" lon="-0.20887">
        <ele>1182</ele>
        <time>2021-08-29T08:18:25Z</time>
      </trkpt>
      <trkpt lat="43.01005" lon="-0.20888">
        <ele>1182</ele>
        <time>2021-08-29T08:18:26Z</time>
      </trkpt>
      <trkpt lat="43.01006" lon="-0.20889">
        <ele>1182.4</ele>
        <time>2021-08-29T08:18:27Z</time>
      </trkpt>
      <trkpt lat="43.01006" lon="-0.20889">
        <ele>1182.4</ele>
        <time>2021-08-29T08:18:28Z</time>
      </trkpt>
      <trkpt lat="43.01006" lon="-0.2089">
        <ele>1182.8</ele>
        <time>2021-08-29T08:18:29Z</time>
      </trkpt>
      <trkpt lat="43.01007" lon="-0.20891">
        <ele>1183</ele>
        <time>2021-08-29T08:18:30Z</time>
      </trkpt>
      <trkpt lat="43.01007" lon="-0.20891">
        <ele>1183.2</ele>
        <time>2021-08-29T08:18:31Z</time>
      </trkpt>
      <trkpt lat="43.01007" lon="-0.20891">
        <ele>1183.4</ele>
        <time>2021-08-29T08:18:32Z</time>
      </trkpt>
      <trkpt lat="43.01007" lon="-0.20891">
        <ele>1183.6</ele>
        <time>2021-08-29T08:18:33Z</time>
      </trkpt>
      <trkpt lat="43.01007" lon="-0.20893">
        <ele>1183.6</ele>
        <time>2021-08-29T08:18:34Z</time>
      </trkpt>
      <trkpt lat="43.01007" lon="-0.20893">
        <ele>1183.8</ele>
        <time>2021-08-29T08:18:35Z</time>
      </trkpt>
      <trkpt lat="43.01007" lon="-0.20893">
        <ele>1184.2</ele>
        <time>2021-08-29T08:18:36Z</time>
      </trkpt>
      <trkpt lat="43.01007" lon="-0.20893">
        <ele>1184.2</ele>
        <time>2021-08-29T08:18:37Z</time>
      </trkpt>
      <trkpt lat="43.01008" lon="-0.20899">
        <ele>1184.6</ele>
        <time>2021-08-29T08:18:38Z</time>
      </trkpt>
      <trkpt lat="43.01008" lon="-0.20903">
        <ele>1184.6</ele>
        <time>2021-08-29T08:18:39Z</time>
      </trkpt>
      <trkpt lat="43.0101" lon="-0.20909">
        <ele>1185</ele>
        <time>2021-08-29T08:18:40Z</time>
      </trkpt>
      <trkpt lat="43.01011" lon="-0.20913">
        <ele>1185</ele>
        <time>2021-08-29T08:18:41Z</time>
      </trkpt>
      <trkpt lat="43.01012" lon="-0.20916">
        <ele>1185.2</ele>
        <time>2021-08-29T08:18:42Z</time>
      </trkpt>
      <trkpt lat="43.01013" lon="-0.20918">
        <ele>1185.4</ele>
        <time>2021-08-29T08:18:43Z</time>
      </trkpt>
      <trkpt lat="43.01015" lon="-0.20921">
        <ele>1185.6</ele>
        <time>2021-08-29T08:18:44Z</time>
      </trkpt>
      <trkpt lat="43.01016" lon="-0.20924">
        <ele>1185.6</ele>
        <time>2021-08-29T08:18:45Z</time>
      </trkpt>
      <trkpt lat="43.01017" lon="-0.20927">
        <ele>1186</ele>
        <time>2021-08-29T08:18:46Z</time>
      </trkpt>
      <trkpt lat="43.01018" lon="-0.20929">
        <ele>1186</ele>
        <time>2021-08-29T08:18:47Z</time>
      </trkpt>
      <trkpt lat="43.01017" lon="-0.20932">
        <ele>1186</ele>
        <time>2021-08-29T08:18:48Z</time>
      </trkpt>
      <trkpt lat="43.01013" lon="-0.20933">
        <ele>1186.2</ele>
        <time>2021-08-29T08:18:49Z</time>
      </trkpt>
      <trkpt lat="43.01012" lon="-0.20934">
        <ele>1186.4</ele>
        <time>2021-08-29T08:18:50Z</time>
      </trkpt>
      <trkpt lat="43.01013" lon="-0.20937">
        <ele>1186.4</ele>
        <time>2021-08-29T08:18:51Z</time>
      </trkpt>
      <trkpt lat="43.01013" lon="-0.20939">
        <ele>1186.6</ele>
        <time>2021-08-29T08:18:52Z</time>
      </trkpt>
      <trkpt lat="43.01015" lon="-0.2094">
        <ele>1186.8</ele>
        <time>2021-08-29T08:18:53Z</time>
      </trkpt>
      <trkpt lat="43.01016" lon="-0.20942">
        <ele>1186.8</ele>
        <time>2021-08-29T08:18:54Z</time>
      </trkpt>
      <trkpt lat="43.01017" lon="-0.20943">
        <ele>1186.8</ele>
        <time>2021-08-29T08:18:55Z</time>
      </trkpt>
      <trkpt lat="43.01018" lon="-0.20945">
        <ele>1187</ele>
        <time>2021-08-29T08:18:56Z</time>
      </trkpt>
      <trkpt lat="43.01019" lon="-0.20946">
        <ele>1187</ele>
        <time>2021-08-29T08:18:57Z</time>
      </trkpt>
      <trkpt lat="43.0102" lon="-0.20948">
        <ele>1187</ele>
        <time>2021-08-29T08:18:58Z</time>
      </trkpt>
      <trkpt lat="43.01021" lon="-0.2095">
        <ele>1187</ele>
        <time>2021-08-29T08:18:59Z</time>
      </trkpt>
      <trkpt lat="43.01023" lon="-0.20952">
        <ele>1187.2</ele>
        <time>2021-08-29T08:19:00Z</time>
      </trkpt>
      <trkpt lat="43.01024" lon="-0.20953">
        <ele>1187.2</ele>
        <time>2021-08-29T08:19:01Z</time>
      </trkpt>
      <trkpt lat="43.01024" lon="-0.20954">
        <ele>1187.2</ele>
        <time>2021-08-29T08:19:02Z</time>
      </trkpt>
      <trkpt lat="43.01025" lon="-0.20956">
        <ele>1187.4</ele>
        <time>2021-08-29T08:19:03Z</time>
      </trkpt>
      <trkpt lat="43.01026" lon="-0.20956">
        <ele>1187.4</ele>
        <time>2021-08-29T08:19:04Z</time>
      </trkpt>
      <trkpt lat="43.01026" lon="-0.20957">
        <ele>1187.4</ele>
        <time>2021-08-29T08:19:05Z</time>
      </trkpt>
      <trkpt lat="43.01027" lon="-0.20958">
        <ele>1187.4</ele>
        <time>2021-08-29T08:19:06Z</time>
      </trkpt>
      <trkpt lat="43.01028" lon="-0.2096">
        <ele>1187.6</ele>
        <time>2021-08-29T08:19:07Z</time>
      </trkpt>
      <trkpt lat="43.01029" lon="-0.20961">
        <ele>1187.6</ele>
        <time>2021-08-29T08:19:08Z</time>
      </trkpt>
      <trkpt lat="43.0103" lon="-0.20962">
        <ele>1187.8</ele>
        <time>2021-08-29T08:19:09Z</time>
      </trkpt>
      <trkpt lat="43.01031" lon="-0.20964">
        <ele>1187.8</ele>
        <time>2021-08-29T08:19:10Z</time>
      </trkpt>
      <trkpt lat="43.01032" lon="-0.20965">
        <ele>1188</ele>
        <time>2021-08-29T08:19:11Z</time>
      </trkpt>
      <trkpt lat="43.01033" lon="-0.20967">
        <ele>1188</ele>
        <time>2021-08-29T08:19:12Z</time>
      </trkpt>
      <trkpt lat="43.01034" lon="-0.20967">
        <ele>1187.8</ele>
        <time>2021-08-29T08:19:13Z</time>
      </trkpt>
      <trkpt lat="43.01035" lon="-0.20969">
        <ele>1188</ele>
        <time>2021-08-29T08:19:14Z</time>
      </trkpt>
      <trkpt lat="43.01038" lon="-0.20974">
        <ele>1188.4</ele>
        <time>2021-08-29T08:19:18Z</time>
      </trkpt>
      <trkpt lat="43.01038" lon="-0.20976">
        <ele>1188.4</ele>
        <time>2021-08-29T08:19:19Z</time>
      </trkpt>
      <trkpt lat="43.01038" lon="-0.20978">
        <ele>1188.6</ele>
        <time>2021-08-29T08:19:20Z</time>
      </trkpt>
      <trkpt lat="43.01039" lon="-0.2098">
        <ele>1188.6</ele>
        <time>2021-08-29T08:19:22Z</time>
      </trkpt>
      <trkpt lat="43.0104" lon="-0.20981">
        <ele>1188.6</ele>
        <time>2021-08-29T08:19:23Z</time>
      </trkpt>
      <trkpt lat="43.0104" lon="-0.20983">
        <ele>1188.8</ele>
        <time>2021-08-29T08:19:24Z</time>
      </trkpt>
      <trkpt lat="43.01042" lon="-0.20986">
        <ele>1188.8</ele>
        <time>2021-08-29T08:19:25Z</time>
      </trkpt>
      <trkpt lat="43.01043" lon="-0.20988">
        <ele>1189</ele>
        <time>2021-08-29T08:19:26Z</time>
      </trkpt>
      <trkpt lat="43.01044" lon="-0.2099">
        <ele>1189</ele>
        <time>2021-08-29T08:19:27Z</time>
      </trkpt>
      <trkpt lat="43.01045" lon="-0.20996">
        <ele>1189.4</ele>
        <time>2021-08-29T08:19:29Z</time>
      </trkpt>
      <trkpt lat="43.01045" lon="-0.20996">
        <ele>1189.4</ele>
        <time>2021-08-29T08:19:30Z</time>
      </trkpt>
      <trkpt lat="43.01045" lon="-0.20996">
        <ele>1189.6</ele>
        <time>2021-08-29T08:19:31Z</time>
      </trkpt>
      <trkpt lat="43.01045" lon="-0.20999">
        <ele>1189.8</ele>
        <time>2021-08-29T08:19:33Z</time>
      </trkpt>
      <trkpt lat="43.01046" lon="-0.21">
        <ele>1189.8</ele>
        <time>2021-08-29T08:19:34Z</time>
      </trkpt>
      <trkpt lat="43.0105" lon="-0.21004">
        <ele>1190</ele>
        <time>2021-08-29T08:19:35Z</time>
      </trkpt>
      <trkpt lat="43.01051" lon="-0.21008">
        <ele>1190.2</ele>
        <time>2021-08-29T08:19:36Z</time>
      </trkpt>
      <trkpt lat="43.0105" lon="-0.21011">
        <ele>1190.2</ele>
        <time>2021-08-29T08:19:37Z</time>
      </trkpt>
      <trkpt lat="43.01049" lon="-0.21014">
        <ele>1190.4</ele>
        <time>2021-08-29T08:19:38Z</time>
      </trkpt>
      <trkpt lat="43.01048" lon="-0.21017">
        <ele>1190.4</ele>
        <time>2021-08-29T08:19:39Z</time>
      </trkpt>
      <trkpt lat="43.01048" lon="-0.21018">
        <ele>1190.4</ele>
        <time>2021-08-29T08:19:40Z</time>
      </trkpt>
      <trkpt lat="43.0105" lon="-0.21023">
        <ele>1190.8</ele>
        <time>2021-08-29T08:19:42Z</time>
      </trkpt>
      <trkpt lat="43.0105" lon="-0.21025">
        <ele>1191</ele>
        <time>2021-08-29T08:19:43Z</time>
      </trkpt>
      <trkpt lat="43.0105" lon="-0.21028">
        <ele>1191.2</ele>
        <time>2021-08-29T08:19:44Z</time>
      </trkpt>
      <trkpt lat="43.0105" lon="-0.21031">
        <ele>1191.4</ele>
        <time>2021-08-29T08:19:45Z</time>
      </trkpt>
      <trkpt lat="43.0105" lon="-0.21033">
        <ele>1191.4</ele>
        <time>2021-08-29T08:19:46Z</time>
      </trkpt>
      <trkpt lat="43.01049" lon="-0.21035">
        <ele>1191.6</ele>
        <time>2021-08-29T08:19:47Z</time>
      </trkpt>
      <trkpt lat="43.01049" lon="-0.21036">
        <ele>1192</ele>
        <time>2021-08-29T08:19:48Z</time>
      </trkpt>
      <trkpt lat="43.01047" lon="-0.21036">
        <ele>1191.8</ele>
        <time>2021-08-29T08:19:49Z</time>
      </trkpt>
      <trkpt lat="43.01046" lon="-0.2104">
        <ele>1192.2</ele>
        <time>2021-08-29T08:19:50Z</time>
      </trkpt>
      <trkpt lat="43.01045" lon="-0.21042">
        <ele>1192.2</ele>
        <time>2021-08-29T08:19:51Z</time>
      </trkpt>
      <trkpt lat="43.01045" lon="-0.21043">
        <ele>1192.4</ele>
        <time>2021-08-29T08:19:52Z</time>
      </trkpt>
      <trkpt lat="43.01045" lon="-0.21045">
        <ele>1192.4</ele>
        <time>2021-08-29T08:19:53Z</time>
      </trkpt>
      <trkpt lat="43.01045" lon="-0.21046">
        <ele>1192.6</ele>
        <time>2021-08-29T08:19:54Z</time>
      </trkpt>
      <trkpt lat="43.01045" lon="-0.21048">
        <ele>1192.8</ele>
        <time>2021-08-29T08:19:55Z</time>
      </trkpt>
      <trkpt lat="43.01044" lon="-0.2105">
        <ele>1193</ele>
        <time>2021-08-29T08:19:56Z</time>
      </trkpt>
      <trkpt lat="43.01043" lon="-0.21051">
        <ele>1193.2</ele>
        <time>2021-08-29T08:19:57Z</time>
      </trkpt>
      <trkpt lat="43.01043" lon="-0.21053">
        <ele>1193.4</ele>
        <time>2021-08-29T08:19:58Z</time>
      </trkpt>
      <trkpt lat="43.01043" lon="-0.21055">
        <ele>1193.4</ele>
        <time>2021-08-29T08:19:59Z</time>
      </trkpt>
      <trkpt lat="43.01041" lon="-0.21056">
        <ele>1193.6</ele>
        <time>2021-08-29T08:20:00Z</time>
      </trkpt>
      <trkpt lat="43.0104" lon="-0.21058">
        <ele>1193.6</ele>
        <time>2021-08-29T08:20:01Z</time>
      </trkpt>
      <trkpt lat="43.01039" lon="-0.21059">
        <ele>1193.8</ele>
        <time>2021-08-29T08:20:02Z</time>
      </trkpt>
      <trkpt lat="43.01039" lon="-0.21062">
        <ele>1193.8</ele>
        <time>2021-08-29T08:20:03Z</time>
      </trkpt>
      <trkpt lat="43.01039" lon="-0.21064">
        <ele>1194</ele>
        <time>2021-08-29T08:20:04Z</time>
      </trkpt>
      <trkpt lat="43.0104" lon="-0.21066">
        <ele>1194.2</ele>
        <time>2021-08-29T08:20:05Z</time>
      </trkpt>
      <trkpt lat="43.0104" lon="-0.21068">
        <ele>1194.4</ele>
        <time>2021-08-29T08:20:06Z</time>
      </trkpt>
      <trkpt lat="43.0104" lon="-0.2107">
        <ele>1194.6</ele>
        <time>2021-08-29T08:20:07Z</time>
      </trkpt>
      <trkpt lat="43.0104" lon="-0.21072">
        <ele>1194.6</ele>
        <time>2021-08-29T08:20:08Z</time>
      </trkpt>
      <trkpt lat="43.0104" lon="-0.21074">
        <ele>1194.8</ele>
        <time>2021-08-29T08:20:09Z</time>
      </trkpt>
      <trkpt lat="43.0104" lon="-0.21076">
        <ele>1194.8</ele>
        <time>2021-08-29T08:20:10Z</time>
      </trkpt>
      <trkpt lat="43.0104" lon="-0.21078">
        <ele>1195</ele>
        <time>2021-08-29T08:20:11Z</time>
      </trkpt>
      <trkpt lat="43.0104" lon="-0.2108">
        <ele>1195</ele>
        <time>2021-08-29T08:20:12Z</time>
      </trkpt>
      <trkpt lat="43.0104" lon="-0.21082">
        <ele>1195</ele>
        <time>2021-08-29T08:20:13Z</time>
      </trkpt>
      <trkpt lat="43.0104" lon="-0.21084">
        <ele>1195</ele>
        <time>2021-08-29T08:20:14Z</time>
      </trkpt>
      <trkpt lat="43.0104" lon="-0.21085">
        <ele>1195.2</ele>
        <time>2021-08-29T08:20:15Z</time>
      </trkpt>
      <trkpt lat="43.01041" lon="-0.21087">
        <ele>1195.2</ele>
        <time>2021-08-29T08:20:16Z</time>
      </trkpt>
      <trkpt lat="43.01041" lon="-0.21088">
        <ele>1195.2</ele>
        <time>2021-08-29T08:20:17Z</time>
      </trkpt>
      <trkpt lat="43.01041" lon="-0.21089">
        <ele>1195.4</ele>
        <time>2021-08-29T08:20:18Z</time>
      </trkpt>
      <trkpt lat="43.01042" lon="-0.21092">
        <ele>1195.6</ele>
        <time>2021-08-29T08:20:19Z</time>
      </trkpt>
      <trkpt lat="43.01041" lon="-0.21093">
        <ele>1195.6</ele>
        <time>2021-08-29T08:20:20Z</time>
      </trkpt>
      <trkpt lat="43.0104" lon="-0.21096">
        <ele>1196</ele>
        <time>2021-08-29T08:20:21Z</time>
      </trkpt>
      <trkpt lat="43.0104" lon="-0.21098">
        <ele>1196</ele>
        <time>2021-08-29T08:20:22Z</time>
      </trkpt>
      <trkpt lat="43.0104" lon="-0.211">
        <ele>1196.2</ele>
        <time>2021-08-29T08:20:23Z</time>
      </trkpt>
      <trkpt lat="43.0104" lon="-0.21101">
        <ele>1196.4</ele>
        <time>2021-08-29T08:20:24Z</time>
      </trkpt>
      <trkpt lat="43.0104" lon="-0.21102">
        <ele>1196.6</ele>
        <time>2021-08-29T08:20:25Z</time>
      </trkpt>
      <trkpt lat="43.01041" lon="-0.21103">
        <ele>1196.8</ele>
        <time>2021-08-29T08:20:26Z</time>
      </trkpt>
      <trkpt lat="43.01042" lon="-0.21106">
        <ele>1196.8</ele>
        <time>2021-08-29T08:20:27Z</time>
      </trkpt>
      <trkpt lat="43.01043" lon="-0.21108">
        <ele>1197</ele>
        <time>2021-08-29T08:20:28Z</time>
      </trkpt>
      <trkpt lat="43.01043" lon="-0.2111">
        <ele>1197.2</ele>
        <time>2021-08-29T08:20:29Z</time>
      </trkpt>
      <trkpt lat="43.01044" lon="-0.2111">
        <ele>1197.4</ele>
        <time>2021-08-29T08:20:30Z</time>
      </trkpt>
      <trkpt lat="43.01044" lon="-0.2111">
        <ele>1197.4</ele>
        <time>2021-08-29T08:20:31Z</time>
      </trkpt>
      <trkpt lat="43.01044" lon="-0.21111">
        <ele>1197.6</ele>
        <time>2021-08-29T08:20:32Z</time>
      </trkpt>
      <trkpt lat="43.01044" lon="-0.21114">
        <ele>1197.6</ele>
        <time>2021-08-29T08:20:33Z</time>
      </trkpt>
      <trkpt lat="43.01045" lon="-0.21116">
        <ele>1197.8</ele>
        <time>2021-08-29T08:20:34Z</time>
      </trkpt>
      <trkpt lat="43.01045" lon="-0.21118">
        <ele>1197.8</ele>
        <time>2021-08-29T08:20:35Z</time>
      </trkpt>
      <trkpt lat="43.01045" lon="-0.21121">
        <ele>1198</ele>
        <time>2021-08-29T08:20:36Z</time>
      </trkpt>
      <trkpt lat="43.01046" lon="-0.21124">
        <ele>1198</ele>
        <time>2021-08-29T08:20:37Z</time>
      </trkpt>
      <trkpt lat="43.01046" lon="-0.21127">
        <ele>1198.2</ele>
        <time>2021-08-29T08:20:38Z</time>
      </trkpt>
      <trkpt lat="43.01046" lon="-0.2113">
        <ele>1198.4</ele>
        <time>2021-08-29T08:20:39Z</time>
      </trkpt>
      <trkpt lat="43.01045" lon="-0.21132">
        <ele>1198.6</ele>
        <time>2021-08-29T08:20:40Z</time>
      </trkpt>
      <trkpt lat="43.01046" lon="-0.21134">
        <ele>1198.6</ele>
        <time>2021-08-29T08:20:41Z</time>
      </trkpt>
      <trkpt lat="43.01045" lon="-0.21136">
        <ele>1199</ele>
        <time>2021-08-29T08:20:42Z</time>
      </trkpt>
      <trkpt lat="43.01045" lon="-0.21138">
        <ele>1199.2</ele>
        <time>2021-08-29T08:20:43Z</time>
      </trkpt>
      <trkpt lat="43.01046" lon="-0.2114">
        <ele>1199.4</ele>
        <time>2021-08-29T08:20:44Z</time>
      </trkpt>
      <trkpt lat="43.01046" lon="-0.21142">
        <ele>1199.6</ele>
        <time>2021-08-29T08:20:45Z</time>
      </trkpt>
      <trkpt lat="43.01046" lon="-0.21143">
        <ele>1199.8</ele>
        <time>2021-08-29T08:20:46Z</time>
      </trkpt>
      <trkpt lat="43.01046" lon="-0.21145">
        <ele>1200</ele>
        <time>2021-08-29T08:20:47Z</time>
      </trkpt>
      <trkpt lat="43.01045" lon="-0.21147">
        <ele>1200</ele>
        <time>2021-08-29T08:20:48Z</time>
      </trkpt>
      <trkpt lat="43.01045" lon="-0.21149">
        <ele>1200.2</ele>
        <time>2021-08-29T08:20:49Z</time>
      </trkpt>
      <trkpt lat="43.01044" lon="-0.21152">
        <ele>1200.4</ele>
        <time>2021-08-29T08:20:50Z</time>
      </trkpt>
      <trkpt lat="43.01044" lon="-0.21154">
        <ele>1200.6</ele>
        <time>2021-08-29T08:20:51Z</time>
      </trkpt>
      <trkpt lat="43.01044" lon="-0.21157">
        <ele>1200.6</ele>
        <time>2021-08-29T08:20:52Z</time>
      </trkpt>
      <trkpt lat="43.01044" lon="-0.2116">
        <ele>1200.8</ele>
        <time>2021-08-29T08:20:53Z</time>
      </trkpt>
      <trkpt lat="43.01044" lon="-0.21163">
        <ele>1200.8</ele>
        <time>2021-08-29T08:20:54Z</time>
      </trkpt>
      <trkpt lat="43.01044" lon="-0.21165">
        <ele>1201</ele>
        <time>2021-08-29T08:20:55Z</time>
      </trkpt>
      <trkpt lat="43.01044" lon="-0.21166">
        <ele>1201</ele>
        <time>2021-08-29T08:20:56Z</time>
      </trkpt>
      <trkpt lat="43.01045" lon="-0.21167">
        <ele>1201.4</ele>
        <time>2021-08-29T08:20:57Z</time>
      </trkpt>
      <trkpt lat="43.01045" lon="-0.21167">
        <ele>1201.4</ele>
        <time>2021-08-29T08:20:58Z</time>
      </trkpt>
      <trkpt lat="43.01046" lon="-0.21167">
        <ele>1201.8</ele>
        <time>2021-08-29T08:20:59Z</time>
      </trkpt>
      <trkpt lat="43.01046" lon="-0.21167">
        <ele>1202</ele>
        <time>2021-08-29T08:21:00Z</time>
      </trkpt>
      <trkpt lat="43.01047" lon="-0.21167">
        <ele>1202.2</ele>
        <time>2021-08-29T08:21:01Z</time>
      </trkpt>
      <trkpt lat="43.01048" lon="-0.21168">
        <ele>1202.4</ele>
        <time>2021-08-29T08:21:02Z</time>
      </trkpt>
      <trkpt lat="43.01048" lon="-0.21169">
        <ele>1202.8</ele>
        <time>2021-08-29T08:21:03Z</time>
      </trkpt>
      <trkpt lat="43.01049" lon="-0.21169">
        <ele>1202.8</ele>
        <time>2021-08-29T08:21:04Z</time>
      </trkpt>
      <trkpt lat="43.0105" lon="-0.2117">
        <ele>1202.6</ele>
        <time>2021-08-29T08:21:05Z</time>
      </trkpt>
      <trkpt lat="43.0105" lon="-0.2117">
        <ele>1202.8</ele>
        <time>2021-08-29T08:21:06Z</time>
      </trkpt>
      <trkpt lat="43.0105" lon="-0.2117">
        <ele>1202.8</ele>
        <time>2021-08-29T08:21:07Z</time>
      </trkpt>
      <trkpt lat="43.0105" lon="-0.21169">
        <ele>1202.8</ele>
        <time>2021-08-29T08:21:08Z</time>
      </trkpt>
      <trkpt lat="43.01049" lon="-0.21168">
        <ele>1202.8</ele>
        <time>2021-08-29T08:21:09Z</time>
      </trkpt>
      <trkpt lat="43.01048" lon="-0.21167">
        <ele>1203</ele>
        <time>2021-08-29T08:21:10Z</time>
      </trkpt>
      <trkpt lat="43.01047" lon="-0.21165">
        <ele>1203</ele>
        <time>2021-08-29T08:21:11Z</time>
      </trkpt>
      <trkpt lat="43.01047" lon="-0.21163">
        <ele>1203</ele>
        <time>2021-08-29T08:21:12Z</time>
      </trkpt>
      <trkpt lat="43.01047" lon="-0.21161">
        <ele>1203</ele>
        <time>2021-08-29T08:21:13Z</time>
      </trkpt>
      <trkpt lat="43.01049" lon="-0.21161">
        <ele>1203</ele>
        <time>2021-08-29T08:21:14Z</time>
      </trkpt>
      <trkpt lat="43.01049" lon="-0.2116">
        <ele>1203</ele>
        <time>2021-08-29T08:21:15Z</time>
      </trkpt>
      <trkpt lat="43.0105" lon="-0.2116">
        <ele>1203</ele>
        <time>2021-08-29T08:21:16Z</time>
      </trkpt>
      <trkpt lat="43.01051" lon="-0.21159">
        <ele>1203</ele>
        <time>2021-08-29T08:21:17Z</time>
      </trkpt>
      <trkpt lat="43.01051" lon="-0.21159">
        <ele>1203.2</ele>
        <time>2021-08-29T08:21:18Z</time>
      </trkpt>
      <trkpt lat="43.01051" lon="-0.21159">
        <ele>1203.2</ele>
        <time>2021-08-29T08:21:19Z</time>
      </trkpt>
      <trkpt lat="43.01051" lon="-0.21158">
        <ele>1203.4</ele>
        <time>2021-08-29T08:21:20Z</time>
      </trkpt>
      <trkpt lat="43.01051" lon="-0.21158">
        <ele>1203.4</ele>
        <time>2021-08-29T08:21:21Z</time>
      </trkpt>
      <trkpt lat="43.01051" lon="-0.21158">
        <ele>1203.6</ele>
        <time>2021-08-29T08:21:22Z</time>
      </trkpt>
      <trkpt lat="43.01052" lon="-0.21158">
        <ele>1203.6</ele>
        <time>2021-08-29T08:21:23Z</time>
      </trkpt>
      <trkpt lat="43.01053" lon="-0.21157">
        <ele>1203.8</ele>
        <time>2021-08-29T08:21:24Z</time>
      </trkpt>
      <trkpt lat="43.01054" lon="-0.21157">
        <ele>1204</ele>
        <time>2021-08-29T08:21:25Z</time>
      </trkpt>
      <trkpt lat="43.01054" lon="-0.21156">
        <ele>1204</ele>
        <time>2021-08-29T08:21:26Z</time>
      </trkpt>
      <trkpt lat="43.01055" lon="-0.21156">
        <ele>1204.2</ele>
        <time>2021-08-29T08:21:27Z</time>
      </trkpt>
      <trkpt lat="43.01056" lon="-0.21156">
        <ele>1204.2</ele>
        <time>2021-08-29T08:21:28Z</time>
      </trkpt>
      <trkpt lat="43.01057" lon="-0.21156">
        <ele>1204.4</ele>
        <time>2021-08-29T08:21:29Z</time>
      </trkpt>
      <trkpt lat="43.01057" lon="-0.21156">
        <ele>1204.4</ele>
        <time>2021-08-29T08:21:30Z</time>
      </trkpt>
      <trkpt lat="43.01059" lon="-0.21157">
        <ele>1204.8</ele>
        <time>2021-08-29T08:21:31Z</time>
      </trkpt>
      <trkpt lat="43.01061" lon="-0.21157">
        <ele>1204.8</ele>
        <time>2021-08-29T08:21:32Z</time>
      </trkpt>
      <trkpt lat="43.01062" lon="-0.21157">
        <ele>1205</ele>
        <time>2021-08-29T08:21:34Z</time>
      </trkpt>
      <trkpt lat="43.01063" lon="-0.21156">
        <ele>1205</ele>
        <time>2021-08-29T08:21:35Z</time>
      </trkpt>
      <trkpt lat="43.01063" lon="-0.21156">
        <ele>1205</ele>
        <time>2021-08-29T08:21:36Z</time>
      </trkpt>
      <trkpt lat="43.01064" lon="-0.21156">
        <ele>1205.2</ele>
        <time>2021-08-29T08:21:37Z</time>
      </trkpt>
      <trkpt lat="43.01065" lon="-0.21155">
        <ele>1205.2</ele>
        <time>2021-08-29T08:21:38Z</time>
      </trkpt>
      <trkpt lat="43.01066" lon="-0.21154">
        <ele>1205.6</ele>
        <time>2021-08-29T08:21:39Z</time>
      </trkpt>
      <trkpt lat="43.01067" lon="-0.21154">
        <ele>1205.6</ele>
        <time>2021-08-29T08:21:40Z</time>
      </trkpt>
      <trkpt lat="43.01068" lon="-0.21153">
        <ele>1206</ele>
        <time>2021-08-29T08:21:41Z</time>
      </trkpt>
      <trkpt lat="43.0107" lon="-0.21152">
        <ele>1206</ele>
        <time>2021-08-29T08:21:42Z</time>
      </trkpt>
      <trkpt lat="43.01071" lon="-0.21152">
        <ele>1206.2</ele>
        <time>2021-08-29T08:21:43Z</time>
      </trkpt>
      <trkpt lat="43.01071" lon="-0.21151">
        <ele>1206.6</ele>
        <time>2021-08-29T08:21:44Z</time>
      </trkpt>
      <trkpt lat="43.01071" lon="-0.21151">
        <ele>1206.8</ele>
        <time>2021-08-29T08:21:45Z</time>
      </trkpt>
      <trkpt lat="43.01071" lon="-0.21151">
        <ele>1207</ele>
        <time>2021-08-29T08:21:46Z</time>
      </trkpt>
      <trkpt lat="43.01072" lon="-0.2115">
        <ele>1207.2</ele>
        <time>2021-08-29T08:21:47Z</time>
      </trkpt>
      <trkpt lat="43.01074" lon="-0.2115">
        <ele>1207.4</ele>
        <time>2021-08-29T08:21:48Z</time>
      </trkpt>
      <trkpt lat="43.01074" lon="-0.2115">
        <ele>1207.6</ele>
        <time>2021-08-29T08:21:49Z</time>
      </trkpt>
      <trkpt lat="43.01075" lon="-0.21149">
        <ele>1208.4</ele>
        <time>2021-08-29T08:21:51Z</time>
      </trkpt>
      <trkpt lat="43.01075" lon="-0.21149">
        <ele>1208.8</ele>
        <time>2021-08-29T08:21:52Z</time>
      </trkpt>
      <trkpt lat="43.01077" lon="-0.21148">
        <ele>1208.8</ele>
        <time>2021-08-29T08:21:53Z</time>
      </trkpt>
      <trkpt lat="43.01081" lon="-0.21148">
        <ele>1209</ele>
        <time>2021-08-29T08:21:54Z</time>
      </trkpt>
      <trkpt lat="43.01084" lon="-0.2115">
        <ele>1209.2</ele>
        <time>2021-08-29T08:21:55Z</time>
      </trkpt>
      <trkpt lat="43.01087" lon="-0.21152">
        <ele>1209.4</ele>
        <time>2021-08-29T08:21:56Z</time>
      </trkpt>
      <trkpt lat="43.01089" lon="-0.21153">
        <ele>1209.6</ele>
        <time>2021-08-29T08:21:57Z</time>
      </trkpt>
      <trkpt lat="43.01091" lon="-0.21155">
        <ele>1209.8</ele>
        <time>2021-08-29T08:21:58Z</time>
      </trkpt>
      <trkpt lat="43.01093" lon="-0.21157">
        <ele>1209.8</ele>
        <time>2021-08-29T08:21:59Z</time>
      </trkpt>
      <trkpt lat="43.01095" lon="-0.21158">
        <ele>1210</ele>
        <time>2021-08-29T08:22:00Z</time>
      </trkpt>
      <trkpt lat="43.01097" lon="-0.21159">
        <ele>1210</ele>
        <time>2021-08-29T08:22:01Z</time>
      </trkpt>
      <trkpt lat="43.01097" lon="-0.2116">
        <ele>1210.2</ele>
        <time>2021-08-29T08:22:02Z</time>
      </trkpt>
      <trkpt lat="43.01098" lon="-0.21159">
        <ele>1210.4</ele>
        <time>2021-08-29T08:22:03Z</time>
      </trkpt>
      <trkpt lat="43.011" lon="-0.2116">
        <ele>1210.4</ele>
        <time>2021-08-29T08:22:04Z</time>
      </trkpt>
      <trkpt lat="43.01101" lon="-0.21161">
        <ele>1210.4</ele>
        <time>2021-08-29T08:22:05Z</time>
      </trkpt>
      <trkpt lat="43.01101" lon="-0.21161">
        <ele>1210.6</ele>
        <time>2021-08-29T08:22:06Z</time>
      </trkpt>
      <trkpt lat="43.01104" lon="-0.21163">
        <ele>1210.6</ele>
        <time>2021-08-29T08:22:07Z</time>
      </trkpt>
      <trkpt lat="43.01105" lon="-0.21163">
        <ele>1210.6</ele>
        <time>2021-08-29T08:22:08Z</time>
      </trkpt>
      <trkpt lat="43.01106" lon="-0.21164">
        <ele>1210.8</ele>
        <time>2021-08-29T08:22:09Z</time>
      </trkpt>
      <trkpt lat="43.01107" lon="-0.21165">
        <ele>1210.8</ele>
        <time>2021-08-29T08:22:10Z</time>
      </trkpt>
      <trkpt lat="43.0111" lon="-0.21168">
        <ele>1211.2</ele>
        <time>2021-08-29T08:22:12Z</time>
      </trkpt>
      <trkpt lat="43.01114" lon="-0.2117">
        <ele>1211.4</ele>
        <time>2021-08-29T08:22:13Z</time>
      </trkpt>
      <trkpt lat="43.01115" lon="-0.21172">
        <ele>1211.6</ele>
        <time>2021-08-29T08:22:14Z</time>
      </trkpt>
      <trkpt lat="43.01117" lon="-0.21173">
        <ele>1211.6</ele>
        <time>2021-08-29T08:22:15Z</time>
      </trkpt>
      <trkpt lat="43.01118" lon="-0.21174">
        <ele>1212</ele>
        <time>2021-08-29T08:22:16Z</time>
      </trkpt>
      <trkpt lat="43.01119" lon="-0.21175">
        <ele>1212.2</ele>
        <time>2021-08-29T08:22:17Z</time>
      </trkpt>
      <trkpt lat="43.0112" lon="-0.21175">
        <ele>1212.4</ele>
        <time>2021-08-29T08:22:18Z</time>
      </trkpt>
      <trkpt lat="43.01121" lon="-0.21176">
        <ele>1212.6</ele>
        <time>2021-08-29T08:22:19Z</time>
      </trkpt>
      <trkpt lat="43.01122" lon="-0.21177">
        <ele>1212.6</ele>
        <time>2021-08-29T08:22:20Z</time>
      </trkpt>
      <trkpt lat="43.01123" lon="-0.21178">
        <ele>1213</ele>
        <time>2021-08-29T08:22:21Z</time>
      </trkpt>
      <trkpt lat="43.01124" lon="-0.21179">
        <ele>1213.2</ele>
        <time>2021-08-29T08:22:22Z</time>
      </trkpt>
      <trkpt lat="43.01125" lon="-0.2118">
        <ele>1213.4</ele>
        <time>2021-08-29T08:22:23Z</time>
      </trkpt>
      <trkpt lat="43.01126" lon="-0.21182">
        <ele>1213.6</ele>
        <time>2021-08-29T08:22:24Z</time>
      </trkpt>
      <trkpt lat="43.01127" lon="-0.21183">
        <ele>1213.8</ele>
        <time>2021-08-29T08:22:25Z</time>
      </trkpt>
      <trkpt lat="43.01128" lon="-0.21184">
        <ele>1214.2</ele>
        <time>2021-08-29T08:22:26Z</time>
      </trkpt>
      <trkpt lat="43.01129" lon="-0.21186">
        <ele>1214.4</ele>
        <time>2021-08-29T08:22:27Z</time>
      </trkpt>
      <trkpt lat="43.0113" lon="-0.21188">
        <ele>1214.6</ele>
        <time>2021-08-29T08:22:28Z</time>
      </trkpt>
      <trkpt lat="43.0113" lon="-0.21189">
        <ele>1215</ele>
        <time>2021-08-29T08:22:29Z</time>
      </trkpt>
      <trkpt lat="43.01131" lon="-0.2119">
        <ele>1215.2</ele>
        <time>2021-08-29T08:22:30Z</time>
      </trkpt>
      <trkpt lat="43.01131" lon="-0.21191">
        <ele>1215.4</ele>
        <time>2021-08-29T08:22:31Z</time>
      </trkpt>
      <trkpt lat="43.01131" lon="-0.21192">
        <ele>1215.6</ele>
        <time>2021-08-29T08:22:32Z</time>
      </trkpt>
      <trkpt lat="43.01131" lon="-0.21193">
        <ele>1215.8</ele>
        <time>2021-08-29T08:22:33Z</time>
      </trkpt>
      <trkpt lat="43.0113" lon="-0.21194">
        <ele>1216</ele>
        <time>2021-08-29T08:22:34Z</time>
      </trkpt>
      <trkpt lat="43.01129" lon="-0.21194">
        <ele>1216.2</ele>
        <time>2021-08-29T08:22:35Z</time>
      </trkpt>
      <trkpt lat="43.01128" lon="-0.21194">
        <ele>1216.2</ele>
        <time>2021-08-29T08:22:36Z</time>
      </trkpt>
      <trkpt lat="43.01128" lon="-0.21195">
        <ele>1216.4</ele>
        <time>2021-08-29T08:22:37Z</time>
      </trkpt>
      <trkpt lat="43.01127" lon="-0.21194">
        <ele>1216.6</ele>
        <time>2021-08-29T08:22:38Z</time>
      </trkpt>
      <trkpt lat="43.01126" lon="-0.21193">
        <ele>1216.6</ele>
        <time>2021-08-29T08:22:39Z</time>
      </trkpt>
      <trkpt lat="43.01125" lon="-0.21193">
        <ele>1216.8</ele>
        <time>2021-08-29T08:22:40Z</time>
      </trkpt>
      <trkpt lat="43.01125" lon="-0.21192">
        <ele>1216.8</ele>
        <time>2021-08-29T08:22:41Z</time>
      </trkpt>
      <trkpt lat="43.01123" lon="-0.21191">
        <ele>1216.8</ele>
        <time>2021-08-29T08:22:42Z</time>
      </trkpt>
      <trkpt lat="43.01122" lon="-0.2119">
        <ele>1217</ele>
        <time>2021-08-29T08:22:43Z</time>
      </trkpt>
      <trkpt lat="43.01122" lon="-0.2119">
        <ele>1217</ele>
        <time>2021-08-29T08:22:44Z</time>
      </trkpt>
      <trkpt lat="43.01121" lon="-0.2119">
        <ele>1217.2</ele>
        <time>2021-08-29T08:22:45Z</time>
      </trkpt>
      <trkpt lat="43.01119" lon="-0.21189">
        <ele>1217.2</ele>
        <time>2021-08-29T08:22:46Z</time>
      </trkpt>
      <trkpt lat="43.01119" lon="-0.21189">
        <ele>1217.6</ele>
        <time>2021-08-29T08:22:47Z</time>
      </trkpt>
      <trkpt lat="43.01118" lon="-0.21189">
        <ele>1217.8</ele>
        <time>2021-08-29T08:22:48Z</time>
      </trkpt>
      <trkpt lat="43.01117" lon="-0.21189">
        <ele>1218.2</ele>
        <time>2021-08-29T08:22:49Z</time>
      </trkpt>
      <trkpt lat="43.01116" lon="-0.21189">
        <ele>1218.2</ele>
        <time>2021-08-29T08:22:50Z</time>
      </trkpt>
      <trkpt lat="43.01116" lon="-0.21189">
        <ele>1218.4</ele>
        <time>2021-08-29T08:22:52Z</time>
      </trkpt>
      <trkpt lat="43.01116" lon="-0.21189">
        <ele>1218.6</ele>
        <time>2021-08-29T08:22:55Z</time>
      </trkpt>
      <trkpt lat="43.01116" lon="-0.21189">
        <ele>1219</ele>
        <time>2021-08-29T08:23:03Z</time>
      </trkpt>
      <trkpt lat="43.01114" lon="-0.21187">
        <ele>1219.4</ele>
        <time>2021-08-29T08:23:38Z</time>
      </trkpt>
      <trkpt lat="43.01113" lon="-0.21186">
        <ele>1219.4</ele>
        <time>2021-08-29T08:23:39Z</time>
      </trkpt>
      <trkpt lat="43.01109" lon="-0.21186">
        <ele>1219.4</ele>
        <time>2021-08-29T08:23:41Z</time>
      </trkpt>
      <trkpt lat="43.01107" lon="-0.21185">
        <ele>1219.6</ele>
        <time>2021-08-29T08:23:42Z</time>
      </trkpt>
      <trkpt lat="43.01104" lon="-0.21183">
        <ele>1219.6</ele>
        <time>2021-08-29T08:23:45Z</time>
      </trkpt>
      <trkpt lat="43.01102" lon="-0.21183">
        <ele>1219.8</ele>
        <time>2021-08-29T08:23:46Z</time>
      </trkpt>
      <trkpt lat="43.01101" lon="-0.21182">
        <ele>1220</ele>
        <time>2021-08-29T08:23:47Z</time>
      </trkpt>
      <trkpt lat="43.01093" lon="-0.2118">
        <ele>1220.6</ele>
        <time>2021-08-29T08:23:53Z</time>
      </trkpt>
      <trkpt lat="43.01092" lon="-0.2118">
        <ele>1220.8</ele>
        <time>2021-08-29T08:23:54Z</time>
      </trkpt>
      <trkpt lat="43.0109" lon="-0.2118">
        <ele>1220.8</ele>
        <time>2021-08-29T08:23:55Z</time>
      </trkpt>
      <trkpt lat="43.01089" lon="-0.21181">
        <ele>1221</ele>
        <time>2021-08-29T08:23:56Z</time>
      </trkpt>
      <trkpt lat="43.01088" lon="-0.21181">
        <ele>1221.2</ele>
        <time>2021-08-29T08:23:57Z</time>
      </trkpt>
      <trkpt lat="43.01085" lon="-0.21182">
        <ele>1221.6</ele>
        <time>2021-08-29T08:23:59Z</time>
      </trkpt>
      <trkpt lat="43.01084" lon="-0.21183">
        <ele>1221.6</ele>
        <time>2021-08-29T08:24:00Z</time>
      </trkpt>
      <trkpt lat="43.01083" lon="-0.21183">
        <ele>1222</ele>
        <time>2021-08-29T08:24:01Z</time>
      </trkpt>
      <trkpt lat="43.01082" lon="-0.21184">
        <ele>1222</ele>
        <time>2021-08-29T08:24:02Z</time>
      </trkpt>
      <trkpt lat="43.01081" lon="-0.21185">
        <ele>1222.2</ele>
        <time>2021-08-29T08:24:03Z</time>
      </trkpt>
      <trkpt lat="43.01081" lon="-0.21186">
        <ele>1222.2</ele>
        <time>2021-08-29T08:24:04Z</time>
      </trkpt>
      <trkpt lat="43.01081" lon="-0.21187">
        <ele>1222.4</ele>
        <time>2021-08-29T08:24:05Z</time>
      </trkpt>
      <trkpt lat="43.0108" lon="-0.21188">
        <ele>1222.4</ele>
        <time>2021-08-29T08:24:06Z</time>
      </trkpt>
      <trkpt lat="43.01079" lon="-0.21189">
        <ele>1222.6</ele>
        <time>2021-08-29T08:24:07Z</time>
      </trkpt>
      <trkpt lat="43.01078" lon="-0.2119">
        <ele>1222.8</ele>
        <time>2021-08-29T08:24:08Z</time>
      </trkpt>
      <trkpt lat="43.01077" lon="-0.21191">
        <ele>1223</ele>
        <time>2021-08-29T08:24:09Z</time>
      </trkpt>
      <trkpt lat="43.01076" lon="-0.21193">
        <ele>1223.2</ele>
        <time>2021-08-29T08:24:10Z</time>
      </trkpt>
      <trkpt lat="43.01075" lon="-0.21195">
        <ele>1223.4</ele>
        <time>2021-08-29T08:24:11Z</time>
      </trkpt>
      <trkpt lat="43.01075" lon="-0.21196">
        <ele>1223.4</ele>
        <time>2021-08-29T08:24:12Z</time>
      </trkpt>
      <trkpt lat="43.01074" lon="-0.21198">
        <ele>1223.6</ele>
        <time>2021-08-29T08:24:13Z</time>
      </trkpt>
      <trkpt lat="43.01073" lon="-0.21199">
        <ele>1223.6</ele>
        <time>2021-08-29T08:24:14Z</time>
      </trkpt>
      <trkpt lat="43.01072" lon="-0.212">
        <ele>1223.8</ele>
        <time>2021-08-29T08:24:15Z</time>
      </trkpt>
      <trkpt lat="43.01071" lon="-0.21202">
        <ele>1224</ele>
        <time>2021-08-29T08:24:16Z</time>
      </trkpt>
      <trkpt lat="43.01069" lon="-0.21203">
        <ele>1224</ele>
        <time>2021-08-29T08:24:17Z</time>
      </trkpt>
      <trkpt lat="43.01069" lon="-0.21204">
        <ele>1224.2</ele>
        <time>2021-08-29T08:24:18Z</time>
      </trkpt>
      <trkpt lat="43.01068" lon="-0.21205">
        <ele>1224.4</ele>
        <time>2021-08-29T08:24:19Z</time>
      </trkpt>
      <trkpt lat="43.01067" lon="-0.21207">
        <ele>1224.6</ele>
        <time>2021-08-29T08:24:20Z</time>
      </trkpt>
      <trkpt lat="43.01066" lon="-0.21208">
        <ele>1224.8</ele>
        <time>2021-08-29T08:24:21Z</time>
      </trkpt>
      <trkpt lat="43.01065" lon="-0.2121">
        <ele>1225</ele>
        <time>2021-08-29T08:24:22Z</time>
      </trkpt>
      <trkpt lat="43.01064" lon="-0.21212">
        <ele>1225.2</ele>
        <time>2021-08-29T08:24:23Z</time>
      </trkpt>
      <trkpt lat="43.01064" lon="-0.21212">
        <ele>1225.4</ele>
        <time>2021-08-29T08:24:24Z</time>
      </trkpt>
      <trkpt lat="43.01064" lon="-0.21213">
        <ele>1225.4</ele>
        <time>2021-08-29T08:24:25Z</time>
      </trkpt>
      <trkpt lat="43.01062" lon="-0.21215">
        <ele>1225.6</ele>
        <time>2021-08-29T08:24:26Z</time>
      </trkpt>
      <trkpt lat="43.01061" lon="-0.21216">
        <ele>1225.6</ele>
        <time>2021-08-29T08:24:27Z</time>
      </trkpt>
      <trkpt lat="43.0106" lon="-0.21218">
        <ele>1225.8</ele>
        <time>2021-08-29T08:24:28Z</time>
      </trkpt>
      <trkpt lat="43.01059" lon="-0.2122">
        <ele>1226</ele>
        <time>2021-08-29T08:24:29Z</time>
      </trkpt>
      <trkpt lat="43.01058" lon="-0.21222">
        <ele>1226</ele>
        <time>2021-08-29T08:24:30Z</time>
      </trkpt>
      <trkpt lat="43.01057" lon="-0.21224">
        <ele>1226</ele>
        <time>2021-08-29T08:24:31Z</time>
      </trkpt>
      <trkpt lat="43.01056" lon="-0.21225">
        <ele>1226.2</ele>
        <time>2021-08-29T08:24:32Z</time>
      </trkpt>
      <trkpt lat="43.01055" lon="-0.21227">
        <ele>1226.2</ele>
        <time>2021-08-29T08:24:33Z</time>
      </trkpt>
      <trkpt lat="43.01053" lon="-0.21228">
        <ele>1226.2</ele>
        <time>2021-08-29T08:24:34Z</time>
      </trkpt>
      <trkpt lat="43.01052" lon="-0.2123">
        <ele>1226</ele>
        <time>2021-08-29T08:24:35Z</time>
      </trkpt>
      <trkpt lat="43.01051" lon="-0.21231">
        <ele>1226</ele>
        <time>2021-08-29T08:24:36Z</time>
      </trkpt>
      <trkpt lat="43.0105" lon="-0.21232">
        <ele>1225.8</ele>
        <time>2021-08-29T08:24:37Z</time>
      </trkpt>
      <trkpt lat="43.01049" lon="-0.21233">
        <ele>1225.8</ele>
        <time>2021-08-29T08:24:38Z</time>
      </trkpt>
      <trkpt lat="43.01047" lon="-0.21235">
        <ele>1225.8</ele>
        <time>2021-08-29T08:24:39Z</time>
      </trkpt>
      <trkpt lat="43.01045" lon="-0.21236">
        <ele>1225.8</ele>
        <time>2021-08-29T08:24:40Z</time>
      </trkpt>
      <trkpt lat="43.01044" lon="-0.21237">
        <ele>1225.8</ele>
        <time>2021-08-29T08:24:41Z</time>
      </trkpt>
      <trkpt lat="43.01043" lon="-0.21239">
        <ele>1225.8</ele>
        <time>2021-08-29T08:24:42Z</time>
      </trkpt>
      <trkpt lat="43.0104" lon="-0.21244">
        <ele>1225.8</ele>
        <time>2021-08-29T08:24:45Z</time>
      </trkpt>
      <trkpt lat="43.01039" lon="-0.21245">
        <ele>1225.8</ele>
        <time>2021-08-29T08:24:46Z</time>
      </trkpt>
      <trkpt lat="43.01032" lon="-0.21253">
        <ele>1226</ele>
        <time>2021-08-29T08:24:52Z</time>
      </trkpt>
      <trkpt lat="43.01031" lon="-0.21254">
        <ele>1226</ele>
        <time>2021-08-29T08:24:53Z</time>
      </trkpt>
      <trkpt lat="43.01029" lon="-0.21255">
        <ele>1226</ele>
        <time>2021-08-29T08:24:55Z</time>
      </trkpt>
      <trkpt lat="43.01028" lon="-0.21255">
        <ele>1226</ele>
        <time>2021-08-29T08:24:56Z</time>
      </trkpt>
      <trkpt lat="43.01027" lon="-0.21255">
        <ele>1226</ele>
        <time>2021-08-29T08:24:57Z</time>
      </trkpt>
      <trkpt lat="43.01027" lon="-0.21256">
        <ele>1226</ele>
        <time>2021-08-29T08:24:58Z</time>
      </trkpt>
      <trkpt lat="43.01026" lon="-0.21256">
        <ele>1226</ele>
        <time>2021-08-29T08:24:59Z</time>
      </trkpt>
      <trkpt lat="43.01025" lon="-0.21255">
        <ele>1225.8</ele>
        <time>2021-08-29T08:25:00Z</time>
      </trkpt>
      <trkpt lat="43.01025" lon="-0.21254">
        <ele>1225.8</ele>
        <time>2021-08-29T08:25:01Z</time>
      </trkpt>
      <trkpt lat="43.01024" lon="-0.21253">
        <ele>1225.8</ele>
        <time>2021-08-29T08:25:02Z</time>
      </trkpt>
      <trkpt lat="43.01024" lon="-0.21252">
        <ele>1225.6</ele>
        <time>2021-08-29T08:25:03Z</time>
      </trkpt>
      <trkpt lat="43.01024" lon="-0.2125">
        <ele>1225.4</ele>
        <time>2021-08-29T08:25:04Z</time>
      </trkpt>
      <trkpt lat="43.01024" lon="-0.21248">
        <ele>1225.4</ele>
        <time>2021-08-29T08:25:05Z</time>
      </trkpt>
      <trkpt lat="43.01023" lon="-0.21247">
        <ele>1225.4</ele>
        <time>2021-08-29T08:25:06Z</time>
      </trkpt>
      <trkpt lat="43.01023" lon="-0.21245">
        <ele>1225.4</ele>
        <time>2021-08-29T08:25:07Z</time>
      </trkpt>
      <trkpt lat="43.01021" lon="-0.21239">
        <ele>1225.4</ele>
        <time>2021-08-29T08:25:10Z</time>
      </trkpt>
      <trkpt lat="43.01021" lon="-0.21238">
        <ele>1225.4</ele>
        <time>2021-08-29T08:25:11Z</time>
      </trkpt>
      <trkpt lat="43.0102" lon="-0.21237">
        <ele>1225.4</ele>
        <time>2021-08-29T08:25:12Z</time>
      </trkpt>
      <trkpt lat="43.01018" lon="-0.21236">
        <ele>1225.4</ele>
        <time>2021-08-29T08:25:13Z</time>
      </trkpt>
      <trkpt lat="43.01017" lon="-0.21235">
        <ele>1225.4</ele>
        <time>2021-08-29T08:25:14Z</time>
      </trkpt>
      <trkpt lat="43.01015" lon="-0.21231">
        <ele>1225.6</ele>
        <time>2021-08-29T08:25:16Z</time>
      </trkpt>
      <trkpt lat="43.01015" lon="-0.2123">
        <ele>1225.6</ele>
        <time>2021-08-29T08:25:17Z</time>
      </trkpt>
      <trkpt lat="43.01011" lon="-0.21218">
        <ele>1226.4</ele>
        <time>2021-08-29T08:25:24Z</time>
      </trkpt>
      <trkpt lat="43.01009" lon="-0.21217">
        <ele>1226.8</ele>
        <time>2021-08-29T08:25:25Z</time>
      </trkpt>
      <trkpt lat="43.01008" lon="-0.21216">
        <ele>1226.8</ele>
        <time>2021-08-29T08:25:26Z</time>
      </trkpt>
      <trkpt lat="43.01007" lon="-0.21216">
        <ele>1227</ele>
        <time>2021-08-29T08:25:27Z</time>
      </trkpt>
      <trkpt lat="43.01005" lon="-0.21214">
        <ele>1227.2</ele>
        <time>2021-08-29T08:25:28Z</time>
      </trkpt>
      <trkpt lat="43.01004" lon="-0.21213">
        <ele>1227.4</ele>
        <time>2021-08-29T08:25:29Z</time>
      </trkpt>
      <trkpt lat="43.01003" lon="-0.21212">
        <ele>1227.6</ele>
        <time>2021-08-29T08:25:30Z</time>
      </trkpt>
      <trkpt lat="43.01001" lon="-0.21211">
        <ele>1227.8</ele>
        <time>2021-08-29T08:25:31Z</time>
      </trkpt>
      <trkpt lat="43.01001" lon="-0.2121">
        <ele>1228</ele>
        <time>2021-08-29T08:25:32Z</time>
      </trkpt>
      <trkpt lat="43.01" lon="-0.21208">
        <ele>1228</ele>
        <time>2021-08-29T08:25:33Z</time>
      </trkpt>
      <trkpt lat="43.00999" lon="-0.21207">
        <ele>1228.2</ele>
        <time>2021-08-29T08:25:34Z</time>
      </trkpt>
      <trkpt lat="43.00998" lon="-0.21204">
        <ele>1228.4</ele>
        <time>2021-08-29T08:25:35Z</time>
      </trkpt>
      <trkpt lat="43.00998" lon="-0.21202">
        <ele>1228.6</ele>
        <time>2021-08-29T08:25:36Z</time>
      </trkpt>
      <trkpt lat="43.00998" lon="-0.21201">
        <ele>1228.8</ele>
        <time>2021-08-29T08:25:37Z</time>
      </trkpt>
      <trkpt lat="43.00997" lon="-0.212">
        <ele>1228.8</ele>
        <time>2021-08-29T08:25:38Z</time>
      </trkpt>
      <trkpt lat="43.00996" lon="-0.21198">
        <ele>1228.8</ele>
        <time>2021-08-29T08:25:39Z</time>
      </trkpt>
      <trkpt lat="43.00996" lon="-0.21196">
        <ele>1229</ele>
        <time>2021-08-29T08:25:40Z</time>
      </trkpt>
      <trkpt lat="43.00995" lon="-0.21194">
        <ele>1229</ele>
        <time>2021-08-29T08:25:41Z</time>
      </trkpt>
      <trkpt lat="43.00994" lon="-0.21191">
        <ele>1229</ele>
        <time>2021-08-29T08:25:42Z</time>
      </trkpt>
      <trkpt lat="43.00994" lon="-0.2119">
        <ele>1229</ele>
        <time>2021-08-29T08:25:43Z</time>
      </trkpt>
      <trkpt lat="43.00992" lon="-0.21188">
        <ele>1229</ele>
        <time>2021-08-29T08:25:44Z</time>
      </trkpt>
      <trkpt lat="43.00992" lon="-0.21187">
        <ele>1229</ele>
        <time>2021-08-29T08:25:45Z</time>
      </trkpt>
      <trkpt lat="43.00992" lon="-0.21186">
        <ele>1229.2</ele>
        <time>2021-08-29T08:25:46Z</time>
      </trkpt>
      <trkpt lat="43.00992" lon="-0.21184">
        <ele>1229.2</ele>
        <time>2021-08-29T08:25:47Z</time>
      </trkpt>
      <trkpt lat="43.0099" lon="-0.21183">
        <ele>1229.2</ele>
        <time>2021-08-29T08:25:48Z</time>
      </trkpt>
      <trkpt lat="43.00989" lon="-0.2118">
        <ele>1229.2</ele>
        <time>2021-08-29T08:25:49Z</time>
      </trkpt>
      <trkpt lat="43.00989" lon="-0.21179">
        <ele>1229.2</ele>
        <time>2021-08-29T08:25:50Z</time>
      </trkpt>
      <trkpt lat="43.00987" lon="-0.21178">
        <ele>1229.2</ele>
        <time>2021-08-29T08:25:51Z</time>
      </trkpt>
      <trkpt lat="43.00986" lon="-0.21176">
        <ele>1229.4</ele>
        <time>2021-08-29T08:25:52Z</time>
      </trkpt>
      <trkpt lat="43.00984" lon="-0.21174">
        <ele>1229.4</ele>
        <time>2021-08-29T08:25:53Z</time>
      </trkpt>
      <trkpt lat="43.00983" lon="-0.21172">
        <ele>1229.4</ele>
        <time>2021-08-29T08:25:54Z</time>
      </trkpt>
      <trkpt lat="43.00982" lon="-0.2117">
        <ele>1229.6</ele>
        <time>2021-08-29T08:25:55Z</time>
      </trkpt>
      <trkpt lat="43.00981" lon="-0.21168">
        <ele>1229.6</ele>
        <time>2021-08-29T08:25:56Z</time>
      </trkpt>
      <trkpt lat="43.00981" lon="-0.21165">
        <ele>1229.8</ele>
        <time>2021-08-29T08:25:57Z</time>
      </trkpt>
      <trkpt lat="43.00981" lon="-0.21164">
        <ele>1230</ele>
        <time>2021-08-29T08:25:58Z</time>
      </trkpt>
      <trkpt lat="43.00974" lon="-0.21159">
        <ele>1230.4</ele>
        <time>2021-08-29T08:26:00Z</time>
      </trkpt>
      <trkpt lat="43.00973" lon="-0.21158">
        <ele>1230.6</ele>
        <time>2021-08-29T08:26:01Z</time>
      </trkpt>
      <trkpt lat="43.00972" lon="-0.21157">
        <ele>1230.6</ele>
        <time>2021-08-29T08:26:02Z</time>
      </trkpt>
      <trkpt lat="43.00967" lon="-0.21149">
        <ele>1231.2</ele>
        <time>2021-08-29T08:26:06Z</time>
      </trkpt>
      <trkpt lat="43.00966" lon="-0.21148">
        <ele>1231.2</ele>
        <time>2021-08-29T08:26:07Z</time>
      </trkpt>
      <trkpt lat="43.00964" lon="-0.21147">
        <ele>1231.4</ele>
        <time>2021-08-29T08:26:08Z</time>
      </trkpt>
      <trkpt lat="43.00963" lon="-0.21146">
        <ele>1231.6</ele>
        <time>2021-08-29T08:26:09Z</time>
      </trkpt>
      <trkpt lat="43.00962" lon="-0.21146">
        <ele>1231.8</ele>
        <time>2021-08-29T08:26:10Z</time>
      </trkpt>
      <trkpt lat="43.00961" lon="-0.21146">
        <ele>1232</ele>
        <time>2021-08-29T08:26:11Z</time>
      </trkpt>
      <trkpt lat="43.00959" lon="-0.21145">
        <ele>1232.2</ele>
        <time>2021-08-29T08:26:12Z</time>
      </trkpt>
      <trkpt lat="43.00958" lon="-0.21145">
        <ele>1232.2</ele>
        <time>2021-08-29T08:26:13Z</time>
      </trkpt>
      <trkpt lat="43.00957" lon="-0.21146">
        <ele>1232.6</ele>
        <time>2021-08-29T08:26:14Z</time>
      </trkpt>
      <trkpt lat="43.00956" lon="-0.21146">
        <ele>1232.8</ele>
        <time>2021-08-29T08:26:15Z</time>
      </trkpt>
      <trkpt lat="43.00954" lon="-0.21145">
        <ele>1233</ele>
        <time>2021-08-29T08:26:16Z</time>
      </trkpt>
      <trkpt lat="43.00953" lon="-0.21145">
        <ele>1233</ele>
        <time>2021-08-29T08:26:17Z</time>
      </trkpt>
      <trkpt lat="43.00952" lon="-0.21145">
        <ele>1233.4</ele>
        <time>2021-08-29T08:26:18Z</time>
      </trkpt>
      <trkpt lat="43.00951" lon="-0.21146">
        <ele>1233.6</ele>
        <time>2021-08-29T08:26:19Z</time>
      </trkpt>
      <trkpt lat="43.00949" lon="-0.21146">
        <ele>1233.8</ele>
        <time>2021-08-29T08:26:20Z</time>
      </trkpt>
      <trkpt lat="43.00948" lon="-0.21146">
        <ele>1233.8</ele>
        <time>2021-08-29T08:26:21Z</time>
      </trkpt>
      <trkpt lat="43.00947" lon="-0.21146">
        <ele>1234</ele>
        <time>2021-08-29T08:26:22Z</time>
      </trkpt>
      <trkpt lat="43.00945" lon="-0.21145">
        <ele>1234.2</ele>
        <time>2021-08-29T08:26:23Z</time>
      </trkpt>
      <trkpt lat="43.00943" lon="-0.21146">
        <ele>1234</ele>
        <time>2021-08-29T08:26:24Z</time>
      </trkpt>
      <trkpt lat="43.00942" lon="-0.21146">
        <ele>1234.4</ele>
        <time>2021-08-29T08:26:25Z</time>
      </trkpt>
      <trkpt lat="43.00941" lon="-0.21146">
        <ele>1234.4</ele>
        <time>2021-08-29T08:26:26Z</time>
      </trkpt>
      <trkpt lat="43.00941" lon="-0.21146">
        <ele>1234.6</ele>
        <time>2021-08-29T08:26:27Z</time>
      </trkpt>
      <trkpt lat="43.00939" lon="-0.21146">
        <ele>1234.6</ele>
        <time>2021-08-29T08:26:28Z</time>
      </trkpt>
      <trkpt lat="43.00938" lon="-0.21145">
        <ele>1234.8</ele>
        <time>2021-08-29T08:26:29Z</time>
      </trkpt>
      <trkpt lat="43.00937" lon="-0.21145">
        <ele>1235</ele>
        <time>2021-08-29T08:26:30Z</time>
      </trkpt>
      <trkpt lat="43.00936" lon="-0.21144">
        <ele>1235.4</ele>
        <time>2021-08-29T08:26:31Z</time>
      </trkpt>
      <trkpt lat="43.00935" lon="-0.21144">
        <ele>1235.6</ele>
        <time>2021-08-29T08:26:32Z</time>
      </trkpt>
      <trkpt lat="43.00935" lon="-0.21144">
        <ele>1235.8</ele>
        <time>2021-08-29T08:26:33Z</time>
      </trkpt>
      <trkpt lat="43.00934" lon="-0.21144">
        <ele>1235.8</ele>
        <time>2021-08-29T08:26:34Z</time>
      </trkpt>
      <trkpt lat="43.00933" lon="-0.21143">
        <ele>1236</ele>
        <time>2021-08-29T08:26:35Z</time>
      </trkpt>
      <trkpt lat="43.00933" lon="-0.21142">
        <ele>1236</ele>
        <time>2021-08-29T08:26:36Z</time>
      </trkpt>
      <trkpt lat="43.00933" lon="-0.21142">
        <ele>1236</ele>
        <time>2021-08-29T08:26:37Z</time>
      </trkpt>
      <trkpt lat="43.00932" lon="-0.21141">
        <ele>1236.2</ele>
        <time>2021-08-29T08:26:38Z</time>
      </trkpt>
      <trkpt lat="43.00931" lon="-0.2114">
        <ele>1236.2</ele>
        <time>2021-08-29T08:26:39Z</time>
      </trkpt>
      <trkpt lat="43.00929" lon="-0.21139">
        <ele>1236.4</ele>
        <time>2021-08-29T08:26:40Z</time>
      </trkpt>
      <trkpt lat="43.00928" lon="-0.21138">
        <ele>1236.4</ele>
        <time>2021-08-29T08:26:41Z</time>
      </trkpt>
      <trkpt lat="43.00927" lon="-0.21137">
        <ele>1236.6</ele>
        <time>2021-08-29T08:26:42Z</time>
      </trkpt>
      <trkpt lat="43.00925" lon="-0.21135">
        <ele>1236.6</ele>
        <time>2021-08-29T08:26:43Z</time>
      </trkpt>
      <trkpt lat="43.00924" lon="-0.21133">
        <ele>1236.8</ele>
        <time>2021-08-29T08:26:44Z</time>
      </trkpt>
      <trkpt lat="43.00922" lon="-0.21133">
        <ele>1237</ele>
        <time>2021-08-29T08:26:45Z</time>
      </trkpt>
      <trkpt lat="43.00921" lon="-0.21131">
        <ele>1237</ele>
        <time>2021-08-29T08:26:46Z</time>
      </trkpt>
      <trkpt lat="43.0092" lon="-0.2113">
        <ele>1237.2</ele>
        <time>2021-08-29T08:26:47Z</time>
      </trkpt>
      <trkpt lat="43.0092" lon="-0.21128">
        <ele>1237.2</ele>
        <time>2021-08-29T08:26:48Z</time>
      </trkpt>
      <trkpt lat="43.00919" lon="-0.21127">
        <ele>1237.4</ele>
        <time>2021-08-29T08:26:49Z</time>
      </trkpt>
      <trkpt lat="43.00918" lon="-0.21126">
        <ele>1237.4</ele>
        <time>2021-08-29T08:26:50Z</time>
      </trkpt>
      <trkpt lat="43.00917" lon="-0.21124">
        <ele>1237.6</ele>
        <time>2021-08-29T08:26:51Z</time>
      </trkpt>
      <trkpt lat="43.00915" lon="-0.21123">
        <ele>1237.8</ele>
        <time>2021-08-29T08:26:52Z</time>
      </trkpt>
      <trkpt lat="43.00914" lon="-0.21121">
        <ele>1237.8</ele>
        <time>2021-08-29T08:26:53Z</time>
      </trkpt>
      <trkpt lat="43.00913" lon="-0.21119">
        <ele>1238</ele>
        <time>2021-08-29T08:26:54Z</time>
      </trkpt>
      <trkpt lat="43.00912" lon="-0.21118">
        <ele>1238</ele>
        <time>2021-08-29T08:26:55Z</time>
      </trkpt>
      <trkpt lat="43.00911" lon="-0.21116">
        <ele>1238.2</ele>
        <time>2021-08-29T08:26:56Z</time>
      </trkpt>
      <trkpt lat="43.0091" lon="-0.21114">
        <ele>1238.2</ele>
        <time>2021-08-29T08:26:57Z</time>
      </trkpt>
      <trkpt lat="43.00908" lon="-0.21112">
        <ele>1238.2</ele>
        <time>2021-08-29T08:26:58Z</time>
      </trkpt>
      <trkpt lat="43.00907" lon="-0.2111">
        <ele>1238.4</ele>
        <time>2021-08-29T08:26:59Z</time>
      </trkpt>
      <trkpt lat="43.00907" lon="-0.21109">
        <ele>1238.4</ele>
        <time>2021-08-29T08:27:00Z</time>
      </trkpt>
      <trkpt lat="43.00906" lon="-0.21108">
        <ele>1238.6</ele>
        <time>2021-08-29T08:27:01Z</time>
      </trkpt>
      <trkpt lat="43.00905" lon="-0.21107">
        <ele>1238.6</ele>
        <time>2021-08-29T08:27:02Z</time>
      </trkpt>
      <trkpt lat="43.00904" lon="-0.21105">
        <ele>1238.8</ele>
        <time>2021-08-29T08:27:03Z</time>
      </trkpt>
      <trkpt lat="43.00903" lon="-0.21104">
        <ele>1239</ele>
        <time>2021-08-29T08:27:04Z</time>
      </trkpt>
      <trkpt lat="43.00902" lon="-0.21104">
        <ele>1239.2</ele>
        <time>2021-08-29T08:27:05Z</time>
      </trkpt>
      <trkpt lat="43.00903" lon="-0.21103">
        <ele>1239</ele>
        <time>2021-08-29T08:27:06Z</time>
      </trkpt>
      <trkpt lat="43.00902" lon="-0.21102">
        <ele>1239.2</ele>
        <time>2021-08-29T08:27:07Z</time>
      </trkpt>
      <trkpt lat="43.00901" lon="-0.211">
        <ele>1239.4</ele>
        <time>2021-08-29T08:27:08Z</time>
      </trkpt>
      <trkpt lat="43.009" lon="-0.21098">
        <ele>1239.6</ele>
        <time>2021-08-29T08:27:09Z</time>
      </trkpt>
      <trkpt lat="43.009" lon="-0.21097">
        <ele>1239.8</ele>
        <time>2021-08-29T08:27:10Z</time>
      </trkpt>
      <trkpt lat="43.009" lon="-0.21096">
        <ele>1239.8</ele>
        <time>2021-08-29T08:27:11Z</time>
      </trkpt>
      <trkpt lat="43.009" lon="-0.21094">
        <ele>1240</ele>
        <time>2021-08-29T08:27:12Z</time>
      </trkpt>
      <trkpt lat="43.009" lon="-0.21093">
        <ele>1240.2</ele>
        <time>2021-08-29T08:27:13Z</time>
      </trkpt>
      <trkpt lat="43.00899" lon="-0.21092">
        <ele>1240.4</ele>
        <time>2021-08-29T08:27:14Z</time>
      </trkpt>
      <trkpt lat="43.00898" lon="-0.21089">
        <ele>1240.6</ele>
        <time>2021-08-29T08:27:15Z</time>
      </trkpt>
      <trkpt lat="43.00898" lon="-0.21087">
        <ele>1240.6</ele>
        <time>2021-08-29T08:27:16Z</time>
      </trkpt>
      <trkpt lat="43.00897" lon="-0.21085">
        <ele>1240.8</ele>
        <time>2021-08-29T08:27:17Z</time>
      </trkpt>
      <trkpt lat="43.00896" lon="-0.21084">
        <ele>1240.8</ele>
        <time>2021-08-29T08:27:18Z</time>
      </trkpt>
      <trkpt lat="43.00895" lon="-0.21082">
        <ele>1241.2</ele>
        <time>2021-08-29T08:27:19Z</time>
      </trkpt>
      <trkpt lat="43.00894" lon="-0.2108">
        <ele>1241.6</ele>
        <time>2021-08-29T08:27:20Z</time>
      </trkpt>
      <trkpt lat="43.00893" lon="-0.21078">
        <ele>1241.6</ele>
        <time>2021-08-29T08:27:21Z</time>
      </trkpt>
      <trkpt lat="43.00892" lon="-0.21075">
        <ele>1242</ele>
        <time>2021-08-29T08:27:22Z</time>
      </trkpt>
      <trkpt lat="43.0089" lon="-0.21073">
        <ele>1242.2</ele>
        <time>2021-08-29T08:27:23Z</time>
      </trkpt>
      <trkpt lat="43.0089" lon="-0.21072">
        <ele>1242.4</ele>
        <time>2021-08-29T08:27:24Z</time>
      </trkpt>
      <trkpt lat="43.0089" lon="-0.2107">
        <ele>1242.6</ele>
        <time>2021-08-29T08:27:25Z</time>
      </trkpt>
      <trkpt lat="43.00889" lon="-0.21068">
        <ele>1242.8</ele>
        <time>2021-08-29T08:27:26Z</time>
      </trkpt>
      <trkpt lat="43.00889" lon="-0.21068">
        <ele>1242.8</ele>
        <time>2021-08-29T08:27:27Z</time>
      </trkpt>
      <trkpt lat="43.00889" lon="-0.21066">
        <ele>1242.8</ele>
        <time>2021-08-29T08:27:28Z</time>
      </trkpt>
      <trkpt lat="43.00888" lon="-0.21065">
        <ele>1242.8</ele>
        <time>2021-08-29T08:27:29Z</time>
      </trkpt>
      <trkpt lat="43.00887" lon="-0.21064">
        <ele>1243</ele>
        <time>2021-08-29T08:27:30Z</time>
      </trkpt>
      <trkpt lat="43.00885" lon="-0.21063">
        <ele>1243.2</ele>
        <time>2021-08-29T08:27:31Z</time>
      </trkpt>
      <trkpt lat="43.00884" lon="-0.21062">
        <ele>1243.4</ele>
        <time>2021-08-29T08:27:32Z</time>
      </trkpt>
      <trkpt lat="43.00882" lon="-0.2106">
        <ele>1243.6</ele>
        <time>2021-08-29T08:27:33Z</time>
      </trkpt>
      <trkpt lat="43.00882" lon="-0.2106">
        <ele>1243.8</ele>
        <time>2021-08-29T08:27:34Z</time>
      </trkpt>
      <trkpt lat="43.00881" lon="-0.21058">
        <ele>1244</ele>
        <time>2021-08-29T08:27:35Z</time>
      </trkpt>
      <trkpt lat="43.00881" lon="-0.21058">
        <ele>1244.2</ele>
        <time>2021-08-29T08:27:36Z</time>
      </trkpt>
      <trkpt lat="43.0088" lon="-0.21056">
        <ele>1244.4</ele>
        <time>2021-08-29T08:27:37Z</time>
      </trkpt>
      <trkpt lat="43.00879" lon="-0.21055">
        <ele>1244.6</ele>
        <time>2021-08-29T08:27:38Z</time>
      </trkpt>
      <trkpt lat="43.00878" lon="-0.21053">
        <ele>1244.8</ele>
        <time>2021-08-29T08:27:39Z</time>
      </trkpt>
      <trkpt lat="43.00876" lon="-0.21052">
        <ele>1244.8</ele>
        <time>2021-08-29T08:27:40Z</time>
      </trkpt>
      <trkpt lat="43.00876" lon="-0.21049">
        <ele>1245</ele>
        <time>2021-08-29T08:27:41Z</time>
      </trkpt>
      <trkpt lat="43.00875" lon="-0.21048">
        <ele>1245</ele>
        <time>2021-08-29T08:27:42Z</time>
      </trkpt>
      <trkpt lat="43.00874" lon="-0.21046">
        <ele>1245.2</ele>
        <time>2021-08-29T08:27:43Z</time>
      </trkpt>
      <trkpt lat="43.00873" lon="-0.21044">
        <ele>1245.4</ele>
        <time>2021-08-29T08:27:44Z</time>
      </trkpt>
      <trkpt lat="43.00872" lon="-0.21042">
        <ele>1245.6</ele>
        <time>2021-08-29T08:27:45Z</time>
      </trkpt>
      <trkpt lat="43.00872" lon="-0.21041">
        <ele>1245.8</ele>
        <time>2021-08-29T08:27:46Z</time>
      </trkpt>
      <trkpt lat="43.0087" lon="-0.21037">
        <ele>1246</ele>
        <time>2021-08-29T08:27:47Z</time>
      </trkpt>
      <trkpt lat="43.00869" lon="-0.21033">
        <ele>1246</ele>
        <time>2021-08-29T08:27:48Z</time>
      </trkpt>
      <trkpt lat="43.00869" lon="-0.21031">
        <ele>1246.2</ele>
        <time>2021-08-29T08:27:49Z</time>
      </trkpt>
      <trkpt lat="43.00868" lon="-0.2103">
        <ele>1246.4</ele>
        <time>2021-08-29T08:27:50Z</time>
      </trkpt>
      <trkpt lat="43.00867" lon="-0.21027">
        <ele>1246.6</ele>
        <time>2021-08-29T08:27:51Z</time>
      </trkpt>
      <trkpt lat="43.00866" lon="-0.21024">
        <ele>1246.6</ele>
        <time>2021-08-29T08:27:52Z</time>
      </trkpt>
      <trkpt lat="43.00866" lon="-0.21023">
        <ele>1246.8</ele>
        <time>2021-08-29T08:27:53Z</time>
      </trkpt>
      <trkpt lat="43.00865" lon="-0.21022">
        <ele>1246.8</ele>
        <time>2021-08-29T08:27:54Z</time>
      </trkpt>
      <trkpt lat="43.00864" lon="-0.21021">
        <ele>1247</ele>
        <time>2021-08-29T08:27:55Z</time>
      </trkpt>
      <trkpt lat="43.00863" lon="-0.2102">
        <ele>1247.2</ele>
        <time>2021-08-29T08:27:56Z</time>
      </trkpt>
      <trkpt lat="43.00862" lon="-0.21019">
        <ele>1247.2</ele>
        <time>2021-08-29T08:27:57Z</time>
      </trkpt>
      <trkpt lat="43.00861" lon="-0.21018">
        <ele>1247.4</ele>
        <time>2021-08-29T08:27:58Z</time>
      </trkpt>
      <trkpt lat="43.0086" lon="-0.21017">
        <ele>1247.4</ele>
        <time>2021-08-29T08:27:59Z</time>
      </trkpt>
      <trkpt lat="43.00859" lon="-0.21016">
        <ele>1247.4</ele>
        <time>2021-08-29T08:28:00Z</time>
      </trkpt>
      <trkpt lat="43.00857" lon="-0.21014">
        <ele>1247.6</ele>
        <time>2021-08-29T08:28:01Z</time>
      </trkpt>
      <trkpt lat="43.00856" lon="-0.21013">
        <ele>1247.4</ele>
        <time>2021-08-29T08:28:02Z</time>
      </trkpt>
      <trkpt lat="43.00855" lon="-0.21011">
        <ele>1247.4</ele>
        <time>2021-08-29T08:28:03Z</time>
      </trkpt>
      <trkpt lat="43.00854" lon="-0.2101">
        <ele>1247.6</ele>
        <time>2021-08-29T08:28:04Z</time>
      </trkpt>
      <trkpt lat="43.00853" lon="-0.21008">
        <ele>1247.6</ele>
        <time>2021-08-29T08:28:05Z</time>
      </trkpt>
      <trkpt lat="43.00851" lon="-0.21007">
        <ele>1247.8</ele>
        <time>2021-08-29T08:28:06Z</time>
      </trkpt>
      <trkpt lat="43.0085" lon="-0.21005">
        <ele>1247.8</ele>
        <time>2021-08-29T08:28:07Z</time>
      </trkpt>
      <trkpt lat="43.00849" lon="-0.21003">
        <ele>1247.8</ele>
        <time>2021-08-29T08:28:08Z</time>
      </trkpt>
      <trkpt lat="43.00849" lon="-0.21002">
        <ele>1247.8</ele>
        <time>2021-08-29T08:28:09Z</time>
      </trkpt>
      <trkpt lat="43.00847" lon="-0.21001">
        <ele>1247.8</ele>
        <time>2021-08-29T08:28:10Z</time>
      </trkpt>
      <trkpt lat="43.00847" lon="-0.21">
        <ele>1247.8</ele>
        <time>2021-08-29T08:28:11Z</time>
      </trkpt>
      <trkpt lat="43.00845" lon="-0.20999">
        <ele>1248</ele>
        <time>2021-08-29T08:28:12Z</time>
      </trkpt>
      <trkpt lat="43.00844" lon="-0.20998">
        <ele>1248</ele>
        <time>2021-08-29T08:28:13Z</time>
      </trkpt>
      <trkpt lat="43.00842" lon="-0.20998">
        <ele>1248</ele>
        <time>2021-08-29T08:28:14Z</time>
      </trkpt>
      <trkpt lat="43.00841" lon="-0.20998">
        <ele>1248.2</ele>
        <time>2021-08-29T08:28:15Z</time>
      </trkpt>
      <trkpt lat="43.0084" lon="-0.20998">
        <ele>1248.2</ele>
        <time>2021-08-29T08:28:16Z</time>
      </trkpt>
      <trkpt lat="43.00838" lon="-0.20998">
        <ele>1248.2</ele>
        <time>2021-08-29T08:28:17Z</time>
      </trkpt>
      <trkpt lat="43.00837" lon="-0.20999">
        <ele>1248.4</ele>
        <time>2021-08-29T08:28:18Z</time>
      </trkpt>
      <trkpt lat="43.00836" lon="-0.20999">
        <ele>1248.6</ele>
        <time>2021-08-29T08:28:19Z</time>
      </trkpt>
      <trkpt lat="43.00835" lon="-0.21">
        <ele>1248.8</ele>
        <time>2021-08-29T08:28:20Z</time>
      </trkpt>
      <trkpt lat="43.00834" lon="-0.21">
        <ele>1249</ele>
        <time>2021-08-29T08:28:21Z</time>
      </trkpt>
      <trkpt lat="43.00832" lon="-0.21002">
        <ele>1249</ele>
        <time>2021-08-29T08:28:23Z</time>
      </trkpt>
      <trkpt lat="43.00831" lon="-0.21003">
        <ele>1249</ele>
        <time>2021-08-29T08:28:24Z</time>
      </trkpt>
      <trkpt lat="43.0083" lon="-0.21003">
        <ele>1249.2</ele>
        <time>2021-08-29T08:28:26Z</time>
      </trkpt>
      <trkpt lat="43.00823" lon="-0.21008">
        <ele>1248.6</ele>
        <time>2021-08-29T08:28:55Z</time>
      </trkpt>
      <trkpt lat="43.00819" lon="-0.21008">
        <ele>1248.6</ele>
        <time>2021-08-29T08:28:56Z</time>
      </trkpt>
      <trkpt lat="43.00815" lon="-0.21008">
        <ele>1248.6</ele>
        <time>2021-08-29T08:28:57Z</time>
      </trkpt>
      <trkpt lat="43.0081" lon="-0.21007">
        <ele>1248.6</ele>
        <time>2021-08-29T08:28:58Z</time>
      </trkpt>
      <trkpt lat="43.00804" lon="-0.21006">
        <ele>1248.2</ele>
        <time>2021-08-29T08:28:59Z</time>
      </trkpt>
      <trkpt lat="43.00783" lon="-0.20998">
        <ele>1247.8</ele>
        <time>2021-08-29T08:29:02Z</time>
      </trkpt>
      <trkpt lat="43.00776" lon="-0.20995">
        <ele>1246.8</ele>
        <time>2021-08-29T08:29:03Z</time>
      </trkpt>
      <trkpt lat="43.00769" lon="-0.20993">
        <ele>1246.6</ele>
        <time>2021-08-29T08:29:04Z</time>
      </trkpt>
      <trkpt lat="43.00763" lon="-0.20993">
        <ele>1246</ele>
        <time>2021-08-29T08:29:05Z</time>
      </trkpt>
      <trkpt lat="43.00758" lon="-0.20996">
        <ele>1245.4</ele>
        <time>2021-08-29T08:29:06Z</time>
      </trkpt>
      <trkpt lat="43.00753" lon="-0.21002">
        <ele>1244.8</ele>
        <time>2021-08-29T08:29:07Z</time>
      </trkpt>
      <trkpt lat="43.00747" lon="-0.2101">
        <ele>1244</ele>
        <time>2021-08-29T08:29:08Z</time>
      </trkpt>
      <trkpt lat="43.00744" lon="-0.21016">
        <ele>1243.4</ele>
        <time>2021-08-29T08:29:09Z</time>
      </trkpt>
      <trkpt lat="43.00739" lon="-0.21024">
        <ele>1242.6</ele>
        <time>2021-08-29T08:29:10Z</time>
      </trkpt>
      <trkpt lat="43.00729" lon="-0.21041">
        <ele>1241.4</ele>
        <time>2021-08-29T08:29:12Z</time>
      </trkpt>
      <trkpt lat="43.00724" lon="-0.21049">
        <ele>1241</ele>
        <time>2021-08-29T08:29:13Z</time>
      </trkpt>
      <trkpt lat="43.00718" lon="-0.21054">
        <ele>1240.2</ele>
        <time>2021-08-29T08:29:14Z</time>
      </trkpt>
      <trkpt lat="43.00711" lon="-0.21058">
        <ele>1239.8</ele>
        <time>2021-08-29T08:29:15Z</time>
      </trkpt>
      <trkpt lat="43.00703" lon="-0.21061">
        <ele>1239</ele>
        <time>2021-08-29T08:29:16Z</time>
      </trkpt>
      <trkpt lat="43.00695" lon="-0.21064">
        <ele>1238.6</ele>
        <time>2021-08-29T08:29:17Z</time>
      </trkpt>
      <trkpt lat="43.00687" lon="-0.21066">
        <ele>1237.8</ele>
        <time>2021-08-29T08:29:18Z</time>
      </trkpt>
      <trkpt lat="43.00679" lon="-0.2107">
        <ele>1237.6</ele>
        <time>2021-08-29T08:29:19Z</time>
      </trkpt>
      <trkpt lat="43.00663" lon="-0.21081">
        <ele>1236.8</ele>
        <time>2021-08-29T08:29:21Z</time>
      </trkpt>
      <trkpt lat="43.00636" lon="-0.21105">
        <ele>1235.4</ele>
        <time>2021-08-29T08:29:24Z</time>
      </trkpt>
      <trkpt lat="43.00628" lon="-0.21112">
        <ele>1235</ele>
        <time>2021-08-29T08:29:25Z</time>
      </trkpt>
      <trkpt lat="43.00618" lon="-0.21121">
        <ele>1234</ele>
        <time>2021-08-29T08:29:26Z</time>
      </trkpt>
      <trkpt lat="43.00607" lon="-0.2113">
        <ele>1232.6</ele>
        <time>2021-08-29T08:29:27Z</time>
      </trkpt>
      <trkpt lat="43.00594" lon="-0.21141">
        <ele>1231.6</ele>
        <time>2021-08-29T08:29:28Z</time>
      </trkpt>
      <trkpt lat="43.00584" lon="-0.21153">
        <ele>1230</ele>
        <time>2021-08-29T08:29:29Z</time>
      </trkpt>
      <trkpt lat="43.00565" lon="-0.21175">
        <ele>1227.8</ele>
        <time>2021-08-29T08:29:31Z</time>
      </trkpt>
      <trkpt lat="43.00553" lon="-0.21185">
        <ele>1226.6</ele>
        <time>2021-08-29T08:29:32Z</time>
      </trkpt>
      <trkpt lat="43.00541" lon="-0.21195">
        <ele>1224.6</ele>
        <time>2021-08-29T08:29:33Z</time>
      </trkpt>
      <trkpt lat="43.00513" lon="-0.21216">
        <ele>1222.2</ele>
        <time>2021-08-29T08:29:35Z</time>
      </trkpt>
      <trkpt lat="43.00503" lon="-0.21223">
        <ele>1220.8</ele>
        <time>2021-08-29T08:29:36Z</time>
      </trkpt>
      <trkpt lat="43.00489" lon="-0.21235">
        <ele>1218.6</ele>
        <time>2021-08-29T08:29:37Z</time>
      </trkpt>
      <trkpt lat="43.00477" lon="-0.21245">
        <ele>1218</ele>
        <time>2021-08-29T08:29:38Z</time>
      </trkpt>
      <trkpt lat="43.00465" lon="-0.21257">
        <ele>1215.8</ele>
        <time>2021-08-29T08:29:39Z</time>
      </trkpt>
      <trkpt lat="43.00443" lon="-0.21279">
        <ele>1212.8</ele>
        <time>2021-08-29T08:29:41Z</time>
      </trkpt>
      <trkpt lat="43.00434" lon="-0.21286">
        <ele>1211.6</ele>
        <time>2021-08-29T08:29:42Z</time>
      </trkpt>
      <trkpt lat="43.00423" lon="-0.21295">
        <ele>1209.8</ele>
        <time>2021-08-29T08:29:43Z</time>
      </trkpt>
      <trkpt lat="43.0041" lon="-0.21305">
        <ele>1209</ele>
        <time>2021-08-29T08:29:44Z</time>
      </trkpt>
      <trkpt lat="43.004" lon="-0.21314">
        <ele>1207.8</ele>
        <time>2021-08-29T08:29:45Z</time>
      </trkpt>
      <trkpt lat="43.0039" lon="-0.21322">
        <ele>1205.8</ele>
        <time>2021-08-29T08:29:46Z</time>
      </trkpt>
      <trkpt lat="43.0038" lon="-0.2133">
        <ele>1205.2</ele>
        <time>2021-08-29T08:29:47Z</time>
      </trkpt>
      <trkpt lat="43.00371" lon="-0.21339">
        <ele>1203.8</ele>
        <time>2021-08-29T08:29:48Z</time>
      </trkpt>
      <trkpt lat="43.00361" lon="-0.21346">
        <ele>1203.2</ele>
        <time>2021-08-29T08:29:49Z</time>
      </trkpt>
      <trkpt lat="43.00352" lon="-0.21353">
        <ele>1201.6</ele>
        <time>2021-08-29T08:29:50Z</time>
      </trkpt>
      <trkpt lat="43.00343" lon="-0.21357">
        <ele>1200.6</ele>
        <time>2021-08-29T08:29:51Z</time>
      </trkpt>
      <trkpt lat="43.00332" lon="-0.21362">
        <ele>1198.6</ele>
        <time>2021-08-29T08:29:52Z</time>
      </trkpt>
      <trkpt lat="43.00307" lon="-0.21372">
        <ele>1196.2</ele>
        <time>2021-08-29T08:29:54Z</time>
      </trkpt>
      <trkpt lat="43.00287" lon="-0.21383">
        <ele>1194.2</ele>
        <time>2021-08-29T08:29:56Z</time>
      </trkpt>
      <trkpt lat="43.00279" lon="-0.21389">
        <ele>1193.4</ele>
        <time>2021-08-29T08:29:57Z</time>
      </trkpt>
      <trkpt lat="43.00271" lon="-0.21395">
        <ele>1191.6</ele>
        <time>2021-08-29T08:29:58Z</time>
      </trkpt>
      <trkpt lat="43.00263" lon="-0.21401">
        <ele>1191</ele>
        <time>2021-08-29T08:29:59Z</time>
      </trkpt>
      <trkpt lat="43.00255" lon="-0.21408">
        <ele>1190.2</ele>
        <time>2021-08-29T08:30:00Z</time>
      </trkpt>
      <trkpt lat="43.00241" lon="-0.21423">
        <ele>1189</ele>
        <time>2021-08-29T08:30:02Z</time>
      </trkpt>
      <trkpt lat="43.00234" lon="-0.2143">
        <ele>1188</ele>
        <time>2021-08-29T08:30:03Z</time>
      </trkpt>
      <trkpt lat="43.00229" lon="-0.21438">
        <ele>1187.4</ele>
        <time>2021-08-29T08:30:04Z</time>
      </trkpt>
      <trkpt lat="43.00225" lon="-0.21443">
        <ele>1186.6</ele>
        <time>2021-08-29T08:30:05Z</time>
      </trkpt>
      <trkpt lat="43.00221" lon="-0.21447">
        <ele>1186.4</ele>
        <time>2021-08-29T08:30:06Z</time>
      </trkpt>
      <trkpt lat="43.00218" lon="-0.2145">
        <ele>1186.2</ele>
        <time>2021-08-29T08:30:07Z</time>
      </trkpt>
      <trkpt lat="43.00216" lon="-0.21452">
        <ele>1186</ele>
        <time>2021-08-29T08:30:08Z</time>
      </trkpt>
      <trkpt lat="43.00215" lon="-0.21454">
        <ele>1186</ele>
        <time>2021-08-29T08:30:09Z</time>
      </trkpt>
      <trkpt lat="43.00214" lon="-0.21455">
        <ele>1186.2</ele>
        <time>2021-08-29T08:30:10Z</time>
      </trkpt>
      <trkpt lat="43.00213" lon="-0.21456">
        <ele>1186.6</ele>
        <time>2021-08-29T08:30:11Z</time>
      </trkpt>
      <trkpt lat="43.00212" lon="-0.21457">
        <ele>1186.6</ele>
        <time>2021-08-29T08:30:12Z</time>
      </trkpt>
      <trkpt lat="43.00209" lon="-0.2146">
        <ele>1187.4</ele>
        <time>2021-08-29T08:30:14Z</time>
      </trkpt>
      <trkpt lat="43.00208" lon="-0.21462">
        <ele>1187.6</ele>
        <time>2021-08-29T08:30:15Z</time>
      </trkpt>
      <trkpt lat="43.00207" lon="-0.21463">
        <ele>1187.8</ele>
        <time>2021-08-29T08:30:16Z</time>
      </trkpt>
      <trkpt lat="43.00207" lon="-0.21465">
        <ele>1188</ele>
        <time>2021-08-29T08:30:17Z</time>
      </trkpt>
      <trkpt lat="43.00206" lon="-0.21466">
        <ele>1188.2</ele>
        <time>2021-08-29T08:30:18Z</time>
      </trkpt>
      <trkpt lat="43.00206" lon="-0.21467">
        <ele>1188.4</ele>
        <time>2021-08-29T08:30:19Z</time>
      </trkpt>
      <trkpt lat="43.00205" lon="-0.21469">
        <ele>1188.4</ele>
        <time>2021-08-29T08:30:20Z</time>
      </trkpt>
      <trkpt lat="43.00205" lon="-0.21471">
        <ele>1188.6</ele>
        <time>2021-08-29T08:30:21Z</time>
      </trkpt>
      <trkpt lat="43.00203" lon="-0.21472">
        <ele>1188.8</ele>
        <time>2021-08-29T08:30:22Z</time>
      </trkpt>
      <trkpt lat="43.00201" lon="-0.21475">
        <ele>1189.2</ele>
        <time>2021-08-29T08:30:24Z</time>
      </trkpt>
      <trkpt lat="43.00201" lon="-0.21474">
        <ele>1189.4</ele>
        <time>2021-08-29T08:30:25Z</time>
      </trkpt>
      <trkpt lat="43.002" lon="-0.21474">
        <ele>1189.6</ele>
        <time>2021-08-29T08:30:26Z</time>
      </trkpt>
      <trkpt lat="43.00199" lon="-0.21475">
        <ele>1189.8</ele>
        <time>2021-08-29T08:30:27Z</time>
      </trkpt>
      <trkpt lat="43.00199" lon="-0.21477">
        <ele>1190</ele>
        <time>2021-08-29T08:30:28Z</time>
      </trkpt>
      <trkpt lat="43.00198" lon="-0.21479">
        <ele>1190.2</ele>
        <time>2021-08-29T08:30:29Z</time>
      </trkpt>
      <trkpt lat="43.00197" lon="-0.21485">
        <ele>1190.4</ele>
        <time>2021-08-29T08:30:31Z</time>
      </trkpt>
      <trkpt lat="43.00196" lon="-0.21486">
        <ele>1190.6</ele>
        <time>2021-08-29T08:30:32Z</time>
      </trkpt>
      <trkpt lat="43.00196" lon="-0.21488">
        <ele>1190.6</ele>
        <time>2021-08-29T08:30:33Z</time>
      </trkpt>
      <trkpt lat="43.00195" lon="-0.21488">
        <ele>1191.2</ele>
        <time>2021-08-29T08:30:34Z</time>
      </trkpt>
      <trkpt lat="43.00193" lon="-0.21489">
        <ele>1191.2</ele>
        <time>2021-08-29T08:30:35Z</time>
      </trkpt>
      <trkpt lat="43.00193" lon="-0.21491">
        <ele>1191.4</ele>
        <time>2021-08-29T08:30:36Z</time>
      </trkpt>
      <trkpt lat="43.00192" lon="-0.21493">
        <ele>1191.8</ele>
        <time>2021-08-29T08:30:38Z</time>
      </trkpt>
      <trkpt lat="43.0019" lon="-0.21495">
        <ele>1191.8</ele>
        <time>2021-08-29T08:30:39Z</time>
      </trkpt>
      <trkpt lat="43.0019" lon="-0.21497">
        <ele>1192.2</ele>
        <time>2021-08-29T08:30:40Z</time>
      </trkpt>
      <trkpt lat="43.00189" lon="-0.21501">
        <ele>1192.6</ele>
        <time>2021-08-29T08:30:41Z</time>
      </trkpt>
      <trkpt lat="43.00188" lon="-0.21503">
        <ele>1192.6</ele>
        <time>2021-08-29T08:30:42Z</time>
      </trkpt>
      <trkpt lat="43.00187" lon="-0.21506">
        <ele>1193</ele>
        <time>2021-08-29T08:30:43Z</time>
      </trkpt>
      <trkpt lat="43.00186" lon="-0.21508">
        <ele>1193.2</ele>
        <time>2021-08-29T08:30:44Z</time>
      </trkpt>
      <trkpt lat="43.00185" lon="-0.2151">
        <ele>1193.6</ele>
        <time>2021-08-29T08:30:45Z</time>
      </trkpt>
      <trkpt lat="43.00184" lon="-0.21511">
        <ele>1193.8</ele>
        <time>2021-08-29T08:30:46Z</time>
      </trkpt>
      <trkpt lat="43.00183" lon="-0.21512">
        <ele>1194</ele>
        <time>2021-08-29T08:30:47Z</time>
      </trkpt>
      <trkpt lat="43.00182" lon="-0.21513">
        <ele>1194</ele>
        <time>2021-08-29T08:30:48Z</time>
      </trkpt>
      <trkpt lat="43.0018" lon="-0.21514">
        <ele>1194.2</ele>
        <time>2021-08-29T08:30:49Z</time>
      </trkpt>
      <trkpt lat="43.00179" lon="-0.21516">
        <ele>1194.2</ele>
        <time>2021-08-29T08:30:50Z</time>
      </trkpt>
      <trkpt lat="43.00178" lon="-0.21518">
        <ele>1194.6</ele>
        <time>2021-08-29T08:30:51Z</time>
      </trkpt>
      <trkpt lat="43.00178" lon="-0.21521">
        <ele>1195</ele>
        <time>2021-08-29T08:30:52Z</time>
      </trkpt>
      <trkpt lat="43.00176" lon="-0.21522">
        <ele>1195.4</ele>
        <time>2021-08-29T08:30:53Z</time>
      </trkpt>
      <trkpt lat="43.00175" lon="-0.21524">
        <ele>1195.6</ele>
        <time>2021-08-29T08:30:54Z</time>
      </trkpt>
      <trkpt lat="43.00174" lon="-0.21526">
        <ele>1195.8</ele>
        <time>2021-08-29T08:30:55Z</time>
      </trkpt>
      <trkpt lat="43.00174" lon="-0.21528">
        <ele>1196</ele>
        <time>2021-08-29T08:30:56Z</time>
      </trkpt>
      <trkpt lat="43.00174" lon="-0.21531">
        <ele>1196.2</ele>
        <time>2021-08-29T08:30:57Z</time>
      </trkpt>
      <trkpt lat="43.00173" lon="-0.21534">
        <ele>1196.6</ele>
        <time>2021-08-29T08:30:58Z</time>
      </trkpt>
      <trkpt lat="43.00172" lon="-0.21536">
        <ele>1196.6</ele>
        <time>2021-08-29T08:30:59Z</time>
      </trkpt>
      <trkpt lat="43.00172" lon="-0.21538">
        <ele>1196.8</ele>
        <time>2021-08-29T08:31:00Z</time>
      </trkpt>
      <trkpt lat="43.00172" lon="-0.21541">
        <ele>1197</ele>
        <time>2021-08-29T08:31:01Z</time>
      </trkpt>
      <trkpt lat="43.00172" lon="-0.21543">
        <ele>1197</ele>
        <time>2021-08-29T08:31:02Z</time>
      </trkpt>
      <trkpt lat="43.00172" lon="-0.21545">
        <ele>1197.2</ele>
        <time>2021-08-29T08:31:03Z</time>
      </trkpt>
      <trkpt lat="43.0017" lon="-0.21547">
        <ele>1197.2</ele>
        <time>2021-08-29T08:31:04Z</time>
      </trkpt>
      <trkpt lat="43.0017" lon="-0.21548">
        <ele>1197.4</ele>
        <time>2021-08-29T08:31:05Z</time>
      </trkpt>
      <trkpt lat="43.00168" lon="-0.2155">
        <ele>1197.6</ele>
        <time>2021-08-29T08:31:06Z</time>
      </trkpt>
      <trkpt lat="43.00167" lon="-0.21551">
        <ele>1197.8</ele>
        <time>2021-08-29T08:31:07Z</time>
      </trkpt>
      <trkpt lat="43.00167" lon="-0.21553">
        <ele>1198</ele>
        <time>2021-08-29T08:31:08Z</time>
      </trkpt>
      <trkpt lat="43.00166" lon="-0.21554">
        <ele>1198.2</ele>
        <time>2021-08-29T08:31:09Z</time>
      </trkpt>
      <trkpt lat="43.00166" lon="-0.21556">
        <ele>1198.4</ele>
        <time>2021-08-29T08:31:10Z</time>
      </trkpt>
      <trkpt lat="43.00165" lon="-0.21558">
        <ele>1198.6</ele>
        <time>2021-08-29T08:31:11Z</time>
      </trkpt>
      <trkpt lat="43.00165" lon="-0.21561">
        <ele>1199</ele>
        <time>2021-08-29T08:31:12Z</time>
      </trkpt>
      <trkpt lat="43.00164" lon="-0.21563">
        <ele>1199</ele>
        <time>2021-08-29T08:31:13Z</time>
      </trkpt>
      <trkpt lat="43.00163" lon="-0.21565">
        <ele>1199.2</ele>
        <time>2021-08-29T08:31:14Z</time>
      </trkpt>
      <trkpt lat="43.00163" lon="-0.21567">
        <ele>1199.2</ele>
        <time>2021-08-29T08:31:15Z</time>
      </trkpt>
      <trkpt lat="43.00162" lon="-0.21569">
        <ele>1199.2</ele>
        <time>2021-08-29T08:31:16Z</time>
      </trkpt>
      <trkpt lat="43.00161" lon="-0.21569">
        <ele>1199.6</ele>
        <time>2021-08-29T08:31:17Z</time>
      </trkpt>
      <trkpt lat="43.00161" lon="-0.21571">
        <ele>1199.6</ele>
        <time>2021-08-29T08:31:18Z</time>
      </trkpt>
      <trkpt lat="43.0016" lon="-0.21573">
        <ele>1199.8</ele>
        <time>2021-08-29T08:31:19Z</time>
      </trkpt>
      <trkpt lat="43.00159" lon="-0.21574">
        <ele>1200</ele>
        <time>2021-08-29T08:31:20Z</time>
      </trkpt>
      <trkpt lat="43.00158" lon="-0.21576">
        <ele>1200.2</ele>
        <time>2021-08-29T08:31:21Z</time>
      </trkpt>
      <trkpt lat="43.00158" lon="-0.21578">
        <ele>1200.4</ele>
        <time>2021-08-29T08:31:22Z</time>
      </trkpt>
      <trkpt lat="43.00157" lon="-0.2158">
        <ele>1200.4</ele>
        <time>2021-08-29T08:31:23Z</time>
      </trkpt>
      <trkpt lat="43.00156" lon="-0.21581">
        <ele>1200.6</ele>
        <time>2021-08-29T08:31:24Z</time>
      </trkpt>
      <trkpt lat="43.00155" lon="-0.21583">
        <ele>1200.8</ele>
        <time>2021-08-29T08:31:25Z</time>
      </trkpt>
      <trkpt lat="43.00155" lon="-0.21584">
        <ele>1200.8</ele>
        <time>2021-08-29T08:31:26Z</time>
      </trkpt>
      <trkpt lat="43.00154" lon="-0.21586">
        <ele>1201.2</ele>
        <time>2021-08-29T08:31:27Z</time>
      </trkpt>
      <trkpt lat="43.00152" lon="-0.21588">
        <ele>1201.4</ele>
        <time>2021-08-29T08:31:28Z</time>
      </trkpt>
      <trkpt lat="43.0015" lon="-0.21589">
        <ele>1201.6</ele>
        <time>2021-08-29T08:31:29Z</time>
      </trkpt>
      <trkpt lat="43.00148" lon="-0.21591">
        <ele>1201.6</ele>
        <time>2021-08-29T08:31:30Z</time>
      </trkpt>
      <trkpt lat="43.00147" lon="-0.21593">
        <ele>1201.8</ele>
        <time>2021-08-29T08:31:31Z</time>
      </trkpt>
      <trkpt lat="43.00146" lon="-0.21595">
        <ele>1202</ele>
        <time>2021-08-29T08:31:32Z</time>
      </trkpt>
      <trkpt lat="43.00144" lon="-0.21596">
        <ele>1202.2</ele>
        <time>2021-08-29T08:31:33Z</time>
      </trkpt>
      <trkpt lat="43.00143" lon="-0.21597">
        <ele>1202.6</ele>
        <time>2021-08-29T08:31:34Z</time>
      </trkpt>
      <trkpt lat="43.00142" lon="-0.21599">
        <ele>1202.6</ele>
        <time>2021-08-29T08:31:35Z</time>
      </trkpt>
      <trkpt lat="43.00142" lon="-0.216">
        <ele>1202.8</ele>
        <time>2021-08-29T08:31:36Z</time>
      </trkpt>
      <trkpt lat="43.00141" lon="-0.21601">
        <ele>1203</ele>
        <time>2021-08-29T08:31:37Z</time>
      </trkpt>
      <trkpt lat="43.00139" lon="-0.21602">
        <ele>1203</ele>
        <time>2021-08-29T08:31:38Z</time>
      </trkpt>
      <trkpt lat="43.00138" lon="-0.21602">
        <ele>1203.2</ele>
        <time>2021-08-29T08:31:39Z</time>
      </trkpt>
      <trkpt lat="43.00137" lon="-0.21604">
        <ele>1203.4</ele>
        <time>2021-08-29T08:31:40Z</time>
      </trkpt>
      <trkpt lat="43.00136" lon="-0.21605">
        <ele>1203.4</ele>
        <time>2021-08-29T08:31:41Z</time>
      </trkpt>
      <trkpt lat="43.00135" lon="-0.21606">
        <ele>1203.6</ele>
        <time>2021-08-29T08:31:42Z</time>
      </trkpt>
      <trkpt lat="43.00134" lon="-0.21607">
        <ele>1203.8</ele>
        <time>2021-08-29T08:31:43Z</time>
      </trkpt>
      <trkpt lat="43.00133" lon="-0.21609">
        <ele>1204.2</ele>
        <time>2021-08-29T08:31:44Z</time>
      </trkpt>
      <trkpt lat="43.00132" lon="-0.2161">
        <ele>1204.2</ele>
        <time>2021-08-29T08:31:45Z</time>
      </trkpt>
      <trkpt lat="43.00131" lon="-0.21611">
        <ele>1204.6</ele>
        <time>2021-08-29T08:31:46Z</time>
      </trkpt>
      <trkpt lat="43.0013" lon="-0.21612">
        <ele>1204.6</ele>
        <time>2021-08-29T08:31:47Z</time>
      </trkpt>
      <trkpt lat="43.00129" lon="-0.21613">
        <ele>1204.8</ele>
        <time>2021-08-29T08:31:48Z</time>
      </trkpt>
      <trkpt lat="43.00128" lon="-0.21614">
        <ele>1205</ele>
        <time>2021-08-29T08:31:49Z</time>
      </trkpt>
      <trkpt lat="43.00128" lon="-0.21616">
        <ele>1205</ele>
        <time>2021-08-29T08:31:50Z</time>
      </trkpt>
      <trkpt lat="43.00127" lon="-0.21616">
        <ele>1205.2</ele>
        <time>2021-08-29T08:31:51Z</time>
      </trkpt>
      <trkpt lat="43.00126" lon="-0.21618">
        <ele>1205.4</ele>
        <time>2021-08-29T08:31:52Z</time>
      </trkpt>
      <trkpt lat="43.00125" lon="-0.21618">
        <ele>1205.8</ele>
        <time>2021-08-29T08:31:53Z</time>
      </trkpt>
      <trkpt lat="43.00124" lon="-0.21619">
        <ele>1205.8</ele>
        <time>2021-08-29T08:31:54Z</time>
      </trkpt>
      <trkpt lat="43.00123" lon="-0.2162">
        <ele>1206.2</ele>
        <time>2021-08-29T08:31:55Z</time>
      </trkpt>
      <trkpt lat="43.00122" lon="-0.2162">
        <ele>1206.2</ele>
        <time>2021-08-29T08:31:56Z</time>
      </trkpt>
      <trkpt lat="43.0012" lon="-0.21621">
        <ele>1206.4</ele>
        <time>2021-08-29T08:31:57Z</time>
      </trkpt>
      <trkpt lat="43.00119" lon="-0.21622">
        <ele>1206.6</ele>
        <time>2021-08-29T08:31:58Z</time>
      </trkpt>
      <trkpt lat="43.00118" lon="-0.21623">
        <ele>1206.8</ele>
        <time>2021-08-29T08:31:59Z</time>
      </trkpt>
      <trkpt lat="43.00117" lon="-0.21624">
        <ele>1207</ele>
        <time>2021-08-29T08:32:00Z</time>
      </trkpt>
      <trkpt lat="43.00115" lon="-0.21624">
        <ele>1207.2</ele>
        <time>2021-08-29T08:32:01Z</time>
      </trkpt>
      <trkpt lat="43.00114" lon="-0.21624">
        <ele>1207.4</ele>
        <time>2021-08-29T08:32:02Z</time>
      </trkpt>
      <trkpt lat="43.00113" lon="-0.21625">
        <ele>1207.4</ele>
        <time>2021-08-29T08:32:03Z</time>
      </trkpt>
      <trkpt lat="43.00112" lon="-0.21625">
        <ele>1207.6</ele>
        <time>2021-08-29T08:32:04Z</time>
      </trkpt>
      <trkpt lat="43.00112" lon="-0.21625">
        <ele>1207.6</ele>
        <time>2021-08-29T08:32:05Z</time>
      </trkpt>
      <trkpt lat="43.00111" lon="-0.21626">
        <ele>1207.8</ele>
        <time>2021-08-29T08:32:06Z</time>
      </trkpt>
      <trkpt lat="43.00109" lon="-0.21626">
        <ele>1208</ele>
        <time>2021-08-29T08:32:07Z</time>
      </trkpt>
      <trkpt lat="43.00108" lon="-0.21626">
        <ele>1208</ele>
        <time>2021-08-29T08:32:08Z</time>
      </trkpt>
      <trkpt lat="43.00106" lon="-0.21627">
        <ele>1208.2</ele>
        <time>2021-08-29T08:32:09Z</time>
      </trkpt>
      <trkpt lat="43.00105" lon="-0.21627">
        <ele>1208.4</ele>
        <time>2021-08-29T08:32:10Z</time>
      </trkpt>
      <trkpt lat="43.00104" lon="-0.21627">
        <ele>1208.6</ele>
        <time>2021-08-29T08:32:11Z</time>
      </trkpt>
      <trkpt lat="43.00103" lon="-0.21628">
        <ele>1208.8</ele>
        <time>2021-08-29T08:32:12Z</time>
      </trkpt>
      <trkpt lat="43.00101" lon="-0.21628">
        <ele>1208.8</ele>
        <time>2021-08-29T08:32:13Z</time>
      </trkpt>
      <trkpt lat="43.001" lon="-0.21629">
        <ele>1209</ele>
        <time>2021-08-29T08:32:14Z</time>
      </trkpt>
      <trkpt lat="43.00099" lon="-0.21629">
        <ele>1209</ele>
        <time>2021-08-29T08:32:15Z</time>
      </trkpt>
      <trkpt lat="43.00098" lon="-0.21629">
        <ele>1209.2</ele>
        <time>2021-08-29T08:32:16Z</time>
      </trkpt>
      <trkpt lat="43.00097" lon="-0.2163">
        <ele>1209.2</ele>
        <time>2021-08-29T08:32:17Z</time>
      </trkpt>
      <trkpt lat="43.00095" lon="-0.2163">
        <ele>1209.4</ele>
        <time>2021-08-29T08:32:18Z</time>
      </trkpt>
      <trkpt lat="43.00094" lon="-0.2163">
        <ele>1209.6</ele>
        <time>2021-08-29T08:32:19Z</time>
      </trkpt>
      <trkpt lat="43.00093" lon="-0.2163">
        <ele>1209.8</ele>
        <time>2021-08-29T08:32:20Z</time>
      </trkpt>
      <trkpt lat="43.00092" lon="-0.21631">
        <ele>1210</ele>
        <time>2021-08-29T08:32:21Z</time>
      </trkpt>
      <trkpt lat="43.00091" lon="-0.21631">
        <ele>1210.2</ele>
        <time>2021-08-29T08:32:22Z</time>
      </trkpt>
      <trkpt lat="43.00089" lon="-0.21631">
        <ele>1210.4</ele>
        <time>2021-08-29T08:32:23Z</time>
      </trkpt>
      <trkpt lat="43.00088" lon="-0.21631">
        <ele>1210.6</ele>
        <time>2021-08-29T08:32:24Z</time>
      </trkpt>
      <trkpt lat="43.00087" lon="-0.21632">
        <ele>1210.8</ele>
        <time>2021-08-29T08:32:25Z</time>
      </trkpt>
      <trkpt lat="43.00086" lon="-0.21632">
        <ele>1210.8</ele>
        <time>2021-08-29T08:32:26Z</time>
      </trkpt>
      <trkpt lat="43.00085" lon="-0.21632">
        <ele>1211</ele>
        <time>2021-08-29T08:32:27Z</time>
      </trkpt>
      <trkpt lat="43.00083" lon="-0.21632">
        <ele>1211.2</ele>
        <time>2021-08-29T08:32:28Z</time>
      </trkpt>
      <trkpt lat="43.00082" lon="-0.21633">
        <ele>1211.2</ele>
        <time>2021-08-29T08:32:29Z</time>
      </trkpt>
      <trkpt lat="43.00081" lon="-0.21633">
        <ele>1211.4</ele>
        <time>2021-08-29T08:32:30Z</time>
      </trkpt>
      <trkpt lat="43.00079" lon="-0.21634">
        <ele>1211.8</ele>
        <time>2021-08-29T08:32:31Z</time>
      </trkpt>
      <trkpt lat="43.00078" lon="-0.21634">
        <ele>1212</ele>
        <time>2021-08-29T08:32:32Z</time>
      </trkpt>
      <trkpt lat="43.00076" lon="-0.21635">
        <ele>1212.2</ele>
        <time>2021-08-29T08:32:33Z</time>
      </trkpt>
      <trkpt lat="43.00075" lon="-0.21635">
        <ele>1212.4</ele>
        <time>2021-08-29T08:32:34Z</time>
      </trkpt>
      <trkpt lat="43.00074" lon="-0.21636">
        <ele>1212.4</ele>
        <time>2021-08-29T08:32:35Z</time>
      </trkpt>
      <trkpt lat="43.00072" lon="-0.21636">
        <ele>1212.6</ele>
        <time>2021-08-29T08:32:36Z</time>
      </trkpt>
      <trkpt lat="43.00071" lon="-0.21637">
        <ele>1213</ele>
        <time>2021-08-29T08:32:37Z</time>
      </trkpt>
      <trkpt lat="43.0007" lon="-0.21638">
        <ele>1213</ele>
        <time>2021-08-29T08:32:38Z</time>
      </trkpt>
      <trkpt lat="43.00069" lon="-0.21639">
        <ele>1213.4</ele>
        <time>2021-08-29T08:32:39Z</time>
      </trkpt>
      <trkpt lat="43.00068" lon="-0.2164">
        <ele>1213.4</ele>
        <time>2021-08-29T08:32:40Z</time>
      </trkpt>
      <trkpt lat="43.00066" lon="-0.2164">
        <ele>1213.6</ele>
        <time>2021-08-29T08:32:41Z</time>
      </trkpt>
      <trkpt lat="43.00065" lon="-0.21641">
        <ele>1213.6</ele>
        <time>2021-08-29T08:32:42Z</time>
      </trkpt>
      <trkpt lat="43.00064" lon="-0.21642">
        <ele>1213.8</ele>
        <time>2021-08-29T08:32:43Z</time>
      </trkpt>
      <trkpt lat="43.00063" lon="-0.21642">
        <ele>1214</ele>
        <time>2021-08-29T08:32:44Z</time>
      </trkpt>
      <trkpt lat="43.00062" lon="-0.21643">
        <ele>1214</ele>
        <time>2021-08-29T08:32:45Z</time>
      </trkpt>
      <trkpt lat="43.0006" lon="-0.21643">
        <ele>1214.2</ele>
        <time>2021-08-29T08:32:46Z</time>
      </trkpt>
      <trkpt lat="43.00059" lon="-0.21644">
        <ele>1214.2</ele>
        <time>2021-08-29T08:32:47Z</time>
      </trkpt>
      <trkpt lat="43.00058" lon="-0.21644">
        <ele>1214.6</ele>
        <time>2021-08-29T08:32:48Z</time>
      </trkpt>
      <trkpt lat="43.00057" lon="-0.21645">
        <ele>1214.6</ele>
        <time>2021-08-29T08:32:49Z</time>
      </trkpt>
      <trkpt lat="43.00056" lon="-0.21646">
        <ele>1214.8</ele>
        <time>2021-08-29T08:32:50Z</time>
      </trkpt>
      <trkpt lat="43.00055" lon="-0.21646">
        <ele>1214.8</ele>
        <time>2021-08-29T08:32:51Z</time>
      </trkpt>
      <trkpt lat="43.00054" lon="-0.21647">
        <ele>1215</ele>
        <time>2021-08-29T08:32:52Z</time>
      </trkpt>
      <trkpt lat="43.00053" lon="-0.21648">
        <ele>1215</ele>
        <time>2021-08-29T08:32:53Z</time>
      </trkpt>
      <trkpt lat="43.00052" lon="-0.21649">
        <ele>1215.4</ele>
        <time>2021-08-29T08:32:54Z</time>
      </trkpt>
      <trkpt lat="43.00051" lon="-0.2165">
        <ele>1215.4</ele>
        <time>2021-08-29T08:32:55Z</time>
      </trkpt>
      <trkpt lat="43.0005" lon="-0.21651">
        <ele>1215.8</ele>
        <time>2021-08-29T08:32:56Z</time>
      </trkpt>
      <trkpt lat="43.00049" lon="-0.21652">
        <ele>1215.8</ele>
        <time>2021-08-29T08:32:57Z</time>
      </trkpt>
      <trkpt lat="43.00048" lon="-0.21653">
        <ele>1216</ele>
        <time>2021-08-29T08:32:58Z</time>
      </trkpt>
      <trkpt lat="43.00047" lon="-0.21654">
        <ele>1216</ele>
        <time>2021-08-29T08:32:59Z</time>
      </trkpt>
      <trkpt lat="43.00047" lon="-0.21655">
        <ele>1216.2</ele>
        <time>2021-08-29T08:33:00Z</time>
      </trkpt>
      <trkpt lat="43.00046" lon="-0.21656">
        <ele>1216.4</ele>
        <time>2021-08-29T08:33:01Z</time>
      </trkpt>
      <trkpt lat="43.00045" lon="-0.21658">
        <ele>1216.4</ele>
        <time>2021-08-29T08:33:02Z</time>
      </trkpt>
      <trkpt lat="43.00044" lon="-0.21659">
        <ele>1216.6</ele>
        <time>2021-08-29T08:33:03Z</time>
      </trkpt>
      <trkpt lat="43.00044" lon="-0.2166">
        <ele>1216.6</ele>
        <time>2021-08-29T08:33:04Z</time>
      </trkpt>
      <trkpt lat="43.00042" lon="-0.2166">
        <ele>1216.8</ele>
        <time>2021-08-29T08:33:05Z</time>
      </trkpt>
      <trkpt lat="43.00041" lon="-0.21661">
        <ele>1217</ele>
        <time>2021-08-29T08:33:06Z</time>
      </trkpt>
      <trkpt lat="43.0004" lon="-0.21662">
        <ele>1217.2</ele>
        <time>2021-08-29T08:33:07Z</time>
      </trkpt>
      <trkpt lat="43.0004" lon="-0.21663">
        <ele>1217.2</ele>
        <time>2021-08-29T08:33:08Z</time>
      </trkpt>
      <trkpt lat="43.00039" lon="-0.21665">
        <ele>1217.6</ele>
        <time>2021-08-29T08:33:09Z</time>
      </trkpt>
      <trkpt lat="43.00038" lon="-0.21666">
        <ele>1217.8</ele>
        <time>2021-08-29T08:33:10Z</time>
      </trkpt>
      <trkpt lat="43.00037" lon="-0.21668">
        <ele>1217.8</ele>
        <time>2021-08-29T08:33:11Z</time>
      </trkpt>
      <trkpt lat="43.00037" lon="-0.21668">
        <ele>1218</ele>
        <time>2021-08-29T08:33:12Z</time>
      </trkpt>
      <trkpt lat="43.00036" lon="-0.21669">
        <ele>1218.2</ele>
        <time>2021-08-29T08:33:13Z</time>
      </trkpt>
      <trkpt lat="43.00035" lon="-0.2167">
        <ele>1218.2</ele>
        <time>2021-08-29T08:33:14Z</time>
      </trkpt>
      <trkpt lat="43.00034" lon="-0.21671">
        <ele>1218.4</ele>
        <time>2021-08-29T08:33:15Z</time>
      </trkpt>
      <trkpt lat="43.00033" lon="-0.21672">
        <ele>1218.4</ele>
        <time>2021-08-29T08:33:16Z</time>
      </trkpt>
      <trkpt lat="43.00032" lon="-0.21673">
        <ele>1218.6</ele>
        <time>2021-08-29T08:33:17Z</time>
      </trkpt>
      <trkpt lat="43.00031" lon="-0.21674">
        <ele>1218.8</ele>
        <time>2021-08-29T08:33:18Z</time>
      </trkpt>
      <trkpt lat="43.0003" lon="-0.21675">
        <ele>1218.8</ele>
        <time>2021-08-29T08:33:19Z</time>
      </trkpt>
      <trkpt lat="43.0003" lon="-0.21676">
        <ele>1219</ele>
        <time>2021-08-29T08:33:20Z</time>
      </trkpt>
      <trkpt lat="43.00029" lon="-0.21677">
        <ele>1219.2</ele>
        <time>2021-08-29T08:33:21Z</time>
      </trkpt>
      <trkpt lat="43.00028" lon="-0.21679">
        <ele>1219.2</ele>
        <time>2021-08-29T08:33:22Z</time>
      </trkpt>
      <trkpt lat="43.00028" lon="-0.2168">
        <ele>1219.4</ele>
        <time>2021-08-29T08:33:23Z</time>
      </trkpt>
      <trkpt lat="43.00027" lon="-0.21681">
        <ele>1219.6</ele>
        <time>2021-08-29T08:33:24Z</time>
      </trkpt>
      <trkpt lat="43.00026" lon="-0.21683">
        <ele>1219.6</ele>
        <time>2021-08-29T08:33:25Z</time>
      </trkpt>
      <trkpt lat="43.00025" lon="-0.21685">
        <ele>1220</ele>
        <time>2021-08-29T08:33:26Z</time>
      </trkpt>
      <trkpt lat="43.00024" lon="-0.21686">
        <ele>1220</ele>
        <time>2021-08-29T08:33:27Z</time>
      </trkpt>
      <trkpt lat="43.00023" lon="-0.21688">
        <ele>1220.2</ele>
        <time>2021-08-29T08:33:28Z</time>
      </trkpt>
      <trkpt lat="43.00023" lon="-0.2169">
        <ele>1220.2</ele>
        <time>2021-08-29T08:33:29Z</time>
      </trkpt>
      <trkpt lat="43.00022" lon="-0.21691">
        <ele>1220.6</ele>
        <time>2021-08-29T08:33:30Z</time>
      </trkpt>
      <trkpt lat="43.00021" lon="-0.21693">
        <ele>1220.6</ele>
        <time>2021-08-29T08:33:31Z</time>
      </trkpt>
      <trkpt lat="43.00021" lon="-0.21694">
        <ele>1221</ele>
        <time>2021-08-29T08:33:32Z</time>
      </trkpt>
      <trkpt lat="43.00019" lon="-0.21695">
        <ele>1221</ele>
        <time>2021-08-29T08:33:33Z</time>
      </trkpt>
      <trkpt lat="43.00018" lon="-0.21697">
        <ele>1221.4</ele>
        <time>2021-08-29T08:33:34Z</time>
      </trkpt>
      <trkpt lat="43.00017" lon="-0.21698">
        <ele>1221.6</ele>
        <time>2021-08-29T08:33:35Z</time>
      </trkpt>
      <trkpt lat="43.00016" lon="-0.21699">
        <ele>1221.6</ele>
        <time>2021-08-29T08:33:36Z</time>
      </trkpt>
      <trkpt lat="43.00015" lon="-0.21701">
        <ele>1222</ele>
        <time>2021-08-29T08:33:37Z</time>
      </trkpt>
      <trkpt lat="43.00014" lon="-0.21702">
        <ele>1222</ele>
        <time>2021-08-29T08:33:38Z</time>
      </trkpt>
      <trkpt lat="43.00014" lon="-0.21703">
        <ele>1222.4</ele>
        <time>2021-08-29T08:33:39Z</time>
      </trkpt>
      <trkpt lat="43.00013" lon="-0.21704">
        <ele>1222.6</ele>
        <time>2021-08-29T08:33:40Z</time>
      </trkpt>
      <trkpt lat="43.00012" lon="-0.21706">
        <ele>1222.8</ele>
        <time>2021-08-29T08:33:41Z</time>
      </trkpt>
      <trkpt lat="43.00012" lon="-0.21707">
        <ele>1222.8</ele>
        <time>2021-08-29T08:33:42Z</time>
      </trkpt>
      <trkpt lat="43.00011" lon="-0.21709">
        <ele>1223</ele>
        <time>2021-08-29T08:33:43Z</time>
      </trkpt>
      <trkpt lat="43.00011" lon="-0.2171">
        <ele>1223.2</ele>
        <time>2021-08-29T08:33:44Z</time>
      </trkpt>
      <trkpt lat="43.0001" lon="-0.21711">
        <ele>1223.2</ele>
        <time>2021-08-29T08:33:45Z</time>
      </trkpt>
      <trkpt lat="43.00009" lon="-0.21712">
        <ele>1223.4</ele>
        <time>2021-08-29T08:33:46Z</time>
      </trkpt>
      <trkpt lat="43.00008" lon="-0.21714">
        <ele>1223.6</ele>
        <time>2021-08-29T08:33:47Z</time>
      </trkpt>
      <trkpt lat="43.00008" lon="-0.21715">
        <ele>1223.6</ele>
        <time>2021-08-29T08:33:48Z</time>
      </trkpt>
      <trkpt lat="43.00007" lon="-0.21716">
        <ele>1223.8</ele>
        <time>2021-08-29T08:33:49Z</time>
      </trkpt>
      <trkpt lat="43.00007" lon="-0.21718">
        <ele>1224</ele>
        <time>2021-08-29T08:33:50Z</time>
      </trkpt>
      <trkpt lat="43.00006" lon="-0.21719">
        <ele>1224.2</ele>
        <time>2021-08-29T08:33:51Z</time>
      </trkpt>
      <trkpt lat="43.00006" lon="-0.21721">
        <ele>1224.2</ele>
        <time>2021-08-29T08:33:52Z</time>
      </trkpt>
      <trkpt lat="43.00005" lon="-0.21722">
        <ele>1224.2</ele>
        <time>2021-08-29T08:33:53Z</time>
      </trkpt>
      <trkpt lat="43.00004" lon="-0.21724">
        <ele>1224.4</ele>
        <time>2021-08-29T08:33:54Z</time>
      </trkpt>
      <trkpt lat="43.00004" lon="-0.21725">
        <ele>1224.6</ele>
        <time>2021-08-29T08:33:55Z</time>
      </trkpt>
      <trkpt lat="43.00003" lon="-0.21727">
        <ele>1224.8</ele>
        <time>2021-08-29T08:33:56Z</time>
      </trkpt>
      <trkpt lat="43.00002" lon="-0.21728">
        <ele>1225</ele>
        <time>2021-08-29T08:33:57Z</time>
      </trkpt>
      <trkpt lat="43.00001" lon="-0.21729">
        <ele>1225.2</ele>
        <time>2021-08-29T08:33:58Z</time>
      </trkpt>
      <trkpt lat="43.00001" lon="-0.21731">
        <ele>1225.6</ele>
        <time>2021-08-29T08:33:59Z</time>
      </trkpt>
      <trkpt lat="43" lon="-0.21732">
        <ele>1225.8</ele>
        <time>2021-08-29T08:34:00Z</time>
      </trkpt>
      <trkpt lat="43" lon="-0.21734">
        <ele>1225.8</ele>
        <time>2021-08-29T08:34:01Z</time>
      </trkpt>
      <trkpt lat="42.99999" lon="-0.21736">
        <ele>1226</ele>
        <time>2021-08-29T08:34:02Z</time>
      </trkpt>
      <trkpt lat="42.99999" lon="-0.21738">
        <ele>1226.2</ele>
        <time>2021-08-29T08:34:03Z</time>
      </trkpt>
      <trkpt lat="42.99998" lon="-0.2174">
        <ele>1226.4</ele>
        <time>2021-08-29T08:34:04Z</time>
      </trkpt>
      <trkpt lat="42.99998" lon="-0.21742">
        <ele>1226.4</ele>
        <time>2021-08-29T08:34:05Z</time>
      </trkpt>
      <trkpt lat="42.99998" lon="-0.21744">
        <ele>1226.8</ele>
        <time>2021-08-29T08:34:06Z</time>
      </trkpt>
      <trkpt lat="42.99998" lon="-0.21746">
        <ele>1226.8</ele>
        <time>2021-08-29T08:34:07Z</time>
      </trkpt>
      <trkpt lat="42.99998" lon="-0.21748">
        <ele>1227.2</ele>
        <time>2021-08-29T08:34:08Z</time>
      </trkpt>
      <trkpt lat="42.99998" lon="-0.2175">
        <ele>1227.4</ele>
        <time>2021-08-29T08:34:09Z</time>
      </trkpt>
      <trkpt lat="42.99997" lon="-0.21752">
        <ele>1227.4</ele>
        <time>2021-08-29T08:34:10Z</time>
      </trkpt>
      <trkpt lat="42.99997" lon="-0.21753">
        <ele>1227.6</ele>
        <time>2021-08-29T08:34:11Z</time>
      </trkpt>
      <trkpt lat="42.99997" lon="-0.21755">
        <ele>1227.8</ele>
        <time>2021-08-29T08:34:12Z</time>
      </trkpt>
      <trkpt lat="42.99997" lon="-0.21756">
        <ele>1228</ele>
        <time>2021-08-29T08:34:13Z</time>
      </trkpt>
      <trkpt lat="42.99996" lon="-0.21758">
        <ele>1228.2</ele>
        <time>2021-08-29T08:34:14Z</time>
      </trkpt>
      <trkpt lat="42.99996" lon="-0.2176">
        <ele>1228.4</ele>
        <time>2021-08-29T08:34:15Z</time>
      </trkpt>
      <trkpt lat="42.99995" lon="-0.21762">
        <ele>1228.4</ele>
        <time>2021-08-29T08:34:16Z</time>
      </trkpt>
      <trkpt lat="42.99995" lon="-0.21764">
        <ele>1228.6</ele>
        <time>2021-08-29T08:34:17Z</time>
      </trkpt>
      <trkpt lat="42.99994" lon="-0.21766">
        <ele>1228.6</ele>
        <time>2021-08-29T08:34:18Z</time>
      </trkpt>
      <trkpt lat="42.99994" lon="-0.21767">
        <ele>1228.8</ele>
        <time>2021-08-29T08:34:19Z</time>
      </trkpt>
      <trkpt lat="42.99993" lon="-0.21769">
        <ele>1229</ele>
        <time>2021-08-29T08:34:20Z</time>
      </trkpt>
      <trkpt lat="42.99993" lon="-0.21771">
        <ele>1229.2</ele>
        <time>2021-08-29T08:34:21Z</time>
      </trkpt>
      <trkpt lat="42.99992" lon="-0.21773">
        <ele>1229.4</ele>
        <time>2021-08-29T08:34:22Z</time>
      </trkpt>
      <trkpt lat="42.99992" lon="-0.21775">
        <ele>1229.6</ele>
        <time>2021-08-29T08:34:23Z</time>
      </trkpt>
      <trkpt lat="42.99992" lon="-0.21777">
        <ele>1229.6</ele>
        <time>2021-08-29T08:34:24Z</time>
      </trkpt>
      <trkpt lat="42.99991" lon="-0.21779">
        <ele>1229.8</ele>
        <time>2021-08-29T08:34:25Z</time>
      </trkpt>
      <trkpt lat="42.9999" lon="-0.2178">
        <ele>1229.8</ele>
        <time>2021-08-29T08:34:26Z</time>
      </trkpt>
      <trkpt lat="42.9999" lon="-0.21782">
        <ele>1230.2</ele>
        <time>2021-08-29T08:34:27Z</time>
      </trkpt>
      <trkpt lat="42.99989" lon="-0.21784">
        <ele>1230.6</ele>
        <time>2021-08-29T08:34:28Z</time>
      </trkpt>
      <trkpt lat="42.99989" lon="-0.21785">
        <ele>1231</ele>
        <time>2021-08-29T08:34:29Z</time>
      </trkpt>
      <trkpt lat="42.99988" lon="-0.21786">
        <ele>1231.4</ele>
        <time>2021-08-29T08:34:30Z</time>
      </trkpt>
      <trkpt lat="42.99987" lon="-0.21787">
        <ele>1231.4</ele>
        <time>2021-08-29T08:34:31Z</time>
      </trkpt>
      <trkpt lat="42.99987" lon="-0.21789">
        <ele>1231.6</ele>
        <time>2021-08-29T08:34:32Z</time>
      </trkpt>
      <trkpt lat="42.99986" lon="-0.2179">
        <ele>1231.8</ele>
        <time>2021-08-29T08:34:33Z</time>
      </trkpt>
      <trkpt lat="42.99985" lon="-0.21791">
        <ele>1232</ele>
        <time>2021-08-29T08:34:34Z</time>
      </trkpt>
      <trkpt lat="42.99984" lon="-0.21792">
        <ele>1232.2</ele>
        <time>2021-08-29T08:34:35Z</time>
      </trkpt>
      <trkpt lat="42.99983" lon="-0.21793">
        <ele>1232.4</ele>
        <time>2021-08-29T08:34:36Z</time>
      </trkpt>
      <trkpt lat="42.99982" lon="-0.21794">
        <ele>1232.6</ele>
        <time>2021-08-29T08:34:37Z</time>
      </trkpt>
      <trkpt lat="42.99981" lon="-0.21795">
        <ele>1232.6</ele>
        <time>2021-08-29T08:34:38Z</time>
      </trkpt>
      <trkpt lat="42.9998" lon="-0.21795">
        <ele>1232.8</ele>
        <time>2021-08-29T08:34:39Z</time>
      </trkpt>
      <trkpt lat="42.99979" lon="-0.21796">
        <ele>1233</ele>
        <time>2021-08-29T08:34:40Z</time>
      </trkpt>
      <trkpt lat="42.99978" lon="-0.21797">
        <ele>1233.2</ele>
        <time>2021-08-29T08:34:41Z</time>
      </trkpt>
      <trkpt lat="42.99976" lon="-0.21797">
        <ele>1233.4</ele>
        <time>2021-08-29T08:34:42Z</time>
      </trkpt>
      <trkpt lat="42.99975" lon="-0.21798">
        <ele>1233.6</ele>
        <time>2021-08-29T08:34:43Z</time>
      </trkpt>
      <trkpt lat="42.99974" lon="-0.21798">
        <ele>1233.8</ele>
        <time>2021-08-29T08:34:44Z</time>
      </trkpt>
      <trkpt lat="42.99973" lon="-0.21799">
        <ele>1234</ele>
        <time>2021-08-29T08:34:45Z</time>
      </trkpt>
      <trkpt lat="42.99972" lon="-0.21799">
        <ele>1234.2</ele>
        <time>2021-08-29T08:34:46Z</time>
      </trkpt>
      <trkpt lat="42.99971" lon="-0.21799">
        <ele>1234.4</ele>
        <time>2021-08-29T08:34:47Z</time>
      </trkpt>
      <trkpt lat="42.9997" lon="-0.21798">
        <ele>1234.4</ele>
        <time>2021-08-29T08:34:48Z</time>
      </trkpt>
      <trkpt lat="42.99969" lon="-0.21798">
        <ele>1234.6</ele>
        <time>2021-08-29T08:34:49Z</time>
      </trkpt>
      <trkpt lat="42.99968" lon="-0.21798">
        <ele>1234.6</ele>
        <time>2021-08-29T08:34:50Z</time>
      </trkpt>
      <trkpt lat="42.99967" lon="-0.21798">
        <ele>1234.8</ele>
        <time>2021-08-29T08:34:51Z</time>
      </trkpt>
      <trkpt lat="42.99966" lon="-0.21798">
        <ele>1235</ele>
        <time>2021-08-29T08:34:52Z</time>
      </trkpt>
      <trkpt lat="42.99965" lon="-0.21797">
        <ele>1235.2</ele>
        <time>2021-08-29T08:34:53Z</time>
      </trkpt>
      <trkpt lat="42.99964" lon="-0.21796">
        <ele>1235.2</ele>
        <time>2021-08-29T08:34:54Z</time>
      </trkpt>
      <trkpt lat="42.99963" lon="-0.21796">
        <ele>1235.2</ele>
        <time>2021-08-29T08:34:55Z</time>
      </trkpt>
      <trkpt lat="42.99962" lon="-0.21795">
        <ele>1235.4</ele>
        <time>2021-08-29T08:34:56Z</time>
      </trkpt>
      <trkpt lat="42.9996" lon="-0.21794">
        <ele>1235.4</ele>
        <time>2021-08-29T08:34:57Z</time>
      </trkpt>
      <trkpt lat="42.9996" lon="-0.21794">
        <ele>1235.4</ele>
        <time>2021-08-29T08:34:58Z</time>
      </trkpt>
      <trkpt lat="42.99958" lon="-0.21793">
        <ele>1235.8</ele>
        <time>2021-08-29T08:34:59Z</time>
      </trkpt>
      <trkpt lat="42.99957" lon="-0.21793">
        <ele>1236</ele>
        <time>2021-08-29T08:35:00Z</time>
      </trkpt>
      <trkpt lat="42.99956" lon="-0.21792">
        <ele>1236.4</ele>
        <time>2021-08-29T08:35:01Z</time>
      </trkpt>
      <trkpt lat="42.99954" lon="-0.21791">
        <ele>1236.6</ele>
        <time>2021-08-29T08:35:02Z</time>
      </trkpt>
      <trkpt lat="42.99953" lon="-0.2179">
        <ele>1236.6</ele>
        <time>2021-08-29T08:35:03Z</time>
      </trkpt>
      <trkpt lat="42.99952" lon="-0.21789">
        <ele>1236.8</ele>
        <time>2021-08-29T08:35:04Z</time>
      </trkpt>
      <trkpt lat="42.99951" lon="-0.21788">
        <ele>1236.8</ele>
        <time>2021-08-29T08:35:05Z</time>
      </trkpt>
      <trkpt lat="42.9995" lon="-0.21787">
        <ele>1237</ele>
        <time>2021-08-29T08:35:06Z</time>
      </trkpt>
      <trkpt lat="42.99949" lon="-0.21786">
        <ele>1237</ele>
        <time>2021-08-29T08:35:07Z</time>
      </trkpt>
      <trkpt lat="42.99947" lon="-0.21785">
        <ele>1237.2</ele>
        <time>2021-08-29T08:35:08Z</time>
      </trkpt>
      <trkpt lat="42.99946" lon="-0.21784">
        <ele>1237.4</ele>
        <time>2021-08-29T08:35:09Z</time>
      </trkpt>
      <trkpt lat="42.99944" lon="-0.21784">
        <ele>1237.6</ele>
        <time>2021-08-29T08:35:10Z</time>
      </trkpt>
      <trkpt lat="42.99942" lon="-0.21783">
        <ele>1237.6</ele>
        <time>2021-08-29T08:35:11Z</time>
      </trkpt>
      <trkpt lat="42.9994" lon="-0.21782">
        <ele>1237.8</ele>
        <time>2021-08-29T08:35:12Z</time>
      </trkpt>
      <trkpt lat="42.99939" lon="-0.21781">
        <ele>1237.8</ele>
        <time>2021-08-29T08:35:13Z</time>
      </trkpt>
      <trkpt lat="42.99937" lon="-0.2178">
        <ele>1238.2</ele>
        <time>2021-08-29T08:35:14Z</time>
      </trkpt>
      <trkpt lat="42.99936" lon="-0.2178">
        <ele>1238.2</ele>
        <time>2021-08-29T08:35:15Z</time>
      </trkpt>
      <trkpt lat="42.99935" lon="-0.21779">
        <ele>1238.4</ele>
        <time>2021-08-29T08:35:16Z</time>
      </trkpt>
      <trkpt lat="42.99934" lon="-0.21778">
        <ele>1238.4</ele>
        <time>2021-08-29T08:35:17Z</time>
      </trkpt>
      <trkpt lat="42.99932" lon="-0.21778">
        <ele>1238.6</ele>
        <time>2021-08-29T08:35:18Z</time>
      </trkpt>
      <trkpt lat="42.99931" lon="-0.21777">
        <ele>1238.8</ele>
        <time>2021-08-29T08:35:19Z</time>
      </trkpt>
      <trkpt lat="42.9993" lon="-0.21776">
        <ele>1239</ele>
        <time>2021-08-29T08:35:20Z</time>
      </trkpt>
      <trkpt lat="42.99929" lon="-0.21776">
        <ele>1239</ele>
        <time>2021-08-29T08:35:21Z</time>
      </trkpt>
      <trkpt lat="42.99928" lon="-0.21775">
        <ele>1239.2</ele>
        <time>2021-08-29T08:35:22Z</time>
      </trkpt>
      <trkpt lat="42.99927" lon="-0.21774">
        <ele>1239.4</ele>
        <time>2021-08-29T08:35:23Z</time>
      </trkpt>
      <trkpt lat="42.99925" lon="-0.21773">
        <ele>1239.6</ele>
        <time>2021-08-29T08:35:24Z</time>
      </trkpt>
      <trkpt lat="42.99924" lon="-0.21773">
        <ele>1240</ele>
        <time>2021-08-29T08:35:25Z</time>
      </trkpt>
      <trkpt lat="42.99923" lon="-0.21772">
        <ele>1240</ele>
        <time>2021-08-29T08:35:26Z</time>
      </trkpt>
      <trkpt lat="42.99922" lon="-0.21771">
        <ele>1240.2</ele>
        <time>2021-08-29T08:35:27Z</time>
      </trkpt>
      <trkpt lat="42.99921" lon="-0.2177">
        <ele>1240.2</ele>
        <time>2021-08-29T08:35:28Z</time>
      </trkpt>
      <trkpt lat="42.99919" lon="-0.21768">
        <ele>1240.4</ele>
        <time>2021-08-29T08:35:29Z</time>
      </trkpt>
      <trkpt lat="42.99918" lon="-0.21767">
        <ele>1240.6</ele>
        <time>2021-08-29T08:35:30Z</time>
      </trkpt>
      <trkpt lat="42.99917" lon="-0.21766">
        <ele>1240.8</ele>
        <time>2021-08-29T08:35:31Z</time>
      </trkpt>
      <trkpt lat="42.99915" lon="-0.21765">
        <ele>1240.8</ele>
        <time>2021-08-29T08:35:32Z</time>
      </trkpt>
      <trkpt lat="42.99914" lon="-0.21764">
        <ele>1241</ele>
        <time>2021-08-29T08:35:33Z</time>
      </trkpt>
      <trkpt lat="42.99913" lon="-0.21764">
        <ele>1241.2</ele>
        <time>2021-08-29T08:35:34Z</time>
      </trkpt>
      <trkpt lat="42.99912" lon="-0.21763">
        <ele>1241.2</ele>
        <time>2021-08-29T08:35:35Z</time>
      </trkpt>
      <trkpt lat="42.9991" lon="-0.21762">
        <ele>1241.4</ele>
        <time>2021-08-29T08:35:36Z</time>
      </trkpt>
      <trkpt lat="42.99909" lon="-0.2176">
        <ele>1241.4</ele>
        <time>2021-08-29T08:35:37Z</time>
      </trkpt>
      <trkpt lat="42.99907" lon="-0.21759">
        <ele>1241.6</ele>
        <time>2021-08-29T08:35:38Z</time>
      </trkpt>
      <trkpt lat="42.99906" lon="-0.21758">
        <ele>1241.8</ele>
        <time>2021-08-29T08:35:39Z</time>
      </trkpt>
      <trkpt lat="42.99905" lon="-0.21756">
        <ele>1242</ele>
        <time>2021-08-29T08:35:40Z</time>
      </trkpt>
      <trkpt lat="42.99904" lon="-0.21755">
        <ele>1242.2</ele>
        <time>2021-08-29T08:35:41Z</time>
      </trkpt>
      <trkpt lat="42.99903" lon="-0.21753">
        <ele>1242.4</ele>
        <time>2021-08-29T08:35:42Z</time>
      </trkpt>
      <trkpt lat="42.99902" lon="-0.21752">
        <ele>1242.4</ele>
        <time>2021-08-29T08:35:43Z</time>
      </trkpt>
      <trkpt lat="42.99902" lon="-0.21751">
        <ele>1242.4</ele>
        <time>2021-08-29T08:35:44Z</time>
      </trkpt>
      <trkpt lat="42.99901" lon="-0.21749">
        <ele>1242.6</ele>
        <time>2021-08-29T08:35:45Z</time>
      </trkpt>
      <trkpt lat="42.99901" lon="-0.21748">
        <ele>1242.8</ele>
        <time>2021-08-29T08:35:46Z</time>
      </trkpt>
      <trkpt lat="42.999" lon="-0.21746">
        <ele>1242.8</ele>
        <time>2021-08-29T08:35:47Z</time>
      </trkpt>
      <trkpt lat="42.999" lon="-0.21745">
        <ele>1243</ele>
        <time>2021-08-29T08:35:48Z</time>
      </trkpt>
      <trkpt lat="42.99898" lon="-0.21744">
        <ele>1243</ele>
        <time>2021-08-29T08:35:49Z</time>
      </trkpt>
      <trkpt lat="42.99897" lon="-0.21743">
        <ele>1243.2</ele>
        <time>2021-08-29T08:35:50Z</time>
      </trkpt>
      <trkpt lat="42.99896" lon="-0.21741">
        <ele>1243.2</ele>
        <time>2021-08-29T08:35:51Z</time>
      </trkpt>
      <trkpt lat="42.99895" lon="-0.2174">
        <ele>1243.4</ele>
        <time>2021-08-29T08:35:52Z</time>
      </trkpt>
      <trkpt lat="42.99895" lon="-0.21738">
        <ele>1243.6</ele>
        <time>2021-08-29T08:35:53Z</time>
      </trkpt>
      <trkpt lat="42.99894" lon="-0.21737">
        <ele>1243.8</ele>
        <time>2021-08-29T08:35:54Z</time>
      </trkpt>
      <trkpt lat="42.99893" lon="-0.21736">
        <ele>1244.2</ele>
        <time>2021-08-29T08:35:55Z</time>
      </trkpt>
      <trkpt lat="42.99892" lon="-0.21735">
        <ele>1244.4</ele>
        <time>2021-08-29T08:35:56Z</time>
      </trkpt>
      <trkpt lat="42.99891" lon="-0.21733">
        <ele>1244.8</ele>
        <time>2021-08-29T08:35:57Z</time>
      </trkpt>
      <trkpt lat="42.9989" lon="-0.21731">
        <ele>1245</ele>
        <time>2021-08-29T08:35:58Z</time>
      </trkpt>
      <trkpt lat="42.99889" lon="-0.2173">
        <ele>1245</ele>
        <time>2021-08-29T08:35:59Z</time>
      </trkpt>
      <trkpt lat="42.99888" lon="-0.21728">
        <ele>1245.2</ele>
        <time>2021-08-29T08:36:00Z</time>
      </trkpt>
      <trkpt lat="42.99887" lon="-0.21727">
        <ele>1245.2</ele>
        <time>2021-08-29T08:36:01Z</time>
      </trkpt>
      <trkpt lat="42.99887" lon="-0.21727">
        <ele>1245.4</ele>
        <time>2021-08-29T08:36:02Z</time>
      </trkpt>
      <trkpt lat="42.99887" lon="-0.21727">
        <ele>1245.6</ele>
        <time>2021-08-29T08:36:03Z</time>
      </trkpt>
      <trkpt lat="42.99887" lon="-0.21726">
        <ele>1245.8</ele>
        <time>2021-08-29T08:36:04Z</time>
      </trkpt>
      <trkpt lat="42.99886" lon="-0.21725">
        <ele>1246</ele>
        <time>2021-08-29T08:36:05Z</time>
      </trkpt>
      <trkpt lat="42.99885" lon="-0.21723">
        <ele>1246</ele>
        <time>2021-08-29T08:36:06Z</time>
      </trkpt>
      <trkpt lat="42.99885" lon="-0.21721">
        <ele>1246.4</ele>
        <time>2021-08-29T08:36:07Z</time>
      </trkpt>
      <trkpt lat="42.99884" lon="-0.2172">
        <ele>1246.4</ele>
        <time>2021-08-29T08:36:08Z</time>
      </trkpt>
      <trkpt lat="42.99884" lon="-0.21718">
        <ele>1246.6</ele>
        <time>2021-08-29T08:36:09Z</time>
      </trkpt>
      <trkpt lat="42.99883" lon="-0.21716">
        <ele>1246.8</ele>
        <time>2021-08-29T08:36:10Z</time>
      </trkpt>
      <trkpt lat="42.99882" lon="-0.21715">
        <ele>1246.8</ele>
        <time>2021-08-29T08:36:11Z</time>
      </trkpt>
      <trkpt lat="42.9988" lon="-0.21713">
        <ele>1247</ele>
        <time>2021-08-29T08:36:12Z</time>
      </trkpt>
      <trkpt lat="42.99879" lon="-0.21712">
        <ele>1247</ele>
        <time>2021-08-29T08:36:13Z</time>
      </trkpt>
      <trkpt lat="42.99879" lon="-0.2171">
        <ele>1247.4</ele>
        <time>2021-08-29T08:36:14Z</time>
      </trkpt>
      <trkpt lat="42.99878" lon="-0.21708">
        <ele>1247.4</ele>
        <time>2021-08-29T08:36:15Z</time>
      </trkpt>
      <trkpt lat="42.99878" lon="-0.21707">
        <ele>1247.8</ele>
        <time>2021-08-29T08:36:16Z</time>
      </trkpt>
      <trkpt lat="42.99878" lon="-0.21705">
        <ele>1248</ele>
        <time>2021-08-29T08:36:17Z</time>
      </trkpt>
      <trkpt lat="42.99878" lon="-0.21703">
        <ele>1248.2</ele>
        <time>2021-08-29T08:36:18Z</time>
      </trkpt>
      <trkpt lat="42.99878" lon="-0.21701">
        <ele>1248.4</ele>
        <time>2021-08-29T08:36:19Z</time>
      </trkpt>
      <trkpt lat="42.99878" lon="-0.217">
        <ele>1248.4</ele>
        <time>2021-08-29T08:36:20Z</time>
      </trkpt>
      <trkpt lat="42.99877" lon="-0.21698">
        <ele>1248.6</ele>
        <time>2021-08-29T08:36:21Z</time>
      </trkpt>
      <trkpt lat="42.99876" lon="-0.21697">
        <ele>1248.8</ele>
        <time>2021-08-29T08:36:22Z</time>
      </trkpt>
      <trkpt lat="42.99876" lon="-0.21695">
        <ele>1249</ele>
        <time>2021-08-29T08:36:23Z</time>
      </trkpt>
      <trkpt lat="42.99876" lon="-0.21694">
        <ele>1249.2</ele>
        <time>2021-08-29T08:36:24Z</time>
      </trkpt>
      <trkpt lat="42.99876" lon="-0.21693">
        <ele>1249.4</ele>
        <time>2021-08-29T08:36:25Z</time>
      </trkpt>
      <trkpt lat="42.99876" lon="-0.21691">
        <ele>1249.4</ele>
        <time>2021-08-29T08:36:26Z</time>
      </trkpt>
      <trkpt lat="42.99876" lon="-0.21689">
        <ele>1249.6</ele>
        <time>2021-08-29T08:36:27Z</time>
      </trkpt>
      <trkpt lat="42.99876" lon="-0.21689">
        <ele>1249.8</ele>
        <time>2021-08-29T08:36:28Z</time>
      </trkpt>
      <trkpt lat="42.99877" lon="-0.21687">
        <ele>1250</ele>
        <time>2021-08-29T08:36:29Z</time>
      </trkpt>
      <trkpt lat="42.99877" lon="-0.21687">
        <ele>1250.2</ele>
        <time>2021-08-29T08:36:30Z</time>
      </trkpt>
      <trkpt lat="42.99877" lon="-0.21685">
        <ele>1250.6</ele>
        <time>2021-08-29T08:36:31Z</time>
      </trkpt>
      <trkpt lat="42.99876" lon="-0.21683">
        <ele>1250.6</ele>
        <time>2021-08-29T08:36:32Z</time>
      </trkpt>
      <trkpt lat="42.99875" lon="-0.21681">
        <ele>1250.8</ele>
        <time>2021-08-29T08:36:33Z</time>
      </trkpt>
      <trkpt lat="42.99873" lon="-0.21678">
        <ele>1250.8</ele>
        <time>2021-08-29T08:36:34Z</time>
      </trkpt>
      <trkpt lat="42.99873" lon="-0.21677">
        <ele>1251.2</ele>
        <time>2021-08-29T08:36:35Z</time>
      </trkpt>
      <trkpt lat="42.99874" lon="-0.21676">
        <ele>1251.2</ele>
        <time>2021-08-29T08:36:36Z</time>
      </trkpt>
      <trkpt lat="42.99874" lon="-0.21675">
        <ele>1251.4</ele>
        <time>2021-08-29T08:36:37Z</time>
      </trkpt>
      <trkpt lat="42.99874" lon="-0.21674">
        <ele>1251.6</ele>
        <time>2021-08-29T08:36:38Z</time>
      </trkpt>
      <trkpt lat="42.99874" lon="-0.21674">
        <ele>1251.8</ele>
        <time>2021-08-29T08:36:39Z</time>
      </trkpt>
      <trkpt lat="42.99874" lon="-0.21674">
        <ele>1251.8</ele>
        <time>2021-08-29T08:36:40Z</time>
      </trkpt>
      <trkpt lat="42.99874" lon="-0.21672">
        <ele>1252</ele>
        <time>2021-08-29T08:36:41Z</time>
      </trkpt>
      <trkpt lat="42.99875" lon="-0.21671">
        <ele>1252</ele>
        <time>2021-08-29T08:36:42Z</time>
      </trkpt>
      <trkpt lat="42.99875" lon="-0.21668">
        <ele>1252.2</ele>
        <time>2021-08-29T08:36:43Z</time>
      </trkpt>
      <trkpt lat="42.99876" lon="-0.21666">
        <ele>1252.2</ele>
        <time>2021-08-29T08:36:44Z</time>
      </trkpt>
      <trkpt lat="42.99872" lon="-0.21665">
        <ele>1252.4</ele>
        <time>2021-08-29T08:36:45Z</time>
      </trkpt>
      <trkpt lat="42.99867" lon="-0.21663">
        <ele>1252.8</ele>
        <time>2021-08-29T08:36:46Z</time>
      </trkpt>
      <trkpt lat="42.99866" lon="-0.21661">
        <ele>1253</ele>
        <time>2021-08-29T08:36:47Z</time>
      </trkpt>
      <trkpt lat="42.99865" lon="-0.2166">
        <ele>1253.2</ele>
        <time>2021-08-29T08:36:48Z</time>
      </trkpt>
      <trkpt lat="42.99864" lon="-0.21659">
        <ele>1253.2</ele>
        <time>2021-08-29T08:36:49Z</time>
      </trkpt>
      <trkpt lat="42.99863" lon="-0.21658">
        <ele>1253.4</ele>
        <time>2021-08-29T08:36:50Z</time>
      </trkpt>
      <trkpt lat="42.99862" lon="-0.21657">
        <ele>1253.6</ele>
        <time>2021-08-29T08:36:51Z</time>
      </trkpt>
      <trkpt lat="42.99861" lon="-0.21657">
        <ele>1253.6</ele>
        <time>2021-08-29T08:36:52Z</time>
      </trkpt>
      <trkpt lat="42.9986" lon="-0.21656">
        <ele>1253.8</ele>
        <time>2021-08-29T08:36:53Z</time>
      </trkpt>
      <trkpt lat="42.99858" lon="-0.21656">
        <ele>1254</ele>
        <time>2021-08-29T08:36:54Z</time>
      </trkpt>
      <trkpt lat="42.99857" lon="-0.21655">
        <ele>1254</ele>
        <time>2021-08-29T08:36:55Z</time>
      </trkpt>
      <trkpt lat="42.99856" lon="-0.21655">
        <ele>1254.2</ele>
        <time>2021-08-29T08:36:56Z</time>
      </trkpt>
      <trkpt lat="42.99855" lon="-0.21655">
        <ele>1254.4</ele>
        <time>2021-08-29T08:36:57Z</time>
      </trkpt>
      <trkpt lat="42.99854" lon="-0.21656">
        <ele>1254.6</ele>
        <time>2021-08-29T08:36:58Z</time>
      </trkpt>
      <trkpt lat="42.99852" lon="-0.21657">
        <ele>1255</ele>
        <time>2021-08-29T08:36:59Z</time>
      </trkpt>
      <trkpt lat="42.99851" lon="-0.21658">
        <ele>1255</ele>
        <time>2021-08-29T08:37:00Z</time>
      </trkpt>
      <trkpt lat="42.9985" lon="-0.21659">
        <ele>1255.2</ele>
        <time>2021-08-29T08:37:01Z</time>
      </trkpt>
      <trkpt lat="42.99849" lon="-0.21659">
        <ele>1255.4</ele>
        <time>2021-08-29T08:37:02Z</time>
      </trkpt>
      <trkpt lat="42.99848" lon="-0.21659">
        <ele>1255.6</ele>
        <time>2021-08-29T08:37:03Z</time>
      </trkpt>
      <trkpt lat="42.99847" lon="-0.2166">
        <ele>1255.8</ele>
        <time>2021-08-29T08:37:04Z</time>
      </trkpt>
      <trkpt lat="42.99845" lon="-0.21661">
        <ele>1256</ele>
        <time>2021-08-29T08:37:05Z</time>
      </trkpt>
      <trkpt lat="42.99844" lon="-0.21661">
        <ele>1256</ele>
        <time>2021-08-29T08:37:06Z</time>
      </trkpt>
      <trkpt lat="42.99843" lon="-0.21662">
        <ele>1256.2</ele>
        <time>2021-08-29T08:37:07Z</time>
      </trkpt>
      <trkpt lat="42.99842" lon="-0.21662">
        <ele>1256.4</ele>
        <time>2021-08-29T08:37:08Z</time>
      </trkpt>
      <trkpt lat="42.9984" lon="-0.21662">
        <ele>1256.6</ele>
        <time>2021-08-29T08:37:09Z</time>
      </trkpt>
      <trkpt lat="42.99839" lon="-0.21663">
        <ele>1256.6</ele>
        <time>2021-08-29T08:37:10Z</time>
      </trkpt>
      <trkpt lat="42.99838" lon="-0.21664">
        <ele>1256.8</ele>
        <time>2021-08-29T08:37:11Z</time>
      </trkpt>
      <trkpt lat="42.99838" lon="-0.21665">
        <ele>1256.8</ele>
        <time>2021-08-29T08:37:12Z</time>
      </trkpt>
      <trkpt lat="42.99836" lon="-0.21666">
        <ele>1257.2</ele>
        <time>2021-08-29T08:37:13Z</time>
      </trkpt>
      <trkpt lat="42.99834" lon="-0.21667">
        <ele>1257.2</ele>
        <time>2021-08-29T08:37:14Z</time>
      </trkpt>
      <trkpt lat="42.99833" lon="-0.21669">
        <ele>1257.4</ele>
        <time>2021-08-29T08:37:15Z</time>
      </trkpt>
      <trkpt lat="42.99832" lon="-0.2167">
        <ele>1257.6</ele>
        <time>2021-08-29T08:37:16Z</time>
      </trkpt>
      <trkpt lat="42.99831" lon="-0.21671">
        <ele>1257.8</ele>
        <time>2021-08-29T08:37:17Z</time>
      </trkpt>
      <trkpt lat="42.9983" lon="-0.21672">
        <ele>1258</ele>
        <time>2021-08-29T08:37:18Z</time>
      </trkpt>
      <trkpt lat="42.9983" lon="-0.21672">
        <ele>1258.2</ele>
        <time>2021-08-29T08:37:19Z</time>
      </trkpt>
      <trkpt lat="42.99829" lon="-0.21673">
        <ele>1258.6</ele>
        <time>2021-08-29T08:37:20Z</time>
      </trkpt>
      <trkpt lat="42.99828" lon="-0.21674">
        <ele>1258.6</ele>
        <time>2021-08-29T08:37:21Z</time>
      </trkpt>
      <trkpt lat="42.99827" lon="-0.21674">
        <ele>1259</ele>
        <time>2021-08-29T08:37:22Z</time>
      </trkpt>
      <trkpt lat="42.99826" lon="-0.21675">
        <ele>1259.2</ele>
        <time>2021-08-29T08:37:23Z</time>
      </trkpt>
      <trkpt lat="42.99824" lon="-0.21676">
        <ele>1259.4</ele>
        <time>2021-08-29T08:37:24Z</time>
      </trkpt>
      <trkpt lat="42.99823" lon="-0.21676">
        <ele>1259.4</ele>
        <time>2021-08-29T08:37:25Z</time>
      </trkpt>
      <trkpt lat="42.99822" lon="-0.21677">
        <ele>1259.6</ele>
        <time>2021-08-29T08:37:26Z</time>
      </trkpt>
      <trkpt lat="42.99821" lon="-0.21677">
        <ele>1259.8</ele>
        <time>2021-08-29T08:37:27Z</time>
      </trkpt>
      <trkpt lat="42.99819" lon="-0.21678">
        <ele>1260.2</ele>
        <time>2021-08-29T08:37:28Z</time>
      </trkpt>
      <trkpt lat="42.99818" lon="-0.21678">
        <ele>1260.2</ele>
        <time>2021-08-29T08:37:29Z</time>
      </trkpt>
      <trkpt lat="42.99816" lon="-0.21678">
        <ele>1260.4</ele>
        <time>2021-08-29T08:37:30Z</time>
      </trkpt>
      <trkpt lat="42.99815" lon="-0.21678">
        <ele>1260.6</ele>
        <time>2021-08-29T08:37:31Z</time>
      </trkpt>
      <trkpt lat="42.99814" lon="-0.21678">
        <ele>1260.6</ele>
        <time>2021-08-29T08:37:32Z</time>
      </trkpt>
      <trkpt lat="42.99812" lon="-0.21678">
        <ele>1261</ele>
        <time>2021-08-29T08:37:33Z</time>
      </trkpt>
      <trkpt lat="42.9981" lon="-0.21679">
        <ele>1261</ele>
        <time>2021-08-29T08:37:34Z</time>
      </trkpt>
      <trkpt lat="42.99809" lon="-0.21679">
        <ele>1261.2</ele>
        <time>2021-08-29T08:37:35Z</time>
      </trkpt>
      <trkpt lat="42.99808" lon="-0.2168">
        <ele>1261.4</ele>
        <time>2021-08-29T08:37:36Z</time>
      </trkpt>
      <trkpt lat="42.99807" lon="-0.21681">
        <ele>1261.4</ele>
        <time>2021-08-29T08:37:37Z</time>
      </trkpt>
      <trkpt lat="42.99806" lon="-0.21681">
        <ele>1261.6</ele>
        <time>2021-08-29T08:37:38Z</time>
      </trkpt>
      <trkpt lat="42.99805" lon="-0.21681">
        <ele>1261.8</ele>
        <time>2021-08-29T08:37:39Z</time>
      </trkpt>
      <trkpt lat="42.99804" lon="-0.21682">
        <ele>1262</ele>
        <time>2021-08-29T08:37:40Z</time>
      </trkpt>
      <trkpt lat="42.99803" lon="-0.21683">
        <ele>1262.2</ele>
        <time>2021-08-29T08:37:41Z</time>
      </trkpt>
      <trkpt lat="42.99802" lon="-0.21683">
        <ele>1262.2</ele>
        <time>2021-08-29T08:37:42Z</time>
      </trkpt>
      <trkpt lat="42.99801" lon="-0.21683">
        <ele>1262.2</ele>
        <time>2021-08-29T08:37:43Z</time>
      </trkpt>
      <trkpt lat="42.998" lon="-0.21683">
        <ele>1262.4</ele>
        <time>2021-08-29T08:37:44Z</time>
      </trkpt>
      <trkpt lat="42.99799" lon="-0.21683">
        <ele>1262.8</ele>
        <time>2021-08-29T08:37:45Z</time>
      </trkpt>
      <trkpt lat="42.99797" lon="-0.21684">
        <ele>1262.8</ele>
        <time>2021-08-29T08:37:46Z</time>
      </trkpt>
      <trkpt lat="42.99796" lon="-0.21685">
        <ele>1263</ele>
        <time>2021-08-29T08:37:47Z</time>
      </trkpt>
      <trkpt lat="42.99794" lon="-0.21685">
        <ele>1263.2</ele>
        <time>2021-08-29T08:37:48Z</time>
      </trkpt>
      <trkpt lat="42.99793" lon="-0.21686">
        <ele>1263.4</ele>
        <time>2021-08-29T08:37:49Z</time>
      </trkpt>
      <trkpt lat="42.99791" lon="-0.21686">
        <ele>1263.4</ele>
        <time>2021-08-29T08:37:50Z</time>
      </trkpt>
      <trkpt lat="42.9979" lon="-0.21686">
        <ele>1263.6</ele>
        <time>2021-08-29T08:37:51Z</time>
      </trkpt>
      <trkpt lat="42.99789" lon="-0.21687">
        <ele>1263.8</ele>
        <time>2021-08-29T08:37:52Z</time>
      </trkpt>
      <trkpt lat="42.99788" lon="-0.21687">
        <ele>1264</ele>
        <time>2021-08-29T08:37:53Z</time>
      </trkpt>
      <trkpt lat="42.99786" lon="-0.21688">
        <ele>1264.2</ele>
        <time>2021-08-29T08:37:54Z</time>
      </trkpt>
      <trkpt lat="42.99785" lon="-0.21689">
        <ele>1264.4</ele>
        <time>2021-08-29T08:37:55Z</time>
      </trkpt>
      <trkpt lat="42.99784" lon="-0.2169">
        <ele>1264.6</ele>
        <time>2021-08-29T08:37:56Z</time>
      </trkpt>
      <trkpt lat="42.99783" lon="-0.21691">
        <ele>1264.6</ele>
        <time>2021-08-29T08:37:57Z</time>
      </trkpt>
      <trkpt lat="42.99782" lon="-0.21691">
        <ele>1264.8</ele>
        <time>2021-08-29T08:37:58Z</time>
      </trkpt>
      <trkpt lat="42.99781" lon="-0.21692">
        <ele>1265</ele>
        <time>2021-08-29T08:37:59Z</time>
      </trkpt>
      <trkpt lat="42.9978" lon="-0.21693">
        <ele>1265.2</ele>
        <time>2021-08-29T08:38:00Z</time>
      </trkpt>
      <trkpt lat="42.99779" lon="-0.21695">
        <ele>1265.4</ele>
        <time>2021-08-29T08:38:01Z</time>
      </trkpt>
      <trkpt lat="42.99779" lon="-0.21696">
        <ele>1265.6</ele>
        <time>2021-08-29T08:38:02Z</time>
      </trkpt>
      <trkpt lat="42.99778" lon="-0.21697">
        <ele>1265.6</ele>
        <time>2021-08-29T08:38:03Z</time>
      </trkpt>
      <trkpt lat="42.99777" lon="-0.21697">
        <ele>1266</ele>
        <time>2021-08-29T08:38:04Z</time>
      </trkpt>
      <trkpt lat="42.99775" lon="-0.21698">
        <ele>1266.2</ele>
        <time>2021-08-29T08:38:05Z</time>
      </trkpt>
      <trkpt lat="42.99774" lon="-0.21698">
        <ele>1266.4</ele>
        <time>2021-08-29T08:38:06Z</time>
      </trkpt>
      <trkpt lat="42.99773" lon="-0.21699">
        <ele>1266.6</ele>
        <time>2021-08-29T08:38:07Z</time>
      </trkpt>
      <trkpt lat="42.99772" lon="-0.217">
        <ele>1266.8</ele>
        <time>2021-08-29T08:38:08Z</time>
      </trkpt>
      <trkpt lat="42.99771" lon="-0.21701">
        <ele>1267</ele>
        <time>2021-08-29T08:38:09Z</time>
      </trkpt>
      <trkpt lat="42.9977" lon="-0.21702">
        <ele>1267.2</ele>
        <time>2021-08-29T08:38:10Z</time>
      </trkpt>
      <trkpt lat="42.99769" lon="-0.21703">
        <ele>1267.4</ele>
        <time>2021-08-29T08:38:11Z</time>
      </trkpt>
      <trkpt lat="42.99768" lon="-0.21703">
        <ele>1267.4</ele>
        <time>2021-08-29T08:38:12Z</time>
      </trkpt>
      <trkpt lat="42.99767" lon="-0.21704">
        <ele>1267.6</ele>
        <time>2021-08-29T08:38:13Z</time>
      </trkpt>
      <trkpt lat="42.99765" lon="-0.21704">
        <ele>1267.8</ele>
        <time>2021-08-29T08:38:14Z</time>
      </trkpt>
      <trkpt lat="42.99764" lon="-0.21704">
        <ele>1268</ele>
        <time>2021-08-29T08:38:15Z</time>
      </trkpt>
      <trkpt lat="42.99763" lon="-0.21705">
        <ele>1268</ele>
        <time>2021-08-29T08:38:16Z</time>
      </trkpt>
      <trkpt lat="42.99761" lon="-0.21705">
        <ele>1268.2</ele>
        <time>2021-08-29T08:38:17Z</time>
      </trkpt>
      <trkpt lat="42.9976" lon="-0.21705">
        <ele>1268.2</ele>
        <time>2021-08-29T08:38:18Z</time>
      </trkpt>
      <trkpt lat="42.99759" lon="-0.21706">
        <ele>1268.2</ele>
        <time>2021-08-29T08:38:19Z</time>
      </trkpt>
      <trkpt lat="42.99758" lon="-0.21707">
        <ele>1268.4</ele>
        <time>2021-08-29T08:38:20Z</time>
      </trkpt>
      <trkpt lat="42.99757" lon="-0.21707">
        <ele>1268.6</ele>
        <time>2021-08-29T08:38:21Z</time>
      </trkpt>
      <trkpt lat="42.99756" lon="-0.21708">
        <ele>1268.6</ele>
        <time>2021-08-29T08:38:22Z</time>
      </trkpt>
      <trkpt lat="42.99755" lon="-0.21708">
        <ele>1268.8</ele>
        <time>2021-08-29T08:38:23Z</time>
      </trkpt>
      <trkpt lat="42.99754" lon="-0.21708">
        <ele>1269.2</ele>
        <time>2021-08-29T08:38:24Z</time>
      </trkpt>
      <trkpt lat="42.99753" lon="-0.21708">
        <ele>1269.4</ele>
        <time>2021-08-29T08:38:25Z</time>
      </trkpt>
      <trkpt lat="42.99752" lon="-0.21709">
        <ele>1269.6</ele>
        <time>2021-08-29T08:38:26Z</time>
      </trkpt>
      <trkpt lat="42.99751" lon="-0.21709">
        <ele>1269.6</ele>
        <time>2021-08-29T08:38:27Z</time>
      </trkpt>
      <trkpt lat="42.9975" lon="-0.2171">
        <ele>1269.8</ele>
        <time>2021-08-29T08:38:28Z</time>
      </trkpt>
      <trkpt lat="42.99748" lon="-0.2171">
        <ele>1269.8</ele>
        <time>2021-08-29T08:38:29Z</time>
      </trkpt>
      <trkpt lat="42.99747" lon="-0.2171">
        <ele>1270.2</ele>
        <time>2021-08-29T08:38:30Z</time>
      </trkpt>
      <trkpt lat="42.99746" lon="-0.21711">
        <ele>1270.2</ele>
        <time>2021-08-29T08:38:31Z</time>
      </trkpt>
      <trkpt lat="42.99745" lon="-0.21712">
        <ele>1270.6</ele>
        <time>2021-08-29T08:38:32Z</time>
      </trkpt>
      <trkpt lat="42.99744" lon="-0.21712">
        <ele>1270.6</ele>
        <time>2021-08-29T08:38:33Z</time>
      </trkpt>
      <trkpt lat="42.99742" lon="-0.21712">
        <ele>1270.8</ele>
        <time>2021-08-29T08:38:34Z</time>
      </trkpt>
      <trkpt lat="42.99741" lon="-0.21713">
        <ele>1271</ele>
        <time>2021-08-29T08:38:35Z</time>
      </trkpt>
      <trkpt lat="42.9974" lon="-0.21713">
        <ele>1271.2</ele>
        <time>2021-08-29T08:38:36Z</time>
      </trkpt>
      <trkpt lat="42.99739" lon="-0.21714">
        <ele>1271.2</ele>
        <time>2021-08-29T08:38:37Z</time>
      </trkpt>
      <trkpt lat="42.99737" lon="-0.21714">
        <ele>1271.4</ele>
        <time>2021-08-29T08:38:38Z</time>
      </trkpt>
      <trkpt lat="42.99736" lon="-0.21714">
        <ele>1271.4</ele>
        <time>2021-08-29T08:38:39Z</time>
      </trkpt>
      <trkpt lat="42.99735" lon="-0.21714">
        <ele>1271.6</ele>
        <time>2021-08-29T08:38:40Z</time>
      </trkpt>
      <trkpt lat="42.99733" lon="-0.21714">
        <ele>1271.8</ele>
        <time>2021-08-29T08:38:41Z</time>
      </trkpt>
      <trkpt lat="42.99732" lon="-0.21714">
        <ele>1272</ele>
        <time>2021-08-29T08:38:42Z</time>
      </trkpt>
      <trkpt lat="42.99731" lon="-0.21715">
        <ele>1272.2</ele>
        <time>2021-08-29T08:38:43Z</time>
      </trkpt>
      <trkpt lat="42.9973" lon="-0.21715">
        <ele>1272.2</ele>
        <time>2021-08-29T08:38:44Z</time>
      </trkpt>
      <trkpt lat="42.99729" lon="-0.21715">
        <ele>1272.4</ele>
        <time>2021-08-29T08:38:45Z</time>
      </trkpt>
      <trkpt lat="42.99728" lon="-0.21715">
        <ele>1272.6</ele>
        <time>2021-08-29T08:38:46Z</time>
      </trkpt>
      <trkpt lat="42.99727" lon="-0.21716">
        <ele>1272.8</ele>
        <time>2021-08-29T08:38:47Z</time>
      </trkpt>
      <trkpt lat="42.99726" lon="-0.21717">
        <ele>1272.8</ele>
        <time>2021-08-29T08:38:48Z</time>
      </trkpt>
      <trkpt lat="42.99725" lon="-0.21717">
        <ele>1273</ele>
        <time>2021-08-29T08:38:49Z</time>
      </trkpt>
      <trkpt lat="42.99723" lon="-0.21717">
        <ele>1273</ele>
        <time>2021-08-29T08:38:50Z</time>
      </trkpt>
      <trkpt lat="42.99722" lon="-0.21717">
        <ele>1273.2</ele>
        <time>2021-08-29T08:38:51Z</time>
      </trkpt>
      <trkpt lat="42.99721" lon="-0.21717">
        <ele>1273.4</ele>
        <time>2021-08-29T08:38:52Z</time>
      </trkpt>
      <trkpt lat="42.9972" lon="-0.21718">
        <ele>1273.6</ele>
        <time>2021-08-29T08:38:53Z</time>
      </trkpt>
      <trkpt lat="42.99719" lon="-0.21718">
        <ele>1273.6</ele>
        <time>2021-08-29T08:38:54Z</time>
      </trkpt>
      <trkpt lat="42.99717" lon="-0.21718">
        <ele>1273.8</ele>
        <time>2021-08-29T08:38:55Z</time>
      </trkpt>
      <trkpt lat="42.99716" lon="-0.21718">
        <ele>1273.8</ele>
        <time>2021-08-29T08:38:56Z</time>
      </trkpt>
      <trkpt lat="42.99714" lon="-0.21718">
        <ele>1274</ele>
        <time>2021-08-29T08:38:57Z</time>
      </trkpt>
      <trkpt lat="42.99713" lon="-0.21718">
        <ele>1274</ele>
        <time>2021-08-29T08:38:58Z</time>
      </trkpt>
      <trkpt lat="42.99712" lon="-0.21718">
        <ele>1274.2</ele>
        <time>2021-08-29T08:38:59Z</time>
      </trkpt>
      <trkpt lat="42.99711" lon="-0.21717">
        <ele>1274.2</ele>
        <time>2021-08-29T08:39:00Z</time>
      </trkpt>
      <trkpt lat="42.99709" lon="-0.21717">
        <ele>1274.2</ele>
        <time>2021-08-29T08:39:01Z</time>
      </trkpt>
      <trkpt lat="42.99708" lon="-0.21717">
        <ele>1274.6</ele>
        <time>2021-08-29T08:39:02Z</time>
      </trkpt>
      <trkpt lat="42.99707" lon="-0.21717">
        <ele>1274.8</ele>
        <time>2021-08-29T08:39:03Z</time>
      </trkpt>
      <trkpt lat="42.99706" lon="-0.21717">
        <ele>1275.2</ele>
        <time>2021-08-29T08:39:04Z</time>
      </trkpt>
      <trkpt lat="42.99705" lon="-0.21717">
        <ele>1275.2</ele>
        <time>2021-08-29T08:39:05Z</time>
      </trkpt>
      <trkpt lat="42.99703" lon="-0.21717">
        <ele>1275.4</ele>
        <time>2021-08-29T08:39:06Z</time>
      </trkpt>
      <trkpt lat="42.99702" lon="-0.21717">
        <ele>1275.4</ele>
        <time>2021-08-29T08:39:07Z</time>
      </trkpt>
      <trkpt lat="42.99701" lon="-0.21716">
        <ele>1275.6</ele>
        <time>2021-08-29T08:39:08Z</time>
      </trkpt>
      <trkpt lat="42.997" lon="-0.21716">
        <ele>1275.8</ele>
        <time>2021-08-29T08:39:09Z</time>
      </trkpt>
      <trkpt lat="42.99698" lon="-0.21716">
        <ele>1276</ele>
        <time>2021-08-29T08:39:10Z</time>
      </trkpt>
      <trkpt lat="42.99697" lon="-0.21716">
        <ele>1276</ele>
        <time>2021-08-29T08:39:11Z</time>
      </trkpt>
      <trkpt lat="42.99696" lon="-0.21715">
        <ele>1276.2</ele>
        <time>2021-08-29T08:39:12Z</time>
      </trkpt>
      <trkpt lat="42.99695" lon="-0.21715">
        <ele>1276.4</ele>
        <time>2021-08-29T08:39:13Z</time>
      </trkpt>
      <trkpt lat="42.99693" lon="-0.21715">
        <ele>1276.4</ele>
        <time>2021-08-29T08:39:14Z</time>
      </trkpt>
      <trkpt lat="42.99692" lon="-0.21714">
        <ele>1276.6</ele>
        <time>2021-08-29T08:39:15Z</time>
      </trkpt>
      <trkpt lat="42.99691" lon="-0.21713">
        <ele>1276.6</ele>
        <time>2021-08-29T08:39:16Z</time>
      </trkpt>
      <trkpt lat="42.9969" lon="-0.21713">
        <ele>1276.8</ele>
        <time>2021-08-29T08:39:17Z</time>
      </trkpt>
      <trkpt lat="42.99689" lon="-0.21713">
        <ele>1276.8</ele>
        <time>2021-08-29T08:39:18Z</time>
      </trkpt>
      <trkpt lat="42.99687" lon="-0.21712">
        <ele>1277</ele>
        <time>2021-08-29T08:39:19Z</time>
      </trkpt>
      <trkpt lat="42.99686" lon="-0.21712">
        <ele>1277</ele>
        <time>2021-08-29T08:39:20Z</time>
      </trkpt>
      <trkpt lat="42.99685" lon="-0.21711">
        <ele>1277.2</ele>
        <time>2021-08-29T08:39:21Z</time>
      </trkpt>
      <trkpt lat="42.99684" lon="-0.2171">
        <ele>1277.2</ele>
        <time>2021-08-29T08:39:22Z</time>
      </trkpt>
      <trkpt lat="42.99683" lon="-0.21709">
        <ele>1277.2</ele>
        <time>2021-08-29T08:39:23Z</time>
      </trkpt>
      <trkpt lat="42.99682" lon="-0.21708">
        <ele>1277.4</ele>
        <time>2021-08-29T08:39:24Z</time>
      </trkpt>
      <trkpt lat="42.9968" lon="-0.21707">
        <ele>1277.6</ele>
        <time>2021-08-29T08:39:25Z</time>
      </trkpt>
      <trkpt lat="42.99679" lon="-0.21706">
        <ele>1277.6</ele>
        <time>2021-08-29T08:39:26Z</time>
      </trkpt>
      <trkpt lat="42.99678" lon="-0.21705">
        <ele>1277.6</ele>
        <time>2021-08-29T08:39:27Z</time>
      </trkpt>
      <trkpt lat="42.99677" lon="-0.21704">
        <ele>1277.8</ele>
        <time>2021-08-29T08:39:28Z</time>
      </trkpt>
      <trkpt lat="42.99676" lon="-0.21703">
        <ele>1277.8</ele>
        <time>2021-08-29T08:39:29Z</time>
      </trkpt>
      <trkpt lat="42.99676" lon="-0.21701">
        <ele>1278</ele>
        <time>2021-08-29T08:39:30Z</time>
      </trkpt>
      <trkpt lat="42.99675" lon="-0.21701">
        <ele>1278</ele>
        <time>2021-08-29T08:39:31Z</time>
      </trkpt>
      <trkpt lat="42.99675" lon="-0.21701">
        <ele>1278.2</ele>
        <time>2021-08-29T08:39:32Z</time>
      </trkpt>
      <trkpt lat="42.99675" lon="-0.21701">
        <ele>1278.4</ele>
        <time>2021-08-29T08:39:34Z</time>
      </trkpt>
      <trkpt lat="42.99675" lon="-0.21701">
        <ele>1278.4</ele>
        <time>2021-08-29T08:39:42Z</time>
      </trkpt>
      <trkpt lat="42.99675" lon="-0.21701">
        <ele>1278.8</ele>
        <time>2021-08-29T08:39:59Z</time>
      </trkpt>
      <trkpt lat="42.99675" lon="-0.21701">
        <ele>1278.8</ele>
        <time>2021-08-29T08:40:13Z</time>
      </trkpt>
      <trkpt lat="42.99675" lon="-0.21695">
        <ele>1278.8</ele>
        <time>2021-08-29T08:40:16Z</time>
      </trkpt>
      <trkpt lat="42.99674" lon="-0.21694">
        <ele>1278.8</ele>
        <time>2021-08-29T08:40:17Z</time>
      </trkpt>
      <trkpt lat="42.99674" lon="-0.21692">
        <ele>1278.8</ele>
        <time>2021-08-29T08:40:18Z</time>
      </trkpt>
      <trkpt lat="42.99673" lon="-0.21685">
        <ele>1279</ele>
        <time>2021-08-29T08:40:21Z</time>
      </trkpt>
      <trkpt lat="42.99673" lon="-0.21683">
        <ele>1279.2</ele>
        <time>2021-08-29T08:40:22Z</time>
      </trkpt>
      <trkpt lat="42.99673" lon="-0.21681">
        <ele>1279</ele>
        <time>2021-08-29T08:40:23Z</time>
      </trkpt>
      <trkpt lat="42.99673" lon="-0.21679">
        <ele>1279</ele>
        <time>2021-08-29T08:40:24Z</time>
      </trkpt>
      <trkpt lat="42.99672" lon="-0.21675">
        <ele>1279.2</ele>
        <time>2021-08-29T08:40:26Z</time>
      </trkpt>
      <trkpt lat="42.99673" lon="-0.21671">
        <ele>1279.4</ele>
        <time>2021-08-29T08:40:28Z</time>
      </trkpt>
      <trkpt lat="42.99674" lon="-0.21669">
        <ele>1279.6</ele>
        <time>2021-08-29T08:40:29Z</time>
      </trkpt>
      <trkpt lat="42.99677" lon="-0.21666">
        <ele>1279.8</ele>
        <time>2021-08-29T08:40:31Z</time>
      </trkpt>
      <trkpt lat="42.99677" lon="-0.21665">
        <ele>1279.8</ele>
        <time>2021-08-29T08:40:32Z</time>
      </trkpt>
      <trkpt lat="42.99678" lon="-0.21663">
        <ele>1280</ele>
        <time>2021-08-29T08:40:33Z</time>
      </trkpt>
      <trkpt lat="42.99679" lon="-0.21661">
        <ele>1280.2</ele>
        <time>2021-08-29T08:40:34Z</time>
      </trkpt>
      <trkpt lat="42.9968" lon="-0.21657">
        <ele>1280.4</ele>
        <time>2021-08-29T08:40:36Z</time>
      </trkpt>
      <trkpt lat="42.99681" lon="-0.21653">
        <ele>1280.6</ele>
        <time>2021-08-29T08:40:38Z</time>
      </trkpt>
      <trkpt lat="42.99682" lon="-0.21644">
        <ele>1281</ele>
        <time>2021-08-29T08:40:42Z</time>
      </trkpt>
      <trkpt lat="42.99682" lon="-0.21634">
        <ele>1281.4</ele>
        <time>2021-08-29T08:40:46Z</time>
      </trkpt>
      <trkpt lat="42.99682" lon="-0.21632">
        <ele>1281.6</ele>
        <time>2021-08-29T08:40:47Z</time>
      </trkpt>
      <trkpt lat="42.99677" lon="-0.2162">
        <ele>1281.8</ele>
        <time>2021-08-29T08:40:52Z</time>
      </trkpt>
      <trkpt lat="42.99676" lon="-0.21619">
        <ele>1281.8</ele>
        <time>2021-08-29T08:40:53Z</time>
      </trkpt>
      <trkpt lat="42.99675" lon="-0.21617">
        <ele>1281.8</ele>
        <time>2021-08-29T08:40:54Z</time>
      </trkpt>
      <trkpt lat="42.99667" lon="-0.21607">
        <ele>1281.8</ele>
        <time>2021-08-29T08:40:59Z</time>
      </trkpt>
      <trkpt lat="42.99664" lon="-0.21604">
        <ele>1281.8</ele>
        <time>2021-08-29T08:41:01Z</time>
      </trkpt>
      <trkpt lat="42.99656" lon="-0.21595">
        <ele>1282</ele>
        <time>2021-08-29T08:41:06Z</time>
      </trkpt>
      <trkpt lat="42.99653" lon="-0.21591">
        <ele>1282.2</ele>
        <time>2021-08-29T08:41:08Z</time>
      </trkpt>
      <trkpt lat="42.99652" lon="-0.21589">
        <ele>1282.2</ele>
        <time>2021-08-29T08:41:09Z</time>
      </trkpt>
      <trkpt lat="42.9965" lon="-0.21588">
        <ele>1282.2</ele>
        <time>2021-08-29T08:41:10Z</time>
      </trkpt>
      <trkpt lat="42.99647" lon="-0.21585">
        <ele>1282.4</ele>
        <time>2021-08-29T08:41:12Z</time>
      </trkpt>
      <trkpt lat="42.99644" lon="-0.21582">
        <ele>1282.6</ele>
        <time>2021-08-29T08:41:14Z</time>
      </trkpt>
      <trkpt lat="42.99643" lon="-0.21581">
        <ele>1282.6</ele>
        <time>2021-08-29T08:41:15Z</time>
      </trkpt>
      <trkpt lat="42.99641" lon="-0.2158">
        <ele>1282.6</ele>
        <time>2021-08-29T08:41:16Z</time>
      </trkpt>
      <trkpt lat="42.9964" lon="-0.21579">
        <ele>1282.8</ele>
        <time>2021-08-29T08:41:17Z</time>
      </trkpt>
      <trkpt lat="42.99638" lon="-0.21578">
        <ele>1282.8</ele>
        <time>2021-08-29T08:41:18Z</time>
      </trkpt>
      <trkpt lat="42.99637" lon="-0.21576">
        <ele>1282.8</ele>
        <time>2021-08-29T08:41:19Z</time>
      </trkpt>
      <trkpt lat="42.99635" lon="-0.21575">
        <ele>1283.2</ele>
        <time>2021-08-29T08:41:20Z</time>
      </trkpt>
      <trkpt lat="42.99633" lon="-0.21574">
        <ele>1283.2</ele>
        <time>2021-08-29T08:41:21Z</time>
      </trkpt>
      <trkpt lat="42.99625" lon="-0.21569">
        <ele>1284.2</ele>
        <time>2021-08-29T08:41:27Z</time>
      </trkpt>
      <trkpt lat="42.99621" lon="-0.21569">
        <ele>1284.6</ele>
        <time>2021-08-29T08:41:29Z</time>
      </trkpt>
      <trkpt lat="42.99615" lon="-0.21567">
        <ele>1285.4</ele>
        <time>2021-08-29T08:41:33Z</time>
      </trkpt>
      <trkpt lat="42.99613" lon="-0.21566">
        <ele>1285.4</ele>
        <time>2021-08-29T08:41:34Z</time>
      </trkpt>
      <trkpt lat="42.99612" lon="-0.21565">
        <ele>1285.6</ele>
        <time>2021-08-29T08:41:35Z</time>
      </trkpt>
      <trkpt lat="42.9961" lon="-0.21565">
        <ele>1285.8</ele>
        <time>2021-08-29T08:41:36Z</time>
      </trkpt>
      <trkpt lat="42.99609" lon="-0.21564">
        <ele>1285.8</ele>
        <time>2021-08-29T08:41:37Z</time>
      </trkpt>
      <trkpt lat="42.99607" lon="-0.21564">
        <ele>1286</ele>
        <time>2021-08-29T08:41:38Z</time>
      </trkpt>
      <trkpt lat="42.99605" lon="-0.21564">
        <ele>1286</ele>
        <time>2021-08-29T08:41:39Z</time>
      </trkpt>
      <trkpt lat="42.99604" lon="-0.21563">
        <ele>1286.2</ele>
        <time>2021-08-29T08:41:40Z</time>
      </trkpt>
      <trkpt lat="42.99602" lon="-0.21563">
        <ele>1286.2</ele>
        <time>2021-08-29T08:41:41Z</time>
      </trkpt>
      <trkpt lat="42.99601" lon="-0.21563">
        <ele>1286.6</ele>
        <time>2021-08-29T08:41:42Z</time>
      </trkpt>
      <trkpt lat="42.99599" lon="-0.21563">
        <ele>1286.6</ele>
        <time>2021-08-29T08:41:43Z</time>
      </trkpt>
      <trkpt lat="42.99597" lon="-0.21562">
        <ele>1286.8</ele>
        <time>2021-08-29T08:41:44Z</time>
      </trkpt>
      <trkpt lat="42.99596" lon="-0.21562">
        <ele>1287</ele>
        <time>2021-08-29T08:41:45Z</time>
      </trkpt>
      <trkpt lat="42.99595" lon="-0.21562">
        <ele>1287.2</ele>
        <time>2021-08-29T08:41:46Z</time>
      </trkpt>
      <trkpt lat="42.99593" lon="-0.21562">
        <ele>1287.2</ele>
        <time>2021-08-29T08:41:47Z</time>
      </trkpt>
      <trkpt lat="42.99591" lon="-0.21562">
        <ele>1287.4</ele>
        <time>2021-08-29T08:41:48Z</time>
      </trkpt>
      <trkpt lat="42.9959" lon="-0.21562">
        <ele>1287.6</ele>
        <time>2021-08-29T08:41:49Z</time>
      </trkpt>
      <trkpt lat="42.99589" lon="-0.21562">
        <ele>1287.8</ele>
        <time>2021-08-29T08:41:50Z</time>
      </trkpt>
      <trkpt lat="42.99588" lon="-0.21562">
        <ele>1287.8</ele>
        <time>2021-08-29T08:41:51Z</time>
      </trkpt>
      <trkpt lat="42.99586" lon="-0.21561">
        <ele>1288</ele>
        <time>2021-08-29T08:41:52Z</time>
      </trkpt>
      <trkpt lat="42.99585" lon="-0.21561">
        <ele>1288</ele>
        <time>2021-08-29T08:41:53Z</time>
      </trkpt>
      <trkpt lat="42.99584" lon="-0.21561">
        <ele>1288.2</ele>
        <time>2021-08-29T08:41:54Z</time>
      </trkpt>
      <trkpt lat="42.99582" lon="-0.2156">
        <ele>1288.4</ele>
        <time>2021-08-29T08:41:55Z</time>
      </trkpt>
      <trkpt lat="42.99581" lon="-0.21561">
        <ele>1288.6</ele>
        <time>2021-08-29T08:41:56Z</time>
      </trkpt>
      <trkpt lat="42.99579" lon="-0.21561">
        <ele>1289</ele>
        <time>2021-08-29T08:41:57Z</time>
      </trkpt>
      <trkpt lat="42.99578" lon="-0.21561">
        <ele>1289.2</ele>
        <time>2021-08-29T08:41:58Z</time>
      </trkpt>
      <trkpt lat="42.99576" lon="-0.2156">
        <ele>1289.2</ele>
        <time>2021-08-29T08:41:59Z</time>
      </trkpt>
      <trkpt lat="42.99575" lon="-0.2156">
        <ele>1289.4</ele>
        <time>2021-08-29T08:42:00Z</time>
      </trkpt>
      <trkpt lat="42.99573" lon="-0.2156">
        <ele>1289.4</ele>
        <time>2021-08-29T08:42:01Z</time>
      </trkpt>
      <trkpt lat="42.99572" lon="-0.2156">
        <ele>1289.6</ele>
        <time>2021-08-29T08:42:02Z</time>
      </trkpt>
      <trkpt lat="42.9957" lon="-0.2156">
        <ele>1289.8</ele>
        <time>2021-08-29T08:42:03Z</time>
      </trkpt>
      <trkpt lat="42.99569" lon="-0.21559">
        <ele>1290</ele>
        <time>2021-08-29T08:42:04Z</time>
      </trkpt>
      <trkpt lat="42.99567" lon="-0.21559">
        <ele>1290.2</ele>
        <time>2021-08-29T08:42:05Z</time>
      </trkpt>
      <trkpt lat="42.99565" lon="-0.21559">
        <ele>1290.4</ele>
        <time>2021-08-29T08:42:06Z</time>
      </trkpt>
      <trkpt lat="42.99563" lon="-0.21558">
        <ele>1290.6</ele>
        <time>2021-08-29T08:42:07Z</time>
      </trkpt>
      <trkpt lat="42.99562" lon="-0.21558">
        <ele>1290.6</ele>
        <time>2021-08-29T08:42:08Z</time>
      </trkpt>
      <trkpt lat="42.9956" lon="-0.21558">
        <ele>1290.8</ele>
        <time>2021-08-29T08:42:09Z</time>
      </trkpt>
      <trkpt lat="42.99559" lon="-0.21558">
        <ele>1290.8</ele>
        <time>2021-08-29T08:42:10Z</time>
      </trkpt>
      <trkpt lat="42.99557" lon="-0.21557">
        <ele>1291</ele>
        <time>2021-08-29T08:42:11Z</time>
      </trkpt>
      <trkpt lat="42.99556" lon="-0.21557">
        <ele>1291.2</ele>
        <time>2021-08-29T08:42:12Z</time>
      </trkpt>
      <trkpt lat="42.99554" lon="-0.21556">
        <ele>1291.4</ele>
        <time>2021-08-29T08:42:13Z</time>
      </trkpt>
      <trkpt lat="42.99553" lon="-0.21556">
        <ele>1291.4</ele>
        <time>2021-08-29T08:42:14Z</time>
      </trkpt>
      <trkpt lat="42.99551" lon="-0.21556">
        <ele>1291.6</ele>
        <time>2021-08-29T08:42:15Z</time>
      </trkpt>
      <trkpt lat="42.99549" lon="-0.21556">
        <ele>1291.6</ele>
        <time>2021-08-29T08:42:16Z</time>
      </trkpt>
      <trkpt lat="42.99547" lon="-0.21555">
        <ele>1291.6</ele>
        <time>2021-08-29T08:42:17Z</time>
      </trkpt>
      <trkpt lat="42.99545" lon="-0.21555">
        <ele>1291.8</ele>
        <time>2021-08-29T08:42:18Z</time>
      </trkpt>
      <trkpt lat="42.99543" lon="-0.21555">
        <ele>1291.8</ele>
        <time>2021-08-29T08:42:19Z</time>
      </trkpt>
      <trkpt lat="42.99541" lon="-0.21554">
        <ele>1292</ele>
        <time>2021-08-29T08:42:20Z</time>
      </trkpt>
      <trkpt lat="42.99539" lon="-0.21554">
        <ele>1292</ele>
        <time>2021-08-29T08:42:21Z</time>
      </trkpt>
      <trkpt lat="42.99537" lon="-0.21553">
        <ele>1292.2</ele>
        <time>2021-08-29T08:42:22Z</time>
      </trkpt>
      <trkpt lat="42.99535" lon="-0.21553">
        <ele>1292.4</ele>
        <time>2021-08-29T08:42:23Z</time>
      </trkpt>
      <trkpt lat="42.99532" lon="-0.21552">
        <ele>1292.6</ele>
        <time>2021-08-29T08:42:24Z</time>
      </trkpt>
      <trkpt lat="42.9953" lon="-0.21551">
        <ele>1292.6</ele>
        <time>2021-08-29T08:42:25Z</time>
      </trkpt>
      <trkpt lat="42.99527" lon="-0.21551">
        <ele>1292.8</ele>
        <time>2021-08-29T08:42:26Z</time>
      </trkpt>
      <trkpt lat="42.99526" lon="-0.2155">
        <ele>1292.8</ele>
        <time>2021-08-29T08:42:27Z</time>
      </trkpt>
      <trkpt lat="42.99523" lon="-0.21549">
        <ele>1292.8</ele>
        <time>2021-08-29T08:42:28Z</time>
      </trkpt>
      <trkpt lat="42.99522" lon="-0.21549">
        <ele>1293</ele>
        <time>2021-08-29T08:42:29Z</time>
      </trkpt>
      <trkpt lat="42.9952" lon="-0.21548">
        <ele>1293</ele>
        <time>2021-08-29T08:42:30Z</time>
      </trkpt>
      <trkpt lat="42.99518" lon="-0.21548">
        <ele>1293.2</ele>
        <time>2021-08-29T08:42:31Z</time>
      </trkpt>
      <trkpt lat="42.99515" lon="-0.21547">
        <ele>1293.2</ele>
        <time>2021-08-29T08:42:32Z</time>
      </trkpt>
      <trkpt lat="42.99513" lon="-0.21546">
        <ele>1293.4</ele>
        <time>2021-08-29T08:42:33Z</time>
      </trkpt>
      <trkpt lat="42.99511" lon="-0.21545">
        <ele>1293.4</ele>
        <time>2021-08-29T08:42:34Z</time>
      </trkpt>
      <trkpt lat="42.9951" lon="-0.21544">
        <ele>1293.4</ele>
        <time>2021-08-29T08:42:35Z</time>
      </trkpt>
      <trkpt lat="42.99508" lon="-0.21543">
        <ele>1293.6</ele>
        <time>2021-08-29T08:42:36Z</time>
      </trkpt>
      <trkpt lat="42.99505" lon="-0.21543">
        <ele>1293.6</ele>
        <time>2021-08-29T08:42:37Z</time>
      </trkpt>
      <trkpt lat="42.99503" lon="-0.21542">
        <ele>1293.8</ele>
        <time>2021-08-29T08:42:38Z</time>
      </trkpt>
      <trkpt lat="42.99501" lon="-0.21543">
        <ele>1294</ele>
        <time>2021-08-29T08:42:39Z</time>
      </trkpt>
      <trkpt lat="42.995" lon="-0.21542">
        <ele>1294.2</ele>
        <time>2021-08-29T08:42:40Z</time>
      </trkpt>
      <trkpt lat="42.99498" lon="-0.21541">
        <ele>1294.4</ele>
        <time>2021-08-29T08:42:41Z</time>
      </trkpt>
      <trkpt lat="42.99496" lon="-0.21541">
        <ele>1294.4</ele>
        <time>2021-08-29T08:42:42Z</time>
      </trkpt>
      <trkpt lat="42.99495" lon="-0.21542">
        <ele>1294.6</ele>
        <time>2021-08-29T08:42:43Z</time>
      </trkpt>
      <trkpt lat="42.99492" lon="-0.21541">
        <ele>1295</ele>
        <time>2021-08-29T08:42:44Z</time>
      </trkpt>
      <trkpt lat="42.9949" lon="-0.21541">
        <ele>1295</ele>
        <time>2021-08-29T08:42:45Z</time>
      </trkpt>
      <trkpt lat="42.99488" lon="-0.2154">
        <ele>1295.4</ele>
        <time>2021-08-29T08:42:46Z</time>
      </trkpt>
      <trkpt lat="42.99486" lon="-0.21539">
        <ele>1295.4</ele>
        <time>2021-08-29T08:42:47Z</time>
      </trkpt>
      <trkpt lat="42.99484" lon="-0.21539">
        <ele>1295.6</ele>
        <time>2021-08-29T08:42:48Z</time>
      </trkpt>
      <trkpt lat="42.99482" lon="-0.21538">
        <ele>1295.6</ele>
        <time>2021-08-29T08:42:49Z</time>
      </trkpt>
      <trkpt lat="42.9948" lon="-0.21538">
        <ele>1295.8</ele>
        <time>2021-08-29T08:42:50Z</time>
      </trkpt>
      <trkpt lat="42.99479" lon="-0.21537">
        <ele>1295.8</ele>
        <time>2021-08-29T08:42:51Z</time>
      </trkpt>
      <trkpt lat="42.99476" lon="-0.21536">
        <ele>1295.8</ele>
        <time>2021-08-29T08:42:52Z</time>
      </trkpt>
      <trkpt lat="42.99474" lon="-0.21536">
        <ele>1295.8</ele>
        <time>2021-08-29T08:42:53Z</time>
      </trkpt>
      <trkpt lat="42.99472" lon="-0.21535">
        <ele>1296</ele>
        <time>2021-08-29T08:42:54Z</time>
      </trkpt>
      <trkpt lat="42.99469" lon="-0.21535">
        <ele>1295.8</ele>
        <time>2021-08-29T08:42:55Z</time>
      </trkpt>
      <trkpt lat="42.99467" lon="-0.21534">
        <ele>1295.8</ele>
        <time>2021-08-29T08:42:56Z</time>
      </trkpt>
      <trkpt lat="42.99466" lon="-0.21534">
        <ele>1295.8</ele>
        <time>2021-08-29T08:42:57Z</time>
      </trkpt>
      <trkpt lat="42.99464" lon="-0.21533">
        <ele>1295.8</ele>
        <time>2021-08-29T08:42:58Z</time>
      </trkpt>
      <trkpt lat="42.99462" lon="-0.21532">
        <ele>1295.8</ele>
        <time>2021-08-29T08:42:59Z</time>
      </trkpt>
      <trkpt lat="42.9946" lon="-0.21532">
        <ele>1295.8</ele>
        <time>2021-08-29T08:43:00Z</time>
      </trkpt>
      <trkpt lat="42.99457" lon="-0.2153">
        <ele>1295.8</ele>
        <time>2021-08-29T08:43:01Z</time>
      </trkpt>
      <trkpt lat="42.99456" lon="-0.2153">
        <ele>1295.8</ele>
        <time>2021-08-29T08:43:02Z</time>
      </trkpt>
      <trkpt lat="42.99454" lon="-0.21528">
        <ele>1296</ele>
        <time>2021-08-29T08:43:03Z</time>
      </trkpt>
      <trkpt lat="42.9945" lon="-0.21526">
        <ele>1296.2</ele>
        <time>2021-08-29T08:43:06Z</time>
      </trkpt>
      <trkpt lat="42.99449" lon="-0.21525">
        <ele>1296.4</ele>
        <time>2021-08-29T08:43:07Z</time>
      </trkpt>
      <trkpt lat="42.99444" lon="-0.2152">
        <ele>1296.8</ele>
        <time>2021-08-29T08:43:10Z</time>
      </trkpt>
      <trkpt lat="42.99443" lon="-0.21518">
        <ele>1296.8</ele>
        <time>2021-08-29T08:43:11Z</time>
      </trkpt>
      <trkpt lat="42.99441" lon="-0.21516">
        <ele>1297</ele>
        <time>2021-08-29T08:43:12Z</time>
      </trkpt>
      <trkpt lat="42.99434" lon="-0.21501">
        <ele>1297.2</ele>
        <time>2021-08-29T08:43:18Z</time>
      </trkpt>
      <trkpt lat="42.99433" lon="-0.21498">
        <ele>1297.2</ele>
        <time>2021-08-29T08:43:19Z</time>
      </trkpt>
      <trkpt lat="42.99431" lon="-0.21495">
        <ele>1297.2</ele>
        <time>2021-08-29T08:43:20Z</time>
      </trkpt>
      <trkpt lat="42.99427" lon="-0.21486">
        <ele>1297.2</ele>
        <time>2021-08-29T08:43:23Z</time>
      </trkpt>
      <trkpt lat="42.99423" lon="-0.21467">
        <ele>1297.2</ele>
        <time>2021-08-29T08:43:27Z</time>
      </trkpt>
      <trkpt lat="42.99424" lon="-0.21462">
        <ele>1297.2</ele>
        <time>2021-08-29T08:43:28Z</time>
      </trkpt>
      <trkpt lat="42.99426" lon="-0.2146">
        <ele>1297.2</ele>
        <time>2021-08-29T08:43:29Z</time>
      </trkpt>
      <trkpt lat="42.99427" lon="-0.21457">
        <ele>1297.2</ele>
        <time>2021-08-29T08:43:30Z</time>
      </trkpt>
      <trkpt lat="42.99429" lon="-0.21455">
        <ele>1297.2</ele>
        <time>2021-08-29T08:43:31Z</time>
      </trkpt>
      <trkpt lat="42.99431" lon="-0.21453">
        <ele>1297.2</ele>
        <time>2021-08-29T08:43:32Z</time>
      </trkpt>
      <trkpt lat="42.99432" lon="-0.21452">
        <ele>1297.2</ele>
        <time>2021-08-29T08:43:33Z</time>
      </trkpt>
      <trkpt lat="42.99435" lon="-0.21451">
        <ele>1297.2</ele>
        <time>2021-08-29T08:43:34Z</time>
      </trkpt>
      <trkpt lat="42.99437" lon="-0.21451">
        <ele>1297.4</ele>
        <time>2021-08-29T08:43:35Z</time>
      </trkpt>
      <trkpt lat="42.99441" lon="-0.2145">
        <ele>1297.4</ele>
        <time>2021-08-29T08:43:37Z</time>
      </trkpt>
      <trkpt lat="42.99443" lon="-0.2145">
        <ele>1297.4</ele>
        <time>2021-08-29T08:43:38Z</time>
      </trkpt>
      <trkpt lat="42.99445" lon="-0.21449">
        <ele>1297.6</ele>
        <time>2021-08-29T08:43:39Z</time>
      </trkpt>
      <trkpt lat="42.99447" lon="-0.21449">
        <ele>1297.6</ele>
        <time>2021-08-29T08:43:40Z</time>
      </trkpt>
      <trkpt lat="42.9945" lon="-0.21449">
        <ele>1297.8</ele>
        <time>2021-08-29T08:43:41Z</time>
      </trkpt>
      <trkpt lat="42.99454" lon="-0.21448">
        <ele>1298</ele>
        <time>2021-08-29T08:43:43Z</time>
      </trkpt>
      <trkpt lat="42.99465" lon="-0.21444">
        <ele>1298.8</ele>
        <time>2021-08-29T08:43:48Z</time>
      </trkpt>
      <trkpt lat="42.99469" lon="-0.21442">
        <ele>1299</ele>
        <time>2021-08-29T08:43:50Z</time>
      </trkpt>
      <trkpt lat="42.9947" lon="-0.2144">
        <ele>1299.2</ele>
        <time>2021-08-29T08:43:51Z</time>
      </trkpt>
      <trkpt lat="42.99471" lon="-0.21439">
        <ele>1299.4</ele>
        <time>2021-08-29T08:43:52Z</time>
      </trkpt>
      <trkpt lat="42.99474" lon="-0.21436">
        <ele>1299.6</ele>
        <time>2021-08-29T08:43:54Z</time>
      </trkpt>
      <trkpt lat="42.99475" lon="-0.21435">
        <ele>1299.8</ele>
        <time>2021-08-29T08:43:55Z</time>
      </trkpt>
      <trkpt lat="42.99477" lon="-0.21434">
        <ele>1300</ele>
        <time>2021-08-29T08:43:56Z</time>
      </trkpt>
      <trkpt lat="42.99478" lon="-0.21434">
        <ele>1300.2</ele>
        <time>2021-08-29T08:43:57Z</time>
      </trkpt>
      <trkpt lat="42.99479" lon="-0.21433">
        <ele>1300.6</ele>
        <time>2021-08-29T08:43:58Z</time>
      </trkpt>
      <trkpt lat="42.99481" lon="-0.21432">
        <ele>1300.6</ele>
        <time>2021-08-29T08:43:59Z</time>
      </trkpt>
      <trkpt lat="42.99483" lon="-0.21431">
        <ele>1300.8</ele>
        <time>2021-08-29T08:44:00Z</time>
      </trkpt>
      <trkpt lat="42.99485" lon="-0.2143">
        <ele>1300.8</ele>
        <time>2021-08-29T08:44:01Z</time>
      </trkpt>
      <trkpt lat="42.99486" lon="-0.21428">
        <ele>1301</ele>
        <time>2021-08-29T08:44:02Z</time>
      </trkpt>
      <trkpt lat="42.99488" lon="-0.21427">
        <ele>1301</ele>
        <time>2021-08-29T08:44:03Z</time>
      </trkpt>
      <trkpt lat="42.9949" lon="-0.21426">
        <ele>1301.2</ele>
        <time>2021-08-29T08:44:04Z</time>
      </trkpt>
      <trkpt lat="42.99491" lon="-0.21425">
        <ele>1301.6</ele>
        <time>2021-08-29T08:44:05Z</time>
      </trkpt>
      <trkpt lat="42.99492" lon="-0.21426">
        <ele>1301.6</ele>
        <time>2021-08-29T08:44:06Z</time>
      </trkpt>
      <trkpt lat="42.99494" lon="-0.21426">
        <ele>1302</ele>
        <time>2021-08-29T08:44:07Z</time>
      </trkpt>
      <trkpt lat="42.99495" lon="-0.21426">
        <ele>1302</ele>
        <time>2021-08-29T08:44:08Z</time>
      </trkpt>
      <trkpt lat="42.99497" lon="-0.21426">
        <ele>1302.2</ele>
        <time>2021-08-29T08:44:09Z</time>
      </trkpt>
      <trkpt lat="42.99499" lon="-0.21426">
        <ele>1302.2</ele>
        <time>2021-08-29T08:44:10Z</time>
      </trkpt>
      <trkpt lat="42.995" lon="-0.21426">
        <ele>1302.4</ele>
        <time>2021-08-29T08:44:11Z</time>
      </trkpt>
      <trkpt lat="42.99502" lon="-0.21426">
        <ele>1302.6</ele>
        <time>2021-08-29T08:44:12Z</time>
      </trkpt>
      <trkpt lat="42.99504" lon="-0.21426">
        <ele>1302.8</ele>
        <time>2021-08-29T08:44:13Z</time>
      </trkpt>
      <trkpt lat="42.99506" lon="-0.21426">
        <ele>1302.8</ele>
        <time>2021-08-29T08:44:14Z</time>
      </trkpt>
      <trkpt lat="42.99508" lon="-0.21426">
        <ele>1303</ele>
        <time>2021-08-29T08:44:15Z</time>
      </trkpt>
      <trkpt lat="42.9951" lon="-0.21425">
        <ele>1303.2</ele>
        <time>2021-08-29T08:44:16Z</time>
      </trkpt>
      <trkpt lat="42.99512" lon="-0.21425">
        <ele>1303.2</ele>
        <time>2021-08-29T08:44:17Z</time>
      </trkpt>
      <trkpt lat="42.99515" lon="-0.21425">
        <ele>1303.4</ele>
        <time>2021-08-29T08:44:18Z</time>
      </trkpt>
      <trkpt lat="42.99516" lon="-0.21424">
        <ele>1303.6</ele>
        <time>2021-08-29T08:44:19Z</time>
      </trkpt>
      <trkpt lat="42.99518" lon="-0.21424">
        <ele>1303.6</ele>
        <time>2021-08-29T08:44:20Z</time>
      </trkpt>
      <trkpt lat="42.9952" lon="-0.21424">
        <ele>1303.8</ele>
        <time>2021-08-29T08:44:21Z</time>
      </trkpt>
      <trkpt lat="42.99521" lon="-0.21424">
        <ele>1304</ele>
        <time>2021-08-29T08:44:22Z</time>
      </trkpt>
      <trkpt lat="42.99523" lon="-0.21424">
        <ele>1304.2</ele>
        <time>2021-08-29T08:44:23Z</time>
      </trkpt>
      <trkpt lat="42.99525" lon="-0.21424">
        <ele>1304.4</ele>
        <time>2021-08-29T08:44:24Z</time>
      </trkpt>
      <trkpt lat="42.99527" lon="-0.21424">
        <ele>1304.4</ele>
        <time>2021-08-29T08:44:25Z</time>
      </trkpt>
      <trkpt lat="42.99529" lon="-0.21424">
        <ele>1304.6</ele>
        <time>2021-08-29T08:44:26Z</time>
      </trkpt>
      <trkpt lat="42.99531" lon="-0.21423">
        <ele>1304.8</ele>
        <time>2021-08-29T08:44:27Z</time>
      </trkpt>
      <trkpt lat="42.99532" lon="-0.21423">
        <ele>1305</ele>
        <time>2021-08-29T08:44:28Z</time>
      </trkpt>
      <trkpt lat="42.99534" lon="-0.21422">
        <ele>1305.2</ele>
        <time>2021-08-29T08:44:29Z</time>
      </trkpt>
      <trkpt lat="42.99536" lon="-0.21422">
        <ele>1305.6</ele>
        <time>2021-08-29T08:44:30Z</time>
      </trkpt>
      <trkpt lat="42.99538" lon="-0.21421">
        <ele>1305.6</ele>
        <time>2021-08-29T08:44:31Z</time>
      </trkpt>
      <trkpt lat="42.99539" lon="-0.21421">
        <ele>1305.8</ele>
        <time>2021-08-29T08:44:32Z</time>
      </trkpt>
      <trkpt lat="42.99542" lon="-0.21421">
        <ele>1306</ele>
        <time>2021-08-29T08:44:33Z</time>
      </trkpt>
      <trkpt lat="42.99543" lon="-0.21421">
        <ele>1306.2</ele>
        <time>2021-08-29T08:44:34Z</time>
      </trkpt>
      <trkpt lat="42.99545" lon="-0.21421">
        <ele>1306.2</ele>
        <time>2021-08-29T08:44:35Z</time>
      </trkpt>
      <trkpt lat="42.99547" lon="-0.2142">
        <ele>1306.4</ele>
        <time>2021-08-29T08:44:36Z</time>
      </trkpt>
      <trkpt lat="42.99549" lon="-0.2142">
        <ele>1306.4</ele>
        <time>2021-08-29T08:44:37Z</time>
      </trkpt>
      <trkpt lat="42.99551" lon="-0.2142">
        <ele>1306.6</ele>
        <time>2021-08-29T08:44:38Z</time>
      </trkpt>
      <trkpt lat="42.99553" lon="-0.2142">
        <ele>1306.8</ele>
        <time>2021-08-29T08:44:39Z</time>
      </trkpt>
      <trkpt lat="42.99555" lon="-0.21419">
        <ele>1306.8</ele>
        <time>2021-08-29T08:44:40Z</time>
      </trkpt>
      <trkpt lat="42.99557" lon="-0.21419">
        <ele>1306.8</ele>
        <time>2021-08-29T08:44:41Z</time>
      </trkpt>
      <trkpt lat="42.99559" lon="-0.21419">
        <ele>1307</ele>
        <time>2021-08-29T08:44:42Z</time>
      </trkpt>
      <trkpt lat="42.99561" lon="-0.21419">
        <ele>1307</ele>
        <time>2021-08-29T08:44:43Z</time>
      </trkpt>
      <trkpt lat="42.99563" lon="-0.21418">
        <ele>1307.2</ele>
        <time>2021-08-29T08:44:44Z</time>
      </trkpt>
      <trkpt lat="42.99565" lon="-0.21418">
        <ele>1307.4</ele>
        <time>2021-08-29T08:44:45Z</time>
      </trkpt>
      <trkpt lat="42.99568" lon="-0.21417">
        <ele>1307.4</ele>
        <time>2021-08-29T08:44:46Z</time>
      </trkpt>
      <trkpt lat="42.99569" lon="-0.21417">
        <ele>1307.8</ele>
        <time>2021-08-29T08:44:47Z</time>
      </trkpt>
      <trkpt lat="42.99572" lon="-0.21417">
        <ele>1307.8</ele>
        <time>2021-08-29T08:44:48Z</time>
      </trkpt>
      <trkpt lat="42.99573" lon="-0.21416">
        <ele>1308</ele>
        <time>2021-08-29T08:44:49Z</time>
      </trkpt>
      <trkpt lat="42.99575" lon="-0.21416">
        <ele>1308</ele>
        <time>2021-08-29T08:44:50Z</time>
      </trkpt>
      <trkpt lat="42.99577" lon="-0.21415">
        <ele>1308.2</ele>
        <time>2021-08-29T08:44:51Z</time>
      </trkpt>
      <trkpt lat="42.99578" lon="-0.21414">
        <ele>1308.2</ele>
        <time>2021-08-29T08:44:52Z</time>
      </trkpt>
      <trkpt lat="42.99581" lon="-0.21414">
        <ele>1308.4</ele>
        <time>2021-08-29T08:44:53Z</time>
      </trkpt>
      <trkpt lat="42.99583" lon="-0.21413">
        <ele>1308.4</ele>
        <time>2021-08-29T08:44:54Z</time>
      </trkpt>
      <trkpt lat="42.99585" lon="-0.21413">
        <ele>1308.6</ele>
        <time>2021-08-29T08:44:55Z</time>
      </trkpt>
      <trkpt lat="42.99587" lon="-0.21412">
        <ele>1308.6</ele>
        <time>2021-08-29T08:44:56Z</time>
      </trkpt>
      <trkpt lat="42.99589" lon="-0.21412">
        <ele>1308.6</ele>
        <time>2021-08-29T08:44:57Z</time>
      </trkpt>
      <trkpt lat="42.99591" lon="-0.21412">
        <ele>1308.8</ele>
        <time>2021-08-29T08:44:58Z</time>
      </trkpt>
      <trkpt lat="42.99593" lon="-0.21412">
        <ele>1308.8</ele>
        <time>2021-08-29T08:44:59Z</time>
      </trkpt>
      <trkpt lat="42.99595" lon="-0.21411">
        <ele>1309</ele>
        <time>2021-08-29T08:45:00Z</time>
      </trkpt>
      <trkpt lat="42.99597" lon="-0.2141">
        <ele>1309</ele>
        <time>2021-08-29T08:45:01Z</time>
      </trkpt>
      <trkpt lat="42.99598" lon="-0.21409">
        <ele>1309.2</ele>
        <time>2021-08-29T08:45:02Z</time>
      </trkpt>
      <trkpt lat="42.996" lon="-0.21409">
        <ele>1309.2</ele>
        <time>2021-08-29T08:45:03Z</time>
      </trkpt>
      <trkpt lat="42.99602" lon="-0.21409">
        <ele>1309.4</ele>
        <time>2021-08-29T08:45:04Z</time>
      </trkpt>
      <trkpt lat="42.99605" lon="-0.21409">
        <ele>1309.4</ele>
        <time>2021-08-29T08:45:05Z</time>
      </trkpt>
      <trkpt lat="42.99607" lon="-0.21408">
        <ele>1309.6</ele>
        <time>2021-08-29T08:45:06Z</time>
      </trkpt>
      <trkpt lat="42.99609" lon="-0.21408">
        <ele>1309.6</ele>
        <time>2021-08-29T08:45:07Z</time>
      </trkpt>
      <trkpt lat="42.99611" lon="-0.21407">
        <ele>1309.6</ele>
        <time>2021-08-29T08:45:08Z</time>
      </trkpt>
      <trkpt lat="42.99614" lon="-0.21407">
        <ele>1309.8</ele>
        <time>2021-08-29T08:45:09Z</time>
      </trkpt>
      <trkpt lat="42.99616" lon="-0.21406">
        <ele>1309.8</ele>
        <time>2021-08-29T08:45:10Z</time>
      </trkpt>
      <trkpt lat="42.99619" lon="-0.21406">
        <ele>1309.8</ele>
        <time>2021-08-29T08:45:11Z</time>
      </trkpt>
      <trkpt lat="42.99622" lon="-0.21406">
        <ele>1310</ele>
        <time>2021-08-29T08:45:12Z</time>
      </trkpt>
      <trkpt lat="42.99625" lon="-0.21405">
        <ele>1310</ele>
        <time>2021-08-29T08:45:13Z</time>
      </trkpt>
      <trkpt lat="42.99628" lon="-0.21405">
        <ele>1310</ele>
        <time>2021-08-29T08:45:14Z</time>
      </trkpt>
      <trkpt lat="42.9965" lon="-0.21402">
        <ele>1310.6</ele>
        <time>2021-08-29T08:45:23Z</time>
      </trkpt>
      <trkpt lat="42.99652" lon="-0.21401">
        <ele>1310.4</ele>
        <time>2021-08-29T08:45:24Z</time>
      </trkpt>
      <trkpt lat="42.99655" lon="-0.21401">
        <ele>1310.4</ele>
        <time>2021-08-29T08:45:25Z</time>
      </trkpt>
      <trkpt lat="42.99657" lon="-0.214">
        <ele>1310.6</ele>
        <time>2021-08-29T08:45:26Z</time>
      </trkpt>
      <trkpt lat="42.99659" lon="-0.214">
        <ele>1310.6</ele>
        <time>2021-08-29T08:45:27Z</time>
      </trkpt>
      <trkpt lat="42.99662" lon="-0.214">
        <ele>1310.6</ele>
        <time>2021-08-29T08:45:28Z</time>
      </trkpt>
      <trkpt lat="42.99664" lon="-0.214">
        <ele>1310.8</ele>
        <time>2021-08-29T08:45:29Z</time>
      </trkpt>
      <trkpt lat="42.99667" lon="-0.214">
        <ele>1310.8</ele>
        <time>2021-08-29T08:45:30Z</time>
      </trkpt>
      <trkpt lat="42.99669" lon="-0.214">
        <ele>1310.8</ele>
        <time>2021-08-29T08:45:31Z</time>
      </trkpt>
      <trkpt lat="42.99672" lon="-0.214">
        <ele>1311</ele>
        <time>2021-08-29T08:45:32Z</time>
      </trkpt>
      <trkpt lat="42.99689" lon="-0.21396">
        <ele>1311.4</ele>
        <time>2021-08-29T08:45:39Z</time>
      </trkpt>
      <trkpt lat="42.99699" lon="-0.21395">
        <ele>1311.6</ele>
        <time>2021-08-29T08:45:43Z</time>
      </trkpt>
      <trkpt lat="42.99707" lon="-0.21395">
        <ele>1312.2</ele>
        <time>2021-08-29T08:45:46Z</time>
      </trkpt>
      <trkpt lat="42.9971" lon="-0.21394">
        <ele>1312.2</ele>
        <time>2021-08-29T08:45:47Z</time>
      </trkpt>
      <trkpt lat="42.99712" lon="-0.21394">
        <ele>1312.2</ele>
        <time>2021-08-29T08:45:48Z</time>
      </trkpt>
      <trkpt lat="42.99719" lon="-0.21391">
        <ele>1312.4</ele>
        <time>2021-08-29T08:45:51Z</time>
      </trkpt>
      <trkpt lat="42.99721" lon="-0.21391">
        <ele>1312.4</ele>
        <time>2021-08-29T08:45:52Z</time>
      </trkpt>
      <trkpt lat="42.99724" lon="-0.2139">
        <ele>1312.4</ele>
        <time>2021-08-29T08:45:53Z</time>
      </trkpt>
      <trkpt lat="42.99726" lon="-0.21389">
        <ele>1312.6</ele>
        <time>2021-08-29T08:45:54Z</time>
      </trkpt>
      <trkpt lat="42.99728" lon="-0.21388">
        <ele>1312.6</ele>
        <time>2021-08-29T08:45:55Z</time>
      </trkpt>
      <trkpt lat="42.99731" lon="-0.21387">
        <ele>1312.6</ele>
        <time>2021-08-29T08:45:56Z</time>
      </trkpt>
      <trkpt lat="42.99734" lon="-0.21385">
        <ele>1312.8</ele>
        <time>2021-08-29T08:45:57Z</time>
      </trkpt>
      <trkpt lat="42.99739" lon="-0.21383">
        <ele>1313</ele>
        <time>2021-08-29T08:45:59Z</time>
      </trkpt>
      <trkpt lat="42.99744" lon="-0.21381">
        <ele>1313</ele>
        <time>2021-08-29T08:46:01Z</time>
      </trkpt>
      <trkpt lat="42.99764" lon="-0.21373">
        <ele>1313.8</ele>
        <time>2021-08-29T08:46:09Z</time>
      </trkpt>
      <trkpt lat="42.99767" lon="-0.21372">
        <ele>1313.8</ele>
        <time>2021-08-29T08:46:10Z</time>
      </trkpt>
      <trkpt lat="42.99784" lon="-0.21362">
        <ele>1314.4</ele>
        <time>2021-08-29T08:46:17Z</time>
      </trkpt>
      <trkpt lat="42.99801" lon="-0.21351">
        <ele>1314.8</ele>
        <time>2021-08-29T08:46:24Z</time>
      </trkpt>
      <trkpt lat="42.99803" lon="-0.21348">
        <ele>1314.8</ele>
        <time>2021-08-29T08:46:25Z</time>
      </trkpt>
      <trkpt lat="42.99807" lon="-0.21343">
        <ele>1315.2</ele>
        <time>2021-08-29T08:46:27Z</time>
      </trkpt>
      <trkpt lat="42.99812" lon="-0.21335">
        <ele>1315.2</ele>
        <time>2021-08-29T08:46:30Z</time>
      </trkpt>
      <trkpt lat="42.99814" lon="-0.21332">
        <ele>1315.4</ele>
        <time>2021-08-29T08:46:31Z</time>
      </trkpt>
      <trkpt lat="42.99815" lon="-0.21329">
        <ele>1315.4</ele>
        <time>2021-08-29T08:46:32Z</time>
      </trkpt>
      <trkpt lat="42.99824" lon="-0.21307">
        <ele>1316</ele>
        <time>2021-08-29T08:46:39Z</time>
      </trkpt>
      <trkpt lat="42.99824" lon="-0.21303">
        <ele>1316.2</ele>
        <time>2021-08-29T08:46:40Z</time>
      </trkpt>
      <trkpt lat="42.99825" lon="-0.213">
        <ele>1316.2</ele>
        <time>2021-08-29T08:46:41Z</time>
      </trkpt>
      <trkpt lat="42.99825" lon="-0.21298">
        <ele>1316.2</ele>
        <time>2021-08-29T08:46:42Z</time>
      </trkpt>
      <trkpt lat="42.99824" lon="-0.21295">
        <ele>1316.4</ele>
        <time>2021-08-29T08:46:43Z</time>
      </trkpt>
      <trkpt lat="42.99824" lon="-0.21291">
        <ele>1316.6</ele>
        <time>2021-08-29T08:46:44Z</time>
      </trkpt>
      <trkpt lat="42.99825" lon="-0.21288">
        <ele>1316.6</ele>
        <time>2021-08-29T08:46:45Z</time>
      </trkpt>
      <trkpt lat="42.99822" lon="-0.21275">
        <ele>1316.8</ele>
        <time>2021-08-29T08:46:49Z</time>
      </trkpt>
      <trkpt lat="42.99822" lon="-0.21267">
        <ele>1316.8</ele>
        <time>2021-08-29T08:46:51Z</time>
      </trkpt>
      <trkpt lat="42.99822" lon="-0.21263">
        <ele>1317</ele>
        <time>2021-08-29T08:46:52Z</time>
      </trkpt>
      <trkpt lat="42.99822" lon="-0.21256">
        <ele>1317</ele>
        <time>2021-08-29T08:46:54Z</time>
      </trkpt>
      <trkpt lat="42.99822" lon="-0.21253">
        <ele>1317.2</ele>
        <time>2021-08-29T08:46:55Z</time>
      </trkpt>
      <trkpt lat="42.99826" lon="-0.21242">
        <ele>1317.4</ele>
        <time>2021-08-29T08:46:58Z</time>
      </trkpt>
      <trkpt lat="42.99827" lon="-0.21239">
        <ele>1317.4</ele>
        <time>2021-08-29T08:46:59Z</time>
      </trkpt>
      <trkpt lat="42.9984" lon="-0.21216">
        <ele>1317.6</ele>
        <time>2021-08-29T08:47:05Z</time>
      </trkpt>
      <trkpt lat="42.99843" lon="-0.21213">
        <ele>1317.6</ele>
        <time>2021-08-29T08:47:06Z</time>
      </trkpt>
      <trkpt lat="42.99857" lon="-0.21199">
        <ele>1317.8</ele>
        <time>2021-08-29T08:47:11Z</time>
      </trkpt>
      <trkpt lat="42.99859" lon="-0.21197">
        <ele>1317.8</ele>
        <time>2021-08-29T08:47:12Z</time>
      </trkpt>
      <trkpt lat="42.99861" lon="-0.21195">
        <ele>1317.8</ele>
        <time>2021-08-29T08:47:13Z</time>
      </trkpt>
      <trkpt lat="42.99865" lon="-0.2119">
        <ele>1318</ele>
        <time>2021-08-29T08:47:15Z</time>
      </trkpt>
      <trkpt lat="42.99871" lon="-0.21187">
        <ele>1318.2</ele>
        <time>2021-08-29T08:47:17Z</time>
      </trkpt>
      <trkpt lat="42.99873" lon="-0.21185">
        <ele>1318.2</ele>
        <time>2021-08-29T08:47:18Z</time>
      </trkpt>
      <trkpt lat="42.99893" lon="-0.21166">
        <ele>1319.2</ele>
        <time>2021-08-29T08:47:26Z</time>
      </trkpt>
      <trkpt lat="42.99909" lon="-0.21148">
        <ele>1319.8</ele>
        <time>2021-08-29T08:47:33Z</time>
      </trkpt>
      <trkpt lat="42.99915" lon="-0.2114">
        <ele>1320</ele>
        <time>2021-08-29T08:47:36Z</time>
      </trkpt>
      <trkpt lat="42.99919" lon="-0.21135">
        <ele>1320.2</ele>
        <time>2021-08-29T08:47:38Z</time>
      </trkpt>
      <trkpt lat="42.99924" lon="-0.2113">
        <ele>1320.4</ele>
        <time>2021-08-29T08:47:40Z</time>
      </trkpt>
      <trkpt lat="42.99935" lon="-0.21122">
        <ele>1320.8</ele>
        <time>2021-08-29T08:47:44Z</time>
      </trkpt>
      <trkpt lat="42.99938" lon="-0.21121">
        <ele>1320.8</ele>
        <time>2021-08-29T08:47:45Z</time>
      </trkpt>
      <trkpt lat="42.99946" lon="-0.21116">
        <ele>1320.8</ele>
        <time>2021-08-29T08:47:48Z</time>
      </trkpt>
      <trkpt lat="42.99954" lon="-0.21109">
        <ele>1321</ele>
        <time>2021-08-29T08:47:51Z</time>
      </trkpt>
      <trkpt lat="42.99968" lon="-0.21093">
        <ele>1321.2</ele>
        <time>2021-08-29T08:47:57Z</time>
      </trkpt>
      <trkpt lat="42.99982" lon="-0.21071">
        <ele>1322</ele>
        <time>2021-08-29T08:48:04Z</time>
      </trkpt>
      <trkpt lat="42.99984" lon="-0.21068">
        <ele>1322.2</ele>
        <time>2021-08-29T08:48:05Z</time>
      </trkpt>
      <trkpt lat="42.99985" lon="-0.21065">
        <ele>1322.2</ele>
        <time>2021-08-29T08:48:06Z</time>
      </trkpt>
      <trkpt lat="42.99989" lon="-0.2106">
        <ele>1322.4</ele>
        <time>2021-08-29T08:48:08Z</time>
      </trkpt>
      <trkpt lat="42.99993" lon="-0.21055">
        <ele>1322.6</ele>
        <time>2021-08-29T08:48:10Z</time>
      </trkpt>
      <trkpt lat="42.99995" lon="-0.21053">
        <ele>1322.6</ele>
        <time>2021-08-29T08:48:11Z</time>
      </trkpt>
      <trkpt lat="43" lon="-0.21047">
        <ele>1322.8</ele>
        <time>2021-08-29T08:48:13Z</time>
      </trkpt>
      <trkpt lat="43.00001" lon="-0.21045">
        <ele>1323</ele>
        <time>2021-08-29T08:48:14Z</time>
      </trkpt>
      <trkpt lat="43.00006" lon="-0.21038">
        <ele>1323.2</ele>
        <time>2021-08-29T08:48:16Z</time>
      </trkpt>
      <trkpt lat="43.00015" lon="-0.21023">
        <ele>1323.8</ele>
        <time>2021-08-29T08:48:21Z</time>
      </trkpt>
      <trkpt lat="43.00023" lon="-0.21011">
        <ele>1324</ele>
        <time>2021-08-29T08:48:25Z</time>
      </trkpt>
      <trkpt lat="43.00024" lon="-0.21007">
        <ele>1324</ele>
        <time>2021-08-29T08:48:26Z</time>
      </trkpt>
      <trkpt lat="43.00025" lon="-0.21003">
        <ele>1324</ele>
        <time>2021-08-29T08:48:27Z</time>
      </trkpt>
      <trkpt lat="43.00025" lon="-0.20999">
        <ele>1324</ele>
        <time>2021-08-29T08:48:28Z</time>
      </trkpt>
      <trkpt lat="43.00026" lon="-0.20996">
        <ele>1324.2</ele>
        <time>2021-08-29T08:48:29Z</time>
      </trkpt>
      <trkpt lat="43.00026" lon="-0.20992">
        <ele>1324.2</ele>
        <time>2021-08-29T08:48:30Z</time>
      </trkpt>
      <trkpt lat="43.00026" lon="-0.20988">
        <ele>1324.2</ele>
        <time>2021-08-29T08:48:31Z</time>
      </trkpt>
      <trkpt lat="43.00028" lon="-0.2098">
        <ele>1324.4</ele>
        <time>2021-08-29T08:48:33Z</time>
      </trkpt>
      <trkpt lat="43.00028" lon="-0.20976">
        <ele>1324.4</ele>
        <time>2021-08-29T08:48:34Z</time>
      </trkpt>
      <trkpt lat="43.00028" lon="-0.20947">
        <ele>1324.4</ele>
        <time>2021-08-29T08:48:41Z</time>
      </trkpt>
      <trkpt lat="43.00022" lon="-0.20921">
        <ele>1324.2</ele>
        <time>2021-08-29T08:48:47Z</time>
      </trkpt>
      <trkpt lat="43.00019" lon="-0.20906">
        <ele>1324.2</ele>
        <time>2021-08-29T08:48:51Z</time>
      </trkpt>
      <trkpt lat="43.00019" lon="-0.20902">
        <ele>1324.4</ele>
        <time>2021-08-29T08:48:52Z</time>
      </trkpt>
      <trkpt lat="43.00018" lon="-0.20899">
        <ele>1324.4</ele>
        <time>2021-08-29T08:48:53Z</time>
      </trkpt>
      <trkpt lat="43.00017" lon="-0.20896">
        <ele>1324.4</ele>
        <time>2021-08-29T08:48:54Z</time>
      </trkpt>
      <trkpt lat="43.00016" lon="-0.20892">
        <ele>1324.4</ele>
        <time>2021-08-29T08:48:55Z</time>
      </trkpt>
      <trkpt lat="43.00015" lon="-0.20888">
        <ele>1324.4</ele>
        <time>2021-08-29T08:48:56Z</time>
      </trkpt>
      <trkpt lat="43.00014" lon="-0.20886">
        <ele>1324.6</ele>
        <time>2021-08-29T08:48:57Z</time>
      </trkpt>
      <trkpt lat="43.0001" lon="-0.20883">
        <ele>1324.6</ele>
        <time>2021-08-29T08:48:58Z</time>
      </trkpt>
      <trkpt lat="43.00009" lon="-0.20879">
        <ele>1324.6</ele>
        <time>2021-08-29T08:48:59Z</time>
      </trkpt>
      <trkpt lat="43.00008" lon="-0.20875">
        <ele>1324.6</ele>
        <time>2021-08-29T08:49:00Z</time>
      </trkpt>
      <trkpt lat="43.00006" lon="-0.20871">
        <ele>1324.8</ele>
        <time>2021-08-29T08:49:01Z</time>
      </trkpt>
      <trkpt lat="43.00006" lon="-0.20867">
        <ele>1324.8</ele>
        <time>2021-08-29T08:49:02Z</time>
      </trkpt>
      <trkpt lat="43.00005" lon="-0.20864">
        <ele>1324.8</ele>
        <time>2021-08-29T08:49:03Z</time>
      </trkpt>
      <trkpt lat="43.00004" lon="-0.20856">
        <ele>1325</ele>
        <time>2021-08-29T08:49:05Z</time>
      </trkpt>
      <trkpt lat="43.00003" lon="-0.20853">
        <ele>1325.2</ele>
        <time>2021-08-29T08:49:06Z</time>
      </trkpt>
      <trkpt lat="43.00001" lon="-0.20845">
        <ele>1325.4</ele>
        <time>2021-08-29T08:49:08Z</time>
      </trkpt>
      <trkpt lat="42.99999" lon="-0.20842">
        <ele>1325.4</ele>
        <time>2021-08-29T08:49:09Z</time>
      </trkpt>
      <trkpt lat="42.99998" lon="-0.20839">
        <ele>1325.6</ele>
        <time>2021-08-29T08:49:10Z</time>
      </trkpt>
      <trkpt lat="42.99992" lon="-0.20831">
        <ele>1325.6</ele>
        <time>2021-08-29T08:49:13Z</time>
      </trkpt>
      <trkpt lat="42.9999" lon="-0.20829">
        <ele>1325.6</ele>
        <time>2021-08-29T08:49:14Z</time>
      </trkpt>
      <trkpt lat="42.99988" lon="-0.20827">
        <ele>1325.6</ele>
        <time>2021-08-29T08:49:15Z</time>
      </trkpt>
      <trkpt lat="42.99986" lon="-0.20821">
        <ele>1325.8</ele>
        <time>2021-08-29T08:49:17Z</time>
      </trkpt>
      <trkpt lat="42.99986" lon="-0.20817">
        <ele>1326</ele>
        <time>2021-08-29T08:49:18Z</time>
      </trkpt>
      <trkpt lat="42.99984" lon="-0.20813">
        <ele>1326</ele>
        <time>2021-08-29T08:49:19Z</time>
      </trkpt>
      <trkpt lat="42.99982" lon="-0.20809">
        <ele>1326.2</ele>
        <time>2021-08-29T08:49:20Z</time>
      </trkpt>
      <trkpt lat="42.99978" lon="-0.20793">
        <ele>1326.4</ele>
        <time>2021-08-29T08:49:24Z</time>
      </trkpt>
      <trkpt lat="42.99978" lon="-0.20786">
        <ele>1326.4</ele>
        <time>2021-08-29T08:49:26Z</time>
      </trkpt>
      <trkpt lat="42.99975" lon="-0.2077">
        <ele>1326.8</ele>
        <time>2021-08-29T08:49:30Z</time>
      </trkpt>
      <trkpt lat="42.99974" lon="-0.20766">
        <ele>1326.8</ele>
        <time>2021-08-29T08:49:31Z</time>
      </trkpt>
      <trkpt lat="42.9997" lon="-0.20745">
        <ele>1327.2</ele>
        <time>2021-08-29T08:49:36Z</time>
      </trkpt>
      <trkpt lat="42.99971" lon="-0.20741">
        <ele>1327.6</ele>
        <time>2021-08-29T08:49:37Z</time>
      </trkpt>
      <trkpt lat="42.99971" lon="-0.20737">
        <ele>1327.6</ele>
        <time>2021-08-29T08:49:38Z</time>
      </trkpt>
      <trkpt lat="42.9997" lon="-0.20728">
        <ele>1327.8</ele>
        <time>2021-08-29T08:49:40Z</time>
      </trkpt>
      <trkpt lat="42.99969" lon="-0.20724">
        <ele>1328</ele>
        <time>2021-08-29T08:49:41Z</time>
      </trkpt>
      <trkpt lat="42.99967" lon="-0.20719">
        <ele>1328.2</ele>
        <time>2021-08-29T08:49:42Z</time>
      </trkpt>
      <trkpt lat="42.99964" lon="-0.2071">
        <ele>1328.4</ele>
        <time>2021-08-29T08:49:44Z</time>
      </trkpt>
      <trkpt lat="42.99965" lon="-0.20706">
        <ele>1328.4</ele>
        <time>2021-08-29T08:49:45Z</time>
      </trkpt>
      <trkpt lat="42.99966" lon="-0.20702">
        <ele>1328.6</ele>
        <time>2021-08-29T08:49:46Z</time>
      </trkpt>
      <trkpt lat="42.99966" lon="-0.20698">
        <ele>1328.6</ele>
        <time>2021-08-29T08:49:47Z</time>
      </trkpt>
      <trkpt lat="42.99966" lon="-0.20694">
        <ele>1328.6</ele>
        <time>2021-08-29T08:49:48Z</time>
      </trkpt>
      <trkpt lat="42.99966" lon="-0.20691">
        <ele>1328.8</ele>
        <time>2021-08-29T08:49:49Z</time>
      </trkpt>
      <trkpt lat="42.99966" lon="-0.20687">
        <ele>1329</ele>
        <time>2021-08-29T08:49:50Z</time>
      </trkpt>
      <trkpt lat="42.99966" lon="-0.20684">
        <ele>1329.2</ele>
        <time>2021-08-29T08:49:51Z</time>
      </trkpt>
      <trkpt lat="42.99966" lon="-0.20681">
        <ele>1329.2</ele>
        <time>2021-08-29T08:49:52Z</time>
      </trkpt>
      <trkpt lat="42.99967" lon="-0.20677">
        <ele>1329.4</ele>
        <time>2021-08-29T08:49:53Z</time>
      </trkpt>
      <trkpt lat="42.99967" lon="-0.20674">
        <ele>1329.4</ele>
        <time>2021-08-29T08:49:54Z</time>
      </trkpt>
      <trkpt lat="42.99968" lon="-0.2067">
        <ele>1329.4</ele>
        <time>2021-08-29T08:49:55Z</time>
      </trkpt>
      <trkpt lat="42.99969" lon="-0.20667">
        <ele>1329.4</ele>
        <time>2021-08-29T08:49:56Z</time>
      </trkpt>
      <trkpt lat="42.9997" lon="-0.20663">
        <ele>1329.6</ele>
        <time>2021-08-29T08:49:57Z</time>
      </trkpt>
      <trkpt lat="42.99971" lon="-0.20659">
        <ele>1329.6</ele>
        <time>2021-08-29T08:49:58Z</time>
      </trkpt>
      <trkpt lat="42.99971" lon="-0.20655">
        <ele>1329.6</ele>
        <time>2021-08-29T08:49:59Z</time>
      </trkpt>
      <trkpt lat="42.99972" lon="-0.20651">
        <ele>1329.8</ele>
        <time>2021-08-29T08:50:00Z</time>
      </trkpt>
      <trkpt lat="42.99973" lon="-0.20647">
        <ele>1329.8</ele>
        <time>2021-08-29T08:50:01Z</time>
      </trkpt>
      <trkpt lat="42.99974" lon="-0.20644">
        <ele>1329.8</ele>
        <time>2021-08-29T08:50:02Z</time>
      </trkpt>
      <trkpt lat="42.99975" lon="-0.2064">
        <ele>1329.8</ele>
        <time>2021-08-29T08:50:03Z</time>
      </trkpt>
      <trkpt lat="42.99976" lon="-0.20636">
        <ele>1329.8</ele>
        <time>2021-08-29T08:50:04Z</time>
      </trkpt>
      <trkpt lat="42.99979" lon="-0.20626">
        <ele>1330.2</ele>
        <time>2021-08-29T08:50:07Z</time>
      </trkpt>
      <trkpt lat="42.99981" lon="-0.20619">
        <ele>1330.6</ele>
        <time>2021-08-29T08:50:09Z</time>
      </trkpt>
      <trkpt lat="42.99982" lon="-0.20616">
        <ele>1330.6</ele>
        <time>2021-08-29T08:50:10Z</time>
      </trkpt>
      <trkpt lat="42.99984" lon="-0.20609">
        <ele>1330.8</ele>
        <time>2021-08-29T08:50:12Z</time>
      </trkpt>
      <trkpt lat="42.99986" lon="-0.20605">
        <ele>1330.8</ele>
        <time>2021-08-29T08:50:13Z</time>
      </trkpt>
      <trkpt lat="42.99988" lon="-0.20598">
        <ele>1331</ele>
        <time>2021-08-29T08:50:15Z</time>
      </trkpt>
      <trkpt lat="42.99996" lon="-0.20582">
        <ele>1331.4</ele>
        <time>2021-08-29T08:50:20Z</time>
      </trkpt>
      <trkpt lat="42.99998" lon="-0.20578">
        <ele>1331.6</ele>
        <time>2021-08-29T08:50:21Z</time>
      </trkpt>
      <trkpt lat="43.00004" lon="-0.20558">
        <ele>1332</ele>
        <time>2021-08-29T08:50:27Z</time>
      </trkpt>
      <trkpt lat="43.00005" lon="-0.20554">
        <ele>1332</ele>
        <time>2021-08-29T08:50:28Z</time>
      </trkpt>
      <trkpt lat="43.00011" lon="-0.20523">
        <ele>1332.4</ele>
        <time>2021-08-29T08:50:36Z</time>
      </trkpt>
      <trkpt lat="43.00012" lon="-0.20495">
        <ele>1332.4</ele>
        <time>2021-08-29T08:50:43Z</time>
      </trkpt>
      <trkpt lat="43.0001" lon="-0.20468">
        <ele>1332.6</ele>
        <time>2021-08-29T08:50:49Z</time>
      </trkpt>
      <trkpt lat="43.00009" lon="-0.20455">
        <ele>1332.8</ele>
        <time>2021-08-29T08:50:52Z</time>
      </trkpt>
      <trkpt lat="43.00009" lon="-0.20446">
        <ele>1333</ele>
        <time>2021-08-29T08:50:54Z</time>
      </trkpt>
      <trkpt lat="43.00009" lon="-0.20443">
        <ele>1333.2</ele>
        <time>2021-08-29T08:50:55Z</time>
      </trkpt>
      <trkpt lat="43.00005" lon="-0.20433">
        <ele>1333.2</ele>
        <time>2021-08-29T08:50:57Z</time>
      </trkpt>
      <trkpt lat="43.00003" lon="-0.20428">
        <ele>1333.2</ele>
        <time>2021-08-29T08:50:58Z</time>
      </trkpt>
      <trkpt lat="43.00001" lon="-0.20418">
        <ele>1333.2</ele>
        <time>2021-08-29T08:51:00Z</time>
      </trkpt>
      <trkpt lat="42.99998" lon="-0.204">
        <ele>1333.6</ele>
        <time>2021-08-29T08:51:04Z</time>
      </trkpt>
      <trkpt lat="42.99998" lon="-0.20395">
        <ele>1333.6</ele>
        <time>2021-08-29T08:51:05Z</time>
      </trkpt>
      <trkpt lat="42.99997" lon="-0.20392">
        <ele>1333.6</ele>
        <time>2021-08-29T08:51:06Z</time>
      </trkpt>
      <trkpt lat="42.99996" lon="-0.20384">
        <ele>1333.6</ele>
        <time>2021-08-29T08:51:08Z</time>
      </trkpt>
      <trkpt lat="42.99995" lon="-0.20374">
        <ele>1333.8</ele>
        <time>2021-08-29T08:51:10Z</time>
      </trkpt>
      <trkpt lat="42.99996" lon="-0.20369">
        <ele>1334</ele>
        <time>2021-08-29T08:51:11Z</time>
      </trkpt>
      <trkpt lat="42.99995" lon="-0.20361">
        <ele>1334</ele>
        <time>2021-08-29T08:51:13Z</time>
      </trkpt>
      <trkpt lat="42.99989" lon="-0.20334">
        <ele>1334.4</ele>
        <time>2021-08-29T08:51:19Z</time>
      </trkpt>
      <trkpt lat="42.99989" lon="-0.20331">
        <ele>1334.4</ele>
        <time>2021-08-29T08:51:20Z</time>
      </trkpt>
      <trkpt lat="42.99988" lon="-0.20328">
        <ele>1334.6</ele>
        <time>2021-08-29T08:51:21Z</time>
      </trkpt>
      <trkpt lat="42.99987" lon="-0.20326">
        <ele>1334.6</ele>
        <time>2021-08-29T08:51:22Z</time>
      </trkpt>
      <trkpt lat="42.99984" lon="-0.20323">
        <ele>1334.6</ele>
        <time>2021-08-29T08:51:23Z</time>
      </trkpt>
      <trkpt lat="42.99983" lon="-0.20321">
        <ele>1334.8</ele>
        <time>2021-08-29T08:51:24Z</time>
      </trkpt>
      <trkpt lat="42.99982" lon="-0.20319">
        <ele>1334.8</ele>
        <time>2021-08-29T08:51:25Z</time>
      </trkpt>
      <trkpt lat="42.99981" lon="-0.20317">
        <ele>1334.8</ele>
        <time>2021-08-29T08:51:26Z</time>
      </trkpt>
      <trkpt lat="42.99979" lon="-0.20316">
        <ele>1335</ele>
        <time>2021-08-29T08:51:27Z</time>
      </trkpt>
      <trkpt lat="42.99978" lon="-0.20315">
        <ele>1335</ele>
        <time>2021-08-29T08:51:28Z</time>
      </trkpt>
      <trkpt lat="42.99975" lon="-0.20314">
        <ele>1335</ele>
        <time>2021-08-29T08:51:29Z</time>
      </trkpt>
      <trkpt lat="42.99973" lon="-0.20315">
        <ele>1335.2</ele>
        <time>2021-08-29T08:51:30Z</time>
      </trkpt>
      <trkpt lat="42.99969" lon="-0.20315">
        <ele>1335.2</ele>
        <time>2021-08-29T08:51:31Z</time>
      </trkpt>
      <trkpt lat="42.99958" lon="-0.20318">
        <ele>1335.2</ele>
        <time>2021-08-29T08:51:35Z</time>
      </trkpt>
      <trkpt lat="42.99955" lon="-0.20319">
        <ele>1335.4</ele>
        <time>2021-08-29T08:51:36Z</time>
      </trkpt>
      <trkpt lat="42.99953" lon="-0.20319">
        <ele>1335.4</ele>
        <time>2021-08-29T08:51:37Z</time>
      </trkpt>
      <trkpt lat="42.99938" lon="-0.20318">
        <ele>1335.6</ele>
        <time>2021-08-29T08:51:42Z</time>
      </trkpt>
      <trkpt lat="42.99917" lon="-0.20311">
        <ele>1335.8</ele>
        <time>2021-08-29T08:51:49Z</time>
      </trkpt>
      <trkpt lat="42.99914" lon="-0.20312">
        <ele>1336</ele>
        <time>2021-08-29T08:51:50Z</time>
      </trkpt>
      <trkpt lat="42.99899" lon="-0.20319">
        <ele>1336.8</ele>
        <time>2021-08-29T08:51:55Z</time>
      </trkpt>
      <trkpt lat="42.99892" lon="-0.20328">
        <ele>1337</ele>
        <time>2021-08-29T08:51:58Z</time>
      </trkpt>
      <trkpt lat="42.99881" lon="-0.20339">
        <ele>1337.2</ele>
        <time>2021-08-29T08:52:02Z</time>
      </trkpt>
      <trkpt lat="42.99875" lon="-0.20348">
        <ele>1337.4</ele>
        <time>2021-08-29T08:52:05Z</time>
      </trkpt>
      <trkpt lat="42.99863" lon="-0.20355">
        <ele>1337.8</ele>
        <time>2021-08-29T08:52:09Z</time>
      </trkpt>
      <trkpt lat="42.99849" lon="-0.20358">
        <ele>1338.2</ele>
        <time>2021-08-29T08:52:13Z</time>
      </trkpt>
      <trkpt lat="42.9984" lon="-0.20362">
        <ele>1338.6</ele>
        <time>2021-08-29T08:52:16Z</time>
      </trkpt>
      <trkpt lat="42.99818" lon="-0.20373">
        <ele>1339</ele>
        <time>2021-08-29T08:52:23Z</time>
      </trkpt>
      <trkpt lat="42.99814" lon="-0.20374">
        <ele>1339</ele>
        <time>2021-08-29T08:52:24Z</time>
      </trkpt>
      <trkpt lat="42.99811" lon="-0.20375">
        <ele>1339.2</ele>
        <time>2021-08-29T08:52:25Z</time>
      </trkpt>
      <trkpt lat="42.99808" lon="-0.20376">
        <ele>1339.4</ele>
        <time>2021-08-29T08:52:26Z</time>
      </trkpt>
      <trkpt lat="42.99805" lon="-0.20377">
        <ele>1339.4</ele>
        <time>2021-08-29T08:52:27Z</time>
      </trkpt>
      <trkpt lat="42.99803" lon="-0.20377">
        <ele>1339.6</ele>
        <time>2021-08-29T08:52:28Z</time>
      </trkpt>
      <trkpt lat="42.998" lon="-0.20377">
        <ele>1340</ele>
        <time>2021-08-29T08:52:29Z</time>
      </trkpt>
      <trkpt lat="42.99798" lon="-0.20376">
        <ele>1340.2</ele>
        <time>2021-08-29T08:52:30Z</time>
      </trkpt>
      <trkpt lat="42.99791" lon="-0.20374">
        <ele>1340.2</ele>
        <time>2021-08-29T08:52:32Z</time>
      </trkpt>
      <trkpt lat="42.99788" lon="-0.20372">
        <ele>1340.4</ele>
        <time>2021-08-29T08:52:33Z</time>
      </trkpt>
      <trkpt lat="42.99785" lon="-0.2037">
        <ele>1340.4</ele>
        <time>2021-08-29T08:52:34Z</time>
      </trkpt>
      <trkpt lat="42.99783" lon="-0.20369">
        <ele>1340.6</ele>
        <time>2021-08-29T08:52:35Z</time>
      </trkpt>
      <trkpt lat="42.9978" lon="-0.20367">
        <ele>1340.6</ele>
        <time>2021-08-29T08:52:36Z</time>
      </trkpt>
      <trkpt lat="42.99777" lon="-0.20364">
        <ele>1340.8</ele>
        <time>2021-08-29T08:52:37Z</time>
      </trkpt>
      <trkpt lat="42.99774" lon="-0.20361">
        <ele>1340.8</ele>
        <time>2021-08-29T08:52:38Z</time>
      </trkpt>
      <trkpt lat="42.99771" lon="-0.20359">
        <ele>1340.8</ele>
        <time>2021-08-29T08:52:39Z</time>
      </trkpt>
      <trkpt lat="42.99766" lon="-0.20357">
        <ele>1340.8</ele>
        <time>2021-08-29T08:52:40Z</time>
      </trkpt>
      <trkpt lat="42.99762" lon="-0.20355">
        <ele>1341</ele>
        <time>2021-08-29T08:52:41Z</time>
      </trkpt>
      <trkpt lat="42.99759" lon="-0.20354">
        <ele>1341</ele>
        <time>2021-08-29T08:52:42Z</time>
      </trkpt>
      <trkpt lat="42.99755" lon="-0.20353">
        <ele>1341</ele>
        <time>2021-08-29T08:52:43Z</time>
      </trkpt>
      <trkpt lat="42.99751" lon="-0.20352">
        <ele>1341.2</ele>
        <time>2021-08-29T08:52:44Z</time>
      </trkpt>
      <trkpt lat="42.99747" lon="-0.20351">
        <ele>1341.2</ele>
        <time>2021-08-29T08:52:45Z</time>
      </trkpt>
      <trkpt lat="42.99744" lon="-0.20351">
        <ele>1341.4</ele>
        <time>2021-08-29T08:52:46Z</time>
      </trkpt>
      <trkpt lat="42.99732" lon="-0.20352">
        <ele>1341.6</ele>
        <time>2021-08-29T08:52:49Z</time>
      </trkpt>
      <trkpt lat="42.9971" lon="-0.20358">
        <ele>1342</ele>
        <time>2021-08-29T08:52:55Z</time>
      </trkpt>
      <trkpt lat="42.99706" lon="-0.20359">
        <ele>1342</ele>
        <time>2021-08-29T08:52:56Z</time>
      </trkpt>
      <trkpt lat="42.997" lon="-0.20358">
        <ele>1342.2</ele>
        <time>2021-08-29T08:52:58Z</time>
      </trkpt>
      <trkpt lat="42.99697" lon="-0.20356">
        <ele>1342.2</ele>
        <time>2021-08-29T08:52:59Z</time>
      </trkpt>
      <trkpt lat="42.99693" lon="-0.20355">
        <ele>1342.2</ele>
        <time>2021-08-29T08:53:00Z</time>
      </trkpt>
      <trkpt lat="42.99681" lon="-0.20348">
        <ele>1342.4</ele>
        <time>2021-08-29T08:53:04Z</time>
      </trkpt>
      <trkpt lat="42.9967" lon="-0.20344">
        <ele>1342.6</ele>
        <time>2021-08-29T08:53:07Z</time>
      </trkpt>
      <trkpt lat="42.99647" lon="-0.20346">
        <ele>1343</ele>
        <time>2021-08-29T08:53:14Z</time>
      </trkpt>
      <trkpt lat="42.99638" lon="-0.20346">
        <ele>1343.2</ele>
        <time>2021-08-29T08:53:17Z</time>
      </trkpt>
      <trkpt lat="42.99635" lon="-0.20346">
        <ele>1343.2</ele>
        <time>2021-08-29T08:53:18Z</time>
      </trkpt>
      <trkpt lat="42.99632" lon="-0.20347">
        <ele>1343.4</ele>
        <time>2021-08-29T08:53:19Z</time>
      </trkpt>
      <trkpt lat="42.99629" lon="-0.20348">
        <ele>1343.6</ele>
        <time>2021-08-29T08:53:20Z</time>
      </trkpt>
      <trkpt lat="42.99626" lon="-0.20348">
        <ele>1343.6</ele>
        <time>2021-08-29T08:53:21Z</time>
      </trkpt>
      <trkpt lat="42.99622" lon="-0.20349">
        <ele>1343.8</ele>
        <time>2021-08-29T08:53:22Z</time>
      </trkpt>
      <trkpt lat="42.99616" lon="-0.20353">
        <ele>1344</ele>
        <time>2021-08-29T08:53:24Z</time>
      </trkpt>
      <trkpt lat="42.99604" lon="-0.2036">
        <ele>1344.6</ele>
        <time>2021-08-29T08:53:28Z</time>
      </trkpt>
      <trkpt lat="42.99591" lon="-0.20369">
        <ele>1345.2</ele>
        <time>2021-08-29T08:53:32Z</time>
      </trkpt>
      <trkpt lat="42.99588" lon="-0.20372">
        <ele>1345.2</ele>
        <time>2021-08-29T08:53:33Z</time>
      </trkpt>
      <trkpt lat="42.99584" lon="-0.20374">
        <ele>1345.2</ele>
        <time>2021-08-29T08:53:34Z</time>
      </trkpt>
      <trkpt lat="42.99581" lon="-0.20376">
        <ele>1345.4</ele>
        <time>2021-08-29T08:53:35Z</time>
      </trkpt>
      <trkpt lat="42.99579" lon="-0.20378">
        <ele>1345.4</ele>
        <time>2021-08-29T08:53:36Z</time>
      </trkpt>
      <trkpt lat="42.99576" lon="-0.2038">
        <ele>1345.6</ele>
        <time>2021-08-29T08:53:37Z</time>
      </trkpt>
      <trkpt lat="42.99573" lon="-0.20382">
        <ele>1345.6</ele>
        <time>2021-08-29T08:53:38Z</time>
      </trkpt>
      <trkpt lat="42.99571" lon="-0.20385">
        <ele>1345.8</ele>
        <time>2021-08-29T08:53:39Z</time>
      </trkpt>
      <trkpt lat="42.99569" lon="-0.20389">
        <ele>1346</ele>
        <time>2021-08-29T08:53:40Z</time>
      </trkpt>
      <trkpt lat="42.99567" lon="-0.20393">
        <ele>1346.2</ele>
        <time>2021-08-29T08:53:41Z</time>
      </trkpt>
      <trkpt lat="42.99565" lon="-0.20398">
        <ele>1346.2</ele>
        <time>2021-08-29T08:53:42Z</time>
      </trkpt>
      <trkpt lat="42.99564" lon="-0.20402">
        <ele>1346.2</ele>
        <time>2021-08-29T08:53:43Z</time>
      </trkpt>
      <trkpt lat="42.99563" lon="-0.20407">
        <ele>1346.4</ele>
        <time>2021-08-29T08:53:44Z</time>
      </trkpt>
      <trkpt lat="42.99563" lon="-0.20411">
        <ele>1346.6</ele>
        <time>2021-08-29T08:53:45Z</time>
      </trkpt>
      <trkpt lat="42.99563" lon="-0.20416">
        <ele>1346.6</ele>
        <time>2021-08-29T08:53:46Z</time>
      </trkpt>
      <trkpt lat="42.99561" lon="-0.20421">
        <ele>1346.8</ele>
        <time>2021-08-29T08:53:47Z</time>
      </trkpt>
      <trkpt lat="42.99559" lon="-0.20425">
        <ele>1346.8</ele>
        <time>2021-08-29T08:53:48Z</time>
      </trkpt>
      <trkpt lat="42.99557" lon="-0.20429">
        <ele>1346.8</ele>
        <time>2021-08-29T08:53:49Z</time>
      </trkpt>
      <trkpt lat="42.99554" lon="-0.20432">
        <ele>1347</ele>
        <time>2021-08-29T08:53:50Z</time>
      </trkpt>
      <trkpt lat="42.99551" lon="-0.20435">
        <ele>1347</ele>
        <time>2021-08-29T08:53:51Z</time>
      </trkpt>
      <trkpt lat="42.99548" lon="-0.20436">
        <ele>1347</ele>
        <time>2021-08-29T08:53:52Z</time>
      </trkpt>
      <trkpt lat="42.99545" lon="-0.20437">
        <ele>1347.2</ele>
        <time>2021-08-29T08:53:53Z</time>
      </trkpt>
      <trkpt lat="42.99541" lon="-0.20439">
        <ele>1347.2</ele>
        <time>2021-08-29T08:53:54Z</time>
      </trkpt>
      <trkpt lat="42.99537" lon="-0.2044">
        <ele>1347.4</ele>
        <time>2021-08-29T08:53:55Z</time>
      </trkpt>
      <trkpt lat="42.99533" lon="-0.20441">
        <ele>1347.6</ele>
        <time>2021-08-29T08:53:56Z</time>
      </trkpt>
      <trkpt lat="42.9953" lon="-0.20443">
        <ele>1347.8</ele>
        <time>2021-08-29T08:53:57Z</time>
      </trkpt>
      <trkpt lat="42.99527" lon="-0.20445">
        <ele>1348</ele>
        <time>2021-08-29T08:53:58Z</time>
      </trkpt>
      <trkpt lat="42.99525" lon="-0.20448">
        <ele>1348.2</ele>
        <time>2021-08-29T08:53:59Z</time>
      </trkpt>
      <trkpt lat="42.99523" lon="-0.20451">
        <ele>1348.4</ele>
        <time>2021-08-29T08:54:00Z</time>
      </trkpt>
      <trkpt lat="42.99521" lon="-0.20456">
        <ele>1348.4</ele>
        <time>2021-08-29T08:54:01Z</time>
      </trkpt>
      <trkpt lat="42.9952" lon="-0.20461">
        <ele>1348.4</ele>
        <time>2021-08-29T08:54:02Z</time>
      </trkpt>
      <trkpt lat="42.99518" lon="-0.20465">
        <ele>1348.4</ele>
        <time>2021-08-29T08:54:03Z</time>
      </trkpt>
      <trkpt lat="42.99517" lon="-0.2047">
        <ele>1348.4</ele>
        <time>2021-08-29T08:54:04Z</time>
      </trkpt>
      <trkpt lat="42.99516" lon="-0.20475">
        <ele>1348.6</ele>
        <time>2021-08-29T08:54:05Z</time>
      </trkpt>
      <trkpt lat="42.99515" lon="-0.20479">
        <ele>1348.6</ele>
        <time>2021-08-29T08:54:06Z</time>
      </trkpt>
      <trkpt lat="42.99514" lon="-0.20484">
        <ele>1348.6</ele>
        <time>2021-08-29T08:54:07Z</time>
      </trkpt>
      <trkpt lat="42.99514" lon="-0.20489">
        <ele>1348.6</ele>
        <time>2021-08-29T08:54:08Z</time>
      </trkpt>
      <trkpt lat="42.99513" lon="-0.20494">
        <ele>1348.6</ele>
        <time>2021-08-29T08:54:09Z</time>
      </trkpt>
      <trkpt lat="42.99512" lon="-0.20499">
        <ele>1348.6</ele>
        <time>2021-08-29T08:54:10Z</time>
      </trkpt>
      <trkpt lat="42.99511" lon="-0.20503">
        <ele>1348.8</ele>
        <time>2021-08-29T08:54:11Z</time>
      </trkpt>
      <trkpt lat="42.99508" lon="-0.20507">
        <ele>1348.8</ele>
        <time>2021-08-29T08:54:12Z</time>
      </trkpt>
      <trkpt lat="42.99505" lon="-0.2051">
        <ele>1349</ele>
        <time>2021-08-29T08:54:13Z</time>
      </trkpt>
      <trkpt lat="42.99502" lon="-0.20512">
        <ele>1349</ele>
        <time>2021-08-29T08:54:14Z</time>
      </trkpt>
      <trkpt lat="42.99499" lon="-0.20513">
        <ele>1349.2</ele>
        <time>2021-08-29T08:54:15Z</time>
      </trkpt>
      <trkpt lat="42.99497" lon="-0.20513">
        <ele>1349.2</ele>
        <time>2021-08-29T08:54:16Z</time>
      </trkpt>
      <trkpt lat="42.99495" lon="-0.20513">
        <ele>1349.4</ele>
        <time>2021-08-29T08:54:17Z</time>
      </trkpt>
      <trkpt lat="42.99493" lon="-0.20512">
        <ele>1349.4</ele>
        <time>2021-08-29T08:54:18Z</time>
      </trkpt>
      <trkpt lat="42.9949" lon="-0.2051">
        <ele>1349.6</ele>
        <time>2021-08-29T08:54:19Z</time>
      </trkpt>
      <trkpt lat="42.99481" lon="-0.20508">
        <ele>1349.8</ele>
        <time>2021-08-29T08:54:22Z</time>
      </trkpt>
      <trkpt lat="42.99477" lon="-0.20507">
        <ele>1349.8</ele>
        <time>2021-08-29T08:54:23Z</time>
      </trkpt>
      <trkpt lat="42.99475" lon="-0.20507">
        <ele>1350</ele>
        <time>2021-08-29T08:54:24Z</time>
      </trkpt>
      <trkpt lat="42.99473" lon="-0.20506">
        <ele>1350.2</ele>
        <time>2021-08-29T08:54:25Z</time>
      </trkpt>
      <trkpt lat="42.99471" lon="-0.20505">
        <ele>1350.4</ele>
        <time>2021-08-29T08:54:26Z</time>
      </trkpt>
      <trkpt lat="42.99469" lon="-0.20503">
        <ele>1350.4</ele>
        <time>2021-08-29T08:54:27Z</time>
      </trkpt>
      <trkpt lat="42.99451" lon="-0.20487">
        <ele>1350.6</ele>
        <time>2021-08-29T08:54:33Z</time>
      </trkpt>
      <trkpt lat="42.99437" lon="-0.20475">
        <ele>1350.8</ele>
        <time>2021-08-29T08:54:37Z</time>
      </trkpt>
      <trkpt lat="42.99423" lon="-0.2046">
        <ele>1351.2</ele>
        <time>2021-08-29T08:54:41Z</time>
      </trkpt>
      <trkpt lat="42.99419" lon="-0.20457">
        <ele>1351.2</ele>
        <time>2021-08-29T08:54:42Z</time>
      </trkpt>
      <trkpt lat="42.99416" lon="-0.20453">
        <ele>1351.2</ele>
        <time>2021-08-29T08:54:43Z</time>
      </trkpt>
      <trkpt lat="42.99415" lon="-0.20449">
        <ele>1351.2</ele>
        <time>2021-08-29T08:54:44Z</time>
      </trkpt>
      <trkpt lat="42.99413" lon="-0.20445">
        <ele>1351.2</ele>
        <time>2021-08-29T08:54:45Z</time>
      </trkpt>
      <trkpt lat="42.9941" lon="-0.2044">
        <ele>1351.2</ele>
        <time>2021-08-29T08:54:46Z</time>
      </trkpt>
      <trkpt lat="42.99403" lon="-0.2043">
        <ele>1351.2</ele>
        <time>2021-08-29T08:54:48Z</time>
      </trkpt>
      <trkpt lat="42.99399" lon="-0.20425">
        <ele>1351.4</ele>
        <time>2021-08-29T08:54:49Z</time>
      </trkpt>
      <trkpt lat="42.99397" lon="-0.20419">
        <ele>1351.4</ele>
        <time>2021-08-29T08:54:50Z</time>
      </trkpt>
      <trkpt lat="42.99392" lon="-0.20409">
        <ele>1351.4</ele>
        <time>2021-08-29T08:54:52Z</time>
      </trkpt>
      <trkpt lat="42.9939" lon="-0.20403">
        <ele>1351.6</ele>
        <time>2021-08-29T08:54:53Z</time>
      </trkpt>
      <trkpt lat="42.99378" lon="-0.20393">
        <ele>1351.4</ele>
        <time>2021-08-29T08:54:56Z</time>
      </trkpt>
      <trkpt lat="42.99373" lon="-0.20391">
        <ele>1351.6</ele>
        <time>2021-08-29T08:54:57Z</time>
      </trkpt>
      <trkpt lat="42.99369" lon="-0.2039">
        <ele>1351.6</ele>
        <time>2021-08-29T08:54:58Z</time>
      </trkpt>
      <trkpt lat="42.99365" lon="-0.20389">
        <ele>1351.6</ele>
        <time>2021-08-29T08:54:59Z</time>
      </trkpt>
      <trkpt lat="42.99361" lon="-0.2039">
        <ele>1351.6</ele>
        <time>2021-08-29T08:55:00Z</time>
      </trkpt>
      <trkpt lat="42.99357" lon="-0.20391">
        <ele>1351.6</ele>
        <time>2021-08-29T08:55:01Z</time>
      </trkpt>
      <trkpt lat="42.99352" lon="-0.20392">
        <ele>1351.6</ele>
        <time>2021-08-29T08:55:02Z</time>
      </trkpt>
      <trkpt lat="42.99348" lon="-0.20393">
        <ele>1351.6</ele>
        <time>2021-08-29T08:55:03Z</time>
      </trkpt>
      <trkpt lat="42.99345" lon="-0.20395">
        <ele>1351.8</ele>
        <time>2021-08-29T08:55:04Z</time>
      </trkpt>
      <trkpt lat="42.99342" lon="-0.20397">
        <ele>1351.8</ele>
        <time>2021-08-29T08:55:05Z</time>
      </trkpt>
      <trkpt lat="42.99339" lon="-0.20398">
        <ele>1351.8</ele>
        <time>2021-08-29T08:55:06Z</time>
      </trkpt>
      <trkpt lat="42.99336" lon="-0.20401">
        <ele>1352</ele>
        <time>2021-08-29T08:55:07Z</time>
      </trkpt>
      <trkpt lat="42.99331" lon="-0.20404">
        <ele>1352.2</ele>
        <time>2021-08-29T08:55:09Z</time>
      </trkpt>
      <trkpt lat="42.99325" lon="-0.20405">
        <ele>1352.8</ele>
        <time>2021-08-29T08:55:11Z</time>
      </trkpt>
      <trkpt lat="42.99323" lon="-0.20407">
        <ele>1353</ele>
        <time>2021-08-29T08:55:12Z</time>
      </trkpt>
      <trkpt lat="42.9932" lon="-0.20408">
        <ele>1353</ele>
        <time>2021-08-29T08:55:13Z</time>
      </trkpt>
      <trkpt lat="42.99317" lon="-0.20409">
        <ele>1353.2</ele>
        <time>2021-08-29T08:55:14Z</time>
      </trkpt>
      <trkpt lat="42.99303" lon="-0.20413">
        <ele>1353.6</ele>
        <time>2021-08-29T08:55:18Z</time>
      </trkpt>
      <trkpt lat="42.99298" lon="-0.20415">
        <ele>1353.8</ele>
        <time>2021-08-29T08:55:20Z</time>
      </trkpt>
      <trkpt lat="42.99295" lon="-0.20414">
        <ele>1353.8</ele>
        <time>2021-08-29T08:55:21Z</time>
      </trkpt>
      <trkpt lat="42.99291" lon="-0.20412">
        <ele>1353.8</ele>
        <time>2021-08-29T08:55:22Z</time>
      </trkpt>
      <trkpt lat="42.99288" lon="-0.20409">
        <ele>1354</ele>
        <time>2021-08-29T08:55:23Z</time>
      </trkpt>
      <trkpt lat="42.99284" lon="-0.20406">
        <ele>1354</ele>
        <time>2021-08-29T08:55:24Z</time>
      </trkpt>
      <trkpt lat="42.99281" lon="-0.20402">
        <ele>1354</ele>
        <time>2021-08-29T08:55:25Z</time>
      </trkpt>
      <trkpt lat="42.99277" lon="-0.20399">
        <ele>1354</ele>
        <time>2021-08-29T08:55:26Z</time>
      </trkpt>
      <trkpt lat="42.9927" lon="-0.20392">
        <ele>1354.2</ele>
        <time>2021-08-29T08:55:28Z</time>
      </trkpt>
      <trkpt lat="42.99252" lon="-0.20369">
        <ele>1354.8</ele>
        <time>2021-08-29T08:55:34Z</time>
      </trkpt>
      <trkpt lat="42.99249" lon="-0.20366">
        <ele>1355</ele>
        <time>2021-08-29T08:55:35Z</time>
      </trkpt>
      <trkpt lat="42.99242" lon="-0.20361">
        <ele>1355.2</ele>
        <time>2021-08-29T08:55:37Z</time>
      </trkpt>
      <trkpt lat="42.99238" lon="-0.2036">
        <ele>1355.4</ele>
        <time>2021-08-29T08:55:38Z</time>
      </trkpt>
      <trkpt lat="42.99224" lon="-0.20355">
        <ele>1355.8</ele>
        <time>2021-08-29T08:55:42Z</time>
      </trkpt>
      <trkpt lat="42.99217" lon="-0.20354">
        <ele>1356.2</ele>
        <time>2021-08-29T08:55:44Z</time>
      </trkpt>
      <trkpt lat="42.99209" lon="-0.20349">
        <ele>1356.6</ele>
        <time>2021-08-29T08:55:46Z</time>
      </trkpt>
      <trkpt lat="42.99205" lon="-0.20347">
        <ele>1356.6</ele>
        <time>2021-08-29T08:55:47Z</time>
      </trkpt>
      <trkpt lat="42.99201" lon="-0.20344">
        <ele>1356.8</ele>
        <time>2021-08-29T08:55:48Z</time>
      </trkpt>
      <trkpt lat="42.99197" lon="-0.20342">
        <ele>1357</ele>
        <time>2021-08-29T08:55:49Z</time>
      </trkpt>
      <trkpt lat="42.99192" lon="-0.20338">
        <ele>1357.2</ele>
        <time>2021-08-29T08:55:50Z</time>
      </trkpt>
      <trkpt lat="42.99188" lon="-0.20336">
        <ele>1357.2</ele>
        <time>2021-08-29T08:55:51Z</time>
      </trkpt>
      <trkpt lat="42.99184" lon="-0.20334">
        <ele>1357.4</ele>
        <time>2021-08-29T08:55:52Z</time>
      </trkpt>
      <trkpt lat="42.99181" lon="-0.20332">
        <ele>1357.4</ele>
        <time>2021-08-29T08:55:53Z</time>
      </trkpt>
      <trkpt lat="42.99177" lon="-0.20331">
        <ele>1357.6</ele>
        <time>2021-08-29T08:55:54Z</time>
      </trkpt>
      <trkpt lat="42.99173" lon="-0.20329">
        <ele>1357.6</ele>
        <time>2021-08-29T08:55:55Z</time>
      </trkpt>
      <trkpt lat="42.99169" lon="-0.20327">
        <ele>1357.6</ele>
        <time>2021-08-29T08:55:56Z</time>
      </trkpt>
      <trkpt lat="42.99165" lon="-0.20326">
        <ele>1357.8</ele>
        <time>2021-08-29T08:55:57Z</time>
      </trkpt>
      <trkpt lat="42.9916" lon="-0.20323">
        <ele>1357.8</ele>
        <time>2021-08-29T08:55:58Z</time>
      </trkpt>
      <trkpt lat="42.99156" lon="-0.2032">
        <ele>1358</ele>
        <time>2021-08-29T08:55:59Z</time>
      </trkpt>
      <trkpt lat="42.99152" lon="-0.20317">
        <ele>1358.2</ele>
        <time>2021-08-29T08:56:00Z</time>
      </trkpt>
      <trkpt lat="42.99149" lon="-0.20315">
        <ele>1358.4</ele>
        <time>2021-08-29T08:56:01Z</time>
      </trkpt>
      <trkpt lat="42.99145" lon="-0.20313">
        <ele>1358.4</ele>
        <time>2021-08-29T08:56:02Z</time>
      </trkpt>
      <trkpt lat="42.99141" lon="-0.20311">
        <ele>1358.6</ele>
        <time>2021-08-29T08:56:03Z</time>
      </trkpt>
      <trkpt lat="42.99137" lon="-0.2031">
        <ele>1358.6</ele>
        <time>2021-08-29T08:56:04Z</time>
      </trkpt>
      <trkpt lat="42.99133" lon="-0.20307">
        <ele>1358.8</ele>
        <time>2021-08-29T08:56:05Z</time>
      </trkpt>
      <trkpt lat="42.99129" lon="-0.20305">
        <ele>1358.8</ele>
        <time>2021-08-29T08:56:06Z</time>
      </trkpt>
      <trkpt lat="42.99125" lon="-0.20304">
        <ele>1359</ele>
        <time>2021-08-29T08:56:07Z</time>
      </trkpt>
      <trkpt lat="42.99121" lon="-0.20303">
        <ele>1359</ele>
        <time>2021-08-29T08:56:08Z</time>
      </trkpt>
      <trkpt lat="42.99117" lon="-0.20301">
        <ele>1359.2</ele>
        <time>2021-08-29T08:56:09Z</time>
      </trkpt>
      <trkpt lat="42.99113" lon="-0.20299">
        <ele>1359.2</ele>
        <time>2021-08-29T08:56:10Z</time>
      </trkpt>
      <trkpt lat="42.9911" lon="-0.20298">
        <ele>1359.2</ele>
        <time>2021-08-29T08:56:11Z</time>
      </trkpt>
      <trkpt lat="42.99106" lon="-0.20296">
        <ele>1359.2</ele>
        <time>2021-08-29T08:56:12Z</time>
      </trkpt>
      <trkpt lat="42.99103" lon="-0.20294">
        <ele>1359.4</ele>
        <time>2021-08-29T08:56:13Z</time>
      </trkpt>
      <trkpt lat="42.991" lon="-0.20291">
        <ele>1359.4</ele>
        <time>2021-08-29T08:56:14Z</time>
      </trkpt>
      <trkpt lat="42.99098" lon="-0.20287">
        <ele>1359.4</ele>
        <time>2021-08-29T08:56:15Z</time>
      </trkpt>
      <trkpt lat="42.99095" lon="-0.20283">
        <ele>1359.4</ele>
        <time>2021-08-29T08:56:16Z</time>
      </trkpt>
      <trkpt lat="42.99093" lon="-0.20279">
        <ele>1359.4</ele>
        <time>2021-08-29T08:56:17Z</time>
      </trkpt>
      <trkpt lat="42.9909" lon="-0.20276">
        <ele>1359.4</ele>
        <time>2021-08-29T08:56:18Z</time>
      </trkpt>
      <trkpt lat="42.99087" lon="-0.20272">
        <ele>1359.4</ele>
        <time>2021-08-29T08:56:19Z</time>
      </trkpt>
      <trkpt lat="42.99071" lon="-0.20256">
        <ele>1359.4</ele>
        <time>2021-08-29T08:56:24Z</time>
      </trkpt>
      <trkpt lat="42.99065" lon="-0.2025">
        <ele>1359.4</ele>
        <time>2021-08-29T08:56:26Z</time>
      </trkpt>
      <trkpt lat="42.99058" lon="-0.20239">
        <ele>1359.6</ele>
        <time>2021-08-29T08:56:29Z</time>
      </trkpt>
      <trkpt lat="42.99056" lon="-0.20235">
        <ele>1359.8</ele>
        <time>2021-08-29T08:56:30Z</time>
      </trkpt>
      <trkpt lat="42.99055" lon="-0.20232">
        <ele>1359.8</ele>
        <time>2021-08-29T08:56:31Z</time>
      </trkpt>
      <trkpt lat="42.99054" lon="-0.20228">
        <ele>1359.8</ele>
        <time>2021-08-29T08:56:32Z</time>
      </trkpt>
      <trkpt lat="42.99054" lon="-0.20224">
        <ele>1359.8</ele>
        <time>2021-08-29T08:56:33Z</time>
      </trkpt>
      <trkpt lat="42.99054" lon="-0.20221">
        <ele>1360</ele>
        <time>2021-08-29T08:56:34Z</time>
      </trkpt>
      <trkpt lat="42.99056" lon="-0.20219">
        <ele>1360</ele>
        <time>2021-08-29T08:56:35Z</time>
      </trkpt>
      <trkpt lat="42.99057" lon="-0.20217">
        <ele>1360.2</ele>
        <time>2021-08-29T08:56:36Z</time>
      </trkpt>
      <trkpt lat="42.99059" lon="-0.20217">
        <ele>1360.2</ele>
        <time>2021-08-29T08:56:37Z</time>
      </trkpt>
      <trkpt lat="42.9906" lon="-0.20217">
        <ele>1360.2</ele>
        <time>2021-08-29T08:56:38Z</time>
      </trkpt>
      <trkpt lat="42.9906" lon="-0.20217">
        <ele>1360.2</ele>
        <time>2021-08-29T08:56:39Z</time>
      </trkpt>
      <trkpt lat="42.9906" lon="-0.20217">
        <ele>1360.2</ele>
        <time>2021-08-29T08:56:51Z</time>
      </trkpt>
    </trkseg>
  </trk>
</gpx>